<?xml version="1.0" encoding="UTF-8" standalone="no" ?>
<gpx xmlns="http://www.topografix.com/GPX/1/1" xmlns:xsi="http://www.w3.org/2001/XMLSchema-instance" xsi:schemaLocation="http://www.topografix.com/GPX/1/1 http://www.topografix.com/GPX/1/1/gpx.xsd" version="1.1" creator="VisuGPX - https://www.visugpx.com">
  <metadata>
    <name>VTT ( repérage circuit nocturne)</name>
    <desc><![CDATA[Modifications:
Départ Agora Commentry.
Point k 46.6 (sortie les Bruyères, prendre les Brandes en direction de la Geneste).
Retour Agora Commentry.]]></desc>
  </metadata>
  <trk>
    <name><![CDATA[VTT ( repérage circuit nocturne)]]></name>
    <trkseg>
      <trkpt lat="46.30907" lon="2.75385">
        <ele>366.1</ele>
        <time>2019-11-01T08:26:52Z</time>
      </trkpt>
      <trkpt lat="46.30907" lon="2.75385">
        <ele>366.1</ele>
        <time>2019-11-01T08:26:52Z</time>
      </trkpt>
      <trkpt lat="46.309" lon="2.75372">
        <ele>367</ele>
        <time>2019-11-01T08:26:53Z</time>
      </trkpt>
      <trkpt lat="46.30871" lon="2.75369">
        <ele>367</ele>
        <time>2019-11-01T08:26:54Z</time>
      </trkpt>
      <trkpt lat="46.30845" lon="2.75361">
        <ele>368</ele>
        <time>2019-11-01T08:26:55Z</time>
      </trkpt>
      <trkpt lat="46.30823" lon="2.75352">
        <ele>369</ele>
        <time>2019-11-01T08:26:56Z</time>
      </trkpt>
      <trkpt lat="46.30813" lon="2.75347">
        <ele>368.5</ele>
        <time>2019-11-01T08:26:57Z</time>
      </trkpt>
      <trkpt lat="46.30755" lon="2.75322">
        <ele>372.5</ele>
        <time>2019-11-01T08:26:58Z</time>
      </trkpt>
      <trkpt lat="46.30719" lon="2.75303">
        <ele>374</ele>
        <time>2019-11-01T08:26:59Z</time>
      </trkpt>
      <trkpt lat="46.30691" lon="2.75291">
        <ele>375</ele>
        <time>2019-11-01T08:27:00Z</time>
      </trkpt>
      <trkpt lat="46.30678" lon="2.75284">
        <ele>375</ele>
        <time>2019-11-01T08:27:01Z</time>
      </trkpt>
      <trkpt lat="46.30667" lon="2.75272">
        <ele>376</ele>
        <time>2019-11-01T08:27:02Z</time>
      </trkpt>
      <trkpt lat="46.30651" lon="2.75245">
        <ele>378</ele>
        <time>2019-11-01T08:27:03Z</time>
      </trkpt>
      <trkpt lat="46.30641" lon="2.75212">
        <ele>379</ele>
        <time>2019-11-01T08:27:04Z</time>
      </trkpt>
      <trkpt lat="46.30641" lon="2.75183">
        <ele>382.5</ele>
        <time>2019-11-01T08:27:05Z</time>
      </trkpt>
      <trkpt lat="46.3064" lon="2.75177">
        <ele>382.8</ele>
        <time>2019-11-01T08:27:06Z</time>
      </trkpt>
      <trkpt lat="46.30638" lon="2.75171">
        <ele>383</ele>
        <time>2019-11-01T08:27:07Z</time>
      </trkpt>
      <trkpt lat="46.30637" lon="2.75165">
        <ele>383.2</ele>
        <time>2019-11-01T08:27:08Z</time>
      </trkpt>
      <trkpt lat="46.30635" lon="2.75159">
        <ele>383.4</ele>
        <time>2019-11-01T08:27:09Z</time>
      </trkpt>
      <trkpt lat="46.30634" lon="2.75153">
        <ele>383.6</ele>
        <time>2019-11-01T08:27:10Z</time>
      </trkpt>
      <trkpt lat="46.30632" lon="2.75148">
        <ele>383.7</ele>
        <time>2019-11-01T08:27:11Z</time>
      </trkpt>
      <trkpt lat="46.3063" lon="2.75143">
        <ele>383.9</ele>
        <time>2019-11-01T08:27:12Z</time>
      </trkpt>
      <trkpt lat="46.30628" lon="2.75137">
        <ele>384</ele>
        <time>2019-11-01T08:27:13Z</time>
      </trkpt>
      <trkpt lat="46.30626" lon="2.75132">
        <ele>384.1</ele>
        <time>2019-11-01T08:27:14Z</time>
      </trkpt>
      <trkpt lat="46.30624" lon="2.75127">
        <ele>384.2</ele>
        <time>2019-11-01T08:27:15Z</time>
      </trkpt>
      <trkpt lat="46.30621" lon="2.75122">
        <ele>384.3</ele>
        <time>2019-11-01T08:27:16Z</time>
      </trkpt>
      <trkpt lat="46.30618" lon="2.75117">
        <ele>384.3</ele>
        <time>2019-11-01T08:27:17Z</time>
      </trkpt>
      <trkpt lat="46.30616" lon="2.75112">
        <ele>384.3</ele>
        <time>2019-11-01T08:27:18Z</time>
      </trkpt>
      <trkpt lat="46.30613" lon="2.75107">
        <ele>384.3</ele>
        <time>2019-11-01T08:27:19Z</time>
      </trkpt>
      <trkpt lat="46.3061" lon="2.75103">
        <ele>384.4</ele>
        <time>2019-11-01T08:27:20Z</time>
      </trkpt>
      <trkpt lat="46.30607" lon="2.75098">
        <ele>384.4</ele>
        <time>2019-11-01T08:27:21Z</time>
      </trkpt>
      <trkpt lat="46.30604" lon="2.75094">
        <ele>384.4</ele>
        <time>2019-11-01T08:27:22Z</time>
      </trkpt>
      <trkpt lat="46.30601" lon="2.7509">
        <ele>384.4</ele>
        <time>2019-11-01T08:27:23Z</time>
      </trkpt>
      <trkpt lat="46.30598" lon="2.75085">
        <ele>384.4</ele>
        <time>2019-11-01T08:27:24Z</time>
      </trkpt>
      <trkpt lat="46.30595" lon="2.7508">
        <ele>384.4</ele>
        <time>2019-11-01T08:27:25Z</time>
      </trkpt>
      <trkpt lat="46.30592" lon="2.75076">
        <ele>384.4</ele>
        <time>2019-11-01T08:27:26Z</time>
      </trkpt>
      <trkpt lat="46.30589" lon="2.75071">
        <ele>384.4</ele>
        <time>2019-11-01T08:27:27Z</time>
      </trkpt>
      <trkpt lat="46.30587" lon="2.75066">
        <ele>384.3</ele>
        <time>2019-11-01T08:27:28Z</time>
      </trkpt>
      <trkpt lat="46.30584" lon="2.7506">
        <ele>384.3</ele>
        <time>2019-11-01T08:27:29Z</time>
      </trkpt>
      <trkpt lat="46.30581" lon="2.75055">
        <ele>384.3</ele>
        <time>2019-11-01T08:27:30Z</time>
      </trkpt>
      <trkpt lat="46.30579" lon="2.7505">
        <ele>384.2</ele>
        <time>2019-11-01T08:27:31Z</time>
      </trkpt>
      <trkpt lat="46.30577" lon="2.75045">
        <ele>384.1</ele>
        <time>2019-11-01T08:27:32Z</time>
      </trkpt>
      <trkpt lat="46.30574" lon="2.7504">
        <ele>384</ele>
        <time>2019-11-01T08:27:33Z</time>
      </trkpt>
      <trkpt lat="46.30572" lon="2.75035">
        <ele>383.8</ele>
        <time>2019-11-01T08:27:34Z</time>
      </trkpt>
      <trkpt lat="46.30569" lon="2.75029">
        <ele>383.7</ele>
        <time>2019-11-01T08:27:35Z</time>
      </trkpt>
      <trkpt lat="46.30567" lon="2.75023">
        <ele>383.5</ele>
        <time>2019-11-01T08:27:36Z</time>
      </trkpt>
      <trkpt lat="46.30565" lon="2.75019">
        <ele>383.3</ele>
        <time>2019-11-01T08:27:37Z</time>
      </trkpt>
      <trkpt lat="46.30562" lon="2.75011">
        <ele>383</ele>
        <time>2019-11-01T08:27:38Z</time>
      </trkpt>
      <trkpt lat="46.30559" lon="2.75005">
        <ele>382.7</ele>
        <time>2019-11-01T08:27:39Z</time>
      </trkpt>
      <trkpt lat="46.30556" lon="2.74999">
        <ele>382.3</ele>
        <time>2019-11-01T08:27:40Z</time>
      </trkpt>
      <trkpt lat="46.30553" lon="2.74992">
        <ele>382</ele>
        <time>2019-11-01T08:27:41Z</time>
      </trkpt>
      <trkpt lat="46.3055" lon="2.74985">
        <ele>381.6</ele>
        <time>2019-11-01T08:27:42Z</time>
      </trkpt>
      <trkpt lat="46.30547" lon="2.74977">
        <ele>381.3</ele>
        <time>2019-11-01T08:27:43Z</time>
      </trkpt>
      <trkpt lat="46.30543" lon="2.7497">
        <ele>380.9</ele>
        <time>2019-11-01T08:27:44Z</time>
      </trkpt>
      <trkpt lat="46.3054" lon="2.74962">
        <ele>380.6</ele>
        <time>2019-11-01T08:27:45Z</time>
      </trkpt>
      <trkpt lat="46.30537" lon="2.74956">
        <ele>380.4</ele>
        <time>2019-11-01T08:27:46Z</time>
      </trkpt>
      <trkpt lat="46.30533" lon="2.74946">
        <ele>380.2</ele>
        <time>2019-11-01T08:27:47Z</time>
      </trkpt>
      <trkpt lat="46.30529" lon="2.74937">
        <ele>380</ele>
        <time>2019-11-01T08:27:48Z</time>
      </trkpt>
      <trkpt lat="46.30525" lon="2.74929">
        <ele>379.8</ele>
        <time>2019-11-01T08:27:49Z</time>
      </trkpt>
      <trkpt lat="46.30522" lon="2.74922">
        <ele>379.7</ele>
        <time>2019-11-01T08:27:50Z</time>
      </trkpt>
      <trkpt lat="46.30518" lon="2.74913">
        <ele>379.4</ele>
        <time>2019-11-01T08:27:51Z</time>
      </trkpt>
      <trkpt lat="46.30515" lon="2.74903">
        <ele>379.1</ele>
        <time>2019-11-01T08:27:52Z</time>
      </trkpt>
      <trkpt lat="46.3051" lon="2.74892">
        <ele>378.8</ele>
        <time>2019-11-01T08:27:53Z</time>
      </trkpt>
      <trkpt lat="46.30505" lon="2.74883">
        <ele>378.5</ele>
        <time>2019-11-01T08:27:54Z</time>
      </trkpt>
      <trkpt lat="46.30502" lon="2.74875">
        <ele>378.2</ele>
        <time>2019-11-01T08:27:55Z</time>
      </trkpt>
      <trkpt lat="46.30497" lon="2.74866">
        <ele>377.8</ele>
        <time>2019-11-01T08:27:56Z</time>
      </trkpt>
      <trkpt lat="46.30491" lon="2.74855">
        <ele>377.4</ele>
        <time>2019-11-01T08:27:57Z</time>
      </trkpt>
      <trkpt lat="46.30486" lon="2.74847">
        <ele>377.1</ele>
        <time>2019-11-01T08:27:58Z</time>
      </trkpt>
      <trkpt lat="46.3048" lon="2.74839">
        <ele>376.8</ele>
        <time>2019-11-01T08:27:59Z</time>
      </trkpt>
      <trkpt lat="46.30474" lon="2.74833">
        <ele>376.6</ele>
        <time>2019-11-01T08:28:00Z</time>
      </trkpt>
      <trkpt lat="46.30468" lon="2.74827">
        <ele>376.3</ele>
        <time>2019-11-01T08:28:01Z</time>
      </trkpt>
      <trkpt lat="46.30459" lon="2.74819">
        <ele>376</ele>
        <time>2019-11-01T08:28:02Z</time>
      </trkpt>
      <trkpt lat="46.30452" lon="2.74814">
        <ele>375.8</ele>
        <time>2019-11-01T08:28:03Z</time>
      </trkpt>
      <trkpt lat="46.30444" lon="2.74808">
        <ele>374.8</ele>
        <time>2019-11-01T08:28:04Z</time>
      </trkpt>
      <trkpt lat="46.30438" lon="2.74803">
        <ele>374.6</ele>
        <time>2019-11-01T08:28:05Z</time>
      </trkpt>
      <trkpt lat="46.3043" lon="2.74796">
        <ele>373.3</ele>
        <time>2019-11-01T08:28:06Z</time>
      </trkpt>
      <trkpt lat="46.3042" lon="2.74789">
        <ele>372.3</ele>
        <time>2019-11-01T08:28:07Z</time>
      </trkpt>
      <trkpt lat="46.30412" lon="2.74782">
        <ele>371.6</ele>
        <time>2019-11-01T08:28:08Z</time>
      </trkpt>
      <trkpt lat="46.30404" lon="2.74776">
        <ele>371</ele>
        <time>2019-11-01T08:28:09Z</time>
      </trkpt>
      <trkpt lat="46.30397" lon="2.74771">
        <ele>370.6</ele>
        <time>2019-11-01T08:28:10Z</time>
      </trkpt>
      <trkpt lat="46.30389" lon="2.74765">
        <ele>370.1</ele>
        <time>2019-11-01T08:28:11Z</time>
      </trkpt>
      <trkpt lat="46.3038" lon="2.74758">
        <ele>369.6</ele>
        <time>2019-11-01T08:28:12Z</time>
      </trkpt>
      <trkpt lat="46.30374" lon="2.74752">
        <ele>369.2</ele>
        <time>2019-11-01T08:28:13Z</time>
      </trkpt>
      <trkpt lat="46.30368" lon="2.74745">
        <ele>369</ele>
        <time>2019-11-01T08:28:14Z</time>
      </trkpt>
      <trkpt lat="46.30363" lon="2.74738">
        <ele>368.4</ele>
        <time>2019-11-01T08:28:15Z</time>
      </trkpt>
      <trkpt lat="46.30358" lon="2.7473">
        <ele>368.1</ele>
        <time>2019-11-01T08:28:16Z</time>
      </trkpt>
      <trkpt lat="46.30352" lon="2.74723">
        <ele>367.4</ele>
        <time>2019-11-01T08:28:17Z</time>
      </trkpt>
      <trkpt lat="46.30346" lon="2.74718">
        <ele>366.9</ele>
        <time>2019-11-01T08:28:18Z</time>
      </trkpt>
      <trkpt lat="46.3034" lon="2.74716">
        <ele>366.8</ele>
        <time>2019-11-01T08:28:19Z</time>
      </trkpt>
      <trkpt lat="46.30333" lon="2.74716">
        <ele>366.7</ele>
        <time>2019-11-01T08:28:20Z</time>
      </trkpt>
      <trkpt lat="46.30326" lon="2.74716">
        <ele>366.6</ele>
        <time>2019-11-01T08:28:21Z</time>
      </trkpt>
      <trkpt lat="46.30319" lon="2.74717">
        <ele>366.1</ele>
        <time>2019-11-01T08:28:22Z</time>
      </trkpt>
      <trkpt lat="46.30312" lon="2.74717">
        <ele>366</ele>
        <time>2019-11-01T08:28:23Z</time>
      </trkpt>
      <trkpt lat="46.30305" lon="2.74715">
        <ele>365.9</ele>
        <time>2019-11-01T08:28:24Z</time>
      </trkpt>
      <trkpt lat="46.30298" lon="2.74712">
        <ele>365.8</ele>
        <time>2019-11-01T08:28:25Z</time>
      </trkpt>
      <trkpt lat="46.3029" lon="2.74709">
        <ele>365.6</ele>
        <time>2019-11-01T08:28:26Z</time>
      </trkpt>
      <trkpt lat="46.30283" lon="2.74706">
        <ele>365.5</ele>
        <time>2019-11-01T08:28:27Z</time>
      </trkpt>
      <trkpt lat="46.30276" lon="2.74703">
        <ele>365.3</ele>
        <time>2019-11-01T08:28:28Z</time>
      </trkpt>
      <trkpt lat="46.30268" lon="2.747">
        <ele>365.1</ele>
        <time>2019-11-01T08:28:29Z</time>
      </trkpt>
      <trkpt lat="46.30261" lon="2.74696">
        <ele>365</ele>
        <time>2019-11-01T08:28:30Z</time>
      </trkpt>
      <trkpt lat="46.30253" lon="2.74693">
        <ele>364.8</ele>
        <time>2019-11-01T08:28:31Z</time>
      </trkpt>
      <trkpt lat="46.30245" lon="2.74689">
        <ele>364.6</ele>
        <time>2019-11-01T08:28:32Z</time>
      </trkpt>
      <trkpt lat="46.30238" lon="2.74685">
        <ele>364.4</ele>
        <time>2019-11-01T08:28:33Z</time>
      </trkpt>
      <trkpt lat="46.3023" lon="2.7468">
        <ele>364.2</ele>
        <time>2019-11-01T08:28:34Z</time>
      </trkpt>
      <trkpt lat="46.30223" lon="2.74676">
        <ele>364.2</ele>
        <time>2019-11-01T08:28:35Z</time>
      </trkpt>
      <trkpt lat="46.30216" lon="2.74672">
        <ele>364.2</ele>
        <time>2019-11-01T08:28:36Z</time>
      </trkpt>
      <trkpt lat="46.30208" lon="2.74668">
        <ele>364.1</ele>
        <time>2019-11-01T08:28:37Z</time>
      </trkpt>
      <trkpt lat="46.30201" lon="2.74664">
        <ele>364.1</ele>
        <time>2019-11-01T08:28:38Z</time>
      </trkpt>
      <trkpt lat="46.30195" lon="2.7466">
        <ele>364.1</ele>
        <time>2019-11-01T08:28:39Z</time>
      </trkpt>
      <trkpt lat="46.30188" lon="2.74656">
        <ele>364.1</ele>
        <time>2019-11-01T08:28:40Z</time>
      </trkpt>
      <trkpt lat="46.30181" lon="2.74652">
        <ele>364.1</ele>
        <time>2019-11-01T08:28:41Z</time>
      </trkpt>
      <trkpt lat="46.30175" lon="2.7465">
        <ele>364.1</ele>
        <time>2019-11-01T08:28:42Z</time>
      </trkpt>
      <trkpt lat="46.30168" lon="2.74647">
        <ele>364.2</ele>
        <time>2019-11-01T08:28:43Z</time>
      </trkpt>
      <trkpt lat="46.30162" lon="2.74644">
        <ele>364.2</ele>
        <time>2019-11-01T08:28:44Z</time>
      </trkpt>
      <trkpt lat="46.30156" lon="2.74642">
        <ele>364.3</ele>
        <time>2019-11-01T08:28:45Z</time>
      </trkpt>
      <trkpt lat="46.3015" lon="2.7464">
        <ele>364.4</ele>
        <time>2019-11-01T08:28:46Z</time>
      </trkpt>
      <trkpt lat="46.30144" lon="2.74638">
        <ele>364.5</ele>
        <time>2019-11-01T08:28:47Z</time>
      </trkpt>
      <trkpt lat="46.30138" lon="2.74636">
        <ele>364.6</ele>
        <time>2019-11-01T08:28:48Z</time>
      </trkpt>
      <trkpt lat="46.30132" lon="2.74635">
        <ele>364.7</ele>
        <time>2019-11-01T08:28:49Z</time>
      </trkpt>
      <trkpt lat="46.30127" lon="2.74633">
        <ele>364.7</ele>
        <time>2019-11-01T08:28:50Z</time>
      </trkpt>
      <trkpt lat="46.30122" lon="2.74629">
        <ele>364.9</ele>
        <time>2019-11-01T08:28:51Z</time>
      </trkpt>
      <trkpt lat="46.30118" lon="2.74625">
        <ele>365</ele>
        <time>2019-11-01T08:28:52Z</time>
      </trkpt>
      <trkpt lat="46.30116" lon="2.74619">
        <ele>365.2</ele>
        <time>2019-11-01T08:28:53Z</time>
      </trkpt>
      <trkpt lat="46.30115" lon="2.74611">
        <ele>365.3</ele>
        <time>2019-11-01T08:28:54Z</time>
      </trkpt>
      <trkpt lat="46.30115" lon="2.74604">
        <ele>365.4</ele>
        <time>2019-11-01T08:28:55Z</time>
      </trkpt>
      <trkpt lat="46.30115" lon="2.74595">
        <ele>365.5</ele>
        <time>2019-11-01T08:28:56Z</time>
      </trkpt>
      <trkpt lat="46.30116" lon="2.74585">
        <ele>365.6</ele>
        <time>2019-11-01T08:28:57Z</time>
      </trkpt>
      <trkpt lat="46.30117" lon="2.74574">
        <ele>365.7</ele>
        <time>2019-11-01T08:28:58Z</time>
      </trkpt>
      <trkpt lat="46.30118" lon="2.74563">
        <ele>365.7</ele>
        <time>2019-11-01T08:28:59Z</time>
      </trkpt>
      <trkpt lat="46.30118" lon="2.74552">
        <ele>365.7</ele>
        <time>2019-11-01T08:29:00Z</time>
      </trkpt>
      <trkpt lat="46.30117" lon="2.74541">
        <ele>365.7</ele>
        <time>2019-11-01T08:29:01Z</time>
      </trkpt>
      <trkpt lat="46.30117" lon="2.74531">
        <ele>365.6</ele>
        <time>2019-11-01T08:29:02Z</time>
      </trkpt>
      <trkpt lat="46.30117" lon="2.7452">
        <ele>365.5</ele>
        <time>2019-11-01T08:29:03Z</time>
      </trkpt>
      <trkpt lat="46.30116" lon="2.74509">
        <ele>365.4</ele>
        <time>2019-11-01T08:29:04Z</time>
      </trkpt>
      <trkpt lat="46.30115" lon="2.74498">
        <ele>365.1</ele>
        <time>2019-11-01T08:29:05Z</time>
      </trkpt>
      <trkpt lat="46.30114" lon="2.74487">
        <ele>364.9</ele>
        <time>2019-11-01T08:29:06Z</time>
      </trkpt>
      <trkpt lat="46.30113" lon="2.74477">
        <ele>364.8</ele>
        <time>2019-11-01T08:29:07Z</time>
      </trkpt>
      <trkpt lat="46.30111" lon="2.74466">
        <ele>364.7</ele>
        <time>2019-11-01T08:29:08Z</time>
      </trkpt>
      <trkpt lat="46.30109" lon="2.74455">
        <ele>364.5</ele>
        <time>2019-11-01T08:29:09Z</time>
      </trkpt>
      <trkpt lat="46.30108" lon="2.74445">
        <ele>364.4</ele>
        <time>2019-11-01T08:29:10Z</time>
      </trkpt>
      <trkpt lat="46.30107" lon="2.74434">
        <ele>364.1</ele>
        <time>2019-11-01T08:29:11Z</time>
      </trkpt>
      <trkpt lat="46.30106" lon="2.74423">
        <ele>363.9</ele>
        <time>2019-11-01T08:29:12Z</time>
      </trkpt>
      <trkpt lat="46.30105" lon="2.74413">
        <ele>363.7</ele>
        <time>2019-11-01T08:29:13Z</time>
      </trkpt>
      <trkpt lat="46.30103" lon="2.74402">
        <ele>363.6</ele>
        <time>2019-11-01T08:29:14Z</time>
      </trkpt>
      <trkpt lat="46.30102" lon="2.74392">
        <ele>363.6</ele>
        <time>2019-11-01T08:29:15Z</time>
      </trkpt>
      <trkpt lat="46.301" lon="2.74382">
        <ele>363.6</ele>
        <time>2019-11-01T08:29:16Z</time>
      </trkpt>
      <trkpt lat="46.30099" lon="2.74372">
        <ele>363.5</ele>
        <time>2019-11-01T08:29:17Z</time>
      </trkpt>
      <trkpt lat="46.30097" lon="2.74362">
        <ele>363.5</ele>
        <time>2019-11-01T08:29:27Z</time>
      </trkpt>
      <trkpt lat="46.30096" lon="2.74352">
        <ele>363.3</ele>
        <time>2019-11-01T08:29:28Z</time>
      </trkpt>
      <trkpt lat="46.30095" lon="2.74343">
        <ele>363.2</ele>
        <time>2019-11-01T08:29:29Z</time>
      </trkpt>
      <trkpt lat="46.30093" lon="2.74333">
        <ele>363</ele>
        <time>2019-11-01T08:29:30Z</time>
      </trkpt>
      <trkpt lat="46.30092" lon="2.74324">
        <ele>362.8</ele>
        <time>2019-11-01T08:29:31Z</time>
      </trkpt>
      <trkpt lat="46.30091" lon="2.74316">
        <ele>362.7</ele>
        <time>2019-11-01T08:29:32Z</time>
      </trkpt>
      <trkpt lat="46.3009" lon="2.74308">
        <ele>362.6</ele>
        <time>2019-11-01T08:29:33Z</time>
      </trkpt>
      <trkpt lat="46.30089" lon="2.74302">
        <ele>362.6</ele>
        <time>2019-11-01T08:29:34Z</time>
      </trkpt>
      <trkpt lat="46.30088" lon="2.74297">
        <ele>362.5</ele>
        <time>2019-11-01T08:29:35Z</time>
      </trkpt>
      <trkpt lat="46.30087" lon="2.74295">
        <ele>362.5</ele>
        <time>2019-11-01T08:29:36Z</time>
      </trkpt>
      <trkpt lat="46.30086" lon="2.74294">
        <ele>362.5</ele>
        <time>2019-11-01T08:29:37Z</time>
      </trkpt>
      <trkpt lat="46.30086" lon="2.74295">
        <ele>362.5</ele>
        <time>2019-11-01T08:29:38Z</time>
      </trkpt>
      <trkpt lat="46.30085" lon="2.74296">
        <ele>362.5</ele>
        <time>2019-11-01T08:29:39Z</time>
      </trkpt>
      <trkpt lat="46.30086" lon="2.74302">
        <ele>362.5</ele>
        <time>2019-11-01T08:29:40Z</time>
      </trkpt>
      <trkpt lat="46.30087" lon="2.74304">
        <ele>362.4</ele>
        <time>2019-11-01T08:29:41Z</time>
      </trkpt>
      <trkpt lat="46.30087" lon="2.74306">
        <ele>362.5</ele>
        <time>2019-11-01T08:29:42Z</time>
      </trkpt>
      <trkpt lat="46.30088" lon="2.74309">
        <ele>362.5</ele>
        <time>2019-11-01T08:29:43Z</time>
      </trkpt>
      <trkpt lat="46.30089" lon="2.74312">
        <ele>362.5</ele>
        <time>2019-11-01T08:29:44Z</time>
      </trkpt>
      <trkpt lat="46.30089" lon="2.74315">
        <ele>362.5</ele>
        <time>2019-11-01T08:29:45Z</time>
      </trkpt>
      <trkpt lat="46.30089" lon="2.74319">
        <ele>362.5</ele>
        <time>2019-11-01T08:29:46Z</time>
      </trkpt>
      <trkpt lat="46.3009" lon="2.74323">
        <ele>362.6</ele>
        <time>2019-11-01T08:29:47Z</time>
      </trkpt>
      <trkpt lat="46.30091" lon="2.74327">
        <ele>362.6</ele>
        <time>2019-11-01T08:29:48Z</time>
      </trkpt>
      <trkpt lat="46.30092" lon="2.74331">
        <ele>362.6</ele>
        <time>2019-11-01T08:29:49Z</time>
      </trkpt>
      <trkpt lat="46.30093" lon="2.74336">
        <ele>362.7</ele>
        <time>2019-11-01T08:29:50Z</time>
      </trkpt>
      <trkpt lat="46.30093" lon="2.74341">
        <ele>362.8</ele>
        <time>2019-11-01T08:29:51Z</time>
      </trkpt>
      <trkpt lat="46.30094" lon="2.74346">
        <ele>362.9</ele>
        <time>2019-11-01T08:29:52Z</time>
      </trkpt>
      <trkpt lat="46.30095" lon="2.74352">
        <ele>363</ele>
        <time>2019-11-01T08:29:53Z</time>
      </trkpt>
      <trkpt lat="46.30096" lon="2.74357">
        <ele>363.1</ele>
        <time>2019-11-01T08:29:54Z</time>
      </trkpt>
      <trkpt lat="46.30097" lon="2.74363">
        <ele>363.3</ele>
        <time>2019-11-01T08:29:55Z</time>
      </trkpt>
      <trkpt lat="46.30098" lon="2.74371">
        <ele>363.4</ele>
        <time>2019-11-01T08:29:56Z</time>
      </trkpt>
      <trkpt lat="46.30099" lon="2.74377">
        <ele>363.5</ele>
        <time>2019-11-01T08:29:57Z</time>
      </trkpt>
      <trkpt lat="46.301" lon="2.74383">
        <ele>363.5</ele>
        <time>2019-11-01T08:29:58Z</time>
      </trkpt>
      <trkpt lat="46.30101" lon="2.7439">
        <ele>363.5</ele>
        <time>2019-11-01T08:29:59Z</time>
      </trkpt>
      <trkpt lat="46.30102" lon="2.74397">
        <ele>363.6</ele>
        <time>2019-11-01T08:30:00Z</time>
      </trkpt>
      <trkpt lat="46.30104" lon="2.74406">
        <ele>363.6</ele>
        <time>2019-11-01T08:30:01Z</time>
      </trkpt>
      <trkpt lat="46.30105" lon="2.74414">
        <ele>363.6</ele>
        <time>2019-11-01T08:30:02Z</time>
      </trkpt>
      <trkpt lat="46.30105" lon="2.74421">
        <ele>363.7</ele>
        <time>2019-11-01T08:30:03Z</time>
      </trkpt>
      <trkpt lat="46.30107" lon="2.7443">
        <ele>363.8</ele>
        <time>2019-11-01T08:30:04Z</time>
      </trkpt>
      <trkpt lat="46.30108" lon="2.74436">
        <ele>363.9</ele>
        <time>2019-11-01T08:30:05Z</time>
      </trkpt>
      <trkpt lat="46.30109" lon="2.74445">
        <ele>364.1</ele>
        <time>2019-11-01T08:30:06Z</time>
      </trkpt>
      <trkpt lat="46.3011" lon="2.74453">
        <ele>364.3</ele>
        <time>2019-11-01T08:30:07Z</time>
      </trkpt>
      <trkpt lat="46.30111" lon="2.7446">
        <ele>364.5</ele>
        <time>2019-11-01T08:30:08Z</time>
      </trkpt>
      <trkpt lat="46.30112" lon="2.74468">
        <ele>364.6</ele>
        <time>2019-11-01T08:30:09Z</time>
      </trkpt>
      <trkpt lat="46.30113" lon="2.74476">
        <ele>364.7</ele>
        <time>2019-11-01T08:30:10Z</time>
      </trkpt>
      <trkpt lat="46.30113" lon="2.74483">
        <ele>364.8</ele>
        <time>2019-11-01T08:30:11Z</time>
      </trkpt>
      <trkpt lat="46.30114" lon="2.74491">
        <ele>364.9</ele>
        <time>2019-11-01T08:30:12Z</time>
      </trkpt>
      <trkpt lat="46.30115" lon="2.74497">
        <ele>365</ele>
        <time>2019-11-01T08:30:13Z</time>
      </trkpt>
      <trkpt lat="46.30116" lon="2.74507">
        <ele>365.2</ele>
        <time>2019-11-01T08:30:14Z</time>
      </trkpt>
      <trkpt lat="46.30117" lon="2.74514">
        <ele>365.4</ele>
        <time>2019-11-01T08:30:15Z</time>
      </trkpt>
      <trkpt lat="46.30118" lon="2.74522">
        <ele>365.5</ele>
        <time>2019-11-01T08:30:16Z</time>
      </trkpt>
      <trkpt lat="46.30119" lon="2.74529">
        <ele>365.6</ele>
        <time>2019-11-01T08:30:17Z</time>
      </trkpt>
      <trkpt lat="46.3012" lon="2.74537">
        <ele>365.6</ele>
        <time>2019-11-01T08:30:18Z</time>
      </trkpt>
      <trkpt lat="46.30121" lon="2.74546">
        <ele>365.7</ele>
        <time>2019-11-01T08:30:19Z</time>
      </trkpt>
      <trkpt lat="46.30121" lon="2.74554">
        <ele>365.7</ele>
        <time>2019-11-01T08:30:20Z</time>
      </trkpt>
      <trkpt lat="46.30121" lon="2.74562">
        <ele>365.7</ele>
        <time>2019-11-01T08:30:21Z</time>
      </trkpt>
      <trkpt lat="46.30122" lon="2.7457">
        <ele>365.7</ele>
        <time>2019-11-01T08:30:22Z</time>
      </trkpt>
      <trkpt lat="46.30122" lon="2.74578">
        <ele>365.7</ele>
        <time>2019-11-01T08:30:23Z</time>
      </trkpt>
      <trkpt lat="46.30122" lon="2.74586">
        <ele>365.6</ele>
        <time>2019-11-01T08:30:24Z</time>
      </trkpt>
      <trkpt lat="46.30122" lon="2.74594">
        <ele>365.5</ele>
        <time>2019-11-01T08:30:25Z</time>
      </trkpt>
      <trkpt lat="46.30122" lon="2.74602">
        <ele>365.4</ele>
        <time>2019-11-01T08:30:26Z</time>
      </trkpt>
      <trkpt lat="46.30122" lon="2.7461">
        <ele>365.3</ele>
        <time>2019-11-01T08:30:27Z</time>
      </trkpt>
      <trkpt lat="46.30122" lon="2.74617">
        <ele>365.2</ele>
        <time>2019-11-01T08:30:28Z</time>
      </trkpt>
      <trkpt lat="46.30122" lon="2.74624">
        <ele>365</ele>
        <time>2019-11-01T08:30:29Z</time>
      </trkpt>
      <trkpt lat="46.30123" lon="2.7463">
        <ele>364.8</ele>
        <time>2019-11-01T08:30:30Z</time>
      </trkpt>
      <trkpt lat="46.30124" lon="2.74633">
        <ele>364.8</ele>
        <time>2019-11-01T08:30:31Z</time>
      </trkpt>
      <trkpt lat="46.30126" lon="2.74638">
        <ele>364.7</ele>
        <time>2019-11-01T08:30:32Z</time>
      </trkpt>
      <trkpt lat="46.30129" lon="2.74642">
        <ele>364.7</ele>
        <time>2019-11-01T08:30:33Z</time>
      </trkpt>
      <trkpt lat="46.30132" lon="2.74644">
        <ele>364.6</ele>
        <time>2019-11-01T08:30:34Z</time>
      </trkpt>
      <trkpt lat="46.30136" lon="2.74646">
        <ele>364.6</ele>
        <time>2019-11-01T08:30:35Z</time>
      </trkpt>
      <trkpt lat="46.30141" lon="2.74648">
        <ele>364.5</ele>
        <time>2019-11-01T08:30:36Z</time>
      </trkpt>
      <trkpt lat="46.30144" lon="2.74649">
        <ele>364.4</ele>
        <time>2019-11-01T08:30:37Z</time>
      </trkpt>
      <trkpt lat="46.3015" lon="2.74651">
        <ele>364.3</ele>
        <time>2019-11-01T08:30:38Z</time>
      </trkpt>
      <trkpt lat="46.30155" lon="2.74653">
        <ele>364.3</ele>
        <time>2019-11-01T08:30:39Z</time>
      </trkpt>
      <trkpt lat="46.30159" lon="2.74654">
        <ele>364.2</ele>
        <time>2019-11-01T08:30:40Z</time>
      </trkpt>
      <trkpt lat="46.30164" lon="2.74655">
        <ele>364.2</ele>
        <time>2019-11-01T08:30:41Z</time>
      </trkpt>
      <trkpt lat="46.3017" lon="2.74657">
        <ele>364.2</ele>
        <time>2019-11-01T08:30:42Z</time>
      </trkpt>
      <trkpt lat="46.30177" lon="2.74659">
        <ele>364.1</ele>
        <time>2019-11-01T08:30:43Z</time>
      </trkpt>
      <trkpt lat="46.30183" lon="2.74662">
        <ele>364.1</ele>
        <time>2019-11-01T08:30:44Z</time>
      </trkpt>
      <trkpt lat="46.30188" lon="2.74664">
        <ele>364.1</ele>
        <time>2019-11-01T08:30:45Z</time>
      </trkpt>
      <trkpt lat="46.30194" lon="2.74666">
        <ele>364.1</ele>
        <time>2019-11-01T08:30:46Z</time>
      </trkpt>
      <trkpt lat="46.30201" lon="2.7467">
        <ele>364.1</ele>
        <time>2019-11-01T08:30:47Z</time>
      </trkpt>
      <trkpt lat="46.30207" lon="2.74674">
        <ele>364.1</ele>
        <time>2019-11-01T08:30:48Z</time>
      </trkpt>
      <trkpt lat="46.30213" lon="2.74677">
        <ele>364.2</ele>
        <time>2019-11-01T08:30:49Z</time>
      </trkpt>
      <trkpt lat="46.30217" lon="2.7468">
        <ele>364.2</ele>
        <time>2019-11-01T08:30:50Z</time>
      </trkpt>
      <trkpt lat="46.30224" lon="2.74684">
        <ele>364.2</ele>
        <time>2019-11-01T08:30:51Z</time>
      </trkpt>
      <trkpt lat="46.30231" lon="2.74688">
        <ele>364.3</ele>
        <time>2019-11-01T08:30:52Z</time>
      </trkpt>
      <trkpt lat="46.30237" lon="2.74692">
        <ele>364.4</ele>
        <time>2019-11-01T08:30:53Z</time>
      </trkpt>
      <trkpt lat="46.30243" lon="2.74695">
        <ele>364.6</ele>
        <time>2019-11-01T08:30:54Z</time>
      </trkpt>
      <trkpt lat="46.30249" lon="2.74699">
        <ele>364.7</ele>
        <time>2019-11-01T08:30:55Z</time>
      </trkpt>
      <trkpt lat="46.30255" lon="2.74702">
        <ele>364.9</ele>
        <time>2019-11-01T08:30:56Z</time>
      </trkpt>
      <trkpt lat="46.30261" lon="2.74705">
        <ele>365</ele>
        <time>2019-11-01T08:30:57Z</time>
      </trkpt>
      <trkpt lat="46.30267" lon="2.74708">
        <ele>365.2</ele>
        <time>2019-11-01T08:30:58Z</time>
      </trkpt>
      <trkpt lat="46.30272" lon="2.7471">
        <ele>365.3</ele>
        <time>2019-11-01T08:30:59Z</time>
      </trkpt>
      <trkpt lat="46.30278" lon="2.74712">
        <ele>365.4</ele>
        <time>2019-11-01T08:31:00Z</time>
      </trkpt>
      <trkpt lat="46.30285" lon="2.74715">
        <ele>365.6</ele>
        <time>2019-11-01T08:31:01Z</time>
      </trkpt>
      <trkpt lat="46.30291" lon="2.74718">
        <ele>365.7</ele>
        <time>2019-11-01T08:31:02Z</time>
      </trkpt>
      <trkpt lat="46.30296" lon="2.7472">
        <ele>365.8</ele>
        <time>2019-11-01T08:31:03Z</time>
      </trkpt>
      <trkpt lat="46.303" lon="2.74722">
        <ele>365.8</ele>
        <time>2019-11-01T08:31:04Z</time>
      </trkpt>
      <trkpt lat="46.30306" lon="2.74724">
        <ele>365.9</ele>
        <time>2019-11-01T08:31:05Z</time>
      </trkpt>
      <trkpt lat="46.30312" lon="2.74727">
        <ele>366</ele>
        <time>2019-11-01T08:31:06Z</time>
      </trkpt>
      <trkpt lat="46.30317" lon="2.7473">
        <ele>366.1</ele>
        <time>2019-11-01T08:31:07Z</time>
      </trkpt>
      <trkpt lat="46.30321" lon="2.74734">
        <ele>366.3</ele>
        <time>2019-11-01T08:31:08Z</time>
      </trkpt>
      <trkpt lat="46.30326" lon="2.74738">
        <ele>366.6</ele>
        <time>2019-11-01T08:31:09Z</time>
      </trkpt>
      <trkpt lat="46.3033" lon="2.74742">
        <ele>366.8</ele>
        <time>2019-11-01T08:31:10Z</time>
      </trkpt>
      <trkpt lat="46.30333" lon="2.74747">
        <ele>367</ele>
        <time>2019-11-01T08:31:11Z</time>
      </trkpt>
      <trkpt lat="46.30336" lon="2.74753">
        <ele>367.3</ele>
        <time>2019-11-01T08:31:12Z</time>
      </trkpt>
      <trkpt lat="46.3034" lon="2.74758">
        <ele>367.6</ele>
        <time>2019-11-01T08:31:13Z</time>
      </trkpt>
      <trkpt lat="46.30344" lon="2.74762">
        <ele>368</ele>
        <time>2019-11-01T08:31:14Z</time>
      </trkpt>
      <trkpt lat="46.30348" lon="2.74765">
        <ele>368.2</ele>
        <time>2019-11-01T08:31:15Z</time>
      </trkpt>
      <trkpt lat="46.30353" lon="2.74765">
        <ele>368.4</ele>
        <time>2019-11-01T08:31:16Z</time>
      </trkpt>
      <trkpt lat="46.30357" lon="2.74764">
        <ele>368.5</ele>
        <time>2019-11-01T08:31:17Z</time>
      </trkpt>
      <trkpt lat="46.30361" lon="2.7476">
        <ele>368.6</ele>
        <time>2019-11-01T08:31:18Z</time>
      </trkpt>
      <trkpt lat="46.30364" lon="2.74755">
        <ele>368.7</ele>
        <time>2019-11-01T08:31:19Z</time>
      </trkpt>
      <trkpt lat="46.30366" lon="2.74749">
        <ele>368.9</ele>
        <time>2019-11-01T08:31:20Z</time>
      </trkpt>
      <trkpt lat="46.30368" lon="2.74742">
        <ele>368.6</ele>
        <time>2019-11-01T08:31:21Z</time>
      </trkpt>
      <trkpt lat="46.30369" lon="2.74735">
        <ele>368.4</ele>
        <time>2019-11-01T08:31:22Z</time>
      </trkpt>
      <trkpt lat="46.30369" lon="2.74727">
        <ele>367.9</ele>
        <time>2019-11-01T08:31:23Z</time>
      </trkpt>
      <trkpt lat="46.30371" lon="2.7472">
        <ele>367.7</ele>
        <time>2019-11-01T08:31:24Z</time>
      </trkpt>
      <trkpt lat="46.30373" lon="2.74712">
        <ele>367.5</ele>
        <time>2019-11-01T08:31:25Z</time>
      </trkpt>
      <trkpt lat="46.30375" lon="2.74705">
        <ele>367.3</ele>
        <time>2019-11-01T08:31:26Z</time>
      </trkpt>
      <trkpt lat="46.30377" lon="2.74698">
        <ele>367.5</ele>
        <time>2019-11-01T08:31:27Z</time>
      </trkpt>
      <trkpt lat="46.3038" lon="2.74691">
        <ele>367.7</ele>
        <time>2019-11-01T08:31:28Z</time>
      </trkpt>
      <trkpt lat="46.30383" lon="2.74684">
        <ele>367.9</ele>
        <time>2019-11-01T08:31:29Z</time>
      </trkpt>
      <trkpt lat="46.30386" lon="2.74677">
        <ele>368.1</ele>
        <time>2019-11-01T08:31:30Z</time>
      </trkpt>
      <trkpt lat="46.3039" lon="2.7467">
        <ele>368.1</ele>
        <time>2019-11-01T08:31:31Z</time>
      </trkpt>
      <trkpt lat="46.30393" lon="2.74663">
        <ele>368.2</ele>
        <time>2019-11-01T08:31:32Z</time>
      </trkpt>
      <trkpt lat="46.30396" lon="2.74656">
        <ele>368.2</ele>
        <time>2019-11-01T08:31:33Z</time>
      </trkpt>
      <trkpt lat="46.304" lon="2.74649">
        <ele>368.2</ele>
        <time>2019-11-01T08:31:34Z</time>
      </trkpt>
      <trkpt lat="46.30403" lon="2.74642">
        <ele>368.2</ele>
        <time>2019-11-01T08:31:35Z</time>
      </trkpt>
      <trkpt lat="46.30407" lon="2.74635">
        <ele>368.2</ele>
        <time>2019-11-01T08:31:36Z</time>
      </trkpt>
      <trkpt lat="46.30411" lon="2.74628">
        <ele>368.2</ele>
        <time>2019-11-01T08:31:37Z</time>
      </trkpt>
      <trkpt lat="46.30414" lon="2.7462">
        <ele>368.2</ele>
        <time>2019-11-01T08:31:38Z</time>
      </trkpt>
      <trkpt lat="46.30418" lon="2.74613">
        <ele>368.2</ele>
        <time>2019-11-01T08:31:39Z</time>
      </trkpt>
      <trkpt lat="46.30422" lon="2.74606">
        <ele>368.2</ele>
        <time>2019-11-01T08:31:40Z</time>
      </trkpt>
      <trkpt lat="46.30426" lon="2.74598">
        <ele>368.2</ele>
        <time>2019-11-01T08:31:41Z</time>
      </trkpt>
      <trkpt lat="46.3043" lon="2.7459">
        <ele>368.1</ele>
        <time>2019-11-01T08:31:42Z</time>
      </trkpt>
      <trkpt lat="46.30433" lon="2.74582">
        <ele>368</ele>
        <time>2019-11-01T08:31:43Z</time>
      </trkpt>
      <trkpt lat="46.30437" lon="2.74574">
        <ele>367.8</ele>
        <time>2019-11-01T08:31:44Z</time>
      </trkpt>
      <trkpt lat="46.30441" lon="2.74566">
        <ele>367.6</ele>
        <time>2019-11-01T08:31:45Z</time>
      </trkpt>
      <trkpt lat="46.30445" lon="2.74558">
        <ele>367.4</ele>
        <time>2019-11-01T08:31:46Z</time>
      </trkpt>
      <trkpt lat="46.3045" lon="2.74548">
        <ele>367.1</ele>
        <time>2019-11-01T08:31:47Z</time>
      </trkpt>
      <trkpt lat="46.30454" lon="2.74541">
        <ele>366.8</ele>
        <time>2019-11-01T08:31:48Z</time>
      </trkpt>
      <trkpt lat="46.30458" lon="2.74532">
        <ele>366.5</ele>
        <time>2019-11-01T08:31:49Z</time>
      </trkpt>
      <trkpt lat="46.30462" lon="2.74524">
        <ele>366.1</ele>
        <time>2019-11-01T08:31:50Z</time>
      </trkpt>
      <trkpt lat="46.30466" lon="2.74515">
        <ele>365.7</ele>
        <time>2019-11-01T08:31:51Z</time>
      </trkpt>
      <trkpt lat="46.30471" lon="2.74507">
        <ele>365.2</ele>
        <time>2019-11-01T08:31:52Z</time>
      </trkpt>
      <trkpt lat="46.30475" lon="2.74498">
        <ele>364.8</ele>
        <time>2019-11-01T08:31:53Z</time>
      </trkpt>
      <trkpt lat="46.3048" lon="2.74489">
        <ele>364.5</ele>
        <time>2019-11-01T08:31:54Z</time>
      </trkpt>
      <trkpt lat="46.30485" lon="2.7448">
        <ele>364.2</ele>
        <time>2019-11-01T08:31:55Z</time>
      </trkpt>
      <trkpt lat="46.30489" lon="2.74471">
        <ele>364</ele>
        <time>2019-11-01T08:31:56Z</time>
      </trkpt>
      <trkpt lat="46.30494" lon="2.74462">
        <ele>363.8</ele>
        <time>2019-11-01T08:31:57Z</time>
      </trkpt>
      <trkpt lat="46.30499" lon="2.74452">
        <ele>363.5</ele>
        <time>2019-11-01T08:31:58Z</time>
      </trkpt>
      <trkpt lat="46.30503" lon="2.74442">
        <ele>363.3</ele>
        <time>2019-11-01T08:31:59Z</time>
      </trkpt>
      <trkpt lat="46.30508" lon="2.74433">
        <ele>363.2</ele>
        <time>2019-11-01T08:32:00Z</time>
      </trkpt>
      <trkpt lat="46.30513" lon="2.74423">
        <ele>363.1</ele>
        <time>2019-11-01T08:32:01Z</time>
      </trkpt>
      <trkpt lat="46.30518" lon="2.74413">
        <ele>363</ele>
        <time>2019-11-01T08:32:02Z</time>
      </trkpt>
      <trkpt lat="46.30523" lon="2.74403">
        <ele>362.7</ele>
        <time>2019-11-01T08:32:03Z</time>
      </trkpt>
      <trkpt lat="46.30528" lon="2.74393">
        <ele>362.3</ele>
        <time>2019-11-01T08:32:04Z</time>
      </trkpt>
      <trkpt lat="46.30533" lon="2.74382">
        <ele>361.9</ele>
        <time>2019-11-01T08:32:05Z</time>
      </trkpt>
      <trkpt lat="46.30538" lon="2.74372">
        <ele>361.3</ele>
        <time>2019-11-01T08:32:06Z</time>
      </trkpt>
      <trkpt lat="46.30543" lon="2.74362">
        <ele>360.7</ele>
        <time>2019-11-01T08:32:07Z</time>
      </trkpt>
      <trkpt lat="46.30549" lon="2.74351">
        <ele>360.2</ele>
        <time>2019-11-01T08:32:08Z</time>
      </trkpt>
      <trkpt lat="46.30554" lon="2.74341">
        <ele>359.8</ele>
        <time>2019-11-01T08:32:09Z</time>
      </trkpt>
      <trkpt lat="46.30559" lon="2.74331">
        <ele>359.4</ele>
        <time>2019-11-01T08:32:10Z</time>
      </trkpt>
      <trkpt lat="46.30564" lon="2.7432">
        <ele>359.1</ele>
        <time>2019-11-01T08:32:11Z</time>
      </trkpt>
      <trkpt lat="46.30569" lon="2.7431">
        <ele>358.8</ele>
        <time>2019-11-01T08:32:12Z</time>
      </trkpt>
      <trkpt lat="46.30575" lon="2.74299">
        <ele>358.5</ele>
        <time>2019-11-01T08:32:13Z</time>
      </trkpt>
      <trkpt lat="46.3058" lon="2.74288">
        <ele>358.2</ele>
        <time>2019-11-01T08:32:14Z</time>
      </trkpt>
      <trkpt lat="46.30585" lon="2.74277">
        <ele>358</ele>
        <time>2019-11-01T08:32:15Z</time>
      </trkpt>
      <trkpt lat="46.3059" lon="2.74267">
        <ele>357.6</ele>
        <time>2019-11-01T08:32:16Z</time>
      </trkpt>
      <trkpt lat="46.30596" lon="2.74257">
        <ele>357.3</ele>
        <time>2019-11-01T08:32:17Z</time>
      </trkpt>
      <trkpt lat="46.30602" lon="2.74246">
        <ele>356.9</ele>
        <time>2019-11-01T08:32:18Z</time>
      </trkpt>
      <trkpt lat="46.30607" lon="2.74236">
        <ele>356.6</ele>
        <time>2019-11-01T08:32:19Z</time>
      </trkpt>
      <trkpt lat="46.30612" lon="2.74226">
        <ele>356.3</ele>
        <time>2019-11-01T08:32:20Z</time>
      </trkpt>
      <trkpt lat="46.30617" lon="2.74215">
        <ele>356.1</ele>
        <time>2019-11-01T08:32:21Z</time>
      </trkpt>
      <trkpt lat="46.30623" lon="2.74205">
        <ele>355.9</ele>
        <time>2019-11-01T08:32:22Z</time>
      </trkpt>
      <trkpt lat="46.30628" lon="2.74194">
        <ele>355.7</ele>
        <time>2019-11-01T08:32:23Z</time>
      </trkpt>
      <trkpt lat="46.30633" lon="2.74184">
        <ele>355.4</ele>
        <time>2019-11-01T08:32:24Z</time>
      </trkpt>
      <trkpt lat="46.30639" lon="2.74173">
        <ele>355.1</ele>
        <time>2019-11-01T08:32:25Z</time>
      </trkpt>
      <trkpt lat="46.30644" lon="2.74162">
        <ele>354.8</ele>
        <time>2019-11-01T08:32:26Z</time>
      </trkpt>
      <trkpt lat="46.30649" lon="2.74152">
        <ele>354.5</ele>
        <time>2019-11-01T08:32:27Z</time>
      </trkpt>
      <trkpt lat="46.30655" lon="2.74142">
        <ele>354.3</ele>
        <time>2019-11-01T08:32:28Z</time>
      </trkpt>
      <trkpt lat="46.3066" lon="2.74131">
        <ele>354.2</ele>
        <time>2019-11-01T08:32:29Z</time>
      </trkpt>
      <trkpt lat="46.30665" lon="2.74121">
        <ele>354.1</ele>
        <time>2019-11-01T08:32:30Z</time>
      </trkpt>
      <trkpt lat="46.30671" lon="2.74111">
        <ele>354.1</ele>
        <time>2019-11-01T08:32:31Z</time>
      </trkpt>
      <trkpt lat="46.30676" lon="2.741">
        <ele>354.1</ele>
        <time>2019-11-01T08:32:32Z</time>
      </trkpt>
      <trkpt lat="46.30681" lon="2.7409">
        <ele>354.1</ele>
        <time>2019-11-01T08:32:33Z</time>
      </trkpt>
      <trkpt lat="46.30686" lon="2.7408">
        <ele>354.1</ele>
        <time>2019-11-01T08:32:34Z</time>
      </trkpt>
      <trkpt lat="46.30692" lon="2.7407">
        <ele>354.1</ele>
        <time>2019-11-01T08:32:35Z</time>
      </trkpt>
      <trkpt lat="46.30697" lon="2.74059">
        <ele>354.1</ele>
        <time>2019-11-01T08:32:36Z</time>
      </trkpt>
      <trkpt lat="46.30702" lon="2.74049">
        <ele>354.1</ele>
        <time>2019-11-01T08:32:37Z</time>
      </trkpt>
      <trkpt lat="46.30707" lon="2.74039">
        <ele>354.1</ele>
        <time>2019-11-01T08:32:38Z</time>
      </trkpt>
      <trkpt lat="46.30712" lon="2.7403">
        <ele>354.1</ele>
        <time>2019-11-01T08:32:39Z</time>
      </trkpt>
      <trkpt lat="46.30717" lon="2.7402">
        <ele>354.1</ele>
        <time>2019-11-01T08:32:40Z</time>
      </trkpt>
      <trkpt lat="46.30723" lon="2.74012">
        <ele>354.2</ele>
        <time>2019-11-01T08:32:41Z</time>
      </trkpt>
      <trkpt lat="46.30729" lon="2.74005">
        <ele>354.2</ele>
        <time>2019-11-01T08:32:42Z</time>
      </trkpt>
      <trkpt lat="46.30736" lon="2.73998">
        <ele>354.3</ele>
        <time>2019-11-01T08:32:43Z</time>
      </trkpt>
      <trkpt lat="46.30743" lon="2.73992">
        <ele>354.3</ele>
        <time>2019-11-01T08:32:44Z</time>
      </trkpt>
      <trkpt lat="46.30748" lon="2.73985">
        <ele>354.4</ele>
        <time>2019-11-01T08:32:45Z</time>
      </trkpt>
      <trkpt lat="46.30754" lon="2.73978">
        <ele>354.5</ele>
        <time>2019-11-01T08:32:46Z</time>
      </trkpt>
      <trkpt lat="46.3076" lon="2.73971">
        <ele>354.6</ele>
        <time>2019-11-01T08:32:47Z</time>
      </trkpt>
      <trkpt lat="46.30766" lon="2.73966">
        <ele>354.6</ele>
        <time>2019-11-01T08:32:48Z</time>
      </trkpt>
      <trkpt lat="46.30773" lon="2.73962">
        <ele>354.6</ele>
        <time>2019-11-01T08:32:49Z</time>
      </trkpt>
      <trkpt lat="46.3078" lon="2.73958">
        <ele>354.6</ele>
        <time>2019-11-01T08:32:50Z</time>
      </trkpt>
      <trkpt lat="46.30786" lon="2.73955">
        <ele>354.6</ele>
        <time>2019-11-01T08:32:51Z</time>
      </trkpt>
      <trkpt lat="46.30793" lon="2.73951">
        <ele>354.7</ele>
        <time>2019-11-01T08:32:52Z</time>
      </trkpt>
      <trkpt lat="46.30799" lon="2.73947">
        <ele>354.7</ele>
        <time>2019-11-01T08:32:53Z</time>
      </trkpt>
      <trkpt lat="46.30804" lon="2.73941">
        <ele>354.8</ele>
        <time>2019-11-01T08:32:54Z</time>
      </trkpt>
      <trkpt lat="46.3081" lon="2.73936">
        <ele>354.8</ele>
        <time>2019-11-01T08:32:55Z</time>
      </trkpt>
      <trkpt lat="46.30815" lon="2.7393">
        <ele>354.9</ele>
        <time>2019-11-01T08:32:56Z</time>
      </trkpt>
      <trkpt lat="46.3082" lon="2.73924">
        <ele>355</ele>
        <time>2019-11-01T08:32:57Z</time>
      </trkpt>
      <trkpt lat="46.30825" lon="2.73918">
        <ele>355.1</ele>
        <time>2019-11-01T08:32:58Z</time>
      </trkpt>
      <trkpt lat="46.3083" lon="2.73913">
        <ele>355.1</ele>
        <time>2019-11-01T08:32:59Z</time>
      </trkpt>
      <trkpt lat="46.30836" lon="2.73908">
        <ele>355.1</ele>
        <time>2019-11-01T08:33:00Z</time>
      </trkpt>
      <trkpt lat="46.30841" lon="2.73904">
        <ele>355.1</ele>
        <time>2019-11-01T08:33:01Z</time>
      </trkpt>
      <trkpt lat="46.30847" lon="2.739">
        <ele>355</ele>
        <time>2019-11-01T08:33:02Z</time>
      </trkpt>
      <trkpt lat="46.30852" lon="2.73896">
        <ele>355</ele>
        <time>2019-11-01T08:33:03Z</time>
      </trkpt>
      <trkpt lat="46.30858" lon="2.73893">
        <ele>354.9</ele>
        <time>2019-11-01T08:33:04Z</time>
      </trkpt>
      <trkpt lat="46.30864" lon="2.73891">
        <ele>354.8</ele>
        <time>2019-11-01T08:33:05Z</time>
      </trkpt>
      <trkpt lat="46.30869" lon="2.73889">
        <ele>354.7</ele>
        <time>2019-11-01T08:33:06Z</time>
      </trkpt>
      <trkpt lat="46.30875" lon="2.73887">
        <ele>354.6</ele>
        <time>2019-11-01T08:33:07Z</time>
      </trkpt>
      <trkpt lat="46.30882" lon="2.73885">
        <ele>354.4</ele>
        <time>2019-11-01T08:33:08Z</time>
      </trkpt>
      <trkpt lat="46.30888" lon="2.73883">
        <ele>354.2</ele>
        <time>2019-11-01T08:33:09Z</time>
      </trkpt>
      <trkpt lat="46.30895" lon="2.73881">
        <ele>354</ele>
        <time>2019-11-01T08:33:10Z</time>
      </trkpt>
      <trkpt lat="46.30901" lon="2.7388">
        <ele>353.8</ele>
        <time>2019-11-01T08:33:11Z</time>
      </trkpt>
      <trkpt lat="46.30908" lon="2.73878">
        <ele>353.5</ele>
        <time>2019-11-01T08:33:12Z</time>
      </trkpt>
      <trkpt lat="46.30914" lon="2.73876">
        <ele>353.3</ele>
        <time>2019-11-01T08:33:13Z</time>
      </trkpt>
      <trkpt lat="46.30921" lon="2.73874">
        <ele>353.1</ele>
        <time>2019-11-01T08:33:14Z</time>
      </trkpt>
      <trkpt lat="46.30927" lon="2.73873">
        <ele>353.1</ele>
        <time>2019-11-01T08:33:15Z</time>
      </trkpt>
      <trkpt lat="46.30933" lon="2.73872">
        <ele>353.2</ele>
        <time>2019-11-01T08:33:16Z</time>
      </trkpt>
      <trkpt lat="46.30939" lon="2.73872">
        <ele>353.2</ele>
        <time>2019-11-01T08:33:17Z</time>
      </trkpt>
      <trkpt lat="46.30946" lon="2.73873">
        <ele>353.2</ele>
        <time>2019-11-01T08:33:18Z</time>
      </trkpt>
      <trkpt lat="46.30952" lon="2.73873">
        <ele>353.2</ele>
        <time>2019-11-01T08:33:19Z</time>
      </trkpt>
      <trkpt lat="46.30958" lon="2.73874">
        <ele>353.2</ele>
        <time>2019-11-01T08:33:20Z</time>
      </trkpt>
      <trkpt lat="46.30964" lon="2.73874">
        <ele>353.2</ele>
        <time>2019-11-01T08:33:21Z</time>
      </trkpt>
      <trkpt lat="46.30971" lon="2.73875">
        <ele>353.2</ele>
        <time>2019-11-01T08:33:22Z</time>
      </trkpt>
      <trkpt lat="46.30977" lon="2.73875">
        <ele>353.2</ele>
        <time>2019-11-01T08:33:23Z</time>
      </trkpt>
      <trkpt lat="46.30983" lon="2.73876">
        <ele>353.2</ele>
        <time>2019-11-01T08:33:24Z</time>
      </trkpt>
      <trkpt lat="46.30989" lon="2.73876">
        <ele>353.2</ele>
        <time>2019-11-01T08:33:25Z</time>
      </trkpt>
      <trkpt lat="46.30995" lon="2.73877">
        <ele>353.2</ele>
        <time>2019-11-01T08:33:26Z</time>
      </trkpt>
      <trkpt lat="46.31001" lon="2.73877">
        <ele>353.2</ele>
        <time>2019-11-01T08:33:27Z</time>
      </trkpt>
      <trkpt lat="46.31007" lon="2.73878">
        <ele>353.2</ele>
        <time>2019-11-01T08:33:28Z</time>
      </trkpt>
      <trkpt lat="46.31012" lon="2.73878">
        <ele>353.3</ele>
        <time>2019-11-01T08:33:29Z</time>
      </trkpt>
      <trkpt lat="46.31018" lon="2.73878">
        <ele>353.3</ele>
        <time>2019-11-01T08:33:30Z</time>
      </trkpt>
      <trkpt lat="46.31023" lon="2.73878">
        <ele>353.3</ele>
        <time>2019-11-01T08:33:31Z</time>
      </trkpt>
      <trkpt lat="46.31029" lon="2.73878">
        <ele>353.4</ele>
        <time>2019-11-01T08:33:32Z</time>
      </trkpt>
      <trkpt lat="46.31035" lon="2.73878">
        <ele>353.5</ele>
        <time>2019-11-01T08:33:33Z</time>
      </trkpt>
      <trkpt lat="46.31041" lon="2.73878">
        <ele>353.6</ele>
        <time>2019-11-01T08:33:34Z</time>
      </trkpt>
      <trkpt lat="46.31047" lon="2.73877">
        <ele>353.8</ele>
        <time>2019-11-01T08:33:35Z</time>
      </trkpt>
      <trkpt lat="46.31053" lon="2.73877">
        <ele>354</ele>
        <time>2019-11-01T08:33:36Z</time>
      </trkpt>
      <trkpt lat="46.31059" lon="2.73876">
        <ele>354.1</ele>
        <time>2019-11-01T08:33:37Z</time>
      </trkpt>
      <trkpt lat="46.31065" lon="2.73876">
        <ele>354.2</ele>
        <time>2019-11-01T08:33:38Z</time>
      </trkpt>
      <trkpt lat="46.31071" lon="2.73875">
        <ele>354.3</ele>
        <time>2019-11-01T08:33:39Z</time>
      </trkpt>
      <trkpt lat="46.31076" lon="2.73874">
        <ele>354.4</ele>
        <time>2019-11-01T08:33:40Z</time>
      </trkpt>
      <trkpt lat="46.31082" lon="2.73873">
        <ele>354.4</ele>
        <time>2019-11-01T08:33:41Z</time>
      </trkpt>
      <trkpt lat="46.31088" lon="2.73873">
        <ele>354.5</ele>
        <time>2019-11-01T08:33:42Z</time>
      </trkpt>
      <trkpt lat="46.31094" lon="2.73872">
        <ele>354.7</ele>
        <time>2019-11-01T08:33:43Z</time>
      </trkpt>
      <trkpt lat="46.31099" lon="2.73872">
        <ele>354.8</ele>
        <time>2019-11-01T08:33:44Z</time>
      </trkpt>
      <trkpt lat="46.31105" lon="2.73871">
        <ele>355</ele>
        <time>2019-11-01T08:33:45Z</time>
      </trkpt>
      <trkpt lat="46.31111" lon="2.73871">
        <ele>355.1</ele>
        <time>2019-11-01T08:33:46Z</time>
      </trkpt>
      <trkpt lat="46.31116" lon="2.73872">
        <ele>355.2</ele>
        <time>2019-11-01T08:33:47Z</time>
      </trkpt>
      <trkpt lat="46.31122" lon="2.73872">
        <ele>355.3</ele>
        <time>2019-11-01T08:33:48Z</time>
      </trkpt>
      <trkpt lat="46.31127" lon="2.73872">
        <ele>355.3</ele>
        <time>2019-11-01T08:33:49Z</time>
      </trkpt>
      <trkpt lat="46.31133" lon="2.73873">
        <ele>355.4</ele>
        <time>2019-11-01T08:33:50Z</time>
      </trkpt>
      <trkpt lat="46.31138" lon="2.73873">
        <ele>355.4</ele>
        <time>2019-11-01T08:33:51Z</time>
      </trkpt>
      <trkpt lat="46.31144" lon="2.73874">
        <ele>355.4</ele>
        <time>2019-11-01T08:33:52Z</time>
      </trkpt>
      <trkpt lat="46.31149" lon="2.73874">
        <ele>355.4</ele>
        <time>2019-11-01T08:33:53Z</time>
      </trkpt>
      <trkpt lat="46.31155" lon="2.73875">
        <ele>355.4</ele>
        <time>2019-11-01T08:33:54Z</time>
      </trkpt>
      <trkpt lat="46.3116" lon="2.73876">
        <ele>355.4</ele>
        <time>2019-11-01T08:33:55Z</time>
      </trkpt>
      <trkpt lat="46.31166" lon="2.73877">
        <ele>355.4</ele>
        <time>2019-11-01T08:33:56Z</time>
      </trkpt>
      <trkpt lat="46.31171" lon="2.73878">
        <ele>355.4</ele>
        <time>2019-11-01T08:33:57Z</time>
      </trkpt>
      <trkpt lat="46.31177" lon="2.73879">
        <ele>355.4</ele>
        <time>2019-11-01T08:33:58Z</time>
      </trkpt>
      <trkpt lat="46.31183" lon="2.73879">
        <ele>355.4</ele>
        <time>2019-11-01T08:33:59Z</time>
      </trkpt>
      <trkpt lat="46.31188" lon="2.7388">
        <ele>355.4</ele>
        <time>2019-11-01T08:34:00Z</time>
      </trkpt>
      <trkpt lat="46.31194" lon="2.7388">
        <ele>355.5</ele>
        <time>2019-11-01T08:34:01Z</time>
      </trkpt>
      <trkpt lat="46.31199" lon="2.73881">
        <ele>355.5</ele>
        <time>2019-11-01T08:34:02Z</time>
      </trkpt>
      <trkpt lat="46.31205" lon="2.73882">
        <ele>355.5</ele>
        <time>2019-11-01T08:34:03Z</time>
      </trkpt>
      <trkpt lat="46.3121" lon="2.73883">
        <ele>355.4</ele>
        <time>2019-11-01T08:34:04Z</time>
      </trkpt>
      <trkpt lat="46.31216" lon="2.73884">
        <ele>355.4</ele>
        <time>2019-11-01T08:34:05Z</time>
      </trkpt>
      <trkpt lat="46.31222" lon="2.73884">
        <ele>355.3</ele>
        <time>2019-11-01T08:34:06Z</time>
      </trkpt>
      <trkpt lat="46.31228" lon="2.73885">
        <ele>355</ele>
        <time>2019-11-01T08:34:07Z</time>
      </trkpt>
      <trkpt lat="46.31233" lon="2.73886">
        <ele>354.8</ele>
        <time>2019-11-01T08:34:08Z</time>
      </trkpt>
      <trkpt lat="46.31239" lon="2.73886">
        <ele>354.6</ele>
        <time>2019-11-01T08:34:09Z</time>
      </trkpt>
      <trkpt lat="46.31245" lon="2.73887">
        <ele>354.3</ele>
        <time>2019-11-01T08:34:10Z</time>
      </trkpt>
      <trkpt lat="46.31252" lon="2.73888">
        <ele>353.9</ele>
        <time>2019-11-01T08:34:11Z</time>
      </trkpt>
      <trkpt lat="46.31258" lon="2.73889">
        <ele>353.6</ele>
        <time>2019-11-01T08:34:12Z</time>
      </trkpt>
      <trkpt lat="46.31264" lon="2.73891">
        <ele>353.6</ele>
        <time>2019-11-01T08:34:13Z</time>
      </trkpt>
      <trkpt lat="46.3127" lon="2.73892">
        <ele>353.8</ele>
        <time>2019-11-01T08:34:14Z</time>
      </trkpt>
      <trkpt lat="46.31276" lon="2.73893">
        <ele>354</ele>
        <time>2019-11-01T08:34:15Z</time>
      </trkpt>
      <trkpt lat="46.31282" lon="2.73894">
        <ele>354.2</ele>
        <time>2019-11-01T08:34:16Z</time>
      </trkpt>
      <trkpt lat="46.31288" lon="2.73894">
        <ele>354.4</ele>
        <time>2019-11-01T08:34:17Z</time>
      </trkpt>
      <trkpt lat="46.31294" lon="2.73895">
        <ele>354.5</ele>
        <time>2019-11-01T08:34:18Z</time>
      </trkpt>
      <trkpt lat="46.313" lon="2.73896">
        <ele>354.6</ele>
        <time>2019-11-01T08:34:19Z</time>
      </trkpt>
      <trkpt lat="46.31306" lon="2.73896">
        <ele>354.7</ele>
        <time>2019-11-01T08:34:20Z</time>
      </trkpt>
      <trkpt lat="46.31312" lon="2.73897">
        <ele>354.8</ele>
        <time>2019-11-01T08:34:21Z</time>
      </trkpt>
      <trkpt lat="46.31318" lon="2.73898">
        <ele>354.9</ele>
        <time>2019-11-01T08:34:22Z</time>
      </trkpt>
      <trkpt lat="46.31324" lon="2.73898">
        <ele>355</ele>
        <time>2019-11-01T08:34:23Z</time>
      </trkpt>
      <trkpt lat="46.31329" lon="2.73899">
        <ele>355.2</ele>
        <time>2019-11-01T08:34:24Z</time>
      </trkpt>
      <trkpt lat="46.31335" lon="2.739">
        <ele>355.4</ele>
        <time>2019-11-01T08:34:25Z</time>
      </trkpt>
      <trkpt lat="46.3134" lon="2.739">
        <ele>355.6</ele>
        <time>2019-11-01T08:34:26Z</time>
      </trkpt>
      <trkpt lat="46.31346" lon="2.73901">
        <ele>355.8</ele>
        <time>2019-11-01T08:34:27Z</time>
      </trkpt>
      <trkpt lat="46.31352" lon="2.73902">
        <ele>356</ele>
        <time>2019-11-01T08:34:28Z</time>
      </trkpt>
      <trkpt lat="46.31358" lon="2.73903">
        <ele>356.2</ele>
        <time>2019-11-01T08:34:29Z</time>
      </trkpt>
      <trkpt lat="46.31363" lon="2.73904">
        <ele>356.3</ele>
        <time>2019-11-01T08:34:30Z</time>
      </trkpt>
      <trkpt lat="46.31368" lon="2.73905">
        <ele>356.5</ele>
        <time>2019-11-01T08:34:31Z</time>
      </trkpt>
      <trkpt lat="46.31374" lon="2.73905">
        <ele>356.7</ele>
        <time>2019-11-01T08:34:32Z</time>
      </trkpt>
      <trkpt lat="46.31379" lon="2.73906">
        <ele>356.8</ele>
        <time>2019-11-01T08:34:33Z</time>
      </trkpt>
      <trkpt lat="46.31385" lon="2.73908">
        <ele>357</ele>
        <time>2019-11-01T08:34:34Z</time>
      </trkpt>
      <trkpt lat="46.3139" lon="2.73909">
        <ele>357.1</ele>
        <time>2019-11-01T08:34:35Z</time>
      </trkpt>
      <trkpt lat="46.31396" lon="2.73909">
        <ele>357.1</ele>
        <time>2019-11-01T08:34:36Z</time>
      </trkpt>
      <trkpt lat="46.31401" lon="2.7391">
        <ele>357.3</ele>
        <time>2019-11-01T08:34:37Z</time>
      </trkpt>
      <trkpt lat="46.31406" lon="2.73911">
        <ele>357.4</ele>
        <time>2019-11-01T08:34:38Z</time>
      </trkpt>
      <trkpt lat="46.31411" lon="2.73911">
        <ele>357.6</ele>
        <time>2019-11-01T08:34:39Z</time>
      </trkpt>
      <trkpt lat="46.31416" lon="2.73912">
        <ele>357.7</ele>
        <time>2019-11-01T08:34:40Z</time>
      </trkpt>
      <trkpt lat="46.31421" lon="2.73913">
        <ele>357.9</ele>
        <time>2019-11-01T08:34:41Z</time>
      </trkpt>
      <trkpt lat="46.31426" lon="2.73914">
        <ele>358</ele>
        <time>2019-11-01T08:34:42Z</time>
      </trkpt>
      <trkpt lat="46.3143" lon="2.73916">
        <ele>358.1</ele>
        <time>2019-11-01T08:34:43Z</time>
      </trkpt>
      <trkpt lat="46.31435" lon="2.73918">
        <ele>358.2</ele>
        <time>2019-11-01T08:34:44Z</time>
      </trkpt>
      <trkpt lat="46.31439" lon="2.73921">
        <ele>358.2</ele>
        <time>2019-11-01T08:34:45Z</time>
      </trkpt>
      <trkpt lat="46.31444" lon="2.73924">
        <ele>358.3</ele>
        <time>2019-11-01T08:34:46Z</time>
      </trkpt>
      <trkpt lat="46.31448" lon="2.73927">
        <ele>358.3</ele>
        <time>2019-11-01T08:34:47Z</time>
      </trkpt>
      <trkpt lat="46.31453" lon="2.7393">
        <ele>358.4</ele>
        <time>2019-11-01T08:34:48Z</time>
      </trkpt>
      <trkpt lat="46.31456" lon="2.73934">
        <ele>358.4</ele>
        <time>2019-11-01T08:34:49Z</time>
      </trkpt>
      <trkpt lat="46.3146" lon="2.73938">
        <ele>358.4</ele>
        <time>2019-11-01T08:34:50Z</time>
      </trkpt>
      <trkpt lat="46.31463" lon="2.73943">
        <ele>358.7</ele>
        <time>2019-11-01T08:34:51Z</time>
      </trkpt>
      <trkpt lat="46.31464" lon="2.73948">
        <ele>358.9</ele>
        <time>2019-11-01T08:34:52Z</time>
      </trkpt>
      <trkpt lat="46.31466" lon="2.73953">
        <ele>359.1</ele>
        <time>2019-11-01T08:34:53Z</time>
      </trkpt>
      <trkpt lat="46.31467" lon="2.73958">
        <ele>359.3</ele>
        <time>2019-11-01T08:34:54Z</time>
      </trkpt>
      <trkpt lat="46.31468" lon="2.73963">
        <ele>359.5</ele>
        <time>2019-11-01T08:34:55Z</time>
      </trkpt>
      <trkpt lat="46.31469" lon="2.73968">
        <ele>359.7</ele>
        <time>2019-11-01T08:34:56Z</time>
      </trkpt>
      <trkpt lat="46.3147" lon="2.73973">
        <ele>359.9</ele>
        <time>2019-11-01T08:34:57Z</time>
      </trkpt>
      <trkpt lat="46.31472" lon="2.73979">
        <ele>360.1</ele>
        <time>2019-11-01T08:34:58Z</time>
      </trkpt>
      <trkpt lat="46.31473" lon="2.73984">
        <ele>360.3</ele>
        <time>2019-11-01T08:34:59Z</time>
      </trkpt>
      <trkpt lat="46.31475" lon="2.73989">
        <ele>360.5</ele>
        <time>2019-11-01T08:35:00Z</time>
      </trkpt>
      <trkpt lat="46.31476" lon="2.73994">
        <ele>360.7</ele>
        <time>2019-11-01T08:35:01Z</time>
      </trkpt>
      <trkpt lat="46.31478" lon="2.73999">
        <ele>360.8</ele>
        <time>2019-11-01T08:35:02Z</time>
      </trkpt>
      <trkpt lat="46.3148" lon="2.74004">
        <ele>361.1</ele>
        <time>2019-11-01T08:35:03Z</time>
      </trkpt>
      <trkpt lat="46.31482" lon="2.74009">
        <ele>361.3</ele>
        <time>2019-11-01T08:35:04Z</time>
      </trkpt>
      <trkpt lat="46.31484" lon="2.74014">
        <ele>361.5</ele>
        <time>2019-11-01T08:35:05Z</time>
      </trkpt>
      <trkpt lat="46.31486" lon="2.7402">
        <ele>361.7</ele>
        <time>2019-11-01T08:35:06Z</time>
      </trkpt>
      <trkpt lat="46.31488" lon="2.74024">
        <ele>361.9</ele>
        <time>2019-11-01T08:35:07Z</time>
      </trkpt>
      <trkpt lat="46.3149" lon="2.74029">
        <ele>362.1</ele>
        <time>2019-11-01T08:35:08Z</time>
      </trkpt>
      <trkpt lat="46.31492" lon="2.74034">
        <ele>362.3</ele>
        <time>2019-11-01T08:35:09Z</time>
      </trkpt>
      <trkpt lat="46.31494" lon="2.74038">
        <ele>362.5</ele>
        <time>2019-11-01T08:35:10Z</time>
      </trkpt>
      <trkpt lat="46.31495" lon="2.74043">
        <ele>362.7</ele>
        <time>2019-11-01T08:35:11Z</time>
      </trkpt>
      <trkpt lat="46.31496" lon="2.74048">
        <ele>362.9</ele>
        <time>2019-11-01T08:35:12Z</time>
      </trkpt>
      <trkpt lat="46.31498" lon="2.74053">
        <ele>363.1</ele>
        <time>2019-11-01T08:35:13Z</time>
      </trkpt>
      <trkpt lat="46.31499" lon="2.74058">
        <ele>363.3</ele>
        <time>2019-11-01T08:35:14Z</time>
      </trkpt>
      <trkpt lat="46.315" lon="2.74063">
        <ele>363.6</ele>
        <time>2019-11-01T08:35:15Z</time>
      </trkpt>
      <trkpt lat="46.31502" lon="2.74068">
        <ele>363.8</ele>
        <time>2019-11-01T08:35:16Z</time>
      </trkpt>
      <trkpt lat="46.31504" lon="2.74073">
        <ele>364</ele>
        <time>2019-11-01T08:35:17Z</time>
      </trkpt>
      <trkpt lat="46.31506" lon="2.74078">
        <ele>364.2</ele>
        <time>2019-11-01T08:35:18Z</time>
      </trkpt>
      <trkpt lat="46.31507" lon="2.74084">
        <ele>364.5</ele>
        <time>2019-11-01T08:35:19Z</time>
      </trkpt>
      <trkpt lat="46.31509" lon="2.74089">
        <ele>364.8</ele>
        <time>2019-11-01T08:35:20Z</time>
      </trkpt>
      <trkpt lat="46.31511" lon="2.74095">
        <ele>365</ele>
        <time>2019-11-01T08:35:21Z</time>
      </trkpt>
      <trkpt lat="46.31513" lon="2.741">
        <ele>365.3</ele>
        <time>2019-11-01T08:35:22Z</time>
      </trkpt>
      <trkpt lat="46.31516" lon="2.74105">
        <ele>365.5</ele>
        <time>2019-11-01T08:35:23Z</time>
      </trkpt>
      <trkpt lat="46.31518" lon="2.7411">
        <ele>365.8</ele>
        <time>2019-11-01T08:35:24Z</time>
      </trkpt>
      <trkpt lat="46.3152" lon="2.74116">
        <ele>366</ele>
        <time>2019-11-01T08:35:25Z</time>
      </trkpt>
      <trkpt lat="46.31523" lon="2.74121">
        <ele>366.3</ele>
        <time>2019-11-01T08:35:26Z</time>
      </trkpt>
      <trkpt lat="46.31526" lon="2.74126">
        <ele>366.6</ele>
        <time>2019-11-01T08:35:27Z</time>
      </trkpt>
      <trkpt lat="46.31529" lon="2.74131">
        <ele>366.8</ele>
        <time>2019-11-01T08:35:28Z</time>
      </trkpt>
      <trkpt lat="46.31531" lon="2.74136">
        <ele>367.1</ele>
        <time>2019-11-01T08:35:29Z</time>
      </trkpt>
      <trkpt lat="46.31534" lon="2.74142">
        <ele>367.3</ele>
        <time>2019-11-01T08:35:30Z</time>
      </trkpt>
      <trkpt lat="46.31536" lon="2.74148">
        <ele>367.5</ele>
        <time>2019-11-01T08:35:31Z</time>
      </trkpt>
      <trkpt lat="46.31538" lon="2.74153">
        <ele>367.7</ele>
        <time>2019-11-01T08:35:32Z</time>
      </trkpt>
      <trkpt lat="46.31539" lon="2.74159">
        <ele>367.8</ele>
        <time>2019-11-01T08:35:33Z</time>
      </trkpt>
      <trkpt lat="46.31541" lon="2.74165">
        <ele>367.9</ele>
        <time>2019-11-01T08:35:34Z</time>
      </trkpt>
      <trkpt lat="46.31542" lon="2.74171">
        <ele>368.1</ele>
        <time>2019-11-01T08:35:35Z</time>
      </trkpt>
      <trkpt lat="46.31543" lon="2.74178">
        <ele>368.1</ele>
        <time>2019-11-01T08:35:36Z</time>
      </trkpt>
      <trkpt lat="46.31545" lon="2.74184">
        <ele>368.2</ele>
        <time>2019-11-01T08:35:37Z</time>
      </trkpt>
      <trkpt lat="46.31547" lon="2.74189">
        <ele>368.2</ele>
        <time>2019-11-01T08:35:38Z</time>
      </trkpt>
      <trkpt lat="46.31549" lon="2.74194">
        <ele>368.2</ele>
        <time>2019-11-01T08:35:39Z</time>
      </trkpt>
      <trkpt lat="46.31551" lon="2.742">
        <ele>368.2</ele>
        <time>2019-11-01T08:35:40Z</time>
      </trkpt>
      <trkpt lat="46.31552" lon="2.74205">
        <ele>368.2</ele>
        <time>2019-11-01T08:35:41Z</time>
      </trkpt>
      <trkpt lat="46.31554" lon="2.7421">
        <ele>368.2</ele>
        <time>2019-11-01T08:35:42Z</time>
      </trkpt>
      <trkpt lat="46.31555" lon="2.74215">
        <ele>368.1</ele>
        <time>2019-11-01T08:35:43Z</time>
      </trkpt>
      <trkpt lat="46.31557" lon="2.74219">
        <ele>368.1</ele>
        <time>2019-11-01T08:35:44Z</time>
      </trkpt>
      <trkpt lat="46.31559" lon="2.74224">
        <ele>368</ele>
        <time>2019-11-01T08:35:45Z</time>
      </trkpt>
      <trkpt lat="46.31561" lon="2.74228">
        <ele>368</ele>
        <time>2019-11-01T08:35:46Z</time>
      </trkpt>
      <trkpt lat="46.31563" lon="2.74233">
        <ele>367.9</ele>
        <time>2019-11-01T08:35:47Z</time>
      </trkpt>
      <trkpt lat="46.31564" lon="2.74239">
        <ele>367.9</ele>
        <time>2019-11-01T08:35:48Z</time>
      </trkpt>
      <trkpt lat="46.31566" lon="2.74244">
        <ele>367.8</ele>
        <time>2019-11-01T08:35:49Z</time>
      </trkpt>
      <trkpt lat="46.31568" lon="2.74249">
        <ele>367.8</ele>
        <time>2019-11-01T08:35:50Z</time>
      </trkpt>
      <trkpt lat="46.31569" lon="2.74254">
        <ele>367.7</ele>
        <time>2019-11-01T08:35:51Z</time>
      </trkpt>
      <trkpt lat="46.31571" lon="2.74259">
        <ele>367.6</ele>
        <time>2019-11-01T08:35:52Z</time>
      </trkpt>
      <trkpt lat="46.31573" lon="2.74265">
        <ele>367.6</ele>
        <time>2019-11-01T08:35:53Z</time>
      </trkpt>
      <trkpt lat="46.31575" lon="2.7427">
        <ele>367.5</ele>
        <time>2019-11-01T08:35:54Z</time>
      </trkpt>
      <trkpt lat="46.31576" lon="2.74276">
        <ele>367.5</ele>
        <time>2019-11-01T08:35:55Z</time>
      </trkpt>
      <trkpt lat="46.31578" lon="2.74282">
        <ele>367.4</ele>
        <time>2019-11-01T08:35:56Z</time>
      </trkpt>
      <trkpt lat="46.31579" lon="2.74288">
        <ele>367.4</ele>
        <time>2019-11-01T08:35:57Z</time>
      </trkpt>
      <trkpt lat="46.31581" lon="2.74294">
        <ele>367.4</ele>
        <time>2019-11-01T08:35:58Z</time>
      </trkpt>
      <trkpt lat="46.31583" lon="2.743">
        <ele>367.3</ele>
        <time>2019-11-01T08:35:59Z</time>
      </trkpt>
      <trkpt lat="46.31585" lon="2.74306">
        <ele>367.3</ele>
        <time>2019-11-01T08:36:00Z</time>
      </trkpt>
      <trkpt lat="46.31587" lon="2.74312">
        <ele>367.2</ele>
        <time>2019-11-01T08:36:01Z</time>
      </trkpt>
      <trkpt lat="46.31589" lon="2.74318">
        <ele>367.2</ele>
        <time>2019-11-01T08:36:02Z</time>
      </trkpt>
      <trkpt lat="46.3159" lon="2.74324">
        <ele>367.1</ele>
        <time>2019-11-01T08:36:03Z</time>
      </trkpt>
      <trkpt lat="46.31592" lon="2.7433">
        <ele>367</ele>
        <time>2019-11-01T08:36:04Z</time>
      </trkpt>
      <trkpt lat="46.31594" lon="2.74336">
        <ele>367</ele>
        <time>2019-11-01T08:36:05Z</time>
      </trkpt>
      <trkpt lat="46.31596" lon="2.74342">
        <ele>366.9</ele>
        <time>2019-11-01T08:36:06Z</time>
      </trkpt>
      <trkpt lat="46.31598" lon="2.74348">
        <ele>366.9</ele>
        <time>2019-11-01T08:36:07Z</time>
      </trkpt>
      <trkpt lat="46.316" lon="2.74353">
        <ele>366.8</ele>
        <time>2019-11-01T08:36:08Z</time>
      </trkpt>
      <trkpt lat="46.31601" lon="2.74359">
        <ele>366.8</ele>
        <time>2019-11-01T08:36:09Z</time>
      </trkpt>
      <trkpt lat="46.31603" lon="2.74364">
        <ele>366.8</ele>
        <time>2019-11-01T08:36:10Z</time>
      </trkpt>
      <trkpt lat="46.31604" lon="2.7437">
        <ele>366.8</ele>
        <time>2019-11-01T08:36:11Z</time>
      </trkpt>
      <trkpt lat="46.31606" lon="2.74375">
        <ele>366.8</ele>
        <time>2019-11-01T08:36:12Z</time>
      </trkpt>
      <trkpt lat="46.31607" lon="2.74381">
        <ele>366.8</ele>
        <time>2019-11-01T08:36:13Z</time>
      </trkpt>
      <trkpt lat="46.31609" lon="2.74386">
        <ele>366.8</ele>
        <time>2019-11-01T08:36:14Z</time>
      </trkpt>
      <trkpt lat="46.31611" lon="2.74391">
        <ele>366.8</ele>
        <time>2019-11-01T08:36:15Z</time>
      </trkpt>
      <trkpt lat="46.31612" lon="2.74397">
        <ele>366.9</ele>
        <time>2019-11-01T08:36:16Z</time>
      </trkpt>
      <trkpt lat="46.31614" lon="2.74402">
        <ele>367</ele>
        <time>2019-11-01T08:36:17Z</time>
      </trkpt>
      <trkpt lat="46.31616" lon="2.74408">
        <ele>367</ele>
        <time>2019-11-01T08:36:18Z</time>
      </trkpt>
      <trkpt lat="46.31618" lon="2.74413">
        <ele>367.1</ele>
        <time>2019-11-01T08:36:19Z</time>
      </trkpt>
      <trkpt lat="46.31619" lon="2.74418">
        <ele>367.1</ele>
        <time>2019-11-01T08:36:20Z</time>
      </trkpt>
      <trkpt lat="46.31621" lon="2.74424">
        <ele>367.2</ele>
        <time>2019-11-01T08:36:21Z</time>
      </trkpt>
      <trkpt lat="46.31623" lon="2.74429">
        <ele>367.2</ele>
        <time>2019-11-01T08:36:22Z</time>
      </trkpt>
      <trkpt lat="46.31625" lon="2.74434">
        <ele>367.3</ele>
        <time>2019-11-01T08:36:23Z</time>
      </trkpt>
      <trkpt lat="46.31627" lon="2.74439">
        <ele>367.3</ele>
        <time>2019-11-01T08:36:24Z</time>
      </trkpt>
      <trkpt lat="46.31629" lon="2.74444">
        <ele>367.4</ele>
        <time>2019-11-01T08:36:25Z</time>
      </trkpt>
      <trkpt lat="46.31631" lon="2.7445">
        <ele>367.5</ele>
        <time>2019-11-01T08:36:26Z</time>
      </trkpt>
      <trkpt lat="46.31633" lon="2.74455">
        <ele>367.5</ele>
        <time>2019-11-01T08:36:27Z</time>
      </trkpt>
      <trkpt lat="46.31635" lon="2.74461">
        <ele>367.6</ele>
        <time>2019-11-01T08:36:28Z</time>
      </trkpt>
      <trkpt lat="46.31636" lon="2.74467">
        <ele>367.6</ele>
        <time>2019-11-01T08:36:29Z</time>
      </trkpt>
      <trkpt lat="46.31638" lon="2.74472">
        <ele>367.7</ele>
        <time>2019-11-01T08:36:30Z</time>
      </trkpt>
      <trkpt lat="46.31639" lon="2.74478">
        <ele>367.7</ele>
        <time>2019-11-01T08:36:31Z</time>
      </trkpt>
      <trkpt lat="46.31641" lon="2.74484">
        <ele>367.7</ele>
        <time>2019-11-01T08:36:32Z</time>
      </trkpt>
      <trkpt lat="46.31642" lon="2.74489">
        <ele>367.7</ele>
        <time>2019-11-01T08:36:33Z</time>
      </trkpt>
      <trkpt lat="46.31644" lon="2.74494">
        <ele>367.7</ele>
        <time>2019-11-01T08:36:34Z</time>
      </trkpt>
      <trkpt lat="46.31646" lon="2.745">
        <ele>367.7</ele>
        <time>2019-11-01T08:36:35Z</time>
      </trkpt>
      <trkpt lat="46.31648" lon="2.74505">
        <ele>367.7</ele>
        <time>2019-11-01T08:36:36Z</time>
      </trkpt>
      <trkpt lat="46.31649" lon="2.74511">
        <ele>367.7</ele>
        <time>2019-11-01T08:36:37Z</time>
      </trkpt>
      <trkpt lat="46.31651" lon="2.74516">
        <ele>367.7</ele>
        <time>2019-11-01T08:36:38Z</time>
      </trkpt>
      <trkpt lat="46.31652" lon="2.74521">
        <ele>367.8</ele>
        <time>2019-11-01T08:36:39Z</time>
      </trkpt>
      <trkpt lat="46.31654" lon="2.74526">
        <ele>367.8</ele>
        <time>2019-11-01T08:36:40Z</time>
      </trkpt>
      <trkpt lat="46.31656" lon="2.74531">
        <ele>367.8</ele>
        <time>2019-11-01T08:36:41Z</time>
      </trkpt>
      <trkpt lat="46.31657" lon="2.74536">
        <ele>367.8</ele>
        <time>2019-11-01T08:36:42Z</time>
      </trkpt>
      <trkpt lat="46.31659" lon="2.74541">
        <ele>367.8</ele>
        <time>2019-11-01T08:36:43Z</time>
      </trkpt>
      <trkpt lat="46.31661" lon="2.74546">
        <ele>367.9</ele>
        <time>2019-11-01T08:36:44Z</time>
      </trkpt>
      <trkpt lat="46.31663" lon="2.7455">
        <ele>367.9</ele>
        <time>2019-11-01T08:36:45Z</time>
      </trkpt>
      <trkpt lat="46.31665" lon="2.74554">
        <ele>367.9</ele>
        <time>2019-11-01T08:36:46Z</time>
      </trkpt>
      <trkpt lat="46.31667" lon="2.74558">
        <ele>367.9</ele>
        <time>2019-11-01T08:36:47Z</time>
      </trkpt>
      <trkpt lat="46.31668" lon="2.74563">
        <ele>367.9</ele>
        <time>2019-11-01T08:36:48Z</time>
      </trkpt>
      <trkpt lat="46.31669" lon="2.74566">
        <ele>367.9</ele>
        <time>2019-11-01T08:36:49Z</time>
      </trkpt>
      <trkpt lat="46.3167" lon="2.7457">
        <ele>367.8</ele>
        <time>2019-11-01T08:36:50Z</time>
      </trkpt>
      <trkpt lat="46.3167" lon="2.74573">
        <ele>367.8</ele>
        <time>2019-11-01T08:36:51Z</time>
      </trkpt>
      <trkpt lat="46.31671" lon="2.74577">
        <ele>367.8</ele>
        <time>2019-11-01T08:36:52Z</time>
      </trkpt>
      <trkpt lat="46.31673" lon="2.7458">
        <ele>367.8</ele>
        <time>2019-11-01T08:36:53Z</time>
      </trkpt>
      <trkpt lat="46.31673" lon="2.74584">
        <ele>367.7</ele>
        <time>2019-11-01T08:36:54Z</time>
      </trkpt>
      <trkpt lat="46.31674" lon="2.74588">
        <ele>367.7</ele>
        <time>2019-11-01T08:36:55Z</time>
      </trkpt>
      <trkpt lat="46.31675" lon="2.74591">
        <ele>367.7</ele>
        <time>2019-11-01T08:36:56Z</time>
      </trkpt>
      <trkpt lat="46.31676" lon="2.74595">
        <ele>367.6</ele>
        <time>2019-11-01T08:36:57Z</time>
      </trkpt>
      <trkpt lat="46.31677" lon="2.746">
        <ele>367.6</ele>
        <time>2019-11-01T08:36:58Z</time>
      </trkpt>
      <trkpt lat="46.31679" lon="2.74605">
        <ele>367.5</ele>
        <time>2019-11-01T08:36:59Z</time>
      </trkpt>
      <trkpt lat="46.3168" lon="2.7461">
        <ele>367.5</ele>
        <time>2019-11-01T08:37:00Z</time>
      </trkpt>
      <trkpt lat="46.31682" lon="2.74614">
        <ele>367.4</ele>
        <time>2019-11-01T08:37:01Z</time>
      </trkpt>
      <trkpt lat="46.31683" lon="2.74619">
        <ele>367.4</ele>
        <time>2019-11-01T08:37:02Z</time>
      </trkpt>
      <trkpt lat="46.31685" lon="2.74624">
        <ele>367.3</ele>
        <time>2019-11-01T08:37:03Z</time>
      </trkpt>
      <trkpt lat="46.31686" lon="2.74629">
        <ele>367.3</ele>
        <time>2019-11-01T08:37:04Z</time>
      </trkpt>
      <trkpt lat="46.31688" lon="2.74634">
        <ele>367.2</ele>
        <time>2019-11-01T08:37:05Z</time>
      </trkpt>
      <trkpt lat="46.31689" lon="2.74638">
        <ele>367.2</ele>
        <time>2019-11-01T08:37:06Z</time>
      </trkpt>
      <trkpt lat="46.3169" lon="2.74643">
        <ele>367.1</ele>
        <time>2019-11-01T08:37:07Z</time>
      </trkpt>
      <trkpt lat="46.31692" lon="2.74648">
        <ele>367</ele>
        <time>2019-11-01T08:37:08Z</time>
      </trkpt>
      <trkpt lat="46.31693" lon="2.74652">
        <ele>367</ele>
        <time>2019-11-01T08:37:09Z</time>
      </trkpt>
      <trkpt lat="46.31694" lon="2.74657">
        <ele>366.9</ele>
        <time>2019-11-01T08:37:10Z</time>
      </trkpt>
      <trkpt lat="46.31695" lon="2.74662">
        <ele>366.9</ele>
        <time>2019-11-01T08:37:11Z</time>
      </trkpt>
      <trkpt lat="46.31697" lon="2.74666">
        <ele>366.8</ele>
        <time>2019-11-01T08:37:12Z</time>
      </trkpt>
      <trkpt lat="46.31698" lon="2.7467">
        <ele>366.8</ele>
        <time>2019-11-01T08:37:13Z</time>
      </trkpt>
      <trkpt lat="46.317" lon="2.74675">
        <ele>366.7</ele>
        <time>2019-11-01T08:37:14Z</time>
      </trkpt>
      <trkpt lat="46.31701" lon="2.7468">
        <ele>366.6</ele>
        <time>2019-11-01T08:37:15Z</time>
      </trkpt>
      <trkpt lat="46.31702" lon="2.74685">
        <ele>366.6</ele>
        <time>2019-11-01T08:37:16Z</time>
      </trkpt>
      <trkpt lat="46.31704" lon="2.74689">
        <ele>366.5</ele>
        <time>2019-11-01T08:37:17Z</time>
      </trkpt>
      <trkpt lat="46.31705" lon="2.74694">
        <ele>366.5</ele>
        <time>2019-11-01T08:37:18Z</time>
      </trkpt>
      <trkpt lat="46.31707" lon="2.74698">
        <ele>366.4</ele>
        <time>2019-11-01T08:37:19Z</time>
      </trkpt>
      <trkpt lat="46.31708" lon="2.74703">
        <ele>366.4</ele>
        <time>2019-11-01T08:37:20Z</time>
      </trkpt>
      <trkpt lat="46.3171" lon="2.74708">
        <ele>366.3</ele>
        <time>2019-11-01T08:37:21Z</time>
      </trkpt>
      <trkpt lat="46.31711" lon="2.74713">
        <ele>366.3</ele>
        <time>2019-11-01T08:37:22Z</time>
      </trkpt>
      <trkpt lat="46.31713" lon="2.74718">
        <ele>366.2</ele>
        <time>2019-11-01T08:37:23Z</time>
      </trkpt>
      <trkpt lat="46.31714" lon="2.74723">
        <ele>366.1</ele>
        <time>2019-11-01T08:37:24Z</time>
      </trkpt>
      <trkpt lat="46.31716" lon="2.74728">
        <ele>366.1</ele>
        <time>2019-11-01T08:37:25Z</time>
      </trkpt>
      <trkpt lat="46.31717" lon="2.74733">
        <ele>366</ele>
        <time>2019-11-01T08:37:26Z</time>
      </trkpt>
      <trkpt lat="46.31719" lon="2.74738">
        <ele>365.9</ele>
        <time>2019-11-01T08:37:27Z</time>
      </trkpt>
      <trkpt lat="46.3172" lon="2.74742">
        <ele>365.8</ele>
        <time>2019-11-01T08:37:28Z</time>
      </trkpt>
      <trkpt lat="46.31722" lon="2.74748">
        <ele>365.7</ele>
        <time>2019-11-01T08:37:29Z</time>
      </trkpt>
      <trkpt lat="46.31724" lon="2.74753">
        <ele>365.6</ele>
        <time>2019-11-01T08:37:30Z</time>
      </trkpt>
      <trkpt lat="46.31725" lon="2.74758">
        <ele>365.5</ele>
        <time>2019-11-01T08:37:31Z</time>
      </trkpt>
      <trkpt lat="46.31726" lon="2.74764">
        <ele>365.4</ele>
        <time>2019-11-01T08:37:32Z</time>
      </trkpt>
      <trkpt lat="46.31728" lon="2.74769">
        <ele>365.2</ele>
        <time>2019-11-01T08:37:33Z</time>
      </trkpt>
      <trkpt lat="46.3173" lon="2.74775">
        <ele>365.1</ele>
        <time>2019-11-01T08:37:34Z</time>
      </trkpt>
      <trkpt lat="46.31731" lon="2.7478">
        <ele>364.9</ele>
        <time>2019-11-01T08:37:35Z</time>
      </trkpt>
      <trkpt lat="46.31733" lon="2.74786">
        <ele>364.8</ele>
        <time>2019-11-01T08:37:36Z</time>
      </trkpt>
      <trkpt lat="46.31735" lon="2.74791">
        <ele>364.6</ele>
        <time>2019-11-01T08:37:37Z</time>
      </trkpt>
      <trkpt lat="46.31736" lon="2.74797">
        <ele>364.4</ele>
        <time>2019-11-01T08:37:38Z</time>
      </trkpt>
      <trkpt lat="46.31738" lon="2.74802">
        <ele>364.2</ele>
        <time>2019-11-01T08:37:39Z</time>
      </trkpt>
      <trkpt lat="46.3174" lon="2.74808">
        <ele>364</ele>
        <time>2019-11-01T08:37:40Z</time>
      </trkpt>
      <trkpt lat="46.31742" lon="2.74814">
        <ele>363.8</ele>
        <time>2019-11-01T08:37:41Z</time>
      </trkpt>
      <trkpt lat="46.31743" lon="2.7482">
        <ele>363.7</ele>
        <time>2019-11-01T08:37:42Z</time>
      </trkpt>
      <trkpt lat="46.31745" lon="2.74827">
        <ele>363.5</ele>
        <time>2019-11-01T08:37:43Z</time>
      </trkpt>
      <trkpt lat="46.31746" lon="2.74833">
        <ele>363.3</ele>
        <time>2019-11-01T08:37:44Z</time>
      </trkpt>
      <trkpt lat="46.31747" lon="2.7484">
        <ele>363.1</ele>
        <time>2019-11-01T08:37:45Z</time>
      </trkpt>
      <trkpt lat="46.31748" lon="2.74847">
        <ele>362.9</ele>
        <time>2019-11-01T08:37:46Z</time>
      </trkpt>
      <trkpt lat="46.31748" lon="2.74855">
        <ele>362.7</ele>
        <time>2019-11-01T08:37:47Z</time>
      </trkpt>
      <trkpt lat="46.31749" lon="2.74862">
        <ele>362.5</ele>
        <time>2019-11-01T08:37:48Z</time>
      </trkpt>
      <trkpt lat="46.31749" lon="2.7487">
        <ele>362.3</ele>
        <time>2019-11-01T08:37:49Z</time>
      </trkpt>
      <trkpt lat="46.3175" lon="2.74877">
        <ele>362.1</ele>
        <time>2019-11-01T08:37:50Z</time>
      </trkpt>
      <trkpt lat="46.31751" lon="2.74885">
        <ele>361.9</ele>
        <time>2019-11-01T08:37:51Z</time>
      </trkpt>
      <trkpt lat="46.31751" lon="2.74893">
        <ele>361.7</ele>
        <time>2019-11-01T08:37:52Z</time>
      </trkpt>
      <trkpt lat="46.31752" lon="2.749">
        <ele>361.5</ele>
        <time>2019-11-01T08:37:53Z</time>
      </trkpt>
      <trkpt lat="46.31753" lon="2.74908">
        <ele>361.3</ele>
        <time>2019-11-01T08:37:54Z</time>
      </trkpt>
      <trkpt lat="46.31753" lon="2.74915">
        <ele>361.1</ele>
        <time>2019-11-01T08:37:55Z</time>
      </trkpt>
      <trkpt lat="46.31753" lon="2.74923">
        <ele>360.9</ele>
        <time>2019-11-01T08:37:56Z</time>
      </trkpt>
      <trkpt lat="46.31754" lon="2.7493">
        <ele>360.7</ele>
        <time>2019-11-01T08:37:57Z</time>
      </trkpt>
      <trkpt lat="46.31755" lon="2.74937">
        <ele>360.5</ele>
        <time>2019-11-01T08:37:58Z</time>
      </trkpt>
      <trkpt lat="46.31755" lon="2.74943">
        <ele>360.3</ele>
        <time>2019-11-01T08:37:59Z</time>
      </trkpt>
      <trkpt lat="46.31756" lon="2.74949">
        <ele>360.1</ele>
        <time>2019-11-01T08:38:00Z</time>
      </trkpt>
      <trkpt lat="46.31756" lon="2.74956">
        <ele>359.9</ele>
        <time>2019-11-01T08:38:01Z</time>
      </trkpt>
      <trkpt lat="46.31756" lon="2.74962">
        <ele>359.8</ele>
        <time>2019-11-01T08:38:02Z</time>
      </trkpt>
      <trkpt lat="46.31757" lon="2.74968">
        <ele>359.6</ele>
        <time>2019-11-01T08:38:03Z</time>
      </trkpt>
      <trkpt lat="46.31757" lon="2.74974">
        <ele>359.4</ele>
        <time>2019-11-01T08:38:04Z</time>
      </trkpt>
      <trkpt lat="46.31757" lon="2.74981">
        <ele>359.3</ele>
        <time>2019-11-01T08:38:05Z</time>
      </trkpt>
      <trkpt lat="46.31758" lon="2.74987">
        <ele>359.1</ele>
        <time>2019-11-01T08:38:06Z</time>
      </trkpt>
      <trkpt lat="46.31758" lon="2.74994">
        <ele>358.9</ele>
        <time>2019-11-01T08:38:07Z</time>
      </trkpt>
      <trkpt lat="46.31759" lon="2.75001">
        <ele>358.7</ele>
        <time>2019-11-01T08:38:08Z</time>
      </trkpt>
      <trkpt lat="46.31759" lon="2.75008">
        <ele>358.5</ele>
        <time>2019-11-01T08:38:09Z</time>
      </trkpt>
      <trkpt lat="46.3176" lon="2.75015">
        <ele>358.4</ele>
        <time>2019-11-01T08:38:10Z</time>
      </trkpt>
      <trkpt lat="46.31761" lon="2.75023">
        <ele>358.2</ele>
        <time>2019-11-01T08:38:11Z</time>
      </trkpt>
      <trkpt lat="46.31762" lon="2.7503">
        <ele>358</ele>
        <time>2019-11-01T08:38:12Z</time>
      </trkpt>
      <trkpt lat="46.31762" lon="2.75037">
        <ele>357.8</ele>
        <time>2019-11-01T08:38:13Z</time>
      </trkpt>
      <trkpt lat="46.31763" lon="2.75045">
        <ele>357.6</ele>
        <time>2019-11-01T08:38:14Z</time>
      </trkpt>
      <trkpt lat="46.31763" lon="2.75052">
        <ele>357.4</ele>
        <time>2019-11-01T08:38:15Z</time>
      </trkpt>
      <trkpt lat="46.31764" lon="2.7506">
        <ele>357.2</ele>
        <time>2019-11-01T08:38:16Z</time>
      </trkpt>
      <trkpt lat="46.31765" lon="2.75069">
        <ele>356.9</ele>
        <time>2019-11-01T08:38:17Z</time>
      </trkpt>
      <trkpt lat="46.31765" lon="2.75077">
        <ele>356.7</ele>
        <time>2019-11-01T08:38:18Z</time>
      </trkpt>
      <trkpt lat="46.31766" lon="2.75085">
        <ele>356.5</ele>
        <time>2019-11-01T08:38:19Z</time>
      </trkpt>
      <trkpt lat="46.31766" lon="2.75094">
        <ele>356.2</ele>
        <time>2019-11-01T08:38:20Z</time>
      </trkpt>
      <trkpt lat="46.31766" lon="2.75102">
        <ele>356</ele>
        <time>2019-11-01T08:38:21Z</time>
      </trkpt>
      <trkpt lat="46.31766" lon="2.75109">
        <ele>355.8</ele>
        <time>2019-11-01T08:38:22Z</time>
      </trkpt>
      <trkpt lat="46.31767" lon="2.75117">
        <ele>355.6</ele>
        <time>2019-11-01T08:38:23Z</time>
      </trkpt>
      <trkpt lat="46.31767" lon="2.75124">
        <ele>355.4</ele>
        <time>2019-11-01T08:38:24Z</time>
      </trkpt>
      <trkpt lat="46.31768" lon="2.75132">
        <ele>355.1</ele>
        <time>2019-11-01T08:38:25Z</time>
      </trkpt>
      <trkpt lat="46.31768" lon="2.7514">
        <ele>354.9</ele>
        <time>2019-11-01T08:38:26Z</time>
      </trkpt>
      <trkpt lat="46.31768" lon="2.75146">
        <ele>354.7</ele>
        <time>2019-11-01T08:38:27Z</time>
      </trkpt>
      <trkpt lat="46.31767" lon="2.75153">
        <ele>354.5</ele>
        <time>2019-11-01T08:38:28Z</time>
      </trkpt>
      <trkpt lat="46.31767" lon="2.75158">
        <ele>354.3</ele>
        <time>2019-11-01T08:38:29Z</time>
      </trkpt>
      <trkpt lat="46.31768" lon="2.75162">
        <ele>354.2</ele>
        <time>2019-11-01T08:38:30Z</time>
      </trkpt>
      <trkpt lat="46.31768" lon="2.75165">
        <ele>354</ele>
        <time>2019-11-01T08:38:31Z</time>
      </trkpt>
      <trkpt lat="46.3177" lon="2.75168">
        <ele>354</ele>
        <time>2019-11-01T08:38:32Z</time>
      </trkpt>
      <trkpt lat="46.31771" lon="2.75168">
        <ele>353.9</ele>
        <time>2019-11-01T08:38:33Z</time>
      </trkpt>
      <trkpt lat="46.31773" lon="2.75167">
        <ele>354.1</ele>
        <time>2019-11-01T08:38:34Z</time>
      </trkpt>
      <trkpt lat="46.31775" lon="2.75166">
        <ele>354.1</ele>
        <time>2019-11-01T08:38:35Z</time>
      </trkpt>
      <trkpt lat="46.31777" lon="2.75164">
        <ele>354.2</ele>
        <time>2019-11-01T08:38:36Z</time>
      </trkpt>
      <trkpt lat="46.31779" lon="2.75162">
        <ele>354.3</ele>
        <time>2019-11-01T08:38:37Z</time>
      </trkpt>
      <trkpt lat="46.31782" lon="2.7516">
        <ele>354.4</ele>
        <time>2019-11-01T08:38:38Z</time>
      </trkpt>
      <trkpt lat="46.31784" lon="2.75158">
        <ele>354.4</ele>
        <time>2019-11-01T08:38:39Z</time>
      </trkpt>
      <trkpt lat="46.31787" lon="2.75154">
        <ele>354.5</ele>
        <time>2019-11-01T08:38:40Z</time>
      </trkpt>
      <trkpt lat="46.3179" lon="2.75151">
        <ele>354.6</ele>
        <time>2019-11-01T08:38:41Z</time>
      </trkpt>
      <trkpt lat="46.31793" lon="2.75147">
        <ele>354.7</ele>
        <time>2019-11-01T08:38:42Z</time>
      </trkpt>
      <trkpt lat="46.31797" lon="2.75144">
        <ele>354.9</ele>
        <time>2019-11-01T08:38:43Z</time>
      </trkpt>
      <trkpt lat="46.318" lon="2.7514">
        <ele>355</ele>
        <time>2019-11-01T08:38:44Z</time>
      </trkpt>
      <trkpt lat="46.31803" lon="2.75137">
        <ele>355.1</ele>
        <time>2019-11-01T08:38:45Z</time>
      </trkpt>
      <trkpt lat="46.31806" lon="2.75133">
        <ele>355.2</ele>
        <time>2019-11-01T08:38:46Z</time>
      </trkpt>
      <trkpt lat="46.31809" lon="2.75129">
        <ele>355.3</ele>
        <time>2019-11-01T08:38:47Z</time>
      </trkpt>
      <trkpt lat="46.31813" lon="2.75126">
        <ele>355.5</ele>
        <time>2019-11-01T08:38:48Z</time>
      </trkpt>
      <trkpt lat="46.31816" lon="2.75122">
        <ele>355.7</ele>
        <time>2019-11-01T08:38:49Z</time>
      </trkpt>
      <trkpt lat="46.3182" lon="2.75118">
        <ele>355.9</ele>
        <time>2019-11-01T08:38:50Z</time>
      </trkpt>
      <trkpt lat="46.31823" lon="2.75114">
        <ele>356.1</ele>
        <time>2019-11-01T08:38:51Z</time>
      </trkpt>
      <trkpt lat="46.31826" lon="2.7511">
        <ele>356.2</ele>
        <time>2019-11-01T08:38:52Z</time>
      </trkpt>
      <trkpt lat="46.31829" lon="2.75106">
        <ele>356.4</ele>
        <time>2019-11-01T08:38:53Z</time>
      </trkpt>
      <trkpt lat="46.31833" lon="2.75102">
        <ele>356.5</ele>
        <time>2019-11-01T08:38:54Z</time>
      </trkpt>
      <trkpt lat="46.31836" lon="2.75098">
        <ele>356.6</ele>
        <time>2019-11-01T08:38:55Z</time>
      </trkpt>
      <trkpt lat="46.31839" lon="2.75094">
        <ele>356.8</ele>
        <time>2019-11-01T08:38:56Z</time>
      </trkpt>
      <trkpt lat="46.31843" lon="2.75091">
        <ele>356.9</ele>
        <time>2019-11-01T08:38:57Z</time>
      </trkpt>
      <trkpt lat="46.31846" lon="2.75087">
        <ele>357</ele>
        <time>2019-11-01T08:38:58Z</time>
      </trkpt>
      <trkpt lat="46.31849" lon="2.75082">
        <ele>357.2</ele>
        <time>2019-11-01T08:38:59Z</time>
      </trkpt>
      <trkpt lat="46.31852" lon="2.75078">
        <ele>357.3</ele>
        <time>2019-11-01T08:39:00Z</time>
      </trkpt>
      <trkpt lat="46.31855" lon="2.75074">
        <ele>357.4</ele>
        <time>2019-11-01T08:39:01Z</time>
      </trkpt>
      <trkpt lat="46.31858" lon="2.7507">
        <ele>357.4</ele>
        <time>2019-11-01T08:39:02Z</time>
      </trkpt>
      <trkpt lat="46.31861" lon="2.75066">
        <ele>357.6</ele>
        <time>2019-11-01T08:39:03Z</time>
      </trkpt>
      <trkpt lat="46.31863" lon="2.75061">
        <ele>357.7</ele>
        <time>2019-11-01T08:39:04Z</time>
      </trkpt>
      <trkpt lat="46.31866" lon="2.75056">
        <ele>357.8</ele>
        <time>2019-11-01T08:39:05Z</time>
      </trkpt>
      <trkpt lat="46.31869" lon="2.75051">
        <ele>357.9</ele>
        <time>2019-11-01T08:39:06Z</time>
      </trkpt>
      <trkpt lat="46.31871" lon="2.75046">
        <ele>358</ele>
        <time>2019-11-01T08:39:07Z</time>
      </trkpt>
      <trkpt lat="46.31873" lon="2.75041">
        <ele>358.1</ele>
        <time>2019-11-01T08:39:08Z</time>
      </trkpt>
      <trkpt lat="46.31875" lon="2.75036">
        <ele>358.1</ele>
        <time>2019-11-01T08:39:09Z</time>
      </trkpt>
      <trkpt lat="46.31877" lon="2.75031">
        <ele>358.2</ele>
        <time>2019-11-01T08:39:10Z</time>
      </trkpt>
      <trkpt lat="46.31879" lon="2.75025">
        <ele>358.2</ele>
        <time>2019-11-01T08:39:11Z</time>
      </trkpt>
      <trkpt lat="46.31881" lon="2.7502">
        <ele>358.3</ele>
        <time>2019-11-01T08:39:12Z</time>
      </trkpt>
      <trkpt lat="46.31883" lon="2.75015">
        <ele>358.3</ele>
        <time>2019-11-01T08:39:13Z</time>
      </trkpt>
      <trkpt lat="46.31884" lon="2.75009">
        <ele>358.5</ele>
        <time>2019-11-01T08:39:14Z</time>
      </trkpt>
      <trkpt lat="46.31886" lon="2.75004">
        <ele>358.6</ele>
        <time>2019-11-01T08:39:15Z</time>
      </trkpt>
      <trkpt lat="46.31888" lon="2.74999">
        <ele>358.8</ele>
        <time>2019-11-01T08:39:16Z</time>
      </trkpt>
      <trkpt lat="46.3189" lon="2.74994">
        <ele>359.1</ele>
        <time>2019-11-01T08:39:17Z</time>
      </trkpt>
      <trkpt lat="46.31892" lon="2.74989">
        <ele>359.4</ele>
        <time>2019-11-01T08:39:18Z</time>
      </trkpt>
      <trkpt lat="46.31894" lon="2.74984">
        <ele>359.7</ele>
        <time>2019-11-01T08:39:19Z</time>
      </trkpt>
      <trkpt lat="46.31896" lon="2.74978">
        <ele>360</ele>
        <time>2019-11-01T08:39:20Z</time>
      </trkpt>
      <trkpt lat="46.31898" lon="2.74973">
        <ele>360.3</ele>
        <time>2019-11-01T08:39:21Z</time>
      </trkpt>
      <trkpt lat="46.319" lon="2.74968">
        <ele>360.6</ele>
        <time>2019-11-01T08:39:22Z</time>
      </trkpt>
      <trkpt lat="46.31902" lon="2.74963">
        <ele>360.9</ele>
        <time>2019-11-01T08:39:23Z</time>
      </trkpt>
      <trkpt lat="46.31904" lon="2.74958">
        <ele>361.1</ele>
        <time>2019-11-01T08:39:24Z</time>
      </trkpt>
      <trkpt lat="46.31906" lon="2.74953">
        <ele>361.4</ele>
        <time>2019-11-01T08:39:25Z</time>
      </trkpt>
      <trkpt lat="46.31908" lon="2.74948">
        <ele>361.7</ele>
        <time>2019-11-01T08:39:26Z</time>
      </trkpt>
      <trkpt lat="46.3191" lon="2.74942">
        <ele>361.9</ele>
        <time>2019-11-01T08:39:27Z</time>
      </trkpt>
      <trkpt lat="46.31912" lon="2.74937">
        <ele>362.1</ele>
        <time>2019-11-01T08:39:28Z</time>
      </trkpt>
      <trkpt lat="46.31914" lon="2.74933">
        <ele>362.3</ele>
        <time>2019-11-01T08:39:29Z</time>
      </trkpt>
      <trkpt lat="46.31916" lon="2.74928">
        <ele>362.6</ele>
        <time>2019-11-01T08:39:30Z</time>
      </trkpt>
      <trkpt lat="46.31918" lon="2.74923">
        <ele>362.9</ele>
        <time>2019-11-01T08:39:31Z</time>
      </trkpt>
      <trkpt lat="46.3192" lon="2.74918">
        <ele>363.2</ele>
        <time>2019-11-01T08:39:32Z</time>
      </trkpt>
      <trkpt lat="46.31922" lon="2.74914">
        <ele>363.5</ele>
        <time>2019-11-01T08:39:33Z</time>
      </trkpt>
      <trkpt lat="46.31924" lon="2.74909">
        <ele>363.8</ele>
        <time>2019-11-01T08:39:34Z</time>
      </trkpt>
      <trkpt lat="46.31926" lon="2.74904">
        <ele>364</ele>
        <time>2019-11-01T08:39:35Z</time>
      </trkpt>
      <trkpt lat="46.31928" lon="2.749">
        <ele>364.3</ele>
        <time>2019-11-01T08:39:36Z</time>
      </trkpt>
      <trkpt lat="46.31929" lon="2.74895">
        <ele>364.6</ele>
        <time>2019-11-01T08:39:37Z</time>
      </trkpt>
      <trkpt lat="46.3193" lon="2.7489">
        <ele>364.8</ele>
        <time>2019-11-01T08:39:38Z</time>
      </trkpt>
      <trkpt lat="46.31931" lon="2.74885">
        <ele>365.1</ele>
        <time>2019-11-01T08:39:39Z</time>
      </trkpt>
      <trkpt lat="46.31931" lon="2.7488">
        <ele>365.4</ele>
        <time>2019-11-01T08:39:40Z</time>
      </trkpt>
      <trkpt lat="46.31931" lon="2.74875">
        <ele>365.7</ele>
        <time>2019-11-01T08:39:41Z</time>
      </trkpt>
      <trkpt lat="46.31931" lon="2.7487">
        <ele>366</ele>
        <time>2019-11-01T08:39:42Z</time>
      </trkpt>
      <trkpt lat="46.31932" lon="2.74865">
        <ele>366.3</ele>
        <time>2019-11-01T08:39:43Z</time>
      </trkpt>
      <trkpt lat="46.31932" lon="2.7486">
        <ele>366.6</ele>
        <time>2019-11-01T08:39:44Z</time>
      </trkpt>
      <trkpt lat="46.31932" lon="2.74855">
        <ele>366.8</ele>
        <time>2019-11-01T08:39:45Z</time>
      </trkpt>
      <trkpt lat="46.31931" lon="2.7485">
        <ele>367.1</ele>
        <time>2019-11-01T08:39:46Z</time>
      </trkpt>
      <trkpt lat="46.31931" lon="2.74845">
        <ele>367.3</ele>
        <time>2019-11-01T08:39:47Z</time>
      </trkpt>
      <trkpt lat="46.3193" lon="2.74839">
        <ele>367.5</ele>
        <time>2019-11-01T08:39:48Z</time>
      </trkpt>
      <trkpt lat="46.3193" lon="2.74834">
        <ele>367.7</ele>
        <time>2019-11-01T08:39:49Z</time>
      </trkpt>
      <trkpt lat="46.31929" lon="2.74829">
        <ele>367.8</ele>
        <time>2019-11-01T08:39:50Z</time>
      </trkpt>
      <trkpt lat="46.31928" lon="2.74824">
        <ele>367.9</ele>
        <time>2019-11-01T08:39:51Z</time>
      </trkpt>
      <trkpt lat="46.31927" lon="2.74819">
        <ele>368.1</ele>
        <time>2019-11-01T08:39:52Z</time>
      </trkpt>
      <trkpt lat="46.31926" lon="2.74814">
        <ele>368.2</ele>
        <time>2019-11-01T08:39:53Z</time>
      </trkpt>
      <trkpt lat="46.31926" lon="2.74809">
        <ele>368.3</ele>
        <time>2019-11-01T08:39:54Z</time>
      </trkpt>
      <trkpt lat="46.31925" lon="2.74804">
        <ele>368.5</ele>
        <time>2019-11-01T08:39:55Z</time>
      </trkpt>
      <trkpt lat="46.31925" lon="2.74798">
        <ele>368.6</ele>
        <time>2019-11-01T08:39:56Z</time>
      </trkpt>
      <trkpt lat="46.31925" lon="2.74793">
        <ele>368.8</ele>
        <time>2019-11-01T08:39:57Z</time>
      </trkpt>
      <trkpt lat="46.31924" lon="2.74787">
        <ele>369</ele>
        <time>2019-11-01T08:39:58Z</time>
      </trkpt>
      <trkpt lat="46.31924" lon="2.74782">
        <ele>369.2</ele>
        <time>2019-11-01T08:39:59Z</time>
      </trkpt>
      <trkpt lat="46.31923" lon="2.74776">
        <ele>369.3</ele>
        <time>2019-11-01T08:40:00Z</time>
      </trkpt>
      <trkpt lat="46.31923" lon="2.74771">
        <ele>369.5</ele>
        <time>2019-11-01T08:40:01Z</time>
      </trkpt>
      <trkpt lat="46.31923" lon="2.74765">
        <ele>369.6</ele>
        <time>2019-11-01T08:40:02Z</time>
      </trkpt>
      <trkpt lat="46.31922" lon="2.74759">
        <ele>369.7</ele>
        <time>2019-11-01T08:40:03Z</time>
      </trkpt>
      <trkpt lat="46.31922" lon="2.74752">
        <ele>369.8</ele>
        <time>2019-11-01T08:40:04Z</time>
      </trkpt>
      <trkpt lat="46.31922" lon="2.74748">
        <ele>369.9</ele>
        <time>2019-11-01T08:40:05Z</time>
      </trkpt>
      <trkpt lat="46.31922" lon="2.74743">
        <ele>370</ele>
        <time>2019-11-01T08:40:06Z</time>
      </trkpt>
      <trkpt lat="46.31921" lon="2.74737">
        <ele>370.2</ele>
        <time>2019-11-01T08:40:07Z</time>
      </trkpt>
      <trkpt lat="46.31921" lon="2.74731">
        <ele>370.3</ele>
        <time>2019-11-01T08:40:08Z</time>
      </trkpt>
      <trkpt lat="46.31921" lon="2.74726">
        <ele>370.4</ele>
        <time>2019-11-01T08:40:09Z</time>
      </trkpt>
      <trkpt lat="46.31921" lon="2.7472">
        <ele>370.5</ele>
        <time>2019-11-01T08:40:10Z</time>
      </trkpt>
      <trkpt lat="46.31921" lon="2.74714">
        <ele>370.5</ele>
        <time>2019-11-01T08:40:11Z</time>
      </trkpt>
      <trkpt lat="46.31922" lon="2.74708">
        <ele>370.6</ele>
        <time>2019-11-01T08:40:12Z</time>
      </trkpt>
      <trkpt lat="46.31922" lon="2.74702">
        <ele>370.6</ele>
        <time>2019-11-01T08:40:13Z</time>
      </trkpt>
      <trkpt lat="46.31923" lon="2.74695">
        <ele>370.7</ele>
        <time>2019-11-01T08:40:14Z</time>
      </trkpt>
      <trkpt lat="46.31924" lon="2.74689">
        <ele>370.7</ele>
        <time>2019-11-01T08:40:15Z</time>
      </trkpt>
      <trkpt lat="46.31925" lon="2.74683">
        <ele>370.7</ele>
        <time>2019-11-01T08:40:16Z</time>
      </trkpt>
      <trkpt lat="46.31926" lon="2.74675">
        <ele>370.8</ele>
        <time>2019-11-01T08:40:17Z</time>
      </trkpt>
      <trkpt lat="46.31927" lon="2.7467">
        <ele>370.8</ele>
        <time>2019-11-01T08:40:18Z</time>
      </trkpt>
      <trkpt lat="46.31928" lon="2.74664">
        <ele>370.9</ele>
        <time>2019-11-01T08:40:19Z</time>
      </trkpt>
      <trkpt lat="46.31929" lon="2.74658">
        <ele>370.9</ele>
        <time>2019-11-01T08:40:20Z</time>
      </trkpt>
      <trkpt lat="46.31931" lon="2.74651">
        <ele>371.1</ele>
        <time>2019-11-01T08:40:21Z</time>
      </trkpt>
      <trkpt lat="46.31932" lon="2.74645">
        <ele>371.2</ele>
        <time>2019-11-01T08:40:22Z</time>
      </trkpt>
      <trkpt lat="46.31933" lon="2.74639">
        <ele>371.3</ele>
        <time>2019-11-01T08:40:23Z</time>
      </trkpt>
      <trkpt lat="46.31935" lon="2.74632">
        <ele>371.4</ele>
        <time>2019-11-01T08:40:24Z</time>
      </trkpt>
      <trkpt lat="46.31936" lon="2.74625">
        <ele>371.4</ele>
        <time>2019-11-01T08:40:25Z</time>
      </trkpt>
      <trkpt lat="46.31938" lon="2.74618">
        <ele>371.5</ele>
        <time>2019-11-01T08:40:26Z</time>
      </trkpt>
      <trkpt lat="46.31939" lon="2.74612">
        <ele>371.5</ele>
        <time>2019-11-01T08:40:27Z</time>
      </trkpt>
      <trkpt lat="46.3194" lon="2.74605">
        <ele>371.5</ele>
        <time>2019-11-01T08:40:28Z</time>
      </trkpt>
      <trkpt lat="46.31942" lon="2.74598">
        <ele>371.6</ele>
        <time>2019-11-01T08:40:29Z</time>
      </trkpt>
      <trkpt lat="46.31943" lon="2.7459">
        <ele>371.6</ele>
        <time>2019-11-01T08:40:30Z</time>
      </trkpt>
      <trkpt lat="46.31945" lon="2.74583">
        <ele>371.6</ele>
        <time>2019-11-01T08:40:31Z</time>
      </trkpt>
      <trkpt lat="46.31946" lon="2.74576">
        <ele>371.6</ele>
        <time>2019-11-01T08:40:32Z</time>
      </trkpt>
      <trkpt lat="46.31948" lon="2.74569">
        <ele>371.6</ele>
        <time>2019-11-01T08:40:33Z</time>
      </trkpt>
      <trkpt lat="46.3195" lon="2.74562">
        <ele>371.7</ele>
        <time>2019-11-01T08:40:34Z</time>
      </trkpt>
      <trkpt lat="46.31951" lon="2.74555">
        <ele>371.8</ele>
        <time>2019-11-01T08:40:35Z</time>
      </trkpt>
      <trkpt lat="46.31954" lon="2.74549">
        <ele>371.8</ele>
        <time>2019-11-01T08:40:36Z</time>
      </trkpt>
      <trkpt lat="46.31956" lon="2.74542">
        <ele>371.9</ele>
        <time>2019-11-01T08:40:37Z</time>
      </trkpt>
      <trkpt lat="46.31959" lon="2.74536">
        <ele>372</ele>
        <time>2019-11-01T08:40:38Z</time>
      </trkpt>
      <trkpt lat="46.31962" lon="2.7453">
        <ele>372.1</ele>
        <time>2019-11-01T08:40:39Z</time>
      </trkpt>
      <trkpt lat="46.31965" lon="2.74525">
        <ele>372.2</ele>
        <time>2019-11-01T08:40:40Z</time>
      </trkpt>
      <trkpt lat="46.31969" lon="2.74519">
        <ele>372.3</ele>
        <time>2019-11-01T08:40:41Z</time>
      </trkpt>
      <trkpt lat="46.31972" lon="2.74514">
        <ele>372.3</ele>
        <time>2019-11-01T08:40:42Z</time>
      </trkpt>
      <trkpt lat="46.31977" lon="2.7451">
        <ele>372.4</ele>
        <time>2019-11-01T08:40:43Z</time>
      </trkpt>
      <trkpt lat="46.31981" lon="2.74506">
        <ele>372.4</ele>
        <time>2019-11-01T08:40:44Z</time>
      </trkpt>
      <trkpt lat="46.31986" lon="2.74502">
        <ele>372.4</ele>
        <time>2019-11-01T08:40:45Z</time>
      </trkpt>
      <trkpt lat="46.31991" lon="2.745">
        <ele>372.4</ele>
        <time>2019-11-01T08:40:46Z</time>
      </trkpt>
      <trkpt lat="46.31996" lon="2.74497">
        <ele>372.5</ele>
        <time>2019-11-01T08:40:47Z</time>
      </trkpt>
      <trkpt lat="46.32001" lon="2.74496">
        <ele>372.5</ele>
        <time>2019-11-01T08:40:48Z</time>
      </trkpt>
      <trkpt lat="46.32005" lon="2.74495">
        <ele>372.6</ele>
        <time>2019-11-01T08:40:49Z</time>
      </trkpt>
      <trkpt lat="46.3201" lon="2.74495">
        <ele>372.8</ele>
        <time>2019-11-01T08:40:50Z</time>
      </trkpt>
      <trkpt lat="46.32015" lon="2.74496">
        <ele>372.9</ele>
        <time>2019-11-01T08:40:51Z</time>
      </trkpt>
      <trkpt lat="46.32021" lon="2.74499">
        <ele>373.3</ele>
        <time>2019-11-01T08:40:52Z</time>
      </trkpt>
      <trkpt lat="46.32023" lon="2.745">
        <ele>373.3</ele>
        <time>2019-11-01T08:40:53Z</time>
      </trkpt>
      <trkpt lat="46.32026" lon="2.74504">
        <ele>373.3</ele>
        <time>2019-11-01T08:40:54Z</time>
      </trkpt>
      <trkpt lat="46.32028" lon="2.74509">
        <ele>373.3</ele>
        <time>2019-11-01T08:40:55Z</time>
      </trkpt>
      <trkpt lat="46.32029" lon="2.74515">
        <ele>373.3</ele>
        <time>2019-11-01T08:40:56Z</time>
      </trkpt>
      <trkpt lat="46.32031" lon="2.7452">
        <ele>373.3</ele>
        <time>2019-11-01T08:40:57Z</time>
      </trkpt>
      <trkpt lat="46.32032" lon="2.74526">
        <ele>373.3</ele>
        <time>2019-11-01T08:40:58Z</time>
      </trkpt>
      <trkpt lat="46.32033" lon="2.74532">
        <ele>373.3</ele>
        <time>2019-11-01T08:40:59Z</time>
      </trkpt>
      <trkpt lat="46.32034" lon="2.74538">
        <ele>373.3</ele>
        <time>2019-11-01T08:41:00Z</time>
      </trkpt>
      <trkpt lat="46.32035" lon="2.74545">
        <ele>373.3</ele>
        <time>2019-11-01T08:41:01Z</time>
      </trkpt>
      <trkpt lat="46.32036" lon="2.74551">
        <ele>373.3</ele>
        <time>2019-11-01T08:41:02Z</time>
      </trkpt>
      <trkpt lat="46.32036" lon="2.74558">
        <ele>373.3</ele>
        <time>2019-11-01T08:41:03Z</time>
      </trkpt>
      <trkpt lat="46.32037" lon="2.74564">
        <ele>373.3</ele>
        <time>2019-11-01T08:41:04Z</time>
      </trkpt>
      <trkpt lat="46.32038" lon="2.7457">
        <ele>373.3</ele>
        <time>2019-11-01T08:41:05Z</time>
      </trkpt>
      <trkpt lat="46.32039" lon="2.74577">
        <ele>373.3</ele>
        <time>2019-11-01T08:41:06Z</time>
      </trkpt>
      <trkpt lat="46.32041" lon="2.74583">
        <ele>373.3</ele>
        <time>2019-11-01T08:41:07Z</time>
      </trkpt>
      <trkpt lat="46.32042" lon="2.7459">
        <ele>373.3</ele>
        <time>2019-11-01T08:41:08Z</time>
      </trkpt>
      <trkpt lat="46.32044" lon="2.74595">
        <ele>373.3</ele>
        <time>2019-11-01T08:41:09Z</time>
      </trkpt>
      <trkpt lat="46.32047" lon="2.74601">
        <ele>373.3</ele>
        <time>2019-11-01T08:41:10Z</time>
      </trkpt>
      <trkpt lat="46.3205" lon="2.74607">
        <ele>373.3</ele>
        <time>2019-11-01T08:41:11Z</time>
      </trkpt>
      <trkpt lat="46.32054" lon="2.74612">
        <ele>373.3</ele>
        <time>2019-11-01T08:41:12Z</time>
      </trkpt>
      <trkpt lat="46.32058" lon="2.74617">
        <ele>373.3</ele>
        <time>2019-11-01T08:41:13Z</time>
      </trkpt>
      <trkpt lat="46.32062" lon="2.74621">
        <ele>373.3</ele>
        <time>2019-11-01T08:41:14Z</time>
      </trkpt>
      <trkpt lat="46.32067" lon="2.74625">
        <ele>373.3</ele>
        <time>2019-11-01T08:41:15Z</time>
      </trkpt>
      <trkpt lat="46.32071" lon="2.74628">
        <ele>373.3</ele>
        <time>2019-11-01T08:41:16Z</time>
      </trkpt>
      <trkpt lat="46.32077" lon="2.7463">
        <ele>373.3</ele>
        <time>2019-11-01T08:41:17Z</time>
      </trkpt>
      <trkpt lat="46.32083" lon="2.74631">
        <ele>373.2</ele>
        <time>2019-11-01T08:41:18Z</time>
      </trkpt>
      <trkpt lat="46.32088" lon="2.74632">
        <ele>373.1</ele>
        <time>2019-11-01T08:41:19Z</time>
      </trkpt>
      <trkpt lat="46.32094" lon="2.74633">
        <ele>372.9</ele>
        <time>2019-11-01T08:41:20Z</time>
      </trkpt>
      <trkpt lat="46.321" lon="2.74634">
        <ele>372.8</ele>
        <time>2019-11-01T08:41:21Z</time>
      </trkpt>
      <trkpt lat="46.32106" lon="2.74636">
        <ele>372.6</ele>
        <time>2019-11-01T08:41:22Z</time>
      </trkpt>
      <trkpt lat="46.32111" lon="2.74638">
        <ele>372.5</ele>
        <time>2019-11-01T08:41:23Z</time>
      </trkpt>
      <trkpt lat="46.32117" lon="2.7464">
        <ele>372.3</ele>
        <time>2019-11-01T08:41:24Z</time>
      </trkpt>
      <trkpt lat="46.32123" lon="2.74644">
        <ele>372</ele>
        <time>2019-11-01T08:41:25Z</time>
      </trkpt>
      <trkpt lat="46.32129" lon="2.74647">
        <ele>371.8</ele>
        <time>2019-11-01T08:41:26Z</time>
      </trkpt>
      <trkpt lat="46.32134" lon="2.74651">
        <ele>371.7</ele>
        <time>2019-11-01T08:41:27Z</time>
      </trkpt>
      <trkpt lat="46.3214" lon="2.74654">
        <ele>371.5</ele>
        <time>2019-11-01T08:41:28Z</time>
      </trkpt>
      <trkpt lat="46.32145" lon="2.74657">
        <ele>371.2</ele>
        <time>2019-11-01T08:41:29Z</time>
      </trkpt>
      <trkpt lat="46.32151" lon="2.7466">
        <ele>371.1</ele>
        <time>2019-11-01T08:41:30Z</time>
      </trkpt>
      <trkpt lat="46.32157" lon="2.74663">
        <ele>370.9</ele>
        <time>2019-11-01T08:41:31Z</time>
      </trkpt>
      <trkpt lat="46.32164" lon="2.74667">
        <ele>370.7</ele>
        <time>2019-11-01T08:41:32Z</time>
      </trkpt>
      <trkpt lat="46.32168" lon="2.7467">
        <ele>370.6</ele>
        <time>2019-11-01T08:41:33Z</time>
      </trkpt>
      <trkpt lat="46.32174" lon="2.74674">
        <ele>370.5</ele>
        <time>2019-11-01T08:41:34Z</time>
      </trkpt>
      <trkpt lat="46.3218" lon="2.74679">
        <ele>370.4</ele>
        <time>2019-11-01T08:41:35Z</time>
      </trkpt>
      <trkpt lat="46.32185" lon="2.74682">
        <ele>370.4</ele>
        <time>2019-11-01T08:41:36Z</time>
      </trkpt>
      <trkpt lat="46.32191" lon="2.74683">
        <ele>370.4</ele>
        <time>2019-11-01T08:41:37Z</time>
      </trkpt>
      <trkpt lat="46.32197" lon="2.74683">
        <ele>370.4</ele>
        <time>2019-11-01T08:41:38Z</time>
      </trkpt>
      <trkpt lat="46.32202" lon="2.74681">
        <ele>370.4</ele>
        <time>2019-11-01T08:41:39Z</time>
      </trkpt>
      <trkpt lat="46.32207" lon="2.74679">
        <ele>370.4</ele>
        <time>2019-11-01T08:41:40Z</time>
      </trkpt>
      <trkpt lat="46.32213" lon="2.74676">
        <ele>370.4</ele>
        <time>2019-11-01T08:41:41Z</time>
      </trkpt>
      <trkpt lat="46.32217" lon="2.74674">
        <ele>370.4</ele>
        <time>2019-11-01T08:41:42Z</time>
      </trkpt>
      <trkpt lat="46.32222" lon="2.74671">
        <ele>370.4</ele>
        <time>2019-11-01T08:41:43Z</time>
      </trkpt>
      <trkpt lat="46.32226" lon="2.7467">
        <ele>370.3</ele>
        <time>2019-11-01T08:41:44Z</time>
      </trkpt>
      <trkpt lat="46.32229" lon="2.74669">
        <ele>370.3</ele>
        <time>2019-11-01T08:41:45Z</time>
      </trkpt>
      <trkpt lat="46.32232" lon="2.74671">
        <ele>370.2</ele>
        <time>2019-11-01T08:41:46Z</time>
      </trkpt>
      <trkpt lat="46.32235" lon="2.74674">
        <ele>370.1</ele>
        <time>2019-11-01T08:41:47Z</time>
      </trkpt>
      <trkpt lat="46.32236" lon="2.74679">
        <ele>370.1</ele>
        <time>2019-11-01T08:41:48Z</time>
      </trkpt>
      <trkpt lat="46.32236" lon="2.74684">
        <ele>370</ele>
        <time>2019-11-01T08:41:49Z</time>
      </trkpt>
      <trkpt lat="46.32237" lon="2.7469">
        <ele>369.9</ele>
        <time>2019-11-01T08:41:50Z</time>
      </trkpt>
      <trkpt lat="46.32237" lon="2.74696">
        <ele>369.8</ele>
        <time>2019-11-01T08:41:51Z</time>
      </trkpt>
      <trkpt lat="46.32238" lon="2.74702">
        <ele>369.7</ele>
        <time>2019-11-01T08:41:52Z</time>
      </trkpt>
      <trkpt lat="46.32238" lon="2.74709">
        <ele>369.6</ele>
        <time>2019-11-01T08:41:53Z</time>
      </trkpt>
      <trkpt lat="46.32238" lon="2.74717">
        <ele>369.5</ele>
        <time>2019-11-01T08:41:54Z</time>
      </trkpt>
      <trkpt lat="46.32237" lon="2.74722">
        <ele>369.5</ele>
        <time>2019-11-01T08:41:55Z</time>
      </trkpt>
      <trkpt lat="46.32236" lon="2.74729">
        <ele>369.4</ele>
        <time>2019-11-01T08:41:56Z</time>
      </trkpt>
      <trkpt lat="46.32235" lon="2.74737">
        <ele>369.4</ele>
        <time>2019-11-01T08:41:57Z</time>
      </trkpt>
      <trkpt lat="46.32234" lon="2.74744">
        <ele>369.3</ele>
        <time>2019-11-01T08:41:58Z</time>
      </trkpt>
      <trkpt lat="46.32232" lon="2.74752">
        <ele>369.1</ele>
        <time>2019-11-01T08:41:59Z</time>
      </trkpt>
      <trkpt lat="46.32231" lon="2.74759">
        <ele>368.9</ele>
        <time>2019-11-01T08:42:00Z</time>
      </trkpt>
      <trkpt lat="46.32228" lon="2.74766">
        <ele>368.7</ele>
        <time>2019-11-01T08:42:01Z</time>
      </trkpt>
      <trkpt lat="46.32226" lon="2.74773">
        <ele>368.4</ele>
        <time>2019-11-01T08:42:02Z</time>
      </trkpt>
      <trkpt lat="46.32223" lon="2.74779">
        <ele>368.1</ele>
        <time>2019-11-01T08:42:03Z</time>
      </trkpt>
      <trkpt lat="46.32221" lon="2.74786">
        <ele>367.9</ele>
        <time>2019-11-01T08:42:04Z</time>
      </trkpt>
      <trkpt lat="46.32218" lon="2.74793">
        <ele>367.7</ele>
        <time>2019-11-01T08:42:05Z</time>
      </trkpt>
      <trkpt lat="46.32216" lon="2.748">
        <ele>367.5</ele>
        <time>2019-11-01T08:42:06Z</time>
      </trkpt>
      <trkpt lat="46.32213" lon="2.74807">
        <ele>367.3</ele>
        <time>2019-11-01T08:42:07Z</time>
      </trkpt>
      <trkpt lat="46.3221" lon="2.74814">
        <ele>367.2</ele>
        <time>2019-11-01T08:42:08Z</time>
      </trkpt>
      <trkpt lat="46.32207" lon="2.74822">
        <ele>367</ele>
        <time>2019-11-01T08:42:09Z</time>
      </trkpt>
      <trkpt lat="46.32204" lon="2.74831">
        <ele>366.8</ele>
        <time>2019-11-01T08:42:10Z</time>
      </trkpt>
      <trkpt lat="46.32202" lon="2.7484">
        <ele>366.7</ele>
        <time>2019-11-01T08:42:11Z</time>
      </trkpt>
      <trkpt lat="46.32201" lon="2.74849">
        <ele>366.5</ele>
        <time>2019-11-01T08:42:12Z</time>
      </trkpt>
      <trkpt lat="46.322" lon="2.74859">
        <ele>366.4</ele>
        <time>2019-11-01T08:42:13Z</time>
      </trkpt>
      <trkpt lat="46.32199" lon="2.74869">
        <ele>366.4</ele>
        <time>2019-11-01T08:42:14Z</time>
      </trkpt>
      <trkpt lat="46.32197" lon="2.74879">
        <ele>366.3</ele>
        <time>2019-11-01T08:42:15Z</time>
      </trkpt>
      <trkpt lat="46.32195" lon="2.74888">
        <ele>366.2</ele>
        <time>2019-11-01T08:42:16Z</time>
      </trkpt>
      <trkpt lat="46.32193" lon="2.74898">
        <ele>366.1</ele>
        <time>2019-11-01T08:42:17Z</time>
      </trkpt>
      <trkpt lat="46.32191" lon="2.74907">
        <ele>365.9</ele>
        <time>2019-11-01T08:42:18Z</time>
      </trkpt>
      <trkpt lat="46.32188" lon="2.74916">
        <ele>365.7</ele>
        <time>2019-11-01T08:42:19Z</time>
      </trkpt>
      <trkpt lat="46.32185" lon="2.74926">
        <ele>365.4</ele>
        <time>2019-11-01T08:42:20Z</time>
      </trkpt>
      <trkpt lat="46.32183" lon="2.74934">
        <ele>365.1</ele>
        <time>2019-11-01T08:42:21Z</time>
      </trkpt>
      <trkpt lat="46.3218" lon="2.74943">
        <ele>364.8</ele>
        <time>2019-11-01T08:42:22Z</time>
      </trkpt>
      <trkpt lat="46.32179" lon="2.74952">
        <ele>364.5</ele>
        <time>2019-11-01T08:42:23Z</time>
      </trkpt>
      <trkpt lat="46.32177" lon="2.7496">
        <ele>364</ele>
        <time>2019-11-01T08:42:24Z</time>
      </trkpt>
      <trkpt lat="46.32175" lon="2.74969">
        <ele>363.5</ele>
        <time>2019-11-01T08:42:25Z</time>
      </trkpt>
      <trkpt lat="46.32174" lon="2.74978">
        <ele>363.1</ele>
        <time>2019-11-01T08:42:26Z</time>
      </trkpt>
      <trkpt lat="46.32172" lon="2.74986">
        <ele>362.6</ele>
        <time>2019-11-01T08:42:27Z</time>
      </trkpt>
      <trkpt lat="46.32168" lon="2.74994">
        <ele>362.1</ele>
        <time>2019-11-01T08:42:28Z</time>
      </trkpt>
      <trkpt lat="46.32164" lon="2.75001">
        <ele>361.4</ele>
        <time>2019-11-01T08:42:29Z</time>
      </trkpt>
      <trkpt lat="46.32159" lon="2.75008">
        <ele>360.5</ele>
        <time>2019-11-01T08:42:30Z</time>
      </trkpt>
      <trkpt lat="46.32154" lon="2.75016">
        <ele>359.8</ele>
        <time>2019-11-01T08:42:31Z</time>
      </trkpt>
      <trkpt lat="46.32149" lon="2.75023">
        <ele>359.2</ele>
        <time>2019-11-01T08:42:32Z</time>
      </trkpt>
      <trkpt lat="46.32143" lon="2.75029">
        <ele>358.4</ele>
        <time>2019-11-01T08:42:33Z</time>
      </trkpt>
      <trkpt lat="46.32137" lon="2.75034">
        <ele>357.5</ele>
        <time>2019-11-01T08:42:34Z</time>
      </trkpt>
      <trkpt lat="46.32131" lon="2.7504">
        <ele>356.6</ele>
        <time>2019-11-01T08:42:35Z</time>
      </trkpt>
      <trkpt lat="46.32123" lon="2.75045">
        <ele>355.8</ele>
        <time>2019-11-01T08:42:36Z</time>
      </trkpt>
      <trkpt lat="46.32115" lon="2.7505">
        <ele>355.2</ele>
        <time>2019-11-01T08:42:37Z</time>
      </trkpt>
      <trkpt lat="46.32106" lon="2.75055">
        <ele>354.4</ele>
        <time>2019-11-01T08:42:38Z</time>
      </trkpt>
      <trkpt lat="46.32098" lon="2.75059">
        <ele>353.6</ele>
        <time>2019-11-01T08:42:39Z</time>
      </trkpt>
      <trkpt lat="46.3209" lon="2.75064">
        <ele>353</ele>
        <time>2019-11-01T08:42:40Z</time>
      </trkpt>
      <trkpt lat="46.32082" lon="2.7507">
        <ele>352.3</ele>
        <time>2019-11-01T08:42:41Z</time>
      </trkpt>
      <trkpt lat="46.32075" lon="2.75077">
        <ele>351.4</ele>
        <time>2019-11-01T08:42:42Z</time>
      </trkpt>
      <trkpt lat="46.32068" lon="2.75084">
        <ele>350.6</ele>
        <time>2019-11-01T08:42:43Z</time>
      </trkpt>
      <trkpt lat="46.32061" lon="2.75091">
        <ele>349.7</ele>
        <time>2019-11-01T08:42:44Z</time>
      </trkpt>
      <trkpt lat="46.32055" lon="2.75099">
        <ele>348.8</ele>
        <time>2019-11-01T08:42:45Z</time>
      </trkpt>
      <trkpt lat="46.32048" lon="2.75109">
        <ele>347.9</ele>
        <time>2019-11-01T08:42:46Z</time>
      </trkpt>
      <trkpt lat="46.32043" lon="2.75118">
        <ele>347.2</ele>
        <time>2019-11-01T08:42:47Z</time>
      </trkpt>
      <trkpt lat="46.32037" lon="2.75127">
        <ele>346.4</ele>
        <time>2019-11-01T08:42:48Z</time>
      </trkpt>
      <trkpt lat="46.32032" lon="2.75135">
        <ele>345.5</ele>
        <time>2019-11-01T08:42:49Z</time>
      </trkpt>
      <trkpt lat="46.32027" lon="2.75145">
        <ele>345</ele>
        <time>2019-11-01T08:42:50Z</time>
      </trkpt>
      <trkpt lat="46.32022" lon="2.75154">
        <ele>344.5</ele>
        <time>2019-11-01T08:42:51Z</time>
      </trkpt>
      <trkpt lat="46.32017" lon="2.75164">
        <ele>344</ele>
        <time>2019-11-01T08:42:52Z</time>
      </trkpt>
      <trkpt lat="46.32012" lon="2.75174">
        <ele>343.3</ele>
        <time>2019-11-01T08:42:53Z</time>
      </trkpt>
      <trkpt lat="46.32008" lon="2.75184">
        <ele>342.4</ele>
        <time>2019-11-01T08:42:54Z</time>
      </trkpt>
      <trkpt lat="46.32003" lon="2.75195">
        <ele>341.5</ele>
        <time>2019-11-01T08:42:55Z</time>
      </trkpt>
      <trkpt lat="46.31999" lon="2.75206">
        <ele>340.8</ele>
        <time>2019-11-01T08:42:56Z</time>
      </trkpt>
      <trkpt lat="46.31995" lon="2.75216">
        <ele>340</ele>
        <time>2019-11-01T08:42:57Z</time>
      </trkpt>
      <trkpt lat="46.31992" lon="2.75226">
        <ele>339.4</ele>
        <time>2019-11-01T08:42:58Z</time>
      </trkpt>
      <trkpt lat="46.31988" lon="2.75237">
        <ele>338.9</ele>
        <time>2019-11-01T08:42:59Z</time>
      </trkpt>
      <trkpt lat="46.31985" lon="2.75248">
        <ele>338.3</ele>
        <time>2019-11-01T08:43:00Z</time>
      </trkpt>
      <trkpt lat="46.31983" lon="2.7526">
        <ele>337.7</ele>
        <time>2019-11-01T08:43:01Z</time>
      </trkpt>
      <trkpt lat="46.31981" lon="2.75272">
        <ele>337</ele>
        <time>2019-11-01T08:43:02Z</time>
      </trkpt>
      <trkpt lat="46.31979" lon="2.75284">
        <ele>336.4</ele>
        <time>2019-11-01T08:43:03Z</time>
      </trkpt>
      <trkpt lat="46.31978" lon="2.75296">
        <ele>335.9</ele>
        <time>2019-11-01T08:43:04Z</time>
      </trkpt>
      <trkpt lat="46.31977" lon="2.75308">
        <ele>335.5</ele>
        <time>2019-11-01T08:43:05Z</time>
      </trkpt>
      <trkpt lat="46.31976" lon="2.75319">
        <ele>335.1</ele>
        <time>2019-11-01T08:43:06Z</time>
      </trkpt>
      <trkpt lat="46.31975" lon="2.7533">
        <ele>334.9</ele>
        <time>2019-11-01T08:43:07Z</time>
      </trkpt>
      <trkpt lat="46.31974" lon="2.7534">
        <ele>334.6</ele>
        <time>2019-11-01T08:43:08Z</time>
      </trkpt>
      <trkpt lat="46.31971" lon="2.75351">
        <ele>334.4</ele>
        <time>2019-11-01T08:43:09Z</time>
      </trkpt>
      <trkpt lat="46.31968" lon="2.7536">
        <ele>334.2</ele>
        <time>2019-11-01T08:43:10Z</time>
      </trkpt>
      <trkpt lat="46.31963" lon="2.75369">
        <ele>334.1</ele>
        <time>2019-11-01T08:43:11Z</time>
      </trkpt>
      <trkpt lat="46.31958" lon="2.75377">
        <ele>334</ele>
        <time>2019-11-01T08:43:12Z</time>
      </trkpt>
      <trkpt lat="46.31953" lon="2.75384">
        <ele>333.9</ele>
        <time>2019-11-01T08:43:13Z</time>
      </trkpt>
      <trkpt lat="46.31947" lon="2.75392">
        <ele>333.8</ele>
        <time>2019-11-01T08:43:14Z</time>
      </trkpt>
      <trkpt lat="46.31942" lon="2.75399">
        <ele>333.8</ele>
        <time>2019-11-01T08:43:15Z</time>
      </trkpt>
      <trkpt lat="46.31937" lon="2.75406">
        <ele>333.8</ele>
        <time>2019-11-01T08:43:16Z</time>
      </trkpt>
      <trkpt lat="46.31931" lon="2.75414">
        <ele>333.8</ele>
        <time>2019-11-01T08:43:17Z</time>
      </trkpt>
      <trkpt lat="46.31925" lon="2.75421">
        <ele>333.7</ele>
        <time>2019-11-01T08:43:18Z</time>
      </trkpt>
      <trkpt lat="46.31918" lon="2.75427">
        <ele>333.7</ele>
        <time>2019-11-01T08:43:19Z</time>
      </trkpt>
      <trkpt lat="46.31912" lon="2.75433">
        <ele>333.7</ele>
        <time>2019-11-01T08:43:20Z</time>
      </trkpt>
      <trkpt lat="46.31906" lon="2.75438">
        <ele>333.7</ele>
        <time>2019-11-01T08:43:21Z</time>
      </trkpt>
      <trkpt lat="46.319" lon="2.75444">
        <ele>333.7</ele>
        <time>2019-11-01T08:43:22Z</time>
      </trkpt>
      <trkpt lat="46.31894" lon="2.7545">
        <ele>333.7</ele>
        <time>2019-11-01T08:43:23Z</time>
      </trkpt>
      <trkpt lat="46.31888" lon="2.75456">
        <ele>333.7</ele>
        <time>2019-11-01T08:43:24Z</time>
      </trkpt>
      <trkpt lat="46.31883" lon="2.75462">
        <ele>333.7</ele>
        <time>2019-11-01T08:43:25Z</time>
      </trkpt>
      <trkpt lat="46.31878" lon="2.75468">
        <ele>333.7</ele>
        <time>2019-11-01T08:43:26Z</time>
      </trkpt>
      <trkpt lat="46.31873" lon="2.75474">
        <ele>333.6</ele>
        <time>2019-11-01T08:43:27Z</time>
      </trkpt>
      <trkpt lat="46.31869" lon="2.7548">
        <ele>333.6</ele>
        <time>2019-11-01T08:43:28Z</time>
      </trkpt>
      <trkpt lat="46.31866" lon="2.75486">
        <ele>333.6</ele>
        <time>2019-11-01T08:43:29Z</time>
      </trkpt>
      <trkpt lat="46.31863" lon="2.75491">
        <ele>333.6</ele>
        <time>2019-11-01T08:43:30Z</time>
      </trkpt>
      <trkpt lat="46.31859" lon="2.75495">
        <ele>333.6</ele>
        <time>2019-11-01T08:43:31Z</time>
      </trkpt>
      <trkpt lat="46.31856" lon="2.75498">
        <ele>333.6</ele>
        <time>2019-11-01T08:43:32Z</time>
      </trkpt>
      <trkpt lat="46.31854" lon="2.755">
        <ele>333.6</ele>
        <time>2019-11-01T08:43:33Z</time>
      </trkpt>
      <trkpt lat="46.31852" lon="2.75502">
        <ele>333.6</ele>
        <time>2019-11-01T08:43:34Z</time>
      </trkpt>
      <trkpt lat="46.31851" lon="2.75504">
        <ele>333.6</ele>
        <time>2019-11-01T08:43:35Z</time>
      </trkpt>
      <trkpt lat="46.31851" lon="2.75506">
        <ele>333.7</ele>
        <time>2019-11-01T08:43:36Z</time>
      </trkpt>
      <trkpt lat="46.31852" lon="2.75509">
        <ele>333.7</ele>
        <time>2019-11-01T08:43:37Z</time>
      </trkpt>
      <trkpt lat="46.31852" lon="2.75512">
        <ele>333.7</ele>
        <time>2019-11-01T08:43:38Z</time>
      </trkpt>
      <trkpt lat="46.31853" lon="2.75515">
        <ele>333.7</ele>
        <time>2019-11-01T08:43:39Z</time>
      </trkpt>
      <trkpt lat="46.31853" lon="2.75518">
        <ele>333.7</ele>
        <time>2019-11-01T08:43:40Z</time>
      </trkpt>
      <trkpt lat="46.31853" lon="2.75521">
        <ele>333.7</ele>
        <time>2019-11-01T08:43:41Z</time>
      </trkpt>
      <trkpt lat="46.31854" lon="2.75524">
        <ele>333.5</ele>
        <time>2019-11-01T08:43:42Z</time>
      </trkpt>
      <trkpt lat="46.31854" lon="2.75526">
        <ele>333.5</ele>
        <time>2019-11-01T08:43:43Z</time>
      </trkpt>
      <trkpt lat="46.31854" lon="2.75528">
        <ele>333.4</ele>
        <time>2019-11-01T08:43:44Z</time>
      </trkpt>
      <trkpt lat="46.31855" lon="2.7553">
        <ele>333.4</ele>
        <time>2019-11-01T08:43:45Z</time>
      </trkpt>
      <trkpt lat="46.31855" lon="2.75532">
        <ele>333.4</ele>
        <time>2019-11-01T08:43:46Z</time>
      </trkpt>
      <trkpt lat="46.31855" lon="2.75535">
        <ele>333.4</ele>
        <time>2019-11-01T08:43:47Z</time>
      </trkpt>
      <trkpt lat="46.31856" lon="2.75537">
        <ele>333.3</ele>
        <time>2019-11-01T08:43:48Z</time>
      </trkpt>
      <trkpt lat="46.31856" lon="2.7554">
        <ele>333.3</ele>
        <time>2019-11-01T08:43:49Z</time>
      </trkpt>
      <trkpt lat="46.31857" lon="2.75543">
        <ele>333.3</ele>
        <time>2019-11-01T08:43:50Z</time>
      </trkpt>
      <trkpt lat="46.31858" lon="2.75547">
        <ele>333.2</ele>
        <time>2019-11-01T08:43:51Z</time>
      </trkpt>
      <trkpt lat="46.31859" lon="2.7555">
        <ele>333.2</ele>
        <time>2019-11-01T08:43:52Z</time>
      </trkpt>
      <trkpt lat="46.3186" lon="2.75554">
        <ele>333.1</ele>
        <time>2019-11-01T08:43:53Z</time>
      </trkpt>
      <trkpt lat="46.31861" lon="2.75557">
        <ele>333.1</ele>
        <time>2019-11-01T08:43:54Z</time>
      </trkpt>
      <trkpt lat="46.31863" lon="2.7556">
        <ele>333</ele>
        <time>2019-11-01T08:43:55Z</time>
      </trkpt>
      <trkpt lat="46.31865" lon="2.75563">
        <ele>333</ele>
        <time>2019-11-01T08:43:56Z</time>
      </trkpt>
      <trkpt lat="46.31867" lon="2.75564">
        <ele>332.9</ele>
        <time>2019-11-01T08:43:57Z</time>
      </trkpt>
      <trkpt lat="46.31869" lon="2.75564">
        <ele>332.9</ele>
        <time>2019-11-01T08:43:58Z</time>
      </trkpt>
      <trkpt lat="46.31872" lon="2.75564">
        <ele>332.8</ele>
        <time>2019-11-01T08:43:59Z</time>
      </trkpt>
      <trkpt lat="46.31874" lon="2.75562">
        <ele>332.8</ele>
        <time>2019-11-01T08:44:00Z</time>
      </trkpt>
      <trkpt lat="46.31878" lon="2.75559">
        <ele>332.8</ele>
        <time>2019-11-01T08:44:01Z</time>
      </trkpt>
      <trkpt lat="46.31881" lon="2.75557">
        <ele>332.8</ele>
        <time>2019-11-01T08:44:02Z</time>
      </trkpt>
      <trkpt lat="46.31884" lon="2.75556">
        <ele>332.8</ele>
        <time>2019-11-01T08:44:03Z</time>
      </trkpt>
      <trkpt lat="46.31887" lon="2.75555">
        <ele>332.8</ele>
        <time>2019-11-01T08:44:04Z</time>
      </trkpt>
      <trkpt lat="46.3189" lon="2.75553">
        <ele>332.7</ele>
        <time>2019-11-01T08:44:05Z</time>
      </trkpt>
      <trkpt lat="46.31894" lon="2.75552">
        <ele>332.7</ele>
        <time>2019-11-01T08:44:06Z</time>
      </trkpt>
      <trkpt lat="46.31897" lon="2.75551">
        <ele>332.6</ele>
        <time>2019-11-01T08:44:07Z</time>
      </trkpt>
      <trkpt lat="46.31901" lon="2.75551">
        <ele>332.6</ele>
        <time>2019-11-01T08:44:08Z</time>
      </trkpt>
      <trkpt lat="46.31905" lon="2.7555">
        <ele>332.6</ele>
        <time>2019-11-01T08:44:09Z</time>
      </trkpt>
      <trkpt lat="46.31909" lon="2.7555">
        <ele>332.6</ele>
        <time>2019-11-01T08:44:10Z</time>
      </trkpt>
      <trkpt lat="46.31914" lon="2.75551">
        <ele>332.5</ele>
        <time>2019-11-01T08:44:11Z</time>
      </trkpt>
      <trkpt lat="46.31918" lon="2.75551">
        <ele>332.6</ele>
        <time>2019-11-01T08:44:12Z</time>
      </trkpt>
      <trkpt lat="46.31923" lon="2.75551">
        <ele>332.6</ele>
        <time>2019-11-01T08:44:13Z</time>
      </trkpt>
      <trkpt lat="46.31928" lon="2.75552">
        <ele>332.6</ele>
        <time>2019-11-01T08:44:14Z</time>
      </trkpt>
      <trkpt lat="46.31933" lon="2.75553">
        <ele>332.6</ele>
        <time>2019-11-01T08:44:15Z</time>
      </trkpt>
      <trkpt lat="46.31937" lon="2.75554">
        <ele>332.7</ele>
        <time>2019-11-01T08:44:16Z</time>
      </trkpt>
      <trkpt lat="46.31942" lon="2.75555">
        <ele>332.8</ele>
        <time>2019-11-01T08:44:17Z</time>
      </trkpt>
      <trkpt lat="46.31947" lon="2.75557">
        <ele>332.8</ele>
        <time>2019-11-01T08:44:18Z</time>
      </trkpt>
      <trkpt lat="46.31951" lon="2.7556">
        <ele>332.8</ele>
        <time>2019-11-01T08:44:19Z</time>
      </trkpt>
      <trkpt lat="46.31954" lon="2.75565">
        <ele>332.9</ele>
        <time>2019-11-01T08:44:20Z</time>
      </trkpt>
      <trkpt lat="46.31957" lon="2.75571">
        <ele>332.9</ele>
        <time>2019-11-01T08:44:21Z</time>
      </trkpt>
      <trkpt lat="46.31959" lon="2.75577">
        <ele>332.9</ele>
        <time>2019-11-01T08:44:22Z</time>
      </trkpt>
      <trkpt lat="46.31961" lon="2.75583">
        <ele>332.9</ele>
        <time>2019-11-01T08:44:23Z</time>
      </trkpt>
      <trkpt lat="46.31963" lon="2.7559">
        <ele>332.9</ele>
        <time>2019-11-01T08:44:24Z</time>
      </trkpt>
      <trkpt lat="46.31965" lon="2.75597">
        <ele>332.9</ele>
        <time>2019-11-01T08:44:25Z</time>
      </trkpt>
      <trkpt lat="46.31966" lon="2.75603">
        <ele>332.9</ele>
        <time>2019-11-01T08:44:26Z</time>
      </trkpt>
      <trkpt lat="46.31968" lon="2.7561">
        <ele>333</ele>
        <time>2019-11-01T08:44:27Z</time>
      </trkpt>
      <trkpt lat="46.3197" lon="2.75616">
        <ele>333</ele>
        <time>2019-11-01T08:44:28Z</time>
      </trkpt>
      <trkpt lat="46.31972" lon="2.75623">
        <ele>333</ele>
        <time>2019-11-01T08:44:29Z</time>
      </trkpt>
      <trkpt lat="46.31974" lon="2.75629">
        <ele>333.1</ele>
        <time>2019-11-01T08:44:30Z</time>
      </trkpt>
      <trkpt lat="46.31976" lon="2.75635">
        <ele>333.2</ele>
        <time>2019-11-01T08:44:31Z</time>
      </trkpt>
      <trkpt lat="46.31978" lon="2.75642">
        <ele>333.2</ele>
        <time>2019-11-01T08:44:32Z</time>
      </trkpt>
      <trkpt lat="46.3198" lon="2.75648">
        <ele>333.3</ele>
        <time>2019-11-01T08:44:33Z</time>
      </trkpt>
      <trkpt lat="46.31982" lon="2.75655">
        <ele>333.4</ele>
        <time>2019-11-01T08:44:34Z</time>
      </trkpt>
      <trkpt lat="46.31983" lon="2.75661">
        <ele>333.5</ele>
        <time>2019-11-01T08:44:35Z</time>
      </trkpt>
      <trkpt lat="46.31984" lon="2.75668">
        <ele>333.6</ele>
        <time>2019-11-01T08:44:36Z</time>
      </trkpt>
      <trkpt lat="46.31986" lon="2.75674">
        <ele>333.7</ele>
        <time>2019-11-01T08:44:37Z</time>
      </trkpt>
      <trkpt lat="46.31987" lon="2.7568">
        <ele>333.8</ele>
        <time>2019-11-01T08:44:38Z</time>
      </trkpt>
      <trkpt lat="46.31988" lon="2.75687">
        <ele>333.9</ele>
        <time>2019-11-01T08:44:39Z</time>
      </trkpt>
      <trkpt lat="46.31989" lon="2.75693">
        <ele>334</ele>
        <time>2019-11-01T08:44:40Z</time>
      </trkpt>
      <trkpt lat="46.3199" lon="2.75699">
        <ele>334.1</ele>
        <time>2019-11-01T08:44:41Z</time>
      </trkpt>
      <trkpt lat="46.31991" lon="2.75705">
        <ele>334.3</ele>
        <time>2019-11-01T08:44:42Z</time>
      </trkpt>
      <trkpt lat="46.31992" lon="2.75711">
        <ele>334.5</ele>
        <time>2019-11-01T08:44:43Z</time>
      </trkpt>
      <trkpt lat="46.31993" lon="2.75716">
        <ele>334.6</ele>
        <time>2019-11-01T08:44:44Z</time>
      </trkpt>
      <trkpt lat="46.31994" lon="2.75722">
        <ele>334.9</ele>
        <time>2019-11-01T08:44:45Z</time>
      </trkpt>
      <trkpt lat="46.31994" lon="2.75727">
        <ele>335</ele>
        <time>2019-11-01T08:44:46Z</time>
      </trkpt>
      <trkpt lat="46.31995" lon="2.75733">
        <ele>335.2</ele>
        <time>2019-11-01T08:44:47Z</time>
      </trkpt>
      <trkpt lat="46.31996" lon="2.75737">
        <ele>335.4</ele>
        <time>2019-11-01T08:44:48Z</time>
      </trkpt>
      <trkpt lat="46.31996" lon="2.75742">
        <ele>335.5</ele>
        <time>2019-11-01T08:44:49Z</time>
      </trkpt>
      <trkpt lat="46.31997" lon="2.75746">
        <ele>335.8</ele>
        <time>2019-11-01T08:44:50Z</time>
      </trkpt>
      <trkpt lat="46.31998" lon="2.75751">
        <ele>336</ele>
        <time>2019-11-01T08:44:51Z</time>
      </trkpt>
      <trkpt lat="46.31998" lon="2.75756">
        <ele>336.2</ele>
        <time>2019-11-01T08:44:52Z</time>
      </trkpt>
      <trkpt lat="46.31999" lon="2.7576">
        <ele>336.4</ele>
        <time>2019-11-01T08:44:53Z</time>
      </trkpt>
      <trkpt lat="46.31999" lon="2.75765">
        <ele>336.6</ele>
        <time>2019-11-01T08:44:54Z</time>
      </trkpt>
      <trkpt lat="46.31998" lon="2.7577">
        <ele>336.8</ele>
        <time>2019-11-01T08:44:55Z</time>
      </trkpt>
      <trkpt lat="46.31998" lon="2.75775">
        <ele>337</ele>
        <time>2019-11-01T08:44:56Z</time>
      </trkpt>
      <trkpt lat="46.31998" lon="2.7578">
        <ele>337.2</ele>
        <time>2019-11-01T08:44:57Z</time>
      </trkpt>
      <trkpt lat="46.31998" lon="2.75785">
        <ele>337.4</ele>
        <time>2019-11-01T08:44:58Z</time>
      </trkpt>
      <trkpt lat="46.31997" lon="2.75791">
        <ele>337.5</ele>
        <time>2019-11-01T08:44:59Z</time>
      </trkpt>
      <trkpt lat="46.31997" lon="2.75796">
        <ele>337.7</ele>
        <time>2019-11-01T08:45:00Z</time>
      </trkpt>
      <trkpt lat="46.31996" lon="2.75802">
        <ele>337.9</ele>
        <time>2019-11-01T08:45:01Z</time>
      </trkpt>
      <trkpt lat="46.31996" lon="2.75807">
        <ele>338.1</ele>
        <time>2019-11-01T08:45:02Z</time>
      </trkpt>
      <trkpt lat="46.31996" lon="2.75812">
        <ele>338.2</ele>
        <time>2019-11-01T08:45:03Z</time>
      </trkpt>
      <trkpt lat="46.31996" lon="2.75817">
        <ele>338.4</ele>
        <time>2019-11-01T08:45:04Z</time>
      </trkpt>
      <trkpt lat="46.31996" lon="2.75823">
        <ele>338.5</ele>
        <time>2019-11-01T08:45:05Z</time>
      </trkpt>
      <trkpt lat="46.31996" lon="2.75828">
        <ele>338.7</ele>
        <time>2019-11-01T08:45:06Z</time>
      </trkpt>
      <trkpt lat="46.31996" lon="2.75834">
        <ele>338.8</ele>
        <time>2019-11-01T08:45:07Z</time>
      </trkpt>
      <trkpt lat="46.31997" lon="2.75839">
        <ele>339</ele>
        <time>2019-11-01T08:45:08Z</time>
      </trkpt>
      <trkpt lat="46.31997" lon="2.75845">
        <ele>339.1</ele>
        <time>2019-11-01T08:45:09Z</time>
      </trkpt>
      <trkpt lat="46.31998" lon="2.7585">
        <ele>339.2</ele>
        <time>2019-11-01T08:45:10Z</time>
      </trkpt>
      <trkpt lat="46.31998" lon="2.75856">
        <ele>339.4</ele>
        <time>2019-11-01T08:45:11Z</time>
      </trkpt>
      <trkpt lat="46.31999" lon="2.75862">
        <ele>339.5</ele>
        <time>2019-11-01T08:45:12Z</time>
      </trkpt>
      <trkpt lat="46.32" lon="2.75867">
        <ele>339.7</ele>
        <time>2019-11-01T08:45:13Z</time>
      </trkpt>
      <trkpt lat="46.32001" lon="2.75873">
        <ele>339.8</ele>
        <time>2019-11-01T08:45:14Z</time>
      </trkpt>
      <trkpt lat="46.32001" lon="2.75879">
        <ele>339.9</ele>
        <time>2019-11-01T08:45:15Z</time>
      </trkpt>
      <trkpt lat="46.32002" lon="2.75886">
        <ele>340.1</ele>
        <time>2019-11-01T08:45:16Z</time>
      </trkpt>
      <trkpt lat="46.32003" lon="2.75892">
        <ele>340.3</ele>
        <time>2019-11-01T08:45:17Z</time>
      </trkpt>
      <trkpt lat="46.32004" lon="2.75899">
        <ele>340.4</ele>
        <time>2019-11-01T08:45:18Z</time>
      </trkpt>
      <trkpt lat="46.32005" lon="2.75906">
        <ele>340.5</ele>
        <time>2019-11-01T08:45:19Z</time>
      </trkpt>
      <trkpt lat="46.32005" lon="2.75912">
        <ele>340.6</ele>
        <time>2019-11-01T08:45:20Z</time>
      </trkpt>
      <trkpt lat="46.32006" lon="2.75919">
        <ele>340.7</ele>
        <time>2019-11-01T08:45:21Z</time>
      </trkpt>
      <trkpt lat="46.32007" lon="2.75926">
        <ele>340.8</ele>
        <time>2019-11-01T08:45:22Z</time>
      </trkpt>
      <trkpt lat="46.32008" lon="2.75932">
        <ele>341.1</ele>
        <time>2019-11-01T08:45:23Z</time>
      </trkpt>
      <trkpt lat="46.32009" lon="2.75939">
        <ele>341.2</ele>
        <time>2019-11-01T08:45:24Z</time>
      </trkpt>
      <trkpt lat="46.3201" lon="2.75945">
        <ele>341.3</ele>
        <time>2019-11-01T08:45:25Z</time>
      </trkpt>
      <trkpt lat="46.32011" lon="2.75952">
        <ele>341.5</ele>
        <time>2019-11-01T08:45:26Z</time>
      </trkpt>
      <trkpt lat="46.32013" lon="2.75958">
        <ele>341.6</ele>
        <time>2019-11-01T08:45:27Z</time>
      </trkpt>
      <trkpt lat="46.32015" lon="2.75965">
        <ele>341.7</ele>
        <time>2019-11-01T08:45:28Z</time>
      </trkpt>
      <trkpt lat="46.32016" lon="2.75971">
        <ele>341.8</ele>
        <time>2019-11-01T08:45:29Z</time>
      </trkpt>
      <trkpt lat="46.32018" lon="2.75977">
        <ele>341.9</ele>
        <time>2019-11-01T08:45:30Z</time>
      </trkpt>
      <trkpt lat="46.3202" lon="2.75983">
        <ele>342</ele>
        <time>2019-11-01T08:45:31Z</time>
      </trkpt>
      <trkpt lat="46.32022" lon="2.75988">
        <ele>342.1</ele>
        <time>2019-11-01T08:45:32Z</time>
      </trkpt>
      <trkpt lat="46.32024" lon="2.75993">
        <ele>342.3</ele>
        <time>2019-11-01T08:45:33Z</time>
      </trkpt>
      <trkpt lat="46.32026" lon="2.75999">
        <ele>342.4</ele>
        <time>2019-11-01T08:45:34Z</time>
      </trkpt>
      <trkpt lat="46.32028" lon="2.76003">
        <ele>342.5</ele>
        <time>2019-11-01T08:45:35Z</time>
      </trkpt>
      <trkpt lat="46.3203" lon="2.76008">
        <ele>342.7</ele>
        <time>2019-11-01T08:45:36Z</time>
      </trkpt>
      <trkpt lat="46.32031" lon="2.76012">
        <ele>342.8</ele>
        <time>2019-11-01T08:45:37Z</time>
      </trkpt>
      <trkpt lat="46.32033" lon="2.76016">
        <ele>343</ele>
        <time>2019-11-01T08:45:38Z</time>
      </trkpt>
      <trkpt lat="46.32034" lon="2.7602">
        <ele>343.1</ele>
        <time>2019-11-01T08:45:39Z</time>
      </trkpt>
      <trkpt lat="46.32036" lon="2.76024">
        <ele>343.3</ele>
        <time>2019-11-01T08:45:40Z</time>
      </trkpt>
      <trkpt lat="46.32037" lon="2.76029">
        <ele>343.4</ele>
        <time>2019-11-01T08:45:41Z</time>
      </trkpt>
      <trkpt lat="46.32038" lon="2.76033">
        <ele>343.6</ele>
        <time>2019-11-01T08:45:42Z</time>
      </trkpt>
      <trkpt lat="46.32039" lon="2.76037">
        <ele>343.8</ele>
        <time>2019-11-01T08:45:43Z</time>
      </trkpt>
      <trkpt lat="46.32041" lon="2.76041">
        <ele>344</ele>
        <time>2019-11-01T08:45:44Z</time>
      </trkpt>
      <trkpt lat="46.32043" lon="2.76045">
        <ele>344.1</ele>
        <time>2019-11-01T08:45:45Z</time>
      </trkpt>
      <trkpt lat="46.32045" lon="2.76049">
        <ele>344.3</ele>
        <time>2019-11-01T08:45:46Z</time>
      </trkpt>
      <trkpt lat="46.32046" lon="2.76053">
        <ele>344.5</ele>
        <time>2019-11-01T08:45:47Z</time>
      </trkpt>
      <trkpt lat="46.32048" lon="2.76057">
        <ele>344.7</ele>
        <time>2019-11-01T08:45:48Z</time>
      </trkpt>
      <trkpt lat="46.32049" lon="2.76061">
        <ele>344.9</ele>
        <time>2019-11-01T08:45:49Z</time>
      </trkpt>
      <trkpt lat="46.3205" lon="2.76064">
        <ele>345.1</ele>
        <time>2019-11-01T08:45:50Z</time>
      </trkpt>
      <trkpt lat="46.32052" lon="2.76068">
        <ele>345.2</ele>
        <time>2019-11-01T08:45:51Z</time>
      </trkpt>
      <trkpt lat="46.32053" lon="2.76072">
        <ele>345.4</ele>
        <time>2019-11-01T08:45:52Z</time>
      </trkpt>
      <trkpt lat="46.32055" lon="2.76075">
        <ele>345.6</ele>
        <time>2019-11-01T08:45:53Z</time>
      </trkpt>
      <trkpt lat="46.32057" lon="2.76078">
        <ele>345.8</ele>
        <time>2019-11-01T08:45:54Z</time>
      </trkpt>
      <trkpt lat="46.32059" lon="2.76081">
        <ele>346</ele>
        <time>2019-11-01T08:45:55Z</time>
      </trkpt>
      <trkpt lat="46.32061" lon="2.76085">
        <ele>346.2</ele>
        <time>2019-11-01T08:45:56Z</time>
      </trkpt>
      <trkpt lat="46.32062" lon="2.76088">
        <ele>346.4</ele>
        <time>2019-11-01T08:45:57Z</time>
      </trkpt>
      <trkpt lat="46.32064" lon="2.76092">
        <ele>346.6</ele>
        <time>2019-11-01T08:45:58Z</time>
      </trkpt>
      <trkpt lat="46.32067" lon="2.76095">
        <ele>346.8</ele>
        <time>2019-11-01T08:45:59Z</time>
      </trkpt>
      <trkpt lat="46.32069" lon="2.76098">
        <ele>347.1</ele>
        <time>2019-11-01T08:46:00Z</time>
      </trkpt>
      <trkpt lat="46.32072" lon="2.76101">
        <ele>347.4</ele>
        <time>2019-11-01T08:46:01Z</time>
      </trkpt>
      <trkpt lat="46.32074" lon="2.76104">
        <ele>347.7</ele>
        <time>2019-11-01T08:46:02Z</time>
      </trkpt>
      <trkpt lat="46.32077" lon="2.76107">
        <ele>347.9</ele>
        <time>2019-11-01T08:46:03Z</time>
      </trkpt>
      <trkpt lat="46.3208" lon="2.7611">
        <ele>348.2</ele>
        <time>2019-11-01T08:46:04Z</time>
      </trkpt>
      <trkpt lat="46.32083" lon="2.76113">
        <ele>348.5</ele>
        <time>2019-11-01T08:46:05Z</time>
      </trkpt>
      <trkpt lat="46.32087" lon="2.76115">
        <ele>348.7</ele>
        <time>2019-11-01T08:46:06Z</time>
      </trkpt>
      <trkpt lat="46.3209" lon="2.76118">
        <ele>349</ele>
        <time>2019-11-01T08:46:07Z</time>
      </trkpt>
      <trkpt lat="46.32094" lon="2.7612">
        <ele>349.1</ele>
        <time>2019-11-01T08:46:08Z</time>
      </trkpt>
      <trkpt lat="46.32097" lon="2.76123">
        <ele>349.2</ele>
        <time>2019-11-01T08:46:09Z</time>
      </trkpt>
      <trkpt lat="46.32101" lon="2.76125">
        <ele>349.4</ele>
        <time>2019-11-01T08:46:10Z</time>
      </trkpt>
      <trkpt lat="46.32105" lon="2.76128">
        <ele>349.5</ele>
        <time>2019-11-01T08:46:11Z</time>
      </trkpt>
      <trkpt lat="46.32108" lon="2.7613">
        <ele>349.6</ele>
        <time>2019-11-01T08:46:12Z</time>
      </trkpt>
      <trkpt lat="46.32112" lon="2.76132">
        <ele>349.8</ele>
        <time>2019-11-01T08:46:13Z</time>
      </trkpt>
      <trkpt lat="46.32116" lon="2.76135">
        <ele>349.9</ele>
        <time>2019-11-01T08:46:14Z</time>
      </trkpt>
      <trkpt lat="46.3212" lon="2.76137">
        <ele>350.1</ele>
        <time>2019-11-01T08:46:15Z</time>
      </trkpt>
      <trkpt lat="46.32123" lon="2.76139">
        <ele>350.2</ele>
        <time>2019-11-01T08:46:16Z</time>
      </trkpt>
      <trkpt lat="46.32126" lon="2.76142">
        <ele>350.3</ele>
        <time>2019-11-01T08:46:17Z</time>
      </trkpt>
      <trkpt lat="46.3213" lon="2.76144">
        <ele>350.4</ele>
        <time>2019-11-01T08:46:18Z</time>
      </trkpt>
      <trkpt lat="46.32133" lon="2.76146">
        <ele>350.6</ele>
        <time>2019-11-01T08:46:19Z</time>
      </trkpt>
      <trkpt lat="46.32137" lon="2.76149">
        <ele>350.7</ele>
        <time>2019-11-01T08:46:20Z</time>
      </trkpt>
      <trkpt lat="46.3214" lon="2.76151">
        <ele>350.8</ele>
        <time>2019-11-01T08:46:21Z</time>
      </trkpt>
      <trkpt lat="46.32144" lon="2.76154">
        <ele>351</ele>
        <time>2019-11-01T08:46:22Z</time>
      </trkpt>
      <trkpt lat="46.32148" lon="2.76156">
        <ele>351.2</ele>
        <time>2019-11-01T08:46:23Z</time>
      </trkpt>
      <trkpt lat="46.32151" lon="2.76158">
        <ele>351.3</ele>
        <time>2019-11-01T08:46:24Z</time>
      </trkpt>
      <trkpt lat="46.32155" lon="2.7616">
        <ele>351.4</ele>
        <time>2019-11-01T08:46:25Z</time>
      </trkpt>
      <trkpt lat="46.32159" lon="2.76162">
        <ele>351.5</ele>
        <time>2019-11-01T08:46:26Z</time>
      </trkpt>
      <trkpt lat="46.32162" lon="2.76166">
        <ele>351.6</ele>
        <time>2019-11-01T08:46:27Z</time>
      </trkpt>
      <trkpt lat="46.32167" lon="2.76169">
        <ele>351.7</ele>
        <time>2019-11-01T08:46:28Z</time>
      </trkpt>
      <trkpt lat="46.3217" lon="2.76172">
        <ele>351.8</ele>
        <time>2019-11-01T08:46:29Z</time>
      </trkpt>
      <trkpt lat="46.32174" lon="2.76175">
        <ele>351.8</ele>
        <time>2019-11-01T08:46:30Z</time>
      </trkpt>
      <trkpt lat="46.32177" lon="2.76178">
        <ele>351.9</ele>
        <time>2019-11-01T08:46:31Z</time>
      </trkpt>
      <trkpt lat="46.3218" lon="2.76181">
        <ele>352</ele>
        <time>2019-11-01T08:46:32Z</time>
      </trkpt>
      <trkpt lat="46.32183" lon="2.76185">
        <ele>352</ele>
        <time>2019-11-01T08:46:33Z</time>
      </trkpt>
      <trkpt lat="46.32186" lon="2.76189">
        <ele>352.1</ele>
        <time>2019-11-01T08:46:34Z</time>
      </trkpt>
      <trkpt lat="46.32189" lon="2.76193">
        <ele>352.1</ele>
        <time>2019-11-01T08:46:35Z</time>
      </trkpt>
      <trkpt lat="46.32191" lon="2.76197">
        <ele>352.2</ele>
        <time>2019-11-01T08:46:36Z</time>
      </trkpt>
      <trkpt lat="46.32194" lon="2.76202">
        <ele>352.3</ele>
        <time>2019-11-01T08:46:37Z</time>
      </trkpt>
      <trkpt lat="46.32197" lon="2.76207">
        <ele>352.3</ele>
        <time>2019-11-01T08:46:38Z</time>
      </trkpt>
      <trkpt lat="46.322" lon="2.76211">
        <ele>352.4</ele>
        <time>2019-11-01T08:46:39Z</time>
      </trkpt>
      <trkpt lat="46.32203" lon="2.76216">
        <ele>352.4</ele>
        <time>2019-11-01T08:46:40Z</time>
      </trkpt>
      <trkpt lat="46.32206" lon="2.76221">
        <ele>352.5</ele>
        <time>2019-11-01T08:46:41Z</time>
      </trkpt>
      <trkpt lat="46.32209" lon="2.76226">
        <ele>352.6</ele>
        <time>2019-11-01T08:46:42Z</time>
      </trkpt>
      <trkpt lat="46.32211" lon="2.76231">
        <ele>352.6</ele>
        <time>2019-11-01T08:46:43Z</time>
      </trkpt>
      <trkpt lat="46.32214" lon="2.76237">
        <ele>352.7</ele>
        <time>2019-11-01T08:46:44Z</time>
      </trkpt>
      <trkpt lat="46.32217" lon="2.76242">
        <ele>352.8</ele>
        <time>2019-11-01T08:46:45Z</time>
      </trkpt>
      <trkpt lat="46.32219" lon="2.76248">
        <ele>352.8</ele>
        <time>2019-11-01T08:46:46Z</time>
      </trkpt>
      <trkpt lat="46.32221" lon="2.76254">
        <ele>352.9</ele>
        <time>2019-11-01T08:46:47Z</time>
      </trkpt>
      <trkpt lat="46.32224" lon="2.76261">
        <ele>353</ele>
        <time>2019-11-01T08:46:48Z</time>
      </trkpt>
      <trkpt lat="46.32226" lon="2.76267">
        <ele>353.1</ele>
        <time>2019-11-01T08:46:49Z</time>
      </trkpt>
      <trkpt lat="46.32228" lon="2.76273">
        <ele>353.1</ele>
        <time>2019-11-01T08:46:50Z</time>
      </trkpt>
      <trkpt lat="46.32231" lon="2.76279">
        <ele>353.2</ele>
        <time>2019-11-01T08:46:51Z</time>
      </trkpt>
      <trkpt lat="46.32233" lon="2.76285">
        <ele>353.3</ele>
        <time>2019-11-01T08:46:52Z</time>
      </trkpt>
      <trkpt lat="46.32235" lon="2.7629">
        <ele>353.3</ele>
        <time>2019-11-01T08:46:53Z</time>
      </trkpt>
      <trkpt lat="46.32237" lon="2.76296">
        <ele>353.4</ele>
        <time>2019-11-01T08:46:54Z</time>
      </trkpt>
      <trkpt lat="46.3224" lon="2.76301">
        <ele>353.5</ele>
        <time>2019-11-01T08:46:55Z</time>
      </trkpt>
      <trkpt lat="46.32243" lon="2.76307">
        <ele>353.5</ele>
        <time>2019-11-01T08:46:56Z</time>
      </trkpt>
      <trkpt lat="46.32245" lon="2.76313">
        <ele>353.6</ele>
        <time>2019-11-01T08:46:57Z</time>
      </trkpt>
      <trkpt lat="46.32247" lon="2.76319">
        <ele>353.7</ele>
        <time>2019-11-01T08:46:58Z</time>
      </trkpt>
      <trkpt lat="46.3225" lon="2.76324">
        <ele>353.7</ele>
        <time>2019-11-01T08:46:59Z</time>
      </trkpt>
      <trkpt lat="46.32252" lon="2.7633">
        <ele>353.8</ele>
        <time>2019-11-01T08:47:00Z</time>
      </trkpt>
      <trkpt lat="46.32254" lon="2.76337">
        <ele>353.8</ele>
        <time>2019-11-01T08:47:01Z</time>
      </trkpt>
      <trkpt lat="46.32256" lon="2.76343">
        <ele>353.9</ele>
        <time>2019-11-01T08:47:02Z</time>
      </trkpt>
      <trkpt lat="46.32258" lon="2.76349">
        <ele>354</ele>
        <time>2019-11-01T08:47:03Z</time>
      </trkpt>
      <trkpt lat="46.3226" lon="2.76354">
        <ele>354.1</ele>
        <time>2019-11-01T08:47:04Z</time>
      </trkpt>
      <trkpt lat="46.32261" lon="2.7636">
        <ele>354.2</ele>
        <time>2019-11-01T08:47:05Z</time>
      </trkpt>
      <trkpt lat="46.32263" lon="2.76366">
        <ele>354.3</ele>
        <time>2019-11-01T08:47:06Z</time>
      </trkpt>
      <trkpt lat="46.32265" lon="2.76372">
        <ele>354.4</ele>
        <time>2019-11-01T08:47:07Z</time>
      </trkpt>
      <trkpt lat="46.32267" lon="2.76377">
        <ele>354.5</ele>
        <time>2019-11-01T08:47:08Z</time>
      </trkpt>
      <trkpt lat="46.32269" lon="2.76383">
        <ele>354.6</ele>
        <time>2019-11-01T08:47:09Z</time>
      </trkpt>
      <trkpt lat="46.32271" lon="2.76389">
        <ele>354.7</ele>
        <time>2019-11-01T08:47:10Z</time>
      </trkpt>
      <trkpt lat="46.32273" lon="2.76394">
        <ele>354.8</ele>
        <time>2019-11-01T08:47:11Z</time>
      </trkpt>
      <trkpt lat="46.32276" lon="2.76399">
        <ele>354.9</ele>
        <time>2019-11-01T08:47:12Z</time>
      </trkpt>
      <trkpt lat="46.32278" lon="2.76402">
        <ele>355</ele>
        <time>2019-11-01T08:47:13Z</time>
      </trkpt>
      <trkpt lat="46.3228" lon="2.76405">
        <ele>355</ele>
        <time>2019-11-01T08:47:14Z</time>
      </trkpt>
      <trkpt lat="46.32282" lon="2.76408">
        <ele>355.1</ele>
        <time>2019-11-01T08:48:05Z</time>
      </trkpt>
      <trkpt lat="46.32284" lon="2.76411">
        <ele>355.3</ele>
        <time>2019-11-01T08:48:06Z</time>
      </trkpt>
      <trkpt lat="46.32286" lon="2.76414">
        <ele>355.4</ele>
        <time>2019-11-01T08:48:07Z</time>
      </trkpt>
      <trkpt lat="46.32287" lon="2.76417">
        <ele>355.5</ele>
        <time>2019-11-01T08:48:08Z</time>
      </trkpt>
      <trkpt lat="46.32288" lon="2.7642">
        <ele>355.6</ele>
        <time>2019-11-01T08:48:09Z</time>
      </trkpt>
      <trkpt lat="46.32289" lon="2.76423">
        <ele>355.7</ele>
        <time>2019-11-01T08:48:10Z</time>
      </trkpt>
      <trkpt lat="46.3229" lon="2.76426">
        <ele>355.8</ele>
        <time>2019-11-01T08:48:11Z</time>
      </trkpt>
      <trkpt lat="46.32291" lon="2.76429">
        <ele>355.9</ele>
        <time>2019-11-01T08:48:12Z</time>
      </trkpt>
      <trkpt lat="46.32292" lon="2.76431">
        <ele>355.9</ele>
        <time>2019-11-01T08:48:13Z</time>
      </trkpt>
      <trkpt lat="46.32293" lon="2.76431">
        <ele>355.9</ele>
        <time>2019-11-01T08:48:14Z</time>
      </trkpt>
      <trkpt lat="46.32293" lon="2.76431">
        <ele>356</ele>
        <time>2019-11-01T08:48:15Z</time>
      </trkpt>
      <trkpt lat="46.32293" lon="2.76431">
        <ele>356</ele>
        <time>2019-11-01T08:48:16Z</time>
      </trkpt>
      <trkpt lat="46.32294" lon="2.7643">
        <ele>356</ele>
        <time>2019-11-01T08:48:17Z</time>
      </trkpt>
      <trkpt lat="46.32402" lon="2.76618">
        <ele>362.8</ele>
        <time>2019-11-01T08:48:18Z</time>
      </trkpt>
      <trkpt lat="46.32404" lon="2.76623">
        <ele>362.8</ele>
        <time>2019-11-01T08:48:19Z</time>
      </trkpt>
      <trkpt lat="46.32406" lon="2.76628">
        <ele>362.8</ele>
        <time>2019-11-01T08:48:20Z</time>
      </trkpt>
      <trkpt lat="46.32408" lon="2.76634">
        <ele>362.8</ele>
        <time>2019-11-01T08:48:21Z</time>
      </trkpt>
      <trkpt lat="46.32408" lon="2.76637">
        <ele>362.8</ele>
        <time>2019-11-01T08:48:22Z</time>
      </trkpt>
      <trkpt lat="46.32407" lon="2.76641">
        <ele>362.8</ele>
        <time>2019-11-01T08:48:23Z</time>
      </trkpt>
      <trkpt lat="46.32406" lon="2.76643">
        <ele>362.8</ele>
        <time>2019-11-01T08:48:24Z</time>
      </trkpt>
      <trkpt lat="46.32403" lon="2.76645">
        <ele>362.8</ele>
        <time>2019-11-01T08:48:25Z</time>
      </trkpt>
      <trkpt lat="46.32401" lon="2.76647">
        <ele>362.9</ele>
        <time>2019-11-01T08:48:26Z</time>
      </trkpt>
      <trkpt lat="46.32398" lon="2.76649">
        <ele>362.9</ele>
        <time>2019-11-01T08:48:27Z</time>
      </trkpt>
      <trkpt lat="46.32396" lon="2.76651">
        <ele>362.9</ele>
        <time>2019-11-01T08:48:28Z</time>
      </trkpt>
      <trkpt lat="46.32393" lon="2.76654">
        <ele>362.9</ele>
        <time>2019-11-01T08:48:29Z</time>
      </trkpt>
      <trkpt lat="46.3239" lon="2.76657">
        <ele>362.9</ele>
        <time>2019-11-01T08:48:30Z</time>
      </trkpt>
      <trkpt lat="46.32388" lon="2.7666">
        <ele>362.9</ele>
        <time>2019-11-01T08:48:31Z</time>
      </trkpt>
      <trkpt lat="46.32386" lon="2.76663">
        <ele>362.9</ele>
        <time>2019-11-01T08:48:32Z</time>
      </trkpt>
      <trkpt lat="46.32383" lon="2.76666">
        <ele>362.9</ele>
        <time>2019-11-01T08:48:33Z</time>
      </trkpt>
      <trkpt lat="46.32381" lon="2.76669">
        <ele>362.9</ele>
        <time>2019-11-01T08:48:34Z</time>
      </trkpt>
      <trkpt lat="46.32378" lon="2.76673">
        <ele>362.9</ele>
        <time>2019-11-01T08:48:35Z</time>
      </trkpt>
      <trkpt lat="46.32376" lon="2.76677">
        <ele>362.9</ele>
        <time>2019-11-01T08:48:36Z</time>
      </trkpt>
      <trkpt lat="46.32373" lon="2.7668">
        <ele>362.9</ele>
        <time>2019-11-01T08:48:37Z</time>
      </trkpt>
      <trkpt lat="46.32371" lon="2.76683">
        <ele>362.9</ele>
        <time>2019-11-01T08:48:38Z</time>
      </trkpt>
      <trkpt lat="46.32368" lon="2.76687">
        <ele>363</ele>
        <time>2019-11-01T08:48:39Z</time>
      </trkpt>
      <trkpt lat="46.32365" lon="2.7669">
        <ele>363</ele>
        <time>2019-11-01T08:48:40Z</time>
      </trkpt>
      <trkpt lat="46.32362" lon="2.76694">
        <ele>363</ele>
        <time>2019-11-01T08:48:41Z</time>
      </trkpt>
      <trkpt lat="46.32359" lon="2.76698">
        <ele>363</ele>
        <time>2019-11-01T08:48:42Z</time>
      </trkpt>
      <trkpt lat="46.32356" lon="2.76701">
        <ele>363.1</ele>
        <time>2019-11-01T08:48:43Z</time>
      </trkpt>
      <trkpt lat="46.32354" lon="2.76705">
        <ele>363.1</ele>
        <time>2019-11-01T08:48:44Z</time>
      </trkpt>
      <trkpt lat="46.32351" lon="2.76709">
        <ele>363.2</ele>
        <time>2019-11-01T08:48:45Z</time>
      </trkpt>
      <trkpt lat="46.32349" lon="2.76712">
        <ele>363.2</ele>
        <time>2019-11-01T08:48:46Z</time>
      </trkpt>
      <trkpt lat="46.32346" lon="2.76715">
        <ele>363.3</ele>
        <time>2019-11-01T08:48:47Z</time>
      </trkpt>
      <trkpt lat="46.32343" lon="2.76719">
        <ele>363.3</ele>
        <time>2019-11-01T08:48:48Z</time>
      </trkpt>
      <trkpt lat="46.3234" lon="2.76722">
        <ele>363.4</ele>
        <time>2019-11-01T08:48:49Z</time>
      </trkpt>
      <trkpt lat="46.32338" lon="2.76726">
        <ele>363.5</ele>
        <time>2019-11-01T08:48:50Z</time>
      </trkpt>
      <trkpt lat="46.32335" lon="2.7673">
        <ele>363.6</ele>
        <time>2019-11-01T08:48:51Z</time>
      </trkpt>
      <trkpt lat="46.32332" lon="2.76733">
        <ele>363.8</ele>
        <time>2019-11-01T08:48:52Z</time>
      </trkpt>
      <trkpt lat="46.3233" lon="2.76737">
        <ele>363.9</ele>
        <time>2019-11-01T08:48:53Z</time>
      </trkpt>
      <trkpt lat="46.32327" lon="2.7674">
        <ele>363.9</ele>
        <time>2019-11-01T08:48:54Z</time>
      </trkpt>
      <trkpt lat="46.32324" lon="2.76744">
        <ele>364</ele>
        <time>2019-11-01T08:48:55Z</time>
      </trkpt>
      <trkpt lat="46.32322" lon="2.76747">
        <ele>364.1</ele>
        <time>2019-11-01T08:48:56Z</time>
      </trkpt>
      <trkpt lat="46.32319" lon="2.76751">
        <ele>364.2</ele>
        <time>2019-11-01T08:48:57Z</time>
      </trkpt>
      <trkpt lat="46.32316" lon="2.76754">
        <ele>364.3</ele>
        <time>2019-11-01T08:48:58Z</time>
      </trkpt>
      <trkpt lat="46.32314" lon="2.76758">
        <ele>364.3</ele>
        <time>2019-11-01T08:48:59Z</time>
      </trkpt>
      <trkpt lat="46.32311" lon="2.76761">
        <ele>364.4</ele>
        <time>2019-11-01T08:49:00Z</time>
      </trkpt>
      <trkpt lat="46.32308" lon="2.76765">
        <ele>364.5</ele>
        <time>2019-11-01T08:49:01Z</time>
      </trkpt>
      <trkpt lat="46.32305" lon="2.76769">
        <ele>364.6</ele>
        <time>2019-11-01T08:49:02Z</time>
      </trkpt>
      <trkpt lat="46.32302" lon="2.76773">
        <ele>364.7</ele>
        <time>2019-11-01T08:49:08Z</time>
      </trkpt>
      <trkpt lat="46.32299" lon="2.76777">
        <ele>364.8</ele>
        <time>2019-11-01T08:49:09Z</time>
      </trkpt>
      <trkpt lat="46.32296" lon="2.7678">
        <ele>364.9</ele>
        <time>2019-11-01T08:49:10Z</time>
      </trkpt>
      <trkpt lat="46.32294" lon="2.76784">
        <ele>364.9</ele>
        <time>2019-11-01T08:49:11Z</time>
      </trkpt>
      <trkpt lat="46.32291" lon="2.76788">
        <ele>365</ele>
        <time>2019-11-01T08:49:12Z</time>
      </trkpt>
      <trkpt lat="46.32286" lon="2.76794">
        <ele>365.1</ele>
        <time>2019-11-01T08:49:13Z</time>
      </trkpt>
      <trkpt lat="46.32284" lon="2.76795">
        <ele>365.1</ele>
        <time>2019-11-01T08:49:14Z</time>
      </trkpt>
      <trkpt lat="46.32282" lon="2.76799">
        <ele>365.1</ele>
        <time>2019-11-01T08:49:15Z</time>
      </trkpt>
      <trkpt lat="46.32279" lon="2.76802">
        <ele>365.2</ele>
        <time>2019-11-01T08:49:16Z</time>
      </trkpt>
      <trkpt lat="46.32277" lon="2.76805">
        <ele>365.2</ele>
        <time>2019-11-01T08:49:17Z</time>
      </trkpt>
      <trkpt lat="46.32274" lon="2.76808">
        <ele>365.3</ele>
        <time>2019-11-01T08:49:18Z</time>
      </trkpt>
      <trkpt lat="46.32272" lon="2.76811">
        <ele>365.3</ele>
        <time>2019-11-01T08:49:19Z</time>
      </trkpt>
      <trkpt lat="46.3227" lon="2.76814">
        <ele>365.3</ele>
        <time>2019-11-01T08:49:20Z</time>
      </trkpt>
      <trkpt lat="46.32267" lon="2.76818">
        <ele>365.4</ele>
        <time>2019-11-01T08:49:21Z</time>
      </trkpt>
      <trkpt lat="46.32266" lon="2.76818">
        <ele>365.4</ele>
        <time>2019-11-01T08:49:22Z</time>
      </trkpt>
      <trkpt lat="46.32265" lon="2.76819">
        <ele>365.4</ele>
        <time>2019-11-01T08:49:23Z</time>
      </trkpt>
      <trkpt lat="46.32264" lon="2.76821">
        <ele>365.4</ele>
        <time>2019-11-01T08:49:24Z</time>
      </trkpt>
      <trkpt lat="46.32262" lon="2.76824">
        <ele>365.4</ele>
        <time>2019-11-01T08:49:25Z</time>
      </trkpt>
      <trkpt lat="46.32259" lon="2.76827">
        <ele>365.5</ele>
        <time>2019-11-01T08:49:26Z</time>
      </trkpt>
      <trkpt lat="46.32257" lon="2.76831">
        <ele>365.5</ele>
        <time>2019-11-01T08:49:27Z</time>
      </trkpt>
      <trkpt lat="46.32254" lon="2.76835">
        <ele>365.6</ele>
        <time>2019-11-01T08:49:28Z</time>
      </trkpt>
      <trkpt lat="46.3225" lon="2.7684">
        <ele>365.6</ele>
        <time>2019-11-01T08:49:29Z</time>
      </trkpt>
      <trkpt lat="46.32247" lon="2.76844">
        <ele>365.6</ele>
        <time>2019-11-01T08:49:30Z</time>
      </trkpt>
      <trkpt lat="46.32243" lon="2.76849">
        <ele>365.6</ele>
        <time>2019-11-01T08:49:31Z</time>
      </trkpt>
      <trkpt lat="46.3224" lon="2.76853">
        <ele>365.6</ele>
        <time>2019-11-01T08:49:32Z</time>
      </trkpt>
      <trkpt lat="46.32236" lon="2.76858">
        <ele>365.6</ele>
        <time>2019-11-01T08:49:33Z</time>
      </trkpt>
      <trkpt lat="46.32233" lon="2.76863">
        <ele>365.6</ele>
        <time>2019-11-01T08:49:34Z</time>
      </trkpt>
      <trkpt lat="46.32229" lon="2.76868">
        <ele>365.6</ele>
        <time>2019-11-01T08:49:35Z</time>
      </trkpt>
      <trkpt lat="46.32225" lon="2.76873">
        <ele>365.6</ele>
        <time>2019-11-01T08:49:36Z</time>
      </trkpt>
      <trkpt lat="46.32222" lon="2.76878">
        <ele>365.6</ele>
        <time>2019-11-01T08:49:37Z</time>
      </trkpt>
      <trkpt lat="46.32218" lon="2.76883">
        <ele>365.6</ele>
        <time>2019-11-01T08:49:38Z</time>
      </trkpt>
      <trkpt lat="46.32214" lon="2.76888">
        <ele>365.6</ele>
        <time>2019-11-01T08:49:39Z</time>
      </trkpt>
      <trkpt lat="46.32211" lon="2.76893">
        <ele>365.7</ele>
        <time>2019-11-01T08:49:40Z</time>
      </trkpt>
      <trkpt lat="46.32207" lon="2.76898">
        <ele>365.7</ele>
        <time>2019-11-01T08:49:41Z</time>
      </trkpt>
      <trkpt lat="46.32203" lon="2.76903">
        <ele>365.8</ele>
        <time>2019-11-01T08:49:42Z</time>
      </trkpt>
      <trkpt lat="46.32199" lon="2.76907">
        <ele>365.8</ele>
        <time>2019-11-01T08:49:43Z</time>
      </trkpt>
      <trkpt lat="46.32195" lon="2.76912">
        <ele>365.9</ele>
        <time>2019-11-01T08:49:44Z</time>
      </trkpt>
      <trkpt lat="46.32191" lon="2.76917">
        <ele>366</ele>
        <time>2019-11-01T08:49:45Z</time>
      </trkpt>
      <trkpt lat="46.32187" lon="2.76923">
        <ele>366.1</ele>
        <time>2019-11-01T08:49:46Z</time>
      </trkpt>
      <trkpt lat="46.32183" lon="2.76928">
        <ele>366.1</ele>
        <time>2019-11-01T08:49:47Z</time>
      </trkpt>
      <trkpt lat="46.32179" lon="2.76933">
        <ele>366.2</ele>
        <time>2019-11-01T08:49:48Z</time>
      </trkpt>
      <trkpt lat="46.32175" lon="2.76938">
        <ele>366.3</ele>
        <time>2019-11-01T08:49:49Z</time>
      </trkpt>
      <trkpt lat="46.32171" lon="2.76943">
        <ele>366.4</ele>
        <time>2019-11-01T08:49:50Z</time>
      </trkpt>
      <trkpt lat="46.32167" lon="2.76948">
        <ele>366.5</ele>
        <time>2019-11-01T08:49:51Z</time>
      </trkpt>
      <trkpt lat="46.32164" lon="2.76952">
        <ele>366.6</ele>
        <time>2019-11-01T08:49:52Z</time>
      </trkpt>
      <trkpt lat="46.3216" lon="2.76957">
        <ele>366.8</ele>
        <time>2019-11-01T08:49:53Z</time>
      </trkpt>
      <trkpt lat="46.32156" lon="2.76962">
        <ele>366.9</ele>
        <time>2019-11-01T08:49:54Z</time>
      </trkpt>
      <trkpt lat="46.32152" lon="2.76968">
        <ele>367</ele>
        <time>2019-11-01T08:49:55Z</time>
      </trkpt>
      <trkpt lat="46.32149" lon="2.76972">
        <ele>367.1</ele>
        <time>2019-11-01T08:49:56Z</time>
      </trkpt>
      <trkpt lat="46.32145" lon="2.76977">
        <ele>367.2</ele>
        <time>2019-11-01T08:49:57Z</time>
      </trkpt>
      <trkpt lat="46.32141" lon="2.76981">
        <ele>367.4</ele>
        <time>2019-11-01T08:49:58Z</time>
      </trkpt>
      <trkpt lat="46.32138" lon="2.76986">
        <ele>367.4</ele>
        <time>2019-11-01T08:49:59Z</time>
      </trkpt>
      <trkpt lat="46.32134" lon="2.76991">
        <ele>367.5</ele>
        <time>2019-11-01T08:50:00Z</time>
      </trkpt>
      <trkpt lat="46.3213" lon="2.76997">
        <ele>367.5</ele>
        <time>2019-11-01T08:50:01Z</time>
      </trkpt>
      <trkpt lat="46.32127" lon="2.77002">
        <ele>367.5</ele>
        <time>2019-11-01T08:50:02Z</time>
      </trkpt>
      <trkpt lat="46.32124" lon="2.77008">
        <ele>367.6</ele>
        <time>2019-11-01T08:50:03Z</time>
      </trkpt>
      <trkpt lat="46.3212" lon="2.77013">
        <ele>367.5</ele>
        <time>2019-11-01T08:50:04Z</time>
      </trkpt>
      <trkpt lat="46.32117" lon="2.77018">
        <ele>367.5</ele>
        <time>2019-11-01T08:50:05Z</time>
      </trkpt>
      <trkpt lat="46.32112" lon="2.77023">
        <ele>367.4</ele>
        <time>2019-11-01T08:50:06Z</time>
      </trkpt>
      <trkpt lat="46.32108" lon="2.77026">
        <ele>367.2</ele>
        <time>2019-11-01T08:50:07Z</time>
      </trkpt>
      <trkpt lat="46.32103" lon="2.77028">
        <ele>367</ele>
        <time>2019-11-01T08:50:08Z</time>
      </trkpt>
      <trkpt lat="46.32098" lon="2.77028">
        <ele>366.9</ele>
        <time>2019-11-01T08:50:09Z</time>
      </trkpt>
      <trkpt lat="46.32094" lon="2.77026">
        <ele>366.8</ele>
        <time>2019-11-01T08:50:10Z</time>
      </trkpt>
      <trkpt lat="46.3209" lon="2.77023">
        <ele>366.8</ele>
        <time>2019-11-01T08:50:11Z</time>
      </trkpt>
      <trkpt lat="46.32087" lon="2.77019">
        <ele>366.7</ele>
        <time>2019-11-01T08:50:12Z</time>
      </trkpt>
      <trkpt lat="46.32084" lon="2.77015">
        <ele>366.6</ele>
        <time>2019-11-01T08:50:13Z</time>
      </trkpt>
      <trkpt lat="46.3208" lon="2.77011">
        <ele>366.5</ele>
        <time>2019-11-01T08:50:14Z</time>
      </trkpt>
      <trkpt lat="46.32076" lon="2.77007">
        <ele>366.5</ele>
        <time>2019-11-01T08:50:15Z</time>
      </trkpt>
      <trkpt lat="46.32072" lon="2.77002">
        <ele>366.4</ele>
        <time>2019-11-01T08:50:16Z</time>
      </trkpt>
      <trkpt lat="46.32068" lon="2.76998">
        <ele>366.4</ele>
        <time>2019-11-01T08:50:17Z</time>
      </trkpt>
      <trkpt lat="46.32065" lon="2.76995">
        <ele>366.3</ele>
        <time>2019-11-01T08:50:18Z</time>
      </trkpt>
      <trkpt lat="46.32061" lon="2.76991">
        <ele>366.2</ele>
        <time>2019-11-01T08:50:19Z</time>
      </trkpt>
      <trkpt lat="46.32057" lon="2.76986">
        <ele>366.2</ele>
        <time>2019-11-01T08:50:20Z</time>
      </trkpt>
      <trkpt lat="46.32053" lon="2.76982">
        <ele>366.2</ele>
        <time>2019-11-01T08:50:21Z</time>
      </trkpt>
      <trkpt lat="46.32049" lon="2.76978">
        <ele>366.1</ele>
        <time>2019-11-01T08:50:22Z</time>
      </trkpt>
      <trkpt lat="46.32044" lon="2.76974">
        <ele>366.1</ele>
        <time>2019-11-01T08:50:23Z</time>
      </trkpt>
      <trkpt lat="46.3204" lon="2.76969">
        <ele>366.1</ele>
        <time>2019-11-01T08:50:24Z</time>
      </trkpt>
      <trkpt lat="46.32036" lon="2.76965">
        <ele>366.1</ele>
        <time>2019-11-01T08:50:25Z</time>
      </trkpt>
      <trkpt lat="46.32032" lon="2.7696">
        <ele>366.1</ele>
        <time>2019-11-01T08:50:26Z</time>
      </trkpt>
      <trkpt lat="46.32028" lon="2.76957">
        <ele>366.1</ele>
        <time>2019-11-01T08:50:27Z</time>
      </trkpt>
      <trkpt lat="46.32023" lon="2.76952">
        <ele>366.1</ele>
        <time>2019-11-01T08:50:28Z</time>
      </trkpt>
      <trkpt lat="46.32019" lon="2.76947">
        <ele>366.1</ele>
        <time>2019-11-01T08:50:29Z</time>
      </trkpt>
      <trkpt lat="46.32014" lon="2.76943">
        <ele>366</ele>
        <time>2019-11-01T08:50:30Z</time>
      </trkpt>
      <trkpt lat="46.3201" lon="2.76938">
        <ele>366</ele>
        <time>2019-11-01T08:50:31Z</time>
      </trkpt>
      <trkpt lat="46.32006" lon="2.76933">
        <ele>366</ele>
        <time>2019-11-01T08:50:32Z</time>
      </trkpt>
      <trkpt lat="46.32002" lon="2.76928">
        <ele>366</ele>
        <time>2019-11-01T08:50:33Z</time>
      </trkpt>
      <trkpt lat="46.31997" lon="2.76924">
        <ele>366</ele>
        <time>2019-11-01T08:50:34Z</time>
      </trkpt>
      <trkpt lat="46.31993" lon="2.76919">
        <ele>366</ele>
        <time>2019-11-01T08:50:35Z</time>
      </trkpt>
      <trkpt lat="46.31989" lon="2.76914">
        <ele>366</ele>
        <time>2019-11-01T08:50:36Z</time>
      </trkpt>
      <trkpt lat="46.31985" lon="2.7691">
        <ele>366</ele>
        <time>2019-11-01T08:50:37Z</time>
      </trkpt>
      <trkpt lat="46.3198" lon="2.76905">
        <ele>366</ele>
        <time>2019-11-01T08:50:38Z</time>
      </trkpt>
      <trkpt lat="46.31976" lon="2.76901">
        <ele>366</ele>
        <time>2019-11-01T08:50:39Z</time>
      </trkpt>
      <trkpt lat="46.31971" lon="2.76896">
        <ele>365.9</ele>
        <time>2019-11-01T08:50:40Z</time>
      </trkpt>
      <trkpt lat="46.31967" lon="2.76892">
        <ele>365.9</ele>
        <time>2019-11-01T08:50:41Z</time>
      </trkpt>
      <trkpt lat="46.31963" lon="2.76887">
        <ele>365.9</ele>
        <time>2019-11-01T08:50:42Z</time>
      </trkpt>
      <trkpt lat="46.31958" lon="2.76883">
        <ele>365.9</ele>
        <time>2019-11-01T08:50:43Z</time>
      </trkpt>
      <trkpt lat="46.31954" lon="2.76878">
        <ele>365.8</ele>
        <time>2019-11-01T08:50:44Z</time>
      </trkpt>
      <trkpt lat="46.31949" lon="2.76874">
        <ele>365.8</ele>
        <time>2019-11-01T08:50:45Z</time>
      </trkpt>
      <trkpt lat="46.31945" lon="2.76869">
        <ele>365.8</ele>
        <time>2019-11-01T08:50:46Z</time>
      </trkpt>
      <trkpt lat="46.3194" lon="2.76865">
        <ele>365.8</ele>
        <time>2019-11-01T08:50:47Z</time>
      </trkpt>
      <trkpt lat="46.31936" lon="2.7686">
        <ele>365.8</ele>
        <time>2019-11-01T08:50:48Z</time>
      </trkpt>
      <trkpt lat="46.31931" lon="2.76856">
        <ele>365.8</ele>
        <time>2019-11-01T08:50:49Z</time>
      </trkpt>
      <trkpt lat="46.31926" lon="2.76851">
        <ele>365.8</ele>
        <time>2019-11-01T08:50:50Z</time>
      </trkpt>
      <trkpt lat="46.31922" lon="2.76846">
        <ele>365.8</ele>
        <time>2019-11-01T08:50:51Z</time>
      </trkpt>
      <trkpt lat="46.31917" lon="2.76841">
        <ele>365.8</ele>
        <time>2019-11-01T08:50:52Z</time>
      </trkpt>
      <trkpt lat="46.31917" lon="2.76841">
        <ele>365.8</ele>
        <time>2019-11-01T08:50:53Z</time>
      </trkpt>
      <trkpt lat="46.31913" lon="2.76836">
        <ele>365.8</ele>
        <time>2019-11-01T08:50:54Z</time>
      </trkpt>
      <trkpt lat="46.31908" lon="2.76832">
        <ele>365.8</ele>
        <time>2019-11-01T08:50:55Z</time>
      </trkpt>
      <trkpt lat="46.31904" lon="2.76827">
        <ele>365.8</ele>
        <time>2019-11-01T08:50:56Z</time>
      </trkpt>
      <trkpt lat="46.31899" lon="2.76822">
        <ele>365.8</ele>
        <time>2019-11-01T08:50:57Z</time>
      </trkpt>
      <trkpt lat="46.3189" lon="2.76812">
        <ele>365.8</ele>
        <time>2019-11-01T08:50:58Z</time>
      </trkpt>
      <trkpt lat="46.31885" lon="2.76807">
        <ele>365.8</ele>
        <time>2019-11-01T08:50:59Z</time>
      </trkpt>
      <trkpt lat="46.3188" lon="2.76802">
        <ele>365.8</ele>
        <time>2019-11-01T08:51:00Z</time>
      </trkpt>
      <trkpt lat="46.31876" lon="2.76798">
        <ele>365.7</ele>
        <time>2019-11-01T08:51:01Z</time>
      </trkpt>
      <trkpt lat="46.31871" lon="2.76794">
        <ele>365.7</ele>
        <time>2019-11-01T08:51:02Z</time>
      </trkpt>
      <trkpt lat="46.31866" lon="2.7679">
        <ele>365.8</ele>
        <time>2019-11-01T08:51:03Z</time>
      </trkpt>
      <trkpt lat="46.31861" lon="2.76786">
        <ele>365.8</ele>
        <time>2019-11-01T08:51:04Z</time>
      </trkpt>
      <trkpt lat="46.31856" lon="2.76782">
        <ele>365.8</ele>
        <time>2019-11-01T08:51:05Z</time>
      </trkpt>
      <trkpt lat="46.31852" lon="2.76778">
        <ele>365.9</ele>
        <time>2019-11-01T08:51:06Z</time>
      </trkpt>
      <trkpt lat="46.31847" lon="2.76774">
        <ele>365.9</ele>
        <time>2019-11-01T08:51:07Z</time>
      </trkpt>
      <trkpt lat="46.31842" lon="2.76771">
        <ele>365.8</ele>
        <time>2019-11-01T08:51:08Z</time>
      </trkpt>
      <trkpt lat="46.31837" lon="2.76768">
        <ele>365.6</ele>
        <time>2019-11-01T08:51:09Z</time>
      </trkpt>
      <trkpt lat="46.31833" lon="2.76766">
        <ele>365.4</ele>
        <time>2019-11-01T08:51:10Z</time>
      </trkpt>
      <trkpt lat="46.31828" lon="2.76763">
        <ele>365.3</ele>
        <time>2019-11-01T08:51:11Z</time>
      </trkpt>
      <trkpt lat="46.31823" lon="2.76761">
        <ele>365.2</ele>
        <time>2019-11-01T08:51:12Z</time>
      </trkpt>
      <trkpt lat="46.31818" lon="2.7676">
        <ele>365.2</ele>
        <time>2019-11-01T08:51:13Z</time>
      </trkpt>
      <trkpt lat="46.31813" lon="2.76758">
        <ele>365.1</ele>
        <time>2019-11-01T08:51:14Z</time>
      </trkpt>
      <trkpt lat="46.31807" lon="2.76757">
        <ele>365</ele>
        <time>2019-11-01T08:51:15Z</time>
      </trkpt>
      <trkpt lat="46.31802" lon="2.76756">
        <ele>365</ele>
        <time>2019-11-01T08:51:16Z</time>
      </trkpt>
      <trkpt lat="46.31797" lon="2.76755">
        <ele>364.9</ele>
        <time>2019-11-01T08:51:17Z</time>
      </trkpt>
      <trkpt lat="46.31791" lon="2.76755">
        <ele>364.9</ele>
        <time>2019-11-01T08:51:18Z</time>
      </trkpt>
      <trkpt lat="46.31786" lon="2.76754">
        <ele>364.8</ele>
        <time>2019-11-01T08:51:19Z</time>
      </trkpt>
      <trkpt lat="46.3178" lon="2.76754">
        <ele>364.8</ele>
        <time>2019-11-01T08:51:20Z</time>
      </trkpt>
      <trkpt lat="46.31774" lon="2.76753">
        <ele>364.8</ele>
        <time>2019-11-01T08:51:21Z</time>
      </trkpt>
      <trkpt lat="46.31769" lon="2.76753">
        <ele>364.8</ele>
        <time>2019-11-01T08:51:22Z</time>
      </trkpt>
      <trkpt lat="46.31763" lon="2.76754">
        <ele>364.7</ele>
        <time>2019-11-01T08:51:23Z</time>
      </trkpt>
      <trkpt lat="46.31758" lon="2.76754">
        <ele>364.7</ele>
        <time>2019-11-01T08:51:24Z</time>
      </trkpt>
      <trkpt lat="46.31752" lon="2.76755">
        <ele>364.7</ele>
        <time>2019-11-01T08:51:25Z</time>
      </trkpt>
      <trkpt lat="46.31746" lon="2.76756">
        <ele>364.7</ele>
        <time>2019-11-01T08:51:26Z</time>
      </trkpt>
      <trkpt lat="46.31741" lon="2.76758">
        <ele>364.7</ele>
        <time>2019-11-01T08:51:27Z</time>
      </trkpt>
      <trkpt lat="46.31735" lon="2.76759">
        <ele>364.6</ele>
        <time>2019-11-01T08:51:28Z</time>
      </trkpt>
      <trkpt lat="46.31729" lon="2.76761">
        <ele>364.6</ele>
        <time>2019-11-01T08:51:29Z</time>
      </trkpt>
      <trkpt lat="46.31724" lon="2.76763">
        <ele>364.6</ele>
        <time>2019-11-01T08:51:30Z</time>
      </trkpt>
      <trkpt lat="46.31718" lon="2.76766">
        <ele>364.6</ele>
        <time>2019-11-01T08:51:31Z</time>
      </trkpt>
      <trkpt lat="46.31713" lon="2.76769">
        <ele>364.5</ele>
        <time>2019-11-01T08:51:32Z</time>
      </trkpt>
      <trkpt lat="46.31708" lon="2.76773">
        <ele>364.5</ele>
        <time>2019-11-01T08:51:33Z</time>
      </trkpt>
      <trkpt lat="46.31703" lon="2.76777">
        <ele>364.5</ele>
        <time>2019-11-01T08:51:34Z</time>
      </trkpt>
      <trkpt lat="46.31697" lon="2.76781">
        <ele>364.4</ele>
        <time>2019-11-01T08:51:35Z</time>
      </trkpt>
      <trkpt lat="46.31692" lon="2.76785">
        <ele>364.4</ele>
        <time>2019-11-01T08:51:36Z</time>
      </trkpt>
      <trkpt lat="46.31687" lon="2.76789">
        <ele>364.3</ele>
        <time>2019-11-01T08:51:37Z</time>
      </trkpt>
      <trkpt lat="46.31682" lon="2.76794">
        <ele>364.2</ele>
        <time>2019-11-01T08:51:38Z</time>
      </trkpt>
      <trkpt lat="46.31677" lon="2.76799">
        <ele>364.1</ele>
        <time>2019-11-01T08:51:39Z</time>
      </trkpt>
      <trkpt lat="46.31672" lon="2.76803">
        <ele>364</ele>
        <time>2019-11-01T08:51:40Z</time>
      </trkpt>
      <trkpt lat="46.31667" lon="2.76808">
        <ele>364</ele>
        <time>2019-11-01T08:51:41Z</time>
      </trkpt>
      <trkpt lat="46.31667" lon="2.76808">
        <ele>364</ele>
        <time>2019-11-01T08:51:42Z</time>
      </trkpt>
      <trkpt lat="46.31662" lon="2.76813">
        <ele>363.9</ele>
        <time>2019-11-01T08:51:43Z</time>
      </trkpt>
      <trkpt lat="46.31653" lon="2.76824">
        <ele>363.7</ele>
        <time>2019-11-01T08:51:44Z</time>
      </trkpt>
      <trkpt lat="46.31649" lon="2.76829">
        <ele>363.6</ele>
        <time>2019-11-01T08:51:45Z</time>
      </trkpt>
      <trkpt lat="46.31644" lon="2.76833">
        <ele>363.5</ele>
        <time>2019-11-01T08:51:46Z</time>
      </trkpt>
      <trkpt lat="46.3164" lon="2.76838">
        <ele>363.5</ele>
        <time>2019-11-01T08:51:47Z</time>
      </trkpt>
      <trkpt lat="46.31635" lon="2.76843">
        <ele>363.4</ele>
        <time>2019-11-01T08:51:48Z</time>
      </trkpt>
      <trkpt lat="46.31631" lon="2.76848">
        <ele>363.4</ele>
        <time>2019-11-01T08:51:49Z</time>
      </trkpt>
      <trkpt lat="46.31627" lon="2.76853">
        <ele>363.3</ele>
        <time>2019-11-01T08:51:50Z</time>
      </trkpt>
      <trkpt lat="46.31623" lon="2.76857">
        <ele>363.3</ele>
        <time>2019-11-01T08:51:51Z</time>
      </trkpt>
      <trkpt lat="46.31623" lon="2.76857">
        <ele>363.3</ele>
        <time>2019-11-01T08:51:52Z</time>
      </trkpt>
      <trkpt lat="46.31618" lon="2.76862">
        <ele>363.3</ele>
        <time>2019-11-01T08:51:53Z</time>
      </trkpt>
      <trkpt lat="46.31614" lon="2.76867">
        <ele>363.2</ele>
        <time>2019-11-01T08:51:54Z</time>
      </trkpt>
      <trkpt lat="46.3161" lon="2.76871">
        <ele>363.2</ele>
        <time>2019-11-01T08:51:55Z</time>
      </trkpt>
      <trkpt lat="46.31606" lon="2.76875">
        <ele>363.1</ele>
        <time>2019-11-01T08:51:56Z</time>
      </trkpt>
      <trkpt lat="46.31597" lon="2.76884">
        <ele>363</ele>
        <time>2019-11-01T08:51:57Z</time>
      </trkpt>
      <trkpt lat="46.31597" lon="2.76884">
        <ele>363</ele>
        <time>2019-11-01T08:51:58Z</time>
      </trkpt>
      <trkpt lat="46.31588" lon="2.76892">
        <ele>362.8</ele>
        <time>2019-11-01T08:51:59Z</time>
      </trkpt>
      <trkpt lat="46.31588" lon="2.76892">
        <ele>362.8</ele>
        <time>2019-11-01T08:52:00Z</time>
      </trkpt>
      <trkpt lat="46.31579" lon="2.769">
        <ele>362.6</ele>
        <time>2019-11-01T08:52:01Z</time>
      </trkpt>
      <trkpt lat="46.31574" lon="2.76904">
        <ele>362.5</ele>
        <time>2019-11-01T08:52:02Z</time>
      </trkpt>
      <trkpt lat="46.31569" lon="2.76908">
        <ele>362.4</ele>
        <time>2019-11-01T08:52:03Z</time>
      </trkpt>
      <trkpt lat="46.31564" lon="2.76912">
        <ele>362.3</ele>
        <time>2019-11-01T08:52:04Z</time>
      </trkpt>
      <trkpt lat="46.31559" lon="2.76916">
        <ele>362.2</ele>
        <time>2019-11-01T08:52:05Z</time>
      </trkpt>
      <trkpt lat="46.31553" lon="2.76919">
        <ele>362.2</ele>
        <time>2019-11-01T08:52:06Z</time>
      </trkpt>
      <trkpt lat="46.31548" lon="2.76922">
        <ele>362.2</ele>
        <time>2019-11-01T08:52:07Z</time>
      </trkpt>
      <trkpt lat="46.31548" lon="2.76922">
        <ele>362.2</ele>
        <time>2019-11-01T08:52:08Z</time>
      </trkpt>
      <trkpt lat="46.31536" lon="2.76925">
        <ele>362.2</ele>
        <time>2019-11-01T08:52:09Z</time>
      </trkpt>
      <trkpt lat="46.3153" lon="2.76926">
        <ele>362.2</ele>
        <time>2019-11-01T08:52:10Z</time>
      </trkpt>
      <trkpt lat="46.3153" lon="2.76926">
        <ele>362.2</ele>
        <time>2019-11-01T08:52:11Z</time>
      </trkpt>
      <trkpt lat="46.31519" lon="2.76926">
        <ele>362.3</ele>
        <time>2019-11-01T08:52:12Z</time>
      </trkpt>
      <trkpt lat="46.31514" lon="2.76925">
        <ele>362.3</ele>
        <time>2019-11-01T08:52:13Z</time>
      </trkpt>
      <trkpt lat="46.31514" lon="2.76925">
        <ele>362.3</ele>
        <time>2019-11-01T08:52:14Z</time>
      </trkpt>
      <trkpt lat="46.31503" lon="2.76922">
        <ele>362.4</ele>
        <time>2019-11-01T08:52:15Z</time>
      </trkpt>
      <trkpt lat="46.31503" lon="2.76922">
        <ele>362.4</ele>
        <time>2019-11-01T08:52:16Z</time>
      </trkpt>
      <trkpt lat="46.31493" lon="2.76917">
        <ele>362.6</ele>
        <time>2019-11-01T08:52:17Z</time>
      </trkpt>
      <trkpt lat="46.31488" lon="2.76914">
        <ele>362.6</ele>
        <time>2019-11-01T08:52:18Z</time>
      </trkpt>
      <trkpt lat="46.31488" lon="2.76914">
        <ele>362.6</ele>
        <time>2019-11-01T08:52:19Z</time>
      </trkpt>
      <trkpt lat="46.31479" lon="2.76906">
        <ele>362.7</ele>
        <time>2019-11-01T08:52:20Z</time>
      </trkpt>
      <trkpt lat="46.31475" lon="2.76902">
        <ele>362.8</ele>
        <time>2019-11-01T08:52:21Z</time>
      </trkpt>
      <trkpt lat="46.31475" lon="2.76902">
        <ele>362.8</ele>
        <time>2019-11-01T08:52:22Z</time>
      </trkpt>
      <trkpt lat="46.31467" lon="2.76893">
        <ele>362.9</ele>
        <time>2019-11-01T08:52:23Z</time>
      </trkpt>
      <trkpt lat="46.31467" lon="2.76893">
        <ele>362.9</ele>
        <time>2019-11-01T08:52:24Z</time>
      </trkpt>
      <trkpt lat="46.31463" lon="2.7689">
        <ele>363</ele>
        <time>2019-11-01T08:52:25Z</time>
      </trkpt>
      <trkpt lat="46.31459" lon="2.76889">
        <ele>363.1</ele>
        <time>2019-11-01T08:52:26Z</time>
      </trkpt>
      <trkpt lat="46.31453" lon="2.76893">
        <ele>364</ele>
        <time>2019-11-01T08:52:27Z</time>
      </trkpt>
      <trkpt lat="46.31452" lon="2.76897">
        <ele>364.1</ele>
        <time>2019-11-01T08:52:28Z</time>
      </trkpt>
      <trkpt lat="46.31452" lon="2.76897">
        <ele>364.1</ele>
        <time>2019-11-01T08:52:29Z</time>
      </trkpt>
      <trkpt lat="46.31453" lon="2.76909">
        <ele>364.2</ele>
        <time>2019-11-01T08:52:30Z</time>
      </trkpt>
      <trkpt lat="46.31454" lon="2.76916">
        <ele>364.3</ele>
        <time>2019-11-01T08:52:31Z</time>
      </trkpt>
      <trkpt lat="46.31455" lon="2.76923">
        <ele>364.3</ele>
        <time>2019-11-01T08:52:32Z</time>
      </trkpt>
      <trkpt lat="46.31456" lon="2.76929">
        <ele>364.3</ele>
        <time>2019-11-01T08:52:33Z</time>
      </trkpt>
      <trkpt lat="46.31456" lon="2.76929">
        <ele>364.3</ele>
        <time>2019-11-01T08:52:34Z</time>
      </trkpt>
      <trkpt lat="46.31457" lon="2.76943">
        <ele>364.3</ele>
        <time>2019-11-01T08:52:35Z</time>
      </trkpt>
      <trkpt lat="46.31459" lon="2.7695">
        <ele>364.3</ele>
        <time>2019-11-01T08:52:36Z</time>
      </trkpt>
      <trkpt lat="46.31459" lon="2.7695">
        <ele>364.3</ele>
        <time>2019-11-01T08:52:37Z</time>
      </trkpt>
      <trkpt lat="46.31461" lon="2.76965">
        <ele>364.2</ele>
        <time>2019-11-01T08:52:38Z</time>
      </trkpt>
      <trkpt lat="46.31461" lon="2.76972">
        <ele>364.2</ele>
        <time>2019-11-01T08:52:39Z</time>
      </trkpt>
      <trkpt lat="46.31462" lon="2.76979">
        <ele>364.2</ele>
        <time>2019-11-01T08:52:40Z</time>
      </trkpt>
      <trkpt lat="46.31462" lon="2.76979">
        <ele>364.2</ele>
        <time>2019-11-01T08:52:41Z</time>
      </trkpt>
      <trkpt lat="46.31464" lon="2.76993">
        <ele>364.2</ele>
        <time>2019-11-01T08:52:42Z</time>
      </trkpt>
      <trkpt lat="46.31465" lon="2.77">
        <ele>364.2</ele>
        <time>2019-11-01T08:52:43Z</time>
      </trkpt>
      <trkpt lat="46.31465" lon="2.77">
        <ele>364.2</ele>
        <time>2019-11-01T08:52:44Z</time>
      </trkpt>
      <trkpt lat="46.31466" lon="2.77014">
        <ele>364.3</ele>
        <time>2019-11-01T08:52:45Z</time>
      </trkpt>
      <trkpt lat="46.31466" lon="2.7702">
        <ele>364.4</ele>
        <time>2019-11-01T08:52:46Z</time>
      </trkpt>
      <trkpt lat="46.31466" lon="2.77027">
        <ele>364.5</ele>
        <time>2019-11-01T08:52:47Z</time>
      </trkpt>
      <trkpt lat="46.31465" lon="2.77032">
        <ele>364.7</ele>
        <time>2019-11-01T08:52:48Z</time>
      </trkpt>
      <trkpt lat="46.31465" lon="2.77032">
        <ele>364.7</ele>
        <time>2019-11-01T08:52:49Z</time>
      </trkpt>
      <trkpt lat="46.3146" lon="2.7704">
        <ele>365.1</ele>
        <time>2019-11-01T08:52:50Z</time>
      </trkpt>
      <trkpt lat="46.31457" lon="2.77043">
        <ele>365.2</ele>
        <time>2019-11-01T08:52:51Z</time>
      </trkpt>
      <trkpt lat="46.31454" lon="2.77045">
        <ele>365.4</ele>
        <time>2019-11-01T08:52:52Z</time>
      </trkpt>
      <trkpt lat="46.31454" lon="2.77045">
        <ele>365.4</ele>
        <time>2019-11-01T08:52:53Z</time>
      </trkpt>
      <trkpt lat="46.3145" lon="2.77046">
        <ele>365.5</ele>
        <time>2019-11-01T08:52:54Z</time>
      </trkpt>
      <trkpt lat="46.31446" lon="2.77046">
        <ele>365.6</ele>
        <time>2019-11-01T08:52:55Z</time>
      </trkpt>
      <trkpt lat="46.31442" lon="2.77045">
        <ele>365.7</ele>
        <time>2019-11-01T08:52:56Z</time>
      </trkpt>
      <trkpt lat="46.31439" lon="2.77044">
        <ele>365.8</ele>
        <time>2019-11-01T08:52:57Z</time>
      </trkpt>
      <trkpt lat="46.31435" lon="2.77044">
        <ele>366</ele>
        <time>2019-11-01T08:52:58Z</time>
      </trkpt>
      <trkpt lat="46.31431" lon="2.77043">
        <ele>366.1</ele>
        <time>2019-11-01T08:52:59Z</time>
      </trkpt>
      <trkpt lat="46.31427" lon="2.77043">
        <ele>366.3</ele>
        <time>2019-11-01T08:53:00Z</time>
      </trkpt>
      <trkpt lat="46.31423" lon="2.77043">
        <ele>366.4</ele>
        <time>2019-11-01T08:53:01Z</time>
      </trkpt>
      <trkpt lat="46.31419" lon="2.77042">
        <ele>366.5</ele>
        <time>2019-11-01T08:53:02Z</time>
      </trkpt>
      <trkpt lat="46.31415" lon="2.77042">
        <ele>366.6</ele>
        <time>2019-11-01T08:53:03Z</time>
      </trkpt>
      <trkpt lat="46.31412" lon="2.77041">
        <ele>366.7</ele>
        <time>2019-11-01T08:53:04Z</time>
      </trkpt>
      <trkpt lat="46.31408" lon="2.77041">
        <ele>366.9</ele>
        <time>2019-11-01T08:53:05Z</time>
      </trkpt>
      <trkpt lat="46.31404" lon="2.7704">
        <ele>367</ele>
        <time>2019-11-01T08:53:06Z</time>
      </trkpt>
      <trkpt lat="46.314" lon="2.77039">
        <ele>367.2</ele>
        <time>2019-11-01T08:53:07Z</time>
      </trkpt>
      <trkpt lat="46.31396" lon="2.77039">
        <ele>367.4</ele>
        <time>2019-11-01T08:53:08Z</time>
      </trkpt>
      <trkpt lat="46.31392" lon="2.77038">
        <ele>367.6</ele>
        <time>2019-11-01T08:53:09Z</time>
      </trkpt>
      <trkpt lat="46.31388" lon="2.77037">
        <ele>367.7</ele>
        <time>2019-11-01T08:53:10Z</time>
      </trkpt>
      <trkpt lat="46.31384" lon="2.77036">
        <ele>367.9</ele>
        <time>2019-11-01T08:53:11Z</time>
      </trkpt>
      <trkpt lat="46.3138" lon="2.77035">
        <ele>368</ele>
        <time>2019-11-01T08:53:12Z</time>
      </trkpt>
      <trkpt lat="46.31376" lon="2.77035">
        <ele>368.2</ele>
        <time>2019-11-01T08:53:13Z</time>
      </trkpt>
      <trkpt lat="46.31372" lon="2.77034">
        <ele>368.3</ele>
        <time>2019-11-01T08:53:14Z</time>
      </trkpt>
      <trkpt lat="46.31368" lon="2.77033">
        <ele>368.4</ele>
        <time>2019-11-01T08:53:15Z</time>
      </trkpt>
      <trkpt lat="46.31364" lon="2.77032">
        <ele>368.6</ele>
        <time>2019-11-01T08:53:16Z</time>
      </trkpt>
      <trkpt lat="46.3136" lon="2.77031">
        <ele>368.7</ele>
        <time>2019-11-01T08:53:17Z</time>
      </trkpt>
      <trkpt lat="46.31356" lon="2.77031">
        <ele>368.9</ele>
        <time>2019-11-01T08:53:18Z</time>
      </trkpt>
      <trkpt lat="46.31352" lon="2.7703">
        <ele>369</ele>
        <time>2019-11-01T08:53:19Z</time>
      </trkpt>
      <trkpt lat="46.31348" lon="2.77029">
        <ele>369.2</ele>
        <time>2019-11-01T08:53:20Z</time>
      </trkpt>
      <trkpt lat="46.31344" lon="2.77028">
        <ele>369.3</ele>
        <time>2019-11-01T08:53:21Z</time>
      </trkpt>
      <trkpt lat="46.3134" lon="2.77027">
        <ele>369.5</ele>
        <time>2019-11-01T08:53:22Z</time>
      </trkpt>
      <trkpt lat="46.31336" lon="2.77027">
        <ele>369.6</ele>
        <time>2019-11-01T08:53:23Z</time>
      </trkpt>
      <trkpt lat="46.31332" lon="2.77026">
        <ele>369.8</ele>
        <time>2019-11-01T08:53:24Z</time>
      </trkpt>
      <trkpt lat="46.31329" lon="2.77027">
        <ele>369.9</ele>
        <time>2019-11-01T08:53:25Z</time>
      </trkpt>
      <trkpt lat="46.31325" lon="2.77027">
        <ele>370.2</ele>
        <time>2019-11-01T08:53:26Z</time>
      </trkpt>
      <trkpt lat="46.31321" lon="2.77027">
        <ele>370.5</ele>
        <time>2019-11-01T08:53:27Z</time>
      </trkpt>
      <trkpt lat="46.31317" lon="2.77028">
        <ele>370.7</ele>
        <time>2019-11-01T08:53:28Z</time>
      </trkpt>
      <trkpt lat="46.31313" lon="2.77027">
        <ele>370.8</ele>
        <time>2019-11-01T08:53:29Z</time>
      </trkpt>
      <trkpt lat="46.31309" lon="2.77028">
        <ele>371</ele>
        <time>2019-11-01T08:53:30Z</time>
      </trkpt>
      <trkpt lat="46.31306" lon="2.77028">
        <ele>371.2</ele>
        <time>2019-11-01T08:53:31Z</time>
      </trkpt>
      <trkpt lat="46.31302" lon="2.77028">
        <ele>371.5</ele>
        <time>2019-11-01T08:53:32Z</time>
      </trkpt>
      <trkpt lat="46.31298" lon="2.77028">
        <ele>371.7</ele>
        <time>2019-11-01T08:53:33Z</time>
      </trkpt>
      <trkpt lat="46.31294" lon="2.77027">
        <ele>371.9</ele>
        <time>2019-11-01T08:53:34Z</time>
      </trkpt>
      <trkpt lat="46.3129" lon="2.77027">
        <ele>372.1</ele>
        <time>2019-11-01T08:53:35Z</time>
      </trkpt>
      <trkpt lat="46.31286" lon="2.77027">
        <ele>372.2</ele>
        <time>2019-11-01T08:53:36Z</time>
      </trkpt>
      <trkpt lat="46.31282" lon="2.77026">
        <ele>372.4</ele>
        <time>2019-11-01T08:53:37Z</time>
      </trkpt>
      <trkpt lat="46.31278" lon="2.77026">
        <ele>372.6</ele>
        <time>2019-11-01T08:53:38Z</time>
      </trkpt>
      <trkpt lat="46.31274" lon="2.77026">
        <ele>372.9</ele>
        <time>2019-11-01T08:53:39Z</time>
      </trkpt>
      <trkpt lat="46.3127" lon="2.77026">
        <ele>373.1</ele>
        <time>2019-11-01T08:53:40Z</time>
      </trkpt>
      <trkpt lat="46.31266" lon="2.77025">
        <ele>373.3</ele>
        <time>2019-11-01T08:53:41Z</time>
      </trkpt>
      <trkpt lat="46.31262" lon="2.77025">
        <ele>373.4</ele>
        <time>2019-11-01T08:53:42Z</time>
      </trkpt>
      <trkpt lat="46.31258" lon="2.77024">
        <ele>373.6</ele>
        <time>2019-11-01T08:53:43Z</time>
      </trkpt>
      <trkpt lat="46.31254" lon="2.77024">
        <ele>373.8</ele>
        <time>2019-11-01T08:53:44Z</time>
      </trkpt>
      <trkpt lat="46.3125" lon="2.77024">
        <ele>373.9</ele>
        <time>2019-11-01T08:53:45Z</time>
      </trkpt>
      <trkpt lat="46.31245" lon="2.77023">
        <ele>374.1</ele>
        <time>2019-11-01T08:53:46Z</time>
      </trkpt>
      <trkpt lat="46.31241" lon="2.77023">
        <ele>374.2</ele>
        <time>2019-11-01T08:53:47Z</time>
      </trkpt>
      <trkpt lat="46.31237" lon="2.77022">
        <ele>374.4</ele>
        <time>2019-11-01T08:53:48Z</time>
      </trkpt>
      <trkpt lat="46.31233" lon="2.77022">
        <ele>374.5</ele>
        <time>2019-11-01T08:53:49Z</time>
      </trkpt>
      <trkpt lat="46.3123" lon="2.77021">
        <ele>374.6</ele>
        <time>2019-11-01T08:53:50Z</time>
      </trkpt>
      <trkpt lat="46.31226" lon="2.7702">
        <ele>374.8</ele>
        <time>2019-11-01T08:53:51Z</time>
      </trkpt>
      <trkpt lat="46.31222" lon="2.7702">
        <ele>374.9</ele>
        <time>2019-11-01T08:53:52Z</time>
      </trkpt>
      <trkpt lat="46.31218" lon="2.77019">
        <ele>375</ele>
        <time>2019-11-01T08:53:53Z</time>
      </trkpt>
      <trkpt lat="46.31214" lon="2.77018">
        <ele>375.1</ele>
        <time>2019-11-01T08:53:54Z</time>
      </trkpt>
      <trkpt lat="46.3121" lon="2.77018">
        <ele>375.2</ele>
        <time>2019-11-01T08:53:55Z</time>
      </trkpt>
      <trkpt lat="46.31205" lon="2.77017">
        <ele>375.3</ele>
        <time>2019-11-01T08:53:56Z</time>
      </trkpt>
      <trkpt lat="46.31201" lon="2.77016">
        <ele>375.4</ele>
        <time>2019-11-01T08:53:57Z</time>
      </trkpt>
      <trkpt lat="46.31197" lon="2.77016">
        <ele>375.5</ele>
        <time>2019-11-01T08:53:58Z</time>
      </trkpt>
      <trkpt lat="46.31194" lon="2.77015">
        <ele>375.6</ele>
        <time>2019-11-01T08:53:59Z</time>
      </trkpt>
      <trkpt lat="46.31189" lon="2.77014">
        <ele>375.8</ele>
        <time>2019-11-01T08:54:00Z</time>
      </trkpt>
      <trkpt lat="46.31185" lon="2.77014">
        <ele>376</ele>
        <time>2019-11-01T08:54:01Z</time>
      </trkpt>
      <trkpt lat="46.31181" lon="2.77015">
        <ele>376.1</ele>
        <time>2019-11-01T08:54:02Z</time>
      </trkpt>
      <trkpt lat="46.31179" lon="2.77015">
        <ele>376.2</ele>
        <time>2019-11-01T08:54:03Z</time>
      </trkpt>
      <trkpt lat="46.31175" lon="2.77017">
        <ele>376.3</ele>
        <time>2019-11-01T08:54:04Z</time>
      </trkpt>
      <trkpt lat="46.31171" lon="2.77019">
        <ele>376.4</ele>
        <time>2019-11-01T08:54:05Z</time>
      </trkpt>
      <trkpt lat="46.31168" lon="2.77021">
        <ele>376.5</ele>
        <time>2019-11-01T08:54:06Z</time>
      </trkpt>
      <trkpt lat="46.31165" lon="2.77024">
        <ele>376.6</ele>
        <time>2019-11-01T08:54:07Z</time>
      </trkpt>
      <trkpt lat="46.31161" lon="2.77026">
        <ele>376.7</ele>
        <time>2019-11-01T08:54:08Z</time>
      </trkpt>
      <trkpt lat="46.31158" lon="2.77029">
        <ele>376.8</ele>
        <time>2019-11-01T08:54:09Z</time>
      </trkpt>
      <trkpt lat="46.31155" lon="2.77031">
        <ele>376.9</ele>
        <time>2019-11-01T08:54:10Z</time>
      </trkpt>
      <trkpt lat="46.31152" lon="2.77034">
        <ele>377.1</ele>
        <time>2019-11-01T08:54:11Z</time>
      </trkpt>
      <trkpt lat="46.31149" lon="2.77037">
        <ele>377.2</ele>
        <time>2019-11-01T08:54:12Z</time>
      </trkpt>
      <trkpt lat="46.31146" lon="2.7704">
        <ele>377.3</ele>
        <time>2019-11-01T08:54:13Z</time>
      </trkpt>
      <trkpt lat="46.31143" lon="2.77043">
        <ele>377.4</ele>
        <time>2019-11-01T08:54:14Z</time>
      </trkpt>
      <trkpt lat="46.3114" lon="2.77046">
        <ele>377.6</ele>
        <time>2019-11-01T08:54:15Z</time>
      </trkpt>
      <trkpt lat="46.31137" lon="2.77049">
        <ele>377.7</ele>
        <time>2019-11-01T08:54:16Z</time>
      </trkpt>
      <trkpt lat="46.31134" lon="2.77051">
        <ele>377.8</ele>
        <time>2019-11-01T08:54:17Z</time>
      </trkpt>
      <trkpt lat="46.31131" lon="2.77054">
        <ele>377.9</ele>
        <time>2019-11-01T08:54:18Z</time>
      </trkpt>
      <trkpt lat="46.31127" lon="2.77058">
        <ele>378</ele>
        <time>2019-11-01T08:54:19Z</time>
      </trkpt>
      <trkpt lat="46.31124" lon="2.77061">
        <ele>378.1</ele>
        <time>2019-11-01T08:54:20Z</time>
      </trkpt>
      <trkpt lat="46.31121" lon="2.77064">
        <ele>378.2</ele>
        <time>2019-11-01T08:54:21Z</time>
      </trkpt>
      <trkpt lat="46.31118" lon="2.77067">
        <ele>378.3</ele>
        <time>2019-11-01T08:54:22Z</time>
      </trkpt>
      <trkpt lat="46.31115" lon="2.7707">
        <ele>378.4</ele>
        <time>2019-11-01T08:54:23Z</time>
      </trkpt>
      <trkpt lat="46.31112" lon="2.77073">
        <ele>378.5</ele>
        <time>2019-11-01T08:54:24Z</time>
      </trkpt>
      <trkpt lat="46.31109" lon="2.77076">
        <ele>378.5</ele>
        <time>2019-11-01T08:54:25Z</time>
      </trkpt>
      <trkpt lat="46.31106" lon="2.77079">
        <ele>378.6</ele>
        <time>2019-11-01T08:54:26Z</time>
      </trkpt>
      <trkpt lat="46.31102" lon="2.77082">
        <ele>378.7</ele>
        <time>2019-11-01T08:54:27Z</time>
      </trkpt>
      <trkpt lat="46.31099" lon="2.77085">
        <ele>378.8</ele>
        <time>2019-11-01T08:54:28Z</time>
      </trkpt>
      <trkpt lat="46.31095" lon="2.77088">
        <ele>378.9</ele>
        <time>2019-11-01T08:54:29Z</time>
      </trkpt>
      <trkpt lat="46.31092" lon="2.77091">
        <ele>379</ele>
        <time>2019-11-01T08:54:30Z</time>
      </trkpt>
      <trkpt lat="46.31089" lon="2.77094">
        <ele>379</ele>
        <time>2019-11-01T08:54:31Z</time>
      </trkpt>
      <trkpt lat="46.31085" lon="2.77097">
        <ele>379.1</ele>
        <time>2019-11-01T08:54:32Z</time>
      </trkpt>
      <trkpt lat="46.31082" lon="2.771">
        <ele>379.1</ele>
        <time>2019-11-01T08:54:33Z</time>
      </trkpt>
      <trkpt lat="46.31079" lon="2.77103">
        <ele>379.1</ele>
        <time>2019-11-01T08:54:34Z</time>
      </trkpt>
      <trkpt lat="46.31075" lon="2.77106">
        <ele>379.1</ele>
        <time>2019-11-01T08:54:35Z</time>
      </trkpt>
      <trkpt lat="46.31072" lon="2.77109">
        <ele>379.2</ele>
        <time>2019-11-01T08:54:36Z</time>
      </trkpt>
      <trkpt lat="46.31069" lon="2.77112">
        <ele>379.2</ele>
        <time>2019-11-01T08:54:37Z</time>
      </trkpt>
      <trkpt lat="46.31065" lon="2.77114">
        <ele>379.2</ele>
        <time>2019-11-01T08:54:38Z</time>
      </trkpt>
      <trkpt lat="46.31062" lon="2.77117">
        <ele>379.2</ele>
        <time>2019-11-01T08:54:39Z</time>
      </trkpt>
      <trkpt lat="46.31059" lon="2.7712">
        <ele>379.2</ele>
        <time>2019-11-01T08:54:40Z</time>
      </trkpt>
      <trkpt lat="46.31055" lon="2.77123">
        <ele>379.2</ele>
        <time>2019-11-01T08:54:41Z</time>
      </trkpt>
      <trkpt lat="46.31052" lon="2.77126">
        <ele>379.2</ele>
        <time>2019-11-01T08:54:42Z</time>
      </trkpt>
      <trkpt lat="46.31049" lon="2.77129">
        <ele>379.2</ele>
        <time>2019-11-01T08:54:43Z</time>
      </trkpt>
      <trkpt lat="46.31046" lon="2.77133">
        <ele>379.2</ele>
        <time>2019-11-01T08:54:44Z</time>
      </trkpt>
      <trkpt lat="46.31042" lon="2.77136">
        <ele>379.2</ele>
        <time>2019-11-01T08:54:45Z</time>
      </trkpt>
      <trkpt lat="46.31039" lon="2.77139">
        <ele>379.2</ele>
        <time>2019-11-01T08:54:46Z</time>
      </trkpt>
      <trkpt lat="46.31035" lon="2.77142">
        <ele>379.2</ele>
        <time>2019-11-01T08:54:47Z</time>
      </trkpt>
      <trkpt lat="46.31032" lon="2.77145">
        <ele>379.2</ele>
        <time>2019-11-01T08:54:48Z</time>
      </trkpt>
      <trkpt lat="46.31028" lon="2.77148">
        <ele>379.2</ele>
        <time>2019-11-01T08:54:49Z</time>
      </trkpt>
      <trkpt lat="46.31025" lon="2.77151">
        <ele>379.2</ele>
        <time>2019-11-01T08:54:50Z</time>
      </trkpt>
      <trkpt lat="46.31021" lon="2.77154">
        <ele>379.2</ele>
        <time>2019-11-01T08:54:51Z</time>
      </trkpt>
      <trkpt lat="46.31017" lon="2.77157">
        <ele>379.2</ele>
        <time>2019-11-01T08:54:52Z</time>
      </trkpt>
      <trkpt lat="46.31013" lon="2.77161">
        <ele>379.2</ele>
        <time>2019-11-01T08:54:53Z</time>
      </trkpt>
      <trkpt lat="46.31009" lon="2.77164">
        <ele>379.2</ele>
        <time>2019-11-01T08:54:54Z</time>
      </trkpt>
      <trkpt lat="46.31006" lon="2.77167">
        <ele>379.2</ele>
        <time>2019-11-01T08:54:55Z</time>
      </trkpt>
      <trkpt lat="46.31001" lon="2.7717">
        <ele>379.2</ele>
        <time>2019-11-01T08:54:56Z</time>
      </trkpt>
      <trkpt lat="46.30997" lon="2.77173">
        <ele>379.2</ele>
        <time>2019-11-01T08:54:57Z</time>
      </trkpt>
      <trkpt lat="46.30993" lon="2.77176">
        <ele>379.2</ele>
        <time>2019-11-01T08:54:58Z</time>
      </trkpt>
      <trkpt lat="46.30989" lon="2.77179">
        <ele>379.2</ele>
        <time>2019-11-01T08:54:59Z</time>
      </trkpt>
      <trkpt lat="46.30985" lon="2.77182">
        <ele>379.2</ele>
        <time>2019-11-01T08:55:00Z</time>
      </trkpt>
      <trkpt lat="46.30981" lon="2.77185">
        <ele>379.2</ele>
        <time>2019-11-01T08:55:01Z</time>
      </trkpt>
      <trkpt lat="46.30977" lon="2.77187">
        <ele>379.2</ele>
        <time>2019-11-01T08:55:02Z</time>
      </trkpt>
      <trkpt lat="46.30973" lon="2.7719">
        <ele>379.2</ele>
        <time>2019-11-01T08:55:03Z</time>
      </trkpt>
      <trkpt lat="46.30968" lon="2.77193">
        <ele>379.3</ele>
        <time>2019-11-01T08:55:04Z</time>
      </trkpt>
      <trkpt lat="46.30964" lon="2.77196">
        <ele>379.3</ele>
        <time>2019-11-01T08:55:05Z</time>
      </trkpt>
      <trkpt lat="46.3096" lon="2.77198">
        <ele>379.3</ele>
        <time>2019-11-01T08:55:06Z</time>
      </trkpt>
      <trkpt lat="46.30956" lon="2.77201">
        <ele>379.3</ele>
        <time>2019-11-01T08:55:07Z</time>
      </trkpt>
      <trkpt lat="46.30951" lon="2.77203">
        <ele>379.3</ele>
        <time>2019-11-01T08:55:08Z</time>
      </trkpt>
      <trkpt lat="46.30947" lon="2.77205">
        <ele>379.4</ele>
        <time>2019-11-01T08:55:09Z</time>
      </trkpt>
      <trkpt lat="46.30943" lon="2.77207">
        <ele>379.4</ele>
        <time>2019-11-01T08:55:10Z</time>
      </trkpt>
      <trkpt lat="46.30939" lon="2.77209">
        <ele>379.5</ele>
        <time>2019-11-01T08:55:11Z</time>
      </trkpt>
      <trkpt lat="46.30934" lon="2.77212">
        <ele>379.6</ele>
        <time>2019-11-01T08:55:12Z</time>
      </trkpt>
      <trkpt lat="46.3093" lon="2.77214">
        <ele>379.7</ele>
        <time>2019-11-01T08:55:13Z</time>
      </trkpt>
      <trkpt lat="46.30925" lon="2.77216">
        <ele>379.9</ele>
        <time>2019-11-01T08:55:14Z</time>
      </trkpt>
      <trkpt lat="46.30921" lon="2.77218">
        <ele>380</ele>
        <time>2019-11-01T08:55:15Z</time>
      </trkpt>
      <trkpt lat="46.30917" lon="2.77221">
        <ele>380.1</ele>
        <time>2019-11-01T08:55:16Z</time>
      </trkpt>
      <trkpt lat="46.30912" lon="2.77223">
        <ele>380.2</ele>
        <time>2019-11-01T08:55:17Z</time>
      </trkpt>
      <trkpt lat="46.30908" lon="2.77226">
        <ele>380.2</ele>
        <time>2019-11-01T08:55:18Z</time>
      </trkpt>
      <trkpt lat="46.30904" lon="2.77228">
        <ele>380.3</ele>
        <time>2019-11-01T08:55:19Z</time>
      </trkpt>
      <trkpt lat="46.30899" lon="2.7723">
        <ele>380.3</ele>
        <time>2019-11-01T08:55:20Z</time>
      </trkpt>
      <trkpt lat="46.30895" lon="2.77233">
        <ele>380.3</ele>
        <time>2019-11-01T08:55:21Z</time>
      </trkpt>
      <trkpt lat="46.30891" lon="2.77236">
        <ele>380.3</ele>
        <time>2019-11-01T08:55:22Z</time>
      </trkpt>
      <trkpt lat="46.30887" lon="2.77238">
        <ele>380.3</ele>
        <time>2019-11-01T08:55:23Z</time>
      </trkpt>
      <trkpt lat="46.30883" lon="2.77241">
        <ele>380.3</ele>
        <time>2019-11-01T08:55:24Z</time>
      </trkpt>
      <trkpt lat="46.30879" lon="2.77243">
        <ele>380.3</ele>
        <time>2019-11-01T08:55:25Z</time>
      </trkpt>
      <trkpt lat="46.30874" lon="2.77246">
        <ele>380.3</ele>
        <time>2019-11-01T08:55:26Z</time>
      </trkpt>
      <trkpt lat="46.3087" lon="2.77248">
        <ele>380.3</ele>
        <time>2019-11-01T08:55:27Z</time>
      </trkpt>
      <trkpt lat="46.30866" lon="2.77251">
        <ele>380.3</ele>
        <time>2019-11-01T08:55:28Z</time>
      </trkpt>
      <trkpt lat="46.30862" lon="2.77253">
        <ele>380.2</ele>
        <time>2019-11-01T08:55:29Z</time>
      </trkpt>
      <trkpt lat="46.30858" lon="2.77256">
        <ele>380.2</ele>
        <time>2019-11-01T08:55:30Z</time>
      </trkpt>
      <trkpt lat="46.30854" lon="2.77259">
        <ele>380.1</ele>
        <time>2019-11-01T08:55:31Z</time>
      </trkpt>
      <trkpt lat="46.30849" lon="2.77262">
        <ele>379.9</ele>
        <time>2019-11-01T08:55:57Z</time>
      </trkpt>
      <trkpt lat="46.30845" lon="2.77264">
        <ele>379.8</ele>
        <time>2019-11-01T08:55:58Z</time>
      </trkpt>
      <trkpt lat="46.30841" lon="2.77266">
        <ele>379.7</ele>
        <time>2019-11-01T08:55:59Z</time>
      </trkpt>
      <trkpt lat="46.30837" lon="2.77269">
        <ele>379.6</ele>
        <time>2019-11-01T08:56:00Z</time>
      </trkpt>
      <trkpt lat="46.30832" lon="2.77271">
        <ele>379.6</ele>
        <time>2019-11-01T08:56:01Z</time>
      </trkpt>
      <trkpt lat="46.30828" lon="2.77274">
        <ele>379.5</ele>
        <time>2019-11-01T08:56:02Z</time>
      </trkpt>
      <trkpt lat="46.30824" lon="2.77276">
        <ele>379.6</ele>
        <time>2019-11-01T08:56:03Z</time>
      </trkpt>
      <trkpt lat="46.30819" lon="2.77277">
        <ele>379.6</ele>
        <time>2019-11-01T08:56:04Z</time>
      </trkpt>
      <trkpt lat="46.30815" lon="2.77279">
        <ele>379.7</ele>
        <time>2019-11-01T08:56:05Z</time>
      </trkpt>
      <trkpt lat="46.30811" lon="2.77281">
        <ele>379.9</ele>
        <time>2019-11-01T08:56:06Z</time>
      </trkpt>
      <trkpt lat="46.30808" lon="2.77284">
        <ele>380.1</ele>
        <time>2019-11-01T08:56:07Z</time>
      </trkpt>
      <trkpt lat="46.30805" lon="2.77288">
        <ele>380.4</ele>
        <time>2019-11-01T08:56:08Z</time>
      </trkpt>
      <trkpt lat="46.30805" lon="2.77291">
        <ele>380.4</ele>
        <time>2019-11-01T08:56:09Z</time>
      </trkpt>
      <trkpt lat="46.30806" lon="2.77295">
        <ele>380.4</ele>
        <time>2019-11-01T08:56:10Z</time>
      </trkpt>
      <trkpt lat="46.30806" lon="2.77295">
        <ele>380.4</ele>
        <time>2019-11-01T08:56:11Z</time>
      </trkpt>
      <trkpt lat="46.30806" lon="2.77296">
        <ele>380.4</ele>
        <time>2019-11-01T08:56:12Z</time>
      </trkpt>
      <trkpt lat="46.30808" lon="2.773">
        <ele>380.4</ele>
        <time>2019-11-01T08:56:13Z</time>
      </trkpt>
      <trkpt lat="46.30811" lon="2.77304">
        <ele>380.4</ele>
        <time>2019-11-01T08:56:14Z</time>
      </trkpt>
      <trkpt lat="46.30813" lon="2.7731">
        <ele>380.4</ele>
        <time>2019-11-01T08:56:15Z</time>
      </trkpt>
      <trkpt lat="46.30816" lon="2.77316">
        <ele>380.4</ele>
        <time>2019-11-01T08:56:16Z</time>
      </trkpt>
      <trkpt lat="46.30818" lon="2.77322">
        <ele>380.4</ele>
        <time>2019-11-01T08:56:17Z</time>
      </trkpt>
      <trkpt lat="46.30821" lon="2.77329">
        <ele>380.4</ele>
        <time>2019-11-01T08:56:18Z</time>
      </trkpt>
      <trkpt lat="46.30823" lon="2.77336">
        <ele>380.4</ele>
        <time>2019-11-01T08:56:19Z</time>
      </trkpt>
      <trkpt lat="46.30826" lon="2.77342">
        <ele>380.4</ele>
        <time>2019-11-01T08:56:20Z</time>
      </trkpt>
      <trkpt lat="46.30829" lon="2.77348">
        <ele>380.4</ele>
        <time>2019-11-01T08:56:21Z</time>
      </trkpt>
      <trkpt lat="46.30831" lon="2.77354">
        <ele>380.5</ele>
        <time>2019-11-01T08:56:22Z</time>
      </trkpt>
      <trkpt lat="46.30833" lon="2.77359">
        <ele>380.5</ele>
        <time>2019-11-01T08:56:23Z</time>
      </trkpt>
      <trkpt lat="46.30835" lon="2.77365">
        <ele>380.6</ele>
        <time>2019-11-01T08:56:24Z</time>
      </trkpt>
      <trkpt lat="46.30838" lon="2.77371">
        <ele>380.7</ele>
        <time>2019-11-01T08:56:25Z</time>
      </trkpt>
      <trkpt lat="46.3084" lon="2.77377">
        <ele>380.8</ele>
        <time>2019-11-01T08:56:26Z</time>
      </trkpt>
      <trkpt lat="46.30842" lon="2.77383">
        <ele>380.9</ele>
        <time>2019-11-01T08:56:27Z</time>
      </trkpt>
      <trkpt lat="46.30844" lon="2.7739">
        <ele>381</ele>
        <time>2019-11-01T08:56:28Z</time>
      </trkpt>
      <trkpt lat="46.30846" lon="2.77397">
        <ele>381.1</ele>
        <time>2019-11-01T08:56:29Z</time>
      </trkpt>
      <trkpt lat="46.30849" lon="2.77403">
        <ele>381.2</ele>
        <time>2019-11-01T08:56:30Z</time>
      </trkpt>
      <trkpt lat="46.30851" lon="2.77409">
        <ele>381.4</ele>
        <time>2019-11-01T08:56:31Z</time>
      </trkpt>
      <trkpt lat="46.30854" lon="2.77415">
        <ele>381.5</ele>
        <time>2019-11-01T08:56:32Z</time>
      </trkpt>
      <trkpt lat="46.30856" lon="2.77422">
        <ele>381.6</ele>
        <time>2019-11-01T08:56:33Z</time>
      </trkpt>
      <trkpt lat="46.30859" lon="2.77428">
        <ele>381.7</ele>
        <time>2019-11-01T08:56:34Z</time>
      </trkpt>
      <trkpt lat="46.30862" lon="2.77435">
        <ele>381.9</ele>
        <time>2019-11-01T08:56:35Z</time>
      </trkpt>
      <trkpt lat="46.30864" lon="2.77441">
        <ele>382</ele>
        <time>2019-11-01T08:56:36Z</time>
      </trkpt>
      <trkpt lat="46.30867" lon="2.77448">
        <ele>382.2</ele>
        <time>2019-11-01T08:56:37Z</time>
      </trkpt>
      <trkpt lat="46.30869" lon="2.77455">
        <ele>382.3</ele>
        <time>2019-11-01T08:56:38Z</time>
      </trkpt>
      <trkpt lat="46.30872" lon="2.77461">
        <ele>382.5</ele>
        <time>2019-11-01T08:56:39Z</time>
      </trkpt>
      <trkpt lat="46.30874" lon="2.77468">
        <ele>382.7</ele>
        <time>2019-11-01T08:56:40Z</time>
      </trkpt>
      <trkpt lat="46.30877" lon="2.77475">
        <ele>382.8</ele>
        <time>2019-11-01T08:56:41Z</time>
      </trkpt>
      <trkpt lat="46.3088" lon="2.77482">
        <ele>383</ele>
        <time>2019-11-01T08:56:42Z</time>
      </trkpt>
      <trkpt lat="46.30882" lon="2.77488">
        <ele>383.2</ele>
        <time>2019-11-01T08:56:43Z</time>
      </trkpt>
      <trkpt lat="46.30884" lon="2.77495">
        <ele>383.4</ele>
        <time>2019-11-01T08:56:44Z</time>
      </trkpt>
      <trkpt lat="46.30887" lon="2.77502">
        <ele>383.6</ele>
        <time>2019-11-01T08:56:45Z</time>
      </trkpt>
      <trkpt lat="46.30889" lon="2.77509">
        <ele>383.8</ele>
        <time>2019-11-01T08:56:46Z</time>
      </trkpt>
      <trkpt lat="46.30892" lon="2.77516">
        <ele>383.9</ele>
        <time>2019-11-01T08:56:47Z</time>
      </trkpt>
      <trkpt lat="46.30894" lon="2.77522">
        <ele>384.1</ele>
        <time>2019-11-01T08:56:48Z</time>
      </trkpt>
      <trkpt lat="46.30897" lon="2.77529">
        <ele>384.2</ele>
        <time>2019-11-01T08:56:49Z</time>
      </trkpt>
      <trkpt lat="46.30899" lon="2.77536">
        <ele>384.3</ele>
        <time>2019-11-01T08:56:50Z</time>
      </trkpt>
      <trkpt lat="46.30901" lon="2.77542">
        <ele>384.3</ele>
        <time>2019-11-01T08:56:51Z</time>
      </trkpt>
      <trkpt lat="46.30903" lon="2.77549">
        <ele>384.4</ele>
        <time>2019-11-01T08:56:52Z</time>
      </trkpt>
      <trkpt lat="46.30905" lon="2.77556">
        <ele>384.4</ele>
        <time>2019-11-01T08:56:53Z</time>
      </trkpt>
      <trkpt lat="46.30907" lon="2.77564">
        <ele>384.5</ele>
        <time>2019-11-01T08:56:54Z</time>
      </trkpt>
      <trkpt lat="46.30909" lon="2.77571">
        <ele>384.5</ele>
        <time>2019-11-01T08:56:55Z</time>
      </trkpt>
      <trkpt lat="46.30912" lon="2.77579">
        <ele>384.6</ele>
        <time>2019-11-01T08:56:56Z</time>
      </trkpt>
      <trkpt lat="46.30914" lon="2.77587">
        <ele>384.7</ele>
        <time>2019-11-01T08:56:57Z</time>
      </trkpt>
      <trkpt lat="46.30916" lon="2.77594">
        <ele>384.9</ele>
        <time>2019-11-01T08:56:58Z</time>
      </trkpt>
      <trkpt lat="46.30918" lon="2.77602">
        <ele>385</ele>
        <time>2019-11-01T08:56:59Z</time>
      </trkpt>
      <trkpt lat="46.30921" lon="2.77609">
        <ele>385.2</ele>
        <time>2019-11-01T08:57:00Z</time>
      </trkpt>
      <trkpt lat="46.30923" lon="2.77617">
        <ele>385.4</ele>
        <time>2019-11-01T08:57:01Z</time>
      </trkpt>
      <trkpt lat="46.30926" lon="2.77625">
        <ele>385.6</ele>
        <time>2019-11-01T08:57:02Z</time>
      </trkpt>
      <trkpt lat="46.30929" lon="2.77633">
        <ele>385.7</ele>
        <time>2019-11-01T08:57:03Z</time>
      </trkpt>
      <trkpt lat="46.30932" lon="2.77642">
        <ele>385.9</ele>
        <time>2019-11-01T08:57:04Z</time>
      </trkpt>
      <trkpt lat="46.30935" lon="2.7765">
        <ele>386.1</ele>
        <time>2019-11-01T08:57:05Z</time>
      </trkpt>
      <trkpt lat="46.30938" lon="2.77658">
        <ele>386.2</ele>
        <time>2019-11-01T08:57:06Z</time>
      </trkpt>
      <trkpt lat="46.3094" lon="2.77666">
        <ele>386.4</ele>
        <time>2019-11-01T08:57:07Z</time>
      </trkpt>
      <trkpt lat="46.30943" lon="2.77674">
        <ele>386.5</ele>
        <time>2019-11-01T08:57:08Z</time>
      </trkpt>
      <trkpt lat="46.30945" lon="2.77681">
        <ele>386.7</ele>
        <time>2019-11-01T08:57:09Z</time>
      </trkpt>
      <trkpt lat="46.30947" lon="2.7769">
        <ele>386.8</ele>
        <time>2019-11-01T08:57:10Z</time>
      </trkpt>
      <trkpt lat="46.3095" lon="2.77698">
        <ele>386.9</ele>
        <time>2019-11-01T08:57:11Z</time>
      </trkpt>
      <trkpt lat="46.30952" lon="2.77707">
        <ele>387.1</ele>
        <time>2019-11-01T08:57:12Z</time>
      </trkpt>
      <trkpt lat="46.30954" lon="2.77715">
        <ele>387.2</ele>
        <time>2019-11-01T08:57:13Z</time>
      </trkpt>
      <trkpt lat="46.30956" lon="2.77723">
        <ele>387.3</ele>
        <time>2019-11-01T08:57:14Z</time>
      </trkpt>
      <trkpt lat="46.30958" lon="2.77731">
        <ele>387.4</ele>
        <time>2019-11-01T08:57:15Z</time>
      </trkpt>
      <trkpt lat="46.30961" lon="2.77738">
        <ele>387.4</ele>
        <time>2019-11-01T08:57:16Z</time>
      </trkpt>
      <trkpt lat="46.30964" lon="2.77746">
        <ele>387.4</ele>
        <time>2019-11-01T08:57:17Z</time>
      </trkpt>
      <trkpt lat="46.30966" lon="2.77754">
        <ele>387.5</ele>
        <time>2019-11-01T08:57:18Z</time>
      </trkpt>
      <trkpt lat="46.30969" lon="2.77762">
        <ele>387.5</ele>
        <time>2019-11-01T08:57:19Z</time>
      </trkpt>
      <trkpt lat="46.30972" lon="2.77769">
        <ele>387.5</ele>
        <time>2019-11-01T08:57:20Z</time>
      </trkpt>
      <trkpt lat="46.30975" lon="2.77776">
        <ele>387.6</ele>
        <time>2019-11-01T08:57:21Z</time>
      </trkpt>
      <trkpt lat="46.30978" lon="2.77783">
        <ele>387.7</ele>
        <time>2019-11-01T08:57:22Z</time>
      </trkpt>
      <trkpt lat="46.30981" lon="2.7779">
        <ele>387.8</ele>
        <time>2019-11-01T08:57:23Z</time>
      </trkpt>
      <trkpt lat="46.30985" lon="2.77798">
        <ele>387.9</ele>
        <time>2019-11-01T08:57:24Z</time>
      </trkpt>
      <trkpt lat="46.30988" lon="2.77805">
        <ele>388.1</ele>
        <time>2019-11-01T08:57:25Z</time>
      </trkpt>
      <trkpt lat="46.30991" lon="2.77812">
        <ele>388.2</ele>
        <time>2019-11-01T08:57:26Z</time>
      </trkpt>
      <trkpt lat="46.30994" lon="2.77819">
        <ele>388.3</ele>
        <time>2019-11-01T08:57:27Z</time>
      </trkpt>
      <trkpt lat="46.30998" lon="2.77826">
        <ele>388.5</ele>
        <time>2019-11-01T08:57:28Z</time>
      </trkpt>
      <trkpt lat="46.31001" lon="2.77833">
        <ele>388.6</ele>
        <time>2019-11-01T08:57:29Z</time>
      </trkpt>
      <trkpt lat="46.31005" lon="2.7784">
        <ele>388.8</ele>
        <time>2019-11-01T08:57:30Z</time>
      </trkpt>
      <trkpt lat="46.31008" lon="2.77847">
        <ele>389</ele>
        <time>2019-11-01T08:57:31Z</time>
      </trkpt>
      <trkpt lat="46.31012" lon="2.77853">
        <ele>389.1</ele>
        <time>2019-11-01T08:57:32Z</time>
      </trkpt>
      <trkpt lat="46.31016" lon="2.7786">
        <ele>389.3</ele>
        <time>2019-11-01T08:57:33Z</time>
      </trkpt>
      <trkpt lat="46.3102" lon="2.77866">
        <ele>389.3</ele>
        <time>2019-11-01T08:57:34Z</time>
      </trkpt>
      <trkpt lat="46.31024" lon="2.77873">
        <ele>389.3</ele>
        <time>2019-11-01T08:57:35Z</time>
      </trkpt>
      <trkpt lat="46.31028" lon="2.77879">
        <ele>389.3</ele>
        <time>2019-11-01T08:57:36Z</time>
      </trkpt>
      <trkpt lat="46.31032" lon="2.77885">
        <ele>389.2</ele>
        <time>2019-11-01T08:57:37Z</time>
      </trkpt>
      <trkpt lat="46.31036" lon="2.77891">
        <ele>389</ele>
        <time>2019-11-01T08:57:38Z</time>
      </trkpt>
      <trkpt lat="46.3104" lon="2.77896">
        <ele>388.8</ele>
        <time>2019-11-01T08:57:39Z</time>
      </trkpt>
      <trkpt lat="46.31044" lon="2.77903">
        <ele>388.5</ele>
        <time>2019-11-01T08:57:40Z</time>
      </trkpt>
      <trkpt lat="46.31048" lon="2.7791">
        <ele>388.2</ele>
        <time>2019-11-01T08:57:41Z</time>
      </trkpt>
      <trkpt lat="46.31051" lon="2.77918">
        <ele>387.9</ele>
        <time>2019-11-01T08:57:42Z</time>
      </trkpt>
      <trkpt lat="46.31054" lon="2.77928">
        <ele>387.7</ele>
        <time>2019-11-01T08:57:43Z</time>
      </trkpt>
      <trkpt lat="46.31056" lon="2.77937">
        <ele>387.5</ele>
        <time>2019-11-01T08:57:44Z</time>
      </trkpt>
      <trkpt lat="46.31058" lon="2.77947">
        <ele>387.5</ele>
        <time>2019-11-01T08:57:45Z</time>
      </trkpt>
      <trkpt lat="46.3106" lon="2.77958">
        <ele>387.4</ele>
        <time>2019-11-01T08:57:46Z</time>
      </trkpt>
      <trkpt lat="46.31062" lon="2.77969">
        <ele>387.4</ele>
        <time>2019-11-01T08:57:47Z</time>
      </trkpt>
      <trkpt lat="46.31064" lon="2.7798">
        <ele>387.2</ele>
        <time>2019-11-01T08:57:48Z</time>
      </trkpt>
      <trkpt lat="46.31066" lon="2.77991">
        <ele>386.9</ele>
        <time>2019-11-01T08:57:49Z</time>
      </trkpt>
      <trkpt lat="46.31067" lon="2.78001">
        <ele>386.6</ele>
        <time>2019-11-01T08:57:50Z</time>
      </trkpt>
      <trkpt lat="46.31069" lon="2.78012">
        <ele>386.3</ele>
        <time>2019-11-01T08:57:51Z</time>
      </trkpt>
      <trkpt lat="46.31071" lon="2.78022">
        <ele>386</ele>
        <time>2019-11-01T08:57:52Z</time>
      </trkpt>
      <trkpt lat="46.31072" lon="2.78033">
        <ele>385.8</ele>
        <time>2019-11-01T08:57:53Z</time>
      </trkpt>
      <trkpt lat="46.31073" lon="2.78043">
        <ele>385.6</ele>
        <time>2019-11-01T08:57:54Z</time>
      </trkpt>
      <trkpt lat="46.31074" lon="2.78054">
        <ele>385.5</ele>
        <time>2019-11-01T08:57:55Z</time>
      </trkpt>
      <trkpt lat="46.31074" lon="2.78065">
        <ele>385.5</ele>
        <time>2019-11-01T08:57:56Z</time>
      </trkpt>
      <trkpt lat="46.31074" lon="2.78075">
        <ele>385.5</ele>
        <time>2019-11-01T08:57:57Z</time>
      </trkpt>
      <trkpt lat="46.31075" lon="2.78085">
        <ele>385.5</ele>
        <time>2019-11-01T08:57:58Z</time>
      </trkpt>
      <trkpt lat="46.31074" lon="2.78095">
        <ele>385.5</ele>
        <time>2019-11-01T08:57:59Z</time>
      </trkpt>
      <trkpt lat="46.31074" lon="2.78105">
        <ele>385.5</ele>
        <time>2019-11-01T08:58:00Z</time>
      </trkpt>
      <trkpt lat="46.31075" lon="2.78114">
        <ele>385.5</ele>
        <time>2019-11-01T08:58:01Z</time>
      </trkpt>
      <trkpt lat="46.31076" lon="2.78124">
        <ele>385.5</ele>
        <time>2019-11-01T08:58:02Z</time>
      </trkpt>
      <trkpt lat="46.31077" lon="2.78133">
        <ele>385.5</ele>
        <time>2019-11-01T08:58:03Z</time>
      </trkpt>
      <trkpt lat="46.31078" lon="2.78142">
        <ele>385.5</ele>
        <time>2019-11-01T08:58:04Z</time>
      </trkpt>
      <trkpt lat="46.31079" lon="2.78151">
        <ele>385.5</ele>
        <time>2019-11-01T08:58:05Z</time>
      </trkpt>
      <trkpt lat="46.31079" lon="2.7816">
        <ele>385.5</ele>
        <time>2019-11-01T08:58:06Z</time>
      </trkpt>
      <trkpt lat="46.3108" lon="2.78169">
        <ele>385.5</ele>
        <time>2019-11-01T08:58:07Z</time>
      </trkpt>
      <trkpt lat="46.31081" lon="2.78178">
        <ele>385.5</ele>
        <time>2019-11-01T08:58:08Z</time>
      </trkpt>
      <trkpt lat="46.31081" lon="2.78186">
        <ele>385.5</ele>
        <time>2019-11-01T08:58:09Z</time>
      </trkpt>
      <trkpt lat="46.31082" lon="2.78195">
        <ele>385.5</ele>
        <time>2019-11-01T08:58:10Z</time>
      </trkpt>
      <trkpt lat="46.31083" lon="2.78203">
        <ele>385.5</ele>
        <time>2019-11-01T08:58:11Z</time>
      </trkpt>
      <trkpt lat="46.31084" lon="2.78211">
        <ele>385.5</ele>
        <time>2019-11-01T08:58:12Z</time>
      </trkpt>
      <trkpt lat="46.31084" lon="2.78218">
        <ele>385.5</ele>
        <time>2019-11-01T08:58:13Z</time>
      </trkpt>
      <trkpt lat="46.31085" lon="2.78227">
        <ele>385.4</ele>
        <time>2019-11-01T08:58:14Z</time>
      </trkpt>
      <trkpt lat="46.31085" lon="2.78236">
        <ele>385.3</ele>
        <time>2019-11-01T08:58:15Z</time>
      </trkpt>
      <trkpt lat="46.31086" lon="2.78245">
        <ele>385.3</ele>
        <time>2019-11-01T08:58:16Z</time>
      </trkpt>
      <trkpt lat="46.31086" lon="2.78254">
        <ele>385.1</ele>
        <time>2019-11-01T08:58:17Z</time>
      </trkpt>
      <trkpt lat="46.31087" lon="2.78264">
        <ele>384.8</ele>
        <time>2019-11-01T08:58:18Z</time>
      </trkpt>
      <trkpt lat="46.31089" lon="2.78275">
        <ele>384.5</ele>
        <time>2019-11-01T08:58:19Z</time>
      </trkpt>
      <trkpt lat="46.31092" lon="2.78285">
        <ele>384.2</ele>
        <time>2019-11-01T08:58:20Z</time>
      </trkpt>
      <trkpt lat="46.31095" lon="2.78295">
        <ele>384</ele>
        <time>2019-11-01T08:58:21Z</time>
      </trkpt>
      <trkpt lat="46.31099" lon="2.78305">
        <ele>383.7</ele>
        <time>2019-11-01T08:58:22Z</time>
      </trkpt>
      <trkpt lat="46.31102" lon="2.78315">
        <ele>383.6</ele>
        <time>2019-11-01T08:58:23Z</time>
      </trkpt>
      <trkpt lat="46.31106" lon="2.78325">
        <ele>383.4</ele>
        <time>2019-11-01T08:58:24Z</time>
      </trkpt>
      <trkpt lat="46.31109" lon="2.78336">
        <ele>383.2</ele>
        <time>2019-11-01T08:58:25Z</time>
      </trkpt>
      <trkpt lat="46.31113" lon="2.78347">
        <ele>382.9</ele>
        <time>2019-11-01T08:58:26Z</time>
      </trkpt>
      <trkpt lat="46.31116" lon="2.78357">
        <ele>382.4</ele>
        <time>2019-11-01T08:58:27Z</time>
      </trkpt>
      <trkpt lat="46.3112" lon="2.78367">
        <ele>382</ele>
        <time>2019-11-01T08:58:28Z</time>
      </trkpt>
      <trkpt lat="46.31124" lon="2.78376">
        <ele>381.6</ele>
        <time>2019-11-01T08:58:29Z</time>
      </trkpt>
      <trkpt lat="46.31127" lon="2.78386">
        <ele>381.3</ele>
        <time>2019-11-01T08:58:30Z</time>
      </trkpt>
      <trkpt lat="46.31131" lon="2.78396">
        <ele>381</ele>
        <time>2019-11-01T08:58:31Z</time>
      </trkpt>
      <trkpt lat="46.31134" lon="2.78405">
        <ele>380.8</ele>
        <time>2019-11-01T08:58:32Z</time>
      </trkpt>
      <trkpt lat="46.31138" lon="2.78415">
        <ele>380.7</ele>
        <time>2019-11-01T08:58:33Z</time>
      </trkpt>
      <trkpt lat="46.31141" lon="2.78426">
        <ele>380.6</ele>
        <time>2019-11-01T08:58:34Z</time>
      </trkpt>
      <trkpt lat="46.31144" lon="2.78436">
        <ele>380.5</ele>
        <time>2019-11-01T08:58:35Z</time>
      </trkpt>
      <trkpt lat="46.31148" lon="2.78446">
        <ele>380.5</ele>
        <time>2019-11-01T08:58:36Z</time>
      </trkpt>
      <trkpt lat="46.31151" lon="2.78457">
        <ele>380.3</ele>
        <time>2019-11-01T08:58:37Z</time>
      </trkpt>
      <trkpt lat="46.31154" lon="2.78467">
        <ele>380.2</ele>
        <time>2019-11-01T08:58:38Z</time>
      </trkpt>
      <trkpt lat="46.31157" lon="2.78478">
        <ele>380</ele>
        <time>2019-11-01T08:58:39Z</time>
      </trkpt>
      <trkpt lat="46.3116" lon="2.78488">
        <ele>379.8</ele>
        <time>2019-11-01T08:58:40Z</time>
      </trkpt>
      <trkpt lat="46.31162" lon="2.78499">
        <ele>379.7</ele>
        <time>2019-11-01T08:58:41Z</time>
      </trkpt>
      <trkpt lat="46.31164" lon="2.78509">
        <ele>379.6</ele>
        <time>2019-11-01T08:58:42Z</time>
      </trkpt>
      <trkpt lat="46.31165" lon="2.78519">
        <ele>379.6</ele>
        <time>2019-11-01T08:59:01Z</time>
      </trkpt>
      <trkpt lat="46.31167" lon="2.78529">
        <ele>379.6</ele>
        <time>2019-11-01T08:59:02Z</time>
      </trkpt>
      <trkpt lat="46.31168" lon="2.7854">
        <ele>379.6</ele>
        <time>2019-11-01T08:59:03Z</time>
      </trkpt>
      <trkpt lat="46.31168" lon="2.78551">
        <ele>379.4</ele>
        <time>2019-11-01T08:59:04Z</time>
      </trkpt>
      <trkpt lat="46.31168" lon="2.78561">
        <ele>379.2</ele>
        <time>2019-11-01T08:59:05Z</time>
      </trkpt>
      <trkpt lat="46.31167" lon="2.78571">
        <ele>379.1</ele>
        <time>2019-11-01T08:59:06Z</time>
      </trkpt>
      <trkpt lat="46.31166" lon="2.78582">
        <ele>379</ele>
        <time>2019-11-01T08:59:07Z</time>
      </trkpt>
      <trkpt lat="46.31165" lon="2.78594">
        <ele>378.8</ele>
        <time>2019-11-01T08:59:08Z</time>
      </trkpt>
      <trkpt lat="46.31163" lon="2.78601">
        <ele>378.7</ele>
        <time>2019-11-01T08:59:09Z</time>
      </trkpt>
      <trkpt lat="46.31161" lon="2.78611">
        <ele>378.6</ele>
        <time>2019-11-01T08:59:10Z</time>
      </trkpt>
      <trkpt lat="46.31159" lon="2.78619">
        <ele>378.4</ele>
        <time>2019-11-01T08:59:11Z</time>
      </trkpt>
      <trkpt lat="46.31157" lon="2.78626">
        <ele>378.3</ele>
        <time>2019-11-01T08:59:12Z</time>
      </trkpt>
      <trkpt lat="46.31156" lon="2.78631">
        <ele>378.2</ele>
        <time>2019-11-01T08:59:13Z</time>
      </trkpt>
      <trkpt lat="46.31154" lon="2.78632">
        <ele>378.2</ele>
        <time>2019-11-01T08:59:14Z</time>
      </trkpt>
      <trkpt lat="46.31154" lon="2.78632">
        <ele>378.2</ele>
        <time>2019-11-01T08:59:15Z</time>
      </trkpt>
      <trkpt lat="46.31154" lon="2.78632">
        <ele>378.2</ele>
        <time>2019-11-01T08:59:16Z</time>
      </trkpt>
      <trkpt lat="46.31153" lon="2.78636">
        <ele>378.1</ele>
        <time>2019-11-01T08:59:17Z</time>
      </trkpt>
      <trkpt lat="46.31153" lon="2.78641">
        <ele>378.1</ele>
        <time>2019-11-01T08:59:18Z</time>
      </trkpt>
      <trkpt lat="46.31152" lon="2.78645">
        <ele>378.1</ele>
        <time>2019-11-01T08:59:19Z</time>
      </trkpt>
      <trkpt lat="46.31152" lon="2.7865">
        <ele>378.2</ele>
        <time>2019-11-01T08:59:20Z</time>
      </trkpt>
      <trkpt lat="46.31151" lon="2.78655">
        <ele>378.2</ele>
        <time>2019-11-01T08:59:21Z</time>
      </trkpt>
      <trkpt lat="46.3115" lon="2.78661">
        <ele>378.3</ele>
        <time>2019-11-01T08:59:22Z</time>
      </trkpt>
      <trkpt lat="46.31149" lon="2.78667">
        <ele>378.3</ele>
        <time>2019-11-01T08:59:23Z</time>
      </trkpt>
      <trkpt lat="46.31148" lon="2.78673">
        <ele>378.3</ele>
        <time>2019-11-01T08:59:24Z</time>
      </trkpt>
      <trkpt lat="46.31148" lon="2.78679">
        <ele>378.4</ele>
        <time>2019-11-01T08:59:25Z</time>
      </trkpt>
      <trkpt lat="46.31147" lon="2.78685">
        <ele>378.1</ele>
        <time>2019-11-01T08:59:26Z</time>
      </trkpt>
      <trkpt lat="46.31147" lon="2.78692">
        <ele>377.9</ele>
        <time>2019-11-01T08:59:27Z</time>
      </trkpt>
      <trkpt lat="46.31146" lon="2.78699">
        <ele>377.7</ele>
        <time>2019-11-01T08:59:28Z</time>
      </trkpt>
      <trkpt lat="46.31146" lon="2.78707">
        <ele>377.6</ele>
        <time>2019-11-01T08:59:29Z</time>
      </trkpt>
      <trkpt lat="46.31145" lon="2.78716">
        <ele>377.5</ele>
        <time>2019-11-01T08:59:30Z</time>
      </trkpt>
      <trkpt lat="46.31145" lon="2.78725">
        <ele>377.4</ele>
        <time>2019-11-01T08:59:31Z</time>
      </trkpt>
      <trkpt lat="46.31145" lon="2.78733">
        <ele>377.4</ele>
        <time>2019-11-01T08:59:32Z</time>
      </trkpt>
      <trkpt lat="46.31145" lon="2.78741">
        <ele>377.3</ele>
        <time>2019-11-01T08:59:33Z</time>
      </trkpt>
      <trkpt lat="46.31145" lon="2.78749">
        <ele>377.3</ele>
        <time>2019-11-01T08:59:34Z</time>
      </trkpt>
      <trkpt lat="46.31145" lon="2.78758">
        <ele>377.3</ele>
        <time>2019-11-01T08:59:35Z</time>
      </trkpt>
      <trkpt lat="46.31145" lon="2.78767">
        <ele>377.2</ele>
        <time>2019-11-01T08:59:36Z</time>
      </trkpt>
      <trkpt lat="46.31146" lon="2.78776">
        <ele>377</ele>
        <time>2019-11-01T08:59:37Z</time>
      </trkpt>
      <trkpt lat="46.31146" lon="2.78786">
        <ele>376.7</ele>
        <time>2019-11-01T08:59:38Z</time>
      </trkpt>
      <trkpt lat="46.31147" lon="2.78795">
        <ele>376.4</ele>
        <time>2019-11-01T08:59:39Z</time>
      </trkpt>
      <trkpt lat="46.31148" lon="2.78805">
        <ele>376.1</ele>
        <time>2019-11-01T08:59:40Z</time>
      </trkpt>
      <trkpt lat="46.31149" lon="2.78815">
        <ele>375.6</ele>
        <time>2019-11-01T08:59:41Z</time>
      </trkpt>
      <trkpt lat="46.3115" lon="2.78825">
        <ele>375.4</ele>
        <time>2019-11-01T08:59:42Z</time>
      </trkpt>
      <trkpt lat="46.31152" lon="2.78835">
        <ele>375.1</ele>
        <time>2019-11-01T08:59:43Z</time>
      </trkpt>
      <trkpt lat="46.31154" lon="2.78845">
        <ele>374.9</ele>
        <time>2019-11-01T08:59:44Z</time>
      </trkpt>
      <trkpt lat="46.31156" lon="2.78855">
        <ele>374.6</ele>
        <time>2019-11-01T08:59:45Z</time>
      </trkpt>
      <trkpt lat="46.3116" lon="2.78864">
        <ele>374.4</ele>
        <time>2019-11-01T08:59:46Z</time>
      </trkpt>
      <trkpt lat="46.31163" lon="2.78872">
        <ele>374.2</ele>
        <time>2019-11-01T08:59:47Z</time>
      </trkpt>
      <trkpt lat="46.31167" lon="2.7888">
        <ele>374.1</ele>
        <time>2019-11-01T08:59:48Z</time>
      </trkpt>
      <trkpt lat="46.3117" lon="2.78889">
        <ele>374</ele>
        <time>2019-11-01T08:59:49Z</time>
      </trkpt>
      <trkpt lat="46.31173" lon="2.78898">
        <ele>373.9</ele>
        <time>2019-11-01T08:59:50Z</time>
      </trkpt>
      <trkpt lat="46.31176" lon="2.78907">
        <ele>373.8</ele>
        <time>2019-11-01T08:59:51Z</time>
      </trkpt>
      <trkpt lat="46.31178" lon="2.78917">
        <ele>373.7</ele>
        <time>2019-11-01T08:59:52Z</time>
      </trkpt>
      <trkpt lat="46.31179" lon="2.78927">
        <ele>373.6</ele>
        <time>2019-11-01T08:59:53Z</time>
      </trkpt>
      <trkpt lat="46.3118" lon="2.78938">
        <ele>373.3</ele>
        <time>2019-11-01T08:59:54Z</time>
      </trkpt>
      <trkpt lat="46.31182" lon="2.78948">
        <ele>373</ele>
        <time>2019-11-01T08:59:55Z</time>
      </trkpt>
      <trkpt lat="46.31183" lon="2.78958">
        <ele>372.7</ele>
        <time>2019-11-01T08:59:56Z</time>
      </trkpt>
      <trkpt lat="46.31185" lon="2.78969">
        <ele>372.3</ele>
        <time>2019-11-01T08:59:57Z</time>
      </trkpt>
      <trkpt lat="46.31187" lon="2.78979">
        <ele>372</ele>
        <time>2019-11-01T08:59:58Z</time>
      </trkpt>
      <trkpt lat="46.31189" lon="2.7899">
        <ele>371.7</ele>
        <time>2019-11-01T08:59:59Z</time>
      </trkpt>
      <trkpt lat="46.31192" lon="2.79">
        <ele>371.5</ele>
        <time>2019-11-01T09:00:00Z</time>
      </trkpt>
      <trkpt lat="46.31194" lon="2.7901">
        <ele>371.4</ele>
        <time>2019-11-01T09:00:01Z</time>
      </trkpt>
      <trkpt lat="46.31197" lon="2.79021">
        <ele>371.2</ele>
        <time>2019-11-01T09:00:02Z</time>
      </trkpt>
      <trkpt lat="46.31199" lon="2.79032">
        <ele>370.9</ele>
        <time>2019-11-01T09:00:03Z</time>
      </trkpt>
      <trkpt lat="46.31202" lon="2.79042">
        <ele>370.5</ele>
        <time>2019-11-01T09:00:04Z</time>
      </trkpt>
      <trkpt lat="46.31204" lon="2.79053">
        <ele>370.2</ele>
        <time>2019-11-01T09:00:05Z</time>
      </trkpt>
      <trkpt lat="46.31207" lon="2.79064">
        <ele>369.9</ele>
        <time>2019-11-01T09:00:06Z</time>
      </trkpt>
      <trkpt lat="46.31209" lon="2.79075">
        <ele>369.7</ele>
        <time>2019-11-01T09:00:07Z</time>
      </trkpt>
      <trkpt lat="46.31211" lon="2.79086">
        <ele>369.3</ele>
        <time>2019-11-01T09:00:08Z</time>
      </trkpt>
      <trkpt lat="46.31213" lon="2.79097">
        <ele>368.9</ele>
        <time>2019-11-01T09:00:09Z</time>
      </trkpt>
      <trkpt lat="46.31215" lon="2.79108">
        <ele>368.5</ele>
        <time>2019-11-01T09:00:10Z</time>
      </trkpt>
      <trkpt lat="46.31218" lon="2.7912">
        <ele>368</ele>
        <time>2019-11-01T09:00:11Z</time>
      </trkpt>
      <trkpt lat="46.3122" lon="2.79131">
        <ele>367.6</ele>
        <time>2019-11-01T09:00:12Z</time>
      </trkpt>
      <trkpt lat="46.31222" lon="2.79144">
        <ele>367.1</ele>
        <time>2019-11-01T09:00:13Z</time>
      </trkpt>
      <trkpt lat="46.31224" lon="2.79156">
        <ele>366.8</ele>
        <time>2019-11-01T09:00:14Z</time>
      </trkpt>
      <trkpt lat="46.31226" lon="2.79168">
        <ele>366.4</ele>
        <time>2019-11-01T09:00:15Z</time>
      </trkpt>
      <trkpt lat="46.31228" lon="2.7918">
        <ele>365.9</ele>
        <time>2019-11-01T09:00:16Z</time>
      </trkpt>
      <trkpt lat="46.31229" lon="2.79193">
        <ele>365.5</ele>
        <time>2019-11-01T09:00:17Z</time>
      </trkpt>
      <trkpt lat="46.31231" lon="2.79205">
        <ele>365.1</ele>
        <time>2019-11-01T09:00:18Z</time>
      </trkpt>
      <trkpt lat="46.31233" lon="2.79218">
        <ele>364.7</ele>
        <time>2019-11-01T09:00:19Z</time>
      </trkpt>
      <trkpt lat="46.31234" lon="2.79231">
        <ele>364.3</ele>
        <time>2019-11-01T09:00:20Z</time>
      </trkpt>
      <trkpt lat="46.31236" lon="2.79244">
        <ele>363.9</ele>
        <time>2019-11-01T09:00:21Z</time>
      </trkpt>
      <trkpt lat="46.31237" lon="2.79256">
        <ele>363.5</ele>
        <time>2019-11-01T09:00:22Z</time>
      </trkpt>
      <trkpt lat="46.31239" lon="2.79269">
        <ele>363.1</ele>
        <time>2019-11-01T09:00:23Z</time>
      </trkpt>
      <trkpt lat="46.31241" lon="2.79281">
        <ele>362.6</ele>
        <time>2019-11-01T09:00:24Z</time>
      </trkpt>
      <trkpt lat="46.31243" lon="2.79294">
        <ele>362.3</ele>
        <time>2019-11-01T09:00:25Z</time>
      </trkpt>
      <trkpt lat="46.31246" lon="2.79306">
        <ele>362</ele>
        <time>2019-11-01T09:00:26Z</time>
      </trkpt>
      <trkpt lat="46.31248" lon="2.79318">
        <ele>361.4</ele>
        <time>2019-11-01T09:00:27Z</time>
      </trkpt>
      <trkpt lat="46.3125" lon="2.79329">
        <ele>361</ele>
        <time>2019-11-01T09:00:28Z</time>
      </trkpt>
      <trkpt lat="46.31253" lon="2.7934">
        <ele>360.6</ele>
        <time>2019-11-01T09:00:29Z</time>
      </trkpt>
      <trkpt lat="46.31256" lon="2.79352">
        <ele>360.1</ele>
        <time>2019-11-01T09:00:30Z</time>
      </trkpt>
      <trkpt lat="46.31259" lon="2.79363">
        <ele>359.6</ele>
        <time>2019-11-01T09:00:31Z</time>
      </trkpt>
      <trkpt lat="46.31262" lon="2.79374">
        <ele>359.1</ele>
        <time>2019-11-01T09:00:32Z</time>
      </trkpt>
      <trkpt lat="46.31264" lon="2.79384">
        <ele>358.8</ele>
        <time>2019-11-01T09:00:33Z</time>
      </trkpt>
      <trkpt lat="46.31267" lon="2.79394">
        <ele>358.6</ele>
        <time>2019-11-01T09:00:34Z</time>
      </trkpt>
      <trkpt lat="46.3127" lon="2.79404">
        <ele>358.3</ele>
        <time>2019-11-01T09:00:35Z</time>
      </trkpt>
      <trkpt lat="46.31274" lon="2.79413">
        <ele>358.1</ele>
        <time>2019-11-01T09:00:36Z</time>
      </trkpt>
      <trkpt lat="46.31277" lon="2.79422">
        <ele>357.9</ele>
        <time>2019-11-01T09:00:37Z</time>
      </trkpt>
      <trkpt lat="46.3128" lon="2.79432">
        <ele>357.6</ele>
        <time>2019-11-01T09:00:38Z</time>
      </trkpt>
      <trkpt lat="46.31283" lon="2.79441">
        <ele>357.4</ele>
        <time>2019-11-01T09:00:39Z</time>
      </trkpt>
      <trkpt lat="46.31287" lon="2.79451">
        <ele>357.1</ele>
        <time>2019-11-01T09:00:40Z</time>
      </trkpt>
      <trkpt lat="46.3129" lon="2.7946">
        <ele>356.8</ele>
        <time>2019-11-01T09:00:41Z</time>
      </trkpt>
      <trkpt lat="46.31293" lon="2.79471">
        <ele>356.5</ele>
        <time>2019-11-01T09:00:42Z</time>
      </trkpt>
      <trkpt lat="46.31296" lon="2.7948">
        <ele>356.2</ele>
        <time>2019-11-01T09:00:43Z</time>
      </trkpt>
      <trkpt lat="46.31298" lon="2.7949">
        <ele>356</ele>
        <time>2019-11-01T09:00:44Z</time>
      </trkpt>
      <trkpt lat="46.313" lon="2.79499">
        <ele>355.8</ele>
        <time>2019-11-01T09:00:45Z</time>
      </trkpt>
      <trkpt lat="46.31303" lon="2.79509">
        <ele>355.4</ele>
        <time>2019-11-01T09:00:46Z</time>
      </trkpt>
      <trkpt lat="46.31305" lon="2.79518">
        <ele>354.9</ele>
        <time>2019-11-01T09:00:47Z</time>
      </trkpt>
      <trkpt lat="46.31308" lon="2.79528">
        <ele>354.6</ele>
        <time>2019-11-01T09:00:48Z</time>
      </trkpt>
      <trkpt lat="46.31311" lon="2.79538">
        <ele>354.3</ele>
        <time>2019-11-01T09:00:49Z</time>
      </trkpt>
      <trkpt lat="46.31313" lon="2.79548">
        <ele>354</ele>
        <time>2019-11-01T09:00:50Z</time>
      </trkpt>
      <trkpt lat="46.31317" lon="2.79557">
        <ele>353.7</ele>
        <time>2019-11-01T09:00:51Z</time>
      </trkpt>
      <trkpt lat="46.3132" lon="2.79566">
        <ele>353.3</ele>
        <time>2019-11-01T09:00:52Z</time>
      </trkpt>
      <trkpt lat="46.31324" lon="2.79576">
        <ele>352.9</ele>
        <time>2019-11-01T09:00:53Z</time>
      </trkpt>
      <trkpt lat="46.31328" lon="2.79585">
        <ele>352.5</ele>
        <time>2019-11-01T09:00:54Z</time>
      </trkpt>
      <trkpt lat="46.31331" lon="2.79594">
        <ele>352.3</ele>
        <time>2019-11-01T09:00:55Z</time>
      </trkpt>
      <trkpt lat="46.31335" lon="2.79603">
        <ele>352.1</ele>
        <time>2019-11-01T09:00:56Z</time>
      </trkpt>
      <trkpt lat="46.31339" lon="2.79611">
        <ele>351.9</ele>
        <time>2019-11-01T09:00:57Z</time>
      </trkpt>
      <trkpt lat="46.31343" lon="2.79621">
        <ele>351.5</ele>
        <time>2019-11-01T09:00:58Z</time>
      </trkpt>
      <trkpt lat="46.31346" lon="2.79631">
        <ele>351</ele>
        <time>2019-11-01T09:00:59Z</time>
      </trkpt>
      <trkpt lat="46.3135" lon="2.7964">
        <ele>350.5</ele>
        <time>2019-11-01T09:01:00Z</time>
      </trkpt>
      <trkpt lat="46.31353" lon="2.7965">
        <ele>350</ele>
        <time>2019-11-01T09:01:01Z</time>
      </trkpt>
      <trkpt lat="46.31357" lon="2.7966">
        <ele>349.4</ele>
        <time>2019-11-01T09:01:02Z</time>
      </trkpt>
      <trkpt lat="46.3136" lon="2.7967">
        <ele>348.9</ele>
        <time>2019-11-01T09:01:03Z</time>
      </trkpt>
      <trkpt lat="46.31364" lon="2.7968">
        <ele>348.3</ele>
        <time>2019-11-01T09:01:04Z</time>
      </trkpt>
      <trkpt lat="46.31367" lon="2.7969">
        <ele>347.7</ele>
        <time>2019-11-01T09:01:05Z</time>
      </trkpt>
      <trkpt lat="46.3137" lon="2.79701">
        <ele>347</ele>
        <time>2019-11-01T09:01:06Z</time>
      </trkpt>
      <trkpt lat="46.31373" lon="2.79711">
        <ele>346.6</ele>
        <time>2019-11-01T09:01:07Z</time>
      </trkpt>
      <trkpt lat="46.31375" lon="2.79721">
        <ele>346.2</ele>
        <time>2019-11-01T09:01:08Z</time>
      </trkpt>
      <trkpt lat="46.31377" lon="2.79731">
        <ele>345.8</ele>
        <time>2019-11-01T09:01:09Z</time>
      </trkpt>
      <trkpt lat="46.31379" lon="2.7974">
        <ele>345.3</ele>
        <time>2019-11-01T09:01:10Z</time>
      </trkpt>
      <trkpt lat="46.3138" lon="2.79748">
        <ele>344.8</ele>
        <time>2019-11-01T09:01:11Z</time>
      </trkpt>
      <trkpt lat="46.31381" lon="2.79754">
        <ele>344.5</ele>
        <time>2019-11-01T09:01:12Z</time>
      </trkpt>
      <trkpt lat="46.31381" lon="2.79759">
        <ele>344.3</ele>
        <time>2019-11-01T09:01:13Z</time>
      </trkpt>
      <trkpt lat="46.31381" lon="2.79763">
        <ele>344.1</ele>
        <time>2019-11-01T09:01:14Z</time>
      </trkpt>
      <trkpt lat="46.31381" lon="2.79767">
        <ele>343.9</ele>
        <time>2019-11-01T09:01:15Z</time>
      </trkpt>
      <trkpt lat="46.31381" lon="2.79771">
        <ele>343.7</ele>
        <time>2019-11-01T09:01:16Z</time>
      </trkpt>
      <trkpt lat="46.31382" lon="2.79774">
        <ele>343.5</ele>
        <time>2019-11-01T09:01:17Z</time>
      </trkpt>
      <trkpt lat="46.31383" lon="2.79779">
        <ele>343.3</ele>
        <time>2019-11-01T09:01:18Z</time>
      </trkpt>
      <trkpt lat="46.31383" lon="2.79784">
        <ele>343.1</ele>
        <time>2019-11-01T09:01:19Z</time>
      </trkpt>
      <trkpt lat="46.31384" lon="2.7979">
        <ele>342.8</ele>
        <time>2019-11-01T09:01:20Z</time>
      </trkpt>
      <trkpt lat="46.31385" lon="2.79796">
        <ele>342.5</ele>
        <time>2019-11-01T09:01:21Z</time>
      </trkpt>
      <trkpt lat="46.31386" lon="2.79801">
        <ele>342.3</ele>
        <time>2019-11-01T09:01:22Z</time>
      </trkpt>
      <trkpt lat="46.31386" lon="2.79807">
        <ele>342.1</ele>
        <time>2019-11-01T09:01:23Z</time>
      </trkpt>
      <trkpt lat="46.31387" lon="2.79813">
        <ele>341.8</ele>
        <time>2019-11-01T09:01:24Z</time>
      </trkpt>
      <trkpt lat="46.31388" lon="2.7982">
        <ele>341.5</ele>
        <time>2019-11-01T09:01:25Z</time>
      </trkpt>
      <trkpt lat="46.31388" lon="2.79826">
        <ele>341.3</ele>
        <time>2019-11-01T09:01:26Z</time>
      </trkpt>
      <trkpt lat="46.31389" lon="2.79832">
        <ele>341</ele>
        <time>2019-11-01T09:01:27Z</time>
      </trkpt>
      <trkpt lat="46.31389" lon="2.79839">
        <ele>340.8</ele>
        <time>2019-11-01T09:01:28Z</time>
      </trkpt>
      <trkpt lat="46.31389" lon="2.79845">
        <ele>340.6</ele>
        <time>2019-11-01T09:01:29Z</time>
      </trkpt>
      <trkpt lat="46.31389" lon="2.79852">
        <ele>340.4</ele>
        <time>2019-11-01T09:01:30Z</time>
      </trkpt>
      <trkpt lat="46.3139" lon="2.79858">
        <ele>340.2</ele>
        <time>2019-11-01T09:01:31Z</time>
      </trkpt>
      <trkpt lat="46.3139" lon="2.79864">
        <ele>340</ele>
        <time>2019-11-01T09:01:32Z</time>
      </trkpt>
      <trkpt lat="46.3139" lon="2.7987">
        <ele>339.8</ele>
        <time>2019-11-01T09:01:33Z</time>
      </trkpt>
      <trkpt lat="46.31391" lon="2.79875">
        <ele>339.7</ele>
        <time>2019-11-01T09:01:34Z</time>
      </trkpt>
      <trkpt lat="46.31392" lon="2.79881">
        <ele>339.5</ele>
        <time>2019-11-01T09:01:35Z</time>
      </trkpt>
      <trkpt lat="46.31393" lon="2.79887">
        <ele>339.3</ele>
        <time>2019-11-01T09:01:36Z</time>
      </trkpt>
      <trkpt lat="46.31394" lon="2.79893">
        <ele>339.1</ele>
        <time>2019-11-01T09:01:37Z</time>
      </trkpt>
      <trkpt lat="46.31395" lon="2.79898">
        <ele>338.9</ele>
        <time>2019-11-01T09:01:38Z</time>
      </trkpt>
      <trkpt lat="46.31397" lon="2.79904">
        <ele>338.7</ele>
        <time>2019-11-01T09:01:39Z</time>
      </trkpt>
      <trkpt lat="46.31398" lon="2.79909">
        <ele>338.6</ele>
        <time>2019-11-01T09:01:40Z</time>
      </trkpt>
      <trkpt lat="46.314" lon="2.79915">
        <ele>338.4</ele>
        <time>2019-11-01T09:01:41Z</time>
      </trkpt>
      <trkpt lat="46.31402" lon="2.7992">
        <ele>338.3</ele>
        <time>2019-11-01T09:01:42Z</time>
      </trkpt>
      <trkpt lat="46.31404" lon="2.79925">
        <ele>338.2</ele>
        <time>2019-11-01T09:01:43Z</time>
      </trkpt>
      <trkpt lat="46.31406" lon="2.79931">
        <ele>338</ele>
        <time>2019-11-01T09:01:44Z</time>
      </trkpt>
      <trkpt lat="46.31408" lon="2.79936">
        <ele>337.9</ele>
        <time>2019-11-01T09:01:45Z</time>
      </trkpt>
      <trkpt lat="46.31409" lon="2.79941">
        <ele>337.7</ele>
        <time>2019-11-01T09:01:46Z</time>
      </trkpt>
      <trkpt lat="46.31411" lon="2.79947">
        <ele>337.5</ele>
        <time>2019-11-01T09:01:47Z</time>
      </trkpt>
      <trkpt lat="46.31413" lon="2.79952">
        <ele>337.3</ele>
        <time>2019-11-01T09:01:48Z</time>
      </trkpt>
      <trkpt lat="46.31415" lon="2.79958">
        <ele>337.2</ele>
        <time>2019-11-01T09:01:49Z</time>
      </trkpt>
      <trkpt lat="46.31417" lon="2.79963">
        <ele>337</ele>
        <time>2019-11-01T09:01:50Z</time>
      </trkpt>
      <trkpt lat="46.31419" lon="2.79969">
        <ele>336.8</ele>
        <time>2019-11-01T09:01:51Z</time>
      </trkpt>
      <trkpt lat="46.31421" lon="2.79975">
        <ele>336.7</ele>
        <time>2019-11-01T09:01:52Z</time>
      </trkpt>
      <trkpt lat="46.31423" lon="2.79981">
        <ele>336.5</ele>
        <time>2019-11-01T09:01:53Z</time>
      </trkpt>
      <trkpt lat="46.31425" lon="2.79987">
        <ele>336.3</ele>
        <time>2019-11-01T09:01:54Z</time>
      </trkpt>
      <trkpt lat="46.31427" lon="2.79994">
        <ele>336.1</ele>
        <time>2019-11-01T09:01:55Z</time>
      </trkpt>
      <trkpt lat="46.31428" lon="2.8">
        <ele>335.9</ele>
        <time>2019-11-01T09:01:56Z</time>
      </trkpt>
      <trkpt lat="46.31429" lon="2.80007">
        <ele>335.5</ele>
        <time>2019-11-01T09:01:57Z</time>
      </trkpt>
      <trkpt lat="46.3143" lon="2.80014">
        <ele>335.2</ele>
        <time>2019-11-01T09:01:58Z</time>
      </trkpt>
      <trkpt lat="46.31431" lon="2.80021">
        <ele>334.9</ele>
        <time>2019-11-01T09:01:59Z</time>
      </trkpt>
      <trkpt lat="46.31432" lon="2.80028">
        <ele>334.6</ele>
        <time>2019-11-01T09:02:00Z</time>
      </trkpt>
      <trkpt lat="46.31433" lon="2.80035">
        <ele>334.4</ele>
        <time>2019-11-01T09:02:01Z</time>
      </trkpt>
      <trkpt lat="46.31434" lon="2.80043">
        <ele>334</ele>
        <time>2019-11-01T09:02:02Z</time>
      </trkpt>
      <trkpt lat="46.31435" lon="2.8005">
        <ele>333.6</ele>
        <time>2019-11-01T09:02:03Z</time>
      </trkpt>
      <trkpt lat="46.31436" lon="2.80058">
        <ele>333.3</ele>
        <time>2019-11-01T09:02:04Z</time>
      </trkpt>
      <trkpt lat="46.31437" lon="2.80065">
        <ele>332.9</ele>
        <time>2019-11-01T09:02:05Z</time>
      </trkpt>
      <trkpt lat="46.31438" lon="2.80072">
        <ele>332.6</ele>
        <time>2019-11-01T09:02:06Z</time>
      </trkpt>
      <trkpt lat="46.31439" lon="2.80079">
        <ele>332.3</ele>
        <time>2019-11-01T09:02:07Z</time>
      </trkpt>
      <trkpt lat="46.3144" lon="2.80085">
        <ele>332.1</ele>
        <time>2019-11-01T09:02:08Z</time>
      </trkpt>
      <trkpt lat="46.31442" lon="2.80091">
        <ele>331.8</ele>
        <time>2019-11-01T09:02:09Z</time>
      </trkpt>
      <trkpt lat="46.31443" lon="2.80098">
        <ele>331.5</ele>
        <time>2019-11-01T09:02:10Z</time>
      </trkpt>
      <trkpt lat="46.31444" lon="2.80104">
        <ele>331.1</ele>
        <time>2019-11-01T09:02:11Z</time>
      </trkpt>
      <trkpt lat="46.31445" lon="2.80111">
        <ele>330.8</ele>
        <time>2019-11-01T09:02:12Z</time>
      </trkpt>
      <trkpt lat="46.31446" lon="2.80118">
        <ele>330.6</ele>
        <time>2019-11-01T09:02:13Z</time>
      </trkpt>
      <trkpt lat="46.31447" lon="2.80125">
        <ele>330.4</ele>
        <time>2019-11-01T09:02:14Z</time>
      </trkpt>
      <trkpt lat="46.31448" lon="2.80132">
        <ele>330.2</ele>
        <time>2019-11-01T09:02:15Z</time>
      </trkpt>
      <trkpt lat="46.31449" lon="2.80139">
        <ele>330</ele>
        <time>2019-11-01T09:02:16Z</time>
      </trkpt>
      <trkpt lat="46.3145" lon="2.80146">
        <ele>329.7</ele>
        <time>2019-11-01T09:02:17Z</time>
      </trkpt>
      <trkpt lat="46.31452" lon="2.80152">
        <ele>329.5</ele>
        <time>2019-11-01T09:02:18Z</time>
      </trkpt>
      <trkpt lat="46.31453" lon="2.80158">
        <ele>329.3</ele>
        <time>2019-11-01T09:02:19Z</time>
      </trkpt>
      <trkpt lat="46.31454" lon="2.80165">
        <ele>329.1</ele>
        <time>2019-11-01T09:02:20Z</time>
      </trkpt>
      <trkpt lat="46.31456" lon="2.80171">
        <ele>328.9</ele>
        <time>2019-11-01T09:02:21Z</time>
      </trkpt>
      <trkpt lat="46.31458" lon="2.80178">
        <ele>328.8</ele>
        <time>2019-11-01T09:02:22Z</time>
      </trkpt>
      <trkpt lat="46.3146" lon="2.80185">
        <ele>328.6</ele>
        <time>2019-11-01T09:02:23Z</time>
      </trkpt>
      <trkpt lat="46.31461" lon="2.80192">
        <ele>328.3</ele>
        <time>2019-11-01T09:02:24Z</time>
      </trkpt>
      <trkpt lat="46.31463" lon="2.802">
        <ele>328.1</ele>
        <time>2019-11-01T09:02:25Z</time>
      </trkpt>
      <trkpt lat="46.31464" lon="2.80207">
        <ele>327.9</ele>
        <time>2019-11-01T09:02:26Z</time>
      </trkpt>
      <trkpt lat="46.31466" lon="2.80214">
        <ele>327.7</ele>
        <time>2019-11-01T09:02:27Z</time>
      </trkpt>
      <trkpt lat="46.31468" lon="2.80221">
        <ele>327.5</ele>
        <time>2019-11-01T09:02:28Z</time>
      </trkpt>
      <trkpt lat="46.31469" lon="2.80228">
        <ele>327.3</ele>
        <time>2019-11-01T09:02:29Z</time>
      </trkpt>
      <trkpt lat="46.31471" lon="2.80236">
        <ele>327</ele>
        <time>2019-11-01T09:02:30Z</time>
      </trkpt>
      <trkpt lat="46.31473" lon="2.80244">
        <ele>326.8</ele>
        <time>2019-11-01T09:02:31Z</time>
      </trkpt>
      <trkpt lat="46.31474" lon="2.80251">
        <ele>326.6</ele>
        <time>2019-11-01T09:02:32Z</time>
      </trkpt>
      <trkpt lat="46.31475" lon="2.80259">
        <ele>326.4</ele>
        <time>2019-11-01T09:02:33Z</time>
      </trkpt>
      <trkpt lat="46.31476" lon="2.80267">
        <ele>326.1</ele>
        <time>2019-11-01T09:02:34Z</time>
      </trkpt>
      <trkpt lat="46.31477" lon="2.80275">
        <ele>325.9</ele>
        <time>2019-11-01T09:02:35Z</time>
      </trkpt>
      <trkpt lat="46.31478" lon="2.80283">
        <ele>325.7</ele>
        <time>2019-11-01T09:02:36Z</time>
      </trkpt>
      <trkpt lat="46.31478" lon="2.80291">
        <ele>325.4</ele>
        <time>2019-11-01T09:02:37Z</time>
      </trkpt>
      <trkpt lat="46.31479" lon="2.80299">
        <ele>325.3</ele>
        <time>2019-11-01T09:02:38Z</time>
      </trkpt>
      <trkpt lat="46.3148" lon="2.80307">
        <ele>325.1</ele>
        <time>2019-11-01T09:02:39Z</time>
      </trkpt>
      <trkpt lat="46.3148" lon="2.80315">
        <ele>324.9</ele>
        <time>2019-11-01T09:02:40Z</time>
      </trkpt>
      <trkpt lat="46.31481" lon="2.80324">
        <ele>324.7</ele>
        <time>2019-11-01T09:02:41Z</time>
      </trkpt>
      <trkpt lat="46.31481" lon="2.80332">
        <ele>324.5</ele>
        <time>2019-11-01T09:02:42Z</time>
      </trkpt>
      <trkpt lat="46.31482" lon="2.8034">
        <ele>324.2</ele>
        <time>2019-11-01T09:02:43Z</time>
      </trkpt>
      <trkpt lat="46.31483" lon="2.80348">
        <ele>324</ele>
        <time>2019-11-01T09:02:44Z</time>
      </trkpt>
      <trkpt lat="46.31483" lon="2.80357">
        <ele>323.8</ele>
        <time>2019-11-01T09:02:45Z</time>
      </trkpt>
      <trkpt lat="46.31484" lon="2.80365">
        <ele>323.6</ele>
        <time>2019-11-01T09:02:46Z</time>
      </trkpt>
      <trkpt lat="46.31485" lon="2.80373">
        <ele>323.3</ele>
        <time>2019-11-01T09:02:47Z</time>
      </trkpt>
      <trkpt lat="46.31486" lon="2.80381">
        <ele>323</ele>
        <time>2019-11-01T09:02:48Z</time>
      </trkpt>
      <trkpt lat="46.31486" lon="2.8039">
        <ele>322.8</ele>
        <time>2019-11-01T09:02:49Z</time>
      </trkpt>
      <trkpt lat="46.31487" lon="2.80398">
        <ele>322.6</ele>
        <time>2019-11-01T09:02:50Z</time>
      </trkpt>
      <trkpt lat="46.31488" lon="2.80407">
        <ele>322.3</ele>
        <time>2019-11-01T09:02:51Z</time>
      </trkpt>
      <trkpt lat="46.31488" lon="2.80415">
        <ele>322.1</ele>
        <time>2019-11-01T09:02:52Z</time>
      </trkpt>
      <trkpt lat="46.31489" lon="2.80424">
        <ele>321.7</ele>
        <time>2019-11-01T09:02:53Z</time>
      </trkpt>
      <trkpt lat="46.3149" lon="2.80433">
        <ele>321.5</ele>
        <time>2019-11-01T09:02:54Z</time>
      </trkpt>
      <trkpt lat="46.31491" lon="2.80442">
        <ele>321.3</ele>
        <time>2019-11-01T09:02:55Z</time>
      </trkpt>
      <trkpt lat="46.31492" lon="2.8045">
        <ele>321.2</ele>
        <time>2019-11-01T09:02:56Z</time>
      </trkpt>
      <trkpt lat="46.31492" lon="2.80458">
        <ele>321</ele>
        <time>2019-11-01T09:02:57Z</time>
      </trkpt>
      <trkpt lat="46.31493" lon="2.80466">
        <ele>320.9</ele>
        <time>2019-11-01T09:02:58Z</time>
      </trkpt>
      <trkpt lat="46.31494" lon="2.80474">
        <ele>320.7</ele>
        <time>2019-11-01T09:02:59Z</time>
      </trkpt>
      <trkpt lat="46.31495" lon="2.80481">
        <ele>320.6</ele>
        <time>2019-11-01T09:03:00Z</time>
      </trkpt>
      <trkpt lat="46.31496" lon="2.80489">
        <ele>320.4</ele>
        <time>2019-11-01T09:03:01Z</time>
      </trkpt>
      <trkpt lat="46.31496" lon="2.80496">
        <ele>320.3</ele>
        <time>2019-11-01T09:03:02Z</time>
      </trkpt>
      <trkpt lat="46.31497" lon="2.80503">
        <ele>320.2</ele>
        <time>2019-11-01T09:03:03Z</time>
      </trkpt>
      <trkpt lat="46.31497" lon="2.80511">
        <ele>320.1</ele>
        <time>2019-11-01T09:03:04Z</time>
      </trkpt>
      <trkpt lat="46.31498" lon="2.80518">
        <ele>320.1</ele>
        <time>2019-11-01T09:03:05Z</time>
      </trkpt>
      <trkpt lat="46.31499" lon="2.80526">
        <ele>320</ele>
        <time>2019-11-01T09:03:06Z</time>
      </trkpt>
      <trkpt lat="46.31499" lon="2.80533">
        <ele>320</ele>
        <time>2019-11-01T09:03:07Z</time>
      </trkpt>
      <trkpt lat="46.31499" lon="2.8054">
        <ele>319.9</ele>
        <time>2019-11-01T09:03:08Z</time>
      </trkpt>
      <trkpt lat="46.315" lon="2.80547">
        <ele>319.9</ele>
        <time>2019-11-01T09:03:09Z</time>
      </trkpt>
      <trkpt lat="46.315" lon="2.80554">
        <ele>319.8</ele>
        <time>2019-11-01T09:03:10Z</time>
      </trkpt>
      <trkpt lat="46.31501" lon="2.80561">
        <ele>319.8</ele>
        <time>2019-11-01T09:03:11Z</time>
      </trkpt>
      <trkpt lat="46.31501" lon="2.80568">
        <ele>319.8</ele>
        <time>2019-11-01T09:03:12Z</time>
      </trkpt>
      <trkpt lat="46.31502" lon="2.80575">
        <ele>319.7</ele>
        <time>2019-11-01T09:03:13Z</time>
      </trkpt>
      <trkpt lat="46.31502" lon="2.80582">
        <ele>319.7</ele>
        <time>2019-11-01T09:03:14Z</time>
      </trkpt>
      <trkpt lat="46.31503" lon="2.80589">
        <ele>319.7</ele>
        <time>2019-11-01T09:03:15Z</time>
      </trkpt>
      <trkpt lat="46.31504" lon="2.80596">
        <ele>319.6</ele>
        <time>2019-11-01T09:03:16Z</time>
      </trkpt>
      <trkpt lat="46.31505" lon="2.80603">
        <ele>319.6</ele>
        <time>2019-11-01T09:03:17Z</time>
      </trkpt>
      <trkpt lat="46.31506" lon="2.8061">
        <ele>319.5</ele>
        <time>2019-11-01T09:03:18Z</time>
      </trkpt>
      <trkpt lat="46.31507" lon="2.80617">
        <ele>319.4</ele>
        <time>2019-11-01T09:03:19Z</time>
      </trkpt>
      <trkpt lat="46.31509" lon="2.80624">
        <ele>319.3</ele>
        <time>2019-11-01T09:03:20Z</time>
      </trkpt>
      <trkpt lat="46.3151" lon="2.8063">
        <ele>319.2</ele>
        <time>2019-11-01T09:03:21Z</time>
      </trkpt>
      <trkpt lat="46.3151" lon="2.80637">
        <ele>319.1</ele>
        <time>2019-11-01T09:03:22Z</time>
      </trkpt>
      <trkpt lat="46.31512" lon="2.80643">
        <ele>319</ele>
        <time>2019-11-01T09:03:23Z</time>
      </trkpt>
      <trkpt lat="46.31514" lon="2.80649">
        <ele>318.9</ele>
        <time>2019-11-01T09:03:24Z</time>
      </trkpt>
      <trkpt lat="46.31516" lon="2.80652">
        <ele>318.8</ele>
        <time>2019-11-01T09:03:25Z</time>
      </trkpt>
      <trkpt lat="46.31519" lon="2.80654">
        <ele>318.7</ele>
        <time>2019-11-01T09:03:26Z</time>
      </trkpt>
      <trkpt lat="46.31523" lon="2.80654">
        <ele>318.7</ele>
        <time>2019-11-01T09:03:27Z</time>
      </trkpt>
      <trkpt lat="46.31526" lon="2.80653">
        <ele>318.7</ele>
        <time>2019-11-01T09:03:28Z</time>
      </trkpt>
      <trkpt lat="46.3153" lon="2.8065">
        <ele>318.7</ele>
        <time>2019-11-01T09:03:29Z</time>
      </trkpt>
      <trkpt lat="46.31534" lon="2.80647">
        <ele>318.8</ele>
        <time>2019-11-01T09:03:30Z</time>
      </trkpt>
      <trkpt lat="46.31538" lon="2.80645">
        <ele>318.8</ele>
        <time>2019-11-01T09:03:31Z</time>
      </trkpt>
      <trkpt lat="46.31541" lon="2.80642">
        <ele>318.9</ele>
        <time>2019-11-01T09:03:32Z</time>
      </trkpt>
      <trkpt lat="46.31545" lon="2.80639">
        <ele>318.9</ele>
        <time>2019-11-01T09:03:33Z</time>
      </trkpt>
      <trkpt lat="46.31549" lon="2.80637">
        <ele>318.9</ele>
        <time>2019-11-01T09:03:34Z</time>
      </trkpt>
      <trkpt lat="46.31552" lon="2.80634">
        <ele>318.9</ele>
        <time>2019-11-01T09:03:35Z</time>
      </trkpt>
      <trkpt lat="46.31556" lon="2.80631">
        <ele>318.9</ele>
        <time>2019-11-01T09:03:36Z</time>
      </trkpt>
      <trkpt lat="46.3156" lon="2.80628">
        <ele>318.9</ele>
        <time>2019-11-01T09:03:37Z</time>
      </trkpt>
      <trkpt lat="46.31564" lon="2.80625">
        <ele>318.9</ele>
        <time>2019-11-01T09:03:38Z</time>
      </trkpt>
      <trkpt lat="46.31568" lon="2.80622">
        <ele>319</ele>
        <time>2019-11-01T09:03:39Z</time>
      </trkpt>
      <trkpt lat="46.31572" lon="2.8062">
        <ele>319</ele>
        <time>2019-11-01T09:03:40Z</time>
      </trkpt>
      <trkpt lat="46.31577" lon="2.80617">
        <ele>319</ele>
        <time>2019-11-01T09:03:41Z</time>
      </trkpt>
      <trkpt lat="46.31581" lon="2.80614">
        <ele>319</ele>
        <time>2019-11-01T09:03:42Z</time>
      </trkpt>
      <trkpt lat="46.31584" lon="2.80612">
        <ele>319</ele>
        <time>2019-11-01T09:03:43Z</time>
      </trkpt>
      <trkpt lat="46.31588" lon="2.80609">
        <ele>319</ele>
        <time>2019-11-01T09:03:44Z</time>
      </trkpt>
      <trkpt lat="46.31592" lon="2.80607">
        <ele>319</ele>
        <time>2019-11-01T09:03:45Z</time>
      </trkpt>
      <trkpt lat="46.31596" lon="2.80604">
        <ele>319</ele>
        <time>2019-11-01T09:03:46Z</time>
      </trkpt>
      <trkpt lat="46.31599" lon="2.80601">
        <ele>319</ele>
        <time>2019-11-01T09:03:47Z</time>
      </trkpt>
      <trkpt lat="46.31603" lon="2.80598">
        <ele>319</ele>
        <time>2019-11-01T09:03:48Z</time>
      </trkpt>
      <trkpt lat="46.31607" lon="2.80595">
        <ele>319</ele>
        <time>2019-11-01T09:03:49Z</time>
      </trkpt>
      <trkpt lat="46.3161" lon="2.80593">
        <ele>318.9</ele>
        <time>2019-11-01T09:03:50Z</time>
      </trkpt>
      <trkpt lat="46.31614" lon="2.8059">
        <ele>318.9</ele>
        <time>2019-11-01T09:03:51Z</time>
      </trkpt>
      <trkpt lat="46.31618" lon="2.80587">
        <ele>318.9</ele>
        <time>2019-11-01T09:03:52Z</time>
      </trkpt>
      <trkpt lat="46.31622" lon="2.80584">
        <ele>318.8</ele>
        <time>2019-11-01T09:03:53Z</time>
      </trkpt>
      <trkpt lat="46.31625" lon="2.80581">
        <ele>318.7</ele>
        <time>2019-11-01T09:03:54Z</time>
      </trkpt>
      <trkpt lat="46.3163" lon="2.80578">
        <ele>318.5</ele>
        <time>2019-11-01T09:03:55Z</time>
      </trkpt>
      <trkpt lat="46.31634" lon="2.80574">
        <ele>318.3</ele>
        <time>2019-11-01T09:03:56Z</time>
      </trkpt>
      <trkpt lat="46.31638" lon="2.80571">
        <ele>318.1</ele>
        <time>2019-11-01T09:03:57Z</time>
      </trkpt>
      <trkpt lat="46.31644" lon="2.80567">
        <ele>317.8</ele>
        <time>2019-11-01T09:03:58Z</time>
      </trkpt>
      <trkpt lat="46.31649" lon="2.80563">
        <ele>317.5</ele>
        <time>2019-11-01T09:03:59Z</time>
      </trkpt>
      <trkpt lat="46.31654" lon="2.80559">
        <ele>317.2</ele>
        <time>2019-11-01T09:04:00Z</time>
      </trkpt>
      <trkpt lat="46.31659" lon="2.80556">
        <ele>316.8</ele>
        <time>2019-11-01T09:04:01Z</time>
      </trkpt>
      <trkpt lat="46.31663" lon="2.80553">
        <ele>316.5</ele>
        <time>2019-11-01T09:04:02Z</time>
      </trkpt>
      <trkpt lat="46.31667" lon="2.8055">
        <ele>316.2</ele>
        <time>2019-11-01T09:04:03Z</time>
      </trkpt>
      <trkpt lat="46.31671" lon="2.8055">
        <ele>316</ele>
        <time>2019-11-01T09:04:04Z</time>
      </trkpt>
      <trkpt lat="46.31673" lon="2.80551">
        <ele>315.7</ele>
        <time>2019-11-01T09:04:05Z</time>
      </trkpt>
      <trkpt lat="46.31675" lon="2.80554">
        <ele>315.3</ele>
        <time>2019-11-01T09:04:06Z</time>
      </trkpt>
      <trkpt lat="46.31677" lon="2.80558">
        <ele>314.9</ele>
        <time>2019-11-01T09:04:07Z</time>
      </trkpt>
      <trkpt lat="46.31679" lon="2.80562">
        <ele>314.8</ele>
        <time>2019-11-01T09:04:08Z</time>
      </trkpt>
      <trkpt lat="46.31681" lon="2.80567">
        <ele>314.7</ele>
        <time>2019-11-01T09:04:09Z</time>
      </trkpt>
      <trkpt lat="46.31683" lon="2.80572">
        <ele>314.6</ele>
        <time>2019-11-01T09:04:10Z</time>
      </trkpt>
      <trkpt lat="46.31684" lon="2.80577">
        <ele>314.4</ele>
        <time>2019-11-01T09:04:11Z</time>
      </trkpt>
      <trkpt lat="46.31685" lon="2.80583">
        <ele>314.3</ele>
        <time>2019-11-01T09:04:12Z</time>
      </trkpt>
      <trkpt lat="46.31687" lon="2.80589">
        <ele>314.2</ele>
        <time>2019-11-01T09:04:13Z</time>
      </trkpt>
      <trkpt lat="46.31687" lon="2.80595">
        <ele>314</ele>
        <time>2019-11-01T09:04:14Z</time>
      </trkpt>
      <trkpt lat="46.31688" lon="2.80601">
        <ele>313.8</ele>
        <time>2019-11-01T09:04:15Z</time>
      </trkpt>
      <trkpt lat="46.31688" lon="2.80607">
        <ele>313.6</ele>
        <time>2019-11-01T09:04:16Z</time>
      </trkpt>
      <trkpt lat="46.31689" lon="2.80614">
        <ele>313.5</ele>
        <time>2019-11-01T09:04:17Z</time>
      </trkpt>
      <trkpt lat="46.31691" lon="2.8062">
        <ele>313.4</ele>
        <time>2019-11-01T09:04:18Z</time>
      </trkpt>
      <trkpt lat="46.31692" lon="2.80625">
        <ele>313.3</ele>
        <time>2019-11-01T09:04:19Z</time>
      </trkpt>
      <trkpt lat="46.31694" lon="2.8063">
        <ele>313.2</ele>
        <time>2019-11-01T09:04:20Z</time>
      </trkpt>
      <trkpt lat="46.31697" lon="2.80633">
        <ele>313.2</ele>
        <time>2019-11-01T09:04:21Z</time>
      </trkpt>
      <trkpt lat="46.317" lon="2.80635">
        <ele>313.2</ele>
        <time>2019-11-01T09:04:22Z</time>
      </trkpt>
      <trkpt lat="46.31702" lon="2.80637">
        <ele>313.3</ele>
        <time>2019-11-01T09:04:23Z</time>
      </trkpt>
      <trkpt lat="46.31705" lon="2.80639">
        <ele>313.3</ele>
        <time>2019-11-01T09:04:24Z</time>
      </trkpt>
      <trkpt lat="46.31707" lon="2.80641">
        <ele>313.3</ele>
        <time>2019-11-01T09:04:25Z</time>
      </trkpt>
      <trkpt lat="46.31708" lon="2.80643">
        <ele>313.3</ele>
        <time>2019-11-01T09:04:26Z</time>
      </trkpt>
      <trkpt lat="46.31708" lon="2.80646">
        <ele>313.3</ele>
        <time>2019-11-01T09:04:27Z</time>
      </trkpt>
      <trkpt lat="46.31707" lon="2.80648">
        <ele>313.3</ele>
        <time>2019-11-01T09:04:28Z</time>
      </trkpt>
      <trkpt lat="46.31705" lon="2.8065">
        <ele>313.2</ele>
        <time>2019-11-01T09:04:29Z</time>
      </trkpt>
      <trkpt lat="46.31702" lon="2.80653">
        <ele>313.1</ele>
        <time>2019-11-01T09:04:30Z</time>
      </trkpt>
      <trkpt lat="46.31699" lon="2.80655">
        <ele>313.1</ele>
        <time>2019-11-01T09:04:31Z</time>
      </trkpt>
      <trkpt lat="46.31696" lon="2.80657">
        <ele>313</ele>
        <time>2019-11-01T09:04:32Z</time>
      </trkpt>
      <trkpt lat="46.31693" lon="2.8066">
        <ele>312.9</ele>
        <time>2019-11-01T09:04:33Z</time>
      </trkpt>
      <trkpt lat="46.3169" lon="2.80664">
        <ele>312.8</ele>
        <time>2019-11-01T09:04:34Z</time>
      </trkpt>
      <trkpt lat="46.31687" lon="2.80668">
        <ele>312.7</ele>
        <time>2019-11-01T09:04:35Z</time>
      </trkpt>
      <trkpt lat="46.31683" lon="2.80672">
        <ele>312.6</ele>
        <time>2019-11-01T09:04:36Z</time>
      </trkpt>
      <trkpt lat="46.3168" lon="2.80675">
        <ele>312.5</ele>
        <time>2019-11-01T09:04:37Z</time>
      </trkpt>
      <trkpt lat="46.31678" lon="2.80679">
        <ele>312.4</ele>
        <time>2019-11-01T09:04:38Z</time>
      </trkpt>
      <trkpt lat="46.31675" lon="2.80683">
        <ele>312.3</ele>
        <time>2019-11-01T09:04:39Z</time>
      </trkpt>
      <trkpt lat="46.31672" lon="2.80687">
        <ele>312.2</ele>
        <time>2019-11-01T09:04:40Z</time>
      </trkpt>
      <trkpt lat="46.31669" lon="2.80691">
        <ele>312.1</ele>
        <time>2019-11-01T09:04:41Z</time>
      </trkpt>
      <trkpt lat="46.31666" lon="2.80695">
        <ele>312</ele>
        <time>2019-11-01T09:04:42Z</time>
      </trkpt>
      <trkpt lat="46.31664" lon="2.80699">
        <ele>311.9</ele>
        <time>2019-11-01T09:04:43Z</time>
      </trkpt>
      <trkpt lat="46.31661" lon="2.80703">
        <ele>311.8</ele>
        <time>2019-11-01T09:04:44Z</time>
      </trkpt>
      <trkpt lat="46.31659" lon="2.80707">
        <ele>311.7</ele>
        <time>2019-11-01T09:04:45Z</time>
      </trkpt>
      <trkpt lat="46.31657" lon="2.80711">
        <ele>311.6</ele>
        <time>2019-11-01T09:04:46Z</time>
      </trkpt>
      <trkpt lat="46.31654" lon="2.80715">
        <ele>311.6</ele>
        <time>2019-11-01T09:04:47Z</time>
      </trkpt>
      <trkpt lat="46.31652" lon="2.80719">
        <ele>311.5</ele>
        <time>2019-11-01T09:04:48Z</time>
      </trkpt>
      <trkpt lat="46.3165" lon="2.80723">
        <ele>311.5</ele>
        <time>2019-11-01T09:04:49Z</time>
      </trkpt>
      <trkpt lat="46.31648" lon="2.80728">
        <ele>311.4</ele>
        <time>2019-11-01T09:04:50Z</time>
      </trkpt>
      <trkpt lat="46.31645" lon="2.80732">
        <ele>311.4</ele>
        <time>2019-11-01T09:04:51Z</time>
      </trkpt>
      <trkpt lat="46.31642" lon="2.80737">
        <ele>311.4</ele>
        <time>2019-11-01T09:04:52Z</time>
      </trkpt>
      <trkpt lat="46.3164" lon="2.80741">
        <ele>311.4</ele>
        <time>2019-11-01T09:04:53Z</time>
      </trkpt>
      <trkpt lat="46.31637" lon="2.80746">
        <ele>311.4</ele>
        <time>2019-11-01T09:04:54Z</time>
      </trkpt>
      <trkpt lat="46.31634" lon="2.80751">
        <ele>311.4</ele>
        <time>2019-11-01T09:04:55Z</time>
      </trkpt>
      <trkpt lat="46.31632" lon="2.80755">
        <ele>311.5</ele>
        <time>2019-11-01T09:04:56Z</time>
      </trkpt>
      <trkpt lat="46.31629" lon="2.8076">
        <ele>311.5</ele>
        <time>2019-11-01T09:04:57Z</time>
      </trkpt>
      <trkpt lat="46.31627" lon="2.80765">
        <ele>311.6</ele>
        <time>2019-11-01T09:04:58Z</time>
      </trkpt>
      <trkpt lat="46.31624" lon="2.8077">
        <ele>311.7</ele>
        <time>2019-11-01T09:04:59Z</time>
      </trkpt>
      <trkpt lat="46.31621" lon="2.80775">
        <ele>311.8</ele>
        <time>2019-11-01T09:05:00Z</time>
      </trkpt>
      <trkpt lat="46.31618" lon="2.80781">
        <ele>311.9</ele>
        <time>2019-11-01T09:05:01Z</time>
      </trkpt>
      <trkpt lat="46.31615" lon="2.80786">
        <ele>312.1</ele>
        <time>2019-11-01T09:05:02Z</time>
      </trkpt>
      <trkpt lat="46.31612" lon="2.80792">
        <ele>312.1</ele>
        <time>2019-11-01T09:05:03Z</time>
      </trkpt>
      <trkpt lat="46.31609" lon="2.80797">
        <ele>312.2</ele>
        <time>2019-11-01T09:05:04Z</time>
      </trkpt>
      <trkpt lat="46.31606" lon="2.80803">
        <ele>312.3</ele>
        <time>2019-11-01T09:05:05Z</time>
      </trkpt>
      <trkpt lat="46.31603" lon="2.80808">
        <ele>312.3</ele>
        <time>2019-11-01T09:05:06Z</time>
      </trkpt>
      <trkpt lat="46.316" lon="2.80814">
        <ele>312.3</ele>
        <time>2019-11-01T09:05:07Z</time>
      </trkpt>
      <trkpt lat="46.31597" lon="2.8082">
        <ele>312.4</ele>
        <time>2019-11-01T09:05:08Z</time>
      </trkpt>
      <trkpt lat="46.31594" lon="2.80826">
        <ele>312.4</ele>
        <time>2019-11-01T09:05:09Z</time>
      </trkpt>
      <trkpt lat="46.31591" lon="2.80831">
        <ele>312.5</ele>
        <time>2019-11-01T09:05:10Z</time>
      </trkpt>
      <trkpt lat="46.31588" lon="2.80837">
        <ele>312.6</ele>
        <time>2019-11-01T09:05:11Z</time>
      </trkpt>
      <trkpt lat="46.31585" lon="2.80842">
        <ele>312.7</ele>
        <time>2019-11-01T09:05:12Z</time>
      </trkpt>
      <trkpt lat="46.31582" lon="2.80848">
        <ele>312.8</ele>
        <time>2019-11-01T09:05:13Z</time>
      </trkpt>
      <trkpt lat="46.31579" lon="2.80854">
        <ele>313</ele>
        <time>2019-11-01T09:05:14Z</time>
      </trkpt>
      <trkpt lat="46.31576" lon="2.8086">
        <ele>313.1</ele>
        <time>2019-11-01T09:05:15Z</time>
      </trkpt>
      <trkpt lat="46.31573" lon="2.80865">
        <ele>313.2</ele>
        <time>2019-11-01T09:05:16Z</time>
      </trkpt>
      <trkpt lat="46.3157" lon="2.80871">
        <ele>313.2</ele>
        <time>2019-11-01T09:05:17Z</time>
      </trkpt>
      <trkpt lat="46.31566" lon="2.80878">
        <ele>313.2</ele>
        <time>2019-11-01T09:05:18Z</time>
      </trkpt>
      <trkpt lat="46.31563" lon="2.80884">
        <ele>313.2</ele>
        <time>2019-11-01T09:05:19Z</time>
      </trkpt>
      <trkpt lat="46.3156" lon="2.80889">
        <ele>313.2</ele>
        <time>2019-11-01T09:05:20Z</time>
      </trkpt>
      <trkpt lat="46.31558" lon="2.80895">
        <ele>313.2</ele>
        <time>2019-11-01T09:05:21Z</time>
      </trkpt>
      <trkpt lat="46.31557" lon="2.809">
        <ele>313.2</ele>
        <time>2019-11-01T09:05:22Z</time>
      </trkpt>
      <trkpt lat="46.31557" lon="2.80904">
        <ele>313.2</ele>
        <time>2019-11-01T09:05:23Z</time>
      </trkpt>
      <trkpt lat="46.31557" lon="2.80906">
        <ele>313.3</ele>
        <time>2019-11-01T09:05:24Z</time>
      </trkpt>
      <trkpt lat="46.31557" lon="2.80909">
        <ele>313.3</ele>
        <time>2019-11-01T09:05:25Z</time>
      </trkpt>
      <trkpt lat="46.31558" lon="2.80911">
        <ele>313.2</ele>
        <time>2019-11-01T09:05:26Z</time>
      </trkpt>
      <trkpt lat="46.31558" lon="2.80914">
        <ele>313.2</ele>
        <time>2019-11-01T09:05:27Z</time>
      </trkpt>
      <trkpt lat="46.31559" lon="2.80917">
        <ele>313.2</ele>
        <time>2019-11-01T09:05:28Z</time>
      </trkpt>
      <trkpt lat="46.31559" lon="2.8092">
        <ele>313.2</ele>
        <time>2019-11-01T09:05:29Z</time>
      </trkpt>
      <trkpt lat="46.31559" lon="2.80923">
        <ele>313.3</ele>
        <time>2019-11-01T09:05:30Z</time>
      </trkpt>
      <trkpt lat="46.31559" lon="2.80927">
        <ele>313.3</ele>
        <time>2019-11-01T09:05:31Z</time>
      </trkpt>
      <trkpt lat="46.3156" lon="2.8093">
        <ele>313.3</ele>
        <time>2019-11-01T09:05:32Z</time>
      </trkpt>
      <trkpt lat="46.3156" lon="2.80933">
        <ele>313.3</ele>
        <time>2019-11-01T09:05:33Z</time>
      </trkpt>
      <trkpt lat="46.31562" lon="2.80936">
        <ele>313.3</ele>
        <time>2019-11-01T09:05:34Z</time>
      </trkpt>
      <trkpt lat="46.31562" lon="2.8094">
        <ele>313.3</ele>
        <time>2019-11-01T09:05:35Z</time>
      </trkpt>
      <trkpt lat="46.31563" lon="2.80944">
        <ele>313.4</ele>
        <time>2019-11-01T09:05:36Z</time>
      </trkpt>
      <trkpt lat="46.31564" lon="2.80948">
        <ele>313.4</ele>
        <time>2019-11-01T09:05:37Z</time>
      </trkpt>
      <trkpt lat="46.31564" lon="2.80951">
        <ele>313.3</ele>
        <time>2019-11-01T09:05:38Z</time>
      </trkpt>
      <trkpt lat="46.31566" lon="2.80957">
        <ele>313.4</ele>
        <time>2019-11-01T09:05:39Z</time>
      </trkpt>
      <trkpt lat="46.31568" lon="2.80963">
        <ele>313.3</ele>
        <time>2019-11-01T09:05:40Z</time>
      </trkpt>
      <trkpt lat="46.31569" lon="2.80972">
        <ele>313.5</ele>
        <time>2019-11-01T09:05:41Z</time>
      </trkpt>
      <trkpt lat="46.3157" lon="2.8098">
        <ele>313.5</ele>
        <time>2019-11-01T09:05:42Z</time>
      </trkpt>
      <trkpt lat="46.31572" lon="2.8099">
        <ele>313.7</ele>
        <time>2019-11-01T09:05:43Z</time>
      </trkpt>
      <trkpt lat="46.31573" lon="2.81">
        <ele>313.7</ele>
        <time>2019-11-01T09:05:44Z</time>
      </trkpt>
      <trkpt lat="46.31575" lon="2.8101">
        <ele>313.9</ele>
        <time>2019-11-01T09:05:45Z</time>
      </trkpt>
      <trkpt lat="46.31575" lon="2.81017">
        <ele>314.1</ele>
        <time>2019-11-01T09:05:46Z</time>
      </trkpt>
      <trkpt lat="46.31576" lon="2.81024">
        <ele>314.2</ele>
        <time>2019-11-01T09:05:47Z</time>
      </trkpt>
      <trkpt lat="46.31577" lon="2.81031">
        <ele>314.3</ele>
        <time>2019-11-01T09:05:48Z</time>
      </trkpt>
      <trkpt lat="46.31577" lon="2.81037">
        <ele>314.5</ele>
        <time>2019-11-01T09:05:49Z</time>
      </trkpt>
      <trkpt lat="46.31577" lon="2.81044">
        <ele>314.6</ele>
        <time>2019-11-01T09:05:50Z</time>
      </trkpt>
      <trkpt lat="46.31577" lon="2.81049">
        <ele>314.7</ele>
        <time>2019-11-01T09:05:51Z</time>
      </trkpt>
      <trkpt lat="46.31576" lon="2.81055">
        <ele>314.8</ele>
        <time>2019-11-01T09:05:52Z</time>
      </trkpt>
      <trkpt lat="46.31575" lon="2.8106">
        <ele>314.9</ele>
        <time>2019-11-01T09:05:53Z</time>
      </trkpt>
      <trkpt lat="46.31574" lon="2.81065">
        <ele>314.9</ele>
        <time>2019-11-01T09:05:54Z</time>
      </trkpt>
      <trkpt lat="46.31574" lon="2.81069">
        <ele>315.3</ele>
        <time>2019-11-01T09:05:55Z</time>
      </trkpt>
      <trkpt lat="46.31574" lon="2.81073">
        <ele>315.6</ele>
        <time>2019-11-01T09:05:56Z</time>
      </trkpt>
      <trkpt lat="46.31575" lon="2.81075">
        <ele>315.8</ele>
        <time>2019-11-01T09:05:57Z</time>
      </trkpt>
      <trkpt lat="46.31576" lon="2.81076">
        <ele>316</ele>
        <time>2019-11-01T09:05:58Z</time>
      </trkpt>
      <trkpt lat="46.31578" lon="2.81077">
        <ele>316.5</ele>
        <time>2019-11-01T09:05:59Z</time>
      </trkpt>
      <trkpt lat="46.31579" lon="2.81078">
        <ele>316.6</ele>
        <time>2019-11-01T09:06:00Z</time>
      </trkpt>
      <trkpt lat="46.31581" lon="2.81079">
        <ele>317</ele>
        <time>2019-11-01T09:06:01Z</time>
      </trkpt>
      <trkpt lat="46.31583" lon="2.81081">
        <ele>317.4</ele>
        <time>2019-11-01T09:06:02Z</time>
      </trkpt>
      <trkpt lat="46.31585" lon="2.81081">
        <ele>317.7</ele>
        <time>2019-11-01T09:06:03Z</time>
      </trkpt>
      <trkpt lat="46.31588" lon="2.81081">
        <ele>318.1</ele>
        <time>2019-11-01T09:06:04Z</time>
      </trkpt>
      <trkpt lat="46.3159" lon="2.81081">
        <ele>318.5</ele>
        <time>2019-11-01T09:06:05Z</time>
      </trkpt>
      <trkpt lat="46.31593" lon="2.81081">
        <ele>318.8</ele>
        <time>2019-11-01T09:06:06Z</time>
      </trkpt>
      <trkpt lat="46.31596" lon="2.81082">
        <ele>319</ele>
        <time>2019-11-01T09:06:07Z</time>
      </trkpt>
      <trkpt lat="46.31599" lon="2.81083">
        <ele>319.3</ele>
        <time>2019-11-01T09:06:08Z</time>
      </trkpt>
      <trkpt lat="46.31601" lon="2.81083">
        <ele>319.5</ele>
        <time>2019-11-01T09:06:09Z</time>
      </trkpt>
      <trkpt lat="46.31604" lon="2.81084">
        <ele>319.6</ele>
        <time>2019-11-01T09:06:10Z</time>
      </trkpt>
      <trkpt lat="46.31606" lon="2.81086">
        <ele>319.8</ele>
        <time>2019-11-01T09:06:11Z</time>
      </trkpt>
      <trkpt lat="46.31608" lon="2.81087">
        <ele>319.9</ele>
        <time>2019-11-01T09:06:12Z</time>
      </trkpt>
      <trkpt lat="46.31611" lon="2.81089">
        <ele>320</ele>
        <time>2019-11-01T09:06:13Z</time>
      </trkpt>
      <trkpt lat="46.31614" lon="2.81091">
        <ele>320.1</ele>
        <time>2019-11-01T09:06:14Z</time>
      </trkpt>
      <trkpt lat="46.31616" lon="2.81091">
        <ele>320.2</ele>
        <time>2019-11-01T09:06:15Z</time>
      </trkpt>
      <trkpt lat="46.31619" lon="2.81091">
        <ele>320.2</ele>
        <time>2019-11-01T09:06:16Z</time>
      </trkpt>
      <trkpt lat="46.31623" lon="2.8109">
        <ele>320.3</ele>
        <time>2019-11-01T09:06:17Z</time>
      </trkpt>
      <trkpt lat="46.31627" lon="2.81089">
        <ele>320.3</ele>
        <time>2019-11-01T09:06:18Z</time>
      </trkpt>
      <trkpt lat="46.3163" lon="2.81088">
        <ele>320.4</ele>
        <time>2019-11-01T09:06:19Z</time>
      </trkpt>
      <trkpt lat="46.31633" lon="2.81088">
        <ele>320.4</ele>
        <time>2019-11-01T09:06:20Z</time>
      </trkpt>
      <trkpt lat="46.31635" lon="2.81088">
        <ele>320.4</ele>
        <time>2019-11-01T09:06:21Z</time>
      </trkpt>
      <trkpt lat="46.31638" lon="2.81087">
        <ele>320.4</ele>
        <time>2019-11-01T09:06:22Z</time>
      </trkpt>
      <trkpt lat="46.3164" lon="2.81087">
        <ele>320.4</ele>
        <time>2019-11-01T09:06:23Z</time>
      </trkpt>
      <trkpt lat="46.31643" lon="2.81086">
        <ele>320.4</ele>
        <time>2019-11-01T09:06:24Z</time>
      </trkpt>
      <trkpt lat="46.31645" lon="2.81086">
        <ele>320.4</ele>
        <time>2019-11-01T09:06:25Z</time>
      </trkpt>
      <trkpt lat="46.31646" lon="2.81085">
        <ele>320.3</ele>
        <time>2019-11-01T09:06:26Z</time>
      </trkpt>
      <trkpt lat="46.31648" lon="2.81084">
        <ele>320.3</ele>
        <time>2019-11-01T09:06:27Z</time>
      </trkpt>
      <trkpt lat="46.3165" lon="2.81084">
        <ele>320.3</ele>
        <time>2019-11-01T09:06:28Z</time>
      </trkpt>
      <trkpt lat="46.31653" lon="2.81083">
        <ele>320.3</ele>
        <time>2019-11-01T09:06:29Z</time>
      </trkpt>
      <trkpt lat="46.31655" lon="2.81083">
        <ele>320.3</ele>
        <time>2019-11-01T09:06:30Z</time>
      </trkpt>
      <trkpt lat="46.31656" lon="2.81083">
        <ele>320.3</ele>
        <time>2019-11-01T09:06:31Z</time>
      </trkpt>
      <trkpt lat="46.31658" lon="2.81082">
        <ele>320.3</ele>
        <time>2019-11-01T09:06:32Z</time>
      </trkpt>
      <trkpt lat="46.31659" lon="2.81082">
        <ele>320.2</ele>
        <time>2019-11-01T09:06:33Z</time>
      </trkpt>
      <trkpt lat="46.31661" lon="2.81081">
        <ele>320.2</ele>
        <time>2019-11-01T09:06:34Z</time>
      </trkpt>
      <trkpt lat="46.31664" lon="2.8108">
        <ele>320.2</ele>
        <time>2019-11-01T09:06:35Z</time>
      </trkpt>
      <trkpt lat="46.31666" lon="2.81079">
        <ele>320.2</ele>
        <time>2019-11-01T09:06:36Z</time>
      </trkpt>
      <trkpt lat="46.31667" lon="2.81077">
        <ele>320.1</ele>
        <time>2019-11-01T09:06:37Z</time>
      </trkpt>
      <trkpt lat="46.31668" lon="2.81076">
        <ele>320.1</ele>
        <time>2019-11-01T09:06:38Z</time>
      </trkpt>
      <trkpt lat="46.3167" lon="2.81075">
        <ele>320.1</ele>
        <time>2019-11-01T09:06:39Z</time>
      </trkpt>
      <trkpt lat="46.31672" lon="2.81074">
        <ele>320.1</ele>
        <time>2019-11-01T09:06:40Z</time>
      </trkpt>
      <trkpt lat="46.31676" lon="2.81073">
        <ele>320</ele>
        <time>2019-11-01T09:06:41Z</time>
      </trkpt>
      <trkpt lat="46.31679" lon="2.81072">
        <ele>320</ele>
        <time>2019-11-01T09:06:42Z</time>
      </trkpt>
      <trkpt lat="46.31682" lon="2.81071">
        <ele>320</ele>
        <time>2019-11-01T09:06:43Z</time>
      </trkpt>
      <trkpt lat="46.31685" lon="2.81069">
        <ele>320</ele>
        <time>2019-11-01T09:06:44Z</time>
      </trkpt>
      <trkpt lat="46.31688" lon="2.81068">
        <ele>320</ele>
        <time>2019-11-01T09:06:45Z</time>
      </trkpt>
      <trkpt lat="46.31692" lon="2.81067">
        <ele>320</ele>
        <time>2019-11-01T09:06:46Z</time>
      </trkpt>
      <trkpt lat="46.31695" lon="2.81066">
        <ele>319.9</ele>
        <time>2019-11-01T09:06:47Z</time>
      </trkpt>
      <trkpt lat="46.31699" lon="2.81065">
        <ele>319.9</ele>
        <time>2019-11-01T09:06:48Z</time>
      </trkpt>
      <trkpt lat="46.31703" lon="2.81063">
        <ele>319.9</ele>
        <time>2019-11-01T09:06:49Z</time>
      </trkpt>
      <trkpt lat="46.31706" lon="2.81061">
        <ele>319.9</ele>
        <time>2019-11-01T09:06:50Z</time>
      </trkpt>
      <trkpt lat="46.31709" lon="2.81059">
        <ele>319.9</ele>
        <time>2019-11-01T09:06:51Z</time>
      </trkpt>
      <trkpt lat="46.31713" lon="2.81057">
        <ele>319.9</ele>
        <time>2019-11-01T09:06:52Z</time>
      </trkpt>
      <trkpt lat="46.31718" lon="2.81054">
        <ele>319.9</ele>
        <time>2019-11-01T09:06:53Z</time>
      </trkpt>
      <trkpt lat="46.31721" lon="2.81052">
        <ele>319.8</ele>
        <time>2019-11-01T09:06:54Z</time>
      </trkpt>
      <trkpt lat="46.31725" lon="2.8105">
        <ele>319.8</ele>
        <time>2019-11-01T09:06:55Z</time>
      </trkpt>
      <trkpt lat="46.31729" lon="2.81047">
        <ele>319.8</ele>
        <time>2019-11-01T09:06:56Z</time>
      </trkpt>
      <trkpt lat="46.31733" lon="2.81044">
        <ele>319.7</ele>
        <time>2019-11-01T09:06:57Z</time>
      </trkpt>
      <trkpt lat="46.31737" lon="2.81041">
        <ele>319.7</ele>
        <time>2019-11-01T09:06:58Z</time>
      </trkpt>
      <trkpt lat="46.3174" lon="2.81038">
        <ele>319.6</ele>
        <time>2019-11-01T09:06:59Z</time>
      </trkpt>
      <trkpt lat="46.31743" lon="2.81036">
        <ele>319.6</ele>
        <time>2019-11-01T09:07:00Z</time>
      </trkpt>
      <trkpt lat="46.31747" lon="2.81034">
        <ele>319.5</ele>
        <time>2019-11-01T09:07:01Z</time>
      </trkpt>
      <trkpt lat="46.31751" lon="2.81031">
        <ele>319.5</ele>
        <time>2019-11-01T09:07:02Z</time>
      </trkpt>
      <trkpt lat="46.31755" lon="2.81028">
        <ele>319.5</ele>
        <time>2019-11-01T09:07:03Z</time>
      </trkpt>
      <trkpt lat="46.31758" lon="2.81025">
        <ele>319.5</ele>
        <time>2019-11-01T09:07:04Z</time>
      </trkpt>
      <trkpt lat="46.31762" lon="2.81022">
        <ele>319.5</ele>
        <time>2019-11-01T09:07:05Z</time>
      </trkpt>
      <trkpt lat="46.31769" lon="2.81017">
        <ele>319.5</ele>
        <time>2019-11-01T09:07:06Z</time>
      </trkpt>
      <trkpt lat="46.31773" lon="2.81014">
        <ele>319.6</ele>
        <time>2019-11-01T09:07:07Z</time>
      </trkpt>
      <trkpt lat="46.31779" lon="2.8101">
        <ele>319.6</ele>
        <time>2019-11-01T09:07:08Z</time>
      </trkpt>
      <trkpt lat="46.31782" lon="2.81008">
        <ele>319.6</ele>
        <time>2019-11-01T09:07:09Z</time>
      </trkpt>
      <trkpt lat="46.31787" lon="2.81005">
        <ele>319.6</ele>
        <time>2019-11-01T09:07:10Z</time>
      </trkpt>
      <trkpt lat="46.31792" lon="2.81002">
        <ele>319.7</ele>
        <time>2019-11-01T09:07:11Z</time>
      </trkpt>
      <trkpt lat="46.31798" lon="2.80999">
        <ele>319.7</ele>
        <time>2019-11-01T09:07:12Z</time>
      </trkpt>
      <trkpt lat="46.31804" lon="2.80997">
        <ele>319.7</ele>
        <time>2019-11-01T09:07:13Z</time>
      </trkpt>
      <trkpt lat="46.31808" lon="2.80996">
        <ele>319.7</ele>
        <time>2019-11-01T09:07:14Z</time>
      </trkpt>
      <trkpt lat="46.31813" lon="2.80995">
        <ele>319.7</ele>
        <time>2019-11-01T09:07:15Z</time>
      </trkpt>
      <trkpt lat="46.31819" lon="2.80994">
        <ele>319.7</ele>
        <time>2019-11-01T09:07:16Z</time>
      </trkpt>
      <trkpt lat="46.31823" lon="2.80994">
        <ele>319.7</ele>
        <time>2019-11-01T09:07:17Z</time>
      </trkpt>
      <trkpt lat="46.31827" lon="2.80995">
        <ele>319.7</ele>
        <time>2019-11-01T09:07:18Z</time>
      </trkpt>
      <trkpt lat="46.31832" lon="2.80996">
        <ele>319.7</ele>
        <time>2019-11-01T09:07:19Z</time>
      </trkpt>
      <trkpt lat="46.31838" lon="2.80997">
        <ele>319.6</ele>
        <time>2019-11-01T09:07:20Z</time>
      </trkpt>
      <trkpt lat="46.31844" lon="2.80998">
        <ele>319.6</ele>
        <time>2019-11-01T09:07:21Z</time>
      </trkpt>
      <trkpt lat="46.3185" lon="2.80999">
        <ele>319.6</ele>
        <time>2019-11-01T09:07:22Z</time>
      </trkpt>
      <trkpt lat="46.31854" lon="2.81">
        <ele>319.5</ele>
        <time>2019-11-01T09:07:23Z</time>
      </trkpt>
      <trkpt lat="46.31859" lon="2.81001">
        <ele>319.5</ele>
        <time>2019-11-01T09:07:24Z</time>
      </trkpt>
      <trkpt lat="46.31866" lon="2.81004">
        <ele>319.5</ele>
        <time>2019-11-01T09:07:25Z</time>
      </trkpt>
      <trkpt lat="46.31873" lon="2.81006">
        <ele>319.5</ele>
        <time>2019-11-01T09:07:26Z</time>
      </trkpt>
      <trkpt lat="46.31878" lon="2.81008">
        <ele>319.5</ele>
        <time>2019-11-01T09:07:27Z</time>
      </trkpt>
      <trkpt lat="46.31882" lon="2.8101">
        <ele>319.4</ele>
        <time>2019-11-01T09:07:28Z</time>
      </trkpt>
      <trkpt lat="46.31889" lon="2.81012">
        <ele>319.3</ele>
        <time>2019-11-01T09:07:29Z</time>
      </trkpt>
      <trkpt lat="46.31896" lon="2.81015">
        <ele>319.2</ele>
        <time>2019-11-01T09:07:30Z</time>
      </trkpt>
      <trkpt lat="46.31903" lon="2.81017">
        <ele>319.1</ele>
        <time>2019-11-01T09:07:31Z</time>
      </trkpt>
      <trkpt lat="46.31908" lon="2.81019">
        <ele>319.1</ele>
        <time>2019-11-01T09:07:32Z</time>
      </trkpt>
      <trkpt lat="46.31912" lon="2.81021">
        <ele>319</ele>
        <time>2019-11-01T09:07:33Z</time>
      </trkpt>
      <trkpt lat="46.31918" lon="2.81022">
        <ele>318.9</ele>
        <time>2019-11-01T09:07:34Z</time>
      </trkpt>
      <trkpt lat="46.31924" lon="2.81024">
        <ele>318.9</ele>
        <time>2019-11-01T09:07:35Z</time>
      </trkpt>
      <trkpt lat="46.31929" lon="2.81027">
        <ele>318.8</ele>
        <time>2019-11-01T09:07:36Z</time>
      </trkpt>
      <trkpt lat="46.31934" lon="2.81029">
        <ele>318.8</ele>
        <time>2019-11-01T09:07:37Z</time>
      </trkpt>
      <trkpt lat="46.31939" lon="2.81031">
        <ele>318.8</ele>
        <time>2019-11-01T09:07:38Z</time>
      </trkpt>
      <trkpt lat="46.31944" lon="2.81033">
        <ele>318.8</ele>
        <time>2019-11-01T09:07:39Z</time>
      </trkpt>
      <trkpt lat="46.3195" lon="2.81035">
        <ele>318.8</ele>
        <time>2019-11-01T09:07:40Z</time>
      </trkpt>
      <trkpt lat="46.31957" lon="2.81037">
        <ele>318.8</ele>
        <time>2019-11-01T09:07:41Z</time>
      </trkpt>
      <trkpt lat="46.31962" lon="2.81039">
        <ele>318.8</ele>
        <time>2019-11-01T09:07:42Z</time>
      </trkpt>
      <trkpt lat="46.31967" lon="2.81041">
        <ele>318.9</ele>
        <time>2019-11-01T09:07:43Z</time>
      </trkpt>
      <trkpt lat="46.31973" lon="2.81043">
        <ele>318.9</ele>
        <time>2019-11-01T09:07:44Z</time>
      </trkpt>
      <trkpt lat="46.31981" lon="2.81046">
        <ele>319</ele>
        <time>2019-11-01T09:07:45Z</time>
      </trkpt>
      <trkpt lat="46.31987" lon="2.81049">
        <ele>319</ele>
        <time>2019-11-01T09:07:46Z</time>
      </trkpt>
      <trkpt lat="46.31991" lon="2.81051">
        <ele>319.1</ele>
        <time>2019-11-01T09:07:47Z</time>
      </trkpt>
      <trkpt lat="46.31997" lon="2.81053">
        <ele>319.1</ele>
        <time>2019-11-01T09:07:48Z</time>
      </trkpt>
      <trkpt lat="46.32005" lon="2.81057">
        <ele>319.1</ele>
        <time>2019-11-01T09:07:49Z</time>
      </trkpt>
      <trkpt lat="46.3201" lon="2.81059">
        <ele>319.1</ele>
        <time>2019-11-01T09:07:50Z</time>
      </trkpt>
      <trkpt lat="46.32017" lon="2.81062">
        <ele>319.2</ele>
        <time>2019-11-01T09:07:51Z</time>
      </trkpt>
      <trkpt lat="46.32023" lon="2.81066">
        <ele>319.2</ele>
        <time>2019-11-01T09:07:52Z</time>
      </trkpt>
      <trkpt lat="46.32027" lon="2.81071">
        <ele>319.1</ele>
        <time>2019-11-01T09:07:53Z</time>
      </trkpt>
      <trkpt lat="46.32032" lon="2.81077">
        <ele>319.1</ele>
        <time>2019-11-01T09:07:54Z</time>
      </trkpt>
      <trkpt lat="46.32037" lon="2.81083">
        <ele>319</ele>
        <time>2019-11-01T09:07:55Z</time>
      </trkpt>
      <trkpt lat="46.32042" lon="2.81088">
        <ele>318.9</ele>
        <time>2019-11-01T09:07:56Z</time>
      </trkpt>
      <trkpt lat="46.32045" lon="2.81093">
        <ele>318.9</ele>
        <time>2019-11-01T09:07:57Z</time>
      </trkpt>
      <trkpt lat="46.3205" lon="2.81099">
        <ele>318.8</ele>
        <time>2019-11-01T09:07:58Z</time>
      </trkpt>
      <trkpt lat="46.32054" lon="2.81107">
        <ele>318.7</ele>
        <time>2019-11-01T09:07:59Z</time>
      </trkpt>
      <trkpt lat="46.32057" lon="2.81114">
        <ele>318.7</ele>
        <time>2019-11-01T09:08:00Z</time>
      </trkpt>
      <trkpt lat="46.3206" lon="2.8112">
        <ele>318.7</ele>
        <time>2019-11-01T09:08:01Z</time>
      </trkpt>
      <trkpt lat="46.32063" lon="2.81128">
        <ele>318.7</ele>
        <time>2019-11-01T09:08:02Z</time>
      </trkpt>
      <trkpt lat="46.32067" lon="2.81136">
        <ele>318.8</ele>
        <time>2019-11-01T09:08:03Z</time>
      </trkpt>
      <trkpt lat="46.3207" lon="2.81144">
        <ele>318.8</ele>
        <time>2019-11-01T09:08:04Z</time>
      </trkpt>
      <trkpt lat="46.32073" lon="2.81152">
        <ele>318.9</ele>
        <time>2019-11-01T09:08:05Z</time>
      </trkpt>
      <trkpt lat="46.32075" lon="2.81161">
        <ele>319.1</ele>
        <time>2019-11-01T09:08:06Z</time>
      </trkpt>
      <trkpt lat="46.32076" lon="2.81166">
        <ele>319.2</ele>
        <time>2019-11-01T09:08:07Z</time>
      </trkpt>
      <trkpt lat="46.32078" lon="2.81175">
        <ele>319.4</ele>
        <time>2019-11-01T09:08:08Z</time>
      </trkpt>
      <trkpt lat="46.32079" lon="2.81183">
        <ele>319.7</ele>
        <time>2019-11-01T09:08:09Z</time>
      </trkpt>
      <trkpt lat="46.3208" lon="2.8119">
        <ele>320</ele>
        <time>2019-11-01T09:08:10Z</time>
      </trkpt>
      <trkpt lat="46.32081" lon="2.81197">
        <ele>320.5</ele>
        <time>2019-11-01T09:08:11Z</time>
      </trkpt>
      <trkpt lat="46.32083" lon="2.81204">
        <ele>321</ele>
        <time>2019-11-01T09:08:12Z</time>
      </trkpt>
      <trkpt lat="46.32085" lon="2.81212">
        <ele>320.9</ele>
        <time>2019-11-01T09:08:13Z</time>
      </trkpt>
      <trkpt lat="46.32087" lon="2.81221">
        <ele>320.7</ele>
        <time>2019-11-01T09:08:14Z</time>
      </trkpt>
      <trkpt lat="46.32089" lon="2.81226">
        <ele>320.5</ele>
        <time>2019-11-01T09:08:15Z</time>
      </trkpt>
      <trkpt lat="46.32093" lon="2.81234">
        <ele>320.3</ele>
        <time>2019-11-01T09:08:16Z</time>
      </trkpt>
      <trkpt lat="46.32096" lon="2.8124">
        <ele>320.1</ele>
        <time>2019-11-01T09:08:17Z</time>
      </trkpt>
      <trkpt lat="46.321" lon="2.81248">
        <ele>319.9</ele>
        <time>2019-11-01T09:08:18Z</time>
      </trkpt>
      <trkpt lat="46.32104" lon="2.81253">
        <ele>319.8</ele>
        <time>2019-11-01T09:08:19Z</time>
      </trkpt>
      <trkpt lat="46.32108" lon="2.81259">
        <ele>319.6</ele>
        <time>2019-11-01T09:08:20Z</time>
      </trkpt>
      <trkpt lat="46.32112" lon="2.81266">
        <ele>319.5</ele>
        <time>2019-11-01T09:08:21Z</time>
      </trkpt>
      <trkpt lat="46.32117" lon="2.81272">
        <ele>319.3</ele>
        <time>2019-11-01T09:08:22Z</time>
      </trkpt>
      <trkpt lat="46.32122" lon="2.81277">
        <ele>319.1</ele>
        <time>2019-11-01T09:08:23Z</time>
      </trkpt>
      <trkpt lat="46.32126" lon="2.81282">
        <ele>319</ele>
        <time>2019-11-01T09:08:24Z</time>
      </trkpt>
      <trkpt lat="46.32132" lon="2.81286">
        <ele>318.8</ele>
        <time>2019-11-01T09:08:25Z</time>
      </trkpt>
      <trkpt lat="46.32138" lon="2.8129">
        <ele>318.6</ele>
        <time>2019-11-01T09:08:26Z</time>
      </trkpt>
      <trkpt lat="46.32144" lon="2.81294">
        <ele>318.3</ele>
        <time>2019-11-01T09:08:27Z</time>
      </trkpt>
      <trkpt lat="46.32149" lon="2.81296">
        <ele>318.1</ele>
        <time>2019-11-01T09:08:28Z</time>
      </trkpt>
      <trkpt lat="46.32154" lon="2.81298">
        <ele>318</ele>
        <time>2019-11-01T09:08:29Z</time>
      </trkpt>
      <trkpt lat="46.3216" lon="2.81299">
        <ele>317.8</ele>
        <time>2019-11-01T09:08:30Z</time>
      </trkpt>
      <trkpt lat="46.32167" lon="2.813">
        <ele>317.5</ele>
        <time>2019-11-01T09:08:31Z</time>
      </trkpt>
      <trkpt lat="46.32173" lon="2.813">
        <ele>317.4</ele>
        <time>2019-11-01T09:08:32Z</time>
      </trkpt>
      <trkpt lat="46.32178" lon="2.81299">
        <ele>317.2</ele>
        <time>2019-11-01T09:08:33Z</time>
      </trkpt>
      <trkpt lat="46.32184" lon="2.81297">
        <ele>317.1</ele>
        <time>2019-11-01T09:08:34Z</time>
      </trkpt>
      <trkpt lat="46.3219" lon="2.81295">
        <ele>316.9</ele>
        <time>2019-11-01T09:08:35Z</time>
      </trkpt>
      <trkpt lat="46.32197" lon="2.81291">
        <ele>316.8</ele>
        <time>2019-11-01T09:08:36Z</time>
      </trkpt>
      <trkpt lat="46.32203" lon="2.81286">
        <ele>316.7</ele>
        <time>2019-11-01T09:08:37Z</time>
      </trkpt>
      <trkpt lat="46.3221" lon="2.81281">
        <ele>316.5</ele>
        <time>2019-11-01T09:08:38Z</time>
      </trkpt>
      <trkpt lat="46.32216" lon="2.81278">
        <ele>316.3</ele>
        <time>2019-11-01T09:08:39Z</time>
      </trkpt>
      <trkpt lat="46.32223" lon="2.81273">
        <ele>316.1</ele>
        <time>2019-11-01T09:08:40Z</time>
      </trkpt>
      <trkpt lat="46.32229" lon="2.81267">
        <ele>316</ele>
        <time>2019-11-01T09:08:41Z</time>
      </trkpt>
      <trkpt lat="46.32236" lon="2.81263">
        <ele>315.8</ele>
        <time>2019-11-01T09:08:42Z</time>
      </trkpt>
      <trkpt lat="46.32242" lon="2.81259">
        <ele>315.7</ele>
        <time>2019-11-01T09:08:43Z</time>
      </trkpt>
      <trkpt lat="46.3225" lon="2.81256">
        <ele>315.5</ele>
        <time>2019-11-01T09:08:44Z</time>
      </trkpt>
      <trkpt lat="46.32258" lon="2.81253">
        <ele>315.2</ele>
        <time>2019-11-01T09:08:45Z</time>
      </trkpt>
      <trkpt lat="46.32267" lon="2.81252">
        <ele>314.8</ele>
        <time>2019-11-01T09:08:46Z</time>
      </trkpt>
      <trkpt lat="46.32275" lon="2.81252">
        <ele>314.5</ele>
        <time>2019-11-01T09:08:47Z</time>
      </trkpt>
      <trkpt lat="46.3228" lon="2.81253">
        <ele>314.3</ele>
        <time>2019-11-01T09:08:48Z</time>
      </trkpt>
      <trkpt lat="46.32287" lon="2.81253">
        <ele>314.1</ele>
        <time>2019-11-01T09:08:49Z</time>
      </trkpt>
      <trkpt lat="46.32294" lon="2.81255">
        <ele>313.5</ele>
        <time>2019-11-01T09:08:50Z</time>
      </trkpt>
      <trkpt lat="46.32302" lon="2.81258">
        <ele>312.8</ele>
        <time>2019-11-01T09:08:51Z</time>
      </trkpt>
      <trkpt lat="46.32309" lon="2.81261">
        <ele>312.3</ele>
        <time>2019-11-01T09:08:52Z</time>
      </trkpt>
      <trkpt lat="46.32314" lon="2.81265">
        <ele>312</ele>
        <time>2019-11-01T09:08:53Z</time>
      </trkpt>
      <trkpt lat="46.32321" lon="2.81269">
        <ele>311.7</ele>
        <time>2019-11-01T09:08:54Z</time>
      </trkpt>
      <trkpt lat="46.32327" lon="2.81276">
        <ele>311.4</ele>
        <time>2019-11-01T09:08:55Z</time>
      </trkpt>
      <trkpt lat="46.32331" lon="2.8128">
        <ele>311.3</ele>
        <time>2019-11-01T09:08:56Z</time>
      </trkpt>
      <trkpt lat="46.32338" lon="2.81286">
        <ele>311</ele>
        <time>2019-11-01T09:08:57Z</time>
      </trkpt>
      <trkpt lat="46.32344" lon="2.81291">
        <ele>310.8</ele>
        <time>2019-11-01T09:08:58Z</time>
      </trkpt>
      <trkpt lat="46.32349" lon="2.81296">
        <ele>310.6</ele>
        <time>2019-11-01T09:08:59Z</time>
      </trkpt>
      <trkpt lat="46.32354" lon="2.813">
        <ele>310.4</ele>
        <time>2019-11-01T09:09:00Z</time>
      </trkpt>
      <trkpt lat="46.32361" lon="2.81306">
        <ele>310.1</ele>
        <time>2019-11-01T09:09:01Z</time>
      </trkpt>
      <trkpt lat="46.32365" lon="2.81309">
        <ele>310</ele>
        <time>2019-11-01T09:09:02Z</time>
      </trkpt>
      <trkpt lat="46.32372" lon="2.81313">
        <ele>309.7</ele>
        <time>2019-11-01T09:09:03Z</time>
      </trkpt>
      <trkpt lat="46.32379" lon="2.81317">
        <ele>309.4</ele>
        <time>2019-11-01T09:09:04Z</time>
      </trkpt>
      <trkpt lat="46.32384" lon="2.8132">
        <ele>309.2</ele>
        <time>2019-11-01T09:09:05Z</time>
      </trkpt>
      <trkpt lat="46.3239" lon="2.81321">
        <ele>308.9</ele>
        <time>2019-11-01T09:09:06Z</time>
      </trkpt>
      <trkpt lat="46.32395" lon="2.81322">
        <ele>308.8</ele>
        <time>2019-11-01T09:09:07Z</time>
      </trkpt>
      <trkpt lat="46.32401" lon="2.81323">
        <ele>308.6</ele>
        <time>2019-11-01T09:09:08Z</time>
      </trkpt>
      <trkpt lat="46.32409" lon="2.81323">
        <ele>308.4</ele>
        <time>2019-11-01T09:09:09Z</time>
      </trkpt>
      <trkpt lat="46.32416" lon="2.81323">
        <ele>308.2</ele>
        <time>2019-11-01T09:09:10Z</time>
      </trkpt>
      <trkpt lat="46.32423" lon="2.8132">
        <ele>307.9</ele>
        <time>2019-11-01T09:09:11Z</time>
      </trkpt>
      <trkpt lat="46.32428" lon="2.81318">
        <ele>307.8</ele>
        <time>2019-11-01T09:09:12Z</time>
      </trkpt>
      <trkpt lat="46.32434" lon="2.81315">
        <ele>307.4</ele>
        <time>2019-11-01T09:09:13Z</time>
      </trkpt>
      <trkpt lat="46.32436" lon="2.81311">
        <ele>307.4</ele>
        <time>2019-11-01T09:09:14Z</time>
      </trkpt>
      <trkpt lat="46.32439" lon="2.81304">
        <ele>307.4</ele>
        <time>2019-11-01T09:09:15Z</time>
      </trkpt>
      <trkpt lat="46.32442" lon="2.81297">
        <ele>307.3</ele>
        <time>2019-11-01T09:09:16Z</time>
      </trkpt>
      <trkpt lat="46.32447" lon="2.81291">
        <ele>307.2</ele>
        <time>2019-11-01T09:09:17Z</time>
      </trkpt>
      <trkpt lat="46.3245" lon="2.81285">
        <ele>307.1</ele>
        <time>2019-11-01T09:09:18Z</time>
      </trkpt>
      <trkpt lat="46.32454" lon="2.81277">
        <ele>306.8</ele>
        <time>2019-11-01T09:09:19Z</time>
      </trkpt>
      <trkpt lat="46.32456" lon="2.81272">
        <ele>306.4</ele>
        <time>2019-11-01T09:09:20Z</time>
      </trkpt>
      <trkpt lat="46.32457" lon="2.81267">
        <ele>306.2</ele>
        <time>2019-11-01T09:09:21Z</time>
      </trkpt>
      <trkpt lat="46.32458" lon="2.81263">
        <ele>305.8</ele>
        <time>2019-11-01T09:09:22Z</time>
      </trkpt>
      <trkpt lat="46.32459" lon="2.81262">
        <ele>305.6</ele>
        <time>2019-11-01T09:09:23Z</time>
      </trkpt>
      <trkpt lat="46.32458" lon="2.81259">
        <ele>305.3</ele>
        <time>2019-11-01T09:09:24Z</time>
      </trkpt>
      <trkpt lat="46.32458" lon="2.81254">
        <ele>304.8</ele>
        <time>2019-11-01T09:09:25Z</time>
      </trkpt>
      <trkpt lat="46.32459" lon="2.81251">
        <ele>304.5</ele>
        <time>2019-11-01T09:09:26Z</time>
      </trkpt>
      <trkpt lat="46.3246" lon="2.81248">
        <ele>304.1</ele>
        <time>2019-11-01T09:09:27Z</time>
      </trkpt>
      <trkpt lat="46.32461" lon="2.81244">
        <ele>303.8</ele>
        <time>2019-11-01T09:09:28Z</time>
      </trkpt>
      <trkpt lat="46.32462" lon="2.81241">
        <ele>303.3</ele>
        <time>2019-11-01T09:09:29Z</time>
      </trkpt>
      <trkpt lat="46.32465" lon="2.8124">
        <ele>302.9</ele>
        <time>2019-11-01T09:09:30Z</time>
      </trkpt>
      <trkpt lat="46.32467" lon="2.81237">
        <ele>302.5</ele>
        <time>2019-11-01T09:09:31Z</time>
      </trkpt>
      <trkpt lat="46.32469" lon="2.81235">
        <ele>302</ele>
        <time>2019-11-01T09:09:32Z</time>
      </trkpt>
      <trkpt lat="46.32472" lon="2.81231">
        <ele>301.4</ele>
        <time>2019-11-01T09:09:33Z</time>
      </trkpt>
      <trkpt lat="46.32474" lon="2.81229">
        <ele>300.9</ele>
        <time>2019-11-01T09:09:34Z</time>
      </trkpt>
      <trkpt lat="46.32476" lon="2.81227">
        <ele>300.5</ele>
        <time>2019-11-01T09:09:35Z</time>
      </trkpt>
      <trkpt lat="46.32477" lon="2.81225">
        <ele>300.2</ele>
        <time>2019-11-01T09:09:36Z</time>
      </trkpt>
      <trkpt lat="46.32478" lon="2.81221">
        <ele>299.7</ele>
        <time>2019-11-01T09:09:37Z</time>
      </trkpt>
      <trkpt lat="46.32478" lon="2.81217">
        <ele>299.1</ele>
        <time>2019-11-01T09:09:38Z</time>
      </trkpt>
      <trkpt lat="46.3248" lon="2.81212">
        <ele>298.5</ele>
        <time>2019-11-01T09:09:39Z</time>
      </trkpt>
      <trkpt lat="46.32483" lon="2.81207">
        <ele>297.8</ele>
        <time>2019-11-01T09:09:40Z</time>
      </trkpt>
      <trkpt lat="46.32485" lon="2.81202">
        <ele>297.3</ele>
        <time>2019-11-01T09:09:41Z</time>
      </trkpt>
      <trkpt lat="46.32487" lon="2.81198">
        <ele>296.9</ele>
        <time>2019-11-01T09:09:42Z</time>
      </trkpt>
      <trkpt lat="46.32488" lon="2.81194">
        <ele>296.6</ele>
        <time>2019-11-01T09:09:43Z</time>
      </trkpt>
      <trkpt lat="46.32489" lon="2.8119">
        <ele>296.3</ele>
        <time>2019-11-01T09:09:44Z</time>
      </trkpt>
      <trkpt lat="46.3249" lon="2.81185">
        <ele>295.9</ele>
        <time>2019-11-01T09:09:45Z</time>
      </trkpt>
      <trkpt lat="46.32492" lon="2.81181">
        <ele>295.5</ele>
        <time>2019-11-01T09:09:46Z</time>
      </trkpt>
      <trkpt lat="46.32496" lon="2.81174">
        <ele>294.9</ele>
        <time>2019-11-01T09:09:47Z</time>
      </trkpt>
      <trkpt lat="46.325" lon="2.81168">
        <ele>294.4</ele>
        <time>2019-11-01T09:09:48Z</time>
      </trkpt>
      <trkpt lat="46.32504" lon="2.81163">
        <ele>294.1</ele>
        <time>2019-11-01T09:09:49Z</time>
      </trkpt>
      <trkpt lat="46.32508" lon="2.81158">
        <ele>293.9</ele>
        <time>2019-11-01T09:09:50Z</time>
      </trkpt>
      <trkpt lat="46.32513" lon="2.81154">
        <ele>293.7</ele>
        <time>2019-11-01T09:09:51Z</time>
      </trkpt>
      <trkpt lat="46.32518" lon="2.81149">
        <ele>293.6</ele>
        <time>2019-11-01T09:09:52Z</time>
      </trkpt>
      <trkpt lat="46.32523" lon="2.81146">
        <ele>293.6</ele>
        <time>2019-11-01T09:09:53Z</time>
      </trkpt>
      <trkpt lat="46.32527" lon="2.81145">
        <ele>293.5</ele>
        <time>2019-11-01T09:09:54Z</time>
      </trkpt>
      <trkpt lat="46.32533" lon="2.81143">
        <ele>293.5</ele>
        <time>2019-11-01T09:09:55Z</time>
      </trkpt>
      <trkpt lat="46.32537" lon="2.8114">
        <ele>293.4</ele>
        <time>2019-11-01T09:09:56Z</time>
      </trkpt>
      <trkpt lat="46.32542" lon="2.81136">
        <ele>293.4</ele>
        <time>2019-11-01T09:09:57Z</time>
      </trkpt>
      <trkpt lat="46.32546" lon="2.81132">
        <ele>293.3</ele>
        <time>2019-11-01T09:09:58Z</time>
      </trkpt>
      <trkpt lat="46.3255" lon="2.81128">
        <ele>293.3</ele>
        <time>2019-11-01T09:09:59Z</time>
      </trkpt>
      <trkpt lat="46.32553" lon="2.81124">
        <ele>293.2</ele>
        <time>2019-11-01T09:10:00Z</time>
      </trkpt>
      <trkpt lat="46.32557" lon="2.8112">
        <ele>293.2</ele>
        <time>2019-11-01T09:10:01Z</time>
      </trkpt>
      <trkpt lat="46.3256" lon="2.81115">
        <ele>293.1</ele>
        <time>2019-11-01T09:10:02Z</time>
      </trkpt>
      <trkpt lat="46.32564" lon="2.81111">
        <ele>293.1</ele>
        <time>2019-11-01T09:10:03Z</time>
      </trkpt>
      <trkpt lat="46.32567" lon="2.81107">
        <ele>293</ele>
        <time>2019-11-01T09:10:04Z</time>
      </trkpt>
      <trkpt lat="46.3257" lon="2.81103">
        <ele>292.9</ele>
        <time>2019-11-01T09:10:05Z</time>
      </trkpt>
      <trkpt lat="46.32573" lon="2.811">
        <ele>292.9</ele>
        <time>2019-11-01T09:10:06Z</time>
      </trkpt>
      <trkpt lat="46.32576" lon="2.81097">
        <ele>292.8</ele>
        <time>2019-11-01T09:10:07Z</time>
      </trkpt>
      <trkpt lat="46.32581" lon="2.81095">
        <ele>292.7</ele>
        <time>2019-11-01T09:10:08Z</time>
      </trkpt>
      <trkpt lat="46.32585" lon="2.81093">
        <ele>292.6</ele>
        <time>2019-11-01T09:10:09Z</time>
      </trkpt>
      <trkpt lat="46.3259" lon="2.81091">
        <ele>292.6</ele>
        <time>2019-11-01T09:10:10Z</time>
      </trkpt>
      <trkpt lat="46.32594" lon="2.8109">
        <ele>292.5</ele>
        <time>2019-11-01T09:10:11Z</time>
      </trkpt>
      <trkpt lat="46.32598" lon="2.81089">
        <ele>292.4</ele>
        <time>2019-11-01T09:10:12Z</time>
      </trkpt>
      <trkpt lat="46.32603" lon="2.81088">
        <ele>292.4</ele>
        <time>2019-11-01T09:10:13Z</time>
      </trkpt>
      <trkpt lat="46.32607" lon="2.81089">
        <ele>292.3</ele>
        <time>2019-11-01T09:10:14Z</time>
      </trkpt>
      <trkpt lat="46.32613" lon="2.81089">
        <ele>292.3</ele>
        <time>2019-11-01T09:10:15Z</time>
      </trkpt>
      <trkpt lat="46.32619" lon="2.81089">
        <ele>292.2</ele>
        <time>2019-11-01T09:10:16Z</time>
      </trkpt>
      <trkpt lat="46.32623" lon="2.8109">
        <ele>292.1</ele>
        <time>2019-11-01T09:10:17Z</time>
      </trkpt>
      <trkpt lat="46.32627" lon="2.81091">
        <ele>292.1</ele>
        <time>2019-11-01T09:10:18Z</time>
      </trkpt>
      <trkpt lat="46.32633" lon="2.81093">
        <ele>292</ele>
        <time>2019-11-01T09:10:19Z</time>
      </trkpt>
      <trkpt lat="46.32637" lon="2.81094">
        <ele>292</ele>
        <time>2019-11-01T09:10:20Z</time>
      </trkpt>
      <trkpt lat="46.32643" lon="2.81095">
        <ele>291.9</ele>
        <time>2019-11-01T09:10:21Z</time>
      </trkpt>
      <trkpt lat="46.32648" lon="2.81096">
        <ele>291.9</ele>
        <time>2019-11-01T09:10:22Z</time>
      </trkpt>
      <trkpt lat="46.32654" lon="2.81096">
        <ele>291.8</ele>
        <time>2019-11-01T09:10:23Z</time>
      </trkpt>
      <trkpt lat="46.32659" lon="2.81096">
        <ele>291.8</ele>
        <time>2019-11-01T09:10:24Z</time>
      </trkpt>
      <trkpt lat="46.32664" lon="2.81096">
        <ele>291.7</ele>
        <time>2019-11-01T09:10:25Z</time>
      </trkpt>
      <trkpt lat="46.32669" lon="2.81096">
        <ele>291.7</ele>
        <time>2019-11-01T09:10:26Z</time>
      </trkpt>
      <trkpt lat="46.32674" lon="2.81096">
        <ele>291.6</ele>
        <time>2019-11-01T09:10:27Z</time>
      </trkpt>
      <trkpt lat="46.32679" lon="2.81097">
        <ele>291.6</ele>
        <time>2019-11-01T09:10:28Z</time>
      </trkpt>
      <trkpt lat="46.32684" lon="2.81098">
        <ele>291.6</ele>
        <time>2019-11-01T09:10:29Z</time>
      </trkpt>
      <trkpt lat="46.32688" lon="2.81099">
        <ele>291.5</ele>
        <time>2019-11-01T09:10:30Z</time>
      </trkpt>
      <trkpt lat="46.32693" lon="2.811">
        <ele>291.5</ele>
        <time>2019-11-01T09:10:31Z</time>
      </trkpt>
      <trkpt lat="46.32698" lon="2.81101">
        <ele>291.5</ele>
        <time>2019-11-01T09:10:32Z</time>
      </trkpt>
      <trkpt lat="46.32702" lon="2.81102">
        <ele>291.5</ele>
        <time>2019-11-01T09:10:33Z</time>
      </trkpt>
      <trkpt lat="46.32707" lon="2.81103">
        <ele>291.4</ele>
        <time>2019-11-01T09:10:34Z</time>
      </trkpt>
      <trkpt lat="46.32712" lon="2.81104">
        <ele>291.4</ele>
        <time>2019-11-01T09:10:35Z</time>
      </trkpt>
      <trkpt lat="46.32717" lon="2.81105">
        <ele>291.4</ele>
        <time>2019-11-01T09:10:36Z</time>
      </trkpt>
      <trkpt lat="46.32722" lon="2.81106">
        <ele>291.3</ele>
        <time>2019-11-01T09:10:37Z</time>
      </trkpt>
      <trkpt lat="46.32727" lon="2.81106">
        <ele>291.3</ele>
        <time>2019-11-01T09:10:38Z</time>
      </trkpt>
      <trkpt lat="46.32732" lon="2.81107">
        <ele>291.3</ele>
        <time>2019-11-01T09:10:39Z</time>
      </trkpt>
      <trkpt lat="46.32737" lon="2.81107">
        <ele>291.2</ele>
        <time>2019-11-01T09:10:40Z</time>
      </trkpt>
      <trkpt lat="46.32741" lon="2.81107">
        <ele>291.2</ele>
        <time>2019-11-01T09:10:41Z</time>
      </trkpt>
      <trkpt lat="46.32746" lon="2.81108">
        <ele>291.2</ele>
        <time>2019-11-01T09:10:42Z</time>
      </trkpt>
      <trkpt lat="46.32751" lon="2.8111">
        <ele>291.2</ele>
        <time>2019-11-01T09:10:43Z</time>
      </trkpt>
      <trkpt lat="46.32755" lon="2.81112">
        <ele>291.1</ele>
        <time>2019-11-01T09:10:44Z</time>
      </trkpt>
      <trkpt lat="46.32759" lon="2.81114">
        <ele>291.1</ele>
        <time>2019-11-01T09:10:45Z</time>
      </trkpt>
      <trkpt lat="46.32763" lon="2.81116">
        <ele>291.1</ele>
        <time>2019-11-01T09:10:46Z</time>
      </trkpt>
      <trkpt lat="46.32767" lon="2.81119">
        <ele>291</ele>
        <time>2019-11-01T09:10:47Z</time>
      </trkpt>
      <trkpt lat="46.32771" lon="2.81123">
        <ele>291</ele>
        <time>2019-11-01T09:10:48Z</time>
      </trkpt>
      <trkpt lat="46.32775" lon="2.81126">
        <ele>290.9</ele>
        <time>2019-11-01T09:10:49Z</time>
      </trkpt>
      <trkpt lat="46.32779" lon="2.8113">
        <ele>290.8</ele>
        <time>2019-11-01T09:10:50Z</time>
      </trkpt>
      <trkpt lat="46.32783" lon="2.81134">
        <ele>290.7</ele>
        <time>2019-11-01T09:10:51Z</time>
      </trkpt>
      <trkpt lat="46.32787" lon="2.81138">
        <ele>290.6</ele>
        <time>2019-11-01T09:10:52Z</time>
      </trkpt>
      <trkpt lat="46.32792" lon="2.81141">
        <ele>290.6</ele>
        <time>2019-11-01T09:10:53Z</time>
      </trkpt>
      <trkpt lat="46.32796" lon="2.81144">
        <ele>290.5</ele>
        <time>2019-11-01T09:10:54Z</time>
      </trkpt>
      <trkpt lat="46.32801" lon="2.81147">
        <ele>290.4</ele>
        <time>2019-11-01T09:10:55Z</time>
      </trkpt>
      <trkpt lat="46.32806" lon="2.8115">
        <ele>290.3</ele>
        <time>2019-11-01T09:10:56Z</time>
      </trkpt>
      <trkpt lat="46.3281" lon="2.81152">
        <ele>290.2</ele>
        <time>2019-11-01T09:10:57Z</time>
      </trkpt>
      <trkpt lat="46.32814" lon="2.81154">
        <ele>290.1</ele>
        <time>2019-11-01T09:10:58Z</time>
      </trkpt>
      <trkpt lat="46.32818" lon="2.81157">
        <ele>290</ele>
        <time>2019-11-01T09:10:59Z</time>
      </trkpt>
      <trkpt lat="46.32823" lon="2.81161">
        <ele>289.9</ele>
        <time>2019-11-01T09:11:00Z</time>
      </trkpt>
      <trkpt lat="46.32826" lon="2.81166">
        <ele>289.8</ele>
        <time>2019-11-01T09:11:01Z</time>
      </trkpt>
      <trkpt lat="46.32828" lon="2.8117">
        <ele>289.8</ele>
        <time>2019-11-01T09:11:02Z</time>
      </trkpt>
      <trkpt lat="46.32831" lon="2.81175">
        <ele>289.8</ele>
        <time>2019-11-01T09:11:03Z</time>
      </trkpt>
      <trkpt lat="46.32834" lon="2.8118">
        <ele>289.7</ele>
        <time>2019-11-01T09:11:04Z</time>
      </trkpt>
      <trkpt lat="46.32837" lon="2.81185">
        <ele>289.7</ele>
        <time>2019-11-01T09:11:05Z</time>
      </trkpt>
      <trkpt lat="46.32839" lon="2.8119">
        <ele>289.7</ele>
        <time>2019-11-01T09:11:06Z</time>
      </trkpt>
      <trkpt lat="46.32842" lon="2.81196">
        <ele>289.7</ele>
        <time>2019-11-01T09:11:07Z</time>
      </trkpt>
      <trkpt lat="46.32844" lon="2.81201">
        <ele>289.7</ele>
        <time>2019-11-01T09:11:08Z</time>
      </trkpt>
      <trkpt lat="46.32846" lon="2.81207">
        <ele>289.7</ele>
        <time>2019-11-01T09:11:09Z</time>
      </trkpt>
      <trkpt lat="46.32848" lon="2.81214">
        <ele>289.8</ele>
        <time>2019-11-01T09:11:10Z</time>
      </trkpt>
      <trkpt lat="46.3285" lon="2.8122">
        <ele>289.8</ele>
        <time>2019-11-01T09:11:11Z</time>
      </trkpt>
      <trkpt lat="46.32851" lon="2.81226">
        <ele>289.8</ele>
        <time>2019-11-01T09:11:12Z</time>
      </trkpt>
      <trkpt lat="46.32853" lon="2.81232">
        <ele>289.9</ele>
        <time>2019-11-01T09:11:13Z</time>
      </trkpt>
      <trkpt lat="46.32854" lon="2.81239">
        <ele>289.9</ele>
        <time>2019-11-01T09:11:21Z</time>
      </trkpt>
      <trkpt lat="46.32856" lon="2.81247">
        <ele>290</ele>
        <time>2019-11-01T09:11:22Z</time>
      </trkpt>
      <trkpt lat="46.32857" lon="2.8125">
        <ele>290</ele>
        <time>2019-11-01T09:11:23Z</time>
      </trkpt>
      <trkpt lat="46.32858" lon="2.81255">
        <ele>290.1</ele>
        <time>2019-11-01T09:11:24Z</time>
      </trkpt>
      <trkpt lat="46.32859" lon="2.8126">
        <ele>290.1</ele>
        <time>2019-11-01T09:11:25Z</time>
      </trkpt>
      <trkpt lat="46.32858" lon="2.81265">
        <ele>290.1</ele>
        <time>2019-11-01T09:11:26Z</time>
      </trkpt>
      <trkpt lat="46.32859" lon="2.8127">
        <ele>290.1</ele>
        <time>2019-11-01T09:11:27Z</time>
      </trkpt>
      <trkpt lat="46.3286" lon="2.81274">
        <ele>290.1</ele>
        <time>2019-11-01T09:11:28Z</time>
      </trkpt>
      <trkpt lat="46.32861" lon="2.81278">
        <ele>290.1</ele>
        <time>2019-11-01T09:11:29Z</time>
      </trkpt>
      <trkpt lat="46.32863" lon="2.81282">
        <ele>290.1</ele>
        <time>2019-11-01T09:11:30Z</time>
      </trkpt>
      <trkpt lat="46.32865" lon="2.81286">
        <ele>290.1</ele>
        <time>2019-11-01T09:11:31Z</time>
      </trkpt>
      <trkpt lat="46.32867" lon="2.81289">
        <ele>290.1</ele>
        <time>2019-11-01T09:11:32Z</time>
      </trkpt>
      <trkpt lat="46.32869" lon="2.8129">
        <ele>290.1</ele>
        <time>2019-11-01T09:11:33Z</time>
      </trkpt>
      <trkpt lat="46.32869" lon="2.81287">
        <ele>290.1</ele>
        <time>2019-11-01T09:11:34Z</time>
      </trkpt>
      <trkpt lat="46.3287" lon="2.81287">
        <ele>290.1</ele>
        <time>2019-11-01T09:11:35Z</time>
      </trkpt>
      <trkpt lat="46.32871" lon="2.81287">
        <ele>290.1</ele>
        <time>2019-11-01T09:11:36Z</time>
      </trkpt>
      <trkpt lat="46.32873" lon="2.81288">
        <ele>290.1</ele>
        <time>2019-11-01T09:11:37Z</time>
      </trkpt>
      <trkpt lat="46.32876" lon="2.81289">
        <ele>290.1</ele>
        <time>2019-11-01T09:11:38Z</time>
      </trkpt>
      <trkpt lat="46.32879" lon="2.8129">
        <ele>290.1</ele>
        <time>2019-11-01T09:11:39Z</time>
      </trkpt>
      <trkpt lat="46.32882" lon="2.81291">
        <ele>290</ele>
        <time>2019-11-01T09:11:40Z</time>
      </trkpt>
      <trkpt lat="46.32885" lon="2.81292">
        <ele>290</ele>
        <time>2019-11-01T09:11:41Z</time>
      </trkpt>
      <trkpt lat="46.32889" lon="2.81292">
        <ele>290</ele>
        <time>2019-11-01T09:11:42Z</time>
      </trkpt>
      <trkpt lat="46.32893" lon="2.81293">
        <ele>290</ele>
        <time>2019-11-01T09:11:43Z</time>
      </trkpt>
      <trkpt lat="46.32897" lon="2.81294">
        <ele>290</ele>
        <time>2019-11-01T09:11:44Z</time>
      </trkpt>
      <trkpt lat="46.32901" lon="2.81294">
        <ele>289.9</ele>
        <time>2019-11-01T09:11:45Z</time>
      </trkpt>
      <trkpt lat="46.32905" lon="2.81295">
        <ele>289.9</ele>
        <time>2019-11-01T09:11:46Z</time>
      </trkpt>
      <trkpt lat="46.32909" lon="2.81295">
        <ele>289.9</ele>
        <time>2019-11-01T09:11:47Z</time>
      </trkpt>
      <trkpt lat="46.32914" lon="2.81296">
        <ele>289.9</ele>
        <time>2019-11-01T09:11:48Z</time>
      </trkpt>
      <trkpt lat="46.32918" lon="2.81296">
        <ele>289.8</ele>
        <time>2019-11-01T09:11:49Z</time>
      </trkpt>
      <trkpt lat="46.32923" lon="2.81297">
        <ele>289.8</ele>
        <time>2019-11-01T09:11:50Z</time>
      </trkpt>
      <trkpt lat="46.32928" lon="2.81297">
        <ele>289.8</ele>
        <time>2019-11-01T09:11:51Z</time>
      </trkpt>
      <trkpt lat="46.32932" lon="2.81297">
        <ele>289.8</ele>
        <time>2019-11-01T09:11:52Z</time>
      </trkpt>
      <trkpt lat="46.32937" lon="2.81297">
        <ele>289.7</ele>
        <time>2019-11-01T09:11:53Z</time>
      </trkpt>
      <trkpt lat="46.32942" lon="2.81297">
        <ele>289.7</ele>
        <time>2019-11-01T09:11:54Z</time>
      </trkpt>
      <trkpt lat="46.32946" lon="2.81297">
        <ele>289.9</ele>
        <time>2019-11-01T09:11:55Z</time>
      </trkpt>
      <trkpt lat="46.32951" lon="2.81297">
        <ele>290.2</ele>
        <time>2019-11-01T09:11:56Z</time>
      </trkpt>
      <trkpt lat="46.32955" lon="2.81297">
        <ele>290.5</ele>
        <time>2019-11-01T09:11:57Z</time>
      </trkpt>
      <trkpt lat="46.3296" lon="2.81297">
        <ele>290.8</ele>
        <time>2019-11-01T09:11:58Z</time>
      </trkpt>
      <trkpt lat="46.32965" lon="2.81297">
        <ele>291</ele>
        <time>2019-11-01T09:11:59Z</time>
      </trkpt>
      <trkpt lat="46.3297" lon="2.81297">
        <ele>291.2</ele>
        <time>2019-11-01T09:12:00Z</time>
      </trkpt>
      <trkpt lat="46.32975" lon="2.81298">
        <ele>291.5</ele>
        <time>2019-11-01T09:12:01Z</time>
      </trkpt>
      <trkpt lat="46.3298" lon="2.81299">
        <ele>291.6</ele>
        <time>2019-11-01T09:12:02Z</time>
      </trkpt>
      <trkpt lat="46.32987" lon="2.813">
        <ele>291.8</ele>
        <time>2019-11-01T09:12:03Z</time>
      </trkpt>
      <trkpt lat="46.32989" lon="2.81301">
        <ele>292</ele>
        <time>2019-11-01T09:12:04Z</time>
      </trkpt>
      <trkpt lat="46.32993" lon="2.81302">
        <ele>292.2</ele>
        <time>2019-11-01T09:12:05Z</time>
      </trkpt>
      <trkpt lat="46.32997" lon="2.81304">
        <ele>292.3</ele>
        <time>2019-11-01T09:12:06Z</time>
      </trkpt>
      <trkpt lat="46.33003" lon="2.81306">
        <ele>292.2</ele>
        <time>2019-11-01T09:12:07Z</time>
      </trkpt>
      <trkpt lat="46.33008" lon="2.81308">
        <ele>292.1</ele>
        <time>2019-11-01T09:12:08Z</time>
      </trkpt>
      <trkpt lat="46.33013" lon="2.81311">
        <ele>292</ele>
        <time>2019-11-01T09:12:09Z</time>
      </trkpt>
      <trkpt lat="46.33018" lon="2.81314">
        <ele>291.9</ele>
        <time>2019-11-01T09:12:10Z</time>
      </trkpt>
      <trkpt lat="46.33022" lon="2.81317">
        <ele>291.8</ele>
        <time>2019-11-01T09:12:11Z</time>
      </trkpt>
      <trkpt lat="46.33027" lon="2.81321">
        <ele>291.8</ele>
        <time>2019-11-01T09:12:12Z</time>
      </trkpt>
      <trkpt lat="46.33031" lon="2.81326">
        <ele>291.7</ele>
        <time>2019-11-01T09:12:13Z</time>
      </trkpt>
      <trkpt lat="46.33036" lon="2.8133">
        <ele>291.6</ele>
        <time>2019-11-01T09:12:14Z</time>
      </trkpt>
      <trkpt lat="46.3304" lon="2.81336">
        <ele>291.6</ele>
        <time>2019-11-01T09:12:15Z</time>
      </trkpt>
      <trkpt lat="46.33043" lon="2.81343">
        <ele>291.5</ele>
        <time>2019-11-01T09:12:16Z</time>
      </trkpt>
      <trkpt lat="46.33047" lon="2.8135">
        <ele>291.4</ele>
        <time>2019-11-01T09:12:17Z</time>
      </trkpt>
      <trkpt lat="46.3305" lon="2.81358">
        <ele>291.2</ele>
        <time>2019-11-01T09:12:18Z</time>
      </trkpt>
      <trkpt lat="46.33054" lon="2.81365">
        <ele>291.1</ele>
        <time>2019-11-01T09:12:19Z</time>
      </trkpt>
      <trkpt lat="46.33056" lon="2.81373">
        <ele>290.9</ele>
        <time>2019-11-01T09:12:20Z</time>
      </trkpt>
      <trkpt lat="46.33059" lon="2.81381">
        <ele>290.8</ele>
        <time>2019-11-01T09:12:21Z</time>
      </trkpt>
      <trkpt lat="46.33062" lon="2.81389">
        <ele>290.7</ele>
        <time>2019-11-01T09:12:22Z</time>
      </trkpt>
      <trkpt lat="46.33065" lon="2.81396">
        <ele>290.7</ele>
        <time>2019-11-01T09:12:23Z</time>
      </trkpt>
      <trkpt lat="46.33069" lon="2.81404">
        <ele>290.6</ele>
        <time>2019-11-01T09:12:24Z</time>
      </trkpt>
      <trkpt lat="46.33073" lon="2.8141">
        <ele>290.5</ele>
        <time>2019-11-01T09:12:25Z</time>
      </trkpt>
      <trkpt lat="46.33077" lon="2.81416">
        <ele>290.5</ele>
        <time>2019-11-01T09:12:26Z</time>
      </trkpt>
      <trkpt lat="46.33082" lon="2.81422">
        <ele>290.4</ele>
        <time>2019-11-01T09:12:27Z</time>
      </trkpt>
      <trkpt lat="46.33087" lon="2.81427">
        <ele>290.4</ele>
        <time>2019-11-01T09:12:28Z</time>
      </trkpt>
      <trkpt lat="46.33093" lon="2.81432">
        <ele>290.3</ele>
        <time>2019-11-01T09:12:29Z</time>
      </trkpt>
      <trkpt lat="46.33098" lon="2.81436">
        <ele>290.3</ele>
        <time>2019-11-01T09:12:30Z</time>
      </trkpt>
      <trkpt lat="46.33104" lon="2.8144">
        <ele>290.2</ele>
        <time>2019-11-01T09:12:31Z</time>
      </trkpt>
      <trkpt lat="46.33109" lon="2.81443">
        <ele>290.1</ele>
        <time>2019-11-01T09:12:32Z</time>
      </trkpt>
      <trkpt lat="46.33115" lon="2.81446">
        <ele>290</ele>
        <time>2019-11-01T09:12:33Z</time>
      </trkpt>
      <trkpt lat="46.33122" lon="2.81448">
        <ele>289.9</ele>
        <time>2019-11-01T09:12:34Z</time>
      </trkpt>
      <trkpt lat="46.33128" lon="2.8145">
        <ele>289.7</ele>
        <time>2019-11-01T09:12:35Z</time>
      </trkpt>
      <trkpt lat="46.33135" lon="2.81451">
        <ele>289.5</ele>
        <time>2019-11-01T09:12:36Z</time>
      </trkpt>
      <trkpt lat="46.33142" lon="2.81452">
        <ele>289.3</ele>
        <time>2019-11-01T09:12:37Z</time>
      </trkpt>
      <trkpt lat="46.33148" lon="2.81453">
        <ele>289.1</ele>
        <time>2019-11-01T09:12:38Z</time>
      </trkpt>
      <trkpt lat="46.33155" lon="2.81454">
        <ele>288.9</ele>
        <time>2019-11-01T09:12:39Z</time>
      </trkpt>
      <trkpt lat="46.33161" lon="2.81455">
        <ele>288.7</ele>
        <time>2019-11-01T09:12:40Z</time>
      </trkpt>
      <trkpt lat="46.33167" lon="2.81456">
        <ele>288.5</ele>
        <time>2019-11-01T09:12:41Z</time>
      </trkpt>
      <trkpt lat="46.33174" lon="2.81456">
        <ele>288.3</ele>
        <time>2019-11-01T09:12:42Z</time>
      </trkpt>
      <trkpt lat="46.3318" lon="2.81457">
        <ele>288.1</ele>
        <time>2019-11-01T09:12:43Z</time>
      </trkpt>
      <trkpt lat="46.33187" lon="2.81457">
        <ele>287.9</ele>
        <time>2019-11-01T09:12:44Z</time>
      </trkpt>
      <trkpt lat="46.33194" lon="2.81459">
        <ele>287.7</ele>
        <time>2019-11-01T09:12:45Z</time>
      </trkpt>
      <trkpt lat="46.332" lon="2.8146">
        <ele>287.6</ele>
        <time>2019-11-01T09:12:46Z</time>
      </trkpt>
      <trkpt lat="46.33207" lon="2.81462">
        <ele>287.4</ele>
        <time>2019-11-01T09:12:47Z</time>
      </trkpt>
      <trkpt lat="46.33215" lon="2.81463">
        <ele>287.3</ele>
        <time>2019-11-01T09:12:48Z</time>
      </trkpt>
      <trkpt lat="46.33223" lon="2.81465">
        <ele>287.2</ele>
        <time>2019-11-01T09:12:49Z</time>
      </trkpt>
      <trkpt lat="46.3323" lon="2.81466">
        <ele>287.1</ele>
        <time>2019-11-01T09:12:50Z</time>
      </trkpt>
      <trkpt lat="46.33237" lon="2.81466">
        <ele>287</ele>
        <time>2019-11-01T09:12:51Z</time>
      </trkpt>
      <trkpt lat="46.33244" lon="2.81468">
        <ele>286.9</ele>
        <time>2019-11-01T09:12:52Z</time>
      </trkpt>
      <trkpt lat="46.33251" lon="2.81469">
        <ele>286.8</ele>
        <time>2019-11-01T09:12:53Z</time>
      </trkpt>
      <trkpt lat="46.33258" lon="2.8147">
        <ele>286.8</ele>
        <time>2019-11-01T09:12:54Z</time>
      </trkpt>
      <trkpt lat="46.33265" lon="2.81471">
        <ele>286.8</ele>
        <time>2019-11-01T09:12:55Z</time>
      </trkpt>
      <trkpt lat="46.33272" lon="2.81473">
        <ele>286.7</ele>
        <time>2019-11-01T09:12:56Z</time>
      </trkpt>
      <trkpt lat="46.33279" lon="2.81474">
        <ele>286.7</ele>
        <time>2019-11-01T09:12:57Z</time>
      </trkpt>
      <trkpt lat="46.33286" lon="2.81474">
        <ele>286.6</ele>
        <time>2019-11-01T09:12:58Z</time>
      </trkpt>
      <trkpt lat="46.33293" lon="2.81474">
        <ele>286.6</ele>
        <time>2019-11-01T09:12:59Z</time>
      </trkpt>
      <trkpt lat="46.333" lon="2.81474">
        <ele>286.6</ele>
        <time>2019-11-01T09:13:00Z</time>
      </trkpt>
      <trkpt lat="46.33307" lon="2.81472">
        <ele>286.6</ele>
        <time>2019-11-01T09:13:01Z</time>
      </trkpt>
      <trkpt lat="46.33313" lon="2.81471">
        <ele>286.5</ele>
        <time>2019-11-01T09:13:02Z</time>
      </trkpt>
      <trkpt lat="46.3332" lon="2.8147">
        <ele>286.5</ele>
        <time>2019-11-01T09:13:03Z</time>
      </trkpt>
      <trkpt lat="46.33327" lon="2.81469">
        <ele>286.5</ele>
        <time>2019-11-01T09:13:04Z</time>
      </trkpt>
      <trkpt lat="46.33334" lon="2.81468">
        <ele>286.6</ele>
        <time>2019-11-01T09:13:05Z</time>
      </trkpt>
      <trkpt lat="46.3334" lon="2.81468">
        <ele>286.6</ele>
        <time>2019-11-01T09:13:06Z</time>
      </trkpt>
      <trkpt lat="46.33347" lon="2.81469">
        <ele>286.7</ele>
        <time>2019-11-01T09:13:07Z</time>
      </trkpt>
      <trkpt lat="46.33352" lon="2.81469">
        <ele>286.8</ele>
        <time>2019-11-01T09:13:08Z</time>
      </trkpt>
      <trkpt lat="46.33358" lon="2.81469">
        <ele>286.9</ele>
        <time>2019-11-01T09:13:09Z</time>
      </trkpt>
      <trkpt lat="46.33364" lon="2.81469">
        <ele>287</ele>
        <time>2019-11-01T09:13:10Z</time>
      </trkpt>
      <trkpt lat="46.33371" lon="2.81469">
        <ele>287.2</ele>
        <time>2019-11-01T09:13:11Z</time>
      </trkpt>
      <trkpt lat="46.33375" lon="2.8147">
        <ele>287.4</ele>
        <time>2019-11-01T09:13:12Z</time>
      </trkpt>
      <trkpt lat="46.33379" lon="2.8147">
        <ele>287.7</ele>
        <time>2019-11-01T09:13:13Z</time>
      </trkpt>
      <trkpt lat="46.33382" lon="2.8147">
        <ele>287.9</ele>
        <time>2019-11-01T09:13:14Z</time>
      </trkpt>
      <trkpt lat="46.33385" lon="2.8147">
        <ele>288.1</ele>
        <time>2019-11-01T09:13:15Z</time>
      </trkpt>
      <trkpt lat="46.33387" lon="2.8147">
        <ele>288.2</ele>
        <time>2019-11-01T09:13:16Z</time>
      </trkpt>
      <trkpt lat="46.3339" lon="2.8147">
        <ele>288</ele>
        <time>2019-11-01T09:13:17Z</time>
      </trkpt>
      <trkpt lat="46.33393" lon="2.81469">
        <ele>287.9</ele>
        <time>2019-11-01T09:13:18Z</time>
      </trkpt>
      <trkpt lat="46.33396" lon="2.81467">
        <ele>287.7</ele>
        <time>2019-11-01T09:13:19Z</time>
      </trkpt>
      <trkpt lat="46.33399" lon="2.81464">
        <ele>287.6</ele>
        <time>2019-11-01T09:13:20Z</time>
      </trkpt>
      <trkpt lat="46.33401" lon="2.81459">
        <ele>287.4</ele>
        <time>2019-11-01T09:13:21Z</time>
      </trkpt>
      <trkpt lat="46.33404" lon="2.81455">
        <ele>287.2</ele>
        <time>2019-11-01T09:13:22Z</time>
      </trkpt>
      <trkpt lat="46.33407" lon="2.8145">
        <ele>287</ele>
        <time>2019-11-01T09:13:23Z</time>
      </trkpt>
      <trkpt lat="46.3341" lon="2.81446">
        <ele>286.9</ele>
        <time>2019-11-01T09:13:24Z</time>
      </trkpt>
      <trkpt lat="46.33414" lon="2.81444">
        <ele>286.8</ele>
        <time>2019-11-01T09:13:25Z</time>
      </trkpt>
      <trkpt lat="46.33419" lon="2.81443">
        <ele>286.7</ele>
        <time>2019-11-01T09:13:26Z</time>
      </trkpt>
      <trkpt lat="46.33422" lon="2.81443">
        <ele>287.1</ele>
        <time>2019-11-01T09:13:27Z</time>
      </trkpt>
      <trkpt lat="46.33426" lon="2.81443">
        <ele>287.2</ele>
        <time>2019-11-01T09:13:28Z</time>
      </trkpt>
      <trkpt lat="46.33428" lon="2.81443">
        <ele>287.4</ele>
        <time>2019-11-01T09:13:29Z</time>
      </trkpt>
      <trkpt lat="46.33431" lon="2.81442">
        <ele>287.5</ele>
        <time>2019-11-01T09:13:30Z</time>
      </trkpt>
      <trkpt lat="46.33433" lon="2.81441">
        <ele>287.5</ele>
        <time>2019-11-01T09:13:31Z</time>
      </trkpt>
      <trkpt lat="46.33436" lon="2.8144">
        <ele>287.7</ele>
        <time>2019-11-01T09:13:32Z</time>
      </trkpt>
      <trkpt lat="46.33438" lon="2.81439">
        <ele>287.4</ele>
        <time>2019-11-01T09:13:33Z</time>
      </trkpt>
      <trkpt lat="46.33441" lon="2.81438">
        <ele>287.5</ele>
        <time>2019-11-01T09:13:34Z</time>
      </trkpt>
      <trkpt lat="46.33444" lon="2.81437">
        <ele>287.6</ele>
        <time>2019-11-01T09:13:35Z</time>
      </trkpt>
      <trkpt lat="46.33448" lon="2.81436">
        <ele>287.7</ele>
        <time>2019-11-01T09:13:36Z</time>
      </trkpt>
      <trkpt lat="46.33451" lon="2.81435">
        <ele>287.4</ele>
        <time>2019-11-01T09:13:37Z</time>
      </trkpt>
      <trkpt lat="46.33454" lon="2.81434">
        <ele>287.5</ele>
        <time>2019-11-01T09:13:38Z</time>
      </trkpt>
      <trkpt lat="46.33457" lon="2.81432">
        <ele>287.7</ele>
        <time>2019-11-01T09:13:39Z</time>
      </trkpt>
      <trkpt lat="46.33461" lon="2.81431">
        <ele>287.8</ele>
        <time>2019-11-01T09:13:40Z</time>
      </trkpt>
      <trkpt lat="46.33465" lon="2.8143">
        <ele>287.9</ele>
        <time>2019-11-01T09:13:41Z</time>
      </trkpt>
      <trkpt lat="46.33469" lon="2.81429">
        <ele>287.5</ele>
        <time>2019-11-01T09:13:42Z</time>
      </trkpt>
      <trkpt lat="46.33472" lon="2.81428">
        <ele>287.6</ele>
        <time>2019-11-01T09:13:43Z</time>
      </trkpt>
      <trkpt lat="46.33476" lon="2.81428">
        <ele>287.7</ele>
        <time>2019-11-01T09:13:44Z</time>
      </trkpt>
      <trkpt lat="46.3348" lon="2.81427">
        <ele>287.7</ele>
        <time>2019-11-01T09:13:45Z</time>
      </trkpt>
      <trkpt lat="46.33483" lon="2.81427">
        <ele>287.8</ele>
        <time>2019-11-01T09:13:46Z</time>
      </trkpt>
      <trkpt lat="46.33487" lon="2.81426">
        <ele>287.8</ele>
        <time>2019-11-01T09:13:47Z</time>
      </trkpt>
      <trkpt lat="46.33492" lon="2.81426">
        <ele>287.8</ele>
        <time>2019-11-01T09:13:48Z</time>
      </trkpt>
      <trkpt lat="46.33495" lon="2.81426">
        <ele>287.9</ele>
        <time>2019-11-01T09:13:49Z</time>
      </trkpt>
      <trkpt lat="46.33499" lon="2.81425">
        <ele>287.2</ele>
        <time>2019-11-01T09:13:50Z</time>
      </trkpt>
      <trkpt lat="46.33503" lon="2.81425">
        <ele>287.2</ele>
        <time>2019-11-01T09:13:51Z</time>
      </trkpt>
      <trkpt lat="46.33507" lon="2.81424">
        <ele>287.2</ele>
        <time>2019-11-01T09:13:52Z</time>
      </trkpt>
      <trkpt lat="46.33512" lon="2.81423">
        <ele>287.1</ele>
        <time>2019-11-01T09:13:53Z</time>
      </trkpt>
      <trkpt lat="46.33517" lon="2.81423">
        <ele>287.1</ele>
        <time>2019-11-01T09:13:54Z</time>
      </trkpt>
      <trkpt lat="46.33522" lon="2.81423">
        <ele>287.1</ele>
        <time>2019-11-01T09:13:55Z</time>
      </trkpt>
      <trkpt lat="46.33527" lon="2.81423">
        <ele>287</ele>
        <time>2019-11-01T09:13:56Z</time>
      </trkpt>
      <trkpt lat="46.33532" lon="2.81424">
        <ele>286.9</ele>
        <time>2019-11-01T09:13:57Z</time>
      </trkpt>
      <trkpt lat="46.33538" lon="2.81424">
        <ele>286.7</ele>
        <time>2019-11-01T09:13:58Z</time>
      </trkpt>
      <trkpt lat="46.33544" lon="2.81426">
        <ele>286.6</ele>
        <time>2019-11-01T09:13:59Z</time>
      </trkpt>
      <trkpt lat="46.33549" lon="2.81427">
        <ele>287.3</ele>
        <time>2019-11-01T09:14:00Z</time>
      </trkpt>
      <trkpt lat="46.33554" lon="2.81428">
        <ele>287.1</ele>
        <time>2019-11-01T09:14:01Z</time>
      </trkpt>
      <trkpt lat="46.33559" lon="2.81431">
        <ele>287.6</ele>
        <time>2019-11-01T09:14:02Z</time>
      </trkpt>
      <trkpt lat="46.33564" lon="2.81433">
        <ele>286.9</ele>
        <time>2019-11-01T09:14:03Z</time>
      </trkpt>
      <trkpt lat="46.33569" lon="2.81435">
        <ele>286.5</ele>
        <time>2019-11-01T09:14:04Z</time>
      </trkpt>
      <trkpt lat="46.33574" lon="2.81436">
        <ele>286.2</ele>
        <time>2019-11-01T09:14:05Z</time>
      </trkpt>
      <trkpt lat="46.33579" lon="2.81438">
        <ele>284.9</ele>
        <time>2019-11-01T09:14:06Z</time>
      </trkpt>
      <trkpt lat="46.33584" lon="2.8144">
        <ele>285.2</ele>
        <time>2019-11-01T09:14:07Z</time>
      </trkpt>
      <trkpt lat="46.33588" lon="2.81442">
        <ele>284.1</ele>
        <time>2019-11-01T09:14:08Z</time>
      </trkpt>
      <trkpt lat="46.33592" lon="2.81444">
        <ele>284.9</ele>
        <time>2019-11-01T09:14:09Z</time>
      </trkpt>
      <trkpt lat="46.33595" lon="2.81446">
        <ele>284.5</ele>
        <time>2019-11-01T09:14:10Z</time>
      </trkpt>
      <trkpt lat="46.33598" lon="2.81448">
        <ele>285.6</ele>
        <time>2019-11-01T09:14:11Z</time>
      </trkpt>
      <trkpt lat="46.33601" lon="2.81448">
        <ele>285.4</ele>
        <time>2019-11-01T09:14:12Z</time>
      </trkpt>
      <trkpt lat="46.33603" lon="2.81448">
        <ele>285.2</ele>
        <time>2019-11-01T09:14:13Z</time>
      </trkpt>
      <trkpt lat="46.33606" lon="2.81449">
        <ele>285</ele>
        <time>2019-11-01T09:14:14Z</time>
      </trkpt>
      <trkpt lat="46.3361" lon="2.81448">
        <ele>284.8</ele>
        <time>2019-11-01T09:14:15Z</time>
      </trkpt>
      <trkpt lat="46.33614" lon="2.81448">
        <ele>284.6</ele>
        <time>2019-11-01T09:14:16Z</time>
      </trkpt>
      <trkpt lat="46.33618" lon="2.81448">
        <ele>284.4</ele>
        <time>2019-11-01T09:14:17Z</time>
      </trkpt>
      <trkpt lat="46.33625" lon="2.81448">
        <ele>284.3</ele>
        <time>2019-11-01T09:14:18Z</time>
      </trkpt>
      <trkpt lat="46.33628" lon="2.81448">
        <ele>284.2</ele>
        <time>2019-11-01T09:14:19Z</time>
      </trkpt>
      <trkpt lat="46.33632" lon="2.81448">
        <ele>284.2</ele>
        <time>2019-11-01T09:14:20Z</time>
      </trkpt>
      <trkpt lat="46.33634" lon="2.81448">
        <ele>284.1</ele>
        <time>2019-11-01T09:14:21Z</time>
      </trkpt>
      <trkpt lat="46.33637" lon="2.81448">
        <ele>284</ele>
        <time>2019-11-01T09:14:22Z</time>
      </trkpt>
      <trkpt lat="46.3364" lon="2.81448">
        <ele>284</ele>
        <time>2019-11-01T09:14:23Z</time>
      </trkpt>
      <trkpt lat="46.33642" lon="2.81448">
        <ele>283.9</ele>
        <time>2019-11-01T09:14:24Z</time>
      </trkpt>
      <trkpt lat="46.33645" lon="2.81448">
        <ele>283.9</ele>
        <time>2019-11-01T09:14:25Z</time>
      </trkpt>
      <trkpt lat="46.33647" lon="2.81447">
        <ele>282.9</ele>
        <time>2019-11-01T09:14:26Z</time>
      </trkpt>
      <trkpt lat="46.33649" lon="2.81445">
        <ele>282.9</ele>
        <time>2019-11-01T09:14:27Z</time>
      </trkpt>
      <trkpt lat="46.33652" lon="2.81443">
        <ele>282.8</ele>
        <time>2019-11-01T09:14:28Z</time>
      </trkpt>
      <trkpt lat="46.33655" lon="2.81441">
        <ele>281.9</ele>
        <time>2019-11-01T09:14:29Z</time>
      </trkpt>
      <trkpt lat="46.33658" lon="2.81439">
        <ele>281</ele>
        <time>2019-11-01T09:14:30Z</time>
      </trkpt>
      <trkpt lat="46.33662" lon="2.81436">
        <ele>281</ele>
        <time>2019-11-01T09:14:31Z</time>
      </trkpt>
      <trkpt lat="46.33666" lon="2.81435">
        <ele>281</ele>
        <time>2019-11-01T09:14:32Z</time>
      </trkpt>
      <trkpt lat="46.3367" lon="2.81434">
        <ele>280.2</ele>
        <time>2019-11-01T09:14:33Z</time>
      </trkpt>
      <trkpt lat="46.33675" lon="2.81433">
        <ele>280.2</ele>
        <time>2019-11-01T09:14:34Z</time>
      </trkpt>
      <trkpt lat="46.33679" lon="2.81431">
        <ele>280.2</ele>
        <time>2019-11-01T09:14:35Z</time>
      </trkpt>
      <trkpt lat="46.33683" lon="2.8143">
        <ele>279.7</ele>
        <time>2019-11-01T09:14:36Z</time>
      </trkpt>
      <trkpt lat="46.33686" lon="2.81429">
        <ele>279.7</ele>
        <time>2019-11-01T09:14:37Z</time>
      </trkpt>
      <trkpt lat="46.3369" lon="2.81429">
        <ele>279.7</ele>
        <time>2019-11-01T09:14:38Z</time>
      </trkpt>
      <trkpt lat="46.33693" lon="2.81427">
        <ele>279.7</ele>
        <time>2019-11-01T09:14:39Z</time>
      </trkpt>
      <trkpt lat="46.33696" lon="2.81427">
        <ele>279.7</ele>
        <time>2019-11-01T09:14:40Z</time>
      </trkpt>
      <trkpt lat="46.337" lon="2.81426">
        <ele>279.7</ele>
        <time>2019-11-01T09:14:41Z</time>
      </trkpt>
      <trkpt lat="46.33704" lon="2.81425">
        <ele>279.5</ele>
        <time>2019-11-01T09:14:42Z</time>
      </trkpt>
      <trkpt lat="46.33708" lon="2.81425">
        <ele>279.5</ele>
        <time>2019-11-01T09:14:43Z</time>
      </trkpt>
      <trkpt lat="46.33712" lon="2.81424">
        <ele>279.5</ele>
        <time>2019-11-01T09:14:44Z</time>
      </trkpt>
      <trkpt lat="46.33715" lon="2.81423">
        <ele>279.5</ele>
        <time>2019-11-01T09:14:45Z</time>
      </trkpt>
      <trkpt lat="46.33719" lon="2.81421">
        <ele>279.4</ele>
        <time>2019-11-01T09:14:46Z</time>
      </trkpt>
      <trkpt lat="46.33722" lon="2.8142">
        <ele>279.4</ele>
        <time>2019-11-01T09:14:47Z</time>
      </trkpt>
      <trkpt lat="46.33726" lon="2.81419">
        <ele>279.4</ele>
        <time>2019-11-01T09:14:48Z</time>
      </trkpt>
      <trkpt lat="46.33729" lon="2.81419">
        <ele>279.4</ele>
        <time>2019-11-01T09:14:49Z</time>
      </trkpt>
      <trkpt lat="46.33733" lon="2.81419">
        <ele>279.4</ele>
        <time>2019-11-01T09:14:50Z</time>
      </trkpt>
      <trkpt lat="46.33735" lon="2.81419">
        <ele>279.4</ele>
        <time>2019-11-01T09:14:51Z</time>
      </trkpt>
      <trkpt lat="46.33739" lon="2.81418">
        <ele>279.4</ele>
        <time>2019-11-01T09:14:52Z</time>
      </trkpt>
      <trkpt lat="46.33742" lon="2.81418">
        <ele>279.4</ele>
        <time>2019-11-01T09:14:53Z</time>
      </trkpt>
      <trkpt lat="46.33745" lon="2.81418">
        <ele>279.5</ele>
        <time>2019-11-01T09:14:54Z</time>
      </trkpt>
      <trkpt lat="46.33748" lon="2.81418">
        <ele>279.5</ele>
        <time>2019-11-01T09:14:55Z</time>
      </trkpt>
      <trkpt lat="46.33752" lon="2.81419">
        <ele>279.5</ele>
        <time>2019-11-01T09:14:56Z</time>
      </trkpt>
      <trkpt lat="46.33756" lon="2.81418">
        <ele>279.5</ele>
        <time>2019-11-01T09:14:57Z</time>
      </trkpt>
      <trkpt lat="46.33759" lon="2.81417">
        <ele>279.6</ele>
        <time>2019-11-01T09:14:58Z</time>
      </trkpt>
      <trkpt lat="46.33762" lon="2.81416">
        <ele>279.6</ele>
        <time>2019-11-01T09:14:59Z</time>
      </trkpt>
      <trkpt lat="46.33766" lon="2.81415">
        <ele>279.5</ele>
        <time>2019-11-01T09:15:00Z</time>
      </trkpt>
      <trkpt lat="46.33769" lon="2.81414">
        <ele>279.4</ele>
        <time>2019-11-01T09:15:01Z</time>
      </trkpt>
      <trkpt lat="46.33773" lon="2.81412">
        <ele>279.5</ele>
        <time>2019-11-01T09:15:02Z</time>
      </trkpt>
      <trkpt lat="46.33776" lon="2.81411">
        <ele>279.5</ele>
        <time>2019-11-01T09:15:03Z</time>
      </trkpt>
      <trkpt lat="46.33778" lon="2.8141">
        <ele>279.5</ele>
        <time>2019-11-01T09:15:04Z</time>
      </trkpt>
      <trkpt lat="46.33781" lon="2.81408">
        <ele>279.7</ele>
        <time>2019-11-01T09:15:05Z</time>
      </trkpt>
      <trkpt lat="46.33783" lon="2.81406">
        <ele>279.7</ele>
        <time>2019-11-01T09:15:06Z</time>
      </trkpt>
      <trkpt lat="46.33786" lon="2.81405">
        <ele>279.7</ele>
        <time>2019-11-01T09:15:07Z</time>
      </trkpt>
      <trkpt lat="46.33789" lon="2.81404">
        <ele>279.9</ele>
        <time>2019-11-01T09:15:08Z</time>
      </trkpt>
      <trkpt lat="46.33792" lon="2.81403">
        <ele>279.9</ele>
        <time>2019-11-01T09:15:09Z</time>
      </trkpt>
      <trkpt lat="46.33795" lon="2.81403">
        <ele>279.9</ele>
        <time>2019-11-01T09:15:10Z</time>
      </trkpt>
      <trkpt lat="46.33798" lon="2.81404">
        <ele>279.9</ele>
        <time>2019-11-01T09:15:11Z</time>
      </trkpt>
      <trkpt lat="46.33801" lon="2.81405">
        <ele>279.9</ele>
        <time>2019-11-01T09:15:12Z</time>
      </trkpt>
      <trkpt lat="46.33805" lon="2.81406">
        <ele>280.1</ele>
        <time>2019-11-01T09:15:13Z</time>
      </trkpt>
      <trkpt lat="46.33807" lon="2.81406">
        <ele>280.3</ele>
        <time>2019-11-01T09:15:14Z</time>
      </trkpt>
      <trkpt lat="46.33812" lon="2.81406">
        <ele>280.4</ele>
        <time>2019-11-01T09:15:15Z</time>
      </trkpt>
      <trkpt lat="46.33814" lon="2.81407">
        <ele>280.4</ele>
        <time>2019-11-01T09:15:16Z</time>
      </trkpt>
      <trkpt lat="46.33817" lon="2.81408">
        <ele>280.4</ele>
        <time>2019-11-01T09:15:17Z</time>
      </trkpt>
      <trkpt lat="46.33821" lon="2.81411">
        <ele>280.9</ele>
        <time>2019-11-01T09:15:18Z</time>
      </trkpt>
      <trkpt lat="46.33824" lon="2.81412">
        <ele>280.9</ele>
        <time>2019-11-01T09:15:19Z</time>
      </trkpt>
      <trkpt lat="46.33826" lon="2.81414">
        <ele>281.7</ele>
        <time>2019-11-01T09:15:20Z</time>
      </trkpt>
      <trkpt lat="46.33828" lon="2.81416">
        <ele>281.7</ele>
        <time>2019-11-01T09:15:21Z</time>
      </trkpt>
      <trkpt lat="46.33831" lon="2.81418">
        <ele>282.7</ele>
        <time>2019-11-01T09:15:22Z</time>
      </trkpt>
      <trkpt lat="46.33834" lon="2.8142">
        <ele>282.7</ele>
        <time>2019-11-01T09:15:23Z</time>
      </trkpt>
      <trkpt lat="46.33836" lon="2.81423">
        <ele>283.8</ele>
        <time>2019-11-01T09:15:24Z</time>
      </trkpt>
      <trkpt lat="46.33838" lon="2.81426">
        <ele>284</ele>
        <time>2019-11-01T09:15:25Z</time>
      </trkpt>
      <trkpt lat="46.33841" lon="2.81428">
        <ele>285.1</ele>
        <time>2019-11-01T09:15:26Z</time>
      </trkpt>
      <trkpt lat="46.33842" lon="2.81431">
        <ele>285.9</ele>
        <time>2019-11-01T09:15:27Z</time>
      </trkpt>
      <trkpt lat="46.33845" lon="2.81434">
        <ele>286.1</ele>
        <time>2019-11-01T09:15:28Z</time>
      </trkpt>
      <trkpt lat="46.33847" lon="2.81437">
        <ele>286.9</ele>
        <time>2019-11-01T09:15:29Z</time>
      </trkpt>
      <trkpt lat="46.33847" lon="2.8144">
        <ele>287.4</ele>
        <time>2019-11-01T09:15:30Z</time>
      </trkpt>
      <trkpt lat="46.33847" lon="2.81444">
        <ele>287.8</ele>
        <time>2019-11-01T09:15:31Z</time>
      </trkpt>
      <trkpt lat="46.33847" lon="2.81447">
        <ele>287.8</ele>
        <time>2019-11-01T09:15:32Z</time>
      </trkpt>
      <trkpt lat="46.33847" lon="2.8145">
        <ele>288.1</ele>
        <time>2019-11-01T09:15:33Z</time>
      </trkpt>
      <trkpt lat="46.33846" lon="2.81453">
        <ele>288.4</ele>
        <time>2019-11-01T09:15:34Z</time>
      </trkpt>
      <trkpt lat="46.33845" lon="2.81458">
        <ele>288.4</ele>
        <time>2019-11-01T09:15:35Z</time>
      </trkpt>
      <trkpt lat="46.33844" lon="2.8146">
        <ele>288.4</ele>
        <time>2019-11-01T09:15:36Z</time>
      </trkpt>
      <trkpt lat="46.33843" lon="2.81464">
        <ele>288.8</ele>
        <time>2019-11-01T09:15:37Z</time>
      </trkpt>
      <trkpt lat="46.33842" lon="2.81468">
        <ele>288.9</ele>
        <time>2019-11-01T09:15:38Z</time>
      </trkpt>
      <trkpt lat="46.33842" lon="2.81471">
        <ele>289.5</ele>
        <time>2019-11-01T09:15:39Z</time>
      </trkpt>
      <trkpt lat="46.33842" lon="2.81474">
        <ele>290</ele>
        <time>2019-11-01T09:15:40Z</time>
      </trkpt>
      <trkpt lat="46.33842" lon="2.81477">
        <ele>290</ele>
        <time>2019-11-01T09:15:41Z</time>
      </trkpt>
      <trkpt lat="46.33841" lon="2.8148">
        <ele>290.6</ele>
        <time>2019-11-01T09:15:42Z</time>
      </trkpt>
      <trkpt lat="46.3384" lon="2.81484">
        <ele>291.1</ele>
        <time>2019-11-01T09:15:43Z</time>
      </trkpt>
      <trkpt lat="46.3384" lon="2.81487">
        <ele>291.5</ele>
        <time>2019-11-01T09:15:44Z</time>
      </trkpt>
      <trkpt lat="46.33839" lon="2.81491">
        <ele>291.8</ele>
        <time>2019-11-01T09:15:45Z</time>
      </trkpt>
      <trkpt lat="46.33839" lon="2.81495">
        <ele>292.2</ele>
        <time>2019-11-01T09:15:46Z</time>
      </trkpt>
      <trkpt lat="46.33838" lon="2.81499">
        <ele>292.6</ele>
        <time>2019-11-01T09:15:47Z</time>
      </trkpt>
      <trkpt lat="46.33838" lon="2.81503">
        <ele>292.6</ele>
        <time>2019-11-01T09:15:48Z</time>
      </trkpt>
      <trkpt lat="46.33837" lon="2.81505">
        <ele>293</ele>
        <time>2019-11-01T09:15:49Z</time>
      </trkpt>
      <trkpt lat="46.33837" lon="2.81508">
        <ele>293.4</ele>
        <time>2019-11-01T09:15:50Z</time>
      </trkpt>
      <trkpt lat="46.33837" lon="2.81511">
        <ele>293.4</ele>
        <time>2019-11-01T09:15:51Z</time>
      </trkpt>
      <trkpt lat="46.33838" lon="2.81514">
        <ele>293.9</ele>
        <time>2019-11-01T09:15:52Z</time>
      </trkpt>
      <trkpt lat="46.33838" lon="2.81517">
        <ele>294.3</ele>
        <time>2019-11-01T09:15:53Z</time>
      </trkpt>
      <trkpt lat="46.33838" lon="2.81521">
        <ele>294.8</ele>
        <time>2019-11-01T09:15:54Z</time>
      </trkpt>
      <trkpt lat="46.33837" lon="2.81524">
        <ele>294.8</ele>
        <time>2019-11-01T09:15:55Z</time>
      </trkpt>
      <trkpt lat="46.33838" lon="2.81528">
        <ele>295.3</ele>
        <time>2019-11-01T09:15:56Z</time>
      </trkpt>
      <trkpt lat="46.33837" lon="2.81532">
        <ele>295.7</ele>
        <time>2019-11-01T09:15:57Z</time>
      </trkpt>
      <trkpt lat="46.33838" lon="2.81536">
        <ele>296.1</ele>
        <time>2019-11-01T09:15:58Z</time>
      </trkpt>
      <trkpt lat="46.33837" lon="2.81541">
        <ele>296.5</ele>
        <time>2019-11-01T09:15:59Z</time>
      </trkpt>
      <trkpt lat="46.33836" lon="2.81544">
        <ele>296.9</ele>
        <time>2019-11-01T09:16:00Z</time>
      </trkpt>
      <trkpt lat="46.33836" lon="2.81549">
        <ele>297.3</ele>
        <time>2019-11-01T09:16:01Z</time>
      </trkpt>
      <trkpt lat="46.33836" lon="2.8155">
        <ele>297.3</ele>
        <time>2019-11-01T09:16:02Z</time>
      </trkpt>
      <trkpt lat="46.33836" lon="2.81554">
        <ele>297.7</ele>
        <time>2019-11-01T09:16:03Z</time>
      </trkpt>
      <trkpt lat="46.33836" lon="2.81557">
        <ele>298.1</ele>
        <time>2019-11-01T09:16:04Z</time>
      </trkpt>
      <trkpt lat="46.33836" lon="2.8156">
        <ele>298.5</ele>
        <time>2019-11-01T09:16:05Z</time>
      </trkpt>
      <trkpt lat="46.33836" lon="2.81563">
        <ele>298.8</ele>
        <time>2019-11-01T09:16:06Z</time>
      </trkpt>
      <trkpt lat="46.33836" lon="2.81568">
        <ele>299.2</ele>
        <time>2019-11-01T09:16:07Z</time>
      </trkpt>
      <trkpt lat="46.33836" lon="2.81569">
        <ele>299.2</ele>
        <time>2019-11-01T09:16:08Z</time>
      </trkpt>
      <trkpt lat="46.33836" lon="2.81572">
        <ele>299.5</ele>
        <time>2019-11-01T09:16:09Z</time>
      </trkpt>
      <trkpt lat="46.33837" lon="2.81577">
        <ele>299.7</ele>
        <time>2019-11-01T09:16:10Z</time>
      </trkpt>
      <trkpt lat="46.33837" lon="2.81579">
        <ele>299.7</ele>
        <time>2019-11-01T09:16:11Z</time>
      </trkpt>
      <trkpt lat="46.33837" lon="2.81582">
        <ele>299.9</ele>
        <time>2019-11-01T09:16:12Z</time>
      </trkpt>
      <trkpt lat="46.33838" lon="2.81585">
        <ele>300.2</ele>
        <time>2019-11-01T09:16:13Z</time>
      </trkpt>
      <trkpt lat="46.33838" lon="2.81589">
        <ele>300.2</ele>
        <time>2019-11-01T09:16:14Z</time>
      </trkpt>
      <trkpt lat="46.33839" lon="2.81592">
        <ele>300.4</ele>
        <time>2019-11-01T09:16:15Z</time>
      </trkpt>
      <trkpt lat="46.33839" lon="2.81595">
        <ele>300.6</ele>
        <time>2019-11-01T09:16:16Z</time>
      </trkpt>
      <trkpt lat="46.3384" lon="2.81599">
        <ele>300.8</ele>
        <time>2019-11-01T09:16:17Z</time>
      </trkpt>
      <trkpt lat="46.3384" lon="2.81603">
        <ele>300.9</ele>
        <time>2019-11-01T09:16:18Z</time>
      </trkpt>
      <trkpt lat="46.33841" lon="2.81606">
        <ele>300.9</ele>
        <time>2019-11-01T09:16:19Z</time>
      </trkpt>
      <trkpt lat="46.33842" lon="2.81609">
        <ele>301.1</ele>
        <time>2019-11-01T09:16:20Z</time>
      </trkpt>
      <trkpt lat="46.33842" lon="2.81613">
        <ele>301.3</ele>
        <time>2019-11-01T09:16:21Z</time>
      </trkpt>
      <trkpt lat="46.33843" lon="2.81616">
        <ele>301.4</ele>
        <time>2019-11-01T09:16:22Z</time>
      </trkpt>
      <trkpt lat="46.33844" lon="2.8162">
        <ele>301.5</ele>
        <time>2019-11-01T09:16:23Z</time>
      </trkpt>
      <trkpt lat="46.33845" lon="2.81623">
        <ele>301.5</ele>
        <time>2019-11-01T09:16:24Z</time>
      </trkpt>
      <trkpt lat="46.33846" lon="2.81626">
        <ele>301.5</ele>
        <time>2019-11-01T09:16:25Z</time>
      </trkpt>
      <trkpt lat="46.33846" lon="2.81629">
        <ele>301.5</ele>
        <time>2019-11-01T09:16:26Z</time>
      </trkpt>
      <trkpt lat="46.33846" lon="2.81633">
        <ele>301.6</ele>
        <time>2019-11-01T09:16:27Z</time>
      </trkpt>
      <trkpt lat="46.33847" lon="2.81637">
        <ele>301.6</ele>
        <time>2019-11-01T09:16:28Z</time>
      </trkpt>
      <trkpt lat="46.33847" lon="2.81643">
        <ele>301.7</ele>
        <time>2019-11-01T09:16:29Z</time>
      </trkpt>
      <trkpt lat="46.33848" lon="2.81647">
        <ele>301.8</ele>
        <time>2019-11-01T09:16:30Z</time>
      </trkpt>
      <trkpt lat="46.33849" lon="2.81651">
        <ele>301.7</ele>
        <time>2019-11-01T09:16:31Z</time>
      </trkpt>
      <trkpt lat="46.3385" lon="2.81656">
        <ele>301.8</ele>
        <time>2019-11-01T09:16:32Z</time>
      </trkpt>
      <trkpt lat="46.33851" lon="2.8166">
        <ele>301.9</ele>
        <time>2019-11-01T09:16:33Z</time>
      </trkpt>
      <trkpt lat="46.33852" lon="2.81663">
        <ele>301.9</ele>
        <time>2019-11-01T09:16:34Z</time>
      </trkpt>
      <trkpt lat="46.33854" lon="2.81667">
        <ele>302</ele>
        <time>2019-11-01T09:16:35Z</time>
      </trkpt>
      <trkpt lat="46.33855" lon="2.81672">
        <ele>302</ele>
        <time>2019-11-01T09:16:36Z</time>
      </trkpt>
      <trkpt lat="46.33855" lon="2.81676">
        <ele>302.1</ele>
        <time>2019-11-01T09:16:37Z</time>
      </trkpt>
      <trkpt lat="46.33856" lon="2.81683">
        <ele>302.2</ele>
        <time>2019-11-01T09:16:38Z</time>
      </trkpt>
      <trkpt lat="46.33856" lon="2.81685">
        <ele>302.3</ele>
        <time>2019-11-01T09:16:39Z</time>
      </trkpt>
      <trkpt lat="46.33857" lon="2.81689">
        <ele>302.4</ele>
        <time>2019-11-01T09:16:40Z</time>
      </trkpt>
      <trkpt lat="46.33858" lon="2.81693">
        <ele>302.3</ele>
        <time>2019-11-01T09:16:41Z</time>
      </trkpt>
      <trkpt lat="46.3386" lon="2.81697">
        <ele>302.4</ele>
        <time>2019-11-01T09:16:42Z</time>
      </trkpt>
      <trkpt lat="46.33861" lon="2.81702">
        <ele>302.4</ele>
        <time>2019-11-01T09:16:43Z</time>
      </trkpt>
      <trkpt lat="46.33862" lon="2.81707">
        <ele>302.6</ele>
        <time>2019-11-01T09:16:44Z</time>
      </trkpt>
      <trkpt lat="46.33864" lon="2.81711">
        <ele>302.6</ele>
        <time>2019-11-01T09:16:45Z</time>
      </trkpt>
      <trkpt lat="46.33865" lon="2.81715">
        <ele>302.7</ele>
        <time>2019-11-01T09:16:46Z</time>
      </trkpt>
      <trkpt lat="46.33866" lon="2.81721">
        <ele>302.7</ele>
        <time>2019-11-01T09:16:47Z</time>
      </trkpt>
      <trkpt lat="46.33867" lon="2.81725">
        <ele>302.8</ele>
        <time>2019-11-01T09:16:48Z</time>
      </trkpt>
      <trkpt lat="46.33867" lon="2.8173">
        <ele>303</ele>
        <time>2019-11-01T09:16:49Z</time>
      </trkpt>
      <trkpt lat="46.33869" lon="2.81735">
        <ele>303.1</ele>
        <time>2019-11-01T09:16:50Z</time>
      </trkpt>
      <trkpt lat="46.3387" lon="2.81738">
        <ele>303.1</ele>
        <time>2019-11-01T09:16:51Z</time>
      </trkpt>
      <trkpt lat="46.33872" lon="2.81741">
        <ele>303.3</ele>
        <time>2019-11-01T09:16:52Z</time>
      </trkpt>
      <trkpt lat="46.33873" lon="2.81745">
        <ele>303.3</ele>
        <time>2019-11-01T09:16:53Z</time>
      </trkpt>
      <trkpt lat="46.33874" lon="2.8175">
        <ele>303.5</ele>
        <time>2019-11-01T09:16:54Z</time>
      </trkpt>
      <trkpt lat="46.33875" lon="2.81754">
        <ele>303.6</ele>
        <time>2019-11-01T09:16:55Z</time>
      </trkpt>
      <trkpt lat="46.33877" lon="2.8176">
        <ele>303.8</ele>
        <time>2019-11-01T09:16:56Z</time>
      </trkpt>
      <trkpt lat="46.33878" lon="2.81764">
        <ele>303.9</ele>
        <time>2019-11-01T09:16:57Z</time>
      </trkpt>
      <trkpt lat="46.33879" lon="2.81767">
        <ele>304.1</ele>
        <time>2019-11-01T09:16:58Z</time>
      </trkpt>
      <trkpt lat="46.33881" lon="2.81772">
        <ele>304.3</ele>
        <time>2019-11-01T09:16:59Z</time>
      </trkpt>
      <trkpt lat="46.33883" lon="2.81776">
        <ele>304.4</ele>
        <time>2019-11-01T09:17:00Z</time>
      </trkpt>
      <trkpt lat="46.33884" lon="2.81782">
        <ele>304.5</ele>
        <time>2019-11-01T09:17:01Z</time>
      </trkpt>
      <trkpt lat="46.33886" lon="2.81788">
        <ele>304.9</ele>
        <time>2019-11-01T09:17:02Z</time>
      </trkpt>
      <trkpt lat="46.33888" lon="2.81794">
        <ele>305</ele>
        <time>2019-11-01T09:17:03Z</time>
      </trkpt>
      <trkpt lat="46.33889" lon="2.81799">
        <ele>305.2</ele>
        <time>2019-11-01T09:17:04Z</time>
      </trkpt>
      <trkpt lat="46.33889" lon="2.81803">
        <ele>305.4</ele>
        <time>2019-11-01T09:17:05Z</time>
      </trkpt>
      <trkpt lat="46.33891" lon="2.81808">
        <ele>305.6</ele>
        <time>2019-11-01T09:17:06Z</time>
      </trkpt>
      <trkpt lat="46.33893" lon="2.81812">
        <ele>305.8</ele>
        <time>2019-11-01T09:17:07Z</time>
      </trkpt>
      <trkpt lat="46.33894" lon="2.81816">
        <ele>305.9</ele>
        <time>2019-11-01T09:17:08Z</time>
      </trkpt>
      <trkpt lat="46.33896" lon="2.8182">
        <ele>306.1</ele>
        <time>2019-11-01T09:17:09Z</time>
      </trkpt>
      <trkpt lat="46.33899" lon="2.81823">
        <ele>306.3</ele>
        <time>2019-11-01T09:17:10Z</time>
      </trkpt>
      <trkpt lat="46.33901" lon="2.81828">
        <ele>306.6</ele>
        <time>2019-11-01T09:17:11Z</time>
      </trkpt>
      <trkpt lat="46.33903" lon="2.81832">
        <ele>306.8</ele>
        <time>2019-11-01T09:17:12Z</time>
      </trkpt>
      <trkpt lat="46.33904" lon="2.81838">
        <ele>307</ele>
        <time>2019-11-01T09:17:13Z</time>
      </trkpt>
      <trkpt lat="46.33905" lon="2.81842">
        <ele>307.4</ele>
        <time>2019-11-01T09:17:14Z</time>
      </trkpt>
      <trkpt lat="46.33907" lon="2.81848">
        <ele>307.6</ele>
        <time>2019-11-01T09:17:15Z</time>
      </trkpt>
      <trkpt lat="46.33908" lon="2.81853">
        <ele>307.7</ele>
        <time>2019-11-01T09:17:16Z</time>
      </trkpt>
      <trkpt lat="46.33909" lon="2.81858">
        <ele>307.9</ele>
        <time>2019-11-01T09:17:17Z</time>
      </trkpt>
      <trkpt lat="46.33911" lon="2.81862">
        <ele>308</ele>
        <time>2019-11-01T09:17:18Z</time>
      </trkpt>
      <trkpt lat="46.33913" lon="2.81865">
        <ele>308.2</ele>
        <time>2019-11-01T09:17:19Z</time>
      </trkpt>
      <trkpt lat="46.33915" lon="2.8187">
        <ele>308.4</ele>
        <time>2019-11-01T09:17:20Z</time>
      </trkpt>
      <trkpt lat="46.33917" lon="2.81874">
        <ele>308.6</ele>
        <time>2019-11-01T09:17:21Z</time>
      </trkpt>
      <trkpt lat="46.33919" lon="2.81878">
        <ele>308.7</ele>
        <time>2019-11-01T09:17:22Z</time>
      </trkpt>
      <trkpt lat="46.33921" lon="2.81882">
        <ele>308.9</ele>
        <time>2019-11-01T09:17:23Z</time>
      </trkpt>
      <trkpt lat="46.33923" lon="2.81885">
        <ele>308.8</ele>
        <time>2019-11-01T09:17:24Z</time>
      </trkpt>
      <trkpt lat="46.33925" lon="2.81888">
        <ele>309</ele>
        <time>2019-11-01T09:17:25Z</time>
      </trkpt>
      <trkpt lat="46.33926" lon="2.81893">
        <ele>309.2</ele>
        <time>2019-11-01T09:17:26Z</time>
      </trkpt>
      <trkpt lat="46.33927" lon="2.81896">
        <ele>309.4</ele>
        <time>2019-11-01T09:17:27Z</time>
      </trkpt>
      <trkpt lat="46.33929" lon="2.819">
        <ele>309.5</ele>
        <time>2019-11-01T09:17:28Z</time>
      </trkpt>
      <trkpt lat="46.33931" lon="2.81903">
        <ele>309.7</ele>
        <time>2019-11-01T09:17:29Z</time>
      </trkpt>
      <trkpt lat="46.33932" lon="2.81906">
        <ele>309.6</ele>
        <time>2019-11-01T09:17:30Z</time>
      </trkpt>
      <trkpt lat="46.33934" lon="2.8191">
        <ele>309.8</ele>
        <time>2019-11-01T09:17:31Z</time>
      </trkpt>
      <trkpt lat="46.33936" lon="2.81913">
        <ele>309.9</ele>
        <time>2019-11-01T09:17:32Z</time>
      </trkpt>
      <trkpt lat="46.33937" lon="2.81916">
        <ele>310.1</ele>
        <time>2019-11-01T09:17:33Z</time>
      </trkpt>
      <trkpt lat="46.33938" lon="2.81919">
        <ele>310</ele>
        <time>2019-11-01T09:17:34Z</time>
      </trkpt>
      <trkpt lat="46.33938" lon="2.81923">
        <ele>310.2</ele>
        <time>2019-11-01T09:17:35Z</time>
      </trkpt>
      <trkpt lat="46.33938" lon="2.81927">
        <ele>310.4</ele>
        <time>2019-11-01T09:17:36Z</time>
      </trkpt>
      <trkpt lat="46.33939" lon="2.81931">
        <ele>310.6</ele>
        <time>2019-11-01T09:17:37Z</time>
      </trkpt>
      <trkpt lat="46.33939" lon="2.81934">
        <ele>310.8</ele>
        <time>2019-11-01T09:17:38Z</time>
      </trkpt>
      <trkpt lat="46.33937" lon="2.81939">
        <ele>311</ele>
        <time>2019-11-01T09:17:39Z</time>
      </trkpt>
      <trkpt lat="46.33936" lon="2.81942">
        <ele>311.1</ele>
        <time>2019-11-01T09:17:40Z</time>
      </trkpt>
      <trkpt lat="46.33935" lon="2.81946">
        <ele>311.3</ele>
        <time>2019-11-01T09:17:41Z</time>
      </trkpt>
      <trkpt lat="46.33936" lon="2.8195">
        <ele>311.4</ele>
        <time>2019-11-01T09:17:42Z</time>
      </trkpt>
      <trkpt lat="46.33935" lon="2.81954">
        <ele>311.6</ele>
        <time>2019-11-01T09:17:43Z</time>
      </trkpt>
      <trkpt lat="46.33935" lon="2.81959">
        <ele>311.7</ele>
        <time>2019-11-01T09:17:44Z</time>
      </trkpt>
      <trkpt lat="46.33936" lon="2.81963">
        <ele>311.8</ele>
        <time>2019-11-01T09:17:45Z</time>
      </trkpt>
      <trkpt lat="46.33937" lon="2.81967">
        <ele>311.9</ele>
        <time>2019-11-01T09:17:46Z</time>
      </trkpt>
      <trkpt lat="46.33937" lon="2.8197">
        <ele>311.9</ele>
        <time>2019-11-01T09:17:47Z</time>
      </trkpt>
      <trkpt lat="46.33938" lon="2.81974">
        <ele>312</ele>
        <time>2019-11-01T09:17:48Z</time>
      </trkpt>
      <trkpt lat="46.33939" lon="2.81977">
        <ele>312.1</ele>
        <time>2019-11-01T09:17:49Z</time>
      </trkpt>
      <trkpt lat="46.33941" lon="2.81979">
        <ele>312.1</ele>
        <time>2019-11-01T09:17:50Z</time>
      </trkpt>
      <trkpt lat="46.33942" lon="2.81982">
        <ele>312.1</ele>
        <time>2019-11-01T09:17:51Z</time>
      </trkpt>
      <trkpt lat="46.33944" lon="2.81985">
        <ele>312.2</ele>
        <time>2019-11-01T09:17:52Z</time>
      </trkpt>
      <trkpt lat="46.33945" lon="2.81987">
        <ele>312.2</ele>
        <time>2019-11-01T09:17:53Z</time>
      </trkpt>
      <trkpt lat="46.33948" lon="2.81991">
        <ele>312.2</ele>
        <time>2019-11-01T09:17:54Z</time>
      </trkpt>
      <trkpt lat="46.33949" lon="2.81993">
        <ele>312.2</ele>
        <time>2019-11-01T09:17:55Z</time>
      </trkpt>
      <trkpt lat="46.3395" lon="2.81998">
        <ele>312.3</ele>
        <time>2019-11-01T09:17:56Z</time>
      </trkpt>
      <trkpt lat="46.33951" lon="2.82002">
        <ele>312.3</ele>
        <time>2019-11-01T09:17:57Z</time>
      </trkpt>
      <trkpt lat="46.33954" lon="2.82005">
        <ele>312.3</ele>
        <time>2019-11-01T09:17:58Z</time>
      </trkpt>
      <trkpt lat="46.33956" lon="2.8201">
        <ele>312.4</ele>
        <time>2019-11-01T09:17:59Z</time>
      </trkpt>
      <trkpt lat="46.33958" lon="2.82014">
        <ele>312.4</ele>
        <time>2019-11-01T09:18:00Z</time>
      </trkpt>
      <trkpt lat="46.3396" lon="2.82019">
        <ele>312.3</ele>
        <time>2019-11-01T09:18:01Z</time>
      </trkpt>
      <trkpt lat="46.33962" lon="2.82023">
        <ele>312.3</ele>
        <time>2019-11-01T09:18:02Z</time>
      </trkpt>
      <trkpt lat="46.33964" lon="2.82028">
        <ele>312.2</ele>
        <time>2019-11-01T09:18:03Z</time>
      </trkpt>
      <trkpt lat="46.33967" lon="2.82034">
        <ele>312.1</ele>
        <time>2019-11-01T09:18:04Z</time>
      </trkpt>
      <trkpt lat="46.33969" lon="2.82038">
        <ele>312</ele>
        <time>2019-11-01T09:18:05Z</time>
      </trkpt>
      <trkpt lat="46.33972" lon="2.82043">
        <ele>311.9</ele>
        <time>2019-11-01T09:18:06Z</time>
      </trkpt>
      <trkpt lat="46.33974" lon="2.82048">
        <ele>311.9</ele>
        <time>2019-11-01T09:18:07Z</time>
      </trkpt>
      <trkpt lat="46.33976" lon="2.82053">
        <ele>311.9</ele>
        <time>2019-11-01T09:18:08Z</time>
      </trkpt>
      <trkpt lat="46.33978" lon="2.82058">
        <ele>312</ele>
        <time>2019-11-01T09:18:09Z</time>
      </trkpt>
      <trkpt lat="46.3398" lon="2.82062">
        <ele>312</ele>
        <time>2019-11-01T09:18:10Z</time>
      </trkpt>
      <trkpt lat="46.33983" lon="2.82067">
        <ele>311.9</ele>
        <time>2019-11-01T09:18:11Z</time>
      </trkpt>
      <trkpt lat="46.33985" lon="2.82072">
        <ele>311.9</ele>
        <time>2019-11-01T09:18:12Z</time>
      </trkpt>
      <trkpt lat="46.33987" lon="2.82077">
        <ele>311.9</ele>
        <time>2019-11-01T09:18:13Z</time>
      </trkpt>
      <trkpt lat="46.33989" lon="2.82082">
        <ele>311.9</ele>
        <time>2019-11-01T09:18:14Z</time>
      </trkpt>
      <trkpt lat="46.33991" lon="2.82088">
        <ele>311.8</ele>
        <time>2019-11-01T09:18:15Z</time>
      </trkpt>
      <trkpt lat="46.33993" lon="2.82093">
        <ele>311.8</ele>
        <time>2019-11-01T09:18:16Z</time>
      </trkpt>
      <trkpt lat="46.33996" lon="2.82099">
        <ele>311.8</ele>
        <time>2019-11-01T09:18:17Z</time>
      </trkpt>
      <trkpt lat="46.33998" lon="2.82105">
        <ele>311.8</ele>
        <time>2019-11-01T09:18:18Z</time>
      </trkpt>
      <trkpt lat="46.34001" lon="2.82111">
        <ele>311.8</ele>
        <time>2019-11-01T09:18:19Z</time>
      </trkpt>
      <trkpt lat="46.34004" lon="2.82117">
        <ele>311.9</ele>
        <time>2019-11-01T09:18:20Z</time>
      </trkpt>
      <trkpt lat="46.34006" lon="2.82124">
        <ele>311.9</ele>
        <time>2019-11-01T09:18:21Z</time>
      </trkpt>
      <trkpt lat="46.34008" lon="2.8213">
        <ele>312.1</ele>
        <time>2019-11-01T09:18:22Z</time>
      </trkpt>
      <trkpt lat="46.34011" lon="2.82136">
        <ele>312</ele>
        <time>2019-11-01T09:18:23Z</time>
      </trkpt>
      <trkpt lat="46.34013" lon="2.82141">
        <ele>312</ele>
        <time>2019-11-01T09:18:24Z</time>
      </trkpt>
      <trkpt lat="46.34016" lon="2.82147">
        <ele>312.2</ele>
        <time>2019-11-01T09:18:25Z</time>
      </trkpt>
      <trkpt lat="46.34018" lon="2.82154">
        <ele>312.2</ele>
        <time>2019-11-01T09:18:26Z</time>
      </trkpt>
      <trkpt lat="46.3402" lon="2.8216">
        <ele>312.4</ele>
        <time>2019-11-01T09:18:27Z</time>
      </trkpt>
      <trkpt lat="46.34022" lon="2.82167">
        <ele>312.6</ele>
        <time>2019-11-01T09:18:28Z</time>
      </trkpt>
      <trkpt lat="46.34025" lon="2.82173">
        <ele>312.8</ele>
        <time>2019-11-01T09:18:29Z</time>
      </trkpt>
      <trkpt lat="46.34027" lon="2.8218">
        <ele>312.8</ele>
        <time>2019-11-01T09:18:30Z</time>
      </trkpt>
      <trkpt lat="46.34029" lon="2.82186">
        <ele>313.2</ele>
        <time>2019-11-01T09:18:31Z</time>
      </trkpt>
      <trkpt lat="46.34032" lon="2.82192">
        <ele>313.3</ele>
        <time>2019-11-01T09:18:32Z</time>
      </trkpt>
      <trkpt lat="46.34035" lon="2.82198">
        <ele>313.4</ele>
        <time>2019-11-01T09:18:33Z</time>
      </trkpt>
      <trkpt lat="46.34039" lon="2.82203">
        <ele>314</ele>
        <time>2019-11-01T09:18:34Z</time>
      </trkpt>
      <trkpt lat="46.34042" lon="2.82208">
        <ele>314.2</ele>
        <time>2019-11-01T09:18:35Z</time>
      </trkpt>
      <trkpt lat="46.34045" lon="2.82214">
        <ele>314.4</ele>
        <time>2019-11-01T09:18:36Z</time>
      </trkpt>
      <trkpt lat="46.34048" lon="2.82219">
        <ele>314.5</ele>
        <time>2019-11-01T09:18:37Z</time>
      </trkpt>
      <trkpt lat="46.34051" lon="2.82225">
        <ele>315</ele>
        <time>2019-11-01T09:18:38Z</time>
      </trkpt>
      <trkpt lat="46.34053" lon="2.82231">
        <ele>315.1</ele>
        <time>2019-11-01T09:18:39Z</time>
      </trkpt>
      <trkpt lat="46.34056" lon="2.82236">
        <ele>315.4</ele>
        <time>2019-11-01T09:18:40Z</time>
      </trkpt>
      <trkpt lat="46.34058" lon="2.82241">
        <ele>315.5</ele>
        <time>2019-11-01T09:18:41Z</time>
      </trkpt>
      <trkpt lat="46.34061" lon="2.82247">
        <ele>315.9</ele>
        <time>2019-11-01T09:18:42Z</time>
      </trkpt>
      <trkpt lat="46.34062" lon="2.82252">
        <ele>316</ele>
        <time>2019-11-01T09:18:43Z</time>
      </trkpt>
      <trkpt lat="46.34065" lon="2.82258">
        <ele>316.3</ele>
        <time>2019-11-01T09:18:44Z</time>
      </trkpt>
      <trkpt lat="46.34067" lon="2.82264">
        <ele>316.5</ele>
        <time>2019-11-01T09:18:45Z</time>
      </trkpt>
      <trkpt lat="46.34069" lon="2.8227">
        <ele>316.6</ele>
        <time>2019-11-01T09:18:46Z</time>
      </trkpt>
      <trkpt lat="46.34072" lon="2.8228">
        <ele>316.7</ele>
        <time>2019-11-01T09:18:47Z</time>
      </trkpt>
      <trkpt lat="46.34073" lon="2.82283">
        <ele>316.9</ele>
        <time>2019-11-01T09:18:48Z</time>
      </trkpt>
      <trkpt lat="46.34076" lon="2.8229">
        <ele>317</ele>
        <time>2019-11-01T09:18:49Z</time>
      </trkpt>
      <trkpt lat="46.34078" lon="2.82296">
        <ele>317</ele>
        <time>2019-11-01T09:18:50Z</time>
      </trkpt>
      <trkpt lat="46.34081" lon="2.82301">
        <ele>316.9</ele>
        <time>2019-11-01T09:18:51Z</time>
      </trkpt>
      <trkpt lat="46.34084" lon="2.82307">
        <ele>317</ele>
        <time>2019-11-01T09:18:52Z</time>
      </trkpt>
      <trkpt lat="46.34087" lon="2.82313">
        <ele>316.9</ele>
        <time>2019-11-01T09:18:53Z</time>
      </trkpt>
      <trkpt lat="46.34089" lon="2.82319">
        <ele>317</ele>
        <time>2019-11-01T09:18:54Z</time>
      </trkpt>
      <trkpt lat="46.34092" lon="2.82325">
        <ele>316.9</ele>
        <time>2019-11-01T09:18:55Z</time>
      </trkpt>
      <trkpt lat="46.34095" lon="2.82331">
        <ele>316.9</ele>
        <time>2019-11-01T09:18:56Z</time>
      </trkpt>
      <trkpt lat="46.34099" lon="2.82337">
        <ele>317.2</ele>
        <time>2019-11-01T09:18:57Z</time>
      </trkpt>
      <trkpt lat="46.34102" lon="2.82343">
        <ele>317.2</ele>
        <time>2019-11-01T09:18:58Z</time>
      </trkpt>
      <trkpt lat="46.34105" lon="2.82349">
        <ele>317.4</ele>
        <time>2019-11-01T09:18:59Z</time>
      </trkpt>
      <trkpt lat="46.34108" lon="2.82355">
        <ele>317.3</ele>
        <time>2019-11-01T09:19:34Z</time>
      </trkpt>
      <trkpt lat="46.34111" lon="2.82362">
        <ele>317.1</ele>
        <time>2019-11-01T09:19:35Z</time>
      </trkpt>
      <trkpt lat="46.34114" lon="2.82369">
        <ele>316.9</ele>
        <time>2019-11-01T09:19:36Z</time>
      </trkpt>
      <trkpt lat="46.34117" lon="2.82375">
        <ele>316.8</ele>
        <time>2019-11-01T09:19:37Z</time>
      </trkpt>
      <trkpt lat="46.3412" lon="2.82382">
        <ele>316.7</ele>
        <time>2019-11-01T09:19:38Z</time>
      </trkpt>
      <trkpt lat="46.34122" lon="2.82388">
        <ele>316.8</ele>
        <time>2019-11-01T09:19:39Z</time>
      </trkpt>
      <trkpt lat="46.34125" lon="2.82395">
        <ele>316.6</ele>
        <time>2019-11-01T09:19:40Z</time>
      </trkpt>
      <trkpt lat="46.34128" lon="2.82402">
        <ele>316.6</ele>
        <time>2019-11-01T09:19:41Z</time>
      </trkpt>
      <trkpt lat="46.34131" lon="2.82408">
        <ele>316.4</ele>
        <time>2019-11-01T09:19:42Z</time>
      </trkpt>
      <trkpt lat="46.34134" lon="2.82413">
        <ele>316.2</ele>
        <time>2019-11-01T09:19:43Z</time>
      </trkpt>
      <trkpt lat="46.34137" lon="2.82418">
        <ele>316</ele>
        <time>2019-11-01T09:19:44Z</time>
      </trkpt>
      <trkpt lat="46.34139" lon="2.82422">
        <ele>315.7</ele>
        <time>2019-11-01T09:19:45Z</time>
      </trkpt>
      <trkpt lat="46.3414" lon="2.82426">
        <ele>315.7</ele>
        <time>2019-11-01T09:19:46Z</time>
      </trkpt>
      <trkpt lat="46.34136" lon="2.82421">
        <ele>316</ele>
        <time>2019-11-01T09:19:47Z</time>
      </trkpt>
      <trkpt lat="46.34136" lon="2.82421">
        <ele>316</ele>
        <time>2019-11-01T09:19:48Z</time>
      </trkpt>
      <trkpt lat="46.34136" lon="2.82421">
        <ele>316</ele>
        <time>2019-11-01T09:19:49Z</time>
      </trkpt>
      <trkpt lat="46.34136" lon="2.82421">
        <ele>316</ele>
        <time>2019-11-01T09:19:50Z</time>
      </trkpt>
      <trkpt lat="46.34137" lon="2.82422">
        <ele>316.1</ele>
        <time>2019-11-01T09:19:51Z</time>
      </trkpt>
      <trkpt lat="46.34138" lon="2.82426">
        <ele>316.1</ele>
        <time>2019-11-01T09:19:52Z</time>
      </trkpt>
      <trkpt lat="46.34139" lon="2.8243">
        <ele>315.9</ele>
        <time>2019-11-01T09:19:53Z</time>
      </trkpt>
      <trkpt lat="46.34141" lon="2.82436">
        <ele>315.9</ele>
        <time>2019-11-01T09:19:54Z</time>
      </trkpt>
      <trkpt lat="46.34143" lon="2.8244">
        <ele>316</ele>
        <time>2019-11-01T09:19:55Z</time>
      </trkpt>
      <trkpt lat="46.34145" lon="2.82445">
        <ele>316</ele>
        <time>2019-11-01T09:19:56Z</time>
      </trkpt>
      <trkpt lat="46.34147" lon="2.8245">
        <ele>316.1</ele>
        <time>2019-11-01T09:19:57Z</time>
      </trkpt>
      <trkpt lat="46.34149" lon="2.82454">
        <ele>316.2</ele>
        <time>2019-11-01T09:19:58Z</time>
      </trkpt>
      <trkpt lat="46.34151" lon="2.82459">
        <ele>316.3</ele>
        <time>2019-11-01T09:19:59Z</time>
      </trkpt>
      <trkpt lat="46.34153" lon="2.82463">
        <ele>316.5</ele>
        <time>2019-11-01T09:20:00Z</time>
      </trkpt>
      <trkpt lat="46.34155" lon="2.82467">
        <ele>316.5</ele>
        <time>2019-11-01T09:20:01Z</time>
      </trkpt>
      <trkpt lat="46.34156" lon="2.82471">
        <ele>316.6</ele>
        <time>2019-11-01T09:20:02Z</time>
      </trkpt>
      <trkpt lat="46.34158" lon="2.82476">
        <ele>316.7</ele>
        <time>2019-11-01T09:20:03Z</time>
      </trkpt>
      <trkpt lat="46.34159" lon="2.8248">
        <ele>316.8</ele>
        <time>2019-11-01T09:20:04Z</time>
      </trkpt>
      <trkpt lat="46.34161" lon="2.82485">
        <ele>316.8</ele>
        <time>2019-11-01T09:20:05Z</time>
      </trkpt>
      <trkpt lat="46.34162" lon="2.8249">
        <ele>316.9</ele>
        <time>2019-11-01T09:20:06Z</time>
      </trkpt>
      <trkpt lat="46.34164" lon="2.82495">
        <ele>317</ele>
        <time>2019-11-01T09:20:07Z</time>
      </trkpt>
      <trkpt lat="46.34164" lon="2.825">
        <ele>317.1</ele>
        <time>2019-11-01T09:20:08Z</time>
      </trkpt>
      <trkpt lat="46.34166" lon="2.82506">
        <ele>317.2</ele>
        <time>2019-11-01T09:20:09Z</time>
      </trkpt>
      <trkpt lat="46.34167" lon="2.82512">
        <ele>317.2</ele>
        <time>2019-11-01T09:20:10Z</time>
      </trkpt>
      <trkpt lat="46.34168" lon="2.82518">
        <ele>317.3</ele>
        <time>2019-11-01T09:20:11Z</time>
      </trkpt>
      <trkpt lat="46.34169" lon="2.82525">
        <ele>317.3</ele>
        <time>2019-11-01T09:20:12Z</time>
      </trkpt>
      <trkpt lat="46.3417" lon="2.82532">
        <ele>317.3</ele>
        <time>2019-11-01T09:20:13Z</time>
      </trkpt>
      <trkpt lat="46.34171" lon="2.82538">
        <ele>317.3</ele>
        <time>2019-11-01T09:20:14Z</time>
      </trkpt>
      <trkpt lat="46.34171" lon="2.82545">
        <ele>317.2</ele>
        <time>2019-11-01T09:20:15Z</time>
      </trkpt>
      <trkpt lat="46.34172" lon="2.82553">
        <ele>317.1</ele>
        <time>2019-11-01T09:20:16Z</time>
      </trkpt>
      <trkpt lat="46.34172" lon="2.8256">
        <ele>317</ele>
        <time>2019-11-01T09:20:17Z</time>
      </trkpt>
      <trkpt lat="46.34172" lon="2.82569">
        <ele>316.8</ele>
        <time>2019-11-01T09:20:18Z</time>
      </trkpt>
      <trkpt lat="46.34173" lon="2.82577">
        <ele>316.5</ele>
        <time>2019-11-01T09:20:19Z</time>
      </trkpt>
      <trkpt lat="46.34174" lon="2.82586">
        <ele>316.3</ele>
        <time>2019-11-01T09:20:20Z</time>
      </trkpt>
      <trkpt lat="46.34174" lon="2.82593">
        <ele>316.1</ele>
        <time>2019-11-01T09:20:21Z</time>
      </trkpt>
      <trkpt lat="46.34175" lon="2.82601">
        <ele>315.9</ele>
        <time>2019-11-01T09:20:22Z</time>
      </trkpt>
      <trkpt lat="46.34175" lon="2.8261">
        <ele>315.7</ele>
        <time>2019-11-01T09:20:23Z</time>
      </trkpt>
      <trkpt lat="46.34175" lon="2.82619">
        <ele>315.4</ele>
        <time>2019-11-01T09:20:24Z</time>
      </trkpt>
      <trkpt lat="46.34174" lon="2.82627">
        <ele>315.1</ele>
        <time>2019-11-01T09:20:25Z</time>
      </trkpt>
      <trkpt lat="46.34175" lon="2.82637">
        <ele>314.8</ele>
        <time>2019-11-01T09:20:26Z</time>
      </trkpt>
      <trkpt lat="46.34175" lon="2.82647">
        <ele>314.4</ele>
        <time>2019-11-01T09:20:27Z</time>
      </trkpt>
      <trkpt lat="46.34176" lon="2.82657">
        <ele>314.2</ele>
        <time>2019-11-01T09:20:28Z</time>
      </trkpt>
      <trkpt lat="46.34176" lon="2.82667">
        <ele>313.8</ele>
        <time>2019-11-01T09:20:29Z</time>
      </trkpt>
      <trkpt lat="46.34176" lon="2.82676">
        <ele>313.5</ele>
        <time>2019-11-01T09:20:30Z</time>
      </trkpt>
      <trkpt lat="46.34176" lon="2.82687">
        <ele>313.1</ele>
        <time>2019-11-01T09:20:31Z</time>
      </trkpt>
      <trkpt lat="46.34177" lon="2.82695">
        <ele>312.8</ele>
        <time>2019-11-01T09:20:32Z</time>
      </trkpt>
      <trkpt lat="46.3418" lon="2.82703">
        <ele>312.5</ele>
        <time>2019-11-01T09:20:33Z</time>
      </trkpt>
      <trkpt lat="46.34182" lon="2.82711">
        <ele>312.2</ele>
        <time>2019-11-01T09:20:34Z</time>
      </trkpt>
      <trkpt lat="46.34186" lon="2.82718">
        <ele>311.9</ele>
        <time>2019-11-01T09:20:35Z</time>
      </trkpt>
      <trkpt lat="46.34191" lon="2.82723">
        <ele>311.6</ele>
        <time>2019-11-01T09:20:36Z</time>
      </trkpt>
      <trkpt lat="46.34197" lon="2.82726">
        <ele>311.3</ele>
        <time>2019-11-01T09:20:37Z</time>
      </trkpt>
      <trkpt lat="46.34203" lon="2.82728">
        <ele>310.8</ele>
        <time>2019-11-01T09:20:38Z</time>
      </trkpt>
      <trkpt lat="46.34209" lon="2.8273">
        <ele>310.3</ele>
        <time>2019-11-01T09:20:39Z</time>
      </trkpt>
      <trkpt lat="46.34215" lon="2.82732">
        <ele>309.9</ele>
        <time>2019-11-01T09:20:40Z</time>
      </trkpt>
      <trkpt lat="46.34222" lon="2.82733">
        <ele>309.4</ele>
        <time>2019-11-01T09:20:41Z</time>
      </trkpt>
      <trkpt lat="46.34229" lon="2.82735">
        <ele>308.9</ele>
        <time>2019-11-01T09:20:42Z</time>
      </trkpt>
      <trkpt lat="46.34235" lon="2.82738">
        <ele>308.5</ele>
        <time>2019-11-01T09:20:43Z</time>
      </trkpt>
      <trkpt lat="46.34241" lon="2.82743">
        <ele>308.1</ele>
        <time>2019-11-01T09:20:44Z</time>
      </trkpt>
      <trkpt lat="46.34247" lon="2.82748">
        <ele>307.4</ele>
        <time>2019-11-01T09:20:45Z</time>
      </trkpt>
      <trkpt lat="46.34253" lon="2.82755">
        <ele>307</ele>
        <time>2019-11-01T09:20:46Z</time>
      </trkpt>
      <trkpt lat="46.34258" lon="2.82763">
        <ele>306.6</ele>
        <time>2019-11-01T09:20:47Z</time>
      </trkpt>
      <trkpt lat="46.34262" lon="2.82772">
        <ele>306.1</ele>
        <time>2019-11-01T09:20:48Z</time>
      </trkpt>
      <trkpt lat="46.34266" lon="2.82783">
        <ele>305.3</ele>
        <time>2019-11-01T09:20:49Z</time>
      </trkpt>
      <trkpt lat="46.3427" lon="2.82793">
        <ele>304.6</ele>
        <time>2019-11-01T09:20:50Z</time>
      </trkpt>
      <trkpt lat="46.34273" lon="2.82804">
        <ele>304</ele>
        <time>2019-11-01T09:20:51Z</time>
      </trkpt>
      <trkpt lat="46.34276" lon="2.82815">
        <ele>303.5</ele>
        <time>2019-11-01T09:20:52Z</time>
      </trkpt>
      <trkpt lat="46.3428" lon="2.82827">
        <ele>303.1</ele>
        <time>2019-11-01T09:20:53Z</time>
      </trkpt>
      <trkpt lat="46.34283" lon="2.82838">
        <ele>302.6</ele>
        <time>2019-11-01T09:20:54Z</time>
      </trkpt>
      <trkpt lat="46.34286" lon="2.8285">
        <ele>302.2</ele>
        <time>2019-11-01T09:20:55Z</time>
      </trkpt>
      <trkpt lat="46.34288" lon="2.82862">
        <ele>301.8</ele>
        <time>2019-11-01T09:20:56Z</time>
      </trkpt>
      <trkpt lat="46.34292" lon="2.82874">
        <ele>301.4</ele>
        <time>2019-11-01T09:20:57Z</time>
      </trkpt>
      <trkpt lat="46.34295" lon="2.82885">
        <ele>300.9</ele>
        <time>2019-11-01T09:20:58Z</time>
      </trkpt>
      <trkpt lat="46.34298" lon="2.82896">
        <ele>300.7</ele>
        <time>2019-11-01T09:20:59Z</time>
      </trkpt>
      <trkpt lat="46.343" lon="2.82908">
        <ele>300.4</ele>
        <time>2019-11-01T09:21:00Z</time>
      </trkpt>
      <trkpt lat="46.34303" lon="2.82919">
        <ele>300.2</ele>
        <time>2019-11-01T09:21:01Z</time>
      </trkpt>
      <trkpt lat="46.34306" lon="2.82931">
        <ele>299.9</ele>
        <time>2019-11-01T09:21:02Z</time>
      </trkpt>
      <trkpt lat="46.3431" lon="2.82941">
        <ele>299.7</ele>
        <time>2019-11-01T09:21:03Z</time>
      </trkpt>
      <trkpt lat="46.34314" lon="2.82952">
        <ele>299.4</ele>
        <time>2019-11-01T09:21:04Z</time>
      </trkpt>
      <trkpt lat="46.34318" lon="2.82963">
        <ele>299.1</ele>
        <time>2019-11-01T09:21:05Z</time>
      </trkpt>
      <trkpt lat="46.34322" lon="2.82975">
        <ele>298.6</ele>
        <time>2019-11-01T09:21:06Z</time>
      </trkpt>
      <trkpt lat="46.34327" lon="2.82985">
        <ele>298</ele>
        <time>2019-11-01T09:21:07Z</time>
      </trkpt>
      <trkpt lat="46.34333" lon="2.82995">
        <ele>297.5</ele>
        <time>2019-11-01T09:21:08Z</time>
      </trkpt>
      <trkpt lat="46.34339" lon="2.83005">
        <ele>297</ele>
        <time>2019-11-01T09:21:09Z</time>
      </trkpt>
      <trkpt lat="46.34347" lon="2.83013">
        <ele>296.3</ele>
        <time>2019-11-01T09:21:10Z</time>
      </trkpt>
      <trkpt lat="46.34355" lon="2.83021">
        <ele>295.7</ele>
        <time>2019-11-01T09:21:11Z</time>
      </trkpt>
      <trkpt lat="46.34362" lon="2.83029">
        <ele>295.3</ele>
        <time>2019-11-01T09:21:12Z</time>
      </trkpt>
      <trkpt lat="46.3437" lon="2.83036">
        <ele>294.8</ele>
        <time>2019-11-01T09:21:13Z</time>
      </trkpt>
      <trkpt lat="46.34379" lon="2.8304">
        <ele>294.2</ele>
        <time>2019-11-01T09:21:14Z</time>
      </trkpt>
      <trkpt lat="46.34387" lon="2.83043">
        <ele>293.8</ele>
        <time>2019-11-01T09:21:15Z</time>
      </trkpt>
      <trkpt lat="46.34396" lon="2.83045">
        <ele>293.4</ele>
        <time>2019-11-01T09:21:16Z</time>
      </trkpt>
      <trkpt lat="46.34405" lon="2.83046">
        <ele>293.1</ele>
        <time>2019-11-01T09:21:17Z</time>
      </trkpt>
      <trkpt lat="46.34413" lon="2.83049">
        <ele>292.6</ele>
        <time>2019-11-01T09:21:18Z</time>
      </trkpt>
      <trkpt lat="46.34422" lon="2.83052">
        <ele>292.2</ele>
        <time>2019-11-01T09:21:19Z</time>
      </trkpt>
      <trkpt lat="46.34432" lon="2.83055">
        <ele>291.9</ele>
        <time>2019-11-01T09:21:20Z</time>
      </trkpt>
      <trkpt lat="46.3444" lon="2.83059">
        <ele>291.5</ele>
        <time>2019-11-01T09:21:21Z</time>
      </trkpt>
      <trkpt lat="46.34448" lon="2.83063">
        <ele>291.2</ele>
        <time>2019-11-01T09:21:22Z</time>
      </trkpt>
      <trkpt lat="46.34457" lon="2.83067">
        <ele>290.9</ele>
        <time>2019-11-01T09:21:23Z</time>
      </trkpt>
      <trkpt lat="46.34465" lon="2.83071">
        <ele>290.7</ele>
        <time>2019-11-01T09:21:24Z</time>
      </trkpt>
      <trkpt lat="46.34473" lon="2.83075">
        <ele>290.3</ele>
        <time>2019-11-01T09:21:25Z</time>
      </trkpt>
      <trkpt lat="46.34481" lon="2.83079">
        <ele>290.1</ele>
        <time>2019-11-01T09:21:26Z</time>
      </trkpt>
      <trkpt lat="46.34489" lon="2.83083">
        <ele>289.8</ele>
        <time>2019-11-01T09:21:27Z</time>
      </trkpt>
      <trkpt lat="46.34497" lon="2.83088">
        <ele>289.6</ele>
        <time>2019-11-01T09:21:28Z</time>
      </trkpt>
      <trkpt lat="46.34505" lon="2.83091">
        <ele>289.4</ele>
        <time>2019-11-01T09:21:29Z</time>
      </trkpt>
      <trkpt lat="46.34513" lon="2.83096">
        <ele>289.2</ele>
        <time>2019-11-01T09:21:30Z</time>
      </trkpt>
      <trkpt lat="46.3452" lon="2.831">
        <ele>289</ele>
        <time>2019-11-01T09:21:31Z</time>
      </trkpt>
      <trkpt lat="46.34527" lon="2.83106">
        <ele>288.7</ele>
        <time>2019-11-01T09:21:32Z</time>
      </trkpt>
      <trkpt lat="46.34533" lon="2.83113">
        <ele>288.4</ele>
        <time>2019-11-01T09:21:33Z</time>
      </trkpt>
      <trkpt lat="46.34539" lon="2.8312">
        <ele>288.1</ele>
        <time>2019-11-01T09:21:34Z</time>
      </trkpt>
      <trkpt lat="46.34544" lon="2.83128">
        <ele>288</ele>
        <time>2019-11-01T09:21:35Z</time>
      </trkpt>
      <trkpt lat="46.34548" lon="2.83137">
        <ele>287.9</ele>
        <time>2019-11-01T09:21:36Z</time>
      </trkpt>
      <trkpt lat="46.34552" lon="2.83146">
        <ele>287.8</ele>
        <time>2019-11-01T09:21:37Z</time>
      </trkpt>
      <trkpt lat="46.34556" lon="2.83155">
        <ele>287.8</ele>
        <time>2019-11-01T09:21:38Z</time>
      </trkpt>
      <trkpt lat="46.3456" lon="2.83164">
        <ele>287.8</ele>
        <time>2019-11-01T09:21:39Z</time>
      </trkpt>
      <trkpt lat="46.34565" lon="2.83172">
        <ele>287.8</ele>
        <time>2019-11-01T09:21:40Z</time>
      </trkpt>
      <trkpt lat="46.3457" lon="2.83179">
        <ele>287.7</ele>
        <time>2019-11-01T09:21:41Z</time>
      </trkpt>
      <trkpt lat="46.34575" lon="2.83187">
        <ele>287.7</ele>
        <time>2019-11-01T09:21:42Z</time>
      </trkpt>
      <trkpt lat="46.3458" lon="2.83194">
        <ele>287.7</ele>
        <time>2019-11-01T09:21:43Z</time>
      </trkpt>
      <trkpt lat="46.34585" lon="2.83201">
        <ele>287.7</ele>
        <time>2019-11-01T09:21:44Z</time>
      </trkpt>
      <trkpt lat="46.3459" lon="2.83208">
        <ele>287.6</ele>
        <time>2019-11-01T09:21:45Z</time>
      </trkpt>
      <trkpt lat="46.34596" lon="2.83215">
        <ele>287.5</ele>
        <time>2019-11-01T09:21:46Z</time>
      </trkpt>
      <trkpt lat="46.34601" lon="2.83222">
        <ele>287.4</ele>
        <time>2019-11-01T09:21:47Z</time>
      </trkpt>
      <trkpt lat="46.34606" lon="2.83229">
        <ele>287.3</ele>
        <time>2019-11-01T09:21:48Z</time>
      </trkpt>
      <trkpt lat="46.34612" lon="2.83236">
        <ele>287.2</ele>
        <time>2019-11-01T09:21:49Z</time>
      </trkpt>
      <trkpt lat="46.34618" lon="2.83243">
        <ele>287</ele>
        <time>2019-11-01T09:21:50Z</time>
      </trkpt>
      <trkpt lat="46.34623" lon="2.8325">
        <ele>286.8</ele>
        <time>2019-11-01T09:21:51Z</time>
      </trkpt>
      <trkpt lat="46.34629" lon="2.83258">
        <ele>286.6</ele>
        <time>2019-11-01T09:21:52Z</time>
      </trkpt>
      <trkpt lat="46.34634" lon="2.83265">
        <ele>286.4</ele>
        <time>2019-11-01T09:21:53Z</time>
      </trkpt>
      <trkpt lat="46.3464" lon="2.83273">
        <ele>286.2</ele>
        <time>2019-11-01T09:21:54Z</time>
      </trkpt>
      <trkpt lat="46.34646" lon="2.8328">
        <ele>286.1</ele>
        <time>2019-11-01T09:21:55Z</time>
      </trkpt>
      <trkpt lat="46.34652" lon="2.83288">
        <ele>285.8</ele>
        <time>2019-11-01T09:21:56Z</time>
      </trkpt>
      <trkpt lat="46.34658" lon="2.83295">
        <ele>285.6</ele>
        <time>2019-11-01T09:21:57Z</time>
      </trkpt>
      <trkpt lat="46.34665" lon="2.83302">
        <ele>285.4</ele>
        <time>2019-11-01T09:21:58Z</time>
      </trkpt>
      <trkpt lat="46.34671" lon="2.83308">
        <ele>285.2</ele>
        <time>2019-11-01T09:21:59Z</time>
      </trkpt>
      <trkpt lat="46.34677" lon="2.83315">
        <ele>285</ele>
        <time>2019-11-01T09:22:00Z</time>
      </trkpt>
      <trkpt lat="46.34684" lon="2.83321">
        <ele>284.8</ele>
        <time>2019-11-01T09:22:01Z</time>
      </trkpt>
      <trkpt lat="46.34691" lon="2.83326">
        <ele>284.6</ele>
        <time>2019-11-01T09:22:02Z</time>
      </trkpt>
      <trkpt lat="46.34698" lon="2.83331">
        <ele>284.4</ele>
        <time>2019-11-01T09:22:03Z</time>
      </trkpt>
      <trkpt lat="46.34705" lon="2.83335">
        <ele>284</ele>
        <time>2019-11-01T09:22:04Z</time>
      </trkpt>
      <trkpt lat="46.34713" lon="2.83337">
        <ele>283.7</ele>
        <time>2019-11-01T09:22:05Z</time>
      </trkpt>
      <trkpt lat="46.34721" lon="2.83339">
        <ele>283.4</ele>
        <time>2019-11-01T09:22:06Z</time>
      </trkpt>
      <trkpt lat="46.34729" lon="2.83341">
        <ele>283.2</ele>
        <time>2019-11-01T09:22:07Z</time>
      </trkpt>
      <trkpt lat="46.34737" lon="2.83341">
        <ele>282.9</ele>
        <time>2019-11-01T09:22:08Z</time>
      </trkpt>
      <trkpt lat="46.34744" lon="2.83341">
        <ele>282.5</ele>
        <time>2019-11-01T09:22:09Z</time>
      </trkpt>
      <trkpt lat="46.34752" lon="2.83338">
        <ele>282.2</ele>
        <time>2019-11-01T09:22:10Z</time>
      </trkpt>
      <trkpt lat="46.3476" lon="2.83334">
        <ele>282</ele>
        <time>2019-11-01T09:22:11Z</time>
      </trkpt>
      <trkpt lat="46.34766" lon="2.83329">
        <ele>281.7</ele>
        <time>2019-11-01T09:22:12Z</time>
      </trkpt>
      <trkpt lat="46.34773" lon="2.83324">
        <ele>281.4</ele>
        <time>2019-11-01T09:22:13Z</time>
      </trkpt>
      <trkpt lat="46.3478" lon="2.8332">
        <ele>281.2</ele>
        <time>2019-11-01T09:22:14Z</time>
      </trkpt>
      <trkpt lat="46.34786" lon="2.83319">
        <ele>281.1</ele>
        <time>2019-11-01T09:22:15Z</time>
      </trkpt>
      <trkpt lat="46.34792" lon="2.83321">
        <ele>280.9</ele>
        <time>2019-11-01T09:22:16Z</time>
      </trkpt>
      <trkpt lat="46.34798" lon="2.83325">
        <ele>280.8</ele>
        <time>2019-11-01T09:22:17Z</time>
      </trkpt>
      <trkpt lat="46.34803" lon="2.8333">
        <ele>280.7</ele>
        <time>2019-11-01T09:22:18Z</time>
      </trkpt>
      <trkpt lat="46.34807" lon="2.83338">
        <ele>280.6</ele>
        <time>2019-11-01T09:22:19Z</time>
      </trkpt>
      <trkpt lat="46.3481" lon="2.83346">
        <ele>280.6</ele>
        <time>2019-11-01T09:22:20Z</time>
      </trkpt>
      <trkpt lat="46.34813" lon="2.83355">
        <ele>280.5</ele>
        <time>2019-11-01T09:22:21Z</time>
      </trkpt>
      <trkpt lat="46.34815" lon="2.83364">
        <ele>280.4</ele>
        <time>2019-11-01T09:22:22Z</time>
      </trkpt>
      <trkpt lat="46.34816" lon="2.83372">
        <ele>280.4</ele>
        <time>2019-11-01T09:22:23Z</time>
      </trkpt>
      <trkpt lat="46.34818" lon="2.8338">
        <ele>280.4</ele>
        <time>2019-11-01T09:22:24Z</time>
      </trkpt>
      <trkpt lat="46.34818" lon="2.83388">
        <ele>280.5</ele>
        <time>2019-11-01T09:22:25Z</time>
      </trkpt>
      <trkpt lat="46.34818" lon="2.83396">
        <ele>280.6</ele>
        <time>2019-11-01T09:22:26Z</time>
      </trkpt>
      <trkpt lat="46.34818" lon="2.83403">
        <ele>280.8</ele>
        <time>2019-11-01T09:22:27Z</time>
      </trkpt>
      <trkpt lat="46.34818" lon="2.8341">
        <ele>281</ele>
        <time>2019-11-01T09:22:28Z</time>
      </trkpt>
      <trkpt lat="46.34819" lon="2.83416">
        <ele>281.2</ele>
        <time>2019-11-01T09:22:29Z</time>
      </trkpt>
      <trkpt lat="46.34819" lon="2.83422">
        <ele>281.5</ele>
        <time>2019-11-01T09:22:30Z</time>
      </trkpt>
      <trkpt lat="46.3482" lon="2.83428">
        <ele>281.7</ele>
        <time>2019-11-01T09:22:31Z</time>
      </trkpt>
      <trkpt lat="46.34821" lon="2.83433">
        <ele>282</ele>
        <time>2019-11-01T09:22:32Z</time>
      </trkpt>
      <trkpt lat="46.34821" lon="2.83438">
        <ele>282.4</ele>
        <time>2019-11-01T09:22:33Z</time>
      </trkpt>
      <trkpt lat="46.34822" lon="2.83443">
        <ele>282.7</ele>
        <time>2019-11-01T09:22:34Z</time>
      </trkpt>
      <trkpt lat="46.34823" lon="2.83447">
        <ele>283.1</ele>
        <time>2019-11-01T09:22:35Z</time>
      </trkpt>
      <trkpt lat="46.34823" lon="2.83451">
        <ele>283.4</ele>
        <time>2019-11-01T09:22:36Z</time>
      </trkpt>
      <trkpt lat="46.34824" lon="2.83455">
        <ele>283.8</ele>
        <time>2019-11-01T09:22:37Z</time>
      </trkpt>
      <trkpt lat="46.34825" lon="2.83459">
        <ele>284.1</ele>
        <time>2019-11-01T09:22:38Z</time>
      </trkpt>
      <trkpt lat="46.34827" lon="2.83463">
        <ele>284.5</ele>
        <time>2019-11-01T09:22:39Z</time>
      </trkpt>
      <trkpt lat="46.34827" lon="2.83467">
        <ele>284.8</ele>
        <time>2019-11-01T09:22:40Z</time>
      </trkpt>
      <trkpt lat="46.34829" lon="2.83472">
        <ele>285.3</ele>
        <time>2019-11-01T09:22:41Z</time>
      </trkpt>
      <trkpt lat="46.3483" lon="2.83476">
        <ele>285.7</ele>
        <time>2019-11-01T09:22:42Z</time>
      </trkpt>
      <trkpt lat="46.34831" lon="2.8348">
        <ele>286.1</ele>
        <time>2019-11-01T09:22:43Z</time>
      </trkpt>
      <trkpt lat="46.34832" lon="2.83484">
        <ele>286.5</ele>
        <time>2019-11-01T09:22:44Z</time>
      </trkpt>
      <trkpt lat="46.34833" lon="2.83488">
        <ele>286.9</ele>
        <time>2019-11-01T09:22:45Z</time>
      </trkpt>
      <trkpt lat="46.34833" lon="2.83492">
        <ele>287.3</ele>
        <time>2019-11-01T09:22:46Z</time>
      </trkpt>
      <trkpt lat="46.34834" lon="2.83497">
        <ele>287.7</ele>
        <time>2019-11-01T09:22:47Z</time>
      </trkpt>
      <trkpt lat="46.34835" lon="2.83501">
        <ele>288.1</ele>
        <time>2019-11-01T09:22:48Z</time>
      </trkpt>
      <trkpt lat="46.34836" lon="2.83505">
        <ele>288.5</ele>
        <time>2019-11-01T09:22:49Z</time>
      </trkpt>
      <trkpt lat="46.34837" lon="2.83509">
        <ele>288.8</ele>
        <time>2019-11-01T09:22:50Z</time>
      </trkpt>
      <trkpt lat="46.34838" lon="2.83514">
        <ele>289.1</ele>
        <time>2019-11-01T09:22:51Z</time>
      </trkpt>
      <trkpt lat="46.3484" lon="2.83517">
        <ele>289.4</ele>
        <time>2019-11-01T09:22:52Z</time>
      </trkpt>
      <trkpt lat="46.34841" lon="2.83521">
        <ele>289.7</ele>
        <time>2019-11-01T09:22:53Z</time>
      </trkpt>
      <trkpt lat="46.34843" lon="2.83525">
        <ele>290</ele>
        <time>2019-11-01T09:22:54Z</time>
      </trkpt>
      <trkpt lat="46.34844" lon="2.83529">
        <ele>290.3</ele>
        <time>2019-11-01T09:22:55Z</time>
      </trkpt>
      <trkpt lat="46.34845" lon="2.83533">
        <ele>290.6</ele>
        <time>2019-11-01T09:22:56Z</time>
      </trkpt>
      <trkpt lat="46.34846" lon="2.83536">
        <ele>290.8</ele>
        <time>2019-11-01T09:22:57Z</time>
      </trkpt>
      <trkpt lat="46.34848" lon="2.8354">
        <ele>291.1</ele>
        <time>2019-11-01T09:22:58Z</time>
      </trkpt>
      <trkpt lat="46.34849" lon="2.83543">
        <ele>291.4</ele>
        <time>2019-11-01T09:22:59Z</time>
      </trkpt>
      <trkpt lat="46.34851" lon="2.83546">
        <ele>291.7</ele>
        <time>2019-11-01T09:23:00Z</time>
      </trkpt>
      <trkpt lat="46.34851" lon="2.8355">
        <ele>292</ele>
        <time>2019-11-01T09:23:01Z</time>
      </trkpt>
      <trkpt lat="46.34853" lon="2.83553">
        <ele>292.4</ele>
        <time>2019-11-01T09:23:02Z</time>
      </trkpt>
      <trkpt lat="46.34854" lon="2.83557">
        <ele>292.7</ele>
        <time>2019-11-01T09:23:03Z</time>
      </trkpt>
      <trkpt lat="46.34856" lon="2.8356">
        <ele>293</ele>
        <time>2019-11-01T09:23:04Z</time>
      </trkpt>
      <trkpt lat="46.34857" lon="2.83563">
        <ele>293.3</ele>
        <time>2019-11-01T09:23:05Z</time>
      </trkpt>
      <trkpt lat="46.34859" lon="2.83567">
        <ele>293.6</ele>
        <time>2019-11-01T09:23:06Z</time>
      </trkpt>
      <trkpt lat="46.3486" lon="2.8357">
        <ele>293.9</ele>
        <time>2019-11-01T09:23:07Z</time>
      </trkpt>
      <trkpt lat="46.34861" lon="2.83573">
        <ele>294.1</ele>
        <time>2019-11-01T09:23:08Z</time>
      </trkpt>
      <trkpt lat="46.34863" lon="2.83577">
        <ele>294.3</ele>
        <time>2019-11-01T09:23:09Z</time>
      </trkpt>
      <trkpt lat="46.34864" lon="2.8358">
        <ele>294.5</ele>
        <time>2019-11-01T09:23:10Z</time>
      </trkpt>
      <trkpt lat="46.34866" lon="2.83583">
        <ele>294.6</ele>
        <time>2019-11-01T09:23:11Z</time>
      </trkpt>
      <trkpt lat="46.34867" lon="2.83587">
        <ele>294.8</ele>
        <time>2019-11-01T09:23:12Z</time>
      </trkpt>
      <trkpt lat="46.34869" lon="2.8359">
        <ele>295</ele>
        <time>2019-11-01T09:23:13Z</time>
      </trkpt>
      <trkpt lat="46.34871" lon="2.83593">
        <ele>295.1</ele>
        <time>2019-11-01T09:23:14Z</time>
      </trkpt>
      <trkpt lat="46.34873" lon="2.83597">
        <ele>295.3</ele>
        <time>2019-11-01T09:23:15Z</time>
      </trkpt>
      <trkpt lat="46.34874" lon="2.836">
        <ele>295.5</ele>
        <time>2019-11-01T09:23:16Z</time>
      </trkpt>
      <trkpt lat="46.34876" lon="2.83604">
        <ele>295.7</ele>
        <time>2019-11-01T09:23:17Z</time>
      </trkpt>
      <trkpt lat="46.34877" lon="2.83607">
        <ele>295.9</ele>
        <time>2019-11-01T09:23:18Z</time>
      </trkpt>
      <trkpt lat="46.34879" lon="2.8361">
        <ele>296.1</ele>
        <time>2019-11-01T09:23:19Z</time>
      </trkpt>
      <trkpt lat="46.3488" lon="2.83614">
        <ele>296.4</ele>
        <time>2019-11-01T09:23:20Z</time>
      </trkpt>
      <trkpt lat="46.34882" lon="2.83618">
        <ele>296.6</ele>
        <time>2019-11-01T09:23:21Z</time>
      </trkpt>
      <trkpt lat="46.34883" lon="2.83622">
        <ele>296.9</ele>
        <time>2019-11-01T09:23:22Z</time>
      </trkpt>
      <trkpt lat="46.34885" lon="2.83626">
        <ele>297.1</ele>
        <time>2019-11-01T09:23:23Z</time>
      </trkpt>
      <trkpt lat="46.34886" lon="2.8363">
        <ele>297.4</ele>
        <time>2019-11-01T09:23:24Z</time>
      </trkpt>
      <trkpt lat="46.34888" lon="2.83634">
        <ele>297.6</ele>
        <time>2019-11-01T09:23:25Z</time>
      </trkpt>
      <trkpt lat="46.3489" lon="2.83638">
        <ele>297.7</ele>
        <time>2019-11-01T09:23:26Z</time>
      </trkpt>
      <trkpt lat="46.34892" lon="2.83642">
        <ele>297.8</ele>
        <time>2019-11-01T09:23:27Z</time>
      </trkpt>
      <trkpt lat="46.34893" lon="2.83646">
        <ele>298</ele>
        <time>2019-11-01T09:23:28Z</time>
      </trkpt>
      <trkpt lat="46.34895" lon="2.83651">
        <ele>298.1</ele>
        <time>2019-11-01T09:23:29Z</time>
      </trkpt>
      <trkpt lat="46.34896" lon="2.83655">
        <ele>298.2</ele>
        <time>2019-11-01T09:23:30Z</time>
      </trkpt>
      <trkpt lat="46.34896" lon="2.8366">
        <ele>298.3</ele>
        <time>2019-11-01T09:23:31Z</time>
      </trkpt>
      <trkpt lat="46.34897" lon="2.83665">
        <ele>298.5</ele>
        <time>2019-11-01T09:23:32Z</time>
      </trkpt>
      <trkpt lat="46.34898" lon="2.83671">
        <ele>298.6</ele>
        <time>2019-11-01T09:23:33Z</time>
      </trkpt>
      <trkpt lat="46.34898" lon="2.83677">
        <ele>298.8</ele>
        <time>2019-11-01T09:23:34Z</time>
      </trkpt>
      <trkpt lat="46.34897" lon="2.83681">
        <ele>299</ele>
        <time>2019-11-01T09:23:35Z</time>
      </trkpt>
      <trkpt lat="46.34897" lon="2.83686">
        <ele>299.1</ele>
        <time>2019-11-01T09:23:36Z</time>
      </trkpt>
      <trkpt lat="46.34897" lon="2.83691">
        <ele>299.2</ele>
        <time>2019-11-01T09:23:37Z</time>
      </trkpt>
      <trkpt lat="46.34896" lon="2.83697">
        <ele>299.3</ele>
        <time>2019-11-01T09:23:38Z</time>
      </trkpt>
      <trkpt lat="46.34896" lon="2.83703">
        <ele>299.4</ele>
        <time>2019-11-01T09:23:39Z</time>
      </trkpt>
      <trkpt lat="46.34895" lon="2.83708">
        <ele>299.5</ele>
        <time>2019-11-01T09:23:40Z</time>
      </trkpt>
      <trkpt lat="46.34895" lon="2.83714">
        <ele>299.6</ele>
        <time>2019-11-01T09:23:41Z</time>
      </trkpt>
      <trkpt lat="46.34894" lon="2.83718">
        <ele>299.7</ele>
        <time>2019-11-01T09:23:42Z</time>
      </trkpt>
      <trkpt lat="46.34893" lon="2.83723">
        <ele>299.8</ele>
        <time>2019-11-01T09:23:43Z</time>
      </trkpt>
      <trkpt lat="46.34893" lon="2.83729">
        <ele>299.9</ele>
        <time>2019-11-01T09:23:44Z</time>
      </trkpt>
      <trkpt lat="46.34892" lon="2.83734">
        <ele>300</ele>
        <time>2019-11-01T09:23:45Z</time>
      </trkpt>
      <trkpt lat="46.34891" lon="2.8374">
        <ele>300.1</ele>
        <time>2019-11-01T09:23:46Z</time>
      </trkpt>
      <trkpt lat="46.34891" lon="2.83745">
        <ele>300.3</ele>
        <time>2019-11-01T09:23:47Z</time>
      </trkpt>
      <trkpt lat="46.3489" lon="2.83751">
        <ele>300.4</ele>
        <time>2019-11-01T09:23:48Z</time>
      </trkpt>
      <trkpt lat="46.3489" lon="2.83757">
        <ele>300.5</ele>
        <time>2019-11-01T09:23:49Z</time>
      </trkpt>
      <trkpt lat="46.3489" lon="2.83762">
        <ele>300.7</ele>
        <time>2019-11-01T09:23:50Z</time>
      </trkpt>
      <trkpt lat="46.34889" lon="2.83768">
        <ele>300.8</ele>
        <time>2019-11-01T09:23:51Z</time>
      </trkpt>
      <trkpt lat="46.34889" lon="2.83773">
        <ele>300.9</ele>
        <time>2019-11-01T09:23:52Z</time>
      </trkpt>
      <trkpt lat="46.34888" lon="2.83779">
        <ele>301</ele>
        <time>2019-11-01T09:23:53Z</time>
      </trkpt>
      <trkpt lat="46.34888" lon="2.83783">
        <ele>301.1</ele>
        <time>2019-11-01T09:23:54Z</time>
      </trkpt>
      <trkpt lat="46.34888" lon="2.83788">
        <ele>301.1</ele>
        <time>2019-11-01T09:23:55Z</time>
      </trkpt>
      <trkpt lat="46.34887" lon="2.83794">
        <ele>301.2</ele>
        <time>2019-11-01T09:23:56Z</time>
      </trkpt>
      <trkpt lat="46.34887" lon="2.83799">
        <ele>301.3</ele>
        <time>2019-11-01T09:23:57Z</time>
      </trkpt>
      <trkpt lat="46.34887" lon="2.83805">
        <ele>301.4</ele>
        <time>2019-11-01T09:23:58Z</time>
      </trkpt>
      <trkpt lat="46.34886" lon="2.83811">
        <ele>301.5</ele>
        <time>2019-11-01T09:23:59Z</time>
      </trkpt>
      <trkpt lat="46.34885" lon="2.83817">
        <ele>301.5</ele>
        <time>2019-11-01T09:24:00Z</time>
      </trkpt>
      <trkpt lat="46.34885" lon="2.83823">
        <ele>301.6</ele>
        <time>2019-11-01T09:24:01Z</time>
      </trkpt>
      <trkpt lat="46.34884" lon="2.83829">
        <ele>301.7</ele>
        <time>2019-11-01T09:24:02Z</time>
      </trkpt>
      <trkpt lat="46.34884" lon="2.83835">
        <ele>301.7</ele>
        <time>2019-11-01T09:24:03Z</time>
      </trkpt>
      <trkpt lat="46.34883" lon="2.83841">
        <ele>301.8</ele>
        <time>2019-11-01T09:24:04Z</time>
      </trkpt>
      <trkpt lat="46.34883" lon="2.83847">
        <ele>301.9</ele>
        <time>2019-11-01T09:24:05Z</time>
      </trkpt>
      <trkpt lat="46.34882" lon="2.83853">
        <ele>301.9</ele>
        <time>2019-11-01T09:24:06Z</time>
      </trkpt>
      <trkpt lat="46.34882" lon="2.83859">
        <ele>302</ele>
        <time>2019-11-01T09:24:07Z</time>
      </trkpt>
      <trkpt lat="46.34881" lon="2.83868">
        <ele>302.1</ele>
        <time>2019-11-01T09:24:08Z</time>
      </trkpt>
      <trkpt lat="46.34881" lon="2.83871">
        <ele>302.1</ele>
        <time>2019-11-01T09:24:09Z</time>
      </trkpt>
      <trkpt lat="46.34881" lon="2.83878">
        <ele>302.2</ele>
        <time>2019-11-01T09:24:10Z</time>
      </trkpt>
      <trkpt lat="46.34881" lon="2.83884">
        <ele>302.3</ele>
        <time>2019-11-01T09:24:11Z</time>
      </trkpt>
      <trkpt lat="46.3488" lon="2.83892">
        <ele>302.3</ele>
        <time>2019-11-01T09:24:12Z</time>
      </trkpt>
      <trkpt lat="46.3488" lon="2.83898">
        <ele>302.4</ele>
        <time>2019-11-01T09:24:13Z</time>
      </trkpt>
      <trkpt lat="46.34879" lon="2.83904">
        <ele>302.4</ele>
        <time>2019-11-01T09:24:14Z</time>
      </trkpt>
      <trkpt lat="46.34879" lon="2.8391">
        <ele>302.4</ele>
        <time>2019-11-01T09:24:15Z</time>
      </trkpt>
      <trkpt lat="46.34878" lon="2.83918">
        <ele>302.5</ele>
        <time>2019-11-01T09:24:16Z</time>
      </trkpt>
      <trkpt lat="46.34878" lon="2.83925">
        <ele>302.5</ele>
        <time>2019-11-01T09:24:17Z</time>
      </trkpt>
      <trkpt lat="46.34877" lon="2.83931">
        <ele>302.5</ele>
        <time>2019-11-01T09:24:18Z</time>
      </trkpt>
      <trkpt lat="46.34877" lon="2.83936">
        <ele>302.5</ele>
        <time>2019-11-01T09:24:19Z</time>
      </trkpt>
      <trkpt lat="46.34876" lon="2.83944">
        <ele>302.5</ele>
        <time>2019-11-01T09:24:20Z</time>
      </trkpt>
      <trkpt lat="46.34876" lon="2.83951">
        <ele>302.5</ele>
        <time>2019-11-01T09:24:21Z</time>
      </trkpt>
      <trkpt lat="46.34875" lon="2.83957">
        <ele>302.5</ele>
        <time>2019-11-01T09:24:22Z</time>
      </trkpt>
      <trkpt lat="46.34875" lon="2.83963">
        <ele>302.5</ele>
        <time>2019-11-01T09:24:23Z</time>
      </trkpt>
      <trkpt lat="46.34874" lon="2.8397">
        <ele>302.5</ele>
        <time>2019-11-01T09:24:24Z</time>
      </trkpt>
      <trkpt lat="46.34874" lon="2.83977">
        <ele>302.5</ele>
        <time>2019-11-01T09:24:25Z</time>
      </trkpt>
      <trkpt lat="46.34873" lon="2.83983">
        <ele>302.5</ele>
        <time>2019-11-01T09:24:26Z</time>
      </trkpt>
      <trkpt lat="46.34873" lon="2.83989">
        <ele>302.6</ele>
        <time>2019-11-01T09:24:27Z</time>
      </trkpt>
      <trkpt lat="46.34872" lon="2.83996">
        <ele>302.6</ele>
        <time>2019-11-01T09:24:28Z</time>
      </trkpt>
      <trkpt lat="46.34872" lon="2.84004">
        <ele>302.6</ele>
        <time>2019-11-01T09:24:29Z</time>
      </trkpt>
      <trkpt lat="46.34871" lon="2.84011">
        <ele>302.6</ele>
        <time>2019-11-01T09:24:30Z</time>
      </trkpt>
      <trkpt lat="46.34871" lon="2.84017">
        <ele>302.6</ele>
        <time>2019-11-01T09:24:31Z</time>
      </trkpt>
      <trkpt lat="46.34871" lon="2.84023">
        <ele>302.6</ele>
        <time>2019-11-01T09:24:32Z</time>
      </trkpt>
      <trkpt lat="46.3487" lon="2.8403">
        <ele>302.6</ele>
        <time>2019-11-01T09:24:33Z</time>
      </trkpt>
      <trkpt lat="46.3487" lon="2.84038">
        <ele>302.6</ele>
        <time>2019-11-01T09:24:34Z</time>
      </trkpt>
      <trkpt lat="46.3487" lon="2.84043">
        <ele>302.7</ele>
        <time>2019-11-01T09:24:35Z</time>
      </trkpt>
      <trkpt lat="46.34869" lon="2.8405">
        <ele>302.7</ele>
        <time>2019-11-01T09:24:36Z</time>
      </trkpt>
      <trkpt lat="46.34868" lon="2.84057">
        <ele>302.8</ele>
        <time>2019-11-01T09:24:37Z</time>
      </trkpt>
      <trkpt lat="46.34867" lon="2.84063">
        <ele>302.8</ele>
        <time>2019-11-01T09:24:38Z</time>
      </trkpt>
      <trkpt lat="46.34865" lon="2.84068">
        <ele>302.8</ele>
        <time>2019-11-01T09:24:39Z</time>
      </trkpt>
      <trkpt lat="46.34861" lon="2.84073">
        <ele>302.9</ele>
        <time>2019-11-01T09:24:40Z</time>
      </trkpt>
      <trkpt lat="46.34858" lon="2.84077">
        <ele>302.9</ele>
        <time>2019-11-01T09:24:41Z</time>
      </trkpt>
      <trkpt lat="46.34854" lon="2.8408">
        <ele>303</ele>
        <time>2019-11-01T09:24:42Z</time>
      </trkpt>
      <trkpt lat="46.3485" lon="2.84082">
        <ele>303</ele>
        <time>2019-11-01T09:24:43Z</time>
      </trkpt>
      <trkpt lat="46.34845" lon="2.84084">
        <ele>303.1</ele>
        <time>2019-11-01T09:24:44Z</time>
      </trkpt>
      <trkpt lat="46.34841" lon="2.84085">
        <ele>303.1</ele>
        <time>2019-11-01T09:24:45Z</time>
      </trkpt>
      <trkpt lat="46.34836" lon="2.84086">
        <ele>303.2</ele>
        <time>2019-11-01T09:24:46Z</time>
      </trkpt>
      <trkpt lat="46.34831" lon="2.84087">
        <ele>303.2</ele>
        <time>2019-11-01T09:24:47Z</time>
      </trkpt>
      <trkpt lat="46.34827" lon="2.84087">
        <ele>303.3</ele>
        <time>2019-11-01T09:24:48Z</time>
      </trkpt>
      <trkpt lat="46.34822" lon="2.84088">
        <ele>303.4</ele>
        <time>2019-11-01T09:24:49Z</time>
      </trkpt>
      <trkpt lat="46.34816" lon="2.8409">
        <ele>303.4</ele>
        <time>2019-11-01T09:24:50Z</time>
      </trkpt>
      <trkpt lat="46.34813" lon="2.84091">
        <ele>303.5</ele>
        <time>2019-11-01T09:24:51Z</time>
      </trkpt>
      <trkpt lat="46.34808" lon="2.84092">
        <ele>303.6</ele>
        <time>2019-11-01T09:24:52Z</time>
      </trkpt>
      <trkpt lat="46.34803" lon="2.84093">
        <ele>303.7</ele>
        <time>2019-11-01T09:24:53Z</time>
      </trkpt>
      <trkpt lat="46.34798" lon="2.84095">
        <ele>303.7</ele>
        <time>2019-11-01T09:24:54Z</time>
      </trkpt>
      <trkpt lat="46.34793" lon="2.84097">
        <ele>303.8</ele>
        <time>2019-11-01T09:24:55Z</time>
      </trkpt>
      <trkpt lat="46.34789" lon="2.84098">
        <ele>303.9</ele>
        <time>2019-11-01T09:24:56Z</time>
      </trkpt>
      <trkpt lat="46.34785" lon="2.841">
        <ele>304</ele>
        <time>2019-11-01T09:25:15Z</time>
      </trkpt>
      <trkpt lat="46.34779" lon="2.84103">
        <ele>304.1</ele>
        <time>2019-11-01T09:25:16Z</time>
      </trkpt>
      <trkpt lat="46.34775" lon="2.84105">
        <ele>304.1</ele>
        <time>2019-11-01T09:25:17Z</time>
      </trkpt>
      <trkpt lat="46.34771" lon="2.84107">
        <ele>304.2</ele>
        <time>2019-11-01T09:25:18Z</time>
      </trkpt>
      <trkpt lat="46.34767" lon="2.84109">
        <ele>304.2</ele>
        <time>2019-11-01T09:25:19Z</time>
      </trkpt>
      <trkpt lat="46.34762" lon="2.84112">
        <ele>304.3</ele>
        <time>2019-11-01T09:25:20Z</time>
      </trkpt>
      <trkpt lat="46.34758" lon="2.84114">
        <ele>304.3</ele>
        <time>2019-11-01T09:25:21Z</time>
      </trkpt>
      <trkpt lat="46.34753" lon="2.84117">
        <ele>304.4</ele>
        <time>2019-11-01T09:25:22Z</time>
      </trkpt>
      <trkpt lat="46.3475" lon="2.84119">
        <ele>304.4</ele>
        <time>2019-11-01T09:25:23Z</time>
      </trkpt>
      <trkpt lat="46.34746" lon="2.84121">
        <ele>304.4</ele>
        <time>2019-11-01T09:25:24Z</time>
      </trkpt>
      <trkpt lat="46.34743" lon="2.84124">
        <ele>304.5</ele>
        <time>2019-11-01T09:25:25Z</time>
      </trkpt>
      <trkpt lat="46.34741" lon="2.84127">
        <ele>304.5</ele>
        <time>2019-11-01T09:25:26Z</time>
      </trkpt>
      <trkpt lat="46.34739" lon="2.8413">
        <ele>304.6</ele>
        <time>2019-11-01T09:25:27Z</time>
      </trkpt>
      <trkpt lat="46.34742" lon="2.8413">
        <ele>304.7</ele>
        <time>2019-11-01T09:25:28Z</time>
      </trkpt>
      <trkpt lat="46.34742" lon="2.84131">
        <ele>304.7</ele>
        <time>2019-11-01T09:25:29Z</time>
      </trkpt>
      <trkpt lat="46.34742" lon="2.84134">
        <ele>304.8</ele>
        <time>2019-11-01T09:25:30Z</time>
      </trkpt>
      <trkpt lat="46.34743" lon="2.84137">
        <ele>304.9</ele>
        <time>2019-11-01T09:25:31Z</time>
      </trkpt>
      <trkpt lat="46.34743" lon="2.84142">
        <ele>305</ele>
        <time>2019-11-01T09:25:32Z</time>
      </trkpt>
      <trkpt lat="46.34744" lon="2.84145">
        <ele>305.1</ele>
        <time>2019-11-01T09:25:33Z</time>
      </trkpt>
      <trkpt lat="46.34745" lon="2.84148">
        <ele>305.1</ele>
        <time>2019-11-01T09:25:34Z</time>
      </trkpt>
      <trkpt lat="46.34745" lon="2.84153">
        <ele>305.2</ele>
        <time>2019-11-01T09:25:35Z</time>
      </trkpt>
      <trkpt lat="46.34745" lon="2.84159">
        <ele>305.2</ele>
        <time>2019-11-01T09:25:36Z</time>
      </trkpt>
      <trkpt lat="46.34745" lon="2.84165">
        <ele>305.3</ele>
        <time>2019-11-01T09:25:37Z</time>
      </trkpt>
      <trkpt lat="46.34746" lon="2.84171">
        <ele>305.3</ele>
        <time>2019-11-01T09:25:38Z</time>
      </trkpt>
      <trkpt lat="46.34746" lon="2.84176">
        <ele>305.4</ele>
        <time>2019-11-01T09:25:39Z</time>
      </trkpt>
      <trkpt lat="46.34746" lon="2.8418">
        <ele>305.4</ele>
        <time>2019-11-01T09:25:40Z</time>
      </trkpt>
      <trkpt lat="46.34747" lon="2.84186">
        <ele>305.4</ele>
        <time>2019-11-01T09:25:41Z</time>
      </trkpt>
      <trkpt lat="46.34747" lon="2.84193">
        <ele>305.5</ele>
        <time>2019-11-01T09:25:42Z</time>
      </trkpt>
      <trkpt lat="46.34747" lon="2.84197">
        <ele>305.5</ele>
        <time>2019-11-01T09:25:43Z</time>
      </trkpt>
      <trkpt lat="46.34747" lon="2.84205">
        <ele>305.5</ele>
        <time>2019-11-01T09:25:44Z</time>
      </trkpt>
      <trkpt lat="46.34747" lon="2.84211">
        <ele>305.5</ele>
        <time>2019-11-01T09:25:45Z</time>
      </trkpt>
      <trkpt lat="46.34747" lon="2.84216">
        <ele>305.5</ele>
        <time>2019-11-01T09:25:46Z</time>
      </trkpt>
      <trkpt lat="46.34748" lon="2.84222">
        <ele>305.5</ele>
        <time>2019-11-01T09:25:47Z</time>
      </trkpt>
      <trkpt lat="46.34748" lon="2.8423">
        <ele>305.5</ele>
        <time>2019-11-01T09:25:48Z</time>
      </trkpt>
      <trkpt lat="46.34748" lon="2.84237">
        <ele>305.6</ele>
        <time>2019-11-01T09:25:49Z</time>
      </trkpt>
      <trkpt lat="46.34748" lon="2.84244">
        <ele>305.6</ele>
        <time>2019-11-01T09:25:50Z</time>
      </trkpt>
      <trkpt lat="46.34748" lon="2.8425">
        <ele>305.6</ele>
        <time>2019-11-01T09:25:51Z</time>
      </trkpt>
      <trkpt lat="46.34749" lon="2.84257">
        <ele>305.6</ele>
        <time>2019-11-01T09:25:52Z</time>
      </trkpt>
      <trkpt lat="46.34749" lon="2.84264">
        <ele>305.6</ele>
        <time>2019-11-01T09:25:53Z</time>
      </trkpt>
      <trkpt lat="46.34749" lon="2.8427">
        <ele>305.6</ele>
        <time>2019-11-01T09:25:54Z</time>
      </trkpt>
      <trkpt lat="46.34749" lon="2.84277">
        <ele>305.6</ele>
        <time>2019-11-01T09:25:55Z</time>
      </trkpt>
      <trkpt lat="46.34749" lon="2.84284">
        <ele>305.6</ele>
        <time>2019-11-01T09:25:56Z</time>
      </trkpt>
      <trkpt lat="46.3475" lon="2.84291">
        <ele>305.6</ele>
        <time>2019-11-01T09:25:57Z</time>
      </trkpt>
      <trkpt lat="46.3475" lon="2.84298">
        <ele>305.6</ele>
        <time>2019-11-01T09:25:58Z</time>
      </trkpt>
      <trkpt lat="46.3475" lon="2.84304">
        <ele>305.7</ele>
        <time>2019-11-01T09:25:59Z</time>
      </trkpt>
      <trkpt lat="46.3475" lon="2.84311">
        <ele>305.7</ele>
        <time>2019-11-01T09:26:00Z</time>
      </trkpt>
      <trkpt lat="46.3475" lon="2.84318">
        <ele>305.7</ele>
        <time>2019-11-01T09:26:01Z</time>
      </trkpt>
      <trkpt lat="46.34751" lon="2.84325">
        <ele>305.7</ele>
        <time>2019-11-01T09:26:02Z</time>
      </trkpt>
      <trkpt lat="46.34751" lon="2.84332">
        <ele>305.8</ele>
        <time>2019-11-01T09:26:03Z</time>
      </trkpt>
      <trkpt lat="46.34751" lon="2.8434">
        <ele>305.8</ele>
        <time>2019-11-01T09:26:04Z</time>
      </trkpt>
      <trkpt lat="46.34752" lon="2.84347">
        <ele>305.9</ele>
        <time>2019-11-01T09:26:05Z</time>
      </trkpt>
      <trkpt lat="46.34751" lon="2.84353">
        <ele>305.9</ele>
        <time>2019-11-01T09:26:06Z</time>
      </trkpt>
      <trkpt lat="46.34751" lon="2.8436">
        <ele>306</ele>
        <time>2019-11-01T09:26:07Z</time>
      </trkpt>
      <trkpt lat="46.34751" lon="2.84368">
        <ele>306</ele>
        <time>2019-11-01T09:26:08Z</time>
      </trkpt>
      <trkpt lat="46.34751" lon="2.84375">
        <ele>306.1</ele>
        <time>2019-11-01T09:26:09Z</time>
      </trkpt>
      <trkpt lat="46.34752" lon="2.84382">
        <ele>306.2</ele>
        <time>2019-11-01T09:26:10Z</time>
      </trkpt>
      <trkpt lat="46.34752" lon="2.8439">
        <ele>306.2</ele>
        <time>2019-11-01T09:26:11Z</time>
      </trkpt>
      <trkpt lat="46.34752" lon="2.84398">
        <ele>306.3</ele>
        <time>2019-11-01T09:26:12Z</time>
      </trkpt>
      <trkpt lat="46.34752" lon="2.84406">
        <ele>306.3</ele>
        <time>2019-11-01T09:26:13Z</time>
      </trkpt>
      <trkpt lat="46.34753" lon="2.84414">
        <ele>306.4</ele>
        <time>2019-11-01T09:26:14Z</time>
      </trkpt>
      <trkpt lat="46.34753" lon="2.84422">
        <ele>306.4</ele>
        <time>2019-11-01T09:26:15Z</time>
      </trkpt>
      <trkpt lat="46.34753" lon="2.84431">
        <ele>306.4</ele>
        <time>2019-11-01T09:26:16Z</time>
      </trkpt>
      <trkpt lat="46.34753" lon="2.84439">
        <ele>306.4</ele>
        <time>2019-11-01T09:26:17Z</time>
      </trkpt>
      <trkpt lat="46.34754" lon="2.84447">
        <ele>306.3</ele>
        <time>2019-11-01T09:26:18Z</time>
      </trkpt>
      <trkpt lat="46.34754" lon="2.84455">
        <ele>306.3</ele>
        <time>2019-11-01T09:26:19Z</time>
      </trkpt>
      <trkpt lat="46.34754" lon="2.84463">
        <ele>306.2</ele>
        <time>2019-11-01T09:26:20Z</time>
      </trkpt>
      <trkpt lat="46.34755" lon="2.84471">
        <ele>306.1</ele>
        <time>2019-11-01T09:26:21Z</time>
      </trkpt>
      <trkpt lat="46.34755" lon="2.84479">
        <ele>306</ele>
        <time>2019-11-01T09:26:22Z</time>
      </trkpt>
      <trkpt lat="46.34756" lon="2.84487">
        <ele>305.8</ele>
        <time>2019-11-01T09:26:23Z</time>
      </trkpt>
      <trkpt lat="46.34757" lon="2.84494">
        <ele>305.7</ele>
        <time>2019-11-01T09:26:24Z</time>
      </trkpt>
      <trkpt lat="46.34757" lon="2.84502">
        <ele>305.6</ele>
        <time>2019-11-01T09:26:25Z</time>
      </trkpt>
      <trkpt lat="46.34757" lon="2.84512">
        <ele>305.5</ele>
        <time>2019-11-01T09:26:26Z</time>
      </trkpt>
      <trkpt lat="46.34758" lon="2.84521">
        <ele>305.3</ele>
        <time>2019-11-01T09:26:27Z</time>
      </trkpt>
      <trkpt lat="46.34758" lon="2.84528">
        <ele>305.2</ele>
        <time>2019-11-01T09:26:28Z</time>
      </trkpt>
      <trkpt lat="46.34758" lon="2.84537">
        <ele>305</ele>
        <time>2019-11-01T09:26:29Z</time>
      </trkpt>
      <trkpt lat="46.34759" lon="2.84548">
        <ele>304.8</ele>
        <time>2019-11-01T09:26:30Z</time>
      </trkpt>
      <trkpt lat="46.34759" lon="2.84557">
        <ele>304.6</ele>
        <time>2019-11-01T09:26:31Z</time>
      </trkpt>
      <trkpt lat="46.34759" lon="2.84567">
        <ele>304.4</ele>
        <time>2019-11-01T09:26:32Z</time>
      </trkpt>
      <trkpt lat="46.34759" lon="2.84574">
        <ele>304.2</ele>
        <time>2019-11-01T09:26:33Z</time>
      </trkpt>
      <trkpt lat="46.34759" lon="2.84584">
        <ele>303.8</ele>
        <time>2019-11-01T09:26:34Z</time>
      </trkpt>
      <trkpt lat="46.34759" lon="2.84594">
        <ele>303.4</ele>
        <time>2019-11-01T09:26:35Z</time>
      </trkpt>
      <trkpt lat="46.34759" lon="2.84607">
        <ele>302.7</ele>
        <time>2019-11-01T09:26:36Z</time>
      </trkpt>
      <trkpt lat="46.3476" lon="2.84616">
        <ele>302.1</ele>
        <time>2019-11-01T09:26:37Z</time>
      </trkpt>
      <trkpt lat="46.34761" lon="2.84628">
        <ele>301.4</ele>
        <time>2019-11-01T09:26:38Z</time>
      </trkpt>
      <trkpt lat="46.34762" lon="2.84641">
        <ele>300.6</ele>
        <time>2019-11-01T09:26:39Z</time>
      </trkpt>
      <trkpt lat="46.34762" lon="2.84655">
        <ele>299.6</ele>
        <time>2019-11-01T09:26:40Z</time>
      </trkpt>
      <trkpt lat="46.34761" lon="2.84668">
        <ele>298.8</ele>
        <time>2019-11-01T09:26:41Z</time>
      </trkpt>
      <trkpt lat="46.34759" lon="2.84682">
        <ele>298</ele>
        <time>2019-11-01T09:26:42Z</time>
      </trkpt>
      <trkpt lat="46.34756" lon="2.84696">
        <ele>297.1</ele>
        <time>2019-11-01T09:26:43Z</time>
      </trkpt>
      <trkpt lat="46.34754" lon="2.84711">
        <ele>296.2</ele>
        <time>2019-11-01T09:26:44Z</time>
      </trkpt>
      <trkpt lat="46.34752" lon="2.84726">
        <ele>295.1</ele>
        <time>2019-11-01T09:26:45Z</time>
      </trkpt>
      <trkpt lat="46.3475" lon="2.84741">
        <ele>294</ele>
        <time>2019-11-01T09:26:46Z</time>
      </trkpt>
      <trkpt lat="46.34748" lon="2.84755">
        <ele>293.1</ele>
        <time>2019-11-01T09:26:47Z</time>
      </trkpt>
      <trkpt lat="46.34746" lon="2.84768">
        <ele>292</ele>
        <time>2019-11-01T09:26:48Z</time>
      </trkpt>
      <trkpt lat="46.34743" lon="2.84779">
        <ele>290.9</ele>
        <time>2019-11-01T09:26:49Z</time>
      </trkpt>
      <trkpt lat="46.34738" lon="2.84788">
        <ele>291.2</ele>
        <time>2019-11-01T09:26:50Z</time>
      </trkpt>
      <trkpt lat="46.34733" lon="2.84795">
        <ele>291.4</ele>
        <time>2019-11-01T09:26:51Z</time>
      </trkpt>
      <trkpt lat="46.34726" lon="2.84799">
        <ele>291.7</ele>
        <time>2019-11-01T09:26:52Z</time>
      </trkpt>
      <trkpt lat="46.34719" lon="2.84801">
        <ele>291.9</ele>
        <time>2019-11-01T09:26:53Z</time>
      </trkpt>
      <trkpt lat="46.34713" lon="2.84803">
        <ele>292</ele>
        <time>2019-11-01T09:26:54Z</time>
      </trkpt>
      <trkpt lat="46.34707" lon="2.84805">
        <ele>292.2</ele>
        <time>2019-11-01T09:26:55Z</time>
      </trkpt>
      <trkpt lat="46.34701" lon="2.84808">
        <ele>292.4</ele>
        <time>2019-11-01T09:26:56Z</time>
      </trkpt>
      <trkpt lat="46.34695" lon="2.84811">
        <ele>292.5</ele>
        <time>2019-11-01T09:26:57Z</time>
      </trkpt>
      <trkpt lat="46.34689" lon="2.84813">
        <ele>292.7</ele>
        <time>2019-11-01T09:26:58Z</time>
      </trkpt>
      <trkpt lat="46.34684" lon="2.84815">
        <ele>292.8</ele>
        <time>2019-11-01T09:26:59Z</time>
      </trkpt>
      <trkpt lat="46.34679" lon="2.84818">
        <ele>292.9</ele>
        <time>2019-11-01T09:27:00Z</time>
      </trkpt>
      <trkpt lat="46.34674" lon="2.84821">
        <ele>293</ele>
        <time>2019-11-01T09:27:01Z</time>
      </trkpt>
      <trkpt lat="46.34668" lon="2.84823">
        <ele>293.2</ele>
        <time>2019-11-01T09:27:02Z</time>
      </trkpt>
      <trkpt lat="46.34663" lon="2.84826">
        <ele>293.3</ele>
        <time>2019-11-01T09:27:03Z</time>
      </trkpt>
      <trkpt lat="46.34657" lon="2.84829">
        <ele>293.4</ele>
        <time>2019-11-01T09:27:04Z</time>
      </trkpt>
      <trkpt lat="46.34652" lon="2.84832">
        <ele>293.5</ele>
        <time>2019-11-01T09:27:05Z</time>
      </trkpt>
      <trkpt lat="46.34647" lon="2.84834">
        <ele>293.5</ele>
        <time>2019-11-01T09:27:06Z</time>
      </trkpt>
      <trkpt lat="46.34639" lon="2.84838">
        <ele>293.6</ele>
        <time>2019-11-01T09:27:07Z</time>
      </trkpt>
      <trkpt lat="46.34637" lon="2.84839">
        <ele>293.7</ele>
        <time>2019-11-01T09:27:08Z</time>
      </trkpt>
      <trkpt lat="46.34632" lon="2.84841">
        <ele>293.8</ele>
        <time>2019-11-01T09:27:09Z</time>
      </trkpt>
      <trkpt lat="46.34627" lon="2.84843">
        <ele>293.8</ele>
        <time>2019-11-01T09:27:10Z</time>
      </trkpt>
      <trkpt lat="46.34622" lon="2.84845">
        <ele>293.9</ele>
        <time>2019-11-01T09:27:11Z</time>
      </trkpt>
      <trkpt lat="46.34618" lon="2.84847">
        <ele>293.9</ele>
        <time>2019-11-01T09:27:12Z</time>
      </trkpt>
      <trkpt lat="46.34612" lon="2.84849">
        <ele>294</ele>
        <time>2019-11-01T09:27:13Z</time>
      </trkpt>
      <trkpt lat="46.34608" lon="2.84851">
        <ele>294</ele>
        <time>2019-11-01T09:27:14Z</time>
      </trkpt>
      <trkpt lat="46.34604" lon="2.84853">
        <ele>294</ele>
        <time>2019-11-01T09:27:15Z</time>
      </trkpt>
      <trkpt lat="46.34598" lon="2.84855">
        <ele>294.1</ele>
        <time>2019-11-01T09:27:16Z</time>
      </trkpt>
      <trkpt lat="46.34593" lon="2.84857">
        <ele>294.2</ele>
        <time>2019-11-01T09:27:17Z</time>
      </trkpt>
      <trkpt lat="46.34588" lon="2.84859">
        <ele>294.3</ele>
        <time>2019-11-01T09:27:18Z</time>
      </trkpt>
      <trkpt lat="46.34583" lon="2.84861">
        <ele>294.3</ele>
        <time>2019-11-01T09:27:19Z</time>
      </trkpt>
      <trkpt lat="46.3458" lon="2.84862">
        <ele>294.4</ele>
        <time>2019-11-01T09:27:20Z</time>
      </trkpt>
      <trkpt lat="46.34574" lon="2.84865">
        <ele>294.5</ele>
        <time>2019-11-01T09:27:21Z</time>
      </trkpt>
      <trkpt lat="46.34569" lon="2.84868">
        <ele>294.5</ele>
        <time>2019-11-01T09:27:22Z</time>
      </trkpt>
      <trkpt lat="46.34564" lon="2.8487">
        <ele>294.6</ele>
        <time>2019-11-01T09:27:23Z</time>
      </trkpt>
      <trkpt lat="46.3456" lon="2.84872">
        <ele>294.6</ele>
        <time>2019-11-01T09:27:24Z</time>
      </trkpt>
      <trkpt lat="46.34555" lon="2.84875">
        <ele>294.7</ele>
        <time>2019-11-01T09:27:25Z</time>
      </trkpt>
      <trkpt lat="46.3455" lon="2.84876">
        <ele>294.7</ele>
        <time>2019-11-01T09:27:26Z</time>
      </trkpt>
      <trkpt lat="46.34545" lon="2.84878">
        <ele>294.7</ele>
        <time>2019-11-01T09:27:27Z</time>
      </trkpt>
      <trkpt lat="46.3454" lon="2.84881">
        <ele>294.8</ele>
        <time>2019-11-01T09:27:28Z</time>
      </trkpt>
      <trkpt lat="46.34536" lon="2.84882">
        <ele>294.8</ele>
        <time>2019-11-01T09:27:29Z</time>
      </trkpt>
      <trkpt lat="46.34531" lon="2.84885">
        <ele>294.9</ele>
        <time>2019-11-01T09:27:30Z</time>
      </trkpt>
      <trkpt lat="46.34527" lon="2.84887">
        <ele>294.9</ele>
        <time>2019-11-01T09:27:31Z</time>
      </trkpt>
      <trkpt lat="46.34521" lon="2.8489">
        <ele>294.9</ele>
        <time>2019-11-01T09:27:32Z</time>
      </trkpt>
      <trkpt lat="46.34517" lon="2.84892">
        <ele>295</ele>
        <time>2019-11-01T09:27:33Z</time>
      </trkpt>
      <trkpt lat="46.34512" lon="2.84894">
        <ele>295</ele>
        <time>2019-11-01T09:27:34Z</time>
      </trkpt>
      <trkpt lat="46.34507" lon="2.84896">
        <ele>295.1</ele>
        <time>2019-11-01T09:27:35Z</time>
      </trkpt>
      <trkpt lat="46.34502" lon="2.84899">
        <ele>295.2</ele>
        <time>2019-11-01T09:27:36Z</time>
      </trkpt>
      <trkpt lat="46.34497" lon="2.84901">
        <ele>295.2</ele>
        <time>2019-11-01T09:27:37Z</time>
      </trkpt>
      <trkpt lat="46.34492" lon="2.84902">
        <ele>295.3</ele>
        <time>2019-11-01T09:27:38Z</time>
      </trkpt>
      <trkpt lat="46.34487" lon="2.84904">
        <ele>295.3</ele>
        <time>2019-11-01T09:27:39Z</time>
      </trkpt>
      <trkpt lat="46.34481" lon="2.84906">
        <ele>295.4</ele>
        <time>2019-11-01T09:27:40Z</time>
      </trkpt>
      <trkpt lat="46.34476" lon="2.84908">
        <ele>295.4</ele>
        <time>2019-11-01T09:27:41Z</time>
      </trkpt>
      <trkpt lat="46.34471" lon="2.8491">
        <ele>295.5</ele>
        <time>2019-11-01T09:27:42Z</time>
      </trkpt>
      <trkpt lat="46.34467" lon="2.84912">
        <ele>295.5</ele>
        <time>2019-11-01T09:27:43Z</time>
      </trkpt>
      <trkpt lat="46.34462" lon="2.84914">
        <ele>295.6</ele>
        <time>2019-11-01T09:27:44Z</time>
      </trkpt>
      <trkpt lat="46.34456" lon="2.84916">
        <ele>295.7</ele>
        <time>2019-11-01T09:27:45Z</time>
      </trkpt>
      <trkpt lat="46.3445" lon="2.84918">
        <ele>295.7</ele>
        <time>2019-11-01T09:27:46Z</time>
      </trkpt>
      <trkpt lat="46.34445" lon="2.8492">
        <ele>295.7</ele>
        <time>2019-11-01T09:27:47Z</time>
      </trkpt>
      <trkpt lat="46.34441" lon="2.84921">
        <ele>295.8</ele>
        <time>2019-11-01T09:27:48Z</time>
      </trkpt>
      <trkpt lat="46.34436" lon="2.84922">
        <ele>295.8</ele>
        <time>2019-11-01T09:27:49Z</time>
      </trkpt>
      <trkpt lat="46.34429" lon="2.84924">
        <ele>295.8</ele>
        <time>2019-11-01T09:27:50Z</time>
      </trkpt>
      <trkpt lat="46.34423" lon="2.84925">
        <ele>295.8</ele>
        <time>2019-11-01T09:27:51Z</time>
      </trkpt>
      <trkpt lat="46.34419" lon="2.84926">
        <ele>295.7</ele>
        <time>2019-11-01T09:27:52Z</time>
      </trkpt>
      <trkpt lat="46.34413" lon="2.84926">
        <ele>295.7</ele>
        <time>2019-11-01T09:27:53Z</time>
      </trkpt>
      <trkpt lat="46.34407" lon="2.84928">
        <ele>295.7</ele>
        <time>2019-11-01T09:27:54Z</time>
      </trkpt>
      <trkpt lat="46.34402" lon="2.84929">
        <ele>295.7</ele>
        <time>2019-11-01T09:27:55Z</time>
      </trkpt>
      <trkpt lat="46.34395" lon="2.8493">
        <ele>295.7</ele>
        <time>2019-11-01T09:27:56Z</time>
      </trkpt>
      <trkpt lat="46.34391" lon="2.8493">
        <ele>295.7</ele>
        <time>2019-11-01T09:27:57Z</time>
      </trkpt>
      <trkpt lat="46.34386" lon="2.8493">
        <ele>295.6</ele>
        <time>2019-11-01T09:27:58Z</time>
      </trkpt>
      <trkpt lat="46.34379" lon="2.84931">
        <ele>295.6</ele>
        <time>2019-11-01T09:27:59Z</time>
      </trkpt>
      <trkpt lat="46.34373" lon="2.84931">
        <ele>295.5</ele>
        <time>2019-11-01T09:28:00Z</time>
      </trkpt>
      <trkpt lat="46.34367" lon="2.84932">
        <ele>295.5</ele>
        <time>2019-11-01T09:28:01Z</time>
      </trkpt>
      <trkpt lat="46.34363" lon="2.84932">
        <ele>295.4</ele>
        <time>2019-11-01T09:28:02Z</time>
      </trkpt>
      <trkpt lat="46.34357" lon="2.84932">
        <ele>295.4</ele>
        <time>2019-11-01T09:28:03Z</time>
      </trkpt>
      <trkpt lat="46.34351" lon="2.84933">
        <ele>295.2</ele>
        <time>2019-11-01T09:28:04Z</time>
      </trkpt>
      <trkpt lat="46.34345" lon="2.84932">
        <ele>295.2</ele>
        <time>2019-11-01T09:28:05Z</time>
      </trkpt>
      <trkpt lat="46.34339" lon="2.84932">
        <ele>295.1</ele>
        <time>2019-11-01T09:28:06Z</time>
      </trkpt>
      <trkpt lat="46.34335" lon="2.84931">
        <ele>295</ele>
        <time>2019-11-01T09:28:07Z</time>
      </trkpt>
      <trkpt lat="46.34329" lon="2.84931">
        <ele>295</ele>
        <time>2019-11-01T09:28:08Z</time>
      </trkpt>
      <trkpt lat="46.34322" lon="2.84931">
        <ele>294.9</ele>
        <time>2019-11-01T09:28:09Z</time>
      </trkpt>
      <trkpt lat="46.34317" lon="2.84931">
        <ele>294.9</ele>
        <time>2019-11-01T09:28:10Z</time>
      </trkpt>
      <trkpt lat="46.3431" lon="2.84931">
        <ele>294.8</ele>
        <time>2019-11-01T09:28:11Z</time>
      </trkpt>
      <trkpt lat="46.34304" lon="2.8493">
        <ele>294.8</ele>
        <time>2019-11-01T09:28:12Z</time>
      </trkpt>
      <trkpt lat="46.34298" lon="2.8493">
        <ele>294.8</ele>
        <time>2019-11-01T09:28:13Z</time>
      </trkpt>
      <trkpt lat="46.34292" lon="2.84929">
        <ele>294.8</ele>
        <time>2019-11-01T09:28:14Z</time>
      </trkpt>
      <trkpt lat="46.34286" lon="2.84928">
        <ele>294.7</ele>
        <time>2019-11-01T09:28:15Z</time>
      </trkpt>
      <trkpt lat="46.34281" lon="2.84928">
        <ele>294.7</ele>
        <time>2019-11-01T09:28:16Z</time>
      </trkpt>
      <trkpt lat="46.34276" lon="2.84927">
        <ele>294.7</ele>
        <time>2019-11-01T09:28:17Z</time>
      </trkpt>
      <trkpt lat="46.34268" lon="2.84927">
        <ele>294.7</ele>
        <time>2019-11-01T09:28:18Z</time>
      </trkpt>
      <trkpt lat="46.34263" lon="2.84927">
        <ele>294.6</ele>
        <time>2019-11-01T09:28:19Z</time>
      </trkpt>
      <trkpt lat="46.34257" lon="2.84926">
        <ele>294.6</ele>
        <time>2019-11-01T09:28:20Z</time>
      </trkpt>
      <trkpt lat="46.34251" lon="2.84926">
        <ele>294.6</ele>
        <time>2019-11-01T09:28:21Z</time>
      </trkpt>
      <trkpt lat="46.34245" lon="2.84925">
        <ele>294.6</ele>
        <time>2019-11-01T09:28:22Z</time>
      </trkpt>
      <trkpt lat="46.34239" lon="2.84925">
        <ele>294.5</ele>
        <time>2019-11-01T09:28:23Z</time>
      </trkpt>
      <trkpt lat="46.34233" lon="2.84925">
        <ele>294.5</ele>
        <time>2019-11-01T09:28:24Z</time>
      </trkpt>
      <trkpt lat="46.34228" lon="2.84924">
        <ele>294.5</ele>
        <time>2019-11-01T09:28:25Z</time>
      </trkpt>
      <trkpt lat="46.34221" lon="2.84924">
        <ele>294.5</ele>
        <time>2019-11-01T09:28:26Z</time>
      </trkpt>
      <trkpt lat="46.34215" lon="2.84924">
        <ele>294.5</ele>
        <time>2019-11-01T09:28:27Z</time>
      </trkpt>
      <trkpt lat="46.34209" lon="2.84923">
        <ele>294.5</ele>
        <time>2019-11-01T09:28:28Z</time>
      </trkpt>
      <trkpt lat="46.34203" lon="2.84922">
        <ele>294.5</ele>
        <time>2019-11-01T09:28:29Z</time>
      </trkpt>
      <trkpt lat="46.34198" lon="2.84922">
        <ele>294.5</ele>
        <time>2019-11-01T09:28:30Z</time>
      </trkpt>
      <trkpt lat="46.34192" lon="2.84921">
        <ele>294.5</ele>
        <time>2019-11-01T09:28:31Z</time>
      </trkpt>
      <trkpt lat="46.34184" lon="2.8492">
        <ele>294.6</ele>
        <time>2019-11-01T09:28:32Z</time>
      </trkpt>
      <trkpt lat="46.34178" lon="2.8492">
        <ele>294.6</ele>
        <time>2019-11-01T09:28:33Z</time>
      </trkpt>
      <trkpt lat="46.34173" lon="2.84919">
        <ele>294.6</ele>
        <time>2019-11-01T09:28:34Z</time>
      </trkpt>
      <trkpt lat="46.34166" lon="2.84918">
        <ele>294.6</ele>
        <time>2019-11-01T09:28:35Z</time>
      </trkpt>
      <trkpt lat="46.3416" lon="2.84918">
        <ele>294.6</ele>
        <time>2019-11-01T09:28:36Z</time>
      </trkpt>
      <trkpt lat="46.34152" lon="2.84917">
        <ele>294.6</ele>
        <time>2019-11-01T09:28:37Z</time>
      </trkpt>
      <trkpt lat="46.34146" lon="2.84916">
        <ele>294.6</ele>
        <time>2019-11-01T09:28:38Z</time>
      </trkpt>
      <trkpt lat="46.34141" lon="2.84916">
        <ele>294.6</ele>
        <time>2019-11-01T09:28:39Z</time>
      </trkpt>
      <trkpt lat="46.34135" lon="2.84916">
        <ele>294.5</ele>
        <time>2019-11-01T09:28:40Z</time>
      </trkpt>
      <trkpt lat="46.34129" lon="2.84915">
        <ele>294.4</ele>
        <time>2019-11-01T09:28:41Z</time>
      </trkpt>
      <trkpt lat="46.34123" lon="2.84914">
        <ele>294.4</ele>
        <time>2019-11-01T09:28:42Z</time>
      </trkpt>
      <trkpt lat="46.34118" lon="2.84913">
        <ele>294.3</ele>
        <time>2019-11-01T09:28:43Z</time>
      </trkpt>
      <trkpt lat="46.34113" lon="2.84913">
        <ele>294.2</ele>
        <time>2019-11-01T09:28:44Z</time>
      </trkpt>
      <trkpt lat="46.34108" lon="2.84913">
        <ele>294.1</ele>
        <time>2019-11-01T09:28:45Z</time>
      </trkpt>
      <trkpt lat="46.34103" lon="2.84913">
        <ele>293.9</ele>
        <time>2019-11-01T09:28:46Z</time>
      </trkpt>
      <trkpt lat="46.34098" lon="2.84912">
        <ele>293.8</ele>
        <time>2019-11-01T09:28:47Z</time>
      </trkpt>
      <trkpt lat="46.34093" lon="2.84912">
        <ele>293.4</ele>
        <time>2019-11-01T09:28:48Z</time>
      </trkpt>
      <trkpt lat="46.3409" lon="2.84912">
        <ele>293.1</ele>
        <time>2019-11-01T09:28:49Z</time>
      </trkpt>
      <trkpt lat="46.34086" lon="2.84912">
        <ele>292.7</ele>
        <time>2019-11-01T09:28:50Z</time>
      </trkpt>
      <trkpt lat="46.34083" lon="2.84913">
        <ele>290.9</ele>
        <time>2019-11-01T09:28:51Z</time>
      </trkpt>
      <trkpt lat="46.3408" lon="2.84913">
        <ele>290.9</ele>
        <time>2019-11-01T09:28:52Z</time>
      </trkpt>
      <trkpt lat="46.34077" lon="2.84913">
        <ele>290.9</ele>
        <time>2019-11-01T09:28:53Z</time>
      </trkpt>
      <trkpt lat="46.34074" lon="2.84913">
        <ele>291</ele>
        <time>2019-11-01T09:28:54Z</time>
      </trkpt>
      <trkpt lat="46.34071" lon="2.84912">
        <ele>291</ele>
        <time>2019-11-01T09:28:55Z</time>
      </trkpt>
      <trkpt lat="46.34067" lon="2.84911">
        <ele>291</ele>
        <time>2019-11-01T09:28:56Z</time>
      </trkpt>
      <trkpt lat="46.34061" lon="2.84911">
        <ele>290.9</ele>
        <time>2019-11-01T09:28:57Z</time>
      </trkpt>
      <trkpt lat="46.34058" lon="2.8491">
        <ele>290.9</ele>
        <time>2019-11-01T09:28:58Z</time>
      </trkpt>
      <trkpt lat="46.34053" lon="2.84909">
        <ele>291</ele>
        <time>2019-11-01T09:28:59Z</time>
      </trkpt>
      <trkpt lat="46.34047" lon="2.84908">
        <ele>291.2</ele>
        <time>2019-11-01T09:29:00Z</time>
      </trkpt>
      <trkpt lat="46.34042" lon="2.84907">
        <ele>291.4</ele>
        <time>2019-11-01T09:29:01Z</time>
      </trkpt>
      <trkpt lat="46.34037" lon="2.84907">
        <ele>291.8</ele>
        <time>2019-11-01T09:29:02Z</time>
      </trkpt>
      <trkpt lat="46.34031" lon="2.84906">
        <ele>291.9</ele>
        <time>2019-11-01T09:29:03Z</time>
      </trkpt>
      <trkpt lat="46.34026" lon="2.84905">
        <ele>292.2</ele>
        <time>2019-11-01T09:29:04Z</time>
      </trkpt>
      <trkpt lat="46.3402" lon="2.84905">
        <ele>292.7</ele>
        <time>2019-11-01T09:29:05Z</time>
      </trkpt>
      <trkpt lat="46.34015" lon="2.84904">
        <ele>293.2</ele>
        <time>2019-11-01T09:29:06Z</time>
      </trkpt>
      <trkpt lat="46.34009" lon="2.84904">
        <ele>293.4</ele>
        <time>2019-11-01T09:29:07Z</time>
      </trkpt>
      <trkpt lat="46.34003" lon="2.84903">
        <ele>293.5</ele>
        <time>2019-11-01T09:29:08Z</time>
      </trkpt>
      <trkpt lat="46.33998" lon="2.84902">
        <ele>293.6</ele>
        <time>2019-11-01T09:29:09Z</time>
      </trkpt>
      <trkpt lat="46.33992" lon="2.84901">
        <ele>293.7</ele>
        <time>2019-11-01T09:29:10Z</time>
      </trkpt>
      <trkpt lat="46.33986" lon="2.84901">
        <ele>293.7</ele>
        <time>2019-11-01T09:29:11Z</time>
      </trkpt>
      <trkpt lat="46.3398" lon="2.849">
        <ele>293.6</ele>
        <time>2019-11-01T09:29:12Z</time>
      </trkpt>
      <trkpt lat="46.33975" lon="2.849">
        <ele>293.8</ele>
        <time>2019-11-01T09:29:13Z</time>
      </trkpt>
      <trkpt lat="46.33969" lon="2.84899">
        <ele>293.8</ele>
        <time>2019-11-01T09:29:14Z</time>
      </trkpt>
      <trkpt lat="46.33963" lon="2.84899">
        <ele>293.7</ele>
        <time>2019-11-01T09:29:15Z</time>
      </trkpt>
      <trkpt lat="46.33958" lon="2.84898">
        <ele>293.7</ele>
        <time>2019-11-01T09:29:16Z</time>
      </trkpt>
      <trkpt lat="46.33952" lon="2.84897">
        <ele>293.6</ele>
        <time>2019-11-01T09:29:17Z</time>
      </trkpt>
      <trkpt lat="46.33948" lon="2.84897">
        <ele>293.6</ele>
        <time>2019-11-01T09:29:18Z</time>
      </trkpt>
      <trkpt lat="46.33941" lon="2.84896">
        <ele>293.6</ele>
        <time>2019-11-01T09:29:19Z</time>
      </trkpt>
      <trkpt lat="46.33936" lon="2.84896">
        <ele>293.6</ele>
        <time>2019-11-01T09:29:20Z</time>
      </trkpt>
      <trkpt lat="46.33932" lon="2.84895">
        <ele>293.7</ele>
        <time>2019-11-01T09:29:21Z</time>
      </trkpt>
      <trkpt lat="46.33927" lon="2.84895">
        <ele>293.9</ele>
        <time>2019-11-01T09:29:22Z</time>
      </trkpt>
      <trkpt lat="46.3392" lon="2.84895">
        <ele>293.9</ele>
        <time>2019-11-01T09:29:23Z</time>
      </trkpt>
      <trkpt lat="46.33915" lon="2.84895">
        <ele>294</ele>
        <time>2019-11-01T09:29:24Z</time>
      </trkpt>
      <trkpt lat="46.3391" lon="2.84894">
        <ele>294</ele>
        <time>2019-11-01T09:29:25Z</time>
      </trkpt>
      <trkpt lat="46.33906" lon="2.84893">
        <ele>294</ele>
        <time>2019-11-01T09:29:26Z</time>
      </trkpt>
      <trkpt lat="46.339" lon="2.84893">
        <ele>294.1</ele>
        <time>2019-11-01T09:29:27Z</time>
      </trkpt>
      <trkpt lat="46.33895" lon="2.84892">
        <ele>294.1</ele>
        <time>2019-11-01T09:29:28Z</time>
      </trkpt>
      <trkpt lat="46.33889" lon="2.84891">
        <ele>294.2</ele>
        <time>2019-11-01T09:29:29Z</time>
      </trkpt>
      <trkpt lat="46.33884" lon="2.84891">
        <ele>294.4</ele>
        <time>2019-11-01T09:29:30Z</time>
      </trkpt>
      <trkpt lat="46.3388" lon="2.84891">
        <ele>294.4</ele>
        <time>2019-11-01T09:29:31Z</time>
      </trkpt>
      <trkpt lat="46.33875" lon="2.8489">
        <ele>294.5</ele>
        <time>2019-11-01T09:29:32Z</time>
      </trkpt>
      <trkpt lat="46.33869" lon="2.84889">
        <ele>294.6</ele>
        <time>2019-11-01T09:29:33Z</time>
      </trkpt>
      <trkpt lat="46.33864" lon="2.84888">
        <ele>294.8</ele>
        <time>2019-11-01T09:29:34Z</time>
      </trkpt>
      <trkpt lat="46.33859" lon="2.84887">
        <ele>294.9</ele>
        <time>2019-11-01T09:29:35Z</time>
      </trkpt>
      <trkpt lat="46.33854" lon="2.84887">
        <ele>295</ele>
        <time>2019-11-01T09:29:36Z</time>
      </trkpt>
      <trkpt lat="46.33849" lon="2.84887">
        <ele>295.2</ele>
        <time>2019-11-01T09:29:37Z</time>
      </trkpt>
      <trkpt lat="46.33843" lon="2.84886">
        <ele>295.5</ele>
        <time>2019-11-01T09:29:38Z</time>
      </trkpt>
      <trkpt lat="46.33838" lon="2.84885">
        <ele>295.8</ele>
        <time>2019-11-01T09:29:39Z</time>
      </trkpt>
      <trkpt lat="46.33833" lon="2.84884">
        <ele>295.9</ele>
        <time>2019-11-01T09:29:40Z</time>
      </trkpt>
      <trkpt lat="46.33828" lon="2.84884">
        <ele>296</ele>
        <time>2019-11-01T09:29:41Z</time>
      </trkpt>
      <trkpt lat="46.33823" lon="2.84884">
        <ele>296.1</ele>
        <time>2019-11-01T09:29:42Z</time>
      </trkpt>
      <trkpt lat="46.33817" lon="2.84884">
        <ele>296.2</ele>
        <time>2019-11-01T09:29:43Z</time>
      </trkpt>
      <trkpt lat="46.33812" lon="2.84883">
        <ele>296.3</ele>
        <time>2019-11-01T09:29:44Z</time>
      </trkpt>
      <trkpt lat="46.33808" lon="2.84883">
        <ele>296.4</ele>
        <time>2019-11-01T09:29:45Z</time>
      </trkpt>
      <trkpt lat="46.33803" lon="2.84882">
        <ele>296.5</ele>
        <time>2019-11-01T09:29:46Z</time>
      </trkpt>
      <trkpt lat="46.33797" lon="2.84882">
        <ele>296.7</ele>
        <time>2019-11-01T09:29:47Z</time>
      </trkpt>
      <trkpt lat="46.33792" lon="2.84882">
        <ele>296.8</ele>
        <time>2019-11-01T09:29:48Z</time>
      </trkpt>
      <trkpt lat="46.33788" lon="2.84881">
        <ele>296.9</ele>
        <time>2019-11-01T09:29:49Z</time>
      </trkpt>
      <trkpt lat="46.33784" lon="2.84881">
        <ele>296.9</ele>
        <time>2019-11-01T09:29:50Z</time>
      </trkpt>
      <trkpt lat="46.33779" lon="2.8488">
        <ele>297</ele>
        <time>2019-11-01T09:29:51Z</time>
      </trkpt>
      <trkpt lat="46.33773" lon="2.84879">
        <ele>297.2</ele>
        <time>2019-11-01T09:29:52Z</time>
      </trkpt>
      <trkpt lat="46.33768" lon="2.84879">
        <ele>297.3</ele>
        <time>2019-11-01T09:29:53Z</time>
      </trkpt>
      <trkpt lat="46.33763" lon="2.84878">
        <ele>297.4</ele>
        <time>2019-11-01T09:29:54Z</time>
      </trkpt>
      <trkpt lat="46.33759" lon="2.84879">
        <ele>297.6</ele>
        <time>2019-11-01T09:29:55Z</time>
      </trkpt>
      <trkpt lat="46.33753" lon="2.84879">
        <ele>297.9</ele>
        <time>2019-11-01T09:29:56Z</time>
      </trkpt>
      <trkpt lat="46.33747" lon="2.84878">
        <ele>298</ele>
        <time>2019-11-01T09:29:57Z</time>
      </trkpt>
      <trkpt lat="46.33742" lon="2.84878">
        <ele>298.1</ele>
        <time>2019-11-01T09:29:58Z</time>
      </trkpt>
      <trkpt lat="46.33737" lon="2.84877">
        <ele>298.2</ele>
        <time>2019-11-01T09:29:59Z</time>
      </trkpt>
      <trkpt lat="46.33733" lon="2.84878">
        <ele>298.3</ele>
        <time>2019-11-01T09:30:00Z</time>
      </trkpt>
      <trkpt lat="46.33728" lon="2.84878">
        <ele>298.4</ele>
        <time>2019-11-01T09:30:01Z</time>
      </trkpt>
      <trkpt lat="46.33722" lon="2.84878">
        <ele>298.6</ele>
        <time>2019-11-01T09:30:02Z</time>
      </trkpt>
      <trkpt lat="46.33717" lon="2.84879">
        <ele>298.6</ele>
        <time>2019-11-01T09:30:03Z</time>
      </trkpt>
      <trkpt lat="46.33715" lon="2.84879">
        <ele>298.6</ele>
        <time>2019-11-01T09:30:04Z</time>
      </trkpt>
      <trkpt lat="46.3371" lon="2.84878">
        <ele>298.7</ele>
        <time>2019-11-01T09:30:05Z</time>
      </trkpt>
      <trkpt lat="46.33703" lon="2.84878">
        <ele>298.8</ele>
        <time>2019-11-01T09:30:06Z</time>
      </trkpt>
      <trkpt lat="46.33699" lon="2.84878">
        <ele>298.8</ele>
        <time>2019-11-01T09:30:07Z</time>
      </trkpt>
      <trkpt lat="46.33695" lon="2.84879">
        <ele>298.9</ele>
        <time>2019-11-01T09:30:08Z</time>
      </trkpt>
      <trkpt lat="46.33692" lon="2.8488">
        <ele>299</ele>
        <time>2019-11-01T09:30:25Z</time>
      </trkpt>
      <trkpt lat="46.33688" lon="2.8488">
        <ele>299</ele>
        <time>2019-11-01T09:30:26Z</time>
      </trkpt>
      <trkpt lat="46.33684" lon="2.84879">
        <ele>299</ele>
        <time>2019-11-01T09:30:27Z</time>
      </trkpt>
      <trkpt lat="46.3368" lon="2.84877">
        <ele>299</ele>
        <time>2019-11-01T09:30:28Z</time>
      </trkpt>
      <trkpt lat="46.33676" lon="2.84874">
        <ele>299</ele>
        <time>2019-11-01T09:30:29Z</time>
      </trkpt>
      <trkpt lat="46.33673" lon="2.84872">
        <ele>299</ele>
        <time>2019-11-01T09:30:30Z</time>
      </trkpt>
      <trkpt lat="46.33669" lon="2.84869">
        <ele>299</ele>
        <time>2019-11-01T09:30:31Z</time>
      </trkpt>
      <trkpt lat="46.33665" lon="2.84865">
        <ele>299</ele>
        <time>2019-11-01T09:30:32Z</time>
      </trkpt>
      <trkpt lat="46.33662" lon="2.84861">
        <ele>298.9</ele>
        <time>2019-11-01T09:30:33Z</time>
      </trkpt>
      <trkpt lat="46.33658" lon="2.84858">
        <ele>298.8</ele>
        <time>2019-11-01T09:30:34Z</time>
      </trkpt>
      <trkpt lat="46.33654" lon="2.84855">
        <ele>298.7</ele>
        <time>2019-11-01T09:30:35Z</time>
      </trkpt>
      <trkpt lat="46.33652" lon="2.84854">
        <ele>298.7</ele>
        <time>2019-11-01T09:30:36Z</time>
      </trkpt>
      <trkpt lat="46.33649" lon="2.84853">
        <ele>298.6</ele>
        <time>2019-11-01T09:30:37Z</time>
      </trkpt>
      <trkpt lat="46.33651" lon="2.84858">
        <ele>298.7</ele>
        <time>2019-11-01T09:30:38Z</time>
      </trkpt>
      <trkpt lat="46.33651" lon="2.84858">
        <ele>298.7</ele>
        <time>2019-11-01T09:30:39Z</time>
      </trkpt>
      <trkpt lat="46.33648" lon="2.84858">
        <ele>298.6</ele>
        <time>2019-11-01T09:30:40Z</time>
      </trkpt>
      <trkpt lat="46.33645" lon="2.84859">
        <ele>298.4</ele>
        <time>2019-11-01T09:30:41Z</time>
      </trkpt>
      <trkpt lat="46.33643" lon="2.8486">
        <ele>298.2</ele>
        <time>2019-11-01T09:30:42Z</time>
      </trkpt>
      <trkpt lat="46.33639" lon="2.84862">
        <ele>298.1</ele>
        <time>2019-11-01T09:30:43Z</time>
      </trkpt>
      <trkpt lat="46.33634" lon="2.84864">
        <ele>297.6</ele>
        <time>2019-11-01T09:30:44Z</time>
      </trkpt>
      <trkpt lat="46.3363" lon="2.84865">
        <ele>297.5</ele>
        <time>2019-11-01T09:30:45Z</time>
      </trkpt>
      <trkpt lat="46.33625" lon="2.84866">
        <ele>297.2</ele>
        <time>2019-11-01T09:30:46Z</time>
      </trkpt>
      <trkpt lat="46.33622" lon="2.84867">
        <ele>297.1</ele>
        <time>2019-11-01T09:30:47Z</time>
      </trkpt>
      <trkpt lat="46.33617" lon="2.84869">
        <ele>296.6</ele>
        <time>2019-11-01T09:30:48Z</time>
      </trkpt>
      <trkpt lat="46.33612" lon="2.8487">
        <ele>296.5</ele>
        <time>2019-11-01T09:30:49Z</time>
      </trkpt>
      <trkpt lat="46.33607" lon="2.84871">
        <ele>296.3</ele>
        <time>2019-11-01T09:30:50Z</time>
      </trkpt>
      <trkpt lat="46.33603" lon="2.8487">
        <ele>296.2</ele>
        <time>2019-11-01T09:30:51Z</time>
      </trkpt>
      <trkpt lat="46.33598" lon="2.84869">
        <ele>296</ele>
        <time>2019-11-01T09:30:52Z</time>
      </trkpt>
      <trkpt lat="46.33593" lon="2.84868">
        <ele>295.8</ele>
        <time>2019-11-01T09:30:53Z</time>
      </trkpt>
      <trkpt lat="46.33588" lon="2.84867">
        <ele>296</ele>
        <time>2019-11-01T09:30:54Z</time>
      </trkpt>
      <trkpt lat="46.33582" lon="2.84866">
        <ele>295.8</ele>
        <time>2019-11-01T09:30:55Z</time>
      </trkpt>
      <trkpt lat="46.33578" lon="2.84865">
        <ele>295.7</ele>
        <time>2019-11-01T09:30:56Z</time>
      </trkpt>
      <trkpt lat="46.33573" lon="2.84865">
        <ele>295.6</ele>
        <time>2019-11-01T09:30:57Z</time>
      </trkpt>
      <trkpt lat="46.33568" lon="2.84864">
        <ele>295.5</ele>
        <time>2019-11-01T09:30:58Z</time>
      </trkpt>
      <trkpt lat="46.33561" lon="2.84863">
        <ele>295.6</ele>
        <time>2019-11-01T09:30:59Z</time>
      </trkpt>
      <trkpt lat="46.33556" lon="2.84862">
        <ele>295.5</ele>
        <time>2019-11-01T09:31:00Z</time>
      </trkpt>
      <trkpt lat="46.33552" lon="2.84862">
        <ele>295.5</ele>
        <time>2019-11-01T09:31:01Z</time>
      </trkpt>
      <trkpt lat="46.33547" lon="2.84862">
        <ele>295.4</ele>
        <time>2019-11-01T09:31:02Z</time>
      </trkpt>
      <trkpt lat="46.33539" lon="2.84862">
        <ele>295.3</ele>
        <time>2019-11-01T09:31:03Z</time>
      </trkpt>
      <trkpt lat="46.33533" lon="2.84862">
        <ele>295.3</ele>
        <time>2019-11-01T09:31:04Z</time>
      </trkpt>
      <trkpt lat="46.33528" lon="2.84862">
        <ele>295.3</ele>
        <time>2019-11-01T09:31:05Z</time>
      </trkpt>
      <trkpt lat="46.33523" lon="2.84862">
        <ele>295.3</ele>
        <time>2019-11-01T09:31:06Z</time>
      </trkpt>
      <trkpt lat="46.33517" lon="2.84862">
        <ele>295.3</ele>
        <time>2019-11-01T09:31:07Z</time>
      </trkpt>
      <trkpt lat="46.33511" lon="2.84863">
        <ele>295.3</ele>
        <time>2019-11-01T09:31:08Z</time>
      </trkpt>
      <trkpt lat="46.33505" lon="2.84864">
        <ele>295</ele>
        <time>2019-11-01T09:31:09Z</time>
      </trkpt>
      <trkpt lat="46.335" lon="2.84865">
        <ele>295</ele>
        <time>2019-11-01T09:31:10Z</time>
      </trkpt>
      <trkpt lat="46.33494" lon="2.84866">
        <ele>295</ele>
        <time>2019-11-01T09:31:11Z</time>
      </trkpt>
      <trkpt lat="46.33486" lon="2.84867">
        <ele>295</ele>
        <time>2019-11-01T09:31:12Z</time>
      </trkpt>
      <trkpt lat="46.3348" lon="2.84868">
        <ele>294.9</ele>
        <time>2019-11-01T09:31:13Z</time>
      </trkpt>
      <trkpt lat="46.33474" lon="2.8487">
        <ele>295</ele>
        <time>2019-11-01T09:31:14Z</time>
      </trkpt>
      <trkpt lat="46.33468" lon="2.84871">
        <ele>295.1</ele>
        <time>2019-11-01T09:31:15Z</time>
      </trkpt>
      <trkpt lat="46.33462" lon="2.84873">
        <ele>295.1</ele>
        <time>2019-11-01T09:31:16Z</time>
      </trkpt>
      <trkpt lat="46.33456" lon="2.84875">
        <ele>295.3</ele>
        <time>2019-11-01T09:31:17Z</time>
      </trkpt>
      <trkpt lat="46.3345" lon="2.84877">
        <ele>295.4</ele>
        <time>2019-11-01T09:31:18Z</time>
      </trkpt>
      <trkpt lat="46.33444" lon="2.84879">
        <ele>295.7</ele>
        <time>2019-11-01T09:31:19Z</time>
      </trkpt>
      <trkpt lat="46.33438" lon="2.84881">
        <ele>295.9</ele>
        <time>2019-11-01T09:31:20Z</time>
      </trkpt>
      <trkpt lat="46.33433" lon="2.84883">
        <ele>296.2</ele>
        <time>2019-11-01T09:31:21Z</time>
      </trkpt>
      <trkpt lat="46.33426" lon="2.84886">
        <ele>296.4</ele>
        <time>2019-11-01T09:31:22Z</time>
      </trkpt>
      <trkpt lat="46.3342" lon="2.84888">
        <ele>296.6</ele>
        <time>2019-11-01T09:31:23Z</time>
      </trkpt>
      <trkpt lat="46.33414" lon="2.84891">
        <ele>296.7</ele>
        <time>2019-11-01T09:31:24Z</time>
      </trkpt>
      <trkpt lat="46.33407" lon="2.84893">
        <ele>297</ele>
        <time>2019-11-01T09:31:25Z</time>
      </trkpt>
      <trkpt lat="46.33401" lon="2.84896">
        <ele>297.3</ele>
        <time>2019-11-01T09:31:26Z</time>
      </trkpt>
      <trkpt lat="46.33394" lon="2.84899">
        <ele>297.5</ele>
        <time>2019-11-01T09:31:27Z</time>
      </trkpt>
      <trkpt lat="46.33388" lon="2.84903">
        <ele>297.8</ele>
        <time>2019-11-01T09:31:28Z</time>
      </trkpt>
      <trkpt lat="46.33381" lon="2.84905">
        <ele>298.2</ele>
        <time>2019-11-01T09:31:29Z</time>
      </trkpt>
      <trkpt lat="46.33375" lon="2.84908">
        <ele>298.4</ele>
        <time>2019-11-01T09:31:30Z</time>
      </trkpt>
      <trkpt lat="46.33369" lon="2.8491">
        <ele>298.7</ele>
        <time>2019-11-01T09:31:31Z</time>
      </trkpt>
      <trkpt lat="46.33363" lon="2.84912">
        <ele>298.8</ele>
        <time>2019-11-01T09:31:32Z</time>
      </trkpt>
      <trkpt lat="46.33357" lon="2.84914">
        <ele>299.1</ele>
        <time>2019-11-01T09:31:33Z</time>
      </trkpt>
      <trkpt lat="46.3335" lon="2.84917">
        <ele>299.2</ele>
        <time>2019-11-01T09:31:34Z</time>
      </trkpt>
      <trkpt lat="46.33344" lon="2.84919">
        <ele>299.3</ele>
        <time>2019-11-01T09:31:35Z</time>
      </trkpt>
      <trkpt lat="46.33338" lon="2.84922">
        <ele>299.4</ele>
        <time>2019-11-01T09:31:36Z</time>
      </trkpt>
      <trkpt lat="46.33333" lon="2.84924">
        <ele>299.5</ele>
        <time>2019-11-01T09:31:37Z</time>
      </trkpt>
      <trkpt lat="46.33327" lon="2.84926">
        <ele>299.6</ele>
        <time>2019-11-01T09:31:38Z</time>
      </trkpt>
      <trkpt lat="46.33321" lon="2.84928">
        <ele>299.7</ele>
        <time>2019-11-01T09:31:39Z</time>
      </trkpt>
      <trkpt lat="46.33315" lon="2.84929">
        <ele>299.9</ele>
        <time>2019-11-01T09:31:40Z</time>
      </trkpt>
      <trkpt lat="46.3331" lon="2.84929">
        <ele>300</ele>
        <time>2019-11-01T09:31:41Z</time>
      </trkpt>
      <trkpt lat="46.33304" lon="2.8493">
        <ele>300.2</ele>
        <time>2019-11-01T09:31:42Z</time>
      </trkpt>
      <trkpt lat="46.33297" lon="2.84933">
        <ele>300.5</ele>
        <time>2019-11-01T09:31:43Z</time>
      </trkpt>
      <trkpt lat="46.33292" lon="2.84934">
        <ele>300.5</ele>
        <time>2019-11-01T09:31:44Z</time>
      </trkpt>
      <trkpt lat="46.33286" lon="2.84937">
        <ele>300.7</ele>
        <time>2019-11-01T09:31:45Z</time>
      </trkpt>
      <trkpt lat="46.33281" lon="2.84939">
        <ele>300.8</ele>
        <time>2019-11-01T09:31:46Z</time>
      </trkpt>
      <trkpt lat="46.33275" lon="2.84941">
        <ele>300.9</ele>
        <time>2019-11-01T09:31:47Z</time>
      </trkpt>
      <trkpt lat="46.33269" lon="2.84944">
        <ele>300.9</ele>
        <time>2019-11-01T09:31:48Z</time>
      </trkpt>
      <trkpt lat="46.33263" lon="2.84946">
        <ele>301.1</ele>
        <time>2019-11-01T09:31:49Z</time>
      </trkpt>
      <trkpt lat="46.33257" lon="2.84949">
        <ele>301.1</ele>
        <time>2019-11-01T09:31:50Z</time>
      </trkpt>
      <trkpt lat="46.33252" lon="2.84951">
        <ele>301.3</ele>
        <time>2019-11-01T09:31:51Z</time>
      </trkpt>
      <trkpt lat="46.33246" lon="2.84954">
        <ele>301.4</ele>
        <time>2019-11-01T09:31:52Z</time>
      </trkpt>
      <trkpt lat="46.33241" lon="2.84956">
        <ele>301.5</ele>
        <time>2019-11-01T09:31:53Z</time>
      </trkpt>
      <trkpt lat="46.33235" lon="2.84958">
        <ele>301.6</ele>
        <time>2019-11-01T09:31:54Z</time>
      </trkpt>
      <trkpt lat="46.33231" lon="2.8496">
        <ele>301.8</ele>
        <time>2019-11-01T09:31:55Z</time>
      </trkpt>
      <trkpt lat="46.33226" lon="2.84961">
        <ele>301.8</ele>
        <time>2019-11-01T09:31:56Z</time>
      </trkpt>
      <trkpt lat="46.33224" lon="2.84959">
        <ele>301.9</ele>
        <time>2019-11-01T09:31:57Z</time>
      </trkpt>
      <trkpt lat="46.33223" lon="2.84958">
        <ele>302</ele>
        <time>2019-11-01T09:31:58Z</time>
      </trkpt>
      <trkpt lat="46.33221" lon="2.84958">
        <ele>302</ele>
        <time>2019-11-01T09:31:59Z</time>
      </trkpt>
      <trkpt lat="46.33219" lon="2.84959">
        <ele>302</ele>
        <time>2019-11-01T09:32:00Z</time>
      </trkpt>
      <trkpt lat="46.33218" lon="2.84959">
        <ele>302</ele>
        <time>2019-11-01T09:32:01Z</time>
      </trkpt>
      <trkpt lat="46.33215" lon="2.84961">
        <ele>302.1</ele>
        <time>2019-11-01T09:32:02Z</time>
      </trkpt>
      <trkpt lat="46.33214" lon="2.84961">
        <ele>302.1</ele>
        <time>2019-11-01T09:32:03Z</time>
      </trkpt>
      <trkpt lat="46.33213" lon="2.84962">
        <ele>302.1</ele>
        <time>2019-11-01T09:32:04Z</time>
      </trkpt>
      <trkpt lat="46.33212" lon="2.84961">
        <ele>302.1</ele>
        <time>2019-11-01T09:32:05Z</time>
      </trkpt>
      <trkpt lat="46.33211" lon="2.8496">
        <ele>302.2</ele>
        <time>2019-11-01T09:32:06Z</time>
      </trkpt>
      <trkpt lat="46.33209" lon="2.8496">
        <ele>302.2</ele>
        <time>2019-11-01T09:32:07Z</time>
      </trkpt>
      <trkpt lat="46.33206" lon="2.84961">
        <ele>302.2</ele>
        <time>2019-11-01T09:32:08Z</time>
      </trkpt>
      <trkpt lat="46.33201" lon="2.84963">
        <ele>302.4</ele>
        <time>2019-11-01T09:32:09Z</time>
      </trkpt>
      <trkpt lat="46.33198" lon="2.84965">
        <ele>302.4</ele>
        <time>2019-11-01T09:32:10Z</time>
      </trkpt>
      <trkpt lat="46.33194" lon="2.84966">
        <ele>302.5</ele>
        <time>2019-11-01T09:32:11Z</time>
      </trkpt>
      <trkpt lat="46.33191" lon="2.84968">
        <ele>302.6</ele>
        <time>2019-11-01T09:32:12Z</time>
      </trkpt>
      <trkpt lat="46.33188" lon="2.84969">
        <ele>302.7</ele>
        <time>2019-11-01T09:32:13Z</time>
      </trkpt>
      <trkpt lat="46.33184" lon="2.84969">
        <ele>302.8</ele>
        <time>2019-11-01T09:32:14Z</time>
      </trkpt>
      <trkpt lat="46.3318" lon="2.8497">
        <ele>302.8</ele>
        <time>2019-11-01T09:32:15Z</time>
      </trkpt>
      <trkpt lat="46.33176" lon="2.84971">
        <ele>302.9</ele>
        <time>2019-11-01T09:32:16Z</time>
      </trkpt>
      <trkpt lat="46.3317" lon="2.84972">
        <ele>303</ele>
        <time>2019-11-01T09:32:17Z</time>
      </trkpt>
      <trkpt lat="46.33165" lon="2.84974">
        <ele>303</ele>
        <time>2019-11-01T09:32:18Z</time>
      </trkpt>
      <trkpt lat="46.3316" lon="2.84977">
        <ele>303.1</ele>
        <time>2019-11-01T09:32:19Z</time>
      </trkpt>
      <trkpt lat="46.33155" lon="2.8498">
        <ele>303</ele>
        <time>2019-11-01T09:32:20Z</time>
      </trkpt>
      <trkpt lat="46.3315" lon="2.84982">
        <ele>303</ele>
        <time>2019-11-01T09:32:21Z</time>
      </trkpt>
      <trkpt lat="46.33145" lon="2.84985">
        <ele>302.8</ele>
        <time>2019-11-01T09:32:22Z</time>
      </trkpt>
      <trkpt lat="46.33139" lon="2.84987">
        <ele>302.5</ele>
        <time>2019-11-01T09:32:23Z</time>
      </trkpt>
      <trkpt lat="46.33134" lon="2.84989">
        <ele>302.1</ele>
        <time>2019-11-01T09:32:24Z</time>
      </trkpt>
      <trkpt lat="46.33129" lon="2.84991">
        <ele>301.9</ele>
        <time>2019-11-01T09:32:25Z</time>
      </trkpt>
      <trkpt lat="46.33124" lon="2.84995">
        <ele>301.4</ele>
        <time>2019-11-01T09:32:26Z</time>
      </trkpt>
      <trkpt lat="46.33118" lon="2.84997">
        <ele>300.9</ele>
        <time>2019-11-01T09:32:27Z</time>
      </trkpt>
      <trkpt lat="46.33113" lon="2.85">
        <ele>300.6</ele>
        <time>2019-11-01T09:32:28Z</time>
      </trkpt>
      <trkpt lat="46.33108" lon="2.85003">
        <ele>300.3</ele>
        <time>2019-11-01T09:32:29Z</time>
      </trkpt>
      <trkpt lat="46.33103" lon="2.85005">
        <ele>299.9</ele>
        <time>2019-11-01T09:32:30Z</time>
      </trkpt>
      <trkpt lat="46.33098" lon="2.85008">
        <ele>299.6</ele>
        <time>2019-11-01T09:32:31Z</time>
      </trkpt>
      <trkpt lat="46.33094" lon="2.85011">
        <ele>299.4</ele>
        <time>2019-11-01T09:32:32Z</time>
      </trkpt>
      <trkpt lat="46.33089" lon="2.85013">
        <ele>299.2</ele>
        <time>2019-11-01T09:32:33Z</time>
      </trkpt>
      <trkpt lat="46.33084" lon="2.85015">
        <ele>299.2</ele>
        <time>2019-11-01T09:32:34Z</time>
      </trkpt>
      <trkpt lat="46.3308" lon="2.85017">
        <ele>299</ele>
        <time>2019-11-01T09:32:35Z</time>
      </trkpt>
      <trkpt lat="46.33075" lon="2.8502">
        <ele>299.1</ele>
        <time>2019-11-01T09:32:36Z</time>
      </trkpt>
      <trkpt lat="46.3307" lon="2.85023">
        <ele>299.2</ele>
        <time>2019-11-01T09:32:37Z</time>
      </trkpt>
      <trkpt lat="46.33065" lon="2.85025">
        <ele>299.2</ele>
        <time>2019-11-01T09:32:38Z</time>
      </trkpt>
      <trkpt lat="46.3306" lon="2.85026">
        <ele>299.2</ele>
        <time>2019-11-01T09:32:39Z</time>
      </trkpt>
      <trkpt lat="46.33055" lon="2.85028">
        <ele>299.3</ele>
        <time>2019-11-01T09:32:40Z</time>
      </trkpt>
      <trkpt lat="46.3305" lon="2.85029">
        <ele>299.3</ele>
        <time>2019-11-01T09:32:41Z</time>
      </trkpt>
      <trkpt lat="46.33045" lon="2.85031">
        <ele>299.4</ele>
        <time>2019-11-01T09:32:42Z</time>
      </trkpt>
      <trkpt lat="46.33039" lon="2.85033">
        <ele>299.3</ele>
        <time>2019-11-01T09:32:43Z</time>
      </trkpt>
      <trkpt lat="46.33034" lon="2.85035">
        <ele>299.3</ele>
        <time>2019-11-01T09:32:44Z</time>
      </trkpt>
      <trkpt lat="46.33029" lon="2.85037">
        <ele>299.4</ele>
        <time>2019-11-01T09:32:45Z</time>
      </trkpt>
      <trkpt lat="46.33023" lon="2.85038">
        <ele>299.4</ele>
        <time>2019-11-01T09:32:46Z</time>
      </trkpt>
      <trkpt lat="46.33018" lon="2.85039">
        <ele>299.3</ele>
        <time>2019-11-01T09:32:47Z</time>
      </trkpt>
      <trkpt lat="46.33013" lon="2.85041">
        <ele>299.3</ele>
        <time>2019-11-01T09:32:48Z</time>
      </trkpt>
      <trkpt lat="46.33008" lon="2.85043">
        <ele>299.3</ele>
        <time>2019-11-01T09:32:49Z</time>
      </trkpt>
      <trkpt lat="46.33003" lon="2.85046">
        <ele>299.3</ele>
        <time>2019-11-01T09:32:50Z</time>
      </trkpt>
      <trkpt lat="46.32997" lon="2.85048">
        <ele>299.3</ele>
        <time>2019-11-01T09:32:51Z</time>
      </trkpt>
      <trkpt lat="46.32992" lon="2.8505">
        <ele>299.3</ele>
        <time>2019-11-01T09:32:52Z</time>
      </trkpt>
      <trkpt lat="46.32987" lon="2.85052">
        <ele>299.2</ele>
        <time>2019-11-01T09:32:53Z</time>
      </trkpt>
      <trkpt lat="46.32982" lon="2.85054">
        <ele>299.2</ele>
        <time>2019-11-01T09:32:54Z</time>
      </trkpt>
      <trkpt lat="46.32977" lon="2.85056">
        <ele>299.1</ele>
        <time>2019-11-01T09:32:55Z</time>
      </trkpt>
      <trkpt lat="46.32972" lon="2.85058">
        <ele>299.1</ele>
        <time>2019-11-01T09:32:56Z</time>
      </trkpt>
      <trkpt lat="46.32967" lon="2.8506">
        <ele>298.9</ele>
        <time>2019-11-01T09:32:57Z</time>
      </trkpt>
      <trkpt lat="46.32962" lon="2.85062">
        <ele>298.9</ele>
        <time>2019-11-01T09:32:58Z</time>
      </trkpt>
      <trkpt lat="46.32957" lon="2.85064">
        <ele>298.8</ele>
        <time>2019-11-01T09:32:59Z</time>
      </trkpt>
      <trkpt lat="46.32952" lon="2.85064">
        <ele>298.7</ele>
        <time>2019-11-01T09:33:00Z</time>
      </trkpt>
      <trkpt lat="46.32947" lon="2.85066">
        <ele>298.7</ele>
        <time>2019-11-01T09:33:01Z</time>
      </trkpt>
      <trkpt lat="46.32942" lon="2.85068">
        <ele>298.6</ele>
        <time>2019-11-01T09:33:02Z</time>
      </trkpt>
      <trkpt lat="46.32937" lon="2.8507">
        <ele>298.7</ele>
        <time>2019-11-01T09:33:03Z</time>
      </trkpt>
      <trkpt lat="46.32932" lon="2.85072">
        <ele>298.6</ele>
        <time>2019-11-01T09:33:04Z</time>
      </trkpt>
      <trkpt lat="46.32927" lon="2.85073">
        <ele>298.5</ele>
        <time>2019-11-01T09:33:05Z</time>
      </trkpt>
      <trkpt lat="46.32922" lon="2.85072">
        <ele>298.4</ele>
        <time>2019-11-01T09:33:06Z</time>
      </trkpt>
      <trkpt lat="46.32917" lon="2.85072">
        <ele>298.4</ele>
        <time>2019-11-01T09:33:07Z</time>
      </trkpt>
      <trkpt lat="46.32913" lon="2.85072">
        <ele>298.3</ele>
        <time>2019-11-01T09:33:08Z</time>
      </trkpt>
      <trkpt lat="46.32908" lon="2.85072">
        <ele>298.3</ele>
        <time>2019-11-01T09:33:09Z</time>
      </trkpt>
      <trkpt lat="46.32903" lon="2.85073">
        <ele>298.3</ele>
        <time>2019-11-01T09:33:10Z</time>
      </trkpt>
      <trkpt lat="46.32899" lon="2.85072">
        <ele>298.3</ele>
        <time>2019-11-01T09:33:11Z</time>
      </trkpt>
      <trkpt lat="46.32894" lon="2.85072">
        <ele>298.3</ele>
        <time>2019-11-01T09:33:12Z</time>
      </trkpt>
      <trkpt lat="46.32889" lon="2.85072">
        <ele>298.3</ele>
        <time>2019-11-01T09:33:13Z</time>
      </trkpt>
      <trkpt lat="46.32884" lon="2.85072">
        <ele>298.3</ele>
        <time>2019-11-01T09:33:14Z</time>
      </trkpt>
      <trkpt lat="46.3288" lon="2.85072">
        <ele>298.3</ele>
        <time>2019-11-01T09:33:15Z</time>
      </trkpt>
      <trkpt lat="46.32875" lon="2.85071">
        <ele>298.4</ele>
        <time>2019-11-01T09:33:16Z</time>
      </trkpt>
      <trkpt lat="46.3287" lon="2.8507">
        <ele>298.5</ele>
        <time>2019-11-01T09:33:17Z</time>
      </trkpt>
      <trkpt lat="46.32866" lon="2.85068">
        <ele>298.5</ele>
        <time>2019-11-01T09:33:18Z</time>
      </trkpt>
      <trkpt lat="46.32862" lon="2.85066">
        <ele>298.6</ele>
        <time>2019-11-01T09:33:19Z</time>
      </trkpt>
      <trkpt lat="46.32858" lon="2.85063">
        <ele>298.7</ele>
        <time>2019-11-01T09:33:20Z</time>
      </trkpt>
      <trkpt lat="46.32854" lon="2.8506">
        <ele>298.8</ele>
        <time>2019-11-01T09:33:21Z</time>
      </trkpt>
      <trkpt lat="46.32851" lon="2.85058">
        <ele>298.9</ele>
        <time>2019-11-01T09:33:22Z</time>
      </trkpt>
      <trkpt lat="46.32847" lon="2.85058">
        <ele>299.1</ele>
        <time>2019-11-01T09:33:23Z</time>
      </trkpt>
      <trkpt lat="46.32842" lon="2.8506">
        <ele>299.1</ele>
        <time>2019-11-01T09:33:24Z</time>
      </trkpt>
      <trkpt lat="46.32838" lon="2.85061">
        <ele>299.2</ele>
        <time>2019-11-01T09:33:25Z</time>
      </trkpt>
      <trkpt lat="46.32834" lon="2.85063">
        <ele>299.4</ele>
        <time>2019-11-01T09:33:26Z</time>
      </trkpt>
      <trkpt lat="46.3283" lon="2.85064">
        <ele>299.5</ele>
        <time>2019-11-01T09:33:27Z</time>
      </trkpt>
      <trkpt lat="46.32826" lon="2.85066">
        <ele>299.6</ele>
        <time>2019-11-01T09:33:28Z</time>
      </trkpt>
      <trkpt lat="46.32821" lon="2.85068">
        <ele>299.6</ele>
        <time>2019-11-01T09:33:29Z</time>
      </trkpt>
      <trkpt lat="46.32817" lon="2.85069">
        <ele>299.7</ele>
        <time>2019-11-01T09:33:30Z</time>
      </trkpt>
      <trkpt lat="46.32813" lon="2.85071">
        <ele>299.7</ele>
        <time>2019-11-01T09:33:31Z</time>
      </trkpt>
      <trkpt lat="46.32809" lon="2.85072">
        <ele>299.7</ele>
        <time>2019-11-01T09:33:32Z</time>
      </trkpt>
      <trkpt lat="46.32805" lon="2.85073">
        <ele>299.7</ele>
        <time>2019-11-01T09:33:33Z</time>
      </trkpt>
      <trkpt lat="46.32801" lon="2.85075">
        <ele>299.7</ele>
        <time>2019-11-01T09:33:34Z</time>
      </trkpt>
      <trkpt lat="46.32797" lon="2.85077">
        <ele>299.7</ele>
        <time>2019-11-01T09:33:35Z</time>
      </trkpt>
      <trkpt lat="46.32792" lon="2.85079">
        <ele>299.6</ele>
        <time>2019-11-01T09:33:36Z</time>
      </trkpt>
      <trkpt lat="46.32788" lon="2.85081">
        <ele>299.6</ele>
        <time>2019-11-01T09:33:37Z</time>
      </trkpt>
      <trkpt lat="46.32784" lon="2.85082">
        <ele>299.5</ele>
        <time>2019-11-01T09:33:38Z</time>
      </trkpt>
      <trkpt lat="46.3278" lon="2.85083">
        <ele>299.5</ele>
        <time>2019-11-01T09:33:39Z</time>
      </trkpt>
      <trkpt lat="46.32775" lon="2.85085">
        <ele>299.4</ele>
        <time>2019-11-01T09:33:40Z</time>
      </trkpt>
      <trkpt lat="46.3277" lon="2.85086">
        <ele>299.4</ele>
        <time>2019-11-01T09:33:41Z</time>
      </trkpt>
      <trkpt lat="46.32766" lon="2.85088">
        <ele>299.3</ele>
        <time>2019-11-01T09:33:42Z</time>
      </trkpt>
      <trkpt lat="46.32761" lon="2.85089">
        <ele>299.3</ele>
        <time>2019-11-01T09:33:43Z</time>
      </trkpt>
      <trkpt lat="46.32757" lon="2.85091">
        <ele>299.2</ele>
        <time>2019-11-01T09:33:44Z</time>
      </trkpt>
      <trkpt lat="46.32753" lon="2.85092">
        <ele>299.2</ele>
        <time>2019-11-01T09:34:09Z</time>
      </trkpt>
      <trkpt lat="46.32748" lon="2.85093">
        <ele>299.2</ele>
        <time>2019-11-01T09:34:10Z</time>
      </trkpt>
      <trkpt lat="46.32744" lon="2.85094">
        <ele>299.2</ele>
        <time>2019-11-01T09:34:11Z</time>
      </trkpt>
      <trkpt lat="46.3274" lon="2.85095">
        <ele>299.2</ele>
        <time>2019-11-01T09:34:12Z</time>
      </trkpt>
      <trkpt lat="46.32736" lon="2.85095">
        <ele>299.3</ele>
        <time>2019-11-01T09:34:13Z</time>
      </trkpt>
      <trkpt lat="46.32732" lon="2.85096">
        <ele>299.4</ele>
        <time>2019-11-01T09:34:14Z</time>
      </trkpt>
      <trkpt lat="46.32728" lon="2.85097">
        <ele>299.6</ele>
        <time>2019-11-01T09:34:15Z</time>
      </trkpt>
      <trkpt lat="46.32725" lon="2.85098">
        <ele>299.8</ele>
        <time>2019-11-01T09:34:16Z</time>
      </trkpt>
      <trkpt lat="46.32721" lon="2.851">
        <ele>300</ele>
        <time>2019-11-01T09:34:17Z</time>
      </trkpt>
      <trkpt lat="46.32718" lon="2.85101">
        <ele>300.1</ele>
        <time>2019-11-01T09:34:18Z</time>
      </trkpt>
      <trkpt lat="46.32715" lon="2.851">
        <ele>300.3</ele>
        <time>2019-11-01T09:34:19Z</time>
      </trkpt>
      <trkpt lat="46.32713" lon="2.851">
        <ele>300.5</ele>
        <time>2019-11-01T09:34:20Z</time>
      </trkpt>
      <trkpt lat="46.3271" lon="2.851">
        <ele>300.6</ele>
        <time>2019-11-01T09:34:21Z</time>
      </trkpt>
      <trkpt lat="46.3271" lon="2.85104">
        <ele>300.8</ele>
        <time>2019-11-01T09:34:22Z</time>
      </trkpt>
      <trkpt lat="46.3271" lon="2.85103">
        <ele>300.7</ele>
        <time>2019-11-01T09:34:23Z</time>
      </trkpt>
      <trkpt lat="46.32709" lon="2.851">
        <ele>300.7</ele>
        <time>2019-11-01T09:34:24Z</time>
      </trkpt>
      <trkpt lat="46.32709" lon="2.85096">
        <ele>300.6</ele>
        <time>2019-11-01T09:34:25Z</time>
      </trkpt>
      <trkpt lat="46.32708" lon="2.85093">
        <ele>300.5</ele>
        <time>2019-11-01T09:34:26Z</time>
      </trkpt>
      <trkpt lat="46.32707" lon="2.85089">
        <ele>300.6</ele>
        <time>2019-11-01T09:34:27Z</time>
      </trkpt>
      <trkpt lat="46.32706" lon="2.85085">
        <ele>300.6</ele>
        <time>2019-11-01T09:34:28Z</time>
      </trkpt>
      <trkpt lat="46.32705" lon="2.85081">
        <ele>300.5</ele>
        <time>2019-11-01T09:34:29Z</time>
      </trkpt>
      <trkpt lat="46.32703" lon="2.85078">
        <ele>300.6</ele>
        <time>2019-11-01T09:34:30Z</time>
      </trkpt>
      <trkpt lat="46.32702" lon="2.85075">
        <ele>300.8</ele>
        <time>2019-11-01T09:34:31Z</time>
      </trkpt>
      <trkpt lat="46.32699" lon="2.85073">
        <ele>300.7</ele>
        <time>2019-11-01T09:34:32Z</time>
      </trkpt>
      <trkpt lat="46.32696" lon="2.85072">
        <ele>300.9</ele>
        <time>2019-11-01T09:34:33Z</time>
      </trkpt>
      <trkpt lat="46.32694" lon="2.85071">
        <ele>301</ele>
        <time>2019-11-01T09:34:34Z</time>
      </trkpt>
      <trkpt lat="46.32692" lon="2.8507">
        <ele>301.2</ele>
        <time>2019-11-01T09:34:35Z</time>
      </trkpt>
      <trkpt lat="46.32689" lon="2.8507">
        <ele>301.3</ele>
        <time>2019-11-01T09:34:36Z</time>
      </trkpt>
      <trkpt lat="46.32687" lon="2.85071">
        <ele>301.5</ele>
        <time>2019-11-01T09:34:37Z</time>
      </trkpt>
      <trkpt lat="46.32684" lon="2.85072">
        <ele>301.5</ele>
        <time>2019-11-01T09:34:38Z</time>
      </trkpt>
      <trkpt lat="46.32682" lon="2.85073">
        <ele>301.6</ele>
        <time>2019-11-01T09:34:39Z</time>
      </trkpt>
      <trkpt lat="46.3268" lon="2.85076">
        <ele>301.8</ele>
        <time>2019-11-01T09:34:40Z</time>
      </trkpt>
      <trkpt lat="46.32678" lon="2.85079">
        <ele>301.9</ele>
        <time>2019-11-01T09:34:41Z</time>
      </trkpt>
      <trkpt lat="46.32677" lon="2.85083">
        <ele>302</ele>
        <time>2019-11-01T09:34:42Z</time>
      </trkpt>
      <trkpt lat="46.32676" lon="2.85087">
        <ele>302.2</ele>
        <time>2019-11-01T09:34:43Z</time>
      </trkpt>
      <trkpt lat="46.32675" lon="2.85091">
        <ele>302.3</ele>
        <time>2019-11-01T09:34:44Z</time>
      </trkpt>
      <trkpt lat="46.32673" lon="2.85094">
        <ele>302.5</ele>
        <time>2019-11-01T09:34:45Z</time>
      </trkpt>
      <trkpt lat="46.32671" lon="2.85096">
        <ele>302.6</ele>
        <time>2019-11-01T09:34:46Z</time>
      </trkpt>
      <trkpt lat="46.32669" lon="2.85097">
        <ele>302.4</ele>
        <time>2019-11-01T09:34:47Z</time>
      </trkpt>
      <trkpt lat="46.32667" lon="2.85096">
        <ele>302.4</ele>
        <time>2019-11-01T09:34:48Z</time>
      </trkpt>
      <trkpt lat="46.32665" lon="2.85094">
        <ele>302.3</ele>
        <time>2019-11-01T09:34:49Z</time>
      </trkpt>
      <trkpt lat="46.32664" lon="2.85092">
        <ele>302.3</ele>
        <time>2019-11-01T09:34:50Z</time>
      </trkpt>
      <trkpt lat="46.32663" lon="2.85091">
        <ele>302.2</ele>
        <time>2019-11-01T09:34:51Z</time>
      </trkpt>
      <trkpt lat="46.32661" lon="2.85088">
        <ele>302.2</ele>
        <time>2019-11-01T09:34:52Z</time>
      </trkpt>
      <trkpt lat="46.32659" lon="2.85087">
        <ele>302.1</ele>
        <time>2019-11-01T09:34:53Z</time>
      </trkpt>
      <trkpt lat="46.32656" lon="2.85085">
        <ele>302.1</ele>
        <time>2019-11-01T09:34:54Z</time>
      </trkpt>
      <trkpt lat="46.32654" lon="2.85083">
        <ele>302</ele>
        <time>2019-11-01T09:34:55Z</time>
      </trkpt>
      <trkpt lat="46.32652" lon="2.85081">
        <ele>302</ele>
        <time>2019-11-01T09:34:56Z</time>
      </trkpt>
      <trkpt lat="46.32649" lon="2.85078">
        <ele>302</ele>
        <time>2019-11-01T09:34:57Z</time>
      </trkpt>
      <trkpt lat="46.32647" lon="2.85075">
        <ele>302</ele>
        <time>2019-11-01T09:34:58Z</time>
      </trkpt>
      <trkpt lat="46.32645" lon="2.85073">
        <ele>302.1</ele>
        <time>2019-11-01T09:34:59Z</time>
      </trkpt>
      <trkpt lat="46.32643" lon="2.8507">
        <ele>302.1</ele>
        <time>2019-11-01T09:35:00Z</time>
      </trkpt>
      <trkpt lat="46.3264" lon="2.85068">
        <ele>302.2</ele>
        <time>2019-11-01T09:35:01Z</time>
      </trkpt>
      <trkpt lat="46.32637" lon="2.85066">
        <ele>302.3</ele>
        <time>2019-11-01T09:35:02Z</time>
      </trkpt>
      <trkpt lat="46.32635" lon="2.85065">
        <ele>302.3</ele>
        <time>2019-11-01T09:35:03Z</time>
      </trkpt>
      <trkpt lat="46.32632" lon="2.85064">
        <ele>302.4</ele>
        <time>2019-11-01T09:35:04Z</time>
      </trkpt>
      <trkpt lat="46.32629" lon="2.85063">
        <ele>302.5</ele>
        <time>2019-11-01T09:35:05Z</time>
      </trkpt>
      <trkpt lat="46.32625" lon="2.85063">
        <ele>302.6</ele>
        <time>2019-11-01T09:35:06Z</time>
      </trkpt>
      <trkpt lat="46.32622" lon="2.85063">
        <ele>302.7</ele>
        <time>2019-11-01T09:35:07Z</time>
      </trkpt>
      <trkpt lat="46.32619" lon="2.85063">
        <ele>302.9</ele>
        <time>2019-11-01T09:35:08Z</time>
      </trkpt>
      <trkpt lat="46.32616" lon="2.85064">
        <ele>303</ele>
        <time>2019-11-01T09:35:09Z</time>
      </trkpt>
      <trkpt lat="46.32613" lon="2.85064">
        <ele>303.2</ele>
        <time>2019-11-01T09:35:10Z</time>
      </trkpt>
      <trkpt lat="46.3261" lon="2.85065">
        <ele>303.3</ele>
        <time>2019-11-01T09:35:11Z</time>
      </trkpt>
      <trkpt lat="46.32607" lon="2.85065">
        <ele>303.5</ele>
        <time>2019-11-01T09:35:12Z</time>
      </trkpt>
      <trkpt lat="46.32603" lon="2.85066">
        <ele>303.7</ele>
        <time>2019-11-01T09:35:13Z</time>
      </trkpt>
      <trkpt lat="46.32601" lon="2.85067">
        <ele>303.8</ele>
        <time>2019-11-01T09:35:14Z</time>
      </trkpt>
      <trkpt lat="46.32598" lon="2.85067">
        <ele>304</ele>
        <time>2019-11-01T09:35:15Z</time>
      </trkpt>
      <trkpt lat="46.32595" lon="2.85068">
        <ele>304.1</ele>
        <time>2019-11-01T09:35:16Z</time>
      </trkpt>
      <trkpt lat="46.32592" lon="2.85068">
        <ele>304.3</ele>
        <time>2019-11-01T09:35:17Z</time>
      </trkpt>
      <trkpt lat="46.3259" lon="2.85069">
        <ele>304.4</ele>
        <time>2019-11-01T09:35:18Z</time>
      </trkpt>
      <trkpt lat="46.32587" lon="2.85069">
        <ele>304.5</ele>
        <time>2019-11-01T09:35:19Z</time>
      </trkpt>
      <trkpt lat="46.32583" lon="2.8507">
        <ele>304.7</ele>
        <time>2019-11-01T09:35:20Z</time>
      </trkpt>
      <trkpt lat="46.32581" lon="2.8507">
        <ele>304.8</ele>
        <time>2019-11-01T09:35:21Z</time>
      </trkpt>
      <trkpt lat="46.32578" lon="2.85071">
        <ele>305</ele>
        <time>2019-11-01T09:35:22Z</time>
      </trkpt>
      <trkpt lat="46.32575" lon="2.85072">
        <ele>305.1</ele>
        <time>2019-11-01T09:35:23Z</time>
      </trkpt>
      <trkpt lat="46.32572" lon="2.85073">
        <ele>305.3</ele>
        <time>2019-11-01T09:35:24Z</time>
      </trkpt>
      <trkpt lat="46.32569" lon="2.85073">
        <ele>305.6</ele>
        <time>2019-11-01T09:35:25Z</time>
      </trkpt>
      <trkpt lat="46.32566" lon="2.85074">
        <ele>305.8</ele>
        <time>2019-11-01T09:35:26Z</time>
      </trkpt>
      <trkpt lat="46.32563" lon="2.85075">
        <ele>306.1</ele>
        <time>2019-11-01T09:35:27Z</time>
      </trkpt>
      <trkpt lat="46.3256" lon="2.85075">
        <ele>306.4</ele>
        <time>2019-11-01T09:35:28Z</time>
      </trkpt>
      <trkpt lat="46.32557" lon="2.85076">
        <ele>306.6</ele>
        <time>2019-11-01T09:35:29Z</time>
      </trkpt>
      <trkpt lat="46.32554" lon="2.85076">
        <ele>306.8</ele>
        <time>2019-11-01T09:35:30Z</time>
      </trkpt>
      <trkpt lat="46.32551" lon="2.85076">
        <ele>307</ele>
        <time>2019-11-01T09:35:31Z</time>
      </trkpt>
      <trkpt lat="46.32548" lon="2.85076">
        <ele>307.2</ele>
        <time>2019-11-01T09:35:32Z</time>
      </trkpt>
      <trkpt lat="46.32545" lon="2.85076">
        <ele>307.3</ele>
        <time>2019-11-01T09:35:33Z</time>
      </trkpt>
      <trkpt lat="46.32542" lon="2.85075">
        <ele>307.5</ele>
        <time>2019-11-01T09:35:34Z</time>
      </trkpt>
      <trkpt lat="46.32539" lon="2.85074">
        <ele>307.7</ele>
        <time>2019-11-01T09:35:35Z</time>
      </trkpt>
      <trkpt lat="46.32535" lon="2.85072">
        <ele>307.9</ele>
        <time>2019-11-01T09:35:36Z</time>
      </trkpt>
      <trkpt lat="46.32532" lon="2.85071">
        <ele>308</ele>
        <time>2019-11-01T09:35:37Z</time>
      </trkpt>
      <trkpt lat="46.32529" lon="2.8507">
        <ele>308.2</ele>
        <time>2019-11-01T09:35:38Z</time>
      </trkpt>
      <trkpt lat="46.32527" lon="2.8507">
        <ele>308.4</ele>
        <time>2019-11-01T09:35:39Z</time>
      </trkpt>
      <trkpt lat="46.32523" lon="2.85069">
        <ele>308.5</ele>
        <time>2019-11-01T09:35:40Z</time>
      </trkpt>
      <trkpt lat="46.3252" lon="2.85069">
        <ele>308.8</ele>
        <time>2019-11-01T09:35:41Z</time>
      </trkpt>
      <trkpt lat="46.32517" lon="2.85069">
        <ele>309</ele>
        <time>2019-11-01T09:35:42Z</time>
      </trkpt>
      <trkpt lat="46.32514" lon="2.85069">
        <ele>309.1</ele>
        <time>2019-11-01T09:35:43Z</time>
      </trkpt>
      <trkpt lat="46.32511" lon="2.85069">
        <ele>309.4</ele>
        <time>2019-11-01T09:35:44Z</time>
      </trkpt>
      <trkpt lat="46.32509" lon="2.8507">
        <ele>309.4</ele>
        <time>2019-11-01T09:35:45Z</time>
      </trkpt>
      <trkpt lat="46.32506" lon="2.85072">
        <ele>309.4</ele>
        <time>2019-11-01T09:35:46Z</time>
      </trkpt>
      <trkpt lat="46.32503" lon="2.85073">
        <ele>309.4</ele>
        <time>2019-11-01T09:35:47Z</time>
      </trkpt>
      <trkpt lat="46.32501" lon="2.85075">
        <ele>309.5</ele>
        <time>2019-11-01T09:35:48Z</time>
      </trkpt>
      <trkpt lat="46.32498" lon="2.85076">
        <ele>309.7</ele>
        <time>2019-11-01T09:35:49Z</time>
      </trkpt>
      <trkpt lat="46.32496" lon="2.85078">
        <ele>309.9</ele>
        <time>2019-11-01T09:35:50Z</time>
      </trkpt>
      <trkpt lat="46.32494" lon="2.85078">
        <ele>310.2</ele>
        <time>2019-11-01T09:35:51Z</time>
      </trkpt>
      <trkpt lat="46.32492" lon="2.85079">
        <ele>310.2</ele>
        <time>2019-11-01T09:35:52Z</time>
      </trkpt>
      <trkpt lat="46.3249" lon="2.85079">
        <ele>310.4</ele>
        <time>2019-11-01T09:35:53Z</time>
      </trkpt>
      <trkpt lat="46.32488" lon="2.8508">
        <ele>310.5</ele>
        <time>2019-11-01T09:35:54Z</time>
      </trkpt>
      <trkpt lat="46.32486" lon="2.85081">
        <ele>310.5</ele>
        <time>2019-11-01T09:35:55Z</time>
      </trkpt>
      <trkpt lat="46.32484" lon="2.85081">
        <ele>310.7</ele>
        <time>2019-11-01T09:35:56Z</time>
      </trkpt>
      <trkpt lat="46.32483" lon="2.85082">
        <ele>310.7</ele>
        <time>2019-11-01T09:35:57Z</time>
      </trkpt>
      <trkpt lat="46.32481" lon="2.85083">
        <ele>310.9</ele>
        <time>2019-11-01T09:35:58Z</time>
      </trkpt>
      <trkpt lat="46.32479" lon="2.85084">
        <ele>311.1</ele>
        <time>2019-11-01T09:35:59Z</time>
      </trkpt>
      <trkpt lat="46.32478" lon="2.85085">
        <ele>311.1</ele>
        <time>2019-11-01T09:36:00Z</time>
      </trkpt>
      <trkpt lat="46.32476" lon="2.85086">
        <ele>311.3</ele>
        <time>2019-11-01T09:36:01Z</time>
      </trkpt>
      <trkpt lat="46.32475" lon="2.85087">
        <ele>311.4</ele>
        <time>2019-11-01T09:36:02Z</time>
      </trkpt>
      <trkpt lat="46.32473" lon="2.85089">
        <ele>311.6</ele>
        <time>2019-11-01T09:36:03Z</time>
      </trkpt>
      <trkpt lat="46.32472" lon="2.8509">
        <ele>311.6</ele>
        <time>2019-11-01T09:36:04Z</time>
      </trkpt>
      <trkpt lat="46.3247" lon="2.85091">
        <ele>311.9</ele>
        <time>2019-11-01T09:36:05Z</time>
      </trkpt>
      <trkpt lat="46.32469" lon="2.85092">
        <ele>311.9</ele>
        <time>2019-11-01T09:36:06Z</time>
      </trkpt>
      <trkpt lat="46.32467" lon="2.85093">
        <ele>312.1</ele>
        <time>2019-11-01T09:36:07Z</time>
      </trkpt>
      <trkpt lat="46.32465" lon="2.85094">
        <ele>312.1</ele>
        <time>2019-11-01T09:36:08Z</time>
      </trkpt>
      <trkpt lat="46.32464" lon="2.85094">
        <ele>312.3</ele>
        <time>2019-11-01T09:36:09Z</time>
      </trkpt>
      <trkpt lat="46.32462" lon="2.85095">
        <ele>312.3</ele>
        <time>2019-11-01T09:36:10Z</time>
      </trkpt>
      <trkpt lat="46.3246" lon="2.85095">
        <ele>312.5</ele>
        <time>2019-11-01T09:36:11Z</time>
      </trkpt>
      <trkpt lat="46.32458" lon="2.85096">
        <ele>312.8</ele>
        <time>2019-11-01T09:36:12Z</time>
      </trkpt>
      <trkpt lat="46.32456" lon="2.85096">
        <ele>312.8</ele>
        <time>2019-11-01T09:36:13Z</time>
      </trkpt>
      <trkpt lat="46.32454" lon="2.85096">
        <ele>313</ele>
        <time>2019-11-01T09:36:14Z</time>
      </trkpt>
      <trkpt lat="46.32452" lon="2.85096">
        <ele>313.3</ele>
        <time>2019-11-01T09:36:15Z</time>
      </trkpt>
      <trkpt lat="46.32449" lon="2.85097">
        <ele>313.5</ele>
        <time>2019-11-01T09:36:16Z</time>
      </trkpt>
      <trkpt lat="46.32446" lon="2.85097">
        <ele>313.8</ele>
        <time>2019-11-01T09:36:17Z</time>
      </trkpt>
      <trkpt lat="46.32443" lon="2.85097">
        <ele>314.1</ele>
        <time>2019-11-01T09:36:18Z</time>
      </trkpt>
      <trkpt lat="46.32441" lon="2.85097">
        <ele>314.4</ele>
        <time>2019-11-01T09:36:19Z</time>
      </trkpt>
      <trkpt lat="46.32438" lon="2.85097">
        <ele>314.4</ele>
        <time>2019-11-01T09:36:20Z</time>
      </trkpt>
      <trkpt lat="46.32435" lon="2.85098">
        <ele>314.7</ele>
        <time>2019-11-01T09:36:21Z</time>
      </trkpt>
      <trkpt lat="46.32433" lon="2.85097">
        <ele>315</ele>
        <time>2019-11-01T09:36:22Z</time>
      </trkpt>
      <trkpt lat="46.32431" lon="2.85097">
        <ele>315.3</ele>
        <time>2019-11-01T09:36:23Z</time>
      </trkpt>
      <trkpt lat="46.32427" lon="2.85097">
        <ele>315.6</ele>
        <time>2019-11-01T09:36:24Z</time>
      </trkpt>
      <trkpt lat="46.32425" lon="2.85097">
        <ele>315.8</ele>
        <time>2019-11-01T09:36:25Z</time>
      </trkpt>
      <trkpt lat="46.32422" lon="2.85097">
        <ele>316.1</ele>
        <time>2019-11-01T09:36:26Z</time>
      </trkpt>
      <trkpt lat="46.32418" lon="2.85096">
        <ele>316.4</ele>
        <time>2019-11-01T09:36:27Z</time>
      </trkpt>
      <trkpt lat="46.32415" lon="2.85096">
        <ele>316.9</ele>
        <time>2019-11-01T09:36:28Z</time>
      </trkpt>
      <trkpt lat="46.32413" lon="2.85095">
        <ele>317.2</ele>
        <time>2019-11-01T09:36:29Z</time>
      </trkpt>
      <trkpt lat="46.3241" lon="2.85095">
        <ele>317.4</ele>
        <time>2019-11-01T09:36:30Z</time>
      </trkpt>
      <trkpt lat="46.32406" lon="2.85094">
        <ele>317.7</ele>
        <time>2019-11-01T09:36:31Z</time>
      </trkpt>
      <trkpt lat="46.32403" lon="2.85093">
        <ele>317.9</ele>
        <time>2019-11-01T09:36:32Z</time>
      </trkpt>
      <trkpt lat="46.324" lon="2.85091">
        <ele>318.2</ele>
        <time>2019-11-01T09:36:33Z</time>
      </trkpt>
      <trkpt lat="46.32398" lon="2.8509">
        <ele>318.4</ele>
        <time>2019-11-01T09:36:34Z</time>
      </trkpt>
      <trkpt lat="46.32395" lon="2.85088">
        <ele>318.7</ele>
        <time>2019-11-01T09:36:35Z</time>
      </trkpt>
      <trkpt lat="46.32392" lon="2.85086">
        <ele>318.9</ele>
        <time>2019-11-01T09:36:36Z</time>
      </trkpt>
      <trkpt lat="46.32388" lon="2.85084">
        <ele>319.3</ele>
        <time>2019-11-01T09:36:37Z</time>
      </trkpt>
      <trkpt lat="46.32386" lon="2.85081">
        <ele>319.5</ele>
        <time>2019-11-01T09:36:38Z</time>
      </trkpt>
      <trkpt lat="46.32383" lon="2.8508">
        <ele>319.8</ele>
        <time>2019-11-01T09:36:39Z</time>
      </trkpt>
      <trkpt lat="46.32381" lon="2.85077">
        <ele>320</ele>
        <time>2019-11-01T09:36:40Z</time>
      </trkpt>
      <trkpt lat="46.32378" lon="2.85075">
        <ele>320.3</ele>
        <time>2019-11-01T09:36:41Z</time>
      </trkpt>
      <trkpt lat="46.32375" lon="2.85073">
        <ele>320.5</ele>
        <time>2019-11-01T09:36:42Z</time>
      </trkpt>
      <trkpt lat="46.32372" lon="2.85071">
        <ele>320.7</ele>
        <time>2019-11-01T09:36:43Z</time>
      </trkpt>
      <trkpt lat="46.32369" lon="2.85069">
        <ele>320.9</ele>
        <time>2019-11-01T09:36:44Z</time>
      </trkpt>
      <trkpt lat="46.32367" lon="2.85066">
        <ele>320.9</ele>
        <time>2019-11-01T09:36:45Z</time>
      </trkpt>
      <trkpt lat="46.32365" lon="2.85063">
        <ele>320.9</ele>
        <time>2019-11-01T09:36:46Z</time>
      </trkpt>
      <trkpt lat="46.32362" lon="2.8506">
        <ele>321</ele>
        <time>2019-11-01T09:36:47Z</time>
      </trkpt>
      <trkpt lat="46.3236" lon="2.85056">
        <ele>321.1</ele>
        <time>2019-11-01T09:36:48Z</time>
      </trkpt>
      <trkpt lat="46.32358" lon="2.85053">
        <ele>321.1</ele>
        <time>2019-11-01T09:36:49Z</time>
      </trkpt>
      <trkpt lat="46.32356" lon="2.85049">
        <ele>321.1</ele>
        <time>2019-11-01T09:36:50Z</time>
      </trkpt>
      <trkpt lat="46.32354" lon="2.85046">
        <ele>321.2</ele>
        <time>2019-11-01T09:36:51Z</time>
      </trkpt>
      <trkpt lat="46.32351" lon="2.85043">
        <ele>321.2</ele>
        <time>2019-11-01T09:36:52Z</time>
      </trkpt>
      <trkpt lat="46.32349" lon="2.85039">
        <ele>321.1</ele>
        <time>2019-11-01T09:36:53Z</time>
      </trkpt>
      <trkpt lat="46.32347" lon="2.85035">
        <ele>321.3</ele>
        <time>2019-11-01T09:36:54Z</time>
      </trkpt>
      <trkpt lat="46.32345" lon="2.85032">
        <ele>321.4</ele>
        <time>2019-11-01T09:36:55Z</time>
      </trkpt>
      <trkpt lat="46.32342" lon="2.85027">
        <ele>321.5</ele>
        <time>2019-11-01T09:36:56Z</time>
      </trkpt>
      <trkpt lat="46.32341" lon="2.85023">
        <ele>321.4</ele>
        <time>2019-11-01T09:36:57Z</time>
      </trkpt>
      <trkpt lat="46.32339" lon="2.85019">
        <ele>321.6</ele>
        <time>2019-11-01T09:36:58Z</time>
      </trkpt>
      <trkpt lat="46.32337" lon="2.85016">
        <ele>321.9</ele>
        <time>2019-11-01T09:36:59Z</time>
      </trkpt>
      <trkpt lat="46.32335" lon="2.85012">
        <ele>321.8</ele>
        <time>2019-11-01T09:37:00Z</time>
      </trkpt>
      <trkpt lat="46.32333" lon="2.85007">
        <ele>322.1</ele>
        <time>2019-11-01T09:37:01Z</time>
      </trkpt>
      <trkpt lat="46.32331" lon="2.85003">
        <ele>322.3</ele>
        <time>2019-11-01T09:37:02Z</time>
      </trkpt>
      <trkpt lat="46.3233" lon="2.84999">
        <ele>322.3</ele>
        <time>2019-11-01T09:37:03Z</time>
      </trkpt>
      <trkpt lat="46.32328" lon="2.84995">
        <ele>322.5</ele>
        <time>2019-11-01T09:37:04Z</time>
      </trkpt>
      <trkpt lat="46.32326" lon="2.84989">
        <ele>322.4</ele>
        <time>2019-11-01T09:37:05Z</time>
      </trkpt>
      <trkpt lat="46.32324" lon="2.84984">
        <ele>322.6</ele>
        <time>2019-11-01T09:37:06Z</time>
      </trkpt>
      <trkpt lat="46.32322" lon="2.84979">
        <ele>322.7</ele>
        <time>2019-11-01T09:37:07Z</time>
      </trkpt>
      <trkpt lat="46.32321" lon="2.84975">
        <ele>322.7</ele>
        <time>2019-11-01T09:37:08Z</time>
      </trkpt>
      <trkpt lat="46.32319" lon="2.8497">
        <ele>323</ele>
        <time>2019-11-01T09:37:09Z</time>
      </trkpt>
      <trkpt lat="46.32317" lon="2.84964">
        <ele>323</ele>
        <time>2019-11-01T09:37:10Z</time>
      </trkpt>
      <trkpt lat="46.32315" lon="2.84959">
        <ele>323.2</ele>
        <time>2019-11-01T09:37:11Z</time>
      </trkpt>
      <trkpt lat="46.32313" lon="2.84955">
        <ele>323.4</ele>
        <time>2019-11-01T09:37:12Z</time>
      </trkpt>
      <trkpt lat="46.32312" lon="2.84949">
        <ele>323.3</ele>
        <time>2019-11-01T09:37:13Z</time>
      </trkpt>
      <trkpt lat="46.3231" lon="2.84944">
        <ele>323.5</ele>
        <time>2019-11-01T09:37:14Z</time>
      </trkpt>
      <trkpt lat="46.32308" lon="2.84938">
        <ele>323.4</ele>
        <time>2019-11-01T09:37:15Z</time>
      </trkpt>
      <trkpt lat="46.32306" lon="2.84933">
        <ele>323.7</ele>
        <time>2019-11-01T09:37:16Z</time>
      </trkpt>
      <trkpt lat="46.32304" lon="2.84927">
        <ele>324</ele>
        <time>2019-11-01T09:37:17Z</time>
      </trkpt>
      <trkpt lat="46.32302" lon="2.84921">
        <ele>323.9</ele>
        <time>2019-11-01T09:37:18Z</time>
      </trkpt>
      <trkpt lat="46.323" lon="2.84916">
        <ele>324.3</ele>
        <time>2019-11-01T09:37:19Z</time>
      </trkpt>
      <trkpt lat="46.32298" lon="2.8491">
        <ele>324.5</ele>
        <time>2019-11-01T09:37:20Z</time>
      </trkpt>
      <trkpt lat="46.32296" lon="2.84904">
        <ele>324.7</ele>
        <time>2019-11-01T09:37:21Z</time>
      </trkpt>
      <trkpt lat="46.32294" lon="2.84899">
        <ele>324.6</ele>
        <time>2019-11-01T09:37:22Z</time>
      </trkpt>
      <trkpt lat="46.32292" lon="2.84894">
        <ele>324.6</ele>
        <time>2019-11-01T09:37:23Z</time>
      </trkpt>
      <trkpt lat="46.3229" lon="2.84887">
        <ele>324.5</ele>
        <time>2019-11-01T09:37:24Z</time>
      </trkpt>
      <trkpt lat="46.32288" lon="2.84882">
        <ele>324.6</ele>
        <time>2019-11-01T09:37:25Z</time>
      </trkpt>
      <trkpt lat="46.32286" lon="2.84876">
        <ele>324.7</ele>
        <time>2019-11-01T09:37:26Z</time>
      </trkpt>
      <trkpt lat="46.32285" lon="2.84871">
        <ele>324.6</ele>
        <time>2019-11-01T09:37:27Z</time>
      </trkpt>
      <trkpt lat="46.32283" lon="2.84866">
        <ele>324.9</ele>
        <time>2019-11-01T09:37:28Z</time>
      </trkpt>
      <trkpt lat="46.3228" lon="2.84859">
        <ele>325.2</ele>
        <time>2019-11-01T09:37:29Z</time>
      </trkpt>
      <trkpt lat="46.32279" lon="2.84854">
        <ele>325.3</ele>
        <time>2019-11-01T09:37:30Z</time>
      </trkpt>
      <trkpt lat="46.32277" lon="2.84849">
        <ele>325.5</ele>
        <time>2019-11-01T09:37:31Z</time>
      </trkpt>
      <trkpt lat="46.32276" lon="2.84844">
        <ele>325.6</ele>
        <time>2019-11-01T09:37:32Z</time>
      </trkpt>
      <trkpt lat="46.32274" lon="2.84839">
        <ele>325.8</ele>
        <time>2019-11-01T09:37:33Z</time>
      </trkpt>
      <trkpt lat="46.32272" lon="2.84833">
        <ele>325.9</ele>
        <time>2019-11-01T09:37:34Z</time>
      </trkpt>
      <trkpt lat="46.3227" lon="2.84827">
        <ele>325.8</ele>
        <time>2019-11-01T09:37:35Z</time>
      </trkpt>
      <trkpt lat="46.32268" lon="2.84823">
        <ele>325.9</ele>
        <time>2019-11-01T09:37:36Z</time>
      </trkpt>
      <trkpt lat="46.32266" lon="2.84817">
        <ele>325.7</ele>
        <time>2019-11-01T09:37:37Z</time>
      </trkpt>
      <trkpt lat="46.32264" lon="2.8481">
        <ele>325.6</ele>
        <time>2019-11-01T09:37:38Z</time>
      </trkpt>
      <trkpt lat="46.32262" lon="2.84805">
        <ele>325.7</ele>
        <time>2019-11-01T09:37:39Z</time>
      </trkpt>
      <trkpt lat="46.32259" lon="2.84798">
        <ele>325.7</ele>
        <time>2019-11-01T09:37:40Z</time>
      </trkpt>
      <trkpt lat="46.32257" lon="2.84793">
        <ele>325.6</ele>
        <time>2019-11-01T09:37:41Z</time>
      </trkpt>
      <trkpt lat="46.32255" lon="2.84787">
        <ele>325.8</ele>
        <time>2019-11-01T09:37:42Z</time>
      </trkpt>
      <trkpt lat="46.32253" lon="2.8478">
        <ele>326</ele>
        <time>2019-11-01T09:37:43Z</time>
      </trkpt>
      <trkpt lat="46.32251" lon="2.84775">
        <ele>326.3</ele>
        <time>2019-11-01T09:37:58Z</time>
      </trkpt>
      <trkpt lat="46.32249" lon="2.84769">
        <ele>326.3</ele>
        <time>2019-11-01T09:37:59Z</time>
      </trkpt>
      <trkpt lat="46.32247" lon="2.84765">
        <ele>326.5</ele>
        <time>2019-11-01T09:38:00Z</time>
      </trkpt>
      <trkpt lat="46.32245" lon="2.8476">
        <ele>326.7</ele>
        <time>2019-11-01T09:38:01Z</time>
      </trkpt>
      <trkpt lat="46.32243" lon="2.84755">
        <ele>326.7</ele>
        <time>2019-11-01T09:38:02Z</time>
      </trkpt>
      <trkpt lat="46.32241" lon="2.8475">
        <ele>326.8</ele>
        <time>2019-11-01T09:38:03Z</time>
      </trkpt>
      <trkpt lat="46.3224" lon="2.84745">
        <ele>326.7</ele>
        <time>2019-11-01T09:38:04Z</time>
      </trkpt>
      <trkpt lat="46.32238" lon="2.84742">
        <ele>326.8</ele>
        <time>2019-11-01T09:38:05Z</time>
      </trkpt>
      <trkpt lat="46.32237" lon="2.84737">
        <ele>326.7</ele>
        <time>2019-11-01T09:38:06Z</time>
      </trkpt>
      <trkpt lat="46.32235" lon="2.84733">
        <ele>326.7</ele>
        <time>2019-11-01T09:38:07Z</time>
      </trkpt>
      <trkpt lat="46.32234" lon="2.8473">
        <ele>326.6</ele>
        <time>2019-11-01T09:38:08Z</time>
      </trkpt>
      <trkpt lat="46.32234" lon="2.84729">
        <ele>326.6</ele>
        <time>2019-11-01T09:38:09Z</time>
      </trkpt>
      <trkpt lat="46.32233" lon="2.84729">
        <ele>326.7</ele>
        <time>2019-11-01T09:38:10Z</time>
      </trkpt>
      <trkpt lat="46.32233" lon="2.8473">
        <ele>326.7</ele>
        <time>2019-11-01T09:38:11Z</time>
      </trkpt>
      <trkpt lat="46.32233" lon="2.8473">
        <ele>326.7</ele>
        <time>2019-11-01T09:38:12Z</time>
      </trkpt>
      <trkpt lat="46.32233" lon="2.8473">
        <ele>326.7</ele>
        <time>2019-11-01T09:38:13Z</time>
      </trkpt>
      <trkpt lat="46.32232" lon="2.84727">
        <ele>326.7</ele>
        <time>2019-11-01T09:38:14Z</time>
      </trkpt>
      <trkpt lat="46.32231" lon="2.84723">
        <ele>326.6</ele>
        <time>2019-11-01T09:38:15Z</time>
      </trkpt>
      <trkpt lat="46.3223" lon="2.84718">
        <ele>326.6</ele>
        <time>2019-11-01T09:38:16Z</time>
      </trkpt>
      <trkpt lat="46.32229" lon="2.84712">
        <ele>326.3</ele>
        <time>2019-11-01T09:38:17Z</time>
      </trkpt>
      <trkpt lat="46.32228" lon="2.84707">
        <ele>326.2</ele>
        <time>2019-11-01T09:38:18Z</time>
      </trkpt>
      <trkpt lat="46.32226" lon="2.84702">
        <ele>326.2</ele>
        <time>2019-11-01T09:38:19Z</time>
      </trkpt>
      <trkpt lat="46.32226" lon="2.84696">
        <ele>326.1</ele>
        <time>2019-11-01T09:38:20Z</time>
      </trkpt>
      <trkpt lat="46.32225" lon="2.84691">
        <ele>326.2</ele>
        <time>2019-11-01T09:38:21Z</time>
      </trkpt>
      <trkpt lat="46.32224" lon="2.84685">
        <ele>326.1</ele>
        <time>2019-11-01T09:38:22Z</time>
      </trkpt>
      <trkpt lat="46.32223" lon="2.8468">
        <ele>326.1</ele>
        <time>2019-11-01T09:38:23Z</time>
      </trkpt>
      <trkpt lat="46.32221" lon="2.84675">
        <ele>326.2</ele>
        <time>2019-11-01T09:38:24Z</time>
      </trkpt>
      <trkpt lat="46.3222" lon="2.84669">
        <ele>326</ele>
        <time>2019-11-01T09:38:25Z</time>
      </trkpt>
      <trkpt lat="46.32219" lon="2.84664">
        <ele>325.9</ele>
        <time>2019-11-01T09:38:26Z</time>
      </trkpt>
      <trkpt lat="46.32218" lon="2.84658">
        <ele>326.1</ele>
        <time>2019-11-01T09:38:27Z</time>
      </trkpt>
      <trkpt lat="46.32216" lon="2.84653">
        <ele>326</ele>
        <time>2019-11-01T09:38:28Z</time>
      </trkpt>
      <trkpt lat="46.32215" lon="2.84647">
        <ele>326.2</ele>
        <time>2019-11-01T09:38:29Z</time>
      </trkpt>
      <trkpt lat="46.32214" lon="2.84641">
        <ele>326.2</ele>
        <time>2019-11-01T09:38:30Z</time>
      </trkpt>
      <trkpt lat="46.32213" lon="2.84636">
        <ele>326.1</ele>
        <time>2019-11-01T09:38:31Z</time>
      </trkpt>
      <trkpt lat="46.32212" lon="2.8463">
        <ele>326.3</ele>
        <time>2019-11-01T09:38:32Z</time>
      </trkpt>
      <trkpt lat="46.32211" lon="2.84625">
        <ele>326.3</ele>
        <time>2019-11-01T09:38:33Z</time>
      </trkpt>
      <trkpt lat="46.3221" lon="2.8462">
        <ele>326.5</ele>
        <time>2019-11-01T09:38:34Z</time>
      </trkpt>
      <trkpt lat="46.32208" lon="2.84614">
        <ele>326.4</ele>
        <time>2019-11-01T09:38:35Z</time>
      </trkpt>
      <trkpt lat="46.32206" lon="2.84609">
        <ele>326.6</ele>
        <time>2019-11-01T09:38:36Z</time>
      </trkpt>
      <trkpt lat="46.32204" lon="2.84603">
        <ele>326.5</ele>
        <time>2019-11-01T09:38:37Z</time>
      </trkpt>
      <trkpt lat="46.32203" lon="2.84598">
        <ele>326.7</ele>
        <time>2019-11-01T09:38:38Z</time>
      </trkpt>
      <trkpt lat="46.32201" lon="2.84593">
        <ele>326.5</ele>
        <time>2019-11-01T09:38:39Z</time>
      </trkpt>
      <trkpt lat="46.322" lon="2.84587">
        <ele>326.6</ele>
        <time>2019-11-01T09:38:40Z</time>
      </trkpt>
      <trkpt lat="46.32198" lon="2.84583">
        <ele>326.8</ele>
        <time>2019-11-01T09:38:41Z</time>
      </trkpt>
      <trkpt lat="46.32196" lon="2.84578">
        <ele>326.7</ele>
        <time>2019-11-01T09:38:42Z</time>
      </trkpt>
      <trkpt lat="46.32194" lon="2.84573">
        <ele>327</ele>
        <time>2019-11-01T09:38:43Z</time>
      </trkpt>
      <trkpt lat="46.32193" lon="2.84568">
        <ele>327</ele>
        <time>2019-11-01T09:38:44Z</time>
      </trkpt>
      <trkpt lat="46.32191" lon="2.84563">
        <ele>327.3</ele>
        <time>2019-11-01T09:38:45Z</time>
      </trkpt>
      <trkpt lat="46.32189" lon="2.84557">
        <ele>327.6</ele>
        <time>2019-11-01T09:38:46Z</time>
      </trkpt>
      <trkpt lat="46.32187" lon="2.84551">
        <ele>327.6</ele>
        <time>2019-11-01T09:38:47Z</time>
      </trkpt>
      <trkpt lat="46.32185" lon="2.84546">
        <ele>328.1</ele>
        <time>2019-11-01T09:38:48Z</time>
      </trkpt>
      <trkpt lat="46.32183" lon="2.8454">
        <ele>328.5</ele>
        <time>2019-11-01T09:38:49Z</time>
      </trkpt>
      <trkpt lat="46.32181" lon="2.84534">
        <ele>328.6</ele>
        <time>2019-11-01T09:38:50Z</time>
      </trkpt>
      <trkpt lat="46.32179" lon="2.84529">
        <ele>329</ele>
        <time>2019-11-01T09:38:51Z</time>
      </trkpt>
      <trkpt lat="46.32177" lon="2.84524">
        <ele>329.2</ele>
        <time>2019-11-01T09:38:52Z</time>
      </trkpt>
      <trkpt lat="46.32175" lon="2.84519">
        <ele>329.7</ele>
        <time>2019-11-01T09:38:53Z</time>
      </trkpt>
      <trkpt lat="46.32173" lon="2.84513">
        <ele>330.1</ele>
        <time>2019-11-01T09:38:54Z</time>
      </trkpt>
      <trkpt lat="46.32171" lon="2.84508">
        <ele>330.6</ele>
        <time>2019-11-01T09:38:55Z</time>
      </trkpt>
      <trkpt lat="46.32169" lon="2.84502">
        <ele>330.7</ele>
        <time>2019-11-01T09:38:56Z</time>
      </trkpt>
      <trkpt lat="46.32167" lon="2.84497">
        <ele>331.1</ele>
        <time>2019-11-01T09:38:57Z</time>
      </trkpt>
      <trkpt lat="46.32166" lon="2.84492">
        <ele>331.1</ele>
        <time>2019-11-01T09:38:58Z</time>
      </trkpt>
      <trkpt lat="46.32164" lon="2.84487">
        <ele>331.5</ele>
        <time>2019-11-01T09:38:59Z</time>
      </trkpt>
      <trkpt lat="46.32162" lon="2.8448">
        <ele>331.4</ele>
        <time>2019-11-01T09:39:00Z</time>
      </trkpt>
      <trkpt lat="46.3216" lon="2.84475">
        <ele>331.7</ele>
        <time>2019-11-01T09:39:01Z</time>
      </trkpt>
      <trkpt lat="46.32158" lon="2.84469">
        <ele>331.8</ele>
        <time>2019-11-01T09:39:02Z</time>
      </trkpt>
      <trkpt lat="46.32157" lon="2.84462">
        <ele>331.7</ele>
        <time>2019-11-01T09:39:03Z</time>
      </trkpt>
      <trkpt lat="46.32155" lon="2.84456">
        <ele>331.9</ele>
        <time>2019-11-01T09:39:04Z</time>
      </trkpt>
      <trkpt lat="46.32153" lon="2.8445">
        <ele>332.1</ele>
        <time>2019-11-01T09:39:05Z</time>
      </trkpt>
      <trkpt lat="46.32151" lon="2.84443">
        <ele>332</ele>
        <time>2019-11-01T09:39:06Z</time>
      </trkpt>
      <trkpt lat="46.32149" lon="2.84437">
        <ele>332.3</ele>
        <time>2019-11-01T09:39:07Z</time>
      </trkpt>
      <trkpt lat="46.32147" lon="2.8443">
        <ele>332.4</ele>
        <time>2019-11-01T09:39:08Z</time>
      </trkpt>
      <trkpt lat="46.32145" lon="2.84422">
        <ele>332.3</ele>
        <time>2019-11-01T09:39:09Z</time>
      </trkpt>
      <trkpt lat="46.32144" lon="2.84416">
        <ele>332.4</ele>
        <time>2019-11-01T09:39:10Z</time>
      </trkpt>
      <trkpt lat="46.32143" lon="2.8441">
        <ele>332.2</ele>
        <time>2019-11-01T09:39:11Z</time>
      </trkpt>
      <trkpt lat="46.32142" lon="2.84404">
        <ele>332.3</ele>
        <time>2019-11-01T09:39:12Z</time>
      </trkpt>
      <trkpt lat="46.3214" lon="2.84396">
        <ele>332.2</ele>
        <time>2019-11-01T09:39:13Z</time>
      </trkpt>
      <trkpt lat="46.32138" lon="2.8439">
        <ele>332.5</ele>
        <time>2019-11-01T09:39:14Z</time>
      </trkpt>
      <trkpt lat="46.32136" lon="2.84384">
        <ele>332.4</ele>
        <time>2019-11-01T09:39:15Z</time>
      </trkpt>
      <trkpt lat="46.32134" lon="2.84378">
        <ele>332.8</ele>
        <time>2019-11-01T09:39:16Z</time>
      </trkpt>
      <trkpt lat="46.32131" lon="2.84372">
        <ele>333.2</ele>
        <time>2019-11-01T09:39:17Z</time>
      </trkpt>
      <trkpt lat="46.3213" lon="2.84366">
        <ele>333.5</ele>
        <time>2019-11-01T09:39:18Z</time>
      </trkpt>
      <trkpt lat="46.32128" lon="2.8436">
        <ele>333.3</ele>
        <time>2019-11-01T09:39:19Z</time>
      </trkpt>
      <trkpt lat="46.32126" lon="2.84354">
        <ele>333.6</ele>
        <time>2019-11-01T09:39:20Z</time>
      </trkpt>
      <trkpt lat="46.32124" lon="2.84347">
        <ele>333.5</ele>
        <time>2019-11-01T09:39:21Z</time>
      </trkpt>
      <trkpt lat="46.32122" lon="2.8434">
        <ele>333.9</ele>
        <time>2019-11-01T09:39:22Z</time>
      </trkpt>
      <trkpt lat="46.32119" lon="2.84334">
        <ele>334.3</ele>
        <time>2019-11-01T09:39:23Z</time>
      </trkpt>
      <trkpt lat="46.32118" lon="2.84328">
        <ele>334.4</ele>
        <time>2019-11-01T09:39:24Z</time>
      </trkpt>
      <trkpt lat="46.32117" lon="2.84322">
        <ele>334.9</ele>
        <time>2019-11-01T09:39:25Z</time>
      </trkpt>
      <trkpt lat="46.32115" lon="2.84315">
        <ele>335.3</ele>
        <time>2019-11-01T09:39:26Z</time>
      </trkpt>
      <trkpt lat="46.32112" lon="2.84308">
        <ele>335.4</ele>
        <time>2019-11-01T09:39:27Z</time>
      </trkpt>
      <trkpt lat="46.3211" lon="2.84302">
        <ele>335.9</ele>
        <time>2019-11-01T09:39:28Z</time>
      </trkpt>
      <trkpt lat="46.32108" lon="2.84296">
        <ele>336.4</ele>
        <time>2019-11-01T09:39:29Z</time>
      </trkpt>
      <trkpt lat="46.32106" lon="2.84291">
        <ele>336.5</ele>
        <time>2019-11-01T09:39:30Z</time>
      </trkpt>
      <trkpt lat="46.32105" lon="2.84287">
        <ele>337</ele>
        <time>2019-11-01T09:39:31Z</time>
      </trkpt>
      <trkpt lat="46.32103" lon="2.84283">
        <ele>337</ele>
        <time>2019-11-01T09:39:32Z</time>
      </trkpt>
      <trkpt lat="46.32102" lon="2.84277">
        <ele>337.6</ele>
        <time>2019-11-01T09:39:33Z</time>
      </trkpt>
      <trkpt lat="46.321" lon="2.84271">
        <ele>337.6</ele>
        <time>2019-11-01T09:39:34Z</time>
      </trkpt>
      <trkpt lat="46.32098" lon="2.84265">
        <ele>338.2</ele>
        <time>2019-11-01T09:39:35Z</time>
      </trkpt>
      <trkpt lat="46.32097" lon="2.84259">
        <ele>338.8</ele>
        <time>2019-11-01T09:39:36Z</time>
      </trkpt>
      <trkpt lat="46.32095" lon="2.84252">
        <ele>339</ele>
        <time>2019-11-01T09:39:37Z</time>
      </trkpt>
      <trkpt lat="46.32094" lon="2.84246">
        <ele>339.6</ele>
        <time>2019-11-01T09:39:38Z</time>
      </trkpt>
      <trkpt lat="46.32092" lon="2.8424">
        <ele>339.8</ele>
        <time>2019-11-01T09:39:39Z</time>
      </trkpt>
      <trkpt lat="46.32091" lon="2.84233">
        <ele>340.3</ele>
        <time>2019-11-01T09:39:40Z</time>
      </trkpt>
      <trkpt lat="46.32089" lon="2.84226">
        <ele>340.2</ele>
        <time>2019-11-01T09:39:41Z</time>
      </trkpt>
      <trkpt lat="46.32088" lon="2.8422">
        <ele>340.6</ele>
        <time>2019-11-01T09:39:42Z</time>
      </trkpt>
      <trkpt lat="46.32086" lon="2.84213">
        <ele>340.4</ele>
        <time>2019-11-01T09:39:43Z</time>
      </trkpt>
      <trkpt lat="46.32085" lon="2.84207">
        <ele>340.3</ele>
        <time>2019-11-01T09:39:44Z</time>
      </trkpt>
      <trkpt lat="46.32084" lon="2.84201">
        <ele>340.8</ele>
        <time>2019-11-01T09:39:45Z</time>
      </trkpt>
      <trkpt lat="46.32082" lon="2.84194">
        <ele>341.3</ele>
        <time>2019-11-01T09:39:46Z</time>
      </trkpt>
      <trkpt lat="46.32081" lon="2.84188">
        <ele>341.1</ele>
        <time>2019-11-01T09:39:47Z</time>
      </trkpt>
      <trkpt lat="46.32079" lon="2.84182">
        <ele>341.4</ele>
        <time>2019-11-01T09:39:48Z</time>
      </trkpt>
      <trkpt lat="46.32077" lon="2.84175">
        <ele>341.1</ele>
        <time>2019-11-01T09:39:49Z</time>
      </trkpt>
      <trkpt lat="46.32075" lon="2.84169">
        <ele>341.3</ele>
        <time>2019-11-01T09:39:50Z</time>
      </trkpt>
      <trkpt lat="46.32073" lon="2.84162">
        <ele>341.4</ele>
        <time>2019-11-01T09:39:51Z</time>
      </trkpt>
      <trkpt lat="46.32072" lon="2.84156">
        <ele>341.2</ele>
        <time>2019-11-01T09:39:52Z</time>
      </trkpt>
      <trkpt lat="46.32069" lon="2.8415">
        <ele>341.2</ele>
        <time>2019-11-01T09:39:53Z</time>
      </trkpt>
      <trkpt lat="46.32067" lon="2.84144">
        <ele>341.5</ele>
        <time>2019-11-01T09:39:54Z</time>
      </trkpt>
      <trkpt lat="46.32065" lon="2.84138">
        <ele>340.9</ele>
        <time>2019-11-01T09:39:55Z</time>
      </trkpt>
      <trkpt lat="46.32063" lon="2.84132">
        <ele>341</ele>
        <time>2019-11-01T09:39:56Z</time>
      </trkpt>
      <trkpt lat="46.32061" lon="2.84126">
        <ele>341.1</ele>
        <time>2019-11-01T09:39:57Z</time>
      </trkpt>
      <trkpt lat="46.32059" lon="2.84119">
        <ele>340.5</ele>
        <time>2019-11-01T09:39:58Z</time>
      </trkpt>
      <trkpt lat="46.32058" lon="2.84111">
        <ele>340.3</ele>
        <time>2019-11-01T09:39:59Z</time>
      </trkpt>
      <trkpt lat="46.32055" lon="2.84104">
        <ele>340.1</ele>
        <time>2019-11-01T09:40:00Z</time>
      </trkpt>
      <trkpt lat="46.32053" lon="2.84097">
        <ele>339.8</ele>
        <time>2019-11-01T09:40:01Z</time>
      </trkpt>
      <trkpt lat="46.32051" lon="2.8409">
        <ele>339.6</ele>
        <time>2019-11-01T09:40:02Z</time>
      </trkpt>
      <trkpt lat="46.32048" lon="2.84082">
        <ele>339.3</ele>
        <time>2019-11-01T09:40:03Z</time>
      </trkpt>
      <trkpt lat="46.32046" lon="2.84076">
        <ele>339.4</ele>
        <time>2019-11-01T09:40:04Z</time>
      </trkpt>
      <trkpt lat="46.32043" lon="2.84069">
        <ele>339.1</ele>
        <time>2019-11-01T09:40:05Z</time>
      </trkpt>
      <trkpt lat="46.32041" lon="2.84062">
        <ele>339.1</ele>
        <time>2019-11-01T09:40:06Z</time>
      </trkpt>
      <trkpt lat="46.32038" lon="2.84054">
        <ele>338.6</ele>
        <time>2019-11-01T09:40:07Z</time>
      </trkpt>
      <trkpt lat="46.32035" lon="2.84048">
        <ele>337.8</ele>
        <time>2019-11-01T09:40:08Z</time>
      </trkpt>
      <trkpt lat="46.32033" lon="2.84042">
        <ele>337.8</ele>
        <time>2019-11-01T09:40:09Z</time>
      </trkpt>
      <trkpt lat="46.3203" lon="2.84034">
        <ele>337.5</ele>
        <time>2019-11-01T09:40:10Z</time>
      </trkpt>
      <trkpt lat="46.32028" lon="2.84027">
        <ele>337.6</ele>
        <time>2019-11-01T09:40:11Z</time>
      </trkpt>
      <trkpt lat="46.32024" lon="2.84018">
        <ele>337.6</ele>
        <time>2019-11-01T09:40:12Z</time>
      </trkpt>
      <trkpt lat="46.32022" lon="2.84013">
        <ele>337.7</ele>
        <time>2019-11-01T09:40:13Z</time>
      </trkpt>
      <trkpt lat="46.32019" lon="2.84005">
        <ele>337.8</ele>
        <time>2019-11-01T09:40:14Z</time>
      </trkpt>
      <trkpt lat="46.32016" lon="2.83997">
        <ele>338.1</ele>
        <time>2019-11-01T09:40:15Z</time>
      </trkpt>
      <trkpt lat="46.32013" lon="2.83989">
        <ele>338.1</ele>
        <time>2019-11-01T09:40:16Z</time>
      </trkpt>
      <trkpt lat="46.3201" lon="2.83981">
        <ele>338</ele>
        <time>2019-11-01T09:40:17Z</time>
      </trkpt>
      <trkpt lat="46.32007" lon="2.83974">
        <ele>338.1</ele>
        <time>2019-11-01T09:40:18Z</time>
      </trkpt>
      <trkpt lat="46.32004" lon="2.83966">
        <ele>338.1</ele>
        <time>2019-11-01T09:40:19Z</time>
      </trkpt>
      <trkpt lat="46.32002" lon="2.83959">
        <ele>338.3</ele>
        <time>2019-11-01T09:40:20Z</time>
      </trkpt>
      <trkpt lat="46.31999" lon="2.8395">
        <ele>338</ele>
        <time>2019-11-01T09:40:21Z</time>
      </trkpt>
      <trkpt lat="46.31997" lon="2.83943">
        <ele>338</ele>
        <time>2019-11-01T09:40:22Z</time>
      </trkpt>
      <trkpt lat="46.31994" lon="2.83934">
        <ele>338.1</ele>
        <time>2019-11-01T09:40:23Z</time>
      </trkpt>
      <trkpt lat="46.31992" lon="2.83926">
        <ele>338.3</ele>
        <time>2019-11-01T09:40:24Z</time>
      </trkpt>
      <trkpt lat="46.31991" lon="2.83919">
        <ele>338.2</ele>
        <time>2019-11-01T09:40:25Z</time>
      </trkpt>
      <trkpt lat="46.3199" lon="2.83912">
        <ele>338.5</ele>
        <time>2019-11-01T09:40:26Z</time>
      </trkpt>
      <trkpt lat="46.31989" lon="2.83904">
        <ele>338.5</ele>
        <time>2019-11-01T09:40:27Z</time>
      </trkpt>
      <trkpt lat="46.31987" lon="2.83896">
        <ele>338.8</ele>
        <time>2019-11-01T09:40:28Z</time>
      </trkpt>
      <trkpt lat="46.31987" lon="2.83888">
        <ele>338.8</ele>
        <time>2019-11-01T09:40:29Z</time>
      </trkpt>
      <trkpt lat="46.31987" lon="2.8388">
        <ele>338.9</ele>
        <time>2019-11-01T09:40:30Z</time>
      </trkpt>
      <trkpt lat="46.31987" lon="2.83872">
        <ele>339</ele>
        <time>2019-11-01T09:40:31Z</time>
      </trkpt>
      <trkpt lat="46.31986" lon="2.83864">
        <ele>339.3</ele>
        <time>2019-11-01T09:40:32Z</time>
      </trkpt>
      <trkpt lat="46.31986" lon="2.83856">
        <ele>339.4</ele>
        <time>2019-11-01T09:40:33Z</time>
      </trkpt>
      <trkpt lat="46.31987" lon="2.83848">
        <ele>339.6</ele>
        <time>2019-11-01T09:40:34Z</time>
      </trkpt>
      <trkpt lat="46.31987" lon="2.83839">
        <ele>339.7</ele>
        <time>2019-11-01T09:40:35Z</time>
      </trkpt>
      <trkpt lat="46.31988" lon="2.83831">
        <ele>339.6</ele>
        <time>2019-11-01T09:40:36Z</time>
      </trkpt>
      <trkpt lat="46.3199" lon="2.83823">
        <ele>339.6</ele>
        <time>2019-11-01T09:40:37Z</time>
      </trkpt>
      <trkpt lat="46.31991" lon="2.83815">
        <ele>339.5</ele>
        <time>2019-11-01T09:40:38Z</time>
      </trkpt>
      <trkpt lat="46.31992" lon="2.83807">
        <ele>339.8</ele>
        <time>2019-11-01T09:40:39Z</time>
      </trkpt>
      <trkpt lat="46.31993" lon="2.83798">
        <ele>340.1</ele>
        <time>2019-11-01T09:40:40Z</time>
      </trkpt>
      <trkpt lat="46.31994" lon="2.83789">
        <ele>340.1</ele>
        <time>2019-11-01T09:40:41Z</time>
      </trkpt>
      <trkpt lat="46.31995" lon="2.83781">
        <ele>340.3</ele>
        <time>2019-11-01T09:40:42Z</time>
      </trkpt>
      <trkpt lat="46.31996" lon="2.83773">
        <ele>340.5</ele>
        <time>2019-11-01T09:40:43Z</time>
      </trkpt>
      <trkpt lat="46.31997" lon="2.83764">
        <ele>340.2</ele>
        <time>2019-11-01T09:40:44Z</time>
      </trkpt>
      <trkpt lat="46.31997" lon="2.83758">
        <ele>340.3</ele>
        <time>2019-11-01T09:40:45Z</time>
      </trkpt>
      <trkpt lat="46.31998" lon="2.83751">
        <ele>340.5</ele>
        <time>2019-11-01T09:40:46Z</time>
      </trkpt>
      <trkpt lat="46.31998" lon="2.83744">
        <ele>340.6</ele>
        <time>2019-11-01T09:40:47Z</time>
      </trkpt>
      <trkpt lat="46.31999" lon="2.83737">
        <ele>340.7</ele>
        <time>2019-11-01T09:40:48Z</time>
      </trkpt>
      <trkpt lat="46.31999" lon="2.83729">
        <ele>340.9</ele>
        <time>2019-11-01T09:40:49Z</time>
      </trkpt>
      <trkpt lat="46.31998" lon="2.83722">
        <ele>341.1</ele>
        <time>2019-11-01T09:40:50Z</time>
      </trkpt>
      <trkpt lat="46.31998" lon="2.83714">
        <ele>341.2</ele>
        <time>2019-11-01T09:40:51Z</time>
      </trkpt>
      <trkpt lat="46.31996" lon="2.83707">
        <ele>341.8</ele>
        <time>2019-11-01T09:40:52Z</time>
      </trkpt>
      <trkpt lat="46.31995" lon="2.83699">
        <ele>341.9</ele>
        <time>2019-11-01T09:40:53Z</time>
      </trkpt>
      <trkpt lat="46.31994" lon="2.83691">
        <ele>342</ele>
        <time>2019-11-01T09:40:54Z</time>
      </trkpt>
      <trkpt lat="46.31993" lon="2.83686">
        <ele>342.3</ele>
        <time>2019-11-01T09:40:55Z</time>
      </trkpt>
      <trkpt lat="46.31992" lon="2.83679">
        <ele>342.3</ele>
        <time>2019-11-01T09:40:56Z</time>
      </trkpt>
      <trkpt lat="46.3199" lon="2.83673">
        <ele>342.7</ele>
        <time>2019-11-01T09:40:57Z</time>
      </trkpt>
      <trkpt lat="46.31989" lon="2.83667">
        <ele>342.7</ele>
        <time>2019-11-01T09:40:58Z</time>
      </trkpt>
      <trkpt lat="46.31987" lon="2.83662">
        <ele>342.9</ele>
        <time>2019-11-01T09:40:59Z</time>
      </trkpt>
      <trkpt lat="46.31985" lon="2.83657">
        <ele>342.8</ele>
        <time>2019-11-01T09:41:00Z</time>
      </trkpt>
      <trkpt lat="46.31984" lon="2.83654">
        <ele>343.1</ele>
        <time>2019-11-01T09:41:01Z</time>
      </trkpt>
      <trkpt lat="46.31981" lon="2.83649">
        <ele>343.3</ele>
        <time>2019-11-01T09:41:02Z</time>
      </trkpt>
      <trkpt lat="46.31979" lon="2.83643">
        <ele>343.2</ele>
        <time>2019-11-01T09:41:03Z</time>
      </trkpt>
      <trkpt lat="46.31976" lon="2.83637">
        <ele>343.4</ele>
        <time>2019-11-01T09:41:04Z</time>
      </trkpt>
      <trkpt lat="46.31973" lon="2.8363">
        <ele>343.6</ele>
        <time>2019-11-01T09:41:05Z</time>
      </trkpt>
      <trkpt lat="46.31971" lon="2.83626">
        <ele>343.8</ele>
        <time>2019-11-01T09:41:06Z</time>
      </trkpt>
      <trkpt lat="46.31969" lon="2.83621">
        <ele>344</ele>
        <time>2019-11-01T09:41:07Z</time>
      </trkpt>
      <trkpt lat="46.31967" lon="2.83615">
        <ele>344.2</ele>
        <time>2019-11-01T09:41:08Z</time>
      </trkpt>
      <trkpt lat="46.31964" lon="2.83609">
        <ele>344</ele>
        <time>2019-11-01T09:41:09Z</time>
      </trkpt>
      <trkpt lat="46.31962" lon="2.83604">
        <ele>344</ele>
        <time>2019-11-01T09:41:10Z</time>
      </trkpt>
      <trkpt lat="46.31959" lon="2.83599">
        <ele>344.1</ele>
        <time>2019-11-01T09:41:11Z</time>
      </trkpt>
      <trkpt lat="46.31957" lon="2.83593">
        <ele>343.9</ele>
        <time>2019-11-01T09:41:12Z</time>
      </trkpt>
      <trkpt lat="46.31954" lon="2.83588">
        <ele>343.9</ele>
        <time>2019-11-01T09:41:13Z</time>
      </trkpt>
      <trkpt lat="46.31952" lon="2.83582">
        <ele>344</ele>
        <time>2019-11-01T09:41:14Z</time>
      </trkpt>
      <trkpt lat="46.3195" lon="2.83577">
        <ele>343.9</ele>
        <time>2019-11-01T09:41:15Z</time>
      </trkpt>
      <trkpt lat="46.31947" lon="2.83571">
        <ele>344</ele>
        <time>2019-11-01T09:41:16Z</time>
      </trkpt>
      <trkpt lat="46.31945" lon="2.83566">
        <ele>344.1</ele>
        <time>2019-11-01T09:41:17Z</time>
      </trkpt>
      <trkpt lat="46.31943" lon="2.8356">
        <ele>344.1</ele>
        <time>2019-11-01T09:41:18Z</time>
      </trkpt>
      <trkpt lat="46.31941" lon="2.83554">
        <ele>344.2</ele>
        <time>2019-11-01T09:41:19Z</time>
      </trkpt>
      <trkpt lat="46.3194" lon="2.83549">
        <ele>344.1</ele>
        <time>2019-11-01T09:41:20Z</time>
      </trkpt>
      <trkpt lat="46.31938" lon="2.83543">
        <ele>344.2</ele>
        <time>2019-11-01T09:41:21Z</time>
      </trkpt>
      <trkpt lat="46.31937" lon="2.83536">
        <ele>344.4</ele>
        <time>2019-11-01T09:41:22Z</time>
      </trkpt>
      <trkpt lat="46.31936" lon="2.8353">
        <ele>344.4</ele>
        <time>2019-11-01T09:41:23Z</time>
      </trkpt>
      <trkpt lat="46.31935" lon="2.83525">
        <ele>344.5</ele>
        <time>2019-11-01T09:41:24Z</time>
      </trkpt>
      <trkpt lat="46.31934" lon="2.8352">
        <ele>344.7</ele>
        <time>2019-11-01T09:41:25Z</time>
      </trkpt>
      <trkpt lat="46.31933" lon="2.83514">
        <ele>344.7</ele>
        <time>2019-11-01T09:41:26Z</time>
      </trkpt>
      <trkpt lat="46.31932" lon="2.83507">
        <ele>344.8</ele>
        <time>2019-11-01T09:41:27Z</time>
      </trkpt>
      <trkpt lat="46.31931" lon="2.83501">
        <ele>344.9</ele>
        <time>2019-11-01T09:41:28Z</time>
      </trkpt>
      <trkpt lat="46.31931" lon="2.83495">
        <ele>345</ele>
        <time>2019-11-01T09:41:29Z</time>
      </trkpt>
      <trkpt lat="46.3193" lon="2.83491">
        <ele>345.1</ele>
        <time>2019-11-01T09:41:30Z</time>
      </trkpt>
      <trkpt lat="46.3193" lon="2.83486">
        <ele>345.2</ele>
        <time>2019-11-01T09:41:31Z</time>
      </trkpt>
      <trkpt lat="46.3193" lon="2.8348">
        <ele>345.3</ele>
        <time>2019-11-01T09:41:32Z</time>
      </trkpt>
      <trkpt lat="46.31931" lon="2.83475">
        <ele>345.4</ele>
        <time>2019-11-01T09:41:33Z</time>
      </trkpt>
      <trkpt lat="46.31931" lon="2.83468">
        <ele>345.7</ele>
        <time>2019-11-01T09:41:34Z</time>
      </trkpt>
      <trkpt lat="46.31931" lon="2.83464">
        <ele>345.7</ele>
        <time>2019-11-01T09:41:35Z</time>
      </trkpt>
      <trkpt lat="46.31932" lon="2.83459">
        <ele>345.9</ele>
        <time>2019-11-01T09:41:36Z</time>
      </trkpt>
      <trkpt lat="46.31933" lon="2.83452">
        <ele>346.2</ele>
        <time>2019-11-01T09:41:37Z</time>
      </trkpt>
      <trkpt lat="46.31934" lon="2.83448">
        <ele>346.5</ele>
        <time>2019-11-01T09:41:38Z</time>
      </trkpt>
      <trkpt lat="46.31934" lon="2.83441">
        <ele>347.3</ele>
        <time>2019-11-01T09:41:39Z</time>
      </trkpt>
      <trkpt lat="46.31935" lon="2.83436">
        <ele>347.7</ele>
        <time>2019-11-01T09:41:40Z</time>
      </trkpt>
      <trkpt lat="46.31936" lon="2.83428">
        <ele>348.6</ele>
        <time>2019-11-01T09:41:41Z</time>
      </trkpt>
      <trkpt lat="46.31937" lon="2.8342">
        <ele>349.5</ele>
        <time>2019-11-01T09:41:42Z</time>
      </trkpt>
      <trkpt lat="46.31938" lon="2.83414">
        <ele>349.8</ele>
        <time>2019-11-01T09:41:43Z</time>
      </trkpt>
      <trkpt lat="46.31939" lon="2.83407">
        <ele>350.6</ele>
        <time>2019-11-01T09:41:44Z</time>
      </trkpt>
      <trkpt lat="46.3194" lon="2.834">
        <ele>350.8</ele>
        <time>2019-11-01T09:41:45Z</time>
      </trkpt>
      <trkpt lat="46.31942" lon="2.83395">
        <ele>351.5</ele>
        <time>2019-11-01T09:41:46Z</time>
      </trkpt>
      <trkpt lat="46.31943" lon="2.83388">
        <ele>351.8</ele>
        <time>2019-11-01T09:41:47Z</time>
      </trkpt>
      <trkpt lat="46.31943" lon="2.83381">
        <ele>352.1</ele>
        <time>2019-11-01T09:41:48Z</time>
      </trkpt>
      <trkpt lat="46.31945" lon="2.83374">
        <ele>352.4</ele>
        <time>2019-11-01T09:41:49Z</time>
      </trkpt>
      <trkpt lat="46.31946" lon="2.83369">
        <ele>352.4</ele>
        <time>2019-11-01T09:41:50Z</time>
      </trkpt>
      <trkpt lat="46.31948" lon="2.83364">
        <ele>352.5</ele>
        <time>2019-11-01T09:41:51Z</time>
      </trkpt>
      <trkpt lat="46.31948" lon="2.83358">
        <ele>352.6</ele>
        <time>2019-11-01T09:41:52Z</time>
      </trkpt>
      <trkpt lat="46.3195" lon="2.83353">
        <ele>352.4</ele>
        <time>2019-11-01T09:41:53Z</time>
      </trkpt>
      <trkpt lat="46.31951" lon="2.83347">
        <ele>352.4</ele>
        <time>2019-11-01T09:41:54Z</time>
      </trkpt>
      <trkpt lat="46.31952" lon="2.83342">
        <ele>352.1</ele>
        <time>2019-11-01T09:41:55Z</time>
      </trkpt>
      <trkpt lat="46.31954" lon="2.83336">
        <ele>352</ele>
        <time>2019-11-01T09:41:56Z</time>
      </trkpt>
      <trkpt lat="46.31955" lon="2.8333">
        <ele>351.5</ele>
        <time>2019-11-01T09:41:57Z</time>
      </trkpt>
      <trkpt lat="46.31956" lon="2.83326">
        <ele>351.4</ele>
        <time>2019-11-01T09:41:58Z</time>
      </trkpt>
      <trkpt lat="46.31958" lon="2.83322">
        <ele>351.3</ele>
        <time>2019-11-01T09:41:59Z</time>
      </trkpt>
      <trkpt lat="46.31958" lon="2.83317">
        <ele>350.9</ele>
        <time>2019-11-01T09:42:00Z</time>
      </trkpt>
      <trkpt lat="46.31959" lon="2.83312">
        <ele>350.8</ele>
        <time>2019-11-01T09:42:01Z</time>
      </trkpt>
      <trkpt lat="46.3196" lon="2.83306">
        <ele>350.7</ele>
        <time>2019-11-01T09:42:02Z</time>
      </trkpt>
      <trkpt lat="46.31961" lon="2.833">
        <ele>350.6</ele>
        <time>2019-11-01T09:42:03Z</time>
      </trkpt>
      <trkpt lat="46.31962" lon="2.83294">
        <ele>350.4</ele>
        <time>2019-11-01T09:42:04Z</time>
      </trkpt>
      <trkpt lat="46.31962" lon="2.83287">
        <ele>350.4</ele>
        <time>2019-11-01T09:42:05Z</time>
      </trkpt>
      <trkpt lat="46.31962" lon="2.8328">
        <ele>350.4</ele>
        <time>2019-11-01T09:42:06Z</time>
      </trkpt>
      <trkpt lat="46.31962" lon="2.83273">
        <ele>350.5</ele>
        <time>2019-11-01T09:42:07Z</time>
      </trkpt>
      <trkpt lat="46.31961" lon="2.83264">
        <ele>350.7</ele>
        <time>2019-11-01T09:42:08Z</time>
      </trkpt>
      <trkpt lat="46.31961" lon="2.83259">
        <ele>351</ele>
        <time>2019-11-01T09:42:09Z</time>
      </trkpt>
      <trkpt lat="46.31959" lon="2.83252">
        <ele>351.2</ele>
        <time>2019-11-01T09:42:10Z</time>
      </trkpt>
      <trkpt lat="46.31958" lon="2.83246">
        <ele>351.3</ele>
        <time>2019-11-01T09:42:11Z</time>
      </trkpt>
      <trkpt lat="46.31957" lon="2.8324">
        <ele>351.7</ele>
        <time>2019-11-01T09:42:12Z</time>
      </trkpt>
      <trkpt lat="46.31956" lon="2.83233">
        <ele>351.8</ele>
        <time>2019-11-01T09:42:13Z</time>
      </trkpt>
      <trkpt lat="46.31955" lon="2.83229">
        <ele>352.1</ele>
        <time>2019-11-01T09:42:14Z</time>
      </trkpt>
      <trkpt lat="46.31954" lon="2.83222">
        <ele>352.1</ele>
        <time>2019-11-01T09:42:15Z</time>
      </trkpt>
      <trkpt lat="46.31952" lon="2.83215">
        <ele>352.2</ele>
        <time>2019-11-01T09:42:16Z</time>
      </trkpt>
      <trkpt lat="46.31951" lon="2.83208">
        <ele>352.5</ele>
        <time>2019-11-01T09:42:17Z</time>
      </trkpt>
      <trkpt lat="46.31949" lon="2.83203">
        <ele>352.6</ele>
        <time>2019-11-01T09:42:18Z</time>
      </trkpt>
      <trkpt lat="46.31947" lon="2.83197">
        <ele>353</ele>
        <time>2019-11-01T09:42:19Z</time>
      </trkpt>
      <trkpt lat="46.31945" lon="2.83192">
        <ele>353.4</ele>
        <time>2019-11-01T09:42:20Z</time>
      </trkpt>
      <trkpt lat="46.31944" lon="2.83186">
        <ele>353.4</ele>
        <time>2019-11-01T09:42:21Z</time>
      </trkpt>
      <trkpt lat="46.31942" lon="2.8318">
        <ele>353.7</ele>
        <time>2019-11-01T09:42:22Z</time>
      </trkpt>
      <trkpt lat="46.3194" lon="2.83175">
        <ele>353.6</ele>
        <time>2019-11-01T09:42:23Z</time>
      </trkpt>
      <trkpt lat="46.31938" lon="2.8317">
        <ele>353.8</ele>
        <time>2019-11-01T09:42:24Z</time>
      </trkpt>
      <trkpt lat="46.31937" lon="2.83164">
        <ele>354</ele>
        <time>2019-11-01T09:42:25Z</time>
      </trkpt>
      <trkpt lat="46.31935" lon="2.83159">
        <ele>353.9</ele>
        <time>2019-11-01T09:42:26Z</time>
      </trkpt>
      <trkpt lat="46.31933" lon="2.83154">
        <ele>354</ele>
        <time>2019-11-01T09:42:27Z</time>
      </trkpt>
      <trkpt lat="46.3193" lon="2.8315">
        <ele>354.2</ele>
        <time>2019-11-01T09:42:28Z</time>
      </trkpt>
      <trkpt lat="46.31928" lon="2.83146">
        <ele>354.3</ele>
        <time>2019-11-01T09:42:29Z</time>
      </trkpt>
      <trkpt lat="46.31925" lon="2.83141">
        <ele>354.3</ele>
        <time>2019-11-01T09:42:30Z</time>
      </trkpt>
      <trkpt lat="46.31923" lon="2.83136">
        <ele>354.4</ele>
        <time>2019-11-01T09:42:31Z</time>
      </trkpt>
      <trkpt lat="46.31921" lon="2.83132">
        <ele>354.6</ele>
        <time>2019-11-01T09:42:32Z</time>
      </trkpt>
      <trkpt lat="46.31919" lon="2.83127">
        <ele>354.8</ele>
        <time>2019-11-01T09:42:33Z</time>
      </trkpt>
      <trkpt lat="46.31917" lon="2.83123">
        <ele>354.7</ele>
        <time>2019-11-01T09:42:34Z</time>
      </trkpt>
      <trkpt lat="46.31915" lon="2.83119">
        <ele>354.9</ele>
        <time>2019-11-01T09:42:35Z</time>
      </trkpt>
      <trkpt lat="46.31913" lon="2.83114">
        <ele>355</ele>
        <time>2019-11-01T09:42:36Z</time>
      </trkpt>
      <trkpt lat="46.3191" lon="2.83108">
        <ele>355.1</ele>
        <time>2019-11-01T09:42:37Z</time>
      </trkpt>
      <trkpt lat="46.31907" lon="2.83103">
        <ele>355.1</ele>
        <time>2019-11-01T09:42:38Z</time>
      </trkpt>
      <trkpt lat="46.31905" lon="2.83099">
        <ele>355.1</ele>
        <time>2019-11-01T09:42:39Z</time>
      </trkpt>
      <trkpt lat="46.31903" lon="2.83094">
        <ele>355.2</ele>
        <time>2019-11-01T09:42:40Z</time>
      </trkpt>
      <trkpt lat="46.31901" lon="2.83089">
        <ele>355.2</ele>
        <time>2019-11-01T09:42:41Z</time>
      </trkpt>
      <trkpt lat="46.31898" lon="2.83083">
        <ele>355.3</ele>
        <time>2019-11-01T09:42:42Z</time>
      </trkpt>
      <trkpt lat="46.31897" lon="2.83076">
        <ele>355.2</ele>
        <time>2019-11-01T09:42:43Z</time>
      </trkpt>
      <trkpt lat="46.31895" lon="2.8307">
        <ele>355.3</ele>
        <time>2019-11-01T09:42:44Z</time>
      </trkpt>
      <trkpt lat="46.31893" lon="2.83063">
        <ele>355.3</ele>
        <time>2019-11-01T09:42:45Z</time>
      </trkpt>
      <trkpt lat="46.31891" lon="2.83056">
        <ele>355.4</ele>
        <time>2019-11-01T09:42:46Z</time>
      </trkpt>
      <trkpt lat="46.3189" lon="2.8305">
        <ele>355.4</ele>
        <time>2019-11-01T09:42:47Z</time>
      </trkpt>
      <trkpt lat="46.31889" lon="2.83043">
        <ele>355.6</ele>
        <time>2019-11-01T09:42:48Z</time>
      </trkpt>
      <trkpt lat="46.31888" lon="2.83037">
        <ele>355.6</ele>
        <time>2019-11-01T09:42:49Z</time>
      </trkpt>
      <trkpt lat="46.31888" lon="2.83032">
        <ele>355.6</ele>
        <time>2019-11-01T09:42:50Z</time>
      </trkpt>
      <trkpt lat="46.31887" lon="2.83025">
        <ele>355.6</ele>
        <time>2019-11-01T09:42:51Z</time>
      </trkpt>
      <trkpt lat="46.31886" lon="2.83018">
        <ele>355.8</ele>
        <time>2019-11-01T09:42:52Z</time>
      </trkpt>
      <trkpt lat="46.31885" lon="2.83012">
        <ele>355.9</ele>
        <time>2019-11-01T09:42:53Z</time>
      </trkpt>
      <trkpt lat="46.31885" lon="2.83006">
        <ele>355.9</ele>
        <time>2019-11-01T09:43:12Z</time>
      </trkpt>
      <trkpt lat="46.31884" lon="2.82999">
        <ele>356</ele>
        <time>2019-11-01T09:43:50Z</time>
      </trkpt>
      <trkpt lat="46.31883" lon="2.82992">
        <ele>356.3</ele>
        <time>2019-11-01T09:43:51Z</time>
      </trkpt>
      <trkpt lat="46.31883" lon="2.82985">
        <ele>356.4</ele>
        <time>2019-11-01T09:43:52Z</time>
      </trkpt>
      <trkpt lat="46.31883" lon="2.8298">
        <ele>356.5</ele>
        <time>2019-11-01T09:43:58Z</time>
      </trkpt>
      <trkpt lat="46.31883" lon="2.82975">
        <ele>356.7</ele>
        <time>2019-11-01T09:43:59Z</time>
      </trkpt>
      <trkpt lat="46.31883" lon="2.82969">
        <ele>356.8</ele>
        <time>2019-11-01T09:44:00Z</time>
      </trkpt>
      <trkpt lat="46.31883" lon="2.82964">
        <ele>356.9</ele>
        <time>2019-11-01T09:44:01Z</time>
      </trkpt>
      <trkpt lat="46.31884" lon="2.82959">
        <ele>357</ele>
        <time>2019-11-01T09:44:02Z</time>
      </trkpt>
      <trkpt lat="46.31883" lon="2.82954">
        <ele>357.1</ele>
        <time>2019-11-01T09:44:03Z</time>
      </trkpt>
      <trkpt lat="46.31883" lon="2.8295">
        <ele>357.2</ele>
        <time>2019-11-01T09:44:04Z</time>
      </trkpt>
      <trkpt lat="46.31883" lon="2.82946">
        <ele>357.3</ele>
        <time>2019-11-01T09:44:05Z</time>
      </trkpt>
      <trkpt lat="46.31885" lon="2.82942">
        <ele>357.3</ele>
        <time>2019-11-01T09:44:06Z</time>
      </trkpt>
      <trkpt lat="46.31888" lon="2.82935">
        <ele>357.3</ele>
        <time>2019-11-01T09:44:07Z</time>
      </trkpt>
      <trkpt lat="46.31887" lon="2.82935">
        <ele>357.5</ele>
        <time>2019-11-01T09:44:08Z</time>
      </trkpt>
      <trkpt lat="46.31887" lon="2.82935">
        <ele>357.5</ele>
        <time>2019-11-01T09:44:09Z</time>
      </trkpt>
      <trkpt lat="46.31887" lon="2.82934">
        <ele>357.5</ele>
        <time>2019-11-01T09:44:10Z</time>
      </trkpt>
      <trkpt lat="46.31887" lon="2.82929">
        <ele>357.4</ele>
        <time>2019-11-01T09:44:11Z</time>
      </trkpt>
      <trkpt lat="46.31888" lon="2.82926">
        <ele>357.4</ele>
        <time>2019-11-01T09:44:12Z</time>
      </trkpt>
      <trkpt lat="46.31888" lon="2.82923">
        <ele>357.4</ele>
        <time>2019-11-01T09:44:13Z</time>
      </trkpt>
      <trkpt lat="46.31889" lon="2.82919">
        <ele>357.5</ele>
        <time>2019-11-01T09:44:14Z</time>
      </trkpt>
      <trkpt lat="46.3189" lon="2.82915">
        <ele>357.3</ele>
        <time>2019-11-01T09:44:15Z</time>
      </trkpt>
      <trkpt lat="46.31891" lon="2.82912">
        <ele>357.3</ele>
        <time>2019-11-01T09:44:16Z</time>
      </trkpt>
      <trkpt lat="46.31891" lon="2.82907">
        <ele>357.4</ele>
        <time>2019-11-01T09:44:17Z</time>
      </trkpt>
      <trkpt lat="46.31892" lon="2.82901">
        <ele>357.4</ele>
        <time>2019-11-01T09:44:18Z</time>
      </trkpt>
      <trkpt lat="46.31893" lon="2.82896">
        <ele>357.2</ele>
        <time>2019-11-01T09:44:19Z</time>
      </trkpt>
      <trkpt lat="46.31894" lon="2.82892">
        <ele>357.3</ele>
        <time>2019-11-01T09:44:20Z</time>
      </trkpt>
      <trkpt lat="46.31895" lon="2.82887">
        <ele>357.3</ele>
        <time>2019-11-01T09:44:21Z</time>
      </trkpt>
      <trkpt lat="46.31896" lon="2.82883">
        <ele>357.2</ele>
        <time>2019-11-01T09:44:22Z</time>
      </trkpt>
      <trkpt lat="46.31897" lon="2.82879">
        <ele>357.3</ele>
        <time>2019-11-01T09:44:23Z</time>
      </trkpt>
      <trkpt lat="46.31897" lon="2.82874">
        <ele>357.3</ele>
        <time>2019-11-01T09:44:24Z</time>
      </trkpt>
      <trkpt lat="46.31898" lon="2.82868">
        <ele>357.4</ele>
        <time>2019-11-01T09:44:25Z</time>
      </trkpt>
      <trkpt lat="46.31899" lon="2.82863">
        <ele>357.4</ele>
        <time>2019-11-01T09:44:26Z</time>
      </trkpt>
      <trkpt lat="46.319" lon="2.82858">
        <ele>357.5</ele>
        <time>2019-11-01T09:44:27Z</time>
      </trkpt>
      <trkpt lat="46.31901" lon="2.82853">
        <ele>357.5</ele>
        <time>2019-11-01T09:44:28Z</time>
      </trkpt>
      <trkpt lat="46.31902" lon="2.82849">
        <ele>357.4</ele>
        <time>2019-11-01T09:44:29Z</time>
      </trkpt>
      <trkpt lat="46.31903" lon="2.82845">
        <ele>357.4</ele>
        <time>2019-11-01T09:44:30Z</time>
      </trkpt>
      <trkpt lat="46.31904" lon="2.8284">
        <ele>357.5</ele>
        <time>2019-11-01T09:44:31Z</time>
      </trkpt>
      <trkpt lat="46.31904" lon="2.82834">
        <ele>357.5</ele>
        <time>2019-11-01T09:44:32Z</time>
      </trkpt>
      <trkpt lat="46.31905" lon="2.82829">
        <ele>357.3</ele>
        <time>2019-11-01T09:44:33Z</time>
      </trkpt>
      <trkpt lat="46.31905" lon="2.82823">
        <ele>357.3</ele>
        <time>2019-11-01T09:44:34Z</time>
      </trkpt>
      <trkpt lat="46.31907" lon="2.82818">
        <ele>357.3</ele>
        <time>2019-11-01T09:44:35Z</time>
      </trkpt>
      <trkpt lat="46.31908" lon="2.82813">
        <ele>357.1</ele>
        <time>2019-11-01T09:44:36Z</time>
      </trkpt>
      <trkpt lat="46.31909" lon="2.82807">
        <ele>357.1</ele>
        <time>2019-11-01T09:44:37Z</time>
      </trkpt>
      <trkpt lat="46.31909" lon="2.82801">
        <ele>357.1</ele>
        <time>2019-11-01T09:44:38Z</time>
      </trkpt>
      <trkpt lat="46.3191" lon="2.82795">
        <ele>357.1</ele>
        <time>2019-11-01T09:44:39Z</time>
      </trkpt>
      <trkpt lat="46.31911" lon="2.82789">
        <ele>357</ele>
        <time>2019-11-01T09:44:40Z</time>
      </trkpt>
      <trkpt lat="46.31912" lon="2.82782">
        <ele>356.9</ele>
        <time>2019-11-01T09:44:41Z</time>
      </trkpt>
      <trkpt lat="46.31914" lon="2.82775">
        <ele>356.8</ele>
        <time>2019-11-01T09:44:42Z</time>
      </trkpt>
      <trkpt lat="46.31916" lon="2.82768">
        <ele>356.8</ele>
        <time>2019-11-01T09:44:43Z</time>
      </trkpt>
      <trkpt lat="46.31917" lon="2.8276">
        <ele>356.7</ele>
        <time>2019-11-01T09:44:44Z</time>
      </trkpt>
      <trkpt lat="46.31918" lon="2.82753">
        <ele>356.7</ele>
        <time>2019-11-01T09:44:45Z</time>
      </trkpt>
      <trkpt lat="46.3192" lon="2.82747">
        <ele>356.7</ele>
        <time>2019-11-01T09:44:46Z</time>
      </trkpt>
      <trkpt lat="46.31921" lon="2.8274">
        <ele>356.7</ele>
        <time>2019-11-01T09:44:47Z</time>
      </trkpt>
      <trkpt lat="46.31923" lon="2.82734">
        <ele>356.6</ele>
        <time>2019-11-01T09:44:48Z</time>
      </trkpt>
      <trkpt lat="46.31925" lon="2.82727">
        <ele>356.6</ele>
        <time>2019-11-01T09:44:49Z</time>
      </trkpt>
      <trkpt lat="46.31927" lon="2.8272">
        <ele>356.6</ele>
        <time>2019-11-01T09:44:50Z</time>
      </trkpt>
      <trkpt lat="46.31928" lon="2.82712">
        <ele>356.7</ele>
        <time>2019-11-01T09:44:51Z</time>
      </trkpt>
      <trkpt lat="46.31929" lon="2.82705">
        <ele>356.7</ele>
        <time>2019-11-01T09:44:52Z</time>
      </trkpt>
      <trkpt lat="46.3193" lon="2.82697">
        <ele>356.7</ele>
        <time>2019-11-01T09:44:53Z</time>
      </trkpt>
      <trkpt lat="46.31932" lon="2.8269">
        <ele>356.8</ele>
        <time>2019-11-01T09:44:54Z</time>
      </trkpt>
      <trkpt lat="46.31934" lon="2.82684">
        <ele>356.9</ele>
        <time>2019-11-01T09:44:55Z</time>
      </trkpt>
      <trkpt lat="46.31938" lon="2.8268">
        <ele>357</ele>
        <time>2019-11-01T09:44:56Z</time>
      </trkpt>
      <trkpt lat="46.31941" lon="2.82677">
        <ele>357.1</ele>
        <time>2019-11-01T09:44:57Z</time>
      </trkpt>
      <trkpt lat="46.31943" lon="2.82671">
        <ele>357.2</ele>
        <time>2019-11-01T09:44:58Z</time>
      </trkpt>
      <trkpt lat="46.31945" lon="2.82666">
        <ele>357.4</ele>
        <time>2019-11-01T09:44:59Z</time>
      </trkpt>
      <trkpt lat="46.31947" lon="2.82662">
        <ele>357.4</ele>
        <time>2019-11-01T09:45:00Z</time>
      </trkpt>
      <trkpt lat="46.31948" lon="2.82657">
        <ele>357.5</ele>
        <time>2019-11-01T09:45:01Z</time>
      </trkpt>
      <trkpt lat="46.31949" lon="2.82652">
        <ele>357.6</ele>
        <time>2019-11-01T09:45:02Z</time>
      </trkpt>
      <trkpt lat="46.31949" lon="2.82649">
        <ele>357.6</ele>
        <time>2019-11-01T09:45:03Z</time>
      </trkpt>
      <trkpt lat="46.3195" lon="2.82644">
        <ele>357.7</ele>
        <time>2019-11-01T09:45:04Z</time>
      </trkpt>
      <trkpt lat="46.3195" lon="2.82639">
        <ele>357.8</ele>
        <time>2019-11-01T09:45:05Z</time>
      </trkpt>
      <trkpt lat="46.3195" lon="2.82634">
        <ele>357.8</ele>
        <time>2019-11-01T09:45:06Z</time>
      </trkpt>
      <trkpt lat="46.31949" lon="2.82629">
        <ele>357.8</ele>
        <time>2019-11-01T09:45:07Z</time>
      </trkpt>
      <trkpt lat="46.31949" lon="2.82624">
        <ele>357.8</ele>
        <time>2019-11-01T09:45:08Z</time>
      </trkpt>
      <trkpt lat="46.31948" lon="2.82619">
        <ele>357.8</ele>
        <time>2019-11-01T09:45:09Z</time>
      </trkpt>
      <trkpt lat="46.31948" lon="2.82614">
        <ele>357.8</ele>
        <time>2019-11-01T09:45:10Z</time>
      </trkpt>
      <trkpt lat="46.31947" lon="2.8261">
        <ele>357.8</ele>
        <time>2019-11-01T09:45:11Z</time>
      </trkpt>
      <trkpt lat="46.31946" lon="2.82605">
        <ele>357.8</ele>
        <time>2019-11-01T09:45:12Z</time>
      </trkpt>
      <trkpt lat="46.31946" lon="2.82601">
        <ele>357.8</ele>
        <time>2019-11-01T09:45:13Z</time>
      </trkpt>
      <trkpt lat="46.31945" lon="2.82596">
        <ele>357.9</ele>
        <time>2019-11-01T09:45:14Z</time>
      </trkpt>
      <trkpt lat="46.31944" lon="2.82592">
        <ele>357.9</ele>
        <time>2019-11-01T09:45:15Z</time>
      </trkpt>
      <trkpt lat="46.31943" lon="2.82588">
        <ele>357.9</ele>
        <time>2019-11-01T09:45:16Z</time>
      </trkpt>
      <trkpt lat="46.31942" lon="2.82583">
        <ele>357.9</ele>
        <time>2019-11-01T09:45:17Z</time>
      </trkpt>
      <trkpt lat="46.31941" lon="2.82578">
        <ele>357.8</ele>
        <time>2019-11-01T09:45:18Z</time>
      </trkpt>
      <trkpt lat="46.3194" lon="2.82574">
        <ele>357.8</ele>
        <time>2019-11-01T09:45:19Z</time>
      </trkpt>
      <trkpt lat="46.31939" lon="2.82569">
        <ele>357.7</ele>
        <time>2019-11-01T09:45:20Z</time>
      </trkpt>
      <trkpt lat="46.31937" lon="2.82563">
        <ele>357.6</ele>
        <time>2019-11-01T09:45:21Z</time>
      </trkpt>
      <trkpt lat="46.31935" lon="2.82558">
        <ele>357.5</ele>
        <time>2019-11-01T09:45:22Z</time>
      </trkpt>
      <trkpt lat="46.31932" lon="2.82553">
        <ele>357.3</ele>
        <time>2019-11-01T09:45:23Z</time>
      </trkpt>
      <trkpt lat="46.3193" lon="2.82548">
        <ele>357.1</ele>
        <time>2019-11-01T09:45:24Z</time>
      </trkpt>
      <trkpt lat="46.31928" lon="2.82543">
        <ele>356.9</ele>
        <time>2019-11-01T09:45:25Z</time>
      </trkpt>
      <trkpt lat="46.31925" lon="2.82538">
        <ele>356.7</ele>
        <time>2019-11-01T09:45:26Z</time>
      </trkpt>
      <trkpt lat="46.31923" lon="2.82533">
        <ele>356.5</ele>
        <time>2019-11-01T09:45:27Z</time>
      </trkpt>
      <trkpt lat="46.31921" lon="2.82528">
        <ele>356.3</ele>
        <time>2019-11-01T09:45:28Z</time>
      </trkpt>
      <trkpt lat="46.31918" lon="2.82524">
        <ele>356</ele>
        <time>2019-11-01T09:45:29Z</time>
      </trkpt>
      <trkpt lat="46.31916" lon="2.8252">
        <ele>355.8</ele>
        <time>2019-11-01T09:45:30Z</time>
      </trkpt>
      <trkpt lat="46.31914" lon="2.82516">
        <ele>355.6</ele>
        <time>2019-11-01T09:45:31Z</time>
      </trkpt>
      <trkpt lat="46.31911" lon="2.82512">
        <ele>355.4</ele>
        <time>2019-11-01T09:45:32Z</time>
      </trkpt>
      <trkpt lat="46.3191" lon="2.82508">
        <ele>355.3</ele>
        <time>2019-11-01T09:45:33Z</time>
      </trkpt>
      <trkpt lat="46.31908" lon="2.82505">
        <ele>355.1</ele>
        <time>2019-11-01T09:45:34Z</time>
      </trkpt>
      <trkpt lat="46.31906" lon="2.82502">
        <ele>355.1</ele>
        <time>2019-11-01T09:45:35Z</time>
      </trkpt>
      <trkpt lat="46.31903" lon="2.825">
        <ele>355.1</ele>
        <time>2019-11-01T09:45:36Z</time>
      </trkpt>
      <trkpt lat="46.31901" lon="2.82499">
        <ele>355</ele>
        <time>2019-11-01T09:45:37Z</time>
      </trkpt>
      <trkpt lat="46.31899" lon="2.82498">
        <ele>355</ele>
        <time>2019-11-01T09:45:38Z</time>
      </trkpt>
      <trkpt lat="46.31897" lon="2.82499">
        <ele>355</ele>
        <time>2019-11-01T09:45:39Z</time>
      </trkpt>
      <trkpt lat="46.31894" lon="2.82501">
        <ele>355</ele>
        <time>2019-11-01T09:45:40Z</time>
      </trkpt>
      <trkpt lat="46.31891" lon="2.82502">
        <ele>355</ele>
        <time>2019-11-01T09:45:41Z</time>
      </trkpt>
      <trkpt lat="46.31888" lon="2.82503">
        <ele>355</ele>
        <time>2019-11-01T09:45:42Z</time>
      </trkpt>
      <trkpt lat="46.31885" lon="2.82503">
        <ele>354.9</ele>
        <time>2019-11-01T09:45:43Z</time>
      </trkpt>
      <trkpt lat="46.31882" lon="2.82501">
        <ele>354.8</ele>
        <time>2019-11-01T09:45:44Z</time>
      </trkpt>
      <trkpt lat="46.31879" lon="2.82499">
        <ele>354.7</ele>
        <time>2019-11-01T09:45:45Z</time>
      </trkpt>
      <trkpt lat="46.31876" lon="2.82496">
        <ele>354.7</ele>
        <time>2019-11-01T09:45:46Z</time>
      </trkpt>
      <trkpt lat="46.31874" lon="2.82493">
        <ele>354.6</ele>
        <time>2019-11-01T09:45:47Z</time>
      </trkpt>
      <trkpt lat="46.31872" lon="2.82488">
        <ele>354.6</ele>
        <time>2019-11-01T09:45:48Z</time>
      </trkpt>
      <trkpt lat="46.31871" lon="2.82482">
        <ele>354.6</ele>
        <time>2019-11-01T09:45:49Z</time>
      </trkpt>
      <trkpt lat="46.31869" lon="2.82477">
        <ele>354.6</ele>
        <time>2019-11-01T09:45:50Z</time>
      </trkpt>
      <trkpt lat="46.31868" lon="2.82473">
        <ele>354.6</ele>
        <time>2019-11-01T09:45:51Z</time>
      </trkpt>
      <trkpt lat="46.31867" lon="2.82468">
        <ele>354.6</ele>
        <time>2019-11-01T09:45:52Z</time>
      </trkpt>
      <trkpt lat="46.31865" lon="2.82464">
        <ele>354.5</ele>
        <time>2019-11-01T09:45:53Z</time>
      </trkpt>
      <trkpt lat="46.31865" lon="2.8246">
        <ele>354.5</ele>
        <time>2019-11-01T09:45:54Z</time>
      </trkpt>
      <trkpt lat="46.31864" lon="2.82455">
        <ele>354.6</ele>
        <time>2019-11-01T09:45:55Z</time>
      </trkpt>
      <trkpt lat="46.31863" lon="2.82451">
        <ele>354.6</ele>
        <time>2019-11-01T09:45:56Z</time>
      </trkpt>
      <trkpt lat="46.31863" lon="2.82447">
        <ele>354.6</ele>
        <time>2019-11-01T09:45:57Z</time>
      </trkpt>
      <trkpt lat="46.31862" lon="2.82443">
        <ele>354.6</ele>
        <time>2019-11-01T09:45:58Z</time>
      </trkpt>
      <trkpt lat="46.31861" lon="2.8244">
        <ele>354.6</ele>
        <time>2019-11-01T09:45:59Z</time>
      </trkpt>
      <trkpt lat="46.31861" lon="2.82436">
        <ele>354.7</ele>
        <time>2019-11-01T09:46:00Z</time>
      </trkpt>
      <trkpt lat="46.3186" lon="2.82433">
        <ele>354.7</ele>
        <time>2019-11-01T09:46:01Z</time>
      </trkpt>
      <trkpt lat="46.31859" lon="2.82429">
        <ele>354.7</ele>
        <time>2019-11-01T09:46:02Z</time>
      </trkpt>
      <trkpt lat="46.31858" lon="2.82426">
        <ele>354.7</ele>
        <time>2019-11-01T09:46:03Z</time>
      </trkpt>
      <trkpt lat="46.31858" lon="2.82422">
        <ele>354.7</ele>
        <time>2019-11-01T09:46:04Z</time>
      </trkpt>
      <trkpt lat="46.31857" lon="2.82418">
        <ele>354.8</ele>
        <time>2019-11-01T09:46:05Z</time>
      </trkpt>
      <trkpt lat="46.31856" lon="2.82415">
        <ele>354.8</ele>
        <time>2019-11-01T09:46:06Z</time>
      </trkpt>
      <trkpt lat="46.31855" lon="2.82411">
        <ele>354.8</ele>
        <time>2019-11-01T09:46:07Z</time>
      </trkpt>
      <trkpt lat="46.31855" lon="2.82407">
        <ele>354.8</ele>
        <time>2019-11-01T09:46:08Z</time>
      </trkpt>
      <trkpt lat="46.31855" lon="2.82404">
        <ele>354.8</ele>
        <time>2019-11-01T09:46:09Z</time>
      </trkpt>
      <trkpt lat="46.31854" lon="2.824">
        <ele>354.8</ele>
        <time>2019-11-01T09:46:10Z</time>
      </trkpt>
      <trkpt lat="46.31854" lon="2.82396">
        <ele>354.9</ele>
        <time>2019-11-01T09:46:11Z</time>
      </trkpt>
      <trkpt lat="46.31853" lon="2.82391">
        <ele>354.9</ele>
        <time>2019-11-01T09:46:12Z</time>
      </trkpt>
      <trkpt lat="46.31852" lon="2.82387">
        <ele>354.9</ele>
        <time>2019-11-01T09:46:13Z</time>
      </trkpt>
      <trkpt lat="46.31852" lon="2.82382">
        <ele>354.9</ele>
        <time>2019-11-01T09:46:14Z</time>
      </trkpt>
      <trkpt lat="46.31851" lon="2.82376">
        <ele>355</ele>
        <time>2019-11-01T09:46:15Z</time>
      </trkpt>
      <trkpt lat="46.31851" lon="2.82371">
        <ele>355</ele>
        <time>2019-11-01T09:46:16Z</time>
      </trkpt>
      <trkpt lat="46.3185" lon="2.82366">
        <ele>355</ele>
        <time>2019-11-01T09:46:17Z</time>
      </trkpt>
      <trkpt lat="46.3185" lon="2.8236">
        <ele>355</ele>
        <time>2019-11-01T09:46:18Z</time>
      </trkpt>
      <trkpt lat="46.31851" lon="2.82355">
        <ele>355.1</ele>
        <time>2019-11-01T09:46:19Z</time>
      </trkpt>
      <trkpt lat="46.3185" lon="2.82349">
        <ele>355.1</ele>
        <time>2019-11-01T09:46:20Z</time>
      </trkpt>
      <trkpt lat="46.3185" lon="2.82343">
        <ele>355.1</ele>
        <time>2019-11-01T09:46:21Z</time>
      </trkpt>
      <trkpt lat="46.3185" lon="2.82338">
        <ele>355.2</ele>
        <time>2019-11-01T09:46:22Z</time>
      </trkpt>
      <trkpt lat="46.31849" lon="2.82333">
        <ele>355.1</ele>
        <time>2019-11-01T09:46:23Z</time>
      </trkpt>
      <trkpt lat="46.31848" lon="2.82328">
        <ele>354.9</ele>
        <time>2019-11-01T09:46:24Z</time>
      </trkpt>
      <trkpt lat="46.31847" lon="2.82323">
        <ele>354.8</ele>
        <time>2019-11-01T09:46:25Z</time>
      </trkpt>
      <trkpt lat="46.31846" lon="2.82317">
        <ele>354.7</ele>
        <time>2019-11-01T09:46:26Z</time>
      </trkpt>
      <trkpt lat="46.31845" lon="2.82311">
        <ele>354.5</ele>
        <time>2019-11-01T09:46:27Z</time>
      </trkpt>
      <trkpt lat="46.31844" lon="2.82305">
        <ele>354.4</ele>
        <time>2019-11-01T09:46:28Z</time>
      </trkpt>
      <trkpt lat="46.31844" lon="2.82299">
        <ele>354.2</ele>
        <time>2019-11-01T09:46:29Z</time>
      </trkpt>
      <trkpt lat="46.31843" lon="2.82294">
        <ele>354.1</ele>
        <time>2019-11-01T09:46:30Z</time>
      </trkpt>
      <trkpt lat="46.31842" lon="2.82289">
        <ele>354</ele>
        <time>2019-11-01T09:46:31Z</time>
      </trkpt>
      <trkpt lat="46.31841" lon="2.82283">
        <ele>353.9</ele>
        <time>2019-11-01T09:46:32Z</time>
      </trkpt>
      <trkpt lat="46.31841" lon="2.82279">
        <ele>353.7</ele>
        <time>2019-11-01T09:46:33Z</time>
      </trkpt>
      <trkpt lat="46.3184" lon="2.82274">
        <ele>353.6</ele>
        <time>2019-11-01T09:46:34Z</time>
      </trkpt>
      <trkpt lat="46.31839" lon="2.82268">
        <ele>353.4</ele>
        <time>2019-11-01T09:46:35Z</time>
      </trkpt>
      <trkpt lat="46.31838" lon="2.82262">
        <ele>353.2</ele>
        <time>2019-11-01T09:46:36Z</time>
      </trkpt>
      <trkpt lat="46.31837" lon="2.82255">
        <ele>353</ele>
        <time>2019-11-01T09:46:37Z</time>
      </trkpt>
      <trkpt lat="46.31836" lon="2.82249">
        <ele>352.7</ele>
        <time>2019-11-01T09:46:38Z</time>
      </trkpt>
      <trkpt lat="46.31835" lon="2.82243">
        <ele>352.5</ele>
        <time>2019-11-01T09:46:39Z</time>
      </trkpt>
      <trkpt lat="46.31833" lon="2.82237">
        <ele>352.3</ele>
        <time>2019-11-01T09:46:40Z</time>
      </trkpt>
      <trkpt lat="46.31832" lon="2.8223">
        <ele>352</ele>
        <time>2019-11-01T09:46:41Z</time>
      </trkpt>
      <trkpt lat="46.31831" lon="2.82223">
        <ele>351.8</ele>
        <time>2019-11-01T09:46:42Z</time>
      </trkpt>
      <trkpt lat="46.31831" lon="2.82216">
        <ele>351.6</ele>
        <time>2019-11-01T09:46:43Z</time>
      </trkpt>
      <trkpt lat="46.3183" lon="2.82209">
        <ele>351.4</ele>
        <time>2019-11-01T09:46:44Z</time>
      </trkpt>
      <trkpt lat="46.31829" lon="2.82202">
        <ele>351.2</ele>
        <time>2019-11-01T09:46:45Z</time>
      </trkpt>
      <trkpt lat="46.31828" lon="2.82195">
        <ele>351</ele>
        <time>2019-11-01T09:46:46Z</time>
      </trkpt>
      <trkpt lat="46.31827" lon="2.82187">
        <ele>350.9</ele>
        <time>2019-11-01T09:46:47Z</time>
      </trkpt>
      <trkpt lat="46.31827" lon="2.8218">
        <ele>350.7</ele>
        <time>2019-11-01T09:46:48Z</time>
      </trkpt>
      <trkpt lat="46.31827" lon="2.82173">
        <ele>350.5</ele>
        <time>2019-11-01T09:46:49Z</time>
      </trkpt>
      <trkpt lat="46.31826" lon="2.82165">
        <ele>350.3</ele>
        <time>2019-11-01T09:46:50Z</time>
      </trkpt>
      <trkpt lat="46.31826" lon="2.82158">
        <ele>350.1</ele>
        <time>2019-11-01T09:46:51Z</time>
      </trkpt>
      <trkpt lat="46.31826" lon="2.8215">
        <ele>349.9</ele>
        <time>2019-11-01T09:46:52Z</time>
      </trkpt>
      <trkpt lat="46.31825" lon="2.82142">
        <ele>349.7</ele>
        <time>2019-11-01T09:46:53Z</time>
      </trkpt>
      <trkpt lat="46.31824" lon="2.82135">
        <ele>349.5</ele>
        <time>2019-11-01T09:46:54Z</time>
      </trkpt>
      <trkpt lat="46.31824" lon="2.82127">
        <ele>349.3</ele>
        <time>2019-11-01T09:46:55Z</time>
      </trkpt>
      <trkpt lat="46.31823" lon="2.82119">
        <ele>349</ele>
        <time>2019-11-01T09:46:56Z</time>
      </trkpt>
      <trkpt lat="46.31823" lon="2.82111">
        <ele>348.8</ele>
        <time>2019-11-01T09:46:57Z</time>
      </trkpt>
      <trkpt lat="46.31823" lon="2.82103">
        <ele>348.5</ele>
        <time>2019-11-01T09:46:58Z</time>
      </trkpt>
      <trkpt lat="46.31822" lon="2.82095">
        <ele>348.3</ele>
        <time>2019-11-01T09:46:59Z</time>
      </trkpt>
      <trkpt lat="46.31821" lon="2.82087">
        <ele>348.2</ele>
        <time>2019-11-01T09:47:00Z</time>
      </trkpt>
      <trkpt lat="46.31821" lon="2.82079">
        <ele>348</ele>
        <time>2019-11-01T09:47:11Z</time>
      </trkpt>
      <trkpt lat="46.3182" lon="2.82071">
        <ele>347.8</ele>
        <time>2019-11-01T09:47:12Z</time>
      </trkpt>
      <trkpt lat="46.31819" lon="2.82063">
        <ele>347.6</ele>
        <time>2019-11-01T09:47:13Z</time>
      </trkpt>
      <trkpt lat="46.31818" lon="2.82055">
        <ele>347.4</ele>
        <time>2019-11-01T09:47:14Z</time>
      </trkpt>
      <trkpt lat="46.31818" lon="2.82047">
        <ele>347.2</ele>
        <time>2019-11-01T09:47:15Z</time>
      </trkpt>
      <trkpt lat="46.31817" lon="2.82039">
        <ele>347</ele>
        <time>2019-11-01T09:47:16Z</time>
      </trkpt>
      <trkpt lat="46.31816" lon="2.82033">
        <ele>346.8</ele>
        <time>2019-11-01T09:47:17Z</time>
      </trkpt>
      <trkpt lat="46.31816" lon="2.82027">
        <ele>346.6</ele>
        <time>2019-11-01T09:47:18Z</time>
      </trkpt>
      <trkpt lat="46.31816" lon="2.82022">
        <ele>346.5</ele>
        <time>2019-11-01T09:47:19Z</time>
      </trkpt>
      <trkpt lat="46.31816" lon="2.82018">
        <ele>346.3</ele>
        <time>2019-11-01T09:47:20Z</time>
      </trkpt>
      <trkpt lat="46.31816" lon="2.82015">
        <ele>346.2</ele>
        <time>2019-11-01T09:47:21Z</time>
      </trkpt>
      <trkpt lat="46.31815" lon="2.82013">
        <ele>346.1</ele>
        <time>2019-11-01T09:47:22Z</time>
      </trkpt>
      <trkpt lat="46.31815" lon="2.82012">
        <ele>346</ele>
        <time>2019-11-01T09:47:23Z</time>
      </trkpt>
      <trkpt lat="46.31816" lon="2.82011">
        <ele>346</ele>
        <time>2019-11-01T09:47:24Z</time>
      </trkpt>
      <trkpt lat="46.31815" lon="2.82009">
        <ele>345.9</ele>
        <time>2019-11-01T09:47:25Z</time>
      </trkpt>
      <trkpt lat="46.31814" lon="2.82008">
        <ele>345.9</ele>
        <time>2019-11-01T09:47:26Z</time>
      </trkpt>
      <trkpt lat="46.31813" lon="2.82007">
        <ele>345.9</ele>
        <time>2019-11-01T09:47:27Z</time>
      </trkpt>
      <trkpt lat="46.31811" lon="2.82007">
        <ele>345.9</ele>
        <time>2019-11-01T09:47:28Z</time>
      </trkpt>
      <trkpt lat="46.31809" lon="2.82007">
        <ele>345.9</ele>
        <time>2019-11-01T09:47:29Z</time>
      </trkpt>
      <trkpt lat="46.31807" lon="2.82008">
        <ele>345.9</ele>
        <time>2019-11-01T09:47:30Z</time>
      </trkpt>
      <trkpt lat="46.31804" lon="2.82009">
        <ele>345.9</ele>
        <time>2019-11-01T09:47:31Z</time>
      </trkpt>
      <trkpt lat="46.31802" lon="2.8201">
        <ele>345.9</ele>
        <time>2019-11-01T09:47:32Z</time>
      </trkpt>
      <trkpt lat="46.31799" lon="2.82011">
        <ele>345.9</ele>
        <time>2019-11-01T09:47:33Z</time>
      </trkpt>
      <trkpt lat="46.31796" lon="2.82012">
        <ele>345.9</ele>
        <time>2019-11-01T09:47:34Z</time>
      </trkpt>
      <trkpt lat="46.31793" lon="2.82013">
        <ele>345.9</ele>
        <time>2019-11-01T09:47:35Z</time>
      </trkpt>
      <trkpt lat="46.3179" lon="2.82015">
        <ele>345.9</ele>
        <time>2019-11-01T09:47:36Z</time>
      </trkpt>
      <trkpt lat="46.31786" lon="2.82017">
        <ele>345.9</ele>
        <time>2019-11-01T09:47:37Z</time>
      </trkpt>
      <trkpt lat="46.31783" lon="2.82019">
        <ele>345.9</ele>
        <time>2019-11-01T09:47:38Z</time>
      </trkpt>
      <trkpt lat="46.31779" lon="2.82021">
        <ele>345.9</ele>
        <time>2019-11-01T09:47:39Z</time>
      </trkpt>
      <trkpt lat="46.31775" lon="2.82024">
        <ele>346</ele>
        <time>2019-11-01T09:47:40Z</time>
      </trkpt>
      <trkpt lat="46.31772" lon="2.82027">
        <ele>346</ele>
        <time>2019-11-01T09:47:41Z</time>
      </trkpt>
      <trkpt lat="46.3177" lon="2.8203">
        <ele>346</ele>
        <time>2019-11-01T09:47:42Z</time>
      </trkpt>
      <trkpt lat="46.31767" lon="2.82034">
        <ele>346</ele>
        <time>2019-11-01T09:47:43Z</time>
      </trkpt>
      <trkpt lat="46.31764" lon="2.82036">
        <ele>346.1</ele>
        <time>2019-11-01T09:47:44Z</time>
      </trkpt>
      <trkpt lat="46.31761" lon="2.82039">
        <ele>346.1</ele>
        <time>2019-11-01T09:47:45Z</time>
      </trkpt>
      <trkpt lat="46.31758" lon="2.82041">
        <ele>346.1</ele>
        <time>2019-11-01T09:47:46Z</time>
      </trkpt>
      <trkpt lat="46.31754" lon="2.82043">
        <ele>346.1</ele>
        <time>2019-11-01T09:47:47Z</time>
      </trkpt>
      <trkpt lat="46.31751" lon="2.82046">
        <ele>346.1</ele>
        <time>2019-11-01T09:47:48Z</time>
      </trkpt>
      <trkpt lat="46.31749" lon="2.82048">
        <ele>346.2</ele>
        <time>2019-11-01T09:47:49Z</time>
      </trkpt>
      <trkpt lat="46.31746" lon="2.8205">
        <ele>346.2</ele>
        <time>2019-11-01T09:47:50Z</time>
      </trkpt>
      <trkpt lat="46.31744" lon="2.82052">
        <ele>346.2</ele>
        <time>2019-11-01T09:47:51Z</time>
      </trkpt>
      <trkpt lat="46.31742" lon="2.82053">
        <ele>346.2</ele>
        <time>2019-11-01T09:47:52Z</time>
      </trkpt>
      <trkpt lat="46.31741" lon="2.82054">
        <ele>346.2</ele>
        <time>2019-11-01T09:47:53Z</time>
      </trkpt>
      <trkpt lat="46.31741" lon="2.82056">
        <ele>346.2</ele>
        <time>2019-11-01T09:47:54Z</time>
      </trkpt>
      <trkpt lat="46.31741" lon="2.82058">
        <ele>346.2</ele>
        <time>2019-11-01T09:47:55Z</time>
      </trkpt>
      <trkpt lat="46.31742" lon="2.82059">
        <ele>346.2</ele>
        <time>2019-11-01T09:47:56Z</time>
      </trkpt>
      <trkpt lat="46.31743" lon="2.82059">
        <ele>346.2</ele>
        <time>2019-11-01T09:47:57Z</time>
      </trkpt>
      <trkpt lat="46.31744" lon="2.82058">
        <ele>346.2</ele>
        <time>2019-11-01T09:47:58Z</time>
      </trkpt>
      <trkpt lat="46.31745" lon="2.82055">
        <ele>346.2</ele>
        <time>2019-11-01T09:47:59Z</time>
      </trkpt>
      <trkpt lat="46.31747" lon="2.82052">
        <ele>346.2</ele>
        <time>2019-11-01T09:48:00Z</time>
      </trkpt>
      <trkpt lat="46.31749" lon="2.82049">
        <ele>346.2</ele>
        <time>2019-11-01T09:48:01Z</time>
      </trkpt>
      <trkpt lat="46.31751" lon="2.82045">
        <ele>346.2</ele>
        <time>2019-11-01T09:48:02Z</time>
      </trkpt>
      <trkpt lat="46.31754" lon="2.82042">
        <ele>346.2</ele>
        <time>2019-11-01T09:48:03Z</time>
      </trkpt>
      <trkpt lat="46.31758" lon="2.82039">
        <ele>346.2</ele>
        <time>2019-11-01T09:48:04Z</time>
      </trkpt>
      <trkpt lat="46.31762" lon="2.82035">
        <ele>346.1</ele>
        <time>2019-11-01T09:48:05Z</time>
      </trkpt>
      <trkpt lat="46.31767" lon="2.82031">
        <ele>346.1</ele>
        <time>2019-11-01T09:48:06Z</time>
      </trkpt>
      <trkpt lat="46.31771" lon="2.82026">
        <ele>346</ele>
        <time>2019-11-01T09:48:07Z</time>
      </trkpt>
      <trkpt lat="46.31775" lon="2.82021">
        <ele>345.8</ele>
        <time>2019-11-01T09:48:08Z</time>
      </trkpt>
      <trkpt lat="46.31778" lon="2.82016">
        <ele>345.7</ele>
        <time>2019-11-01T09:48:09Z</time>
      </trkpt>
      <trkpt lat="46.31779" lon="2.82011">
        <ele>345.6</ele>
        <time>2019-11-01T09:48:10Z</time>
      </trkpt>
      <trkpt lat="46.31779" lon="2.82005">
        <ele>345.5</ele>
        <time>2019-11-01T09:48:11Z</time>
      </trkpt>
      <trkpt lat="46.31779" lon="2.81999">
        <ele>345.4</ele>
        <time>2019-11-01T09:48:12Z</time>
      </trkpt>
      <trkpt lat="46.31778" lon="2.81994">
        <ele>345.3</ele>
        <time>2019-11-01T09:48:13Z</time>
      </trkpt>
      <trkpt lat="46.31777" lon="2.81988">
        <ele>345.2</ele>
        <time>2019-11-01T09:48:14Z</time>
      </trkpt>
      <trkpt lat="46.31776" lon="2.81983">
        <ele>345.2</ele>
        <time>2019-11-01T09:48:15Z</time>
      </trkpt>
      <trkpt lat="46.31775" lon="2.81977">
        <ele>345.1</ele>
        <time>2019-11-01T09:48:16Z</time>
      </trkpt>
      <trkpt lat="46.31774" lon="2.81971">
        <ele>345</ele>
        <time>2019-11-01T09:48:17Z</time>
      </trkpt>
      <trkpt lat="46.31773" lon="2.81966">
        <ele>344.9</ele>
        <time>2019-11-01T09:48:18Z</time>
      </trkpt>
      <trkpt lat="46.31773" lon="2.8196">
        <ele>344.7</ele>
        <time>2019-11-01T09:48:19Z</time>
      </trkpt>
      <trkpt lat="46.31772" lon="2.81954">
        <ele>344.6</ele>
        <time>2019-11-01T09:48:20Z</time>
      </trkpt>
      <trkpt lat="46.31772" lon="2.81948">
        <ele>344.5</ele>
        <time>2019-11-01T09:48:21Z</time>
      </trkpt>
      <trkpt lat="46.31771" lon="2.81942">
        <ele>344.4</ele>
        <time>2019-11-01T09:48:22Z</time>
      </trkpt>
      <trkpt lat="46.31771" lon="2.81935">
        <ele>344.3</ele>
        <time>2019-11-01T09:48:23Z</time>
      </trkpt>
      <trkpt lat="46.3177" lon="2.81929">
        <ele>344.1</ele>
        <time>2019-11-01T09:48:24Z</time>
      </trkpt>
      <trkpt lat="46.3177" lon="2.81922">
        <ele>344</ele>
        <time>2019-11-01T09:48:25Z</time>
      </trkpt>
      <trkpt lat="46.31769" lon="2.81915">
        <ele>343.8</ele>
        <time>2019-11-01T09:48:26Z</time>
      </trkpt>
      <trkpt lat="46.31769" lon="2.81907">
        <ele>343.7</ele>
        <time>2019-11-01T09:48:27Z</time>
      </trkpt>
      <trkpt lat="46.31768" lon="2.819">
        <ele>343.6</ele>
        <time>2019-11-01T09:48:28Z</time>
      </trkpt>
      <trkpt lat="46.31767" lon="2.81892">
        <ele>343.4</ele>
        <time>2019-11-01T09:48:29Z</time>
      </trkpt>
      <trkpt lat="46.31766" lon="2.81884">
        <ele>343.3</ele>
        <time>2019-11-01T09:48:30Z</time>
      </trkpt>
      <trkpt lat="46.31765" lon="2.81877">
        <ele>343.2</ele>
        <time>2019-11-01T09:48:31Z</time>
      </trkpt>
      <trkpt lat="46.31765" lon="2.81869">
        <ele>343</ele>
        <time>2019-11-01T09:48:32Z</time>
      </trkpt>
      <trkpt lat="46.31764" lon="2.81861">
        <ele>342.9</ele>
        <time>2019-11-01T09:48:33Z</time>
      </trkpt>
      <trkpt lat="46.31763" lon="2.81852">
        <ele>342.8</ele>
        <time>2019-11-01T09:48:34Z</time>
      </trkpt>
      <trkpt lat="46.31763" lon="2.81844">
        <ele>342.7</ele>
        <time>2019-11-01T09:48:35Z</time>
      </trkpt>
      <trkpt lat="46.31763" lon="2.81836">
        <ele>342.7</ele>
        <time>2019-11-01T09:48:36Z</time>
      </trkpt>
      <trkpt lat="46.31764" lon="2.81828">
        <ele>342.6</ele>
        <time>2019-11-01T09:48:37Z</time>
      </trkpt>
      <trkpt lat="46.31764" lon="2.8182">
        <ele>342.6</ele>
        <time>2019-11-01T09:48:38Z</time>
      </trkpt>
      <trkpt lat="46.31765" lon="2.81812">
        <ele>342.5</ele>
        <time>2019-11-01T09:48:39Z</time>
      </trkpt>
      <trkpt lat="46.31766" lon="2.81804">
        <ele>342.5</ele>
        <time>2019-11-01T09:48:40Z</time>
      </trkpt>
      <trkpt lat="46.31766" lon="2.81796">
        <ele>342.5</ele>
        <time>2019-11-01T09:48:41Z</time>
      </trkpt>
      <trkpt lat="46.31767" lon="2.81788">
        <ele>342.4</ele>
        <time>2019-11-01T09:48:42Z</time>
      </trkpt>
      <trkpt lat="46.31767" lon="2.81779">
        <ele>342.4</ele>
        <time>2019-11-01T09:48:43Z</time>
      </trkpt>
      <trkpt lat="46.31767" lon="2.81771">
        <ele>342.4</ele>
        <time>2019-11-01T09:48:44Z</time>
      </trkpt>
      <trkpt lat="46.31767" lon="2.81763">
        <ele>342.4</ele>
        <time>2019-11-01T09:48:45Z</time>
      </trkpt>
      <trkpt lat="46.31767" lon="2.81754">
        <ele>342.4</ele>
        <time>2019-11-01T09:48:46Z</time>
      </trkpt>
      <trkpt lat="46.31766" lon="2.81746">
        <ele>342.3</ele>
        <time>2019-11-01T09:48:47Z</time>
      </trkpt>
      <trkpt lat="46.31766" lon="2.81738">
        <ele>342.1</ele>
        <time>2019-11-01T09:48:48Z</time>
      </trkpt>
      <trkpt lat="46.31765" lon="2.8173">
        <ele>342</ele>
        <time>2019-11-01T09:48:49Z</time>
      </trkpt>
      <trkpt lat="46.31764" lon="2.81722">
        <ele>341.9</ele>
        <time>2019-11-01T09:48:50Z</time>
      </trkpt>
      <trkpt lat="46.31764" lon="2.81714">
        <ele>341.8</ele>
        <time>2019-11-01T09:48:51Z</time>
      </trkpt>
      <trkpt lat="46.31763" lon="2.81707">
        <ele>341.7</ele>
        <time>2019-11-01T09:48:52Z</time>
      </trkpt>
      <trkpt lat="46.31762" lon="2.81699">
        <ele>341.6</ele>
        <time>2019-11-01T09:48:53Z</time>
      </trkpt>
      <trkpt lat="46.31762" lon="2.81692">
        <ele>341.5</ele>
        <time>2019-11-01T09:48:54Z</time>
      </trkpt>
      <trkpt lat="46.31761" lon="2.81685">
        <ele>341.4</ele>
        <time>2019-11-01T09:48:55Z</time>
      </trkpt>
      <trkpt lat="46.3176" lon="2.81678">
        <ele>341.3</ele>
        <time>2019-11-01T09:48:56Z</time>
      </trkpt>
      <trkpt lat="46.31759" lon="2.81671">
        <ele>341.2</ele>
        <time>2019-11-01T09:48:57Z</time>
      </trkpt>
      <trkpt lat="46.31759" lon="2.81663">
        <ele>341.2</ele>
        <time>2019-11-01T09:48:58Z</time>
      </trkpt>
      <trkpt lat="46.31758" lon="2.81656">
        <ele>341.1</ele>
        <time>2019-11-01T09:48:59Z</time>
      </trkpt>
      <trkpt lat="46.31758" lon="2.8165">
        <ele>341.1</ele>
        <time>2019-11-01T09:49:00Z</time>
      </trkpt>
      <trkpt lat="46.31758" lon="2.81642">
        <ele>341</ele>
        <time>2019-11-01T09:49:01Z</time>
      </trkpt>
      <trkpt lat="46.31758" lon="2.81636">
        <ele>340.9</ele>
        <time>2019-11-01T09:49:02Z</time>
      </trkpt>
      <trkpt lat="46.31758" lon="2.81629">
        <ele>340.9</ele>
        <time>2019-11-01T09:49:03Z</time>
      </trkpt>
      <trkpt lat="46.31759" lon="2.81622">
        <ele>340.8</ele>
        <time>2019-11-01T09:49:04Z</time>
      </trkpt>
      <trkpt lat="46.31759" lon="2.81614">
        <ele>340.7</ele>
        <time>2019-11-01T09:49:05Z</time>
      </trkpt>
      <trkpt lat="46.31759" lon="2.81608">
        <ele>340.6</ele>
        <time>2019-11-01T09:49:06Z</time>
      </trkpt>
      <trkpt lat="46.3176" lon="2.81601">
        <ele>340.6</ele>
        <time>2019-11-01T09:49:07Z</time>
      </trkpt>
      <trkpt lat="46.3176" lon="2.81594">
        <ele>340.6</ele>
        <time>2019-11-01T09:49:08Z</time>
      </trkpt>
      <trkpt lat="46.3176" lon="2.81586">
        <ele>340.5</ele>
        <time>2019-11-01T09:49:09Z</time>
      </trkpt>
      <trkpt lat="46.3176" lon="2.81579">
        <ele>340.5</ele>
        <time>2019-11-01T09:49:10Z</time>
      </trkpt>
      <trkpt lat="46.3176" lon="2.81572">
        <ele>340.4</ele>
        <time>2019-11-01T09:49:11Z</time>
      </trkpt>
      <trkpt lat="46.3176" lon="2.81564">
        <ele>340.4</ele>
        <time>2019-11-01T09:49:12Z</time>
      </trkpt>
      <trkpt lat="46.3176" lon="2.81557">
        <ele>340.4</ele>
        <time>2019-11-01T09:49:13Z</time>
      </trkpt>
      <trkpt lat="46.31761" lon="2.8155">
        <ele>340.4</ele>
        <time>2019-11-01T09:49:14Z</time>
      </trkpt>
      <trkpt lat="46.31761" lon="2.81542">
        <ele>340.4</ele>
        <time>2019-11-01T09:49:15Z</time>
      </trkpt>
      <trkpt lat="46.31761" lon="2.81535">
        <ele>340.4</ele>
        <time>2019-11-01T09:49:16Z</time>
      </trkpt>
      <trkpt lat="46.31761" lon="2.81528">
        <ele>340.4</ele>
        <time>2019-11-01T09:49:17Z</time>
      </trkpt>
      <trkpt lat="46.31762" lon="2.81521">
        <ele>340.3</ele>
        <time>2019-11-01T09:49:18Z</time>
      </trkpt>
      <trkpt lat="46.31762" lon="2.81514">
        <ele>340.3</ele>
        <time>2019-11-01T09:49:19Z</time>
      </trkpt>
      <trkpt lat="46.31762" lon="2.81507">
        <ele>340.2</ele>
        <time>2019-11-01T09:49:20Z</time>
      </trkpt>
      <trkpt lat="46.31762" lon="2.815">
        <ele>340.2</ele>
        <time>2019-11-01T09:49:21Z</time>
      </trkpt>
      <trkpt lat="46.31762" lon="2.81493">
        <ele>340.1</ele>
        <time>2019-11-01T09:49:22Z</time>
      </trkpt>
      <trkpt lat="46.31762" lon="2.81485">
        <ele>340.1</ele>
        <time>2019-11-01T09:49:23Z</time>
      </trkpt>
      <trkpt lat="46.31762" lon="2.81478">
        <ele>340</ele>
        <time>2019-11-01T09:49:24Z</time>
      </trkpt>
      <trkpt lat="46.31761" lon="2.81471">
        <ele>339.9</ele>
        <time>2019-11-01T09:49:25Z</time>
      </trkpt>
      <trkpt lat="46.3176" lon="2.81463">
        <ele>339.8</ele>
        <time>2019-11-01T09:49:26Z</time>
      </trkpt>
      <trkpt lat="46.31758" lon="2.81456">
        <ele>339.8</ele>
        <time>2019-11-01T09:49:27Z</time>
      </trkpt>
      <trkpt lat="46.31757" lon="2.81448">
        <ele>339.8</ele>
        <time>2019-11-01T09:49:28Z</time>
      </trkpt>
      <trkpt lat="46.31755" lon="2.81441">
        <ele>339.7</ele>
        <time>2019-11-01T09:49:29Z</time>
      </trkpt>
      <trkpt lat="46.31753" lon="2.81434">
        <ele>339.7</ele>
        <time>2019-11-01T09:49:30Z</time>
      </trkpt>
      <trkpt lat="46.31751" lon="2.81428">
        <ele>339.6</ele>
        <time>2019-11-01T09:49:31Z</time>
      </trkpt>
      <trkpt lat="46.31748" lon="2.81421">
        <ele>339.5</ele>
        <time>2019-11-01T09:49:32Z</time>
      </trkpt>
      <trkpt lat="46.31746" lon="2.81414">
        <ele>339.5</ele>
        <time>2019-11-01T09:49:33Z</time>
      </trkpt>
      <trkpt lat="46.31742" lon="2.81408">
        <ele>339.3</ele>
        <time>2019-11-01T09:49:34Z</time>
      </trkpt>
      <trkpt lat="46.31739" lon="2.81401">
        <ele>339.3</ele>
        <time>2019-11-01T09:49:35Z</time>
      </trkpt>
      <trkpt lat="46.31736" lon="2.81396">
        <ele>339</ele>
        <time>2019-11-01T09:49:36Z</time>
      </trkpt>
      <trkpt lat="46.31733" lon="2.8139">
        <ele>338.9</ele>
        <time>2019-11-01T09:49:37Z</time>
      </trkpt>
      <trkpt lat="46.31729" lon="2.81384">
        <ele>338.7</ele>
        <time>2019-11-01T09:49:38Z</time>
      </trkpt>
      <trkpt lat="46.31726" lon="2.81378">
        <ele>338.3</ele>
        <time>2019-11-01T09:49:39Z</time>
      </trkpt>
      <trkpt lat="46.31722" lon="2.81373">
        <ele>338.2</ele>
        <time>2019-11-01T09:49:40Z</time>
      </trkpt>
      <trkpt lat="46.31719" lon="2.81368">
        <ele>338</ele>
        <time>2019-11-01T09:49:41Z</time>
      </trkpt>
      <trkpt lat="46.31715" lon="2.81363">
        <ele>337.9</ele>
        <time>2019-11-01T09:49:42Z</time>
      </trkpt>
      <trkpt lat="46.31711" lon="2.81358">
        <ele>337.7</ele>
        <time>2019-11-01T09:49:43Z</time>
      </trkpt>
      <trkpt lat="46.31707" lon="2.81353">
        <ele>337.3</ele>
        <time>2019-11-01T09:49:44Z</time>
      </trkpt>
      <trkpt lat="46.31702" lon="2.81348">
        <ele>337.2</ele>
        <time>2019-11-01T09:49:45Z</time>
      </trkpt>
      <trkpt lat="46.31698" lon="2.81344">
        <ele>337</ele>
        <time>2019-11-01T09:49:46Z</time>
      </trkpt>
      <trkpt lat="46.31695" lon="2.81339">
        <ele>336.7</ele>
        <time>2019-11-01T09:49:47Z</time>
      </trkpt>
      <trkpt lat="46.31691" lon="2.81335">
        <ele>336.6</ele>
        <time>2019-11-01T09:49:48Z</time>
      </trkpt>
      <trkpt lat="46.31687" lon="2.8133">
        <ele>336.4</ele>
        <time>2019-11-01T09:49:49Z</time>
      </trkpt>
      <trkpt lat="46.31683" lon="2.81326">
        <ele>336.3</ele>
        <time>2019-11-01T09:49:50Z</time>
      </trkpt>
      <trkpt lat="46.31679" lon="2.81322">
        <ele>336.2</ele>
        <time>2019-11-01T09:49:51Z</time>
      </trkpt>
      <trkpt lat="46.31676" lon="2.81319">
        <ele>336.4</ele>
        <time>2019-11-01T09:49:52Z</time>
      </trkpt>
      <trkpt lat="46.31672" lon="2.81315">
        <ele>336.3</ele>
        <time>2019-11-01T09:49:53Z</time>
      </trkpt>
      <trkpt lat="46.31669" lon="2.8131">
        <ele>336.1</ele>
        <time>2019-11-01T09:49:54Z</time>
      </trkpt>
      <trkpt lat="46.31666" lon="2.81305">
        <ele>335.7</ele>
        <time>2019-11-01T09:49:55Z</time>
      </trkpt>
      <trkpt lat="46.31665" lon="2.813">
        <ele>335.4</ele>
        <time>2019-11-01T09:49:56Z</time>
      </trkpt>
      <trkpt lat="46.31664" lon="2.81294">
        <ele>335.2</ele>
        <time>2019-11-01T09:49:57Z</time>
      </trkpt>
      <trkpt lat="46.31663" lon="2.81287">
        <ele>334.5</ele>
        <time>2019-11-01T09:49:58Z</time>
      </trkpt>
      <trkpt lat="46.31663" lon="2.81281">
        <ele>334.2</ele>
        <time>2019-11-01T09:49:59Z</time>
      </trkpt>
      <trkpt lat="46.31663" lon="2.81276">
        <ele>333.9</ele>
        <time>2019-11-01T09:50:00Z</time>
      </trkpt>
      <trkpt lat="46.31663" lon="2.81272">
        <ele>333.6</ele>
        <time>2019-11-01T09:50:01Z</time>
      </trkpt>
      <trkpt lat="46.31663" lon="2.81268">
        <ele>333.3</ele>
        <time>2019-11-01T09:50:02Z</time>
      </trkpt>
      <trkpt lat="46.31662" lon="2.81265">
        <ele>333</ele>
        <time>2019-11-01T09:50:03Z</time>
      </trkpt>
      <trkpt lat="46.31661" lon="2.81262">
        <ele>332.6</ele>
        <time>2019-11-01T09:50:04Z</time>
      </trkpt>
      <trkpt lat="46.31659" lon="2.81259">
        <ele>332.7</ele>
        <time>2019-11-01T09:50:05Z</time>
      </trkpt>
      <trkpt lat="46.31656" lon="2.81258">
        <ele>332.2</ele>
        <time>2019-11-01T09:50:06Z</time>
      </trkpt>
      <trkpt lat="46.31654" lon="2.81257">
        <ele>332.1</ele>
        <time>2019-11-01T09:50:07Z</time>
      </trkpt>
      <trkpt lat="46.31652" lon="2.81256">
        <ele>331.9</ele>
        <time>2019-11-01T09:50:08Z</time>
      </trkpt>
      <trkpt lat="46.31649" lon="2.81256">
        <ele>331.8</ele>
        <time>2019-11-01T09:50:09Z</time>
      </trkpt>
      <trkpt lat="46.31647" lon="2.81257">
        <ele>331.8</ele>
        <time>2019-11-01T09:50:10Z</time>
      </trkpt>
      <trkpt lat="46.31643" lon="2.81258">
        <ele>331.3</ele>
        <time>2019-11-01T09:50:11Z</time>
      </trkpt>
      <trkpt lat="46.31641" lon="2.8126">
        <ele>331.2</ele>
        <time>2019-11-01T09:50:12Z</time>
      </trkpt>
      <trkpt lat="46.31639" lon="2.81262">
        <ele>331.1</ele>
        <time>2019-11-01T09:50:13Z</time>
      </trkpt>
      <trkpt lat="46.31636" lon="2.81264">
        <ele>330.9</ele>
        <time>2019-11-01T09:50:14Z</time>
      </trkpt>
      <trkpt lat="46.31634" lon="2.81266">
        <ele>330.8</ele>
        <time>2019-11-01T09:50:15Z</time>
      </trkpt>
      <trkpt lat="46.31631" lon="2.81268">
        <ele>330.7</ele>
        <time>2019-11-01T09:50:16Z</time>
      </trkpt>
      <trkpt lat="46.31629" lon="2.81271">
        <ele>330.6</ele>
        <time>2019-11-01T09:50:17Z</time>
      </trkpt>
      <trkpt lat="46.31626" lon="2.81275">
        <ele>330.5</ele>
        <time>2019-11-01T09:50:18Z</time>
      </trkpt>
      <trkpt lat="46.31623" lon="2.81278">
        <ele>330.3</ele>
        <time>2019-11-01T09:50:19Z</time>
      </trkpt>
      <trkpt lat="46.31619" lon="2.81281">
        <ele>330.2</ele>
        <time>2019-11-01T09:50:20Z</time>
      </trkpt>
      <trkpt lat="46.31616" lon="2.81285">
        <ele>330.1</ele>
        <time>2019-11-01T09:50:21Z</time>
      </trkpt>
      <trkpt lat="46.31613" lon="2.81289">
        <ele>330</ele>
        <time>2019-11-01T09:50:22Z</time>
      </trkpt>
      <trkpt lat="46.3161" lon="2.81294">
        <ele>329.9</ele>
        <time>2019-11-01T09:50:23Z</time>
      </trkpt>
      <trkpt lat="46.31607" lon="2.81298">
        <ele>329.8</ele>
        <time>2019-11-01T09:50:24Z</time>
      </trkpt>
      <trkpt lat="46.31604" lon="2.81303">
        <ele>329.7</ele>
        <time>2019-11-01T09:50:25Z</time>
      </trkpt>
      <trkpt lat="46.31601" lon="2.81308">
        <ele>329.6</ele>
        <time>2019-11-01T09:50:26Z</time>
      </trkpt>
      <trkpt lat="46.31598" lon="2.81313">
        <ele>329.5</ele>
        <time>2019-11-01T09:50:27Z</time>
      </trkpt>
      <trkpt lat="46.31595" lon="2.81317">
        <ele>329.4</ele>
        <time>2019-11-01T09:50:28Z</time>
      </trkpt>
      <trkpt lat="46.31593" lon="2.81322">
        <ele>329.3</ele>
        <time>2019-11-01T09:50:29Z</time>
      </trkpt>
      <trkpt lat="46.3159" lon="2.81327">
        <ele>329.1</ele>
        <time>2019-11-01T09:50:30Z</time>
      </trkpt>
      <trkpt lat="46.31587" lon="2.81332">
        <ele>329</ele>
        <time>2019-11-01T09:50:31Z</time>
      </trkpt>
      <trkpt lat="46.31585" lon="2.81338">
        <ele>328.9</ele>
        <time>2019-11-01T09:50:32Z</time>
      </trkpt>
      <trkpt lat="46.31583" lon="2.81344">
        <ele>328.8</ele>
        <time>2019-11-01T09:50:33Z</time>
      </trkpt>
      <trkpt lat="46.3158" lon="2.8135">
        <ele>328.7</ele>
        <time>2019-11-01T09:50:34Z</time>
      </trkpt>
      <trkpt lat="46.31578" lon="2.81356">
        <ele>328.6</ele>
        <time>2019-11-01T09:50:35Z</time>
      </trkpt>
      <trkpt lat="46.31576" lon="2.81363">
        <ele>328.5</ele>
        <time>2019-11-01T09:50:36Z</time>
      </trkpt>
      <trkpt lat="46.31574" lon="2.81369">
        <ele>328.3</ele>
        <time>2019-11-01T09:50:37Z</time>
      </trkpt>
      <trkpt lat="46.31572" lon="2.81376">
        <ele>328.2</ele>
        <time>2019-11-01T09:50:38Z</time>
      </trkpt>
      <trkpt lat="46.3157" lon="2.81382">
        <ele>328</ele>
        <time>2019-11-01T09:50:39Z</time>
      </trkpt>
      <trkpt lat="46.31568" lon="2.81389">
        <ele>327.9</ele>
        <time>2019-11-01T09:50:40Z</time>
      </trkpt>
      <trkpt lat="46.31566" lon="2.81396">
        <ele>327.7</ele>
        <time>2019-11-01T09:50:41Z</time>
      </trkpt>
      <trkpt lat="46.31564" lon="2.81402">
        <ele>327.5</ele>
        <time>2019-11-01T09:50:42Z</time>
      </trkpt>
      <trkpt lat="46.31562" lon="2.81409">
        <ele>327.3</ele>
        <time>2019-11-01T09:50:43Z</time>
      </trkpt>
      <trkpt lat="46.3156" lon="2.81415">
        <ele>327.2</ele>
        <time>2019-11-01T09:50:44Z</time>
      </trkpt>
      <trkpt lat="46.31558" lon="2.81421">
        <ele>327</ele>
        <time>2019-11-01T09:50:45Z</time>
      </trkpt>
      <trkpt lat="46.31556" lon="2.81427">
        <ele>326.8</ele>
        <time>2019-11-01T09:50:46Z</time>
      </trkpt>
      <trkpt lat="46.31554" lon="2.81434">
        <ele>326.6</ele>
        <time>2019-11-01T09:50:47Z</time>
      </trkpt>
      <trkpt lat="46.31552" lon="2.8144">
        <ele>326.4</ele>
        <time>2019-11-01T09:50:48Z</time>
      </trkpt>
      <trkpt lat="46.3155" lon="2.81447">
        <ele>326.3</ele>
        <time>2019-11-01T09:50:49Z</time>
      </trkpt>
      <trkpt lat="46.31548" lon="2.81453">
        <ele>326.1</ele>
        <time>2019-11-01T09:50:50Z</time>
      </trkpt>
      <trkpt lat="46.31546" lon="2.81459">
        <ele>325.9</ele>
        <time>2019-11-01T09:50:51Z</time>
      </trkpt>
      <trkpt lat="46.31544" lon="2.81465">
        <ele>325.8</ele>
        <time>2019-11-01T09:50:52Z</time>
      </trkpt>
      <trkpt lat="46.31543" lon="2.81471">
        <ele>325.6</ele>
        <time>2019-11-01T09:50:53Z</time>
      </trkpt>
      <trkpt lat="46.31541" lon="2.81477">
        <ele>325.4</ele>
        <time>2019-11-01T09:50:54Z</time>
      </trkpt>
      <trkpt lat="46.31539" lon="2.81484">
        <ele>325.2</ele>
        <time>2019-11-01T09:50:55Z</time>
      </trkpt>
      <trkpt lat="46.31537" lon="2.8149">
        <ele>325.1</ele>
        <time>2019-11-01T09:50:56Z</time>
      </trkpt>
      <trkpt lat="46.31535" lon="2.81496">
        <ele>324.9</ele>
        <time>2019-11-01T09:50:57Z</time>
      </trkpt>
      <trkpt lat="46.31533" lon="2.81503">
        <ele>324.8</ele>
        <time>2019-11-01T09:50:58Z</time>
      </trkpt>
      <trkpt lat="46.31531" lon="2.81509">
        <ele>324.6</ele>
        <time>2019-11-01T09:50:59Z</time>
      </trkpt>
      <trkpt lat="46.31529" lon="2.81515">
        <ele>324.5</ele>
        <time>2019-11-01T09:51:00Z</time>
      </trkpt>
      <trkpt lat="46.31527" lon="2.81522">
        <ele>324.3</ele>
        <time>2019-11-01T09:51:01Z</time>
      </trkpt>
      <trkpt lat="46.31524" lon="2.81528">
        <ele>324.1</ele>
        <time>2019-11-01T09:51:02Z</time>
      </trkpt>
      <trkpt lat="46.31522" lon="2.81534">
        <ele>323.9</ele>
        <time>2019-11-01T09:51:03Z</time>
      </trkpt>
      <trkpt lat="46.3152" lon="2.8154">
        <ele>323.7</ele>
        <time>2019-11-01T09:51:04Z</time>
      </trkpt>
      <trkpt lat="46.31518" lon="2.81546">
        <ele>323.6</ele>
        <time>2019-11-01T09:51:05Z</time>
      </trkpt>
      <trkpt lat="46.31516" lon="2.81551">
        <ele>323.4</ele>
        <time>2019-11-01T09:51:06Z</time>
      </trkpt>
      <trkpt lat="46.31514" lon="2.81557">
        <ele>323.3</ele>
        <time>2019-11-01T09:51:07Z</time>
      </trkpt>
      <trkpt lat="46.31512" lon="2.81563">
        <ele>323.1</ele>
        <time>2019-11-01T09:51:08Z</time>
      </trkpt>
      <trkpt lat="46.31511" lon="2.8157">
        <ele>322.9</ele>
        <time>2019-11-01T09:51:09Z</time>
      </trkpt>
      <trkpt lat="46.31509" lon="2.81576">
        <ele>322.9</ele>
        <time>2019-11-01T09:51:10Z</time>
      </trkpt>
      <trkpt lat="46.31507" lon="2.81583">
        <ele>322.8</ele>
        <time>2019-11-01T09:51:11Z</time>
      </trkpt>
      <trkpt lat="46.31506" lon="2.81589">
        <ele>322.7</ele>
        <time>2019-11-01T09:51:12Z</time>
      </trkpt>
      <trkpt lat="46.31504" lon="2.81596">
        <ele>322.5</ele>
        <time>2019-11-01T09:51:13Z</time>
      </trkpt>
      <trkpt lat="46.31503" lon="2.81602">
        <ele>322.4</ele>
        <time>2019-11-01T09:51:14Z</time>
      </trkpt>
      <trkpt lat="46.31502" lon="2.81609">
        <ele>322.4</ele>
        <time>2019-11-01T09:51:15Z</time>
      </trkpt>
      <trkpt lat="46.315" lon="2.81616">
        <ele>322.3</ele>
        <time>2019-11-01T09:51:16Z</time>
      </trkpt>
      <trkpt lat="46.31499" lon="2.81623">
        <ele>322.2</ele>
        <time>2019-11-01T09:51:17Z</time>
      </trkpt>
      <trkpt lat="46.31498" lon="2.81631">
        <ele>322.1</ele>
        <time>2019-11-01T09:51:18Z</time>
      </trkpt>
      <trkpt lat="46.31497" lon="2.81638">
        <ele>322.1</ele>
        <time>2019-11-01T09:51:19Z</time>
      </trkpt>
      <trkpt lat="46.31496" lon="2.81646">
        <ele>322</ele>
        <time>2019-11-01T09:51:20Z</time>
      </trkpt>
      <trkpt lat="46.31495" lon="2.81653">
        <ele>322</ele>
        <time>2019-11-01T09:51:21Z</time>
      </trkpt>
      <trkpt lat="46.31494" lon="2.81661">
        <ele>321.9</ele>
        <time>2019-11-01T09:51:22Z</time>
      </trkpt>
      <trkpt lat="46.31493" lon="2.81668">
        <ele>321.9</ele>
        <time>2019-11-01T09:51:23Z</time>
      </trkpt>
      <trkpt lat="46.31492" lon="2.81675">
        <ele>321.8</ele>
        <time>2019-11-01T09:51:24Z</time>
      </trkpt>
      <trkpt lat="46.31491" lon="2.81682">
        <ele>321.8</ele>
        <time>2019-11-01T09:51:25Z</time>
      </trkpt>
      <trkpt lat="46.3149" lon="2.81689">
        <ele>321.7</ele>
        <time>2019-11-01T09:51:26Z</time>
      </trkpt>
      <trkpt lat="46.31489" lon="2.81695">
        <ele>321.7</ele>
        <time>2019-11-01T09:51:27Z</time>
      </trkpt>
      <trkpt lat="46.31488" lon="2.81702">
        <ele>321.6</ele>
        <time>2019-11-01T09:51:28Z</time>
      </trkpt>
      <trkpt lat="46.31487" lon="2.81709">
        <ele>321.6</ele>
        <time>2019-11-01T09:51:29Z</time>
      </trkpt>
      <trkpt lat="46.31486" lon="2.81715">
        <ele>321.5</ele>
        <time>2019-11-01T09:51:30Z</time>
      </trkpt>
      <trkpt lat="46.31485" lon="2.81722">
        <ele>321.5</ele>
        <time>2019-11-01T09:51:31Z</time>
      </trkpt>
      <trkpt lat="46.31484" lon="2.81729">
        <ele>321.4</ele>
        <time>2019-11-01T09:51:32Z</time>
      </trkpt>
      <trkpt lat="46.31482" lon="2.81735">
        <ele>321.3</ele>
        <time>2019-11-01T09:51:33Z</time>
      </trkpt>
      <trkpt lat="46.31481" lon="2.81742">
        <ele>321.2</ele>
        <time>2019-11-01T09:51:34Z</time>
      </trkpt>
      <trkpt lat="46.31479" lon="2.81748">
        <ele>321.1</ele>
        <time>2019-11-01T09:51:35Z</time>
      </trkpt>
      <trkpt lat="46.31477" lon="2.81754">
        <ele>321</ele>
        <time>2019-11-01T09:51:36Z</time>
      </trkpt>
      <trkpt lat="46.31475" lon="2.8176">
        <ele>320.9</ele>
        <time>2019-11-01T09:51:37Z</time>
      </trkpt>
      <trkpt lat="46.31473" lon="2.81766">
        <ele>320.8</ele>
        <time>2019-11-01T09:51:38Z</time>
      </trkpt>
      <trkpt lat="46.31471" lon="2.81771">
        <ele>320.7</ele>
        <time>2019-11-01T09:51:39Z</time>
      </trkpt>
      <trkpt lat="46.3147" lon="2.81776">
        <ele>320.6</ele>
        <time>2019-11-01T09:51:40Z</time>
      </trkpt>
      <trkpt lat="46.31467" lon="2.81782">
        <ele>320.5</ele>
        <time>2019-11-01T09:51:41Z</time>
      </trkpt>
      <trkpt lat="46.31465" lon="2.81787">
        <ele>320.4</ele>
        <time>2019-11-01T09:51:42Z</time>
      </trkpt>
      <trkpt lat="46.31462" lon="2.81792">
        <ele>320.4</ele>
        <time>2019-11-01T09:51:43Z</time>
      </trkpt>
      <trkpt lat="46.31459" lon="2.81797">
        <ele>320.3</ele>
        <time>2019-11-01T09:51:44Z</time>
      </trkpt>
      <trkpt lat="46.31456" lon="2.81802">
        <ele>320.2</ele>
        <time>2019-11-01T09:51:45Z</time>
      </trkpt>
      <trkpt lat="46.31453" lon="2.81807">
        <ele>320.2</ele>
        <time>2019-11-01T09:51:46Z</time>
      </trkpt>
      <trkpt lat="46.3145" lon="2.81811">
        <ele>320.1</ele>
        <time>2019-11-01T09:51:47Z</time>
      </trkpt>
      <trkpt lat="46.31446" lon="2.81815">
        <ele>320.1</ele>
        <time>2019-11-01T09:51:48Z</time>
      </trkpt>
      <trkpt lat="46.31442" lon="2.81818">
        <ele>320</ele>
        <time>2019-11-01T09:51:49Z</time>
      </trkpt>
      <trkpt lat="46.31439" lon="2.81821">
        <ele>320</ele>
        <time>2019-11-01T09:51:50Z</time>
      </trkpt>
      <trkpt lat="46.31437" lon="2.81824">
        <ele>319.9</ele>
        <time>2019-11-01T09:51:51Z</time>
      </trkpt>
      <trkpt lat="46.31435" lon="2.81826">
        <ele>319.9</ele>
        <time>2019-11-01T09:51:52Z</time>
      </trkpt>
      <trkpt lat="46.31433" lon="2.81828">
        <ele>319.8</ele>
        <time>2019-11-01T09:51:53Z</time>
      </trkpt>
      <trkpt lat="46.31431" lon="2.8183">
        <ele>319.8</ele>
        <time>2019-11-01T09:51:54Z</time>
      </trkpt>
      <trkpt lat="46.31428" lon="2.81832">
        <ele>319.8</ele>
        <time>2019-11-01T09:51:55Z</time>
      </trkpt>
      <trkpt lat="46.31427" lon="2.81835">
        <ele>319.8</ele>
        <time>2019-11-01T09:51:56Z</time>
      </trkpt>
      <trkpt lat="46.31425" lon="2.81838">
        <ele>319.9</ele>
        <time>2019-11-01T09:51:57Z</time>
      </trkpt>
      <trkpt lat="46.31422" lon="2.81842">
        <ele>320.2</ele>
        <time>2019-11-01T09:51:58Z</time>
      </trkpt>
      <trkpt lat="46.3142" lon="2.81844">
        <ele>320.3</ele>
        <time>2019-11-01T09:51:59Z</time>
      </trkpt>
      <trkpt lat="46.31417" lon="2.81846">
        <ele>320.4</ele>
        <time>2019-11-01T09:52:00Z</time>
      </trkpt>
      <trkpt lat="46.31414" lon="2.81847">
        <ele>320.4</ele>
        <time>2019-11-01T09:52:01Z</time>
      </trkpt>
      <trkpt lat="46.3141" lon="2.81848">
        <ele>320.5</ele>
        <time>2019-11-01T09:52:02Z</time>
      </trkpt>
      <trkpt lat="46.31407" lon="2.81849">
        <ele>320.6</ele>
        <time>2019-11-01T09:52:03Z</time>
      </trkpt>
      <trkpt lat="46.31403" lon="2.8185">
        <ele>320.7</ele>
        <time>2019-11-01T09:52:04Z</time>
      </trkpt>
      <trkpt lat="46.31399" lon="2.81851">
        <ele>320.8</ele>
        <time>2019-11-01T09:52:05Z</time>
      </trkpt>
      <trkpt lat="46.31395" lon="2.81852">
        <ele>320.9</ele>
        <time>2019-11-01T09:52:06Z</time>
      </trkpt>
      <trkpt lat="46.31392" lon="2.81854">
        <ele>321</ele>
        <time>2019-11-01T09:52:07Z</time>
      </trkpt>
      <trkpt lat="46.31388" lon="2.81855">
        <ele>321.1</ele>
        <time>2019-11-01T09:52:08Z</time>
      </trkpt>
      <trkpt lat="46.31384" lon="2.81856">
        <ele>321.2</ele>
        <time>2019-11-01T09:52:09Z</time>
      </trkpt>
      <trkpt lat="46.31381" lon="2.81857">
        <ele>321.3</ele>
        <time>2019-11-01T09:52:10Z</time>
      </trkpt>
      <trkpt lat="46.31377" lon="2.81858">
        <ele>321.3</ele>
        <time>2019-11-01T09:52:11Z</time>
      </trkpt>
      <trkpt lat="46.31374" lon="2.81858">
        <ele>321.4</ele>
        <time>2019-11-01T09:52:12Z</time>
      </trkpt>
      <trkpt lat="46.31371" lon="2.81858">
        <ele>321.5</ele>
        <time>2019-11-01T09:52:13Z</time>
      </trkpt>
      <trkpt lat="46.31368" lon="2.81858">
        <ele>321.5</ele>
        <time>2019-11-01T09:52:14Z</time>
      </trkpt>
      <trkpt lat="46.31365" lon="2.81858">
        <ele>321.6</ele>
        <time>2019-11-01T09:52:15Z</time>
      </trkpt>
      <trkpt lat="46.31363" lon="2.81858">
        <ele>321.6</ele>
        <time>2019-11-01T09:52:16Z</time>
      </trkpt>
      <trkpt lat="46.31361" lon="2.81858">
        <ele>321.7</ele>
        <time>2019-11-01T09:52:17Z</time>
      </trkpt>
      <trkpt lat="46.31359" lon="2.81858">
        <ele>321.7</ele>
        <time>2019-11-01T09:52:18Z</time>
      </trkpt>
      <trkpt lat="46.31357" lon="2.81857">
        <ele>321.8</ele>
        <time>2019-11-01T09:52:19Z</time>
      </trkpt>
      <trkpt lat="46.31355" lon="2.81857">
        <ele>321.8</ele>
        <time>2019-11-01T09:52:20Z</time>
      </trkpt>
      <trkpt lat="46.31354" lon="2.81857">
        <ele>321.8</ele>
        <time>2019-11-01T09:52:21Z</time>
      </trkpt>
      <trkpt lat="46.31353" lon="2.81857">
        <ele>321.8</ele>
        <time>2019-11-01T09:52:22Z</time>
      </trkpt>
      <trkpt lat="46.31352" lon="2.81857">
        <ele>321.9</ele>
        <time>2019-11-01T09:52:23Z</time>
      </trkpt>
      <trkpt lat="46.31353" lon="2.81857">
        <ele>321.9</ele>
        <time>2019-11-01T09:52:24Z</time>
      </trkpt>
      <trkpt lat="46.31353" lon="2.81858">
        <ele>321.9</ele>
        <time>2019-11-01T09:52:25Z</time>
      </trkpt>
      <trkpt lat="46.31354" lon="2.81857">
        <ele>321.9</ele>
        <time>2019-11-01T09:52:26Z</time>
      </trkpt>
      <trkpt lat="46.31355" lon="2.81857">
        <ele>321.9</ele>
        <time>2019-11-01T09:52:27Z</time>
      </trkpt>
      <trkpt lat="46.31357" lon="2.81857">
        <ele>321.9</ele>
        <time>2019-11-01T09:52:28Z</time>
      </trkpt>
      <trkpt lat="46.31358" lon="2.81857">
        <ele>322</ele>
        <time>2019-11-01T09:52:29Z</time>
      </trkpt>
      <trkpt lat="46.3136" lon="2.81857">
        <ele>322</ele>
        <time>2019-11-01T09:52:30Z</time>
      </trkpt>
      <trkpt lat="46.31363" lon="2.81857">
        <ele>322</ele>
        <time>2019-11-01T09:52:31Z</time>
      </trkpt>
      <trkpt lat="46.31365" lon="2.81858">
        <ele>321.9</ele>
        <time>2019-11-01T09:52:32Z</time>
      </trkpt>
      <trkpt lat="46.31367" lon="2.81858">
        <ele>321.8</ele>
        <time>2019-11-01T09:52:33Z</time>
      </trkpt>
      <trkpt lat="46.31371" lon="2.81858">
        <ele>321.8</ele>
        <time>2019-11-01T09:52:34Z</time>
      </trkpt>
      <trkpt lat="46.31374" lon="2.81858">
        <ele>321.7</ele>
        <time>2019-11-01T09:52:35Z</time>
      </trkpt>
      <trkpt lat="46.31378" lon="2.81857">
        <ele>321.6</ele>
        <time>2019-11-01T09:52:36Z</time>
      </trkpt>
      <trkpt lat="46.31382" lon="2.81856">
        <ele>321.5</ele>
        <time>2019-11-01T09:52:37Z</time>
      </trkpt>
      <trkpt lat="46.31385" lon="2.81856">
        <ele>321.4</ele>
        <time>2019-11-01T09:52:38Z</time>
      </trkpt>
      <trkpt lat="46.31389" lon="2.81856">
        <ele>321.3</ele>
        <time>2019-11-01T09:52:39Z</time>
      </trkpt>
      <trkpt lat="46.31392" lon="2.81855">
        <ele>321.2</ele>
        <time>2019-11-01T09:52:40Z</time>
      </trkpt>
      <trkpt lat="46.31396" lon="2.81854">
        <ele>321.1</ele>
        <time>2019-11-01T09:52:41Z</time>
      </trkpt>
      <trkpt lat="46.314" lon="2.81853">
        <ele>321</ele>
        <time>2019-11-01T09:52:42Z</time>
      </trkpt>
      <trkpt lat="46.31404" lon="2.81851">
        <ele>320.8</ele>
        <time>2019-11-01T09:52:43Z</time>
      </trkpt>
      <trkpt lat="46.31407" lon="2.8185">
        <ele>320.7</ele>
        <time>2019-11-01T09:52:44Z</time>
      </trkpt>
      <trkpt lat="46.31411" lon="2.81849">
        <ele>320.6</ele>
        <time>2019-11-01T09:52:45Z</time>
      </trkpt>
      <trkpt lat="46.31415" lon="2.81848">
        <ele>320.4</ele>
        <time>2019-11-01T09:52:46Z</time>
      </trkpt>
      <trkpt lat="46.31419" lon="2.81848">
        <ele>320.3</ele>
        <time>2019-11-01T09:52:47Z</time>
      </trkpt>
      <trkpt lat="46.31423" lon="2.81849">
        <ele>320.2</ele>
        <time>2019-11-01T09:52:48Z</time>
      </trkpt>
      <trkpt lat="46.31426" lon="2.81851">
        <ele>320.1</ele>
        <time>2019-11-01T09:52:49Z</time>
      </trkpt>
      <trkpt lat="46.31428" lon="2.81854">
        <ele>320.2</ele>
        <time>2019-11-01T09:52:50Z</time>
      </trkpt>
      <trkpt lat="46.31429" lon="2.81857">
        <ele>320.3</ele>
        <time>2019-11-01T09:52:51Z</time>
      </trkpt>
      <trkpt lat="46.31429" lon="2.8186">
        <ele>320.4</ele>
        <time>2019-11-01T09:52:52Z</time>
      </trkpt>
      <trkpt lat="46.31428" lon="2.81864">
        <ele>320.5</ele>
        <time>2019-11-01T09:52:53Z</time>
      </trkpt>
      <trkpt lat="46.31427" lon="2.81868">
        <ele>320.6</ele>
        <time>2019-11-01T09:52:54Z</time>
      </trkpt>
      <trkpt lat="46.31426" lon="2.81872">
        <ele>320.8</ele>
        <time>2019-11-01T09:52:55Z</time>
      </trkpt>
      <trkpt lat="46.31426" lon="2.81877">
        <ele>320.9</ele>
        <time>2019-11-01T09:52:56Z</time>
      </trkpt>
      <trkpt lat="46.31427" lon="2.81881">
        <ele>321.1</ele>
        <time>2019-11-01T09:52:57Z</time>
      </trkpt>
      <trkpt lat="46.31427" lon="2.81886">
        <ele>321.4</ele>
        <time>2019-11-01T09:52:58Z</time>
      </trkpt>
      <trkpt lat="46.31427" lon="2.81891">
        <ele>321.6</ele>
        <time>2019-11-01T09:52:59Z</time>
      </trkpt>
      <trkpt lat="46.31428" lon="2.81896">
        <ele>321.9</ele>
        <time>2019-11-01T09:53:00Z</time>
      </trkpt>
      <trkpt lat="46.31428" lon="2.81901">
        <ele>322.2</ele>
        <time>2019-11-01T09:53:01Z</time>
      </trkpt>
      <trkpt lat="46.31428" lon="2.81906">
        <ele>322.4</ele>
        <time>2019-11-01T09:53:02Z</time>
      </trkpt>
      <trkpt lat="46.31427" lon="2.81912">
        <ele>322.4</ele>
        <time>2019-11-01T09:53:03Z</time>
      </trkpt>
      <trkpt lat="46.31426" lon="2.81917">
        <ele>322</ele>
        <time>2019-11-01T09:53:04Z</time>
      </trkpt>
      <trkpt lat="46.31425" lon="2.81922">
        <ele>322</ele>
        <time>2019-11-01T09:53:05Z</time>
      </trkpt>
      <trkpt lat="46.31423" lon="2.81927">
        <ele>321.7</ele>
        <time>2019-11-01T09:53:06Z</time>
      </trkpt>
      <trkpt lat="46.31422" lon="2.81931">
        <ele>321.8</ele>
        <time>2019-11-01T09:53:07Z</time>
      </trkpt>
      <trkpt lat="46.3142" lon="2.81936">
        <ele>321.6</ele>
        <time>2019-11-01T09:53:08Z</time>
      </trkpt>
      <trkpt lat="46.31418" lon="2.81941">
        <ele>321.6</ele>
        <time>2019-11-01T09:53:09Z</time>
      </trkpt>
      <trkpt lat="46.31417" lon="2.81946">
        <ele>321.7</ele>
        <time>2019-11-01T09:53:10Z</time>
      </trkpt>
      <trkpt lat="46.31416" lon="2.81951">
        <ele>321.8</ele>
        <time>2019-11-01T09:53:11Z</time>
      </trkpt>
      <trkpt lat="46.31415" lon="2.81956">
        <ele>321.8</ele>
        <time>2019-11-01T09:53:12Z</time>
      </trkpt>
      <trkpt lat="46.31414" lon="2.81961">
        <ele>322</ele>
        <time>2019-11-01T09:53:13Z</time>
      </trkpt>
      <trkpt lat="46.31413" lon="2.81966">
        <ele>322.1</ele>
        <time>2019-11-01T09:53:14Z</time>
      </trkpt>
      <trkpt lat="46.31412" lon="2.8197">
        <ele>322.1</ele>
        <time>2019-11-01T09:53:15Z</time>
      </trkpt>
      <trkpt lat="46.31411" lon="2.81975">
        <ele>322.3</ele>
        <time>2019-11-01T09:53:16Z</time>
      </trkpt>
      <trkpt lat="46.3141" lon="2.81979">
        <ele>322.4</ele>
        <time>2019-11-01T09:53:17Z</time>
      </trkpt>
      <trkpt lat="46.31409" lon="2.81984">
        <ele>322.4</ele>
        <time>2019-11-01T09:53:18Z</time>
      </trkpt>
      <trkpt lat="46.31408" lon="2.81988">
        <ele>322.7</ele>
        <time>2019-11-01T09:53:19Z</time>
      </trkpt>
      <trkpt lat="46.31407" lon="2.81993">
        <ele>322.9</ele>
        <time>2019-11-01T09:53:20Z</time>
      </trkpt>
      <trkpt lat="46.31406" lon="2.81999">
        <ele>322.8</ele>
        <time>2019-11-01T09:53:21Z</time>
      </trkpt>
      <trkpt lat="46.31405" lon="2.82004">
        <ele>323</ele>
        <time>2019-11-01T09:53:22Z</time>
      </trkpt>
      <trkpt lat="46.31403" lon="2.82009">
        <ele>323</ele>
        <time>2019-11-01T09:53:23Z</time>
      </trkpt>
      <trkpt lat="46.31402" lon="2.82013">
        <ele>323.2</ele>
        <time>2019-11-01T09:53:24Z</time>
      </trkpt>
      <trkpt lat="46.31401" lon="2.82018">
        <ele>323.3</ele>
        <time>2019-11-01T09:53:25Z</time>
      </trkpt>
      <trkpt lat="46.314" lon="2.82022">
        <ele>323.3</ele>
        <time>2019-11-01T09:53:26Z</time>
      </trkpt>
      <trkpt lat="46.31399" lon="2.82027">
        <ele>323.5</ele>
        <time>2019-11-01T09:53:27Z</time>
      </trkpt>
      <trkpt lat="46.31399" lon="2.82031">
        <ele>323.6</ele>
        <time>2019-11-01T09:53:28Z</time>
      </trkpt>
      <trkpt lat="46.31399" lon="2.82035">
        <ele>323.8</ele>
        <time>2019-11-01T09:53:29Z</time>
      </trkpt>
      <trkpt lat="46.31399" lon="2.82038">
        <ele>323.9</ele>
        <time>2019-11-01T09:53:30Z</time>
      </trkpt>
      <trkpt lat="46.31399" lon="2.82042">
        <ele>324</ele>
        <time>2019-11-01T09:53:31Z</time>
      </trkpt>
      <trkpt lat="46.31399" lon="2.82046">
        <ele>324.2</ele>
        <time>2019-11-01T09:53:32Z</time>
      </trkpt>
      <trkpt lat="46.31399" lon="2.8205">
        <ele>324.3</ele>
        <time>2019-11-01T09:53:33Z</time>
      </trkpt>
      <trkpt lat="46.31399" lon="2.82055">
        <ele>324.5</ele>
        <time>2019-11-01T09:53:34Z</time>
      </trkpt>
      <trkpt lat="46.31399" lon="2.82059">
        <ele>324.6</ele>
        <time>2019-11-01T09:53:35Z</time>
      </trkpt>
      <trkpt lat="46.314" lon="2.82063">
        <ele>324.7</ele>
        <time>2019-11-01T09:53:36Z</time>
      </trkpt>
      <trkpt lat="46.314" lon="2.82067">
        <ele>324.9</ele>
        <time>2019-11-01T09:53:37Z</time>
      </trkpt>
      <trkpt lat="46.31401" lon="2.82071">
        <ele>325</ele>
        <time>2019-11-01T09:53:38Z</time>
      </trkpt>
      <trkpt lat="46.31401" lon="2.82075">
        <ele>325.3</ele>
        <time>2019-11-01T09:53:39Z</time>
      </trkpt>
      <trkpt lat="46.31401" lon="2.82079">
        <ele>325.4</ele>
        <time>2019-11-01T09:53:40Z</time>
      </trkpt>
      <trkpt lat="46.31401" lon="2.82083">
        <ele>325.6</ele>
        <time>2019-11-01T09:53:41Z</time>
      </trkpt>
      <trkpt lat="46.31401" lon="2.82088">
        <ele>325.7</ele>
        <time>2019-11-01T09:53:42Z</time>
      </trkpt>
      <trkpt lat="46.31401" lon="2.82093">
        <ele>325.8</ele>
        <time>2019-11-01T09:53:43Z</time>
      </trkpt>
      <trkpt lat="46.31401" lon="2.82097">
        <ele>326</ele>
        <time>2019-11-01T09:53:44Z</time>
      </trkpt>
      <trkpt lat="46.31401" lon="2.82102">
        <ele>326.2</ele>
        <time>2019-11-01T09:53:45Z</time>
      </trkpt>
      <trkpt lat="46.31401" lon="2.82106">
        <ele>326.1</ele>
        <time>2019-11-01T09:53:46Z</time>
      </trkpt>
      <trkpt lat="46.314" lon="2.82111">
        <ele>326.3</ele>
        <time>2019-11-01T09:53:47Z</time>
      </trkpt>
      <trkpt lat="46.31399" lon="2.82115">
        <ele>326.5</ele>
        <time>2019-11-01T09:53:48Z</time>
      </trkpt>
      <trkpt lat="46.31398" lon="2.8212">
        <ele>326.7</ele>
        <time>2019-11-01T09:53:49Z</time>
      </trkpt>
      <trkpt lat="46.31396" lon="2.82125">
        <ele>326.7</ele>
        <time>2019-11-01T09:53:50Z</time>
      </trkpt>
      <trkpt lat="46.31395" lon="2.8213">
        <ele>327.1</ele>
        <time>2019-11-01T09:53:51Z</time>
      </trkpt>
      <trkpt lat="46.31393" lon="2.82135">
        <ele>327.1</ele>
        <time>2019-11-01T09:53:52Z</time>
      </trkpt>
      <trkpt lat="46.31391" lon="2.8214">
        <ele>327</ele>
        <time>2019-11-01T09:53:53Z</time>
      </trkpt>
      <trkpt lat="46.31389" lon="2.82145">
        <ele>327.3</ele>
        <time>2019-11-01T09:53:54Z</time>
      </trkpt>
      <trkpt lat="46.31386" lon="2.8215">
        <ele>327.3</ele>
        <time>2019-11-01T09:53:55Z</time>
      </trkpt>
      <trkpt lat="46.31384" lon="2.82154">
        <ele>327.2</ele>
        <time>2019-11-01T09:53:56Z</time>
      </trkpt>
      <trkpt lat="46.31382" lon="2.82157">
        <ele>327.3</ele>
        <time>2019-11-01T09:53:57Z</time>
      </trkpt>
      <trkpt lat="46.31379" lon="2.82161">
        <ele>327.3</ele>
        <time>2019-11-01T09:53:58Z</time>
      </trkpt>
      <trkpt lat="46.31376" lon="2.82165">
        <ele>327.5</ele>
        <time>2019-11-01T09:53:59Z</time>
      </trkpt>
      <trkpt lat="46.31374" lon="2.82169">
        <ele>327.8</ele>
        <time>2019-11-01T09:54:00Z</time>
      </trkpt>
      <trkpt lat="46.31372" lon="2.82172">
        <ele>327.6</ele>
        <time>2019-11-01T09:54:01Z</time>
      </trkpt>
      <trkpt lat="46.3137" lon="2.82175">
        <ele>327.8</ele>
        <time>2019-11-01T09:54:02Z</time>
      </trkpt>
      <trkpt lat="46.31368" lon="2.82178">
        <ele>328</ele>
        <time>2019-11-01T09:54:03Z</time>
      </trkpt>
      <trkpt lat="46.31366" lon="2.82181">
        <ele>328</ele>
        <time>2019-11-01T09:54:04Z</time>
      </trkpt>
      <trkpt lat="46.31363" lon="2.82184">
        <ele>328.2</ele>
        <time>2019-11-01T09:54:05Z</time>
      </trkpt>
      <trkpt lat="46.31361" lon="2.82187">
        <ele>328.4</ele>
        <time>2019-11-01T09:54:06Z</time>
      </trkpt>
      <trkpt lat="46.31359" lon="2.82189">
        <ele>328.1</ele>
        <time>2019-11-01T09:54:07Z</time>
      </trkpt>
      <trkpt lat="46.31357" lon="2.82192">
        <ele>328.6</ele>
        <time>2019-11-01T09:54:08Z</time>
      </trkpt>
      <trkpt lat="46.31355" lon="2.82195">
        <ele>328.9</ele>
        <time>2019-11-01T09:54:09Z</time>
      </trkpt>
      <trkpt lat="46.31353" lon="2.82198">
        <ele>328.7</ele>
        <time>2019-11-01T09:54:10Z</time>
      </trkpt>
      <trkpt lat="46.31351" lon="2.82201">
        <ele>329.2</ele>
        <time>2019-11-01T09:54:11Z</time>
      </trkpt>
      <trkpt lat="46.31349" lon="2.82203">
        <ele>329.5</ele>
        <time>2019-11-01T09:54:12Z</time>
      </trkpt>
      <trkpt lat="46.31347" lon="2.82205">
        <ele>329.4</ele>
        <time>2019-11-01T09:54:13Z</time>
      </trkpt>
      <trkpt lat="46.31344" lon="2.82207">
        <ele>329.3</ele>
        <time>2019-11-01T09:54:14Z</time>
      </trkpt>
      <trkpt lat="46.31342" lon="2.82209">
        <ele>329.8</ele>
        <time>2019-11-01T09:54:15Z</time>
      </trkpt>
      <trkpt lat="46.31339" lon="2.82211">
        <ele>329.7</ele>
        <time>2019-11-01T09:54:16Z</time>
      </trkpt>
      <trkpt lat="46.31337" lon="2.82213">
        <ele>330.2</ele>
        <time>2019-11-01T09:54:17Z</time>
      </trkpt>
      <trkpt lat="46.31335" lon="2.82216">
        <ele>330.7</ele>
        <time>2019-11-01T09:54:18Z</time>
      </trkpt>
      <trkpt lat="46.31333" lon="2.82218">
        <ele>330.7</ele>
        <time>2019-11-01T09:54:19Z</time>
      </trkpt>
      <trkpt lat="46.3133" lon="2.82221">
        <ele>331.3</ele>
        <time>2019-11-01T09:54:20Z</time>
      </trkpt>
      <trkpt lat="46.31328" lon="2.82224">
        <ele>331.3</ele>
        <time>2019-11-01T09:54:21Z</time>
      </trkpt>
      <trkpt lat="46.31326" lon="2.82227">
        <ele>332</ele>
        <time>2019-11-01T09:54:22Z</time>
      </trkpt>
      <trkpt lat="46.31324" lon="2.8223">
        <ele>332.6</ele>
        <time>2019-11-01T09:54:23Z</time>
      </trkpt>
      <trkpt lat="46.31322" lon="2.82233">
        <ele>333.3</ele>
        <time>2019-11-01T09:54:24Z</time>
      </trkpt>
      <trkpt lat="46.31321" lon="2.82236">
        <ele>333.3</ele>
        <time>2019-11-01T09:54:25Z</time>
      </trkpt>
      <trkpt lat="46.31319" lon="2.82239">
        <ele>333.9</ele>
        <time>2019-11-01T09:54:26Z</time>
      </trkpt>
      <trkpt lat="46.31318" lon="2.82241">
        <ele>333.9</ele>
        <time>2019-11-01T09:54:27Z</time>
      </trkpt>
      <trkpt lat="46.31317" lon="2.82244">
        <ele>334.5</ele>
        <time>2019-11-01T09:54:28Z</time>
      </trkpt>
      <trkpt lat="46.31316" lon="2.82246">
        <ele>335.1</ele>
        <time>2019-11-01T09:54:29Z</time>
      </trkpt>
      <trkpt lat="46.31314" lon="2.82248">
        <ele>335.1</ele>
        <time>2019-11-01T09:54:30Z</time>
      </trkpt>
      <trkpt lat="46.31313" lon="2.82251">
        <ele>335.7</ele>
        <time>2019-11-01T09:54:31Z</time>
      </trkpt>
      <trkpt lat="46.31312" lon="2.82253">
        <ele>335.7</ele>
        <time>2019-11-01T09:54:32Z</time>
      </trkpt>
      <trkpt lat="46.31311" lon="2.82256">
        <ele>336.1</ele>
        <time>2019-11-01T09:54:33Z</time>
      </trkpt>
      <trkpt lat="46.3131" lon="2.82259">
        <ele>336.7</ele>
        <time>2019-11-01T09:54:34Z</time>
      </trkpt>
      <trkpt lat="46.31309" lon="2.82262">
        <ele>336.7</ele>
        <time>2019-11-01T09:54:35Z</time>
      </trkpt>
      <trkpt lat="46.31308" lon="2.82264">
        <ele>337</ele>
        <time>2019-11-01T09:54:36Z</time>
      </trkpt>
      <trkpt lat="46.31307" lon="2.82267">
        <ele>337.6</ele>
        <time>2019-11-01T09:54:37Z</time>
      </trkpt>
      <trkpt lat="46.31307" lon="2.8227">
        <ele>337.6</ele>
        <time>2019-11-01T09:54:38Z</time>
      </trkpt>
      <trkpt lat="46.31306" lon="2.82274">
        <ele>338.1</ele>
        <time>2019-11-01T09:54:39Z</time>
      </trkpt>
      <trkpt lat="46.31306" lon="2.82277">
        <ele>338.8</ele>
        <time>2019-11-01T09:54:40Z</time>
      </trkpt>
      <trkpt lat="46.31306" lon="2.8228">
        <ele>338.7</ele>
        <time>2019-11-01T09:54:41Z</time>
      </trkpt>
      <trkpt lat="46.31306" lon="2.82282">
        <ele>339.4</ele>
        <time>2019-11-01T09:54:42Z</time>
      </trkpt>
      <trkpt lat="46.31306" lon="2.82285">
        <ele>340</ele>
        <time>2019-11-01T09:54:43Z</time>
      </trkpt>
      <trkpt lat="46.31306" lon="2.82287">
        <ele>340</ele>
        <time>2019-11-01T09:54:44Z</time>
      </trkpt>
      <trkpt lat="46.31305" lon="2.8229">
        <ele>340.3</ele>
        <time>2019-11-01T09:54:45Z</time>
      </trkpt>
      <trkpt lat="46.31305" lon="2.82292">
        <ele>340.3</ele>
        <time>2019-11-01T09:54:46Z</time>
      </trkpt>
      <trkpt lat="46.31304" lon="2.82295">
        <ele>340.8</ele>
        <time>2019-11-01T09:54:47Z</time>
      </trkpt>
      <trkpt lat="46.31304" lon="2.82298">
        <ele>341.3</ele>
        <time>2019-11-01T09:54:48Z</time>
      </trkpt>
      <trkpt lat="46.31303" lon="2.82301">
        <ele>341.3</ele>
        <time>2019-11-01T09:54:49Z</time>
      </trkpt>
      <trkpt lat="46.31303" lon="2.82303">
        <ele>341.5</ele>
        <time>2019-11-01T09:54:50Z</time>
      </trkpt>
      <trkpt lat="46.31302" lon="2.82306">
        <ele>342</ele>
        <time>2019-11-01T09:54:51Z</time>
      </trkpt>
      <trkpt lat="46.31302" lon="2.82309">
        <ele>341.9</ele>
        <time>2019-11-01T09:54:52Z</time>
      </trkpt>
      <trkpt lat="46.31301" lon="2.82312">
        <ele>342.4</ele>
        <time>2019-11-01T09:54:53Z</time>
      </trkpt>
      <trkpt lat="46.31301" lon="2.82314">
        <ele>342.4</ele>
        <time>2019-11-01T09:54:54Z</time>
      </trkpt>
      <trkpt lat="46.313" lon="2.82317">
        <ele>342.8</ele>
        <time>2019-11-01T09:54:55Z</time>
      </trkpt>
      <trkpt lat="46.313" lon="2.8232">
        <ele>343.3</ele>
        <time>2019-11-01T09:54:56Z</time>
      </trkpt>
      <trkpt lat="46.313" lon="2.82323">
        <ele>343.1</ele>
        <time>2019-11-01T09:54:57Z</time>
      </trkpt>
      <trkpt lat="46.313" lon="2.82325">
        <ele>343.6</ele>
        <time>2019-11-01T09:54:58Z</time>
      </trkpt>
      <trkpt lat="46.31299" lon="2.82328">
        <ele>344.1</ele>
        <time>2019-11-01T09:54:59Z</time>
      </trkpt>
      <trkpt lat="46.313" lon="2.8233">
        <ele>344.1</ele>
        <time>2019-11-01T09:55:00Z</time>
      </trkpt>
      <trkpt lat="46.313" lon="2.82333">
        <ele>344.6</ele>
        <time>2019-11-01T09:55:01Z</time>
      </trkpt>
      <trkpt lat="46.31299" lon="2.82335">
        <ele>344.6</ele>
        <time>2019-11-01T09:55:02Z</time>
      </trkpt>
      <trkpt lat="46.31299" lon="2.82338">
        <ele>345.1</ele>
        <time>2019-11-01T09:55:03Z</time>
      </trkpt>
      <trkpt lat="46.31298" lon="2.8234">
        <ele>345.1</ele>
        <time>2019-11-01T09:55:04Z</time>
      </trkpt>
      <trkpt lat="46.31298" lon="2.82342">
        <ele>345.6</ele>
        <time>2019-11-01T09:55:05Z</time>
      </trkpt>
      <trkpt lat="46.31298" lon="2.82343">
        <ele>345.6</ele>
        <time>2019-11-01T09:55:06Z</time>
      </trkpt>
      <trkpt lat="46.31297" lon="2.82345">
        <ele>346.1</ele>
        <time>2019-11-01T09:55:07Z</time>
      </trkpt>
      <trkpt lat="46.31297" lon="2.82347">
        <ele>346.1</ele>
        <time>2019-11-01T09:55:08Z</time>
      </trkpt>
      <trkpt lat="46.31297" lon="2.82349">
        <ele>346.5</ele>
        <time>2019-11-01T09:55:09Z</time>
      </trkpt>
      <trkpt lat="46.31296" lon="2.82351">
        <ele>346.5</ele>
        <time>2019-11-01T09:55:10Z</time>
      </trkpt>
      <trkpt lat="46.31296" lon="2.82353">
        <ele>347</ele>
        <time>2019-11-01T09:55:11Z</time>
      </trkpt>
      <trkpt lat="46.31295" lon="2.82355">
        <ele>346.9</ele>
        <time>2019-11-01T09:55:12Z</time>
      </trkpt>
      <trkpt lat="46.31295" lon="2.82357">
        <ele>347.4</ele>
        <time>2019-11-01T09:55:13Z</time>
      </trkpt>
      <trkpt lat="46.31295" lon="2.82359">
        <ele>347.4</ele>
        <time>2019-11-01T09:55:14Z</time>
      </trkpt>
      <trkpt lat="46.31295" lon="2.82361">
        <ele>347.4</ele>
        <time>2019-11-01T09:55:15Z</time>
      </trkpt>
      <trkpt lat="46.31294" lon="2.82363">
        <ele>347.9</ele>
        <time>2019-11-01T09:55:16Z</time>
      </trkpt>
      <trkpt lat="46.31294" lon="2.82365">
        <ele>347.9</ele>
        <time>2019-11-01T09:55:17Z</time>
      </trkpt>
      <trkpt lat="46.31294" lon="2.82368">
        <ele>348.3</ele>
        <time>2019-11-01T09:55:18Z</time>
      </trkpt>
      <trkpt lat="46.31294" lon="2.8237">
        <ele>348.3</ele>
        <time>2019-11-01T09:55:19Z</time>
      </trkpt>
      <trkpt lat="46.31294" lon="2.82372">
        <ele>348.4</ele>
        <time>2019-11-01T09:55:20Z</time>
      </trkpt>
      <trkpt lat="46.31294" lon="2.82374">
        <ele>348.4</ele>
        <time>2019-11-01T09:55:21Z</time>
      </trkpt>
      <trkpt lat="46.31294" lon="2.82376">
        <ele>348.9</ele>
        <time>2019-11-01T09:55:22Z</time>
      </trkpt>
      <trkpt lat="46.31294" lon="2.82379">
        <ele>349.3</ele>
        <time>2019-11-01T09:55:23Z</time>
      </trkpt>
      <trkpt lat="46.31294" lon="2.82382">
        <ele>349.2</ele>
        <time>2019-11-01T09:55:24Z</time>
      </trkpt>
      <trkpt lat="46.31294" lon="2.82384">
        <ele>349.6</ele>
        <time>2019-11-01T09:55:25Z</time>
      </trkpt>
      <trkpt lat="46.31293" lon="2.82386">
        <ele>349.6</ele>
        <time>2019-11-01T09:55:26Z</time>
      </trkpt>
      <trkpt lat="46.31293" lon="2.82388">
        <ele>349.9</ele>
        <time>2019-11-01T09:55:27Z</time>
      </trkpt>
      <trkpt lat="46.31293" lon="2.8239">
        <ele>349.9</ele>
        <time>2019-11-01T09:55:28Z</time>
      </trkpt>
      <trkpt lat="46.31293" lon="2.82393">
        <ele>350.2</ele>
        <time>2019-11-01T09:55:29Z</time>
      </trkpt>
      <trkpt lat="46.31293" lon="2.82395">
        <ele>350.2</ele>
        <time>2019-11-01T09:55:30Z</time>
      </trkpt>
      <trkpt lat="46.31292" lon="2.82397">
        <ele>350.5</ele>
        <time>2019-11-01T09:55:31Z</time>
      </trkpt>
      <trkpt lat="46.31292" lon="2.82399">
        <ele>350.5</ele>
        <time>2019-11-01T09:55:32Z</time>
      </trkpt>
      <trkpt lat="46.31291" lon="2.82401">
        <ele>350.8</ele>
        <time>2019-11-01T09:55:33Z</time>
      </trkpt>
      <trkpt lat="46.31291" lon="2.82403">
        <ele>350.4</ele>
        <time>2019-11-01T09:55:34Z</time>
      </trkpt>
      <trkpt lat="46.3129" lon="2.82405">
        <ele>350.7</ele>
        <time>2019-11-01T09:55:35Z</time>
      </trkpt>
      <trkpt lat="46.31289" lon="2.82407">
        <ele>350.7</ele>
        <time>2019-11-01T09:55:36Z</time>
      </trkpt>
      <trkpt lat="46.31288" lon="2.82409">
        <ele>351</ele>
        <time>2019-11-01T09:55:37Z</time>
      </trkpt>
      <trkpt lat="46.31287" lon="2.82411">
        <ele>350.5</ele>
        <time>2019-11-01T09:55:38Z</time>
      </trkpt>
      <trkpt lat="46.31287" lon="2.82414">
        <ele>350.9</ele>
        <time>2019-11-01T09:55:39Z</time>
      </trkpt>
      <trkpt lat="46.31286" lon="2.82415">
        <ele>350.8</ele>
        <time>2019-11-01T09:55:40Z</time>
      </trkpt>
      <trkpt lat="46.31286" lon="2.82418">
        <ele>351.2</ele>
        <time>2019-11-01T09:55:41Z</time>
      </trkpt>
      <trkpt lat="46.31285" lon="2.8242">
        <ele>350.7</ele>
        <time>2019-11-01T09:55:42Z</time>
      </trkpt>
      <trkpt lat="46.31284" lon="2.82422">
        <ele>351</ele>
        <time>2019-11-01T09:55:43Z</time>
      </trkpt>
      <trkpt lat="46.31284" lon="2.82424">
        <ele>351</ele>
        <time>2019-11-01T09:55:44Z</time>
      </trkpt>
      <trkpt lat="46.31283" lon="2.82427">
        <ele>351.4</ele>
        <time>2019-11-01T09:55:45Z</time>
      </trkpt>
      <trkpt lat="46.31283" lon="2.82429">
        <ele>351.3</ele>
        <time>2019-11-01T09:55:46Z</time>
      </trkpt>
      <trkpt lat="46.31282" lon="2.82431">
        <ele>351.1</ele>
        <time>2019-11-01T09:55:47Z</time>
      </trkpt>
      <trkpt lat="46.31281" lon="2.82434">
        <ele>351.1</ele>
        <time>2019-11-01T09:55:48Z</time>
      </trkpt>
      <trkpt lat="46.31281" lon="2.82436">
        <ele>351.4</ele>
        <time>2019-11-01T09:55:49Z</time>
      </trkpt>
      <trkpt lat="46.3128" lon="2.82438">
        <ele>351.4</ele>
        <time>2019-11-01T09:55:50Z</time>
      </trkpt>
      <trkpt lat="46.31279" lon="2.8244">
        <ele>351.7</ele>
        <time>2019-11-01T09:55:51Z</time>
      </trkpt>
      <trkpt lat="46.31278" lon="2.82443">
        <ele>351.3</ele>
        <time>2019-11-01T09:55:52Z</time>
      </trkpt>
      <trkpt lat="46.31278" lon="2.82446">
        <ele>351.3</ele>
        <time>2019-11-01T09:55:53Z</time>
      </trkpt>
      <trkpt lat="46.31277" lon="2.82449">
        <ele>351.6</ele>
        <time>2019-11-01T09:55:54Z</time>
      </trkpt>
      <trkpt lat="46.31276" lon="2.82451">
        <ele>351.5</ele>
        <time>2019-11-01T09:55:55Z</time>
      </trkpt>
      <trkpt lat="46.31276" lon="2.82453">
        <ele>351.1</ele>
        <time>2019-11-01T09:55:56Z</time>
      </trkpt>
      <trkpt lat="46.31275" lon="2.82456">
        <ele>351.3</ele>
        <time>2019-11-01T09:55:57Z</time>
      </trkpt>
      <trkpt lat="46.31275" lon="2.82459">
        <ele>351.3</ele>
        <time>2019-11-01T09:55:58Z</time>
      </trkpt>
      <trkpt lat="46.31274" lon="2.8246">
        <ele>351.3</ele>
        <time>2019-11-01T09:55:59Z</time>
      </trkpt>
      <trkpt lat="46.31274" lon="2.82462">
        <ele>351.4</ele>
        <time>2019-11-01T09:56:00Z</time>
      </trkpt>
      <trkpt lat="46.31274" lon="2.82465">
        <ele>351.6</ele>
        <time>2019-11-01T09:56:01Z</time>
      </trkpt>
      <trkpt lat="46.31274" lon="2.82467">
        <ele>351.6</ele>
        <time>2019-11-01T09:56:02Z</time>
      </trkpt>
      <trkpt lat="46.31273" lon="2.8247">
        <ele>351.1</ele>
        <time>2019-11-01T09:56:03Z</time>
      </trkpt>
      <trkpt lat="46.31272" lon="2.82471">
        <ele>351.1</ele>
        <time>2019-11-01T09:56:04Z</time>
      </trkpt>
      <trkpt lat="46.31272" lon="2.82473">
        <ele>351.2</ele>
        <time>2019-11-01T09:56:05Z</time>
      </trkpt>
      <trkpt lat="46.31272" lon="2.82476">
        <ele>351.2</ele>
        <time>2019-11-01T09:56:06Z</time>
      </trkpt>
      <trkpt lat="46.31271" lon="2.82478">
        <ele>351.4</ele>
        <time>2019-11-01T09:56:07Z</time>
      </trkpt>
      <trkpt lat="46.31271" lon="2.82481">
        <ele>351.4</ele>
        <time>2019-11-01T09:56:08Z</time>
      </trkpt>
      <trkpt lat="46.3127" lon="2.82483">
        <ele>350.9</ele>
        <time>2019-11-01T09:56:09Z</time>
      </trkpt>
      <trkpt lat="46.3127" lon="2.82485">
        <ele>350.9</ele>
        <time>2019-11-01T09:56:10Z</time>
      </trkpt>
      <trkpt lat="46.3127" lon="2.82488">
        <ele>351.1</ele>
        <time>2019-11-01T09:56:11Z</time>
      </trkpt>
      <trkpt lat="46.31269" lon="2.82491">
        <ele>351.3</ele>
        <time>2019-11-01T09:56:12Z</time>
      </trkpt>
      <trkpt lat="46.31269" lon="2.82493">
        <ele>351.3</ele>
        <time>2019-11-01T09:56:13Z</time>
      </trkpt>
      <trkpt lat="46.31269" lon="2.82497">
        <ele>351.6</ele>
        <time>2019-11-01T09:56:14Z</time>
      </trkpt>
      <trkpt lat="46.31268" lon="2.825">
        <ele>351.8</ele>
        <time>2019-11-01T09:56:15Z</time>
      </trkpt>
      <trkpt lat="46.31268" lon="2.82504">
        <ele>352.1</ele>
        <time>2019-11-01T09:56:16Z</time>
      </trkpt>
      <trkpt lat="46.31268" lon="2.82507">
        <ele>352.1</ele>
        <time>2019-11-01T09:56:17Z</time>
      </trkpt>
      <trkpt lat="46.31268" lon="2.8251">
        <ele>352.4</ele>
        <time>2019-11-01T09:56:18Z</time>
      </trkpt>
      <trkpt lat="46.31268" lon="2.82513">
        <ele>352.7</ele>
        <time>2019-11-01T09:56:19Z</time>
      </trkpt>
      <trkpt lat="46.31268" lon="2.82516">
        <ele>352.9</ele>
        <time>2019-11-01T09:56:20Z</time>
      </trkpt>
      <trkpt lat="46.31268" lon="2.8252">
        <ele>352.9</ele>
        <time>2019-11-01T09:56:21Z</time>
      </trkpt>
      <trkpt lat="46.31268" lon="2.82523">
        <ele>353.1</ele>
        <time>2019-11-01T09:56:22Z</time>
      </trkpt>
      <trkpt lat="46.31268" lon="2.82526">
        <ele>353.3</ele>
        <time>2019-11-01T09:56:23Z</time>
      </trkpt>
      <trkpt lat="46.31268" lon="2.82529">
        <ele>353.5</ele>
        <time>2019-11-01T09:56:24Z</time>
      </trkpt>
      <trkpt lat="46.31268" lon="2.82533">
        <ele>353.4</ele>
        <time>2019-11-01T09:56:25Z</time>
      </trkpt>
      <trkpt lat="46.31269" lon="2.82537">
        <ele>353.6</ele>
        <time>2019-11-01T09:56:26Z</time>
      </trkpt>
      <trkpt lat="46.31269" lon="2.8254">
        <ele>353.7</ele>
        <time>2019-11-01T09:56:27Z</time>
      </trkpt>
      <trkpt lat="46.31269" lon="2.82542">
        <ele>353.9</ele>
        <time>2019-11-01T09:56:28Z</time>
      </trkpt>
      <trkpt lat="46.31269" lon="2.82545">
        <ele>353.9</ele>
        <time>2019-11-01T09:56:29Z</time>
      </trkpt>
      <trkpt lat="46.3127" lon="2.82548">
        <ele>354</ele>
        <time>2019-11-01T09:56:30Z</time>
      </trkpt>
      <trkpt lat="46.3127" lon="2.82551">
        <ele>354.1</ele>
        <time>2019-11-01T09:56:31Z</time>
      </trkpt>
      <trkpt lat="46.3127" lon="2.82553">
        <ele>354.7</ele>
        <time>2019-11-01T09:56:32Z</time>
      </trkpt>
      <trkpt lat="46.31271" lon="2.82556">
        <ele>354.8</ele>
        <time>2019-11-01T09:56:33Z</time>
      </trkpt>
      <trkpt lat="46.31271" lon="2.82559">
        <ele>354.8</ele>
        <time>2019-11-01T09:56:34Z</time>
      </trkpt>
      <trkpt lat="46.31271" lon="2.82562">
        <ele>354.9</ele>
        <time>2019-11-01T09:56:35Z</time>
      </trkpt>
      <trkpt lat="46.31272" lon="2.82566">
        <ele>355</ele>
        <time>2019-11-01T09:56:36Z</time>
      </trkpt>
      <trkpt lat="46.31272" lon="2.82569">
        <ele>355.1</ele>
        <time>2019-11-01T09:56:37Z</time>
      </trkpt>
      <trkpt lat="46.31273" lon="2.82572">
        <ele>355.1</ele>
        <time>2019-11-01T09:56:38Z</time>
      </trkpt>
      <trkpt lat="46.31273" lon="2.82576">
        <ele>355.8</ele>
        <time>2019-11-01T09:56:39Z</time>
      </trkpt>
      <trkpt lat="46.31274" lon="2.82579">
        <ele>355.9</ele>
        <time>2019-11-01T09:56:40Z</time>
      </trkpt>
      <trkpt lat="46.31275" lon="2.82582">
        <ele>356</ele>
        <time>2019-11-01T09:56:41Z</time>
      </trkpt>
      <trkpt lat="46.31275" lon="2.82586">
        <ele>356.1</ele>
        <time>2019-11-01T09:56:42Z</time>
      </trkpt>
      <trkpt lat="46.31276" lon="2.8259">
        <ele>356.2</ele>
        <time>2019-11-01T09:56:43Z</time>
      </trkpt>
      <trkpt lat="46.31276" lon="2.82594">
        <ele>356.9</ele>
        <time>2019-11-01T09:56:44Z</time>
      </trkpt>
      <trkpt lat="46.31277" lon="2.82597">
        <ele>356.9</ele>
        <time>2019-11-01T09:56:45Z</time>
      </trkpt>
      <trkpt lat="46.31277" lon="2.82601">
        <ele>357.1</ele>
        <time>2019-11-01T09:56:46Z</time>
      </trkpt>
      <trkpt lat="46.31278" lon="2.82603">
        <ele>357.3</ele>
        <time>2019-11-01T09:56:47Z</time>
      </trkpt>
      <trkpt lat="46.31279" lon="2.82607">
        <ele>357.4</ele>
        <time>2019-11-01T09:56:48Z</time>
      </trkpt>
      <trkpt lat="46.31279" lon="2.82611">
        <ele>358.1</ele>
        <time>2019-11-01T09:56:49Z</time>
      </trkpt>
      <trkpt lat="46.3128" lon="2.82614">
        <ele>358.1</ele>
        <time>2019-11-01T09:56:50Z</time>
      </trkpt>
      <trkpt lat="46.3128" lon="2.82617">
        <ele>358.3</ele>
        <time>2019-11-01T09:56:51Z</time>
      </trkpt>
      <trkpt lat="46.31281" lon="2.8262">
        <ele>358.5</ele>
        <time>2019-11-01T09:56:52Z</time>
      </trkpt>
      <trkpt lat="46.31281" lon="2.82624">
        <ele>358.6</ele>
        <time>2019-11-01T09:56:53Z</time>
      </trkpt>
      <trkpt lat="46.31282" lon="2.82628">
        <ele>358.6</ele>
        <time>2019-11-01T09:56:54Z</time>
      </trkpt>
      <trkpt lat="46.31282" lon="2.82631">
        <ele>359.3</ele>
        <time>2019-11-01T09:56:55Z</time>
      </trkpt>
      <trkpt lat="46.31282" lon="2.82634">
        <ele>359.5</ele>
        <time>2019-11-01T09:56:56Z</time>
      </trkpt>
      <trkpt lat="46.31283" lon="2.82637">
        <ele>359.7</ele>
        <time>2019-11-01T09:56:57Z</time>
      </trkpt>
      <trkpt lat="46.31283" lon="2.82641">
        <ele>359.8</ele>
        <time>2019-11-01T09:56:58Z</time>
      </trkpt>
      <trkpt lat="46.31283" lon="2.82644">
        <ele>359.8</ele>
        <time>2019-11-01T09:56:59Z</time>
      </trkpt>
      <trkpt lat="46.31283" lon="2.82646">
        <ele>360</ele>
        <time>2019-11-01T09:57:00Z</time>
      </trkpt>
      <trkpt lat="46.31283" lon="2.82649">
        <ele>359.9</ele>
        <time>2019-11-01T09:57:01Z</time>
      </trkpt>
      <trkpt lat="46.31283" lon="2.82652">
        <ele>360.1</ele>
        <time>2019-11-01T09:57:02Z</time>
      </trkpt>
      <trkpt lat="46.31283" lon="2.82655">
        <ele>360.2</ele>
        <time>2019-11-01T09:57:03Z</time>
      </trkpt>
      <trkpt lat="46.31282" lon="2.82657">
        <ele>360.2</ele>
        <time>2019-11-01T09:57:04Z</time>
      </trkpt>
      <trkpt lat="46.31282" lon="2.82659">
        <ele>359.8</ele>
        <time>2019-11-01T09:57:05Z</time>
      </trkpt>
      <trkpt lat="46.31281" lon="2.82661">
        <ele>359.8</ele>
        <time>2019-11-01T09:57:06Z</time>
      </trkpt>
      <trkpt lat="46.3128" lon="2.82663">
        <ele>359.9</ele>
        <time>2019-11-01T09:57:07Z</time>
      </trkpt>
      <trkpt lat="46.31279" lon="2.82665">
        <ele>359.3</ele>
        <time>2019-11-01T09:57:08Z</time>
      </trkpt>
      <trkpt lat="46.31278" lon="2.82667">
        <ele>359.5</ele>
        <time>2019-11-01T09:57:09Z</time>
      </trkpt>
      <trkpt lat="46.31277" lon="2.82669">
        <ele>359.5</ele>
        <time>2019-11-01T09:57:10Z</time>
      </trkpt>
      <trkpt lat="46.31275" lon="2.82671">
        <ele>359.2</ele>
        <time>2019-11-01T09:57:11Z</time>
      </trkpt>
      <trkpt lat="46.31273" lon="2.82673">
        <ele>359.2</ele>
        <time>2019-11-01T09:57:12Z</time>
      </trkpt>
      <trkpt lat="46.31272" lon="2.82674">
        <ele>358.7</ele>
        <time>2019-11-01T09:57:13Z</time>
      </trkpt>
      <trkpt lat="46.31271" lon="2.82676">
        <ele>358.9</ele>
        <time>2019-11-01T09:57:14Z</time>
      </trkpt>
      <trkpt lat="46.31269" lon="2.82678">
        <ele>358.5</ele>
        <time>2019-11-01T09:57:15Z</time>
      </trkpt>
      <trkpt lat="46.31268" lon="2.8268">
        <ele>358.7</ele>
        <time>2019-11-01T09:57:16Z</time>
      </trkpt>
      <trkpt lat="46.31267" lon="2.82683">
        <ele>359</ele>
        <time>2019-11-01T09:57:17Z</time>
      </trkpt>
      <trkpt lat="46.31266" lon="2.82685">
        <ele>359.2</ele>
        <time>2019-11-01T09:57:18Z</time>
      </trkpt>
      <trkpt lat="46.31265" lon="2.82688">
        <ele>359.4</ele>
        <time>2019-11-01T09:57:19Z</time>
      </trkpt>
      <trkpt lat="46.31264" lon="2.8269">
        <ele>359.6</ele>
        <time>2019-11-01T09:57:20Z</time>
      </trkpt>
      <trkpt lat="46.31263" lon="2.82693">
        <ele>359.8</ele>
        <time>2019-11-01T09:57:21Z</time>
      </trkpt>
      <trkpt lat="46.31263" lon="2.82696">
        <ele>360</ele>
        <time>2019-11-01T09:57:22Z</time>
      </trkpt>
      <trkpt lat="46.31263" lon="2.82699">
        <ele>360.1</ele>
        <time>2019-11-01T09:57:23Z</time>
      </trkpt>
      <trkpt lat="46.31263" lon="2.82702">
        <ele>360.2</ele>
        <time>2019-11-01T09:57:24Z</time>
      </trkpt>
      <trkpt lat="46.31263" lon="2.82704">
        <ele>360.3</ele>
        <time>2019-11-01T09:57:25Z</time>
      </trkpt>
      <trkpt lat="46.31264" lon="2.82708">
        <ele>360.5</ele>
        <time>2019-11-01T09:57:26Z</time>
      </trkpt>
      <trkpt lat="46.31265" lon="2.82711">
        <ele>360.6</ele>
        <time>2019-11-01T09:57:27Z</time>
      </trkpt>
      <trkpt lat="46.31265" lon="2.82715">
        <ele>360.8</ele>
        <time>2019-11-01T09:57:28Z</time>
      </trkpt>
      <trkpt lat="46.31266" lon="2.82717">
        <ele>360.9</ele>
        <time>2019-11-01T09:57:29Z</time>
      </trkpt>
      <trkpt lat="46.31266" lon="2.82721">
        <ele>361</ele>
        <time>2019-11-01T09:57:30Z</time>
      </trkpt>
      <trkpt lat="46.31267" lon="2.82725">
        <ele>361.1</ele>
        <time>2019-11-01T09:57:31Z</time>
      </trkpt>
      <trkpt lat="46.31269" lon="2.82727">
        <ele>361.3</ele>
        <time>2019-11-01T09:57:32Z</time>
      </trkpt>
      <trkpt lat="46.3127" lon="2.8273">
        <ele>361.4</ele>
        <time>2019-11-01T09:57:33Z</time>
      </trkpt>
      <trkpt lat="46.31271" lon="2.82733">
        <ele>361.5</ele>
        <time>2019-11-01T09:57:34Z</time>
      </trkpt>
      <trkpt lat="46.31272" lon="2.82736">
        <ele>361.6</ele>
        <time>2019-11-01T09:57:35Z</time>
      </trkpt>
      <trkpt lat="46.31274" lon="2.82739">
        <ele>361.9</ele>
        <time>2019-11-01T09:57:36Z</time>
      </trkpt>
      <trkpt lat="46.31276" lon="2.82742">
        <ele>362.1</ele>
        <time>2019-11-01T09:57:37Z</time>
      </trkpt>
      <trkpt lat="46.31277" lon="2.82744">
        <ele>362.2</ele>
        <time>2019-11-01T09:57:38Z</time>
      </trkpt>
      <trkpt lat="46.31279" lon="2.82746">
        <ele>362.3</ele>
        <time>2019-11-01T09:57:39Z</time>
      </trkpt>
      <trkpt lat="46.31281" lon="2.82748">
        <ele>362.5</ele>
        <time>2019-11-01T09:57:40Z</time>
      </trkpt>
      <trkpt lat="46.31283" lon="2.8275">
        <ele>362.6</ele>
        <time>2019-11-01T09:57:41Z</time>
      </trkpt>
      <trkpt lat="46.31285" lon="2.82752">
        <ele>362.7</ele>
        <time>2019-11-01T09:57:42Z</time>
      </trkpt>
      <trkpt lat="46.31287" lon="2.82753">
        <ele>362.8</ele>
        <time>2019-11-01T09:57:43Z</time>
      </trkpt>
      <trkpt lat="46.31289" lon="2.82754">
        <ele>363</ele>
        <time>2019-11-01T09:57:44Z</time>
      </trkpt>
      <trkpt lat="46.31291" lon="2.82757">
        <ele>363.2</ele>
        <time>2019-11-01T09:57:45Z</time>
      </trkpt>
      <trkpt lat="46.31293" lon="2.82759">
        <ele>363.3</ele>
        <time>2019-11-01T09:57:46Z</time>
      </trkpt>
      <trkpt lat="46.31294" lon="2.82761">
        <ele>363.5</ele>
        <time>2019-11-01T09:57:47Z</time>
      </trkpt>
      <trkpt lat="46.31296" lon="2.82763">
        <ele>363.6</ele>
        <time>2019-11-01T09:57:48Z</time>
      </trkpt>
      <trkpt lat="46.31298" lon="2.82765">
        <ele>363.8</ele>
        <time>2019-11-01T09:57:49Z</time>
      </trkpt>
      <trkpt lat="46.313" lon="2.82768">
        <ele>364</ele>
        <time>2019-11-01T09:57:50Z</time>
      </trkpt>
      <trkpt lat="46.31302" lon="2.82771">
        <ele>364.2</ele>
        <time>2019-11-01T09:57:51Z</time>
      </trkpt>
      <trkpt lat="46.31304" lon="2.82774">
        <ele>364.4</ele>
        <time>2019-11-01T09:57:52Z</time>
      </trkpt>
      <trkpt lat="46.31305" lon="2.82776">
        <ele>364.6</ele>
        <time>2019-11-01T09:57:53Z</time>
      </trkpt>
      <trkpt lat="46.31307" lon="2.82779">
        <ele>364.6</ele>
        <time>2019-11-01T09:57:54Z</time>
      </trkpt>
      <trkpt lat="46.3131" lon="2.82782">
        <ele>364.8</ele>
        <time>2019-11-01T09:57:55Z</time>
      </trkpt>
      <trkpt lat="46.31312" lon="2.82785">
        <ele>364.9</ele>
        <time>2019-11-01T09:57:56Z</time>
      </trkpt>
      <trkpt lat="46.31314" lon="2.82788">
        <ele>365</ele>
        <time>2019-11-01T09:57:57Z</time>
      </trkpt>
      <trkpt lat="46.31316" lon="2.82791">
        <ele>365.1</ele>
        <time>2019-11-01T09:57:58Z</time>
      </trkpt>
      <trkpt lat="46.31318" lon="2.82795">
        <ele>365.2</ele>
        <time>2019-11-01T09:57:59Z</time>
      </trkpt>
      <trkpt lat="46.3132" lon="2.82798">
        <ele>365.3</ele>
        <time>2019-11-01T09:58:00Z</time>
      </trkpt>
      <trkpt lat="46.31322" lon="2.82802">
        <ele>365.3</ele>
        <time>2019-11-01T09:58:01Z</time>
      </trkpt>
      <trkpt lat="46.31324" lon="2.82806">
        <ele>365.4</ele>
        <time>2019-11-01T09:58:02Z</time>
      </trkpt>
      <trkpt lat="46.31325" lon="2.8281">
        <ele>365.5</ele>
        <time>2019-11-01T09:58:03Z</time>
      </trkpt>
      <trkpt lat="46.31327" lon="2.82815">
        <ele>365.6</ele>
        <time>2019-11-01T09:58:04Z</time>
      </trkpt>
      <trkpt lat="46.31329" lon="2.82819">
        <ele>365.7</ele>
        <time>2019-11-01T09:58:05Z</time>
      </trkpt>
      <trkpt lat="46.31331" lon="2.82823">
        <ele>365.7</ele>
        <time>2019-11-01T09:58:06Z</time>
      </trkpt>
      <trkpt lat="46.31332" lon="2.82826">
        <ele>365.8</ele>
        <time>2019-11-01T09:58:07Z</time>
      </trkpt>
      <trkpt lat="46.31334" lon="2.82831">
        <ele>365.9</ele>
        <time>2019-11-01T09:58:08Z</time>
      </trkpt>
      <trkpt lat="46.31336" lon="2.82835">
        <ele>365.9</ele>
        <time>2019-11-01T09:58:09Z</time>
      </trkpt>
      <trkpt lat="46.31338" lon="2.82839">
        <ele>366</ele>
        <time>2019-11-01T09:58:10Z</time>
      </trkpt>
      <trkpt lat="46.31339" lon="2.82843">
        <ele>366</ele>
        <time>2019-11-01T09:58:11Z</time>
      </trkpt>
      <trkpt lat="46.3134" lon="2.82847">
        <ele>366.1</ele>
        <time>2019-11-01T09:58:12Z</time>
      </trkpt>
      <trkpt lat="46.31342" lon="2.82851">
        <ele>366.2</ele>
        <time>2019-11-01T09:58:13Z</time>
      </trkpt>
      <trkpt lat="46.31343" lon="2.82855">
        <ele>366.2</ele>
        <time>2019-11-01T09:58:14Z</time>
      </trkpt>
      <trkpt lat="46.31344" lon="2.82858">
        <ele>366.3</ele>
        <time>2019-11-01T09:58:24Z</time>
      </trkpt>
      <trkpt lat="46.31345" lon="2.82861">
        <ele>366.3</ele>
        <time>2019-11-01T09:58:25Z</time>
      </trkpt>
      <trkpt lat="46.31346" lon="2.82863">
        <ele>366.3</ele>
        <time>2019-11-01T09:58:26Z</time>
      </trkpt>
      <trkpt lat="46.31346" lon="2.82866">
        <ele>366.4</ele>
        <time>2019-11-01T09:58:27Z</time>
      </trkpt>
      <trkpt lat="46.31347" lon="2.82867">
        <ele>366.4</ele>
        <time>2019-11-01T09:58:28Z</time>
      </trkpt>
      <trkpt lat="46.31347" lon="2.82868">
        <ele>366.4</ele>
        <time>2019-11-01T09:58:29Z</time>
      </trkpt>
      <trkpt lat="46.31347" lon="2.82868">
        <ele>366.4</ele>
        <time>2019-11-01T09:58:30Z</time>
      </trkpt>
      <trkpt lat="46.31347" lon="2.82868">
        <ele>366.4</ele>
        <time>2019-11-01T09:58:31Z</time>
      </trkpt>
      <trkpt lat="46.31347" lon="2.82869">
        <ele>366.4</ele>
        <time>2019-11-01T09:58:32Z</time>
      </trkpt>
      <trkpt lat="46.31347" lon="2.82869">
        <ele>366.4</ele>
        <time>2019-11-01T10:00:37Z</time>
      </trkpt>
      <trkpt lat="46.31346" lon="2.82869">
        <ele>366.4</ele>
        <time>2019-11-01T10:00:38Z</time>
      </trkpt>
      <trkpt lat="46.31346" lon="2.82869">
        <ele>366.4</ele>
        <time>2019-11-01T10:00:39Z</time>
      </trkpt>
      <trkpt lat="46.31346" lon="2.82869">
        <ele>366.4</ele>
        <time>2019-11-01T10:00:40Z</time>
      </trkpt>
      <trkpt lat="46.31346" lon="2.8287">
        <ele>366.4</ele>
        <time>2019-11-01T10:00:41Z</time>
      </trkpt>
      <trkpt lat="46.31346" lon="2.8287">
        <ele>366.4</ele>
        <time>2019-11-01T10:00:42Z</time>
      </trkpt>
      <trkpt lat="46.31346" lon="2.8287">
        <ele>366.4</ele>
        <time>2019-11-01T10:00:43Z</time>
      </trkpt>
      <trkpt lat="46.31346" lon="2.8287">
        <ele>366.4</ele>
        <time>2019-11-01T10:00:44Z</time>
      </trkpt>
      <trkpt lat="46.31346" lon="2.8287">
        <ele>366.4</ele>
        <time>2019-11-01T10:00:45Z</time>
      </trkpt>
      <trkpt lat="46.31346" lon="2.8287">
        <ele>366.4</ele>
        <time>2019-11-01T10:00:46Z</time>
      </trkpt>
      <trkpt lat="46.31346" lon="2.8287">
        <ele>366.4</ele>
        <time>2019-11-01T10:00:47Z</time>
      </trkpt>
      <trkpt lat="46.31346" lon="2.8287">
        <ele>366.4</ele>
        <time>2019-11-01T10:00:48Z</time>
      </trkpt>
      <trkpt lat="46.31346" lon="2.8287">
        <ele>366.4</ele>
        <time>2019-11-01T10:00:49Z</time>
      </trkpt>
      <trkpt lat="46.31306" lon="2.82881">
        <ele>363</ele>
        <time>2019-11-01T10:00:50Z</time>
      </trkpt>
      <trkpt lat="46.31246" lon="2.82892">
        <ele>358.2</ele>
        <time>2019-11-01T10:00:51Z</time>
      </trkpt>
      <trkpt lat="46.31218" lon="2.82896">
        <ele>357.6</ele>
        <time>2019-11-01T10:00:52Z</time>
      </trkpt>
      <trkpt lat="46.31188" lon="2.82895">
        <ele>356.9</ele>
        <time>2019-11-01T10:00:53Z</time>
      </trkpt>
      <trkpt lat="46.3116" lon="2.82877">
        <ele>352.9</ele>
        <time>2019-11-01T10:00:54Z</time>
      </trkpt>
      <trkpt lat="46.31137" lon="2.82874">
        <ele>352.2</ele>
        <time>2019-11-01T10:00:55Z</time>
      </trkpt>
      <trkpt lat="46.31125" lon="2.82896">
        <ele>352.1</ele>
        <time>2019-11-01T10:00:56Z</time>
      </trkpt>
      <trkpt lat="46.31118" lon="2.82914">
        <ele>351.7</ele>
        <time>2019-11-01T10:00:57Z</time>
      </trkpt>
      <trkpt lat="46.31105" lon="2.82932">
        <ele>351.5</ele>
        <time>2019-11-01T10:00:58Z</time>
      </trkpt>
      <trkpt lat="46.31098" lon="2.82942">
        <ele>351.4</ele>
        <time>2019-11-01T10:00:59Z</time>
      </trkpt>
      <trkpt lat="46.31091" lon="2.82941">
        <ele>351.1</ele>
        <time>2019-11-01T10:01:00Z</time>
      </trkpt>
      <trkpt lat="46.31086" lon="2.82931">
        <ele>350.5</ele>
        <time>2019-11-01T10:01:01Z</time>
      </trkpt>
      <trkpt lat="46.31085" lon="2.82919">
        <ele>349.4</ele>
        <time>2019-11-01T10:01:02Z</time>
      </trkpt>
      <trkpt lat="46.31084" lon="2.82906">
        <ele>349.9</ele>
        <time>2019-11-01T10:01:03Z</time>
      </trkpt>
      <trkpt lat="46.31081" lon="2.8289">
        <ele>347.1</ele>
        <time>2019-11-01T10:01:04Z</time>
      </trkpt>
      <trkpt lat="46.31077" lon="2.82877">
        <ele>346.7</ele>
        <time>2019-11-01T10:01:05Z</time>
      </trkpt>
      <trkpt lat="46.31073" lon="2.82865">
        <ele>346.6</ele>
        <time>2019-11-01T10:01:06Z</time>
      </trkpt>
      <trkpt lat="46.31069" lon="2.82853">
        <ele>346.7</ele>
        <time>2019-11-01T10:01:07Z</time>
      </trkpt>
      <trkpt lat="46.31063" lon="2.82839">
        <ele>346.6</ele>
        <time>2019-11-01T10:01:08Z</time>
      </trkpt>
      <trkpt lat="46.31062" lon="2.82826">
        <ele>345.4</ele>
        <time>2019-11-01T10:01:09Z</time>
      </trkpt>
      <trkpt lat="46.31054" lon="2.82807">
        <ele>344.4</ele>
        <time>2019-11-01T10:01:10Z</time>
      </trkpt>
      <trkpt lat="46.31051" lon="2.82797">
        <ele>344.1</ele>
        <time>2019-11-01T10:01:11Z</time>
      </trkpt>
      <trkpt lat="46.31047" lon="2.82781">
        <ele>343.6</ele>
        <time>2019-11-01T10:01:12Z</time>
      </trkpt>
      <trkpt lat="46.31043" lon="2.82764">
        <ele>343.3</ele>
        <time>2019-11-01T10:01:13Z</time>
      </trkpt>
      <trkpt lat="46.3104" lon="2.82748">
        <ele>340.7</ele>
        <time>2019-11-01T10:01:14Z</time>
      </trkpt>
      <trkpt lat="46.31033" lon="2.82738">
        <ele>340.6</ele>
        <time>2019-11-01T10:01:15Z</time>
      </trkpt>
      <trkpt lat="46.31025" lon="2.82734">
        <ele>340.5</ele>
        <time>2019-11-01T10:01:16Z</time>
      </trkpt>
      <trkpt lat="46.31016" lon="2.82735">
        <ele>340.6</ele>
        <time>2019-11-01T10:01:17Z</time>
      </trkpt>
      <trkpt lat="46.30997" lon="2.82732">
        <ele>343.1</ele>
        <time>2019-11-01T10:01:18Z</time>
      </trkpt>
      <trkpt lat="46.30982" lon="2.82733">
        <ele>343.9</ele>
        <time>2019-11-01T10:01:19Z</time>
      </trkpt>
      <trkpt lat="46.30971" lon="2.82733">
        <ele>344.7</ele>
        <time>2019-11-01T10:01:20Z</time>
      </trkpt>
      <trkpt lat="46.30961" lon="2.82728">
        <ele>345.4</ele>
        <time>2019-11-01T10:01:21Z</time>
      </trkpt>
      <trkpt lat="46.30953" lon="2.82721">
        <ele>346</ele>
        <time>2019-11-01T10:01:22Z</time>
      </trkpt>
      <trkpt lat="46.30949" lon="2.82707">
        <ele>346</ele>
        <time>2019-11-01T10:01:23Z</time>
      </trkpt>
      <trkpt lat="46.30947" lon="2.82693">
        <ele>346.2</ele>
        <time>2019-11-01T10:01:24Z</time>
      </trkpt>
      <trkpt lat="46.3095" lon="2.82682">
        <ele>346</ele>
        <time>2019-11-01T10:01:25Z</time>
      </trkpt>
      <trkpt lat="46.30954" lon="2.82669">
        <ele>345.7</ele>
        <time>2019-11-01T10:01:26Z</time>
      </trkpt>
      <trkpt lat="46.30955" lon="2.82657">
        <ele>345.9</ele>
        <time>2019-11-01T10:01:27Z</time>
      </trkpt>
      <trkpt lat="46.30952" lon="2.8265">
        <ele>346.2</ele>
        <time>2019-11-01T10:01:28Z</time>
      </trkpt>
      <trkpt lat="46.30946" lon="2.82648">
        <ele>346.5</ele>
        <time>2019-11-01T10:01:29Z</time>
      </trkpt>
      <trkpt lat="46.30937" lon="2.82653">
        <ele>347.2</ele>
        <time>2019-11-01T10:01:30Z</time>
      </trkpt>
      <trkpt lat="46.30927" lon="2.82661">
        <ele>346.6</ele>
        <time>2019-11-01T10:01:31Z</time>
      </trkpt>
      <trkpt lat="46.30925" lon="2.82665">
        <ele>346.8</ele>
        <time>2019-11-01T10:01:32Z</time>
      </trkpt>
      <trkpt lat="46.30923" lon="2.82668">
        <ele>347.1</ele>
        <time>2019-11-01T10:01:33Z</time>
      </trkpt>
      <trkpt lat="46.30921" lon="2.82672">
        <ele>347.3</ele>
        <time>2019-11-01T10:01:34Z</time>
      </trkpt>
      <trkpt lat="46.30919" lon="2.82676">
        <ele>347.5</ele>
        <time>2019-11-01T10:01:35Z</time>
      </trkpt>
      <trkpt lat="46.30917" lon="2.8268">
        <ele>347.8</ele>
        <time>2019-11-01T10:01:36Z</time>
      </trkpt>
      <trkpt lat="46.30916" lon="2.82684">
        <ele>348.1</ele>
        <time>2019-11-01T10:01:37Z</time>
      </trkpt>
      <trkpt lat="46.30915" lon="2.82687">
        <ele>348.2</ele>
        <time>2019-11-01T10:01:38Z</time>
      </trkpt>
      <trkpt lat="46.30914" lon="2.82692">
        <ele>348.3</ele>
        <time>2019-11-01T10:01:39Z</time>
      </trkpt>
      <trkpt lat="46.30914" lon="2.82696">
        <ele>348.5</ele>
        <time>2019-11-01T10:01:40Z</time>
      </trkpt>
      <trkpt lat="46.30914" lon="2.827">
        <ele>348.7</ele>
        <time>2019-11-01T10:01:41Z</time>
      </trkpt>
      <trkpt lat="46.30914" lon="2.82705">
        <ele>348.9</ele>
        <time>2019-11-01T10:01:42Z</time>
      </trkpt>
      <trkpt lat="46.30914" lon="2.82709">
        <ele>349</ele>
        <time>2019-11-01T10:01:43Z</time>
      </trkpt>
      <trkpt lat="46.30914" lon="2.82713">
        <ele>349.1</ele>
        <time>2019-11-01T10:01:44Z</time>
      </trkpt>
      <trkpt lat="46.30914" lon="2.82716">
        <ele>349.2</ele>
        <time>2019-11-01T10:01:45Z</time>
      </trkpt>
      <trkpt lat="46.30914" lon="2.8272">
        <ele>349.2</ele>
        <time>2019-11-01T10:01:46Z</time>
      </trkpt>
      <trkpt lat="46.30914" lon="2.82724">
        <ele>349.3</ele>
        <time>2019-11-01T10:01:47Z</time>
      </trkpt>
      <trkpt lat="46.30913" lon="2.82728">
        <ele>349.4</ele>
        <time>2019-11-01T10:01:48Z</time>
      </trkpt>
      <trkpt lat="46.30913" lon="2.82733">
        <ele>349.5</ele>
        <time>2019-11-01T10:01:49Z</time>
      </trkpt>
      <trkpt lat="46.30912" lon="2.82737">
        <ele>349.6</ele>
        <time>2019-11-01T10:01:50Z</time>
      </trkpt>
      <trkpt lat="46.3091" lon="2.82742">
        <ele>349.7</ele>
        <time>2019-11-01T10:02:06Z</time>
      </trkpt>
      <trkpt lat="46.30909" lon="2.82747">
        <ele>349.8</ele>
        <time>2019-11-01T10:02:07Z</time>
      </trkpt>
      <trkpt lat="46.30907" lon="2.8275">
        <ele>349.9</ele>
        <time>2019-11-01T10:02:08Z</time>
      </trkpt>
      <trkpt lat="46.30906" lon="2.82754">
        <ele>350</ele>
        <time>2019-11-01T10:02:09Z</time>
      </trkpt>
      <trkpt lat="46.30904" lon="2.82757">
        <ele>350.2</ele>
        <time>2019-11-01T10:02:10Z</time>
      </trkpt>
      <trkpt lat="46.30902" lon="2.8276">
        <ele>350.4</ele>
        <time>2019-11-01T10:02:11Z</time>
      </trkpt>
      <trkpt lat="46.30901" lon="2.82763">
        <ele>350.6</ele>
        <time>2019-11-01T10:02:12Z</time>
      </trkpt>
      <trkpt lat="46.30899" lon="2.82766">
        <ele>350.9</ele>
        <time>2019-11-01T10:02:13Z</time>
      </trkpt>
      <trkpt lat="46.30897" lon="2.82768">
        <ele>351.3</ele>
        <time>2019-11-01T10:02:14Z</time>
      </trkpt>
      <trkpt lat="46.30896" lon="2.82771">
        <ele>351.6</ele>
        <time>2019-11-01T10:02:15Z</time>
      </trkpt>
      <trkpt lat="46.30894" lon="2.82773">
        <ele>351.7</ele>
        <time>2019-11-01T10:02:16Z</time>
      </trkpt>
      <trkpt lat="46.30891" lon="2.82774">
        <ele>351.9</ele>
        <time>2019-11-01T10:02:17Z</time>
      </trkpt>
      <trkpt lat="46.30889" lon="2.82776">
        <ele>351.9</ele>
        <time>2019-11-01T10:02:18Z</time>
      </trkpt>
      <trkpt lat="46.30887" lon="2.82778">
        <ele>351.9</ele>
        <time>2019-11-01T10:02:19Z</time>
      </trkpt>
      <trkpt lat="46.30885" lon="2.82779">
        <ele>351.9</ele>
        <time>2019-11-01T10:02:20Z</time>
      </trkpt>
      <trkpt lat="46.30882" lon="2.82781">
        <ele>352.1</ele>
        <time>2019-11-01T10:02:21Z</time>
      </trkpt>
      <trkpt lat="46.30879" lon="2.82782">
        <ele>352.2</ele>
        <time>2019-11-01T10:02:22Z</time>
      </trkpt>
      <trkpt lat="46.30877" lon="2.82782">
        <ele>352.4</ele>
        <time>2019-11-01T10:02:23Z</time>
      </trkpt>
      <trkpt lat="46.30875" lon="2.82783">
        <ele>352.5</ele>
        <time>2019-11-01T10:02:24Z</time>
      </trkpt>
      <trkpt lat="46.30873" lon="2.82784">
        <ele>352.5</ele>
        <time>2019-11-01T10:02:25Z</time>
      </trkpt>
      <trkpt lat="46.3087" lon="2.82785">
        <ele>352.6</ele>
        <time>2019-11-01T10:02:26Z</time>
      </trkpt>
      <trkpt lat="46.30867" lon="2.82785">
        <ele>352.7</ele>
        <time>2019-11-01T10:02:27Z</time>
      </trkpt>
      <trkpt lat="46.30865" lon="2.82786">
        <ele>352.8</ele>
        <time>2019-11-01T10:02:28Z</time>
      </trkpt>
      <trkpt lat="46.30862" lon="2.82786">
        <ele>352.9</ele>
        <time>2019-11-01T10:02:29Z</time>
      </trkpt>
      <trkpt lat="46.3086" lon="2.82786">
        <ele>353</ele>
        <time>2019-11-01T10:02:30Z</time>
      </trkpt>
      <trkpt lat="46.30857" lon="2.82786">
        <ele>353.1</ele>
        <time>2019-11-01T10:02:31Z</time>
      </trkpt>
      <trkpt lat="46.30855" lon="2.82785">
        <ele>353.1</ele>
        <time>2019-11-01T10:02:32Z</time>
      </trkpt>
      <trkpt lat="46.30852" lon="2.82785">
        <ele>353.3</ele>
        <time>2019-11-01T10:02:33Z</time>
      </trkpt>
      <trkpt lat="46.3085" lon="2.82785">
        <ele>353.4</ele>
        <time>2019-11-01T10:02:34Z</time>
      </trkpt>
      <trkpt lat="46.30847" lon="2.82786">
        <ele>353.5</ele>
        <time>2019-11-01T10:02:35Z</time>
      </trkpt>
      <trkpt lat="46.30845" lon="2.82786">
        <ele>353.7</ele>
        <time>2019-11-01T10:02:36Z</time>
      </trkpt>
      <trkpt lat="46.30842" lon="2.82786">
        <ele>353.8</ele>
        <time>2019-11-01T10:02:37Z</time>
      </trkpt>
      <trkpt lat="46.3084" lon="2.82786">
        <ele>353.8</ele>
        <time>2019-11-01T10:02:38Z</time>
      </trkpt>
      <trkpt lat="46.30837" lon="2.82785">
        <ele>353.9</ele>
        <time>2019-11-01T10:02:39Z</time>
      </trkpt>
      <trkpt lat="46.30834" lon="2.82785">
        <ele>354</ele>
        <time>2019-11-01T10:02:40Z</time>
      </trkpt>
      <trkpt lat="46.30831" lon="2.82785">
        <ele>354.1</ele>
        <time>2019-11-01T10:02:52Z</time>
      </trkpt>
      <trkpt lat="46.30829" lon="2.82785">
        <ele>354.2</ele>
        <time>2019-11-01T10:02:53Z</time>
      </trkpt>
      <trkpt lat="46.30826" lon="2.82785">
        <ele>354.3</ele>
        <time>2019-11-01T10:02:54Z</time>
      </trkpt>
      <trkpt lat="46.30824" lon="2.82785">
        <ele>354.3</ele>
        <time>2019-11-01T10:02:55Z</time>
      </trkpt>
      <trkpt lat="46.30822" lon="2.82785">
        <ele>354.4</ele>
        <time>2019-11-01T10:02:56Z</time>
      </trkpt>
      <trkpt lat="46.30819" lon="2.82784">
        <ele>354.5</ele>
        <time>2019-11-01T10:02:57Z</time>
      </trkpt>
      <trkpt lat="46.30818" lon="2.82784">
        <ele>354.6</ele>
        <time>2019-11-01T10:02:58Z</time>
      </trkpt>
      <trkpt lat="46.30816" lon="2.82784">
        <ele>354.7</ele>
        <time>2019-11-01T10:02:59Z</time>
      </trkpt>
      <trkpt lat="46.30814" lon="2.82784">
        <ele>354.7</ele>
        <time>2019-11-01T10:03:00Z</time>
      </trkpt>
      <trkpt lat="46.30813" lon="2.82784">
        <ele>354.8</ele>
        <time>2019-11-01T10:03:01Z</time>
      </trkpt>
      <trkpt lat="46.30812" lon="2.82784">
        <ele>354.8</ele>
        <time>2019-11-01T10:03:02Z</time>
      </trkpt>
      <trkpt lat="46.3081" lon="2.82784">
        <ele>354.9</ele>
        <time>2019-11-01T10:03:03Z</time>
      </trkpt>
      <trkpt lat="46.30809" lon="2.82784">
        <ele>355</ele>
        <time>2019-11-01T10:03:04Z</time>
      </trkpt>
      <trkpt lat="46.30807" lon="2.82784">
        <ele>355</ele>
        <time>2019-11-01T10:03:05Z</time>
      </trkpt>
      <trkpt lat="46.30807" lon="2.82785">
        <ele>355.1</ele>
        <time>2019-11-01T10:03:06Z</time>
      </trkpt>
      <trkpt lat="46.30807" lon="2.82785">
        <ele>355.1</ele>
        <time>2019-11-01T10:03:07Z</time>
      </trkpt>
      <trkpt lat="46.30807" lon="2.82786">
        <ele>355.1</ele>
        <time>2019-11-01T10:03:08Z</time>
      </trkpt>
      <trkpt lat="46.30808" lon="2.82786">
        <ele>355.1</ele>
        <time>2019-11-01T10:03:09Z</time>
      </trkpt>
      <trkpt lat="46.30808" lon="2.82785">
        <ele>355.1</ele>
        <time>2019-11-01T10:03:10Z</time>
      </trkpt>
      <trkpt lat="46.30809" lon="2.82785">
        <ele>355.2</ele>
        <time>2019-11-01T10:03:11Z</time>
      </trkpt>
      <trkpt lat="46.30809" lon="2.82785">
        <ele>355.2</ele>
        <time>2019-11-01T10:03:12Z</time>
      </trkpt>
      <trkpt lat="46.30809" lon="2.82785">
        <ele>355.2</ele>
        <time>2019-11-01T10:03:13Z</time>
      </trkpt>
      <trkpt lat="46.30811" lon="2.82784">
        <ele>355.3</ele>
        <time>2019-11-01T10:03:14Z</time>
      </trkpt>
      <trkpt lat="46.30814" lon="2.82784">
        <ele>355.4</ele>
        <time>2019-11-01T10:03:15Z</time>
      </trkpt>
      <trkpt lat="46.30818" lon="2.82784">
        <ele>355.6</ele>
        <time>2019-11-01T10:03:16Z</time>
      </trkpt>
      <trkpt lat="46.30822" lon="2.82784">
        <ele>355.8</ele>
        <time>2019-11-01T10:03:17Z</time>
      </trkpt>
      <trkpt lat="46.30826" lon="2.82784">
        <ele>355.9</ele>
        <time>2019-11-01T10:03:18Z</time>
      </trkpt>
      <trkpt lat="46.30831" lon="2.82784">
        <ele>356.1</ele>
        <time>2019-11-01T10:03:19Z</time>
      </trkpt>
      <trkpt lat="46.30835" lon="2.82784">
        <ele>356.3</ele>
        <time>2019-11-01T10:03:20Z</time>
      </trkpt>
      <trkpt lat="46.30841" lon="2.82784">
        <ele>356.4</ele>
        <time>2019-11-01T10:03:21Z</time>
      </trkpt>
      <trkpt lat="46.30847" lon="2.82785">
        <ele>356.6</ele>
        <time>2019-11-01T10:03:22Z</time>
      </trkpt>
      <trkpt lat="46.30852" lon="2.82785">
        <ele>356.7</ele>
        <time>2019-11-01T10:03:23Z</time>
      </trkpt>
      <trkpt lat="46.30857" lon="2.82784">
        <ele>356.9</ele>
        <time>2019-11-01T10:03:24Z</time>
      </trkpt>
      <trkpt lat="46.30862" lon="2.82783">
        <ele>357</ele>
        <time>2019-11-01T10:03:25Z</time>
      </trkpt>
      <trkpt lat="46.30867" lon="2.82784">
        <ele>357.1</ele>
        <time>2019-11-01T10:03:26Z</time>
      </trkpt>
      <trkpt lat="46.3087" lon="2.82785">
        <ele>357.2</ele>
        <time>2019-11-01T10:03:27Z</time>
      </trkpt>
      <trkpt lat="46.30871" lon="2.82786">
        <ele>358.6</ele>
        <time>2019-11-01T10:04:02Z</time>
      </trkpt>
      <trkpt lat="46.30869" lon="2.82784">
        <ele>358.7</ele>
        <time>2019-11-01T10:04:03Z</time>
      </trkpt>
      <trkpt lat="46.30867" lon="2.82783">
        <ele>358.8</ele>
        <time>2019-11-01T10:04:04Z</time>
      </trkpt>
      <trkpt lat="46.30865" lon="2.82783">
        <ele>358.8</ele>
        <time>2019-11-01T10:04:05Z</time>
      </trkpt>
      <trkpt lat="46.30862" lon="2.82784">
        <ele>358.9</ele>
        <time>2019-11-01T10:04:06Z</time>
      </trkpt>
      <trkpt lat="46.30859" lon="2.82784">
        <ele>359</ele>
        <time>2019-11-01T10:04:07Z</time>
      </trkpt>
      <trkpt lat="46.30856" lon="2.82784">
        <ele>359</ele>
        <time>2019-11-01T10:04:08Z</time>
      </trkpt>
      <trkpt lat="46.30853" lon="2.82784">
        <ele>359.1</ele>
        <time>2019-11-01T10:04:09Z</time>
      </trkpt>
      <trkpt lat="46.3085" lon="2.82784">
        <ele>359.2</ele>
        <time>2019-11-01T10:04:10Z</time>
      </trkpt>
      <trkpt lat="46.30846" lon="2.82785">
        <ele>359.2</ele>
        <time>2019-11-01T10:04:11Z</time>
      </trkpt>
      <trkpt lat="46.30843" lon="2.82786">
        <ele>359.3</ele>
        <time>2019-11-01T10:04:12Z</time>
      </trkpt>
      <trkpt lat="46.30839" lon="2.82786">
        <ele>359.4</ele>
        <time>2019-11-01T10:04:13Z</time>
      </trkpt>
      <trkpt lat="46.30836" lon="2.82786">
        <ele>359.4</ele>
        <time>2019-11-01T10:04:14Z</time>
      </trkpt>
      <trkpt lat="46.30833" lon="2.82786">
        <ele>359.5</ele>
        <time>2019-11-01T10:04:15Z</time>
      </trkpt>
      <trkpt lat="46.30829" lon="2.82786">
        <ele>359.5</ele>
        <time>2019-11-01T10:04:16Z</time>
      </trkpt>
      <trkpt lat="46.30824" lon="2.82786">
        <ele>359.6</ele>
        <time>2019-11-01T10:07:15Z</time>
      </trkpt>
      <trkpt lat="46.3082" lon="2.82785">
        <ele>359.6</ele>
        <time>2019-11-01T10:07:16Z</time>
      </trkpt>
      <trkpt lat="46.30817" lon="2.82785">
        <ele>359.7</ele>
        <time>2019-11-01T10:07:17Z</time>
      </trkpt>
      <trkpt lat="46.30813" lon="2.82784">
        <ele>359.7</ele>
        <time>2019-11-01T10:07:18Z</time>
      </trkpt>
      <trkpt lat="46.30809" lon="2.82784">
        <ele>359.8</ele>
        <time>2019-11-01T10:07:19Z</time>
      </trkpt>
      <trkpt lat="46.30805" lon="2.82784">
        <ele>359.8</ele>
        <time>2019-11-01T10:07:20Z</time>
      </trkpt>
      <trkpt lat="46.30802" lon="2.82783">
        <ele>359.8</ele>
        <time>2019-11-01T10:07:21Z</time>
      </trkpt>
      <trkpt lat="46.30798" lon="2.82783">
        <ele>359.8</ele>
        <time>2019-11-01T10:07:22Z</time>
      </trkpt>
      <trkpt lat="46.30795" lon="2.82783">
        <ele>359.9</ele>
        <time>2019-11-01T10:07:23Z</time>
      </trkpt>
      <trkpt lat="46.30791" lon="2.82783">
        <ele>359.9</ele>
        <time>2019-11-01T10:07:24Z</time>
      </trkpt>
      <trkpt lat="46.30787" lon="2.82783">
        <ele>359.9</ele>
        <time>2019-11-01T10:07:25Z</time>
      </trkpt>
      <trkpt lat="46.30784" lon="2.82783">
        <ele>360</ele>
        <time>2019-11-01T10:07:26Z</time>
      </trkpt>
      <trkpt lat="46.30781" lon="2.82783">
        <ele>360</ele>
        <time>2019-11-01T10:07:27Z</time>
      </trkpt>
      <trkpt lat="46.30777" lon="2.82783">
        <ele>360</ele>
        <time>2019-11-01T10:07:28Z</time>
      </trkpt>
      <trkpt lat="46.30773" lon="2.82782">
        <ele>360.1</ele>
        <time>2019-11-01T10:07:29Z</time>
      </trkpt>
      <trkpt lat="46.30769" lon="2.82782">
        <ele>360.1</ele>
        <time>2019-11-01T10:07:30Z</time>
      </trkpt>
      <trkpt lat="46.30765" lon="2.82781">
        <ele>360.1</ele>
        <time>2019-11-01T10:07:31Z</time>
      </trkpt>
      <trkpt lat="46.30762" lon="2.82781">
        <ele>360.1</ele>
        <time>2019-11-01T10:07:32Z</time>
      </trkpt>
      <trkpt lat="46.30758" lon="2.82781">
        <ele>360.2</ele>
        <time>2019-11-01T10:07:33Z</time>
      </trkpt>
      <trkpt lat="46.30754" lon="2.8278">
        <ele>360.2</ele>
        <time>2019-11-01T10:07:34Z</time>
      </trkpt>
      <trkpt lat="46.3075" lon="2.8278">
        <ele>360.2</ele>
        <time>2019-11-01T10:07:35Z</time>
      </trkpt>
      <trkpt lat="46.30747" lon="2.82779">
        <ele>360.2</ele>
        <time>2019-11-01T10:07:36Z</time>
      </trkpt>
      <trkpt lat="46.30743" lon="2.82779">
        <ele>360.3</ele>
        <time>2019-11-01T10:07:37Z</time>
      </trkpt>
      <trkpt lat="46.30739" lon="2.82779">
        <ele>360.3</ele>
        <time>2019-11-01T10:07:38Z</time>
      </trkpt>
      <trkpt lat="46.30735" lon="2.82779">
        <ele>360.3</ele>
        <time>2019-11-01T10:07:39Z</time>
      </trkpt>
      <trkpt lat="46.30732" lon="2.82779">
        <ele>360.4</ele>
        <time>2019-11-01T10:07:40Z</time>
      </trkpt>
      <trkpt lat="46.30729" lon="2.82779">
        <ele>360.4</ele>
        <time>2019-11-01T10:07:41Z</time>
      </trkpt>
      <trkpt lat="46.30725" lon="2.82779">
        <ele>360.4</ele>
        <time>2019-11-01T10:07:42Z</time>
      </trkpt>
      <trkpt lat="46.3072" lon="2.82779">
        <ele>360.5</ele>
        <time>2019-11-01T10:07:43Z</time>
      </trkpt>
      <trkpt lat="46.30717" lon="2.82779">
        <ele>360.5</ele>
        <time>2019-11-01T10:07:44Z</time>
      </trkpt>
      <trkpt lat="46.30714" lon="2.82779">
        <ele>360.5</ele>
        <time>2019-11-01T10:07:45Z</time>
      </trkpt>
      <trkpt lat="46.3071" lon="2.82778">
        <ele>360.5</ele>
        <time>2019-11-01T10:07:46Z</time>
      </trkpt>
      <trkpt lat="46.30705" lon="2.82778">
        <ele>360.6</ele>
        <time>2019-11-01T10:07:47Z</time>
      </trkpt>
      <trkpt lat="46.30702" lon="2.82777">
        <ele>360.6</ele>
        <time>2019-11-01T10:07:48Z</time>
      </trkpt>
      <trkpt lat="46.30698" lon="2.82777">
        <ele>360.6</ele>
        <time>2019-11-01T10:07:49Z</time>
      </trkpt>
      <trkpt lat="46.30694" lon="2.82777">
        <ele>360.7</ele>
        <time>2019-11-01T10:07:50Z</time>
      </trkpt>
      <trkpt lat="46.3069" lon="2.82777">
        <ele>360.7</ele>
        <time>2019-11-01T10:07:51Z</time>
      </trkpt>
      <trkpt lat="46.30686" lon="2.82777">
        <ele>360.7</ele>
        <time>2019-11-01T10:07:52Z</time>
      </trkpt>
      <trkpt lat="46.30682" lon="2.82777">
        <ele>360.7</ele>
        <time>2019-11-01T10:07:53Z</time>
      </trkpt>
      <trkpt lat="46.30678" lon="2.82777">
        <ele>360.7</ele>
        <time>2019-11-01T10:07:54Z</time>
      </trkpt>
      <trkpt lat="46.30675" lon="2.82777">
        <ele>360.8</ele>
        <time>2019-11-01T10:07:55Z</time>
      </trkpt>
      <trkpt lat="46.30671" lon="2.82778">
        <ele>359.9</ele>
        <time>2019-11-01T10:07:56Z</time>
      </trkpt>
      <trkpt lat="46.30678" lon="2.82801">
        <ele>359.5</ele>
        <time>2019-11-01T10:07:57Z</time>
      </trkpt>
      <trkpt lat="46.30683" lon="2.82814">
        <ele>359.3</ele>
        <time>2019-11-01T10:07:58Z</time>
      </trkpt>
      <trkpt lat="46.30689" lon="2.82837">
        <ele>357.8</ele>
        <time>2019-11-01T10:07:59Z</time>
      </trkpt>
      <trkpt lat="46.30693" lon="2.82865">
        <ele>357.2</ele>
        <time>2019-11-01T10:08:00Z</time>
      </trkpt>
      <trkpt lat="46.30694" lon="2.82885">
        <ele>356.8</ele>
        <time>2019-11-01T10:08:01Z</time>
      </trkpt>
      <trkpt lat="46.30696" lon="2.8294">
        <ele>355</ele>
        <time>2019-11-01T10:08:02Z</time>
      </trkpt>
      <trkpt lat="46.30697" lon="2.82982">
        <ele>354.8</ele>
        <time>2019-11-01T10:08:03Z</time>
      </trkpt>
      <trkpt lat="46.30698" lon="2.83003">
        <ele>353.7</ele>
        <time>2019-11-01T10:08:04Z</time>
      </trkpt>
      <trkpt lat="46.307" lon="2.83029">
        <ele>353.4</ele>
        <time>2019-11-01T10:08:05Z</time>
      </trkpt>
      <trkpt lat="46.30708" lon="2.83053">
        <ele>353.1</ele>
        <time>2019-11-01T10:08:06Z</time>
      </trkpt>
      <trkpt lat="46.30716" lon="2.83071">
        <ele>352.9</ele>
        <time>2019-11-01T10:08:07Z</time>
      </trkpt>
      <trkpt lat="46.30727" lon="2.83106">
        <ele>351.2</ele>
        <time>2019-11-01T10:08:08Z</time>
      </trkpt>
      <trkpt lat="46.30737" lon="2.83144">
        <ele>350.4</ele>
        <time>2019-11-01T10:08:09Z</time>
      </trkpt>
      <trkpt lat="46.30746" lon="2.8318">
        <ele>348.7</ele>
        <time>2019-11-01T10:08:10Z</time>
      </trkpt>
      <trkpt lat="46.30758" lon="2.83221">
        <ele>347.3</ele>
        <time>2019-11-01T10:08:11Z</time>
      </trkpt>
      <trkpt lat="46.30759" lon="2.83225">
        <ele>347.2</ele>
        <time>2019-11-01T10:08:12Z</time>
      </trkpt>
      <trkpt lat="46.30761" lon="2.83229">
        <ele>346.9</ele>
        <time>2019-11-01T10:08:13Z</time>
      </trkpt>
      <trkpt lat="46.30763" lon="2.83234">
        <ele>346.8</ele>
        <time>2019-11-01T10:08:14Z</time>
      </trkpt>
      <trkpt lat="46.30765" lon="2.83238">
        <ele>346.6</ele>
        <time>2019-11-01T10:08:15Z</time>
      </trkpt>
      <trkpt lat="46.30767" lon="2.83242">
        <ele>346.4</ele>
        <time>2019-11-01T10:08:16Z</time>
      </trkpt>
      <trkpt lat="46.30769" lon="2.83247">
        <ele>346.3</ele>
        <time>2019-11-01T10:08:17Z</time>
      </trkpt>
      <trkpt lat="46.3077" lon="2.83251">
        <ele>346.2</ele>
        <time>2019-11-01T10:08:18Z</time>
      </trkpt>
      <trkpt lat="46.30772" lon="2.83256">
        <ele>346.1</ele>
        <time>2019-11-01T10:08:19Z</time>
      </trkpt>
      <trkpt lat="46.30774" lon="2.8326">
        <ele>346</ele>
        <time>2019-11-01T10:08:20Z</time>
      </trkpt>
      <trkpt lat="46.30775" lon="2.83265">
        <ele>346</ele>
        <time>2019-11-01T10:08:21Z</time>
      </trkpt>
      <trkpt lat="46.30777" lon="2.83269">
        <ele>346</ele>
        <time>2019-11-01T10:08:22Z</time>
      </trkpt>
      <trkpt lat="46.30778" lon="2.83273">
        <ele>346</ele>
        <time>2019-11-01T10:08:23Z</time>
      </trkpt>
      <trkpt lat="46.30779" lon="2.83277">
        <ele>346</ele>
        <time>2019-11-01T10:08:24Z</time>
      </trkpt>
      <trkpt lat="46.3078" lon="2.83281">
        <ele>346</ele>
        <time>2019-11-01T10:08:25Z</time>
      </trkpt>
      <trkpt lat="46.30781" lon="2.83286">
        <ele>346.1</ele>
        <time>2019-11-01T10:08:26Z</time>
      </trkpt>
      <trkpt lat="46.30782" lon="2.8329">
        <ele>346.2</ele>
        <time>2019-11-01T10:08:27Z</time>
      </trkpt>
      <trkpt lat="46.30782" lon="2.83295">
        <ele>346.2</ele>
        <time>2019-11-01T10:08:28Z</time>
      </trkpt>
      <trkpt lat="46.30783" lon="2.83299">
        <ele>346.3</ele>
        <time>2019-11-01T10:08:29Z</time>
      </trkpt>
      <trkpt lat="46.30784" lon="2.83303">
        <ele>346.4</ele>
        <time>2019-11-01T10:08:30Z</time>
      </trkpt>
      <trkpt lat="46.30785" lon="2.83308">
        <ele>346.5</ele>
        <time>2019-11-01T10:08:31Z</time>
      </trkpt>
      <trkpt lat="46.30786" lon="2.83312">
        <ele>346.7</ele>
        <time>2019-11-01T10:08:32Z</time>
      </trkpt>
      <trkpt lat="46.30787" lon="2.83317">
        <ele>346.8</ele>
        <time>2019-11-01T10:08:33Z</time>
      </trkpt>
      <trkpt lat="46.30787" lon="2.83321">
        <ele>346.9</ele>
        <time>2019-11-01T10:08:34Z</time>
      </trkpt>
      <trkpt lat="46.30788" lon="2.83325">
        <ele>347</ele>
        <time>2019-11-01T10:08:35Z</time>
      </trkpt>
      <trkpt lat="46.30788" lon="2.8333">
        <ele>347.1</ele>
        <time>2019-11-01T10:08:36Z</time>
      </trkpt>
      <trkpt lat="46.30789" lon="2.83334">
        <ele>347.2</ele>
        <time>2019-11-01T10:08:37Z</time>
      </trkpt>
      <trkpt lat="46.30789" lon="2.83337">
        <ele>347.3</ele>
        <time>2019-11-01T10:08:38Z</time>
      </trkpt>
      <trkpt lat="46.3079" lon="2.83341">
        <ele>347.4</ele>
        <time>2019-11-01T10:08:39Z</time>
      </trkpt>
      <trkpt lat="46.3079" lon="2.83345">
        <ele>347.5</ele>
        <time>2019-11-01T10:08:40Z</time>
      </trkpt>
      <trkpt lat="46.3079" lon="2.83348">
        <ele>347.5</ele>
        <time>2019-11-01T10:08:41Z</time>
      </trkpt>
      <trkpt lat="46.30791" lon="2.83352">
        <ele>347.6</ele>
        <time>2019-11-01T10:08:42Z</time>
      </trkpt>
      <trkpt lat="46.30792" lon="2.83355">
        <ele>347.7</ele>
        <time>2019-11-01T10:08:43Z</time>
      </trkpt>
      <trkpt lat="46.30793" lon="2.83359">
        <ele>347.8</ele>
        <time>2019-11-01T10:08:44Z</time>
      </trkpt>
      <trkpt lat="46.30793" lon="2.83363">
        <ele>347.9</ele>
        <time>2019-11-01T10:08:45Z</time>
      </trkpt>
      <trkpt lat="46.30794" lon="2.83367">
        <ele>348</ele>
        <time>2019-11-01T10:08:46Z</time>
      </trkpt>
      <trkpt lat="46.30795" lon="2.83371">
        <ele>348.1</ele>
        <time>2019-11-01T10:08:47Z</time>
      </trkpt>
      <trkpt lat="46.30795" lon="2.83375">
        <ele>348.1</ele>
        <time>2019-11-01T10:08:48Z</time>
      </trkpt>
      <trkpt lat="46.30796" lon="2.83378">
        <ele>348.1</ele>
        <time>2019-11-01T10:08:49Z</time>
      </trkpt>
      <trkpt lat="46.30797" lon="2.83382">
        <ele>348.2</ele>
        <time>2019-11-01T10:08:50Z</time>
      </trkpt>
      <trkpt lat="46.30798" lon="2.83385">
        <ele>348.3</ele>
        <time>2019-11-01T10:08:51Z</time>
      </trkpt>
      <trkpt lat="46.30798" lon="2.83389">
        <ele>348.3</ele>
        <time>2019-11-01T10:08:52Z</time>
      </trkpt>
      <trkpt lat="46.30799" lon="2.83392">
        <ele>348.4</ele>
        <time>2019-11-01T10:08:53Z</time>
      </trkpt>
      <trkpt lat="46.308" lon="2.83396">
        <ele>348.5</ele>
        <time>2019-11-01T10:08:54Z</time>
      </trkpt>
      <trkpt lat="46.308" lon="2.83399">
        <ele>348.4</ele>
        <time>2019-11-01T10:08:55Z</time>
      </trkpt>
      <trkpt lat="46.30801" lon="2.83403">
        <ele>348.5</ele>
        <time>2019-11-01T10:08:56Z</time>
      </trkpt>
      <trkpt lat="46.30801" lon="2.83407">
        <ele>348.6</ele>
        <time>2019-11-01T10:08:57Z</time>
      </trkpt>
      <trkpt lat="46.30802" lon="2.8341">
        <ele>348.7</ele>
        <time>2019-11-01T10:08:58Z</time>
      </trkpt>
      <trkpt lat="46.30803" lon="2.83414">
        <ele>348.7</ele>
        <time>2019-11-01T10:08:59Z</time>
      </trkpt>
      <trkpt lat="46.30803" lon="2.83418">
        <ele>348.8</ele>
        <time>2019-11-01T10:09:00Z</time>
      </trkpt>
      <trkpt lat="46.30804" lon="2.83421">
        <ele>348.8</ele>
        <time>2019-11-01T10:09:01Z</time>
      </trkpt>
      <trkpt lat="46.30804" lon="2.83425">
        <ele>348.9</ele>
        <time>2019-11-01T10:09:02Z</time>
      </trkpt>
      <trkpt lat="46.30805" lon="2.83428">
        <ele>348.9</ele>
        <time>2019-11-01T10:09:03Z</time>
      </trkpt>
      <trkpt lat="46.30806" lon="2.83432">
        <ele>349</ele>
        <time>2019-11-01T10:09:04Z</time>
      </trkpt>
      <trkpt lat="46.30806" lon="2.83436">
        <ele>349.1</ele>
        <time>2019-11-01T10:09:05Z</time>
      </trkpt>
      <trkpt lat="46.30806" lon="2.83439">
        <ele>349.2</ele>
        <time>2019-11-01T10:09:06Z</time>
      </trkpt>
      <trkpt lat="46.30807" lon="2.83443">
        <ele>349.1</ele>
        <time>2019-11-01T10:09:07Z</time>
      </trkpt>
      <trkpt lat="46.30807" lon="2.83446">
        <ele>349.2</ele>
        <time>2019-11-01T10:09:08Z</time>
      </trkpt>
      <trkpt lat="46.30807" lon="2.83449">
        <ele>349.4</ele>
        <time>2019-11-01T10:09:09Z</time>
      </trkpt>
      <trkpt lat="46.30808" lon="2.83452">
        <ele>349.4</ele>
        <time>2019-11-01T10:09:10Z</time>
      </trkpt>
      <trkpt lat="46.30808" lon="2.83456">
        <ele>349.4</ele>
        <time>2019-11-01T10:09:11Z</time>
      </trkpt>
      <trkpt lat="46.30809" lon="2.83459">
        <ele>349.5</ele>
        <time>2019-11-01T10:09:12Z</time>
      </trkpt>
      <trkpt lat="46.30809" lon="2.83463">
        <ele>349.6</ele>
        <time>2019-11-01T10:09:13Z</time>
      </trkpt>
      <trkpt lat="46.3081" lon="2.83466">
        <ele>349.7</ele>
        <time>2019-11-01T10:09:14Z</time>
      </trkpt>
      <trkpt lat="46.30809" lon="2.8347">
        <ele>349.8</ele>
        <time>2019-11-01T10:09:15Z</time>
      </trkpt>
      <trkpt lat="46.30809" lon="2.83472">
        <ele>349.8</ele>
        <time>2019-11-01T10:09:16Z</time>
      </trkpt>
      <trkpt lat="46.30809" lon="2.83476">
        <ele>349.9</ele>
        <time>2019-11-01T10:09:17Z</time>
      </trkpt>
      <trkpt lat="46.30809" lon="2.83479">
        <ele>350</ele>
        <time>2019-11-01T10:09:18Z</time>
      </trkpt>
      <trkpt lat="46.30809" lon="2.83482">
        <ele>350.1</ele>
        <time>2019-11-01T10:09:19Z</time>
      </trkpt>
      <trkpt lat="46.30809" lon="2.83486">
        <ele>350.2</ele>
        <time>2019-11-01T10:09:20Z</time>
      </trkpt>
      <trkpt lat="46.30809" lon="2.8349">
        <ele>350.2</ele>
        <time>2019-11-01T10:09:21Z</time>
      </trkpt>
      <trkpt lat="46.3081" lon="2.83493">
        <ele>350.4</ele>
        <time>2019-11-01T10:09:22Z</time>
      </trkpt>
      <trkpt lat="46.3081" lon="2.83496">
        <ele>350.5</ele>
        <time>2019-11-01T10:09:23Z</time>
      </trkpt>
      <trkpt lat="46.30811" lon="2.83499">
        <ele>350.6</ele>
        <time>2019-11-01T10:09:24Z</time>
      </trkpt>
      <trkpt lat="46.30811" lon="2.83502">
        <ele>350.5</ele>
        <time>2019-11-01T10:09:25Z</time>
      </trkpt>
      <trkpt lat="46.30812" lon="2.83506">
        <ele>350.6</ele>
        <time>2019-11-01T10:09:26Z</time>
      </trkpt>
      <trkpt lat="46.30812" lon="2.83509">
        <ele>350.7</ele>
        <time>2019-11-01T10:09:27Z</time>
      </trkpt>
      <trkpt lat="46.30813" lon="2.83512">
        <ele>350.8</ele>
        <time>2019-11-01T10:09:28Z</time>
      </trkpt>
      <trkpt lat="46.30813" lon="2.83515">
        <ele>350.8</ele>
        <time>2019-11-01T10:09:29Z</time>
      </trkpt>
      <trkpt lat="46.30813" lon="2.83518">
        <ele>350.9</ele>
        <time>2019-11-01T10:09:30Z</time>
      </trkpt>
      <trkpt lat="46.30814" lon="2.83522">
        <ele>351</ele>
        <time>2019-11-01T10:09:31Z</time>
      </trkpt>
      <trkpt lat="46.30814" lon="2.83526">
        <ele>351</ele>
        <time>2019-11-01T10:09:32Z</time>
      </trkpt>
      <trkpt lat="46.30815" lon="2.83529">
        <ele>351.1</ele>
        <time>2019-11-01T10:09:33Z</time>
      </trkpt>
      <trkpt lat="46.30815" lon="2.83533">
        <ele>351.2</ele>
        <time>2019-11-01T10:09:34Z</time>
      </trkpt>
      <trkpt lat="46.30816" lon="2.83537">
        <ele>351.2</ele>
        <time>2019-11-01T10:09:35Z</time>
      </trkpt>
      <trkpt lat="46.30816" lon="2.83541">
        <ele>351.3</ele>
        <time>2019-11-01T10:09:36Z</time>
      </trkpt>
      <trkpt lat="46.30817" lon="2.83545">
        <ele>351.4</ele>
        <time>2019-11-01T10:09:37Z</time>
      </trkpt>
      <trkpt lat="46.30817" lon="2.83548">
        <ele>351.4</ele>
        <time>2019-11-01T10:09:38Z</time>
      </trkpt>
      <trkpt lat="46.30817" lon="2.83552">
        <ele>351.5</ele>
        <time>2019-11-01T10:09:39Z</time>
      </trkpt>
      <trkpt lat="46.30818" lon="2.83556">
        <ele>351.6</ele>
        <time>2019-11-01T10:09:40Z</time>
      </trkpt>
      <trkpt lat="46.30818" lon="2.8356">
        <ele>351.7</ele>
        <time>2019-11-01T10:09:41Z</time>
      </trkpt>
      <trkpt lat="46.30818" lon="2.83564">
        <ele>351.8</ele>
        <time>2019-11-01T10:09:42Z</time>
      </trkpt>
      <trkpt lat="46.30819" lon="2.83568">
        <ele>351.9</ele>
        <time>2019-11-01T10:09:43Z</time>
      </trkpt>
      <trkpt lat="46.30819" lon="2.83571">
        <ele>351.9</ele>
        <time>2019-11-01T10:09:44Z</time>
      </trkpt>
      <trkpt lat="46.3082" lon="2.83575">
        <ele>352</ele>
        <time>2019-11-01T10:09:45Z</time>
      </trkpt>
      <trkpt lat="46.30821" lon="2.83578">
        <ele>352.1</ele>
        <time>2019-11-01T10:09:46Z</time>
      </trkpt>
      <trkpt lat="46.30822" lon="2.83581">
        <ele>352.2</ele>
        <time>2019-11-01T10:09:47Z</time>
      </trkpt>
      <trkpt lat="46.30822" lon="2.83585">
        <ele>352.4</ele>
        <time>2019-11-01T10:09:48Z</time>
      </trkpt>
      <trkpt lat="46.30822" lon="2.83589">
        <ele>352.4</ele>
        <time>2019-11-01T10:09:49Z</time>
      </trkpt>
      <trkpt lat="46.30823" lon="2.83592">
        <ele>352.5</ele>
        <time>2019-11-01T10:09:50Z</time>
      </trkpt>
      <trkpt lat="46.30823" lon="2.83596">
        <ele>352.6</ele>
        <time>2019-11-01T10:09:51Z</time>
      </trkpt>
      <trkpt lat="46.30823" lon="2.836">
        <ele>352.8</ele>
        <time>2019-11-01T10:09:52Z</time>
      </trkpt>
      <trkpt lat="46.30823" lon="2.83603">
        <ele>352.9</ele>
        <time>2019-11-01T10:09:53Z</time>
      </trkpt>
      <trkpt lat="46.30823" lon="2.83607">
        <ele>353</ele>
        <time>2019-11-01T10:09:54Z</time>
      </trkpt>
      <trkpt lat="46.30823" lon="2.8361">
        <ele>353</ele>
        <time>2019-11-01T10:09:55Z</time>
      </trkpt>
      <trkpt lat="46.30822" lon="2.83614">
        <ele>353.2</ele>
        <time>2019-11-01T10:09:56Z</time>
      </trkpt>
      <trkpt lat="46.30822" lon="2.83618">
        <ele>353.4</ele>
        <time>2019-11-01T10:09:57Z</time>
      </trkpt>
      <trkpt lat="46.30821" lon="2.83621">
        <ele>353.5</ele>
        <time>2019-11-01T10:09:58Z</time>
      </trkpt>
      <trkpt lat="46.3082" lon="2.83625">
        <ele>353.6</ele>
        <time>2019-11-01T10:09:59Z</time>
      </trkpt>
      <trkpt lat="46.30819" lon="2.83629">
        <ele>353.9</ele>
        <time>2019-11-01T10:10:00Z</time>
      </trkpt>
      <trkpt lat="46.30818" lon="2.83632">
        <ele>354</ele>
        <time>2019-11-01T10:10:01Z</time>
      </trkpt>
      <trkpt lat="46.30817" lon="2.83636">
        <ele>354</ele>
        <time>2019-11-01T10:10:02Z</time>
      </trkpt>
      <trkpt lat="46.30816" lon="2.83639">
        <ele>354.3</ele>
        <time>2019-11-01T10:10:03Z</time>
      </trkpt>
      <trkpt lat="46.30815" lon="2.83642">
        <ele>354.4</ele>
        <time>2019-11-01T10:10:04Z</time>
      </trkpt>
      <trkpt lat="46.30814" lon="2.83645">
        <ele>354.5</ele>
        <time>2019-11-01T10:10:05Z</time>
      </trkpt>
      <trkpt lat="46.30813" lon="2.83648">
        <ele>354.7</ele>
        <time>2019-11-01T10:10:06Z</time>
      </trkpt>
      <trkpt lat="46.30812" lon="2.83651">
        <ele>354.8</ele>
        <time>2019-11-01T10:10:07Z</time>
      </trkpt>
      <trkpt lat="46.30811" lon="2.83655">
        <ele>354.9</ele>
        <time>2019-11-01T10:10:08Z</time>
      </trkpt>
      <trkpt lat="46.30809" lon="2.83658">
        <ele>355.2</ele>
        <time>2019-11-01T10:10:09Z</time>
      </trkpt>
      <trkpt lat="46.30808" lon="2.83661">
        <ele>355.2</ele>
        <time>2019-11-01T10:10:10Z</time>
      </trkpt>
      <trkpt lat="46.30807" lon="2.83664">
        <ele>355.4</ele>
        <time>2019-11-01T10:10:11Z</time>
      </trkpt>
      <trkpt lat="46.30805" lon="2.83667">
        <ele>355.6</ele>
        <time>2019-11-01T10:10:12Z</time>
      </trkpt>
      <trkpt lat="46.30804" lon="2.83671">
        <ele>355.9</ele>
        <time>2019-11-01T10:10:13Z</time>
      </trkpt>
      <trkpt lat="46.30803" lon="2.83674">
        <ele>355.9</ele>
        <time>2019-11-01T10:10:14Z</time>
      </trkpt>
      <trkpt lat="46.30802" lon="2.83677">
        <ele>356.1</ele>
        <time>2019-11-01T10:10:15Z</time>
      </trkpt>
      <trkpt lat="46.308" lon="2.83681">
        <ele>356.3</ele>
        <time>2019-11-01T10:10:16Z</time>
      </trkpt>
      <trkpt lat="46.30799" lon="2.83684">
        <ele>356.4</ele>
        <time>2019-11-01T10:10:17Z</time>
      </trkpt>
      <trkpt lat="46.30798" lon="2.83687">
        <ele>356.5</ele>
        <time>2019-11-01T10:10:18Z</time>
      </trkpt>
      <trkpt lat="46.30797" lon="2.83691">
        <ele>356.6</ele>
        <time>2019-11-01T10:10:19Z</time>
      </trkpt>
      <trkpt lat="46.30795" lon="2.83694">
        <ele>356.8</ele>
        <time>2019-11-01T10:10:20Z</time>
      </trkpt>
      <trkpt lat="46.30793" lon="2.83697">
        <ele>356.9</ele>
        <time>2019-11-01T10:10:21Z</time>
      </trkpt>
      <trkpt lat="46.30791" lon="2.837">
        <ele>357</ele>
        <time>2019-11-01T10:10:22Z</time>
      </trkpt>
      <trkpt lat="46.3079" lon="2.83703">
        <ele>357.2</ele>
        <time>2019-11-01T10:10:23Z</time>
      </trkpt>
      <trkpt lat="46.30788" lon="2.83705">
        <ele>357.3</ele>
        <time>2019-11-01T10:10:24Z</time>
      </trkpt>
      <trkpt lat="46.30786" lon="2.83707">
        <ele>357.4</ele>
        <time>2019-11-01T10:10:25Z</time>
      </trkpt>
      <trkpt lat="46.30785" lon="2.8371">
        <ele>357.5</ele>
        <time>2019-11-01T10:10:26Z</time>
      </trkpt>
      <trkpt lat="46.30783" lon="2.83712">
        <ele>357.5</ele>
        <time>2019-11-01T10:10:27Z</time>
      </trkpt>
      <trkpt lat="46.30782" lon="2.83714">
        <ele>357.6</ele>
        <time>2019-11-01T10:10:28Z</time>
      </trkpt>
      <trkpt lat="46.3078" lon="2.83717">
        <ele>357.7</ele>
        <time>2019-11-01T10:10:29Z</time>
      </trkpt>
      <trkpt lat="46.30778" lon="2.83719">
        <ele>357.9</ele>
        <time>2019-11-01T10:10:30Z</time>
      </trkpt>
      <trkpt lat="46.30776" lon="2.83722">
        <ele>357.9</ele>
        <time>2019-11-01T10:10:31Z</time>
      </trkpt>
      <trkpt lat="46.30775" lon="2.83725">
        <ele>358.2</ele>
        <time>2019-11-01T10:10:32Z</time>
      </trkpt>
      <trkpt lat="46.30773" lon="2.83728">
        <ele>358.3</ele>
        <time>2019-11-01T10:10:33Z</time>
      </trkpt>
      <trkpt lat="46.30771" lon="2.83731">
        <ele>358.4</ele>
        <time>2019-11-01T10:10:34Z</time>
      </trkpt>
      <trkpt lat="46.3077" lon="2.83734">
        <ele>358.6</ele>
        <time>2019-11-01T10:10:35Z</time>
      </trkpt>
      <trkpt lat="46.30769" lon="2.83736">
        <ele>358.8</ele>
        <time>2019-11-01T10:10:36Z</time>
      </trkpt>
      <trkpt lat="46.30769" lon="2.83739">
        <ele>358.9</ele>
        <time>2019-11-01T10:10:37Z</time>
      </trkpt>
      <trkpt lat="46.30769" lon="2.83743">
        <ele>359</ele>
        <time>2019-11-01T10:10:38Z</time>
      </trkpt>
      <trkpt lat="46.30768" lon="2.83746">
        <ele>359.2</ele>
        <time>2019-11-01T10:10:39Z</time>
      </trkpt>
      <trkpt lat="46.30768" lon="2.8375">
        <ele>359.4</ele>
        <time>2019-11-01T10:10:40Z</time>
      </trkpt>
      <trkpt lat="46.30768" lon="2.83753">
        <ele>359.5</ele>
        <time>2019-11-01T10:10:41Z</time>
      </trkpt>
      <trkpt lat="46.30768" lon="2.83757">
        <ele>359.7</ele>
        <time>2019-11-01T10:10:42Z</time>
      </trkpt>
      <trkpt lat="46.30768" lon="2.83761">
        <ele>359.8</ele>
        <time>2019-11-01T10:10:43Z</time>
      </trkpt>
      <trkpt lat="46.30769" lon="2.83765">
        <ele>359.8</ele>
        <time>2019-11-01T10:10:44Z</time>
      </trkpt>
      <trkpt lat="46.30769" lon="2.83768">
        <ele>359.9</ele>
        <time>2019-11-01T10:10:45Z</time>
      </trkpt>
      <trkpt lat="46.30769" lon="2.83772">
        <ele>360</ele>
        <time>2019-11-01T10:10:46Z</time>
      </trkpt>
      <trkpt lat="46.30768" lon="2.83776">
        <ele>360.1</ele>
        <time>2019-11-01T10:10:47Z</time>
      </trkpt>
      <trkpt lat="46.30768" lon="2.83779">
        <ele>360.1</ele>
        <time>2019-11-01T10:10:48Z</time>
      </trkpt>
      <trkpt lat="46.30766" lon="2.83782">
        <ele>360.1</ele>
        <time>2019-11-01T10:10:49Z</time>
      </trkpt>
      <trkpt lat="46.30764" lon="2.83785">
        <ele>360.3</ele>
        <time>2019-11-01T10:10:50Z</time>
      </trkpt>
      <trkpt lat="46.30762" lon="2.83787">
        <ele>360.4</ele>
        <time>2019-11-01T10:10:51Z</time>
      </trkpt>
      <trkpt lat="46.3076" lon="2.8379">
        <ele>360.5</ele>
        <time>2019-11-01T10:10:52Z</time>
      </trkpt>
      <trkpt lat="46.30758" lon="2.83792">
        <ele>360.6</ele>
        <time>2019-11-01T10:10:53Z</time>
      </trkpt>
      <trkpt lat="46.30756" lon="2.83794">
        <ele>360.7</ele>
        <time>2019-11-01T10:10:54Z</time>
      </trkpt>
      <trkpt lat="46.30754" lon="2.83797">
        <ele>360.8</ele>
        <time>2019-11-01T10:10:55Z</time>
      </trkpt>
      <trkpt lat="46.30752" lon="2.83799">
        <ele>360.8</ele>
        <time>2019-11-01T10:10:56Z</time>
      </trkpt>
      <trkpt lat="46.3075" lon="2.83802">
        <ele>360.9</ele>
        <time>2019-11-01T10:10:57Z</time>
      </trkpt>
      <trkpt lat="46.30749" lon="2.83805">
        <ele>360.9</ele>
        <time>2019-11-01T10:10:58Z</time>
      </trkpt>
      <trkpt lat="46.30747" lon="2.83809">
        <ele>361</ele>
        <time>2019-11-01T10:10:59Z</time>
      </trkpt>
      <trkpt lat="46.30745" lon="2.83812">
        <ele>361.1</ele>
        <time>2019-11-01T10:11:00Z</time>
      </trkpt>
      <trkpt lat="46.30744" lon="2.83815">
        <ele>361.1</ele>
        <time>2019-11-01T10:11:01Z</time>
      </trkpt>
      <trkpt lat="46.30742" lon="2.83818">
        <ele>361.2</ele>
        <time>2019-11-01T10:11:02Z</time>
      </trkpt>
      <trkpt lat="46.30741" lon="2.83821">
        <ele>361.2</ele>
        <time>2019-11-01T10:11:03Z</time>
      </trkpt>
      <trkpt lat="46.30738" lon="2.83824">
        <ele>361.3</ele>
        <time>2019-11-01T10:11:04Z</time>
      </trkpt>
      <trkpt lat="46.30737" lon="2.83828">
        <ele>361.3</ele>
        <time>2019-11-01T10:11:05Z</time>
      </trkpt>
      <trkpt lat="46.30736" lon="2.83831">
        <ele>361.4</ele>
        <time>2019-11-01T10:11:06Z</time>
      </trkpt>
      <trkpt lat="46.30734" lon="2.83834">
        <ele>361.4</ele>
        <time>2019-11-01T10:11:07Z</time>
      </trkpt>
      <trkpt lat="46.30732" lon="2.83837">
        <ele>361.5</ele>
        <time>2019-11-01T10:11:08Z</time>
      </trkpt>
      <trkpt lat="46.30731" lon="2.8384">
        <ele>361.6</ele>
        <time>2019-11-01T10:11:09Z</time>
      </trkpt>
      <trkpt lat="46.30728" lon="2.83844">
        <ele>361.7</ele>
        <time>2019-11-01T10:11:10Z</time>
      </trkpt>
      <trkpt lat="46.30727" lon="2.83847">
        <ele>361.8</ele>
        <time>2019-11-01T10:11:11Z</time>
      </trkpt>
      <trkpt lat="46.30725" lon="2.8385">
        <ele>361.8</ele>
        <time>2019-11-01T10:11:12Z</time>
      </trkpt>
      <trkpt lat="46.30724" lon="2.83854">
        <ele>362</ele>
        <time>2019-11-01T10:11:22Z</time>
      </trkpt>
      <trkpt lat="46.30722" lon="2.83858">
        <ele>362.1</ele>
        <time>2019-11-01T10:11:23Z</time>
      </trkpt>
      <trkpt lat="46.3072" lon="2.83861">
        <ele>362.2</ele>
        <time>2019-11-01T10:11:24Z</time>
      </trkpt>
      <trkpt lat="46.30719" lon="2.83864">
        <ele>362.3</ele>
        <time>2019-11-01T10:11:25Z</time>
      </trkpt>
      <trkpt lat="46.30717" lon="2.83867">
        <ele>362.4</ele>
        <time>2019-11-01T10:11:26Z</time>
      </trkpt>
      <trkpt lat="46.30716" lon="2.83871">
        <ele>362.6</ele>
        <time>2019-11-01T10:11:27Z</time>
      </trkpt>
      <trkpt lat="46.30714" lon="2.83874">
        <ele>362.7</ele>
        <time>2019-11-01T10:11:28Z</time>
      </trkpt>
      <trkpt lat="46.30713" lon="2.83877">
        <ele>362.8</ele>
        <time>2019-11-01T10:11:29Z</time>
      </trkpt>
      <trkpt lat="46.30712" lon="2.8388">
        <ele>362.8</ele>
        <time>2019-11-01T10:11:30Z</time>
      </trkpt>
      <trkpt lat="46.30712" lon="2.83884">
        <ele>362.9</ele>
        <time>2019-11-01T10:11:31Z</time>
      </trkpt>
      <trkpt lat="46.30712" lon="2.83888">
        <ele>363</ele>
        <time>2019-11-01T10:11:32Z</time>
      </trkpt>
      <trkpt lat="46.30712" lon="2.83892">
        <ele>363.2</ele>
        <time>2019-11-01T10:11:33Z</time>
      </trkpt>
      <trkpt lat="46.30713" lon="2.83895">
        <ele>363.3</ele>
        <time>2019-11-01T10:11:34Z</time>
      </trkpt>
      <trkpt lat="46.30713" lon="2.83899">
        <ele>363.4</ele>
        <time>2019-11-01T10:11:35Z</time>
      </trkpt>
      <trkpt lat="46.30713" lon="2.83905">
        <ele>363.5</ele>
        <time>2019-11-01T10:11:36Z</time>
      </trkpt>
      <trkpt lat="46.30712" lon="2.83909">
        <ele>363.6</ele>
        <time>2019-11-01T10:11:37Z</time>
      </trkpt>
      <trkpt lat="46.30713" lon="2.83913">
        <ele>363.7</ele>
        <time>2019-11-01T10:11:38Z</time>
      </trkpt>
      <trkpt lat="46.30712" lon="2.83918">
        <ele>363.8</ele>
        <time>2019-11-01T10:11:39Z</time>
      </trkpt>
      <trkpt lat="46.30712" lon="2.83922">
        <ele>363.9</ele>
        <time>2019-11-01T10:11:40Z</time>
      </trkpt>
      <trkpt lat="46.30712" lon="2.83928">
        <ele>364</ele>
        <time>2019-11-01T10:11:41Z</time>
      </trkpt>
      <trkpt lat="46.30712" lon="2.83933">
        <ele>364.1</ele>
        <time>2019-11-01T10:11:42Z</time>
      </trkpt>
      <trkpt lat="46.30712" lon="2.83937">
        <ele>364.2</ele>
        <time>2019-11-01T10:11:43Z</time>
      </trkpt>
      <trkpt lat="46.30712" lon="2.83942">
        <ele>364.3</ele>
        <time>2019-11-01T10:11:44Z</time>
      </trkpt>
      <trkpt lat="46.30712" lon="2.83947">
        <ele>364.5</ele>
        <time>2019-11-01T10:11:45Z</time>
      </trkpt>
      <trkpt lat="46.30712" lon="2.83951">
        <ele>364.6</ele>
        <time>2019-11-01T10:11:46Z</time>
      </trkpt>
      <trkpt lat="46.30712" lon="2.83956">
        <ele>364.7</ele>
        <time>2019-11-01T10:11:47Z</time>
      </trkpt>
      <trkpt lat="46.30712" lon="2.83961">
        <ele>364.8</ele>
        <time>2019-11-01T10:11:48Z</time>
      </trkpt>
      <trkpt lat="46.30713" lon="2.83965">
        <ele>364.9</ele>
        <time>2019-11-01T10:11:49Z</time>
      </trkpt>
      <trkpt lat="46.30713" lon="2.8397">
        <ele>365</ele>
        <time>2019-11-01T10:11:50Z</time>
      </trkpt>
      <trkpt lat="46.30712" lon="2.83974">
        <ele>365.2</ele>
        <time>2019-11-01T10:11:51Z</time>
      </trkpt>
      <trkpt lat="46.30712" lon="2.83979">
        <ele>365.3</ele>
        <time>2019-11-01T10:11:52Z</time>
      </trkpt>
      <trkpt lat="46.30712" lon="2.83984">
        <ele>365.4</ele>
        <time>2019-11-01T10:11:53Z</time>
      </trkpt>
      <trkpt lat="46.30712" lon="2.83988">
        <ele>365.7</ele>
        <time>2019-11-01T10:11:54Z</time>
      </trkpt>
      <trkpt lat="46.30712" lon="2.83993">
        <ele>365.8</ele>
        <time>2019-11-01T10:11:55Z</time>
      </trkpt>
      <trkpt lat="46.30712" lon="2.83998">
        <ele>366</ele>
        <time>2019-11-01T10:11:56Z</time>
      </trkpt>
      <trkpt lat="46.30712" lon="2.84002">
        <ele>366.1</ele>
        <time>2019-11-01T10:11:57Z</time>
      </trkpt>
      <trkpt lat="46.30712" lon="2.84007">
        <ele>366.2</ele>
        <time>2019-11-01T10:11:58Z</time>
      </trkpt>
      <trkpt lat="46.30712" lon="2.84011">
        <ele>366.4</ele>
        <time>2019-11-01T10:11:59Z</time>
      </trkpt>
      <trkpt lat="46.30712" lon="2.84016">
        <ele>366.5</ele>
        <time>2019-11-01T10:12:00Z</time>
      </trkpt>
      <trkpt lat="46.30712" lon="2.84021">
        <ele>366.6</ele>
        <time>2019-11-01T10:12:01Z</time>
      </trkpt>
      <trkpt lat="46.30711" lon="2.84026">
        <ele>366.8</ele>
        <time>2019-11-01T10:12:02Z</time>
      </trkpt>
      <trkpt lat="46.30711" lon="2.84031">
        <ele>367.1</ele>
        <time>2019-11-01T10:12:03Z</time>
      </trkpt>
      <trkpt lat="46.30711" lon="2.84036">
        <ele>367.3</ele>
        <time>2019-11-01T10:12:04Z</time>
      </trkpt>
      <trkpt lat="46.30711" lon="2.8404">
        <ele>367.4</ele>
        <time>2019-11-01T10:12:05Z</time>
      </trkpt>
      <trkpt lat="46.30711" lon="2.84045">
        <ele>367.6</ele>
        <time>2019-11-01T10:12:06Z</time>
      </trkpt>
      <trkpt lat="46.30712" lon="2.8405">
        <ele>367.7</ele>
        <time>2019-11-01T10:12:07Z</time>
      </trkpt>
      <trkpt lat="46.30712" lon="2.84054">
        <ele>367.8</ele>
        <time>2019-11-01T10:12:08Z</time>
      </trkpt>
      <trkpt lat="46.30712" lon="2.84058">
        <ele>368</ele>
        <time>2019-11-01T10:12:09Z</time>
      </trkpt>
      <trkpt lat="46.30712" lon="2.84062">
        <ele>368.2</ele>
        <time>2019-11-01T10:12:10Z</time>
      </trkpt>
      <trkpt lat="46.30712" lon="2.84066">
        <ele>368.3</ele>
        <time>2019-11-01T10:12:11Z</time>
      </trkpt>
      <trkpt lat="46.30713" lon="2.84069">
        <ele>368.3</ele>
        <time>2019-11-01T10:12:12Z</time>
      </trkpt>
      <trkpt lat="46.30713" lon="2.84074">
        <ele>368.5</ele>
        <time>2019-11-01T10:12:13Z</time>
      </trkpt>
      <trkpt lat="46.30714" lon="2.84078">
        <ele>368.7</ele>
        <time>2019-11-01T10:12:14Z</time>
      </trkpt>
      <trkpt lat="46.30714" lon="2.84082">
        <ele>368.7</ele>
        <time>2019-11-01T10:12:15Z</time>
      </trkpt>
      <trkpt lat="46.30715" lon="2.84087">
        <ele>368.9</ele>
        <time>2019-11-01T10:12:16Z</time>
      </trkpt>
      <trkpt lat="46.30715" lon="2.84091">
        <ele>369.3</ele>
        <time>2019-11-01T10:12:17Z</time>
      </trkpt>
      <trkpt lat="46.30716" lon="2.84096">
        <ele>369.4</ele>
        <time>2019-11-01T10:12:18Z</time>
      </trkpt>
      <trkpt lat="46.30716" lon="2.841">
        <ele>369.3</ele>
        <time>2019-11-01T10:12:19Z</time>
      </trkpt>
      <trkpt lat="46.30717" lon="2.84105">
        <ele>369.4</ele>
        <time>2019-11-01T10:12:20Z</time>
      </trkpt>
      <trkpt lat="46.30717" lon="2.8411">
        <ele>369.4</ele>
        <time>2019-11-01T10:12:21Z</time>
      </trkpt>
      <trkpt lat="46.30718" lon="2.84115">
        <ele>369.5</ele>
        <time>2019-11-01T10:12:22Z</time>
      </trkpt>
      <trkpt lat="46.30718" lon="2.84119">
        <ele>369.6</ele>
        <time>2019-11-01T10:12:23Z</time>
      </trkpt>
      <trkpt lat="46.30718" lon="2.84122">
        <ele>369.6</ele>
        <time>2019-11-01T10:12:24Z</time>
      </trkpt>
      <trkpt lat="46.30718" lon="2.84126">
        <ele>369.7</ele>
        <time>2019-11-01T10:12:25Z</time>
      </trkpt>
      <trkpt lat="46.30718" lon="2.84129">
        <ele>369.7</ele>
        <time>2019-11-01T10:12:26Z</time>
      </trkpt>
      <trkpt lat="46.30718" lon="2.84132">
        <ele>369.7</ele>
        <time>2019-11-01T10:12:27Z</time>
      </trkpt>
      <trkpt lat="46.30717" lon="2.84135">
        <ele>369.8</ele>
        <time>2019-11-01T10:12:28Z</time>
      </trkpt>
      <trkpt lat="46.30717" lon="2.84137">
        <ele>369.9</ele>
        <time>2019-11-01T10:12:29Z</time>
      </trkpt>
      <trkpt lat="46.30717" lon="2.84138">
        <ele>370</ele>
        <time>2019-11-01T10:12:30Z</time>
      </trkpt>
      <trkpt lat="46.30714" lon="2.84138">
        <ele>370.2</ele>
        <time>2019-11-01T10:12:31Z</time>
      </trkpt>
      <trkpt lat="46.30713" lon="2.84138">
        <ele>370.2</ele>
        <time>2019-11-01T10:12:32Z</time>
      </trkpt>
      <trkpt lat="46.30711" lon="2.84138">
        <ele>370.3</ele>
        <time>2019-11-01T10:12:33Z</time>
      </trkpt>
      <trkpt lat="46.3071" lon="2.84138">
        <ele>370.4</ele>
        <time>2019-11-01T10:12:34Z</time>
      </trkpt>
      <trkpt lat="46.30708" lon="2.84139">
        <ele>370.6</ele>
        <time>2019-11-01T10:12:35Z</time>
      </trkpt>
      <trkpt lat="46.30707" lon="2.8414">
        <ele>370.7</ele>
        <time>2019-11-01T10:12:36Z</time>
      </trkpt>
      <trkpt lat="46.30705" lon="2.84141">
        <ele>370.9</ele>
        <time>2019-11-01T10:12:37Z</time>
      </trkpt>
      <trkpt lat="46.30703" lon="2.84141">
        <ele>371.2</ele>
        <time>2019-11-01T10:12:38Z</time>
      </trkpt>
      <trkpt lat="46.30701" lon="2.84141">
        <ele>371.4</ele>
        <time>2019-11-01T10:12:39Z</time>
      </trkpt>
      <trkpt lat="46.30699" lon="2.84141">
        <ele>371.6</ele>
        <time>2019-11-01T10:12:40Z</time>
      </trkpt>
      <trkpt lat="46.30697" lon="2.84141">
        <ele>371.8</ele>
        <time>2019-11-01T10:12:41Z</time>
      </trkpt>
      <trkpt lat="46.30695" lon="2.84141">
        <ele>371.9</ele>
        <time>2019-11-01T10:12:42Z</time>
      </trkpt>
      <trkpt lat="46.30693" lon="2.84141">
        <ele>372.2</ele>
        <time>2019-11-01T10:12:43Z</time>
      </trkpt>
      <trkpt lat="46.30691" lon="2.84141">
        <ele>372.4</ele>
        <time>2019-11-01T10:12:44Z</time>
      </trkpt>
      <trkpt lat="46.30689" lon="2.84141">
        <ele>372.6</ele>
        <time>2019-11-01T10:12:45Z</time>
      </trkpt>
      <trkpt lat="46.30686" lon="2.84142">
        <ele>372.8</ele>
        <time>2019-11-01T10:12:46Z</time>
      </trkpt>
      <trkpt lat="46.30684" lon="2.84142">
        <ele>373.1</ele>
        <time>2019-11-01T10:12:47Z</time>
      </trkpt>
      <trkpt lat="46.30682" lon="2.84142">
        <ele>373.3</ele>
        <time>2019-11-01T10:12:48Z</time>
      </trkpt>
      <trkpt lat="46.30679" lon="2.84142">
        <ele>373.6</ele>
        <time>2019-11-01T10:12:49Z</time>
      </trkpt>
      <trkpt lat="46.30677" lon="2.84143">
        <ele>373.8</ele>
        <time>2019-11-01T10:12:50Z</time>
      </trkpt>
      <trkpt lat="46.30674" lon="2.84143">
        <ele>374</ele>
        <time>2019-11-01T10:12:51Z</time>
      </trkpt>
      <trkpt lat="46.30672" lon="2.84143">
        <ele>374.2</ele>
        <time>2019-11-01T10:12:52Z</time>
      </trkpt>
      <trkpt lat="46.30669" lon="2.84144">
        <ele>374.4</ele>
        <time>2019-11-01T10:12:53Z</time>
      </trkpt>
      <trkpt lat="46.30667" lon="2.84144">
        <ele>374.6</ele>
        <time>2019-11-01T10:12:54Z</time>
      </trkpt>
      <trkpt lat="46.30664" lon="2.84145">
        <ele>374.8</ele>
        <time>2019-11-01T10:12:55Z</time>
      </trkpt>
      <trkpt lat="46.30662" lon="2.84145">
        <ele>375</ele>
        <time>2019-11-01T10:12:56Z</time>
      </trkpt>
      <trkpt lat="46.30659" lon="2.84146">
        <ele>375.3</ele>
        <time>2019-11-01T10:12:57Z</time>
      </trkpt>
      <trkpt lat="46.30657" lon="2.84146">
        <ele>375.6</ele>
        <time>2019-11-01T10:12:58Z</time>
      </trkpt>
      <trkpt lat="46.30654" lon="2.84147">
        <ele>375.9</ele>
        <time>2019-11-01T10:12:59Z</time>
      </trkpt>
      <trkpt lat="46.30651" lon="2.84147">
        <ele>376.2</ele>
        <time>2019-11-01T10:13:00Z</time>
      </trkpt>
      <trkpt lat="46.30649" lon="2.84147">
        <ele>376.6</ele>
        <time>2019-11-01T10:13:01Z</time>
      </trkpt>
      <trkpt lat="46.30646" lon="2.84148">
        <ele>377</ele>
        <time>2019-11-01T10:13:02Z</time>
      </trkpt>
      <trkpt lat="46.30643" lon="2.84148">
        <ele>377.4</ele>
        <time>2019-11-01T10:13:03Z</time>
      </trkpt>
      <trkpt lat="46.30641" lon="2.84149">
        <ele>377.7</ele>
        <time>2019-11-01T10:13:04Z</time>
      </trkpt>
      <trkpt lat="46.30638" lon="2.8415">
        <ele>378.1</ele>
        <time>2019-11-01T10:13:17Z</time>
      </trkpt>
      <trkpt lat="46.30635" lon="2.84151">
        <ele>378.4</ele>
        <time>2019-11-01T10:13:18Z</time>
      </trkpt>
      <trkpt lat="46.30633" lon="2.84151">
        <ele>378.6</ele>
        <time>2019-11-01T10:13:19Z</time>
      </trkpt>
      <trkpt lat="46.3063" lon="2.84152">
        <ele>378.8</ele>
        <time>2019-11-01T10:13:20Z</time>
      </trkpt>
      <trkpt lat="46.30628" lon="2.84153">
        <ele>378.9</ele>
        <time>2019-11-01T10:13:21Z</time>
      </trkpt>
      <trkpt lat="46.30625" lon="2.84153">
        <ele>379.1</ele>
        <time>2019-11-01T10:13:22Z</time>
      </trkpt>
      <trkpt lat="46.30623" lon="2.84154">
        <ele>379.2</ele>
        <time>2019-11-01T10:13:23Z</time>
      </trkpt>
      <trkpt lat="46.30621" lon="2.84155">
        <ele>379.4</ele>
        <time>2019-11-01T10:13:24Z</time>
      </trkpt>
      <trkpt lat="46.30618" lon="2.84156">
        <ele>379.6</ele>
        <time>2019-11-01T10:13:25Z</time>
      </trkpt>
      <trkpt lat="46.30616" lon="2.84157">
        <ele>379.8</ele>
        <time>2019-11-01T10:13:26Z</time>
      </trkpt>
      <trkpt lat="46.30613" lon="2.84158">
        <ele>380.1</ele>
        <time>2019-11-01T10:13:27Z</time>
      </trkpt>
      <trkpt lat="46.30611" lon="2.8416">
        <ele>380.3</ele>
        <time>2019-11-01T10:13:28Z</time>
      </trkpt>
      <trkpt lat="46.30609" lon="2.84162">
        <ele>380.6</ele>
        <time>2019-11-01T10:13:29Z</time>
      </trkpt>
      <trkpt lat="46.30607" lon="2.84164">
        <ele>380.8</ele>
        <time>2019-11-01T10:13:30Z</time>
      </trkpt>
      <trkpt lat="46.30604" lon="2.84166">
        <ele>381</ele>
        <time>2019-11-01T10:13:31Z</time>
      </trkpt>
      <trkpt lat="46.30602" lon="2.84168">
        <ele>381.2</ele>
        <time>2019-11-01T10:13:32Z</time>
      </trkpt>
      <trkpt lat="46.30599" lon="2.84169">
        <ele>381.5</ele>
        <time>2019-11-01T10:13:33Z</time>
      </trkpt>
      <trkpt lat="46.30596" lon="2.84171">
        <ele>381.7</ele>
        <time>2019-11-01T10:13:34Z</time>
      </trkpt>
      <trkpt lat="46.30593" lon="2.84173">
        <ele>381.9</ele>
        <time>2019-11-01T10:13:35Z</time>
      </trkpt>
      <trkpt lat="46.30591" lon="2.84174">
        <ele>382</ele>
        <time>2019-11-01T10:13:36Z</time>
      </trkpt>
      <trkpt lat="46.30588" lon="2.84176">
        <ele>382.2</ele>
        <time>2019-11-01T10:13:37Z</time>
      </trkpt>
      <trkpt lat="46.30585" lon="2.84177">
        <ele>382.4</ele>
        <time>2019-11-01T10:13:38Z</time>
      </trkpt>
      <trkpt lat="46.30582" lon="2.84177">
        <ele>382.6</ele>
        <time>2019-11-01T10:13:39Z</time>
      </trkpt>
      <trkpt lat="46.30579" lon="2.84178">
        <ele>382.7</ele>
        <time>2019-11-01T10:13:40Z</time>
      </trkpt>
      <trkpt lat="46.30577" lon="2.84179">
        <ele>383</ele>
        <time>2019-11-01T10:13:41Z</time>
      </trkpt>
      <trkpt lat="46.30575" lon="2.84181">
        <ele>383.2</ele>
        <time>2019-11-01T10:13:42Z</time>
      </trkpt>
      <trkpt lat="46.30572" lon="2.84182">
        <ele>383.3</ele>
        <time>2019-11-01T10:13:43Z</time>
      </trkpt>
      <trkpt lat="46.3057" lon="2.84184">
        <ele>383.5</ele>
        <time>2019-11-01T10:13:44Z</time>
      </trkpt>
      <trkpt lat="46.30568" lon="2.84185">
        <ele>383.6</ele>
        <time>2019-11-01T10:13:45Z</time>
      </trkpt>
      <trkpt lat="46.30565" lon="2.84186">
        <ele>383.7</ele>
        <time>2019-11-01T10:13:46Z</time>
      </trkpt>
      <trkpt lat="46.30563" lon="2.84188">
        <ele>383.9</ele>
        <time>2019-11-01T10:13:47Z</time>
      </trkpt>
      <trkpt lat="46.30561" lon="2.84189">
        <ele>384</ele>
        <time>2019-11-01T10:13:48Z</time>
      </trkpt>
      <trkpt lat="46.30559" lon="2.84191">
        <ele>384.1</ele>
        <time>2019-11-01T10:13:49Z</time>
      </trkpt>
      <trkpt lat="46.30556" lon="2.84192">
        <ele>384.3</ele>
        <time>2019-11-01T10:13:50Z</time>
      </trkpt>
      <trkpt lat="46.30554" lon="2.84194">
        <ele>384.4</ele>
        <time>2019-11-01T10:13:51Z</time>
      </trkpt>
      <trkpt lat="46.30552" lon="2.84195">
        <ele>384.5</ele>
        <time>2019-11-01T10:13:52Z</time>
      </trkpt>
      <trkpt lat="46.30549" lon="2.84196">
        <ele>384.6</ele>
        <time>2019-11-01T10:13:53Z</time>
      </trkpt>
      <trkpt lat="46.30547" lon="2.84198">
        <ele>384.8</ele>
        <time>2019-11-01T10:13:54Z</time>
      </trkpt>
      <trkpt lat="46.30544" lon="2.84199">
        <ele>384.9</ele>
        <time>2019-11-01T10:13:55Z</time>
      </trkpt>
      <trkpt lat="46.30542" lon="2.842">
        <ele>385</ele>
        <time>2019-11-01T10:13:56Z</time>
      </trkpt>
      <trkpt lat="46.30539" lon="2.84201">
        <ele>385.2</ele>
        <time>2019-11-01T10:13:57Z</time>
      </trkpt>
      <trkpt lat="46.30536" lon="2.84203">
        <ele>385.3</ele>
        <time>2019-11-01T10:13:58Z</time>
      </trkpt>
      <trkpt lat="46.30534" lon="2.84205">
        <ele>385.5</ele>
        <time>2019-11-01T10:13:59Z</time>
      </trkpt>
      <trkpt lat="46.30531" lon="2.84207">
        <ele>385.6</ele>
        <time>2019-11-01T10:14:00Z</time>
      </trkpt>
      <trkpt lat="46.30529" lon="2.84209">
        <ele>385.7</ele>
        <time>2019-11-01T10:14:01Z</time>
      </trkpt>
      <trkpt lat="46.30526" lon="2.84211">
        <ele>385.9</ele>
        <time>2019-11-01T10:14:02Z</time>
      </trkpt>
      <trkpt lat="46.30523" lon="2.84213">
        <ele>386.1</ele>
        <time>2019-11-01T10:14:03Z</time>
      </trkpt>
      <trkpt lat="46.30521" lon="2.84215">
        <ele>386.3</ele>
        <time>2019-11-01T10:14:04Z</time>
      </trkpt>
      <trkpt lat="46.30518" lon="2.84217">
        <ele>386.6</ele>
        <time>2019-11-01T10:14:05Z</time>
      </trkpt>
      <trkpt lat="46.30515" lon="2.84219">
        <ele>386.8</ele>
        <time>2019-11-01T10:14:06Z</time>
      </trkpt>
      <trkpt lat="46.30512" lon="2.84221">
        <ele>387.1</ele>
        <time>2019-11-01T10:14:07Z</time>
      </trkpt>
      <trkpt lat="46.3051" lon="2.84223">
        <ele>387.3</ele>
        <time>2019-11-01T10:14:08Z</time>
      </trkpt>
      <trkpt lat="46.30507" lon="2.84225">
        <ele>387.6</ele>
        <time>2019-11-01T10:14:09Z</time>
      </trkpt>
      <trkpt lat="46.30505" lon="2.84228">
        <ele>387.9</ele>
        <time>2019-11-01T10:14:10Z</time>
      </trkpt>
      <trkpt lat="46.30502" lon="2.8423">
        <ele>388.2</ele>
        <time>2019-11-01T10:14:11Z</time>
      </trkpt>
      <trkpt lat="46.305" lon="2.84232">
        <ele>388.4</ele>
        <time>2019-11-01T10:14:12Z</time>
      </trkpt>
      <trkpt lat="46.30497" lon="2.84234">
        <ele>388.6</ele>
        <time>2019-11-01T10:14:13Z</time>
      </trkpt>
      <trkpt lat="46.30495" lon="2.84236">
        <ele>388.8</ele>
        <time>2019-11-01T10:14:14Z</time>
      </trkpt>
      <trkpt lat="46.30492" lon="2.84238">
        <ele>389</ele>
        <time>2019-11-01T10:14:15Z</time>
      </trkpt>
      <trkpt lat="46.3049" lon="2.8424">
        <ele>389.2</ele>
        <time>2019-11-01T10:14:16Z</time>
      </trkpt>
      <trkpt lat="46.30487" lon="2.84242">
        <ele>389.5</ele>
        <time>2019-11-01T10:14:17Z</time>
      </trkpt>
      <trkpt lat="46.30485" lon="2.84244">
        <ele>389.7</ele>
        <time>2019-11-01T10:14:18Z</time>
      </trkpt>
      <trkpt lat="46.30483" lon="2.84246">
        <ele>390</ele>
        <time>2019-11-01T10:14:19Z</time>
      </trkpt>
      <trkpt lat="46.30481" lon="2.84248">
        <ele>390.2</ele>
        <time>2019-11-01T10:14:20Z</time>
      </trkpt>
      <trkpt lat="46.30479" lon="2.8425">
        <ele>390.4</ele>
        <time>2019-11-01T10:14:21Z</time>
      </trkpt>
      <trkpt lat="46.30477" lon="2.84252">
        <ele>390.7</ele>
        <time>2019-11-01T10:14:22Z</time>
      </trkpt>
      <trkpt lat="46.30475" lon="2.84253">
        <ele>390.9</ele>
        <time>2019-11-01T10:14:23Z</time>
      </trkpt>
      <trkpt lat="46.30473" lon="2.84254">
        <ele>391.6</ele>
        <time>2019-11-01T10:14:24Z</time>
      </trkpt>
      <trkpt lat="46.30472" lon="2.84255">
        <ele>391.6</ele>
        <time>2019-11-01T10:14:25Z</time>
      </trkpt>
      <trkpt lat="46.30469" lon="2.84253">
        <ele>391.6</ele>
        <time>2019-11-01T10:14:26Z</time>
      </trkpt>
      <trkpt lat="46.30468" lon="2.84253">
        <ele>391.6</ele>
        <time>2019-11-01T10:14:27Z</time>
      </trkpt>
      <trkpt lat="46.30467" lon="2.84251">
        <ele>391.6</ele>
        <time>2019-11-01T10:14:28Z</time>
      </trkpt>
      <trkpt lat="46.30466" lon="2.84248">
        <ele>391.9</ele>
        <time>2019-11-01T10:14:29Z</time>
      </trkpt>
      <trkpt lat="46.30465" lon="2.84244">
        <ele>391.8</ele>
        <time>2019-11-01T10:14:30Z</time>
      </trkpt>
      <trkpt lat="46.30464" lon="2.84241">
        <ele>391.8</ele>
        <time>2019-11-01T10:14:31Z</time>
      </trkpt>
      <trkpt lat="46.30463" lon="2.84238">
        <ele>392</ele>
        <time>2019-11-01T10:14:32Z</time>
      </trkpt>
      <trkpt lat="46.30462" lon="2.84234">
        <ele>391.9</ele>
        <time>2019-11-01T10:14:33Z</time>
      </trkpt>
      <trkpt lat="46.3046" lon="2.8423">
        <ele>392</ele>
        <time>2019-11-01T10:14:34Z</time>
      </trkpt>
      <trkpt lat="46.3046" lon="2.84226">
        <ele>391.9</ele>
        <time>2019-11-01T10:14:35Z</time>
      </trkpt>
      <trkpt lat="46.30459" lon="2.84222">
        <ele>391.7</ele>
        <time>2019-11-01T10:14:36Z</time>
      </trkpt>
      <trkpt lat="46.30457" lon="2.84218">
        <ele>391.8</ele>
        <time>2019-11-01T10:14:37Z</time>
      </trkpt>
      <trkpt lat="46.30456" lon="2.84214">
        <ele>391.6</ele>
        <time>2019-11-01T10:14:38Z</time>
      </trkpt>
      <trkpt lat="46.30455" lon="2.8421">
        <ele>391.5</ele>
        <time>2019-11-01T10:14:39Z</time>
      </trkpt>
      <trkpt lat="46.30454" lon="2.84206">
        <ele>391.6</ele>
        <time>2019-11-01T10:14:40Z</time>
      </trkpt>
      <trkpt lat="46.30453" lon="2.84202">
        <ele>391.4</ele>
        <time>2019-11-01T10:14:41Z</time>
      </trkpt>
      <trkpt lat="46.30452" lon="2.84198">
        <ele>391.7</ele>
        <time>2019-11-01T10:14:42Z</time>
      </trkpt>
      <trkpt lat="46.30451" lon="2.84195">
        <ele>391.5</ele>
        <time>2019-11-01T10:14:43Z</time>
      </trkpt>
      <trkpt lat="46.3045" lon="2.84191">
        <ele>391.4</ele>
        <time>2019-11-01T10:14:44Z</time>
      </trkpt>
      <trkpt lat="46.30449" lon="2.84188">
        <ele>391.5</ele>
        <time>2019-11-01T10:14:45Z</time>
      </trkpt>
      <trkpt lat="46.30448" lon="2.84184">
        <ele>391.3</ele>
        <time>2019-11-01T10:14:46Z</time>
      </trkpt>
      <trkpt lat="46.30447" lon="2.84179">
        <ele>391.1</ele>
        <time>2019-11-01T10:14:47Z</time>
      </trkpt>
      <trkpt lat="46.30446" lon="2.84175">
        <ele>391.2</ele>
        <time>2019-11-01T10:14:48Z</time>
      </trkpt>
      <trkpt lat="46.30445" lon="2.8417">
        <ele>391</ele>
        <time>2019-11-01T10:14:49Z</time>
      </trkpt>
      <trkpt lat="46.30444" lon="2.84166">
        <ele>390.7</ele>
        <time>2019-11-01T10:14:50Z</time>
      </trkpt>
      <trkpt lat="46.30443" lon="2.84161">
        <ele>390.8</ele>
        <time>2019-11-01T10:14:51Z</time>
      </trkpt>
      <trkpt lat="46.30442" lon="2.84157">
        <ele>390.6</ele>
        <time>2019-11-01T10:14:52Z</time>
      </trkpt>
      <trkpt lat="46.30441" lon="2.84153">
        <ele>390.3</ele>
        <time>2019-11-01T10:14:53Z</time>
      </trkpt>
      <trkpt lat="46.3044" lon="2.84149">
        <ele>390.1</ele>
        <time>2019-11-01T10:14:54Z</time>
      </trkpt>
      <trkpt lat="46.30439" lon="2.84144">
        <ele>390.2</ele>
        <time>2019-11-01T10:14:55Z</time>
      </trkpt>
      <trkpt lat="46.30438" lon="2.8414">
        <ele>389.9</ele>
        <time>2019-11-01T10:14:56Z</time>
      </trkpt>
      <trkpt lat="46.30437" lon="2.84136">
        <ele>389.7</ele>
        <time>2019-11-01T10:14:57Z</time>
      </trkpt>
      <trkpt lat="46.30436" lon="2.84132">
        <ele>389.7</ele>
        <time>2019-11-01T10:14:58Z</time>
      </trkpt>
      <trkpt lat="46.30435" lon="2.84128">
        <ele>389.4</ele>
        <time>2019-11-01T10:14:59Z</time>
      </trkpt>
      <trkpt lat="46.30433" lon="2.84124">
        <ele>389.5</ele>
        <time>2019-11-01T10:15:00Z</time>
      </trkpt>
      <trkpt lat="46.30432" lon="2.8412">
        <ele>389.3</ele>
        <time>2019-11-01T10:15:01Z</time>
      </trkpt>
      <trkpt lat="46.3043" lon="2.84116">
        <ele>389.4</ele>
        <time>2019-11-01T10:15:02Z</time>
      </trkpt>
      <trkpt lat="46.30429" lon="2.84113">
        <ele>389.4</ele>
        <time>2019-11-01T10:15:03Z</time>
      </trkpt>
      <trkpt lat="46.30427" lon="2.84109">
        <ele>389.5</ele>
        <time>2019-11-01T10:15:04Z</time>
      </trkpt>
      <trkpt lat="46.30425" lon="2.84106">
        <ele>389.6</ele>
        <time>2019-11-01T10:15:05Z</time>
      </trkpt>
      <trkpt lat="46.30423" lon="2.84103">
        <ele>389.4</ele>
        <time>2019-11-01T10:15:06Z</time>
      </trkpt>
      <trkpt lat="46.30421" lon="2.841">
        <ele>389.7</ele>
        <time>2019-11-01T10:15:07Z</time>
      </trkpt>
      <trkpt lat="46.30419" lon="2.84097">
        <ele>389.8</ele>
        <time>2019-11-01T10:15:08Z</time>
      </trkpt>
      <trkpt lat="46.30417" lon="2.84094">
        <ele>389.6</ele>
        <time>2019-11-01T10:15:09Z</time>
      </trkpt>
      <trkpt lat="46.30415" lon="2.84092">
        <ele>389.9</ele>
        <time>2019-11-01T10:15:10Z</time>
      </trkpt>
      <trkpt lat="46.30412" lon="2.84089">
        <ele>390</ele>
        <time>2019-11-01T10:15:11Z</time>
      </trkpt>
      <trkpt lat="46.3041" lon="2.84086">
        <ele>390.1</ele>
        <time>2019-11-01T10:15:12Z</time>
      </trkpt>
      <trkpt lat="46.30408" lon="2.84083">
        <ele>390.1</ele>
        <time>2019-11-01T10:15:13Z</time>
      </trkpt>
      <trkpt lat="46.30405" lon="2.84081">
        <ele>390.1</ele>
        <time>2019-11-01T10:15:14Z</time>
      </trkpt>
      <trkpt lat="46.30403" lon="2.84078">
        <ele>390.4</ele>
        <time>2019-11-01T10:15:15Z</time>
      </trkpt>
      <trkpt lat="46.304" lon="2.84076">
        <ele>390.4</ele>
        <time>2019-11-01T10:15:16Z</time>
      </trkpt>
      <trkpt lat="46.30398" lon="2.84074">
        <ele>390.5</ele>
        <time>2019-11-01T10:15:17Z</time>
      </trkpt>
      <trkpt lat="46.30395" lon="2.84071">
        <ele>390.8</ele>
        <time>2019-11-01T10:15:18Z</time>
      </trkpt>
      <trkpt lat="46.30392" lon="2.84069">
        <ele>391</ele>
        <time>2019-11-01T10:15:19Z</time>
      </trkpt>
      <trkpt lat="46.30389" lon="2.84067">
        <ele>391.4</ele>
        <time>2019-11-01T10:15:20Z</time>
      </trkpt>
      <trkpt lat="46.30387" lon="2.84064">
        <ele>391.3</ele>
        <time>2019-11-01T10:15:21Z</time>
      </trkpt>
      <trkpt lat="46.30384" lon="2.84062">
        <ele>391.7</ele>
        <time>2019-11-01T10:15:22Z</time>
      </trkpt>
      <trkpt lat="46.30382" lon="2.84059">
        <ele>392</ele>
        <time>2019-11-01T10:15:23Z</time>
      </trkpt>
      <trkpt lat="46.30379" lon="2.84056">
        <ele>392.3</ele>
        <time>2019-11-01T10:15:24Z</time>
      </trkpt>
      <trkpt lat="46.30377" lon="2.84052">
        <ele>392.6</ele>
        <time>2019-11-01T10:15:25Z</time>
      </trkpt>
      <trkpt lat="46.30375" lon="2.84049">
        <ele>392.6</ele>
        <time>2019-11-01T10:15:26Z</time>
      </trkpt>
      <trkpt lat="46.30374" lon="2.84046">
        <ele>393</ele>
        <time>2019-11-01T10:15:27Z</time>
      </trkpt>
      <trkpt lat="46.30372" lon="2.84043">
        <ele>392.9</ele>
        <time>2019-11-01T10:15:28Z</time>
      </trkpt>
      <trkpt lat="46.30371" lon="2.84041">
        <ele>393.3</ele>
        <time>2019-11-01T10:15:29Z</time>
      </trkpt>
      <trkpt lat="46.3037" lon="2.84038">
        <ele>393.2</ele>
        <time>2019-11-01T10:15:30Z</time>
      </trkpt>
      <trkpt lat="46.30369" lon="2.84035">
        <ele>393.4</ele>
        <time>2019-11-01T10:15:31Z</time>
      </trkpt>
      <trkpt lat="46.30368" lon="2.84032">
        <ele>393.4</ele>
        <time>2019-11-01T10:15:32Z</time>
      </trkpt>
      <trkpt lat="46.30367" lon="2.84029">
        <ele>393.3</ele>
        <time>2019-11-01T10:15:33Z</time>
      </trkpt>
      <trkpt lat="46.30366" lon="2.84027">
        <ele>393.5</ele>
        <time>2019-11-01T10:15:34Z</time>
      </trkpt>
      <trkpt lat="46.30365" lon="2.84024">
        <ele>393.5</ele>
        <time>2019-11-01T10:15:35Z</time>
      </trkpt>
      <trkpt lat="46.30364" lon="2.84022">
        <ele>393.3</ele>
        <time>2019-11-01T10:15:36Z</time>
      </trkpt>
      <trkpt lat="46.30362" lon="2.84019">
        <ele>393.6</ele>
        <time>2019-11-01T10:15:37Z</time>
      </trkpt>
      <trkpt lat="46.30361" lon="2.84018">
        <ele>393.4</ele>
        <time>2019-11-01T10:15:38Z</time>
      </trkpt>
      <trkpt lat="46.30359" lon="2.84018">
        <ele>393.8</ele>
        <time>2019-11-01T10:15:39Z</time>
      </trkpt>
      <trkpt lat="46.30357" lon="2.84018">
        <ele>394</ele>
        <time>2019-11-01T10:15:40Z</time>
      </trkpt>
      <trkpt lat="46.30355" lon="2.84018">
        <ele>394</ele>
        <time>2019-11-01T10:15:41Z</time>
      </trkpt>
      <trkpt lat="46.30352" lon="2.84018">
        <ele>394.3</ele>
        <time>2019-11-01T10:15:42Z</time>
      </trkpt>
      <trkpt lat="46.3035" lon="2.84018">
        <ele>394.5</ele>
        <time>2019-11-01T10:15:43Z</time>
      </trkpt>
      <trkpt lat="46.30348" lon="2.84018">
        <ele>394.8</ele>
        <time>2019-11-01T10:15:44Z</time>
      </trkpt>
      <trkpt lat="46.30345" lon="2.84018">
        <ele>394.8</ele>
        <time>2019-11-01T10:15:45Z</time>
      </trkpt>
      <trkpt lat="46.30343" lon="2.84017">
        <ele>395</ele>
        <time>2019-11-01T10:15:46Z</time>
      </trkpt>
      <trkpt lat="46.3034" lon="2.84017">
        <ele>395.2</ele>
        <time>2019-11-01T10:15:47Z</time>
      </trkpt>
      <trkpt lat="46.30337" lon="2.84016">
        <ele>395.4</ele>
        <time>2019-11-01T10:15:48Z</time>
      </trkpt>
      <trkpt lat="46.30335" lon="2.84016">
        <ele>395.6</ele>
        <time>2019-11-01T10:15:49Z</time>
      </trkpt>
      <trkpt lat="46.30332" lon="2.84015">
        <ele>395.8</ele>
        <time>2019-11-01T10:15:50Z</time>
      </trkpt>
      <trkpt lat="46.30329" lon="2.84015">
        <ele>396</ele>
        <time>2019-11-01T10:15:51Z</time>
      </trkpt>
      <trkpt lat="46.30326" lon="2.84014">
        <ele>396.2</ele>
        <time>2019-11-01T10:15:52Z</time>
      </trkpt>
      <trkpt lat="46.30324" lon="2.84014">
        <ele>396.3</ele>
        <time>2019-11-01T10:15:53Z</time>
      </trkpt>
      <trkpt lat="46.30321" lon="2.84013">
        <ele>396.4</ele>
        <time>2019-11-01T10:15:54Z</time>
      </trkpt>
      <trkpt lat="46.30319" lon="2.84012">
        <ele>396.6</ele>
        <time>2019-11-01T10:15:55Z</time>
      </trkpt>
      <trkpt lat="46.30316" lon="2.84012">
        <ele>396.6</ele>
        <time>2019-11-01T10:15:56Z</time>
      </trkpt>
      <trkpt lat="46.30314" lon="2.84011">
        <ele>396.8</ele>
        <time>2019-11-01T10:15:57Z</time>
      </trkpt>
      <trkpt lat="46.30311" lon="2.8401">
        <ele>397</ele>
        <time>2019-11-01T10:15:58Z</time>
      </trkpt>
      <trkpt lat="46.30308" lon="2.8401">
        <ele>397.2</ele>
        <time>2019-11-01T10:15:59Z</time>
      </trkpt>
      <trkpt lat="46.30306" lon="2.84009">
        <ele>397.4</ele>
        <time>2019-11-01T10:16:00Z</time>
      </trkpt>
      <trkpt lat="46.30303" lon="2.84008">
        <ele>397.6</ele>
        <time>2019-11-01T10:16:01Z</time>
      </trkpt>
      <trkpt lat="46.303" lon="2.84008">
        <ele>397.8</ele>
        <time>2019-11-01T10:16:02Z</time>
      </trkpt>
      <trkpt lat="46.30298" lon="2.84007">
        <ele>398</ele>
        <time>2019-11-01T10:16:03Z</time>
      </trkpt>
      <trkpt lat="46.30295" lon="2.84007">
        <ele>398</ele>
        <time>2019-11-01T10:16:04Z</time>
      </trkpt>
      <trkpt lat="46.30292" lon="2.84006">
        <ele>398.2</ele>
        <time>2019-11-01T10:16:05Z</time>
      </trkpt>
      <trkpt lat="46.3029" lon="2.84005">
        <ele>398.3</ele>
        <time>2019-11-01T10:16:06Z</time>
      </trkpt>
      <trkpt lat="46.30287" lon="2.84005">
        <ele>398.3</ele>
        <time>2019-11-01T10:16:07Z</time>
      </trkpt>
      <trkpt lat="46.30284" lon="2.84004">
        <ele>398.5</ele>
        <time>2019-11-01T10:16:08Z</time>
      </trkpt>
      <trkpt lat="46.30281" lon="2.84004">
        <ele>398.6</ele>
        <time>2019-11-01T10:16:09Z</time>
      </trkpt>
      <trkpt lat="46.30279" lon="2.84003">
        <ele>398.7</ele>
        <time>2019-11-01T10:16:10Z</time>
      </trkpt>
      <trkpt lat="46.30276" lon="2.84003">
        <ele>398.8</ele>
        <time>2019-11-01T10:16:11Z</time>
      </trkpt>
      <trkpt lat="46.30274" lon="2.84002">
        <ele>398.9</ele>
        <time>2019-11-01T10:16:12Z</time>
      </trkpt>
      <trkpt lat="46.30271" lon="2.84002">
        <ele>399.1</ele>
        <time>2019-11-01T10:16:13Z</time>
      </trkpt>
      <trkpt lat="46.30268" lon="2.84002">
        <ele>399.1</ele>
        <time>2019-11-01T10:16:14Z</time>
      </trkpt>
      <trkpt lat="46.30266" lon="2.84001">
        <ele>399.2</ele>
        <time>2019-11-01T10:16:15Z</time>
      </trkpt>
      <trkpt lat="46.30264" lon="2.84001">
        <ele>399.3</ele>
        <time>2019-11-01T10:16:16Z</time>
      </trkpt>
      <trkpt lat="46.30262" lon="2.84001">
        <ele>399.4</ele>
        <time>2019-11-01T10:16:17Z</time>
      </trkpt>
      <trkpt lat="46.30259" lon="2.84001">
        <ele>399.5</ele>
        <time>2019-11-01T10:16:18Z</time>
      </trkpt>
      <trkpt lat="46.30257" lon="2.84001">
        <ele>399.5</ele>
        <time>2019-11-01T10:16:19Z</time>
      </trkpt>
      <trkpt lat="46.30255" lon="2.84002">
        <ele>399.7</ele>
        <time>2019-11-01T10:16:20Z</time>
      </trkpt>
      <trkpt lat="46.30252" lon="2.84002">
        <ele>399.8</ele>
        <time>2019-11-01T10:16:21Z</time>
      </trkpt>
      <trkpt lat="46.30249" lon="2.84002">
        <ele>400</ele>
        <time>2019-11-01T10:16:22Z</time>
      </trkpt>
      <trkpt lat="46.30247" lon="2.84002">
        <ele>400.1</ele>
        <time>2019-11-01T10:16:23Z</time>
      </trkpt>
      <trkpt lat="46.30244" lon="2.84001">
        <ele>400.3</ele>
        <time>2019-11-01T10:16:24Z</time>
      </trkpt>
      <trkpt lat="46.30242" lon="2.84001">
        <ele>400.3</ele>
        <time>2019-11-01T10:16:25Z</time>
      </trkpt>
      <trkpt lat="46.30239" lon="2.84001">
        <ele>400.3</ele>
        <time>2019-11-01T10:16:26Z</time>
      </trkpt>
      <trkpt lat="46.30237" lon="2.84001">
        <ele>400.4</ele>
        <time>2019-11-01T10:16:27Z</time>
      </trkpt>
      <trkpt lat="46.30233" lon="2.84">
        <ele>400.5</ele>
        <time>2019-11-01T10:16:28Z</time>
      </trkpt>
      <trkpt lat="46.30231" lon="2.84">
        <ele>400.6</ele>
        <time>2019-11-01T10:16:29Z</time>
      </trkpt>
      <trkpt lat="46.30228" lon="2.84">
        <ele>400.8</ele>
        <time>2019-11-01T10:16:30Z</time>
      </trkpt>
      <trkpt lat="46.30225" lon="2.83999">
        <ele>400.9</ele>
        <time>2019-11-01T10:16:31Z</time>
      </trkpt>
      <trkpt lat="46.30223" lon="2.84">
        <ele>401</ele>
        <time>2019-11-01T10:16:32Z</time>
      </trkpt>
      <trkpt lat="46.3022" lon="2.83999">
        <ele>401.1</ele>
        <time>2019-11-01T10:16:33Z</time>
      </trkpt>
      <trkpt lat="46.30217" lon="2.83999">
        <ele>401.2</ele>
        <time>2019-11-01T10:16:34Z</time>
      </trkpt>
      <trkpt lat="46.30214" lon="2.83999">
        <ele>401.3</ele>
        <time>2019-11-01T10:16:35Z</time>
      </trkpt>
      <trkpt lat="46.3021" lon="2.83999">
        <ele>401.4</ele>
        <time>2019-11-01T10:16:36Z</time>
      </trkpt>
      <trkpt lat="46.30208" lon="2.83999">
        <ele>401.5</ele>
        <time>2019-11-01T10:16:37Z</time>
      </trkpt>
      <trkpt lat="46.30205" lon="2.83999">
        <ele>401.5</ele>
        <time>2019-11-01T10:16:38Z</time>
      </trkpt>
      <trkpt lat="46.30201" lon="2.83999">
        <ele>401.6</ele>
        <time>2019-11-01T10:16:39Z</time>
      </trkpt>
      <trkpt lat="46.30198" lon="2.83999">
        <ele>401.7</ele>
        <time>2019-11-01T10:16:40Z</time>
      </trkpt>
      <trkpt lat="46.30195" lon="2.83999">
        <ele>401.8</ele>
        <time>2019-11-01T10:16:41Z</time>
      </trkpt>
      <trkpt lat="46.30192" lon="2.83999">
        <ele>401.9</ele>
        <time>2019-11-01T10:16:42Z</time>
      </trkpt>
      <trkpt lat="46.3019" lon="2.83999">
        <ele>401.9</ele>
        <time>2019-11-01T10:16:43Z</time>
      </trkpt>
      <trkpt lat="46.30186" lon="2.84">
        <ele>402</ele>
        <time>2019-11-01T10:16:44Z</time>
      </trkpt>
      <trkpt lat="46.30184" lon="2.84">
        <ele>402.1</ele>
        <time>2019-11-01T10:16:45Z</time>
      </trkpt>
      <trkpt lat="46.30181" lon="2.84">
        <ele>402.1</ele>
        <time>2019-11-01T10:16:46Z</time>
      </trkpt>
      <trkpt lat="46.30178" lon="2.84001">
        <ele>402.2</ele>
        <time>2019-11-01T10:16:47Z</time>
      </trkpt>
      <trkpt lat="46.30174" lon="2.84001">
        <ele>402.2</ele>
        <time>2019-11-01T10:16:48Z</time>
      </trkpt>
      <trkpt lat="46.30171" lon="2.84001">
        <ele>402.4</ele>
        <time>2019-11-01T10:16:49Z</time>
      </trkpt>
      <trkpt lat="46.30169" lon="2.84001">
        <ele>402.5</ele>
        <time>2019-11-01T10:16:50Z</time>
      </trkpt>
      <trkpt lat="46.30165" lon="2.84001">
        <ele>402.4</ele>
        <time>2019-11-01T10:16:51Z</time>
      </trkpt>
      <trkpt lat="46.30162" lon="2.84">
        <ele>402.4</ele>
        <time>2019-11-01T10:16:52Z</time>
      </trkpt>
      <trkpt lat="46.30159" lon="2.83999">
        <ele>402.5</ele>
        <time>2019-11-01T10:16:53Z</time>
      </trkpt>
      <trkpt lat="46.30156" lon="2.83998">
        <ele>402.5</ele>
        <time>2019-11-01T10:16:54Z</time>
      </trkpt>
      <trkpt lat="46.30153" lon="2.83998">
        <ele>402.6</ele>
        <time>2019-11-01T10:16:55Z</time>
      </trkpt>
      <trkpt lat="46.30149" lon="2.83997">
        <ele>402.5</ele>
        <time>2019-11-01T10:16:56Z</time>
      </trkpt>
      <trkpt lat="46.30146" lon="2.83996">
        <ele>402.6</ele>
        <time>2019-11-01T10:16:57Z</time>
      </trkpt>
      <trkpt lat="46.30143" lon="2.83995">
        <ele>402.6</ele>
        <time>2019-11-01T10:16:58Z</time>
      </trkpt>
      <trkpt lat="46.3014" lon="2.83995">
        <ele>402.7</ele>
        <time>2019-11-01T10:16:59Z</time>
      </trkpt>
      <trkpt lat="46.30136" lon="2.83994">
        <ele>402.8</ele>
        <time>2019-11-01T10:17:00Z</time>
      </trkpt>
      <trkpt lat="46.30132" lon="2.83993">
        <ele>402.9</ele>
        <time>2019-11-01T10:17:01Z</time>
      </trkpt>
      <trkpt lat="46.30129" lon="2.83993">
        <ele>402.9</ele>
        <time>2019-11-01T10:17:02Z</time>
      </trkpt>
      <trkpt lat="46.30125" lon="2.83992">
        <ele>402.8</ele>
        <time>2019-11-01T10:17:03Z</time>
      </trkpt>
      <trkpt lat="46.30122" lon="2.8399">
        <ele>402.9</ele>
        <time>2019-11-01T10:17:04Z</time>
      </trkpt>
      <trkpt lat="46.30119" lon="2.83988">
        <ele>402.9</ele>
        <time>2019-11-01T10:17:05Z</time>
      </trkpt>
      <trkpt lat="46.30115" lon="2.83985">
        <ele>402.9</ele>
        <time>2019-11-01T10:17:06Z</time>
      </trkpt>
      <trkpt lat="46.30113" lon="2.83983">
        <ele>402.9</ele>
        <time>2019-11-01T10:17:07Z</time>
      </trkpt>
      <trkpt lat="46.3011" lon="2.83981">
        <ele>402.9</ele>
        <time>2019-11-01T10:17:08Z</time>
      </trkpt>
      <trkpt lat="46.30107" lon="2.83978">
        <ele>402.9</ele>
        <time>2019-11-01T10:17:09Z</time>
      </trkpt>
      <trkpt lat="46.30103" lon="2.83975">
        <ele>403</ele>
        <time>2019-11-01T10:17:10Z</time>
      </trkpt>
      <trkpt lat="46.30099" lon="2.83973">
        <ele>403</ele>
        <time>2019-11-01T10:17:11Z</time>
      </trkpt>
      <trkpt lat="46.30095" lon="2.83971">
        <ele>403</ele>
        <time>2019-11-01T10:17:12Z</time>
      </trkpt>
      <trkpt lat="46.30091" lon="2.83969">
        <ele>403.1</ele>
        <time>2019-11-01T10:17:13Z</time>
      </trkpt>
      <trkpt lat="46.30087" lon="2.83967">
        <ele>403.2</ele>
        <time>2019-11-01T10:17:14Z</time>
      </trkpt>
      <trkpt lat="46.30082" lon="2.83964">
        <ele>403.3</ele>
        <time>2019-11-01T10:17:15Z</time>
      </trkpt>
      <trkpt lat="46.30078" lon="2.83962">
        <ele>403.5</ele>
        <time>2019-11-01T10:17:16Z</time>
      </trkpt>
      <trkpt lat="46.30073" lon="2.83959">
        <ele>403.6</ele>
        <time>2019-11-01T10:17:17Z</time>
      </trkpt>
      <trkpt lat="46.30069" lon="2.83956">
        <ele>403.7</ele>
        <time>2019-11-01T10:17:18Z</time>
      </trkpt>
      <trkpt lat="46.30064" lon="2.83953">
        <ele>403.8</ele>
        <time>2019-11-01T10:17:19Z</time>
      </trkpt>
      <trkpt lat="46.3006" lon="2.8395">
        <ele>404</ele>
        <time>2019-11-01T10:17:20Z</time>
      </trkpt>
      <trkpt lat="46.30055" lon="2.83946">
        <ele>404.1</ele>
        <time>2019-11-01T10:17:21Z</time>
      </trkpt>
      <trkpt lat="46.30052" lon="2.83944">
        <ele>404.2</ele>
        <time>2019-11-01T10:17:22Z</time>
      </trkpt>
      <trkpt lat="46.30048" lon="2.83942">
        <ele>404.3</ele>
        <time>2019-11-01T10:17:23Z</time>
      </trkpt>
      <trkpt lat="46.30044" lon="2.83939">
        <ele>404.4</ele>
        <time>2019-11-01T10:17:24Z</time>
      </trkpt>
      <trkpt lat="46.30041" lon="2.83937">
        <ele>404.5</ele>
        <time>2019-11-01T10:17:25Z</time>
      </trkpt>
      <trkpt lat="46.30038" lon="2.83935">
        <ele>404.5</ele>
        <time>2019-11-01T10:17:26Z</time>
      </trkpt>
      <trkpt lat="46.30035" lon="2.83932">
        <ele>404.5</ele>
        <time>2019-11-01T10:17:27Z</time>
      </trkpt>
      <trkpt lat="46.30031" lon="2.8393">
        <ele>404.5</ele>
        <time>2019-11-01T10:17:28Z</time>
      </trkpt>
      <trkpt lat="46.30029" lon="2.83928">
        <ele>404.6</ele>
        <time>2019-11-01T10:17:29Z</time>
      </trkpt>
      <trkpt lat="46.30026" lon="2.83926">
        <ele>404.6</ele>
        <time>2019-11-01T10:17:30Z</time>
      </trkpt>
      <trkpt lat="46.30023" lon="2.83925">
        <ele>404.6</ele>
        <time>2019-11-01T10:17:31Z</time>
      </trkpt>
      <trkpt lat="46.3002" lon="2.83923">
        <ele>404.6</ele>
        <time>2019-11-01T10:17:32Z</time>
      </trkpt>
      <trkpt lat="46.30017" lon="2.83922">
        <ele>404.7</ele>
        <time>2019-11-01T10:17:33Z</time>
      </trkpt>
      <trkpt lat="46.30015" lon="2.8392">
        <ele>404.7</ele>
        <time>2019-11-01T10:17:34Z</time>
      </trkpt>
      <trkpt lat="46.30013" lon="2.8392">
        <ele>404.8</ele>
        <time>2019-11-01T10:17:35Z</time>
      </trkpt>
      <trkpt lat="46.3001" lon="2.83919">
        <ele>404.8</ele>
        <time>2019-11-01T10:17:36Z</time>
      </trkpt>
      <trkpt lat="46.30008" lon="2.83919">
        <ele>404.8</ele>
        <time>2019-11-01T10:17:37Z</time>
      </trkpt>
      <trkpt lat="46.30005" lon="2.83919">
        <ele>404.9</ele>
        <time>2019-11-01T10:17:38Z</time>
      </trkpt>
      <trkpt lat="46.30002" lon="2.83918">
        <ele>404.9</ele>
        <time>2019-11-01T10:17:39Z</time>
      </trkpt>
      <trkpt lat="46.3" lon="2.83917">
        <ele>405</ele>
        <time>2019-11-01T10:17:40Z</time>
      </trkpt>
      <trkpt lat="46.29997" lon="2.83916">
        <ele>405.1</ele>
        <time>2019-11-01T10:17:41Z</time>
      </trkpt>
      <trkpt lat="46.29994" lon="2.83915">
        <ele>405.2</ele>
        <time>2019-11-01T10:17:42Z</time>
      </trkpt>
      <trkpt lat="46.2999" lon="2.83914">
        <ele>405.2</ele>
        <time>2019-11-01T10:17:43Z</time>
      </trkpt>
      <trkpt lat="46.29987" lon="2.83913">
        <ele>405.2</ele>
        <time>2019-11-01T10:17:44Z</time>
      </trkpt>
      <trkpt lat="46.29985" lon="2.83913">
        <ele>405.3</ele>
        <time>2019-11-01T10:17:45Z</time>
      </trkpt>
      <trkpt lat="46.29982" lon="2.83912">
        <ele>405.3</ele>
        <time>2019-11-01T10:17:46Z</time>
      </trkpt>
      <trkpt lat="46.29978" lon="2.83911">
        <ele>405.4</ele>
        <time>2019-11-01T10:17:47Z</time>
      </trkpt>
      <trkpt lat="46.29974" lon="2.83911">
        <ele>405.4</ele>
        <time>2019-11-01T10:17:48Z</time>
      </trkpt>
      <trkpt lat="46.29972" lon="2.8391">
        <ele>405.5</ele>
        <time>2019-11-01T10:17:49Z</time>
      </trkpt>
      <trkpt lat="46.29968" lon="2.83909">
        <ele>405.5</ele>
        <time>2019-11-01T10:17:50Z</time>
      </trkpt>
      <trkpt lat="46.29965" lon="2.83908">
        <ele>405.6</ele>
        <time>2019-11-01T10:17:51Z</time>
      </trkpt>
      <trkpt lat="46.29961" lon="2.83907">
        <ele>405.7</ele>
        <time>2019-11-01T10:17:52Z</time>
      </trkpt>
      <trkpt lat="46.29958" lon="2.83906">
        <ele>405.7</ele>
        <time>2019-11-01T10:17:53Z</time>
      </trkpt>
      <trkpt lat="46.29955" lon="2.83905">
        <ele>405.8</ele>
        <time>2019-11-01T10:17:54Z</time>
      </trkpt>
      <trkpt lat="46.29952" lon="2.83905">
        <ele>405.9</ele>
        <time>2019-11-01T10:17:55Z</time>
      </trkpt>
      <trkpt lat="46.2995" lon="2.83904">
        <ele>406</ele>
        <time>2019-11-01T10:17:56Z</time>
      </trkpt>
      <trkpt lat="46.29947" lon="2.83904">
        <ele>406.2</ele>
        <time>2019-11-01T10:17:57Z</time>
      </trkpt>
      <trkpt lat="46.29944" lon="2.83903">
        <ele>406.3</ele>
        <time>2019-11-01T10:17:58Z</time>
      </trkpt>
      <trkpt lat="46.29941" lon="2.83903">
        <ele>406.5</ele>
        <time>2019-11-01T10:17:59Z</time>
      </trkpt>
      <trkpt lat="46.29938" lon="2.83903">
        <ele>406.6</ele>
        <time>2019-11-01T10:18:00Z</time>
      </trkpt>
      <trkpt lat="46.29936" lon="2.83902">
        <ele>406.7</ele>
        <time>2019-11-01T10:18:01Z</time>
      </trkpt>
      <trkpt lat="46.29933" lon="2.83901">
        <ele>406.7</ele>
        <time>2019-11-01T10:18:02Z</time>
      </trkpt>
      <trkpt lat="46.2993" lon="2.839">
        <ele>406.9</ele>
        <time>2019-11-01T10:18:03Z</time>
      </trkpt>
      <trkpt lat="46.29928" lon="2.839">
        <ele>407</ele>
        <time>2019-11-01T10:18:04Z</time>
      </trkpt>
      <trkpt lat="46.29925" lon="2.839">
        <ele>407.2</ele>
        <time>2019-11-01T10:18:05Z</time>
      </trkpt>
      <trkpt lat="46.29922" lon="2.839">
        <ele>407.3</ele>
        <time>2019-11-01T10:18:06Z</time>
      </trkpt>
      <trkpt lat="46.29919" lon="2.839">
        <ele>407.5</ele>
        <time>2019-11-01T10:18:07Z</time>
      </trkpt>
      <trkpt lat="46.29915" lon="2.839">
        <ele>407.8</ele>
        <time>2019-11-01T10:18:08Z</time>
      </trkpt>
      <trkpt lat="46.29912" lon="2.83901">
        <ele>408</ele>
        <time>2019-11-01T10:18:09Z</time>
      </trkpt>
      <trkpt lat="46.29909" lon="2.83901">
        <ele>408.1</ele>
        <time>2019-11-01T10:18:10Z</time>
      </trkpt>
      <trkpt lat="46.29906" lon="2.83901">
        <ele>408.3</ele>
        <time>2019-11-01T10:18:11Z</time>
      </trkpt>
      <trkpt lat="46.29903" lon="2.83901">
        <ele>408.4</ele>
        <time>2019-11-01T10:18:12Z</time>
      </trkpt>
      <trkpt lat="46.299" lon="2.83902">
        <ele>408.6</ele>
        <time>2019-11-01T10:18:13Z</time>
      </trkpt>
      <trkpt lat="46.29897" lon="2.83902">
        <ele>408.8</ele>
        <time>2019-11-01T10:18:14Z</time>
      </trkpt>
      <trkpt lat="46.29894" lon="2.83902">
        <ele>408.9</ele>
        <time>2019-11-01T10:18:15Z</time>
      </trkpt>
      <trkpt lat="46.2989" lon="2.83902">
        <ele>409.1</ele>
        <time>2019-11-01T10:18:16Z</time>
      </trkpt>
      <trkpt lat="46.29887" lon="2.83902">
        <ele>409.3</ele>
        <time>2019-11-01T10:18:17Z</time>
      </trkpt>
      <trkpt lat="46.29884" lon="2.83902">
        <ele>409.5</ele>
        <time>2019-11-01T10:18:18Z</time>
      </trkpt>
      <trkpt lat="46.29881" lon="2.83902">
        <ele>409.7</ele>
        <time>2019-11-01T10:18:19Z</time>
      </trkpt>
      <trkpt lat="46.29878" lon="2.83902">
        <ele>409.9</ele>
        <time>2019-11-01T10:18:20Z</time>
      </trkpt>
      <trkpt lat="46.29875" lon="2.83901">
        <ele>410</ele>
        <time>2019-11-01T10:18:21Z</time>
      </trkpt>
      <trkpt lat="46.29872" lon="2.83901">
        <ele>410.2</ele>
        <time>2019-11-01T10:18:22Z</time>
      </trkpt>
      <trkpt lat="46.2987" lon="2.839">
        <ele>410.3</ele>
        <time>2019-11-01T10:18:23Z</time>
      </trkpt>
      <trkpt lat="46.29868" lon="2.83898">
        <ele>410.3</ele>
        <time>2019-11-01T10:18:24Z</time>
      </trkpt>
      <trkpt lat="46.29866" lon="2.83896">
        <ele>410.4</ele>
        <time>2019-11-01T10:18:25Z</time>
      </trkpt>
      <trkpt lat="46.29865" lon="2.83894">
        <ele>410.5</ele>
        <time>2019-11-01T10:18:26Z</time>
      </trkpt>
      <trkpt lat="46.29863" lon="2.8389">
        <ele>410.5</ele>
        <time>2019-11-01T10:18:27Z</time>
      </trkpt>
      <trkpt lat="46.29862" lon="2.83887">
        <ele>410.6</ele>
        <time>2019-11-01T10:18:28Z</time>
      </trkpt>
      <trkpt lat="46.29861" lon="2.83883">
        <ele>410.6</ele>
        <time>2019-11-01T10:18:29Z</time>
      </trkpt>
      <trkpt lat="46.2986" lon="2.83879">
        <ele>410.6</ele>
        <time>2019-11-01T10:18:30Z</time>
      </trkpt>
      <trkpt lat="46.29859" lon="2.83876">
        <ele>410.7</ele>
        <time>2019-11-01T10:18:31Z</time>
      </trkpt>
      <trkpt lat="46.29857" lon="2.83872">
        <ele>410.6</ele>
        <time>2019-11-01T10:18:32Z</time>
      </trkpt>
      <trkpt lat="46.29856" lon="2.83868">
        <ele>410.6</ele>
        <time>2019-11-01T10:18:33Z</time>
      </trkpt>
      <trkpt lat="46.29855" lon="2.83864">
        <ele>410.8</ele>
        <time>2019-11-01T10:18:34Z</time>
      </trkpt>
      <trkpt lat="46.29854" lon="2.8386">
        <ele>410.7</ele>
        <time>2019-11-01T10:18:35Z</time>
      </trkpt>
      <trkpt lat="46.29852" lon="2.83856">
        <ele>410.9</ele>
        <time>2019-11-01T10:18:36Z</time>
      </trkpt>
      <trkpt lat="46.29851" lon="2.83852">
        <ele>410.8</ele>
        <time>2019-11-01T10:18:37Z</time>
      </trkpt>
      <trkpt lat="46.29849" lon="2.83848">
        <ele>411</ele>
        <time>2019-11-01T10:18:38Z</time>
      </trkpt>
      <trkpt lat="46.29848" lon="2.83844">
        <ele>410.9</ele>
        <time>2019-11-01T10:18:39Z</time>
      </trkpt>
      <trkpt lat="46.29846" lon="2.8384">
        <ele>411</ele>
        <time>2019-11-01T10:18:40Z</time>
      </trkpt>
      <trkpt lat="46.29844" lon="2.83836">
        <ele>411</ele>
        <time>2019-11-01T10:18:41Z</time>
      </trkpt>
      <trkpt lat="46.29843" lon="2.83833">
        <ele>411.1</ele>
        <time>2019-11-01T10:18:42Z</time>
      </trkpt>
      <trkpt lat="46.29841" lon="2.83829">
        <ele>411.2</ele>
        <time>2019-11-01T10:18:43Z</time>
      </trkpt>
      <trkpt lat="46.29839" lon="2.83825">
        <ele>411.2</ele>
        <time>2019-11-01T10:18:44Z</time>
      </trkpt>
      <trkpt lat="46.29837" lon="2.8382">
        <ele>411.3</ele>
        <time>2019-11-01T10:18:45Z</time>
      </trkpt>
      <trkpt lat="46.29835" lon="2.83817">
        <ele>411.3</ele>
        <time>2019-11-01T10:18:46Z</time>
      </trkpt>
      <trkpt lat="46.29834" lon="2.83813">
        <ele>411.5</ele>
        <time>2019-11-01T10:18:47Z</time>
      </trkpt>
      <trkpt lat="46.29832" lon="2.83807">
        <ele>411.6</ele>
        <time>2019-11-01T10:18:48Z</time>
      </trkpt>
      <trkpt lat="46.29831" lon="2.83804">
        <ele>411.6</ele>
        <time>2019-11-01T10:18:49Z</time>
      </trkpt>
      <trkpt lat="46.29829" lon="2.83798">
        <ele>411.7</ele>
        <time>2019-11-01T10:18:50Z</time>
      </trkpt>
      <trkpt lat="46.29827" lon="2.83795">
        <ele>411.7</ele>
        <time>2019-11-01T10:18:51Z</time>
      </trkpt>
      <trkpt lat="46.29826" lon="2.8379">
        <ele>411.9</ele>
        <time>2019-11-01T10:18:52Z</time>
      </trkpt>
      <trkpt lat="46.29824" lon="2.83785">
        <ele>411.9</ele>
        <time>2019-11-01T10:18:53Z</time>
      </trkpt>
      <trkpt lat="46.29822" lon="2.8378">
        <ele>412</ele>
        <time>2019-11-01T10:18:54Z</time>
      </trkpt>
      <trkpt lat="46.2982" lon="2.83776">
        <ele>412.2</ele>
        <time>2019-11-01T10:18:55Z</time>
      </trkpt>
      <trkpt lat="46.29818" lon="2.83771">
        <ele>412.2</ele>
        <time>2019-11-01T10:18:56Z</time>
      </trkpt>
      <trkpt lat="46.29816" lon="2.83767">
        <ele>412.4</ele>
        <time>2019-11-01T10:18:57Z</time>
      </trkpt>
      <trkpt lat="46.29814" lon="2.83762">
        <ele>412.6</ele>
        <time>2019-11-01T10:18:58Z</time>
      </trkpt>
      <trkpt lat="46.29812" lon="2.83757">
        <ele>412.6</ele>
        <time>2019-11-01T10:18:59Z</time>
      </trkpt>
      <trkpt lat="46.2981" lon="2.83753">
        <ele>412.8</ele>
        <time>2019-11-01T10:19:00Z</time>
      </trkpt>
      <trkpt lat="46.29808" lon="2.83748">
        <ele>413.1</ele>
        <time>2019-11-01T10:19:01Z</time>
      </trkpt>
      <trkpt lat="46.29805" lon="2.83742">
        <ele>413.3</ele>
        <time>2019-11-01T10:19:02Z</time>
      </trkpt>
      <trkpt lat="46.29804" lon="2.83739">
        <ele>413.3</ele>
        <time>2019-11-01T10:19:03Z</time>
      </trkpt>
      <trkpt lat="46.29802" lon="2.83735">
        <ele>413.5</ele>
        <time>2019-11-01T10:19:33Z</time>
      </trkpt>
      <trkpt lat="46.298" lon="2.83731">
        <ele>413.7</ele>
        <time>2019-11-01T10:19:34Z</time>
      </trkpt>
      <trkpt lat="46.29797" lon="2.83727">
        <ele>413.7</ele>
        <time>2019-11-01T10:19:35Z</time>
      </trkpt>
      <trkpt lat="46.29795" lon="2.83722">
        <ele>413.8</ele>
        <time>2019-11-01T10:19:36Z</time>
      </trkpt>
      <trkpt lat="46.29792" lon="2.83718">
        <ele>414</ele>
        <time>2019-11-01T10:19:37Z</time>
      </trkpt>
      <trkpt lat="46.2979" lon="2.83715">
        <ele>414.1</ele>
        <time>2019-11-01T10:19:38Z</time>
      </trkpt>
      <trkpt lat="46.29788" lon="2.83711">
        <ele>414.2</ele>
        <time>2019-11-01T10:19:39Z</time>
      </trkpt>
      <trkpt lat="46.29785" lon="2.83707">
        <ele>414.1</ele>
        <time>2019-11-01T10:19:40Z</time>
      </trkpt>
      <trkpt lat="46.29783" lon="2.83703">
        <ele>414.3</ele>
        <time>2019-11-01T10:19:41Z</time>
      </trkpt>
      <trkpt lat="46.2978" lon="2.83699">
        <ele>414.4</ele>
        <time>2019-11-01T10:19:42Z</time>
      </trkpt>
      <trkpt lat="46.29778" lon="2.83696">
        <ele>414.6</ele>
        <time>2019-11-01T10:19:43Z</time>
      </trkpt>
      <trkpt lat="46.29776" lon="2.83693">
        <ele>414.8</ele>
        <time>2019-11-01T10:19:44Z</time>
      </trkpt>
      <trkpt lat="46.29772" lon="2.83689">
        <ele>415</ele>
        <time>2019-11-01T10:19:45Z</time>
      </trkpt>
      <trkpt lat="46.2977" lon="2.83687">
        <ele>415</ele>
        <time>2019-11-01T10:19:46Z</time>
      </trkpt>
      <trkpt lat="46.29767" lon="2.83684">
        <ele>415.2</ele>
        <time>2019-11-01T10:19:47Z</time>
      </trkpt>
      <trkpt lat="46.29764" lon="2.83681">
        <ele>415.3</ele>
        <time>2019-11-01T10:19:48Z</time>
      </trkpt>
      <trkpt lat="46.29761" lon="2.83678">
        <ele>415.5</ele>
        <time>2019-11-01T10:19:49Z</time>
      </trkpt>
      <trkpt lat="46.29759" lon="2.83676">
        <ele>415.6</ele>
        <time>2019-11-01T10:19:50Z</time>
      </trkpt>
      <trkpt lat="46.29756" lon="2.83674">
        <ele>415.8</ele>
        <time>2019-11-01T10:19:51Z</time>
      </trkpt>
      <trkpt lat="46.29753" lon="2.8367">
        <ele>415.9</ele>
        <time>2019-11-01T10:19:52Z</time>
      </trkpt>
      <trkpt lat="46.29752" lon="2.83668">
        <ele>416</ele>
        <time>2019-11-01T10:19:53Z</time>
      </trkpt>
      <trkpt lat="46.2975" lon="2.83664">
        <ele>415.9</ele>
        <time>2019-11-01T10:19:54Z</time>
      </trkpt>
      <trkpt lat="46.29748" lon="2.83661">
        <ele>416</ele>
        <time>2019-11-01T10:19:55Z</time>
      </trkpt>
      <trkpt lat="46.29746" lon="2.83656">
        <ele>416.1</ele>
        <time>2019-11-01T10:19:56Z</time>
      </trkpt>
      <trkpt lat="46.29744" lon="2.83653">
        <ele>416</ele>
        <time>2019-11-01T10:19:57Z</time>
      </trkpt>
      <trkpt lat="46.29743" lon="2.83649">
        <ele>416.1</ele>
        <time>2019-11-01T10:19:58Z</time>
      </trkpt>
      <trkpt lat="46.2974" lon="2.83646">
        <ele>416.1</ele>
        <time>2019-11-01T10:19:59Z</time>
      </trkpt>
      <trkpt lat="46.29738" lon="2.83642">
        <ele>416.1</ele>
        <time>2019-11-01T10:20:00Z</time>
      </trkpt>
      <trkpt lat="46.29736" lon="2.83639">
        <ele>416.1</ele>
        <time>2019-11-01T10:20:01Z</time>
      </trkpt>
      <trkpt lat="46.29734" lon="2.83636">
        <ele>416.1</ele>
        <time>2019-11-01T10:20:02Z</time>
      </trkpt>
      <trkpt lat="46.29732" lon="2.83633">
        <ele>416.1</ele>
        <time>2019-11-01T10:20:03Z</time>
      </trkpt>
      <trkpt lat="46.29729" lon="2.83629">
        <ele>416.1</ele>
        <time>2019-11-01T10:20:04Z</time>
      </trkpt>
      <trkpt lat="46.29727" lon="2.83625">
        <ele>416.1</ele>
        <time>2019-11-01T10:20:05Z</time>
      </trkpt>
      <trkpt lat="46.29725" lon="2.83621">
        <ele>416</ele>
        <time>2019-11-01T10:20:06Z</time>
      </trkpt>
      <trkpt lat="46.29724" lon="2.83617">
        <ele>416.1</ele>
        <time>2019-11-01T10:20:07Z</time>
      </trkpt>
      <trkpt lat="46.29722" lon="2.83613">
        <ele>416.1</ele>
        <time>2019-11-01T10:20:08Z</time>
      </trkpt>
      <trkpt lat="46.2972" lon="2.83608">
        <ele>416.1</ele>
        <time>2019-11-01T10:20:09Z</time>
      </trkpt>
      <trkpt lat="46.29718" lon="2.83603">
        <ele>416.2</ele>
        <time>2019-11-01T10:20:10Z</time>
      </trkpt>
      <trkpt lat="46.29715" lon="2.83599">
        <ele>416.2</ele>
        <time>2019-11-01T10:20:11Z</time>
      </trkpt>
      <trkpt lat="46.29713" lon="2.83594">
        <ele>416.3</ele>
        <time>2019-11-01T10:20:12Z</time>
      </trkpt>
      <trkpt lat="46.29711" lon="2.8359">
        <ele>416.4</ele>
        <time>2019-11-01T10:20:13Z</time>
      </trkpt>
      <trkpt lat="46.29709" lon="2.83585">
        <ele>416.4</ele>
        <time>2019-11-01T10:20:14Z</time>
      </trkpt>
      <trkpt lat="46.29707" lon="2.83581">
        <ele>416.4</ele>
        <time>2019-11-01T10:20:15Z</time>
      </trkpt>
      <trkpt lat="46.29704" lon="2.83576">
        <ele>416.5</ele>
        <time>2019-11-01T10:20:16Z</time>
      </trkpt>
      <trkpt lat="46.29702" lon="2.83572">
        <ele>416.6</ele>
        <time>2019-11-01T10:20:17Z</time>
      </trkpt>
      <trkpt lat="46.297" lon="2.83568">
        <ele>416.7</ele>
        <time>2019-11-01T10:20:18Z</time>
      </trkpt>
      <trkpt lat="46.29698" lon="2.83564">
        <ele>416.7</ele>
        <time>2019-11-01T10:20:19Z</time>
      </trkpt>
      <trkpt lat="46.29696" lon="2.83559">
        <ele>416.7</ele>
        <time>2019-11-01T10:20:20Z</time>
      </trkpt>
      <trkpt lat="46.29695" lon="2.83554">
        <ele>416.7</ele>
        <time>2019-11-01T10:20:21Z</time>
      </trkpt>
      <trkpt lat="46.29693" lon="2.83549">
        <ele>416.7</ele>
        <time>2019-11-01T10:20:22Z</time>
      </trkpt>
      <trkpt lat="46.29691" lon="2.83544">
        <ele>416.7</ele>
        <time>2019-11-01T10:20:23Z</time>
      </trkpt>
      <trkpt lat="46.29688" lon="2.83537">
        <ele>416.6</ele>
        <time>2019-11-01T10:20:24Z</time>
      </trkpt>
      <trkpt lat="46.29686" lon="2.83533">
        <ele>416.5</ele>
        <time>2019-11-01T10:20:25Z</time>
      </trkpt>
      <trkpt lat="46.29684" lon="2.83528">
        <ele>416.3</ele>
        <time>2019-11-01T10:20:26Z</time>
      </trkpt>
      <trkpt lat="46.29682" lon="2.83523">
        <ele>416.2</ele>
        <time>2019-11-01T10:20:27Z</time>
      </trkpt>
      <trkpt lat="46.2968" lon="2.83518">
        <ele>416.1</ele>
        <time>2019-11-01T10:20:28Z</time>
      </trkpt>
      <trkpt lat="46.29678" lon="2.83514">
        <ele>416</ele>
        <time>2019-11-01T10:20:29Z</time>
      </trkpt>
      <trkpt lat="46.29676" lon="2.83508">
        <ele>415.9</ele>
        <time>2019-11-01T10:20:30Z</time>
      </trkpt>
      <trkpt lat="46.29674" lon="2.83503">
        <ele>415.8</ele>
        <time>2019-11-01T10:20:31Z</time>
      </trkpt>
      <trkpt lat="46.29672" lon="2.83498">
        <ele>415.8</ele>
        <time>2019-11-01T10:20:32Z</time>
      </trkpt>
      <trkpt lat="46.2967" lon="2.83493">
        <ele>416</ele>
        <time>2019-11-01T10:20:33Z</time>
      </trkpt>
      <trkpt lat="46.29667" lon="2.83488">
        <ele>416.1</ele>
        <time>2019-11-01T10:20:34Z</time>
      </trkpt>
      <trkpt lat="46.29665" lon="2.83484">
        <ele>416.2</ele>
        <time>2019-11-01T10:20:35Z</time>
      </trkpt>
      <trkpt lat="46.29662" lon="2.8348">
        <ele>416.2</ele>
        <time>2019-11-01T10:20:36Z</time>
      </trkpt>
      <trkpt lat="46.29659" lon="2.83476">
        <ele>416.3</ele>
        <time>2019-11-01T10:20:37Z</time>
      </trkpt>
      <trkpt lat="46.29656" lon="2.83473">
        <ele>416.4</ele>
        <time>2019-11-01T10:20:38Z</time>
      </trkpt>
      <trkpt lat="46.29654" lon="2.83471">
        <ele>416.5</ele>
        <time>2019-11-01T10:20:39Z</time>
      </trkpt>
      <trkpt lat="46.29651" lon="2.83469">
        <ele>416.6</ele>
        <time>2019-11-01T10:20:40Z</time>
      </trkpt>
      <trkpt lat="46.29649" lon="2.83468">
        <ele>416.6</ele>
        <time>2019-11-01T10:20:41Z</time>
      </trkpt>
      <trkpt lat="46.29647" lon="2.83469">
        <ele>416.6</ele>
        <time>2019-11-01T10:20:42Z</time>
      </trkpt>
      <trkpt lat="46.29647" lon="2.83469">
        <ele>416.6</ele>
        <time>2019-11-01T10:20:43Z</time>
      </trkpt>
      <trkpt lat="46.29646" lon="2.8347">
        <ele>416.6</ele>
        <time>2019-11-01T10:20:44Z</time>
      </trkpt>
      <trkpt lat="46.29643" lon="2.8347">
        <ele>416.7</ele>
        <time>2019-11-01T10:20:45Z</time>
      </trkpt>
      <trkpt lat="46.2964" lon="2.83471">
        <ele>416.8</ele>
        <time>2019-11-01T10:20:46Z</time>
      </trkpt>
      <trkpt lat="46.29635" lon="2.83471">
        <ele>416.8</ele>
        <time>2019-11-01T10:20:47Z</time>
      </trkpt>
      <trkpt lat="46.29631" lon="2.83473">
        <ele>416.9</ele>
        <time>2019-11-01T10:20:48Z</time>
      </trkpt>
      <trkpt lat="46.29626" lon="2.83474">
        <ele>416.9</ele>
        <time>2019-11-01T10:20:49Z</time>
      </trkpt>
      <trkpt lat="46.29621" lon="2.83476">
        <ele>416.9</ele>
        <time>2019-11-01T10:20:50Z</time>
      </trkpt>
      <trkpt lat="46.29616" lon="2.83478">
        <ele>417</ele>
        <time>2019-11-01T10:20:51Z</time>
      </trkpt>
      <trkpt lat="46.29611" lon="2.8348">
        <ele>417</ele>
        <time>2019-11-01T10:20:52Z</time>
      </trkpt>
      <trkpt lat="46.29606" lon="2.83482">
        <ele>417</ele>
        <time>2019-11-01T10:20:53Z</time>
      </trkpt>
      <trkpt lat="46.29601" lon="2.83484">
        <ele>417.1</ele>
        <time>2019-11-01T10:20:54Z</time>
      </trkpt>
      <trkpt lat="46.29596" lon="2.83487">
        <ele>417.1</ele>
        <time>2019-11-01T10:20:55Z</time>
      </trkpt>
      <trkpt lat="46.29591" lon="2.83489">
        <ele>417.1</ele>
        <time>2019-11-01T10:20:56Z</time>
      </trkpt>
      <trkpt lat="46.29586" lon="2.83491">
        <ele>417.2</ele>
        <time>2019-11-01T10:20:57Z</time>
      </trkpt>
      <trkpt lat="46.29581" lon="2.83494">
        <ele>417.2</ele>
        <time>2019-11-01T10:20:58Z</time>
      </trkpt>
      <trkpt lat="46.29576" lon="2.83496">
        <ele>417.3</ele>
        <time>2019-11-01T10:20:59Z</time>
      </trkpt>
      <trkpt lat="46.29571" lon="2.83499">
        <ele>417.3</ele>
        <time>2019-11-01T10:21:00Z</time>
      </trkpt>
      <trkpt lat="46.29565" lon="2.83502">
        <ele>417.4</ele>
        <time>2019-11-01T10:21:01Z</time>
      </trkpt>
      <trkpt lat="46.2956" lon="2.83505">
        <ele>417.4</ele>
        <time>2019-11-01T10:21:02Z</time>
      </trkpt>
      <trkpt lat="46.29555" lon="2.83508">
        <ele>417.5</ele>
        <time>2019-11-01T10:21:03Z</time>
      </trkpt>
      <trkpt lat="46.2955" lon="2.83511">
        <ele>417.6</ele>
        <time>2019-11-01T10:21:04Z</time>
      </trkpt>
      <trkpt lat="46.29546" lon="2.83513">
        <ele>417.6</ele>
        <time>2019-11-01T10:21:05Z</time>
      </trkpt>
      <trkpt lat="46.29541" lon="2.83516">
        <ele>417.8</ele>
        <time>2019-11-01T10:21:06Z</time>
      </trkpt>
      <trkpt lat="46.29537" lon="2.83518">
        <ele>417.9</ele>
        <time>2019-11-01T10:21:07Z</time>
      </trkpt>
      <trkpt lat="46.29532" lon="2.83521">
        <ele>417.9</ele>
        <time>2019-11-01T10:21:08Z</time>
      </trkpt>
      <trkpt lat="46.29528" lon="2.83523">
        <ele>418</ele>
        <time>2019-11-01T10:21:09Z</time>
      </trkpt>
      <trkpt lat="46.29524" lon="2.83526">
        <ele>418.1</ele>
        <time>2019-11-01T10:21:10Z</time>
      </trkpt>
      <trkpt lat="46.2952" lon="2.83528">
        <ele>418.1</ele>
        <time>2019-11-01T10:21:11Z</time>
      </trkpt>
      <trkpt lat="46.29516" lon="2.8353">
        <ele>418.2</ele>
        <time>2019-11-01T10:21:12Z</time>
      </trkpt>
      <trkpt lat="46.29512" lon="2.83533">
        <ele>418.3</ele>
        <time>2019-11-01T10:21:13Z</time>
      </trkpt>
      <trkpt lat="46.29508" lon="2.83536">
        <ele>418.3</ele>
        <time>2019-11-01T10:21:14Z</time>
      </trkpt>
      <trkpt lat="46.29505" lon="2.83538">
        <ele>418.4</ele>
        <time>2019-11-01T10:21:15Z</time>
      </trkpt>
      <trkpt lat="46.29501" lon="2.8354">
        <ele>418.5</ele>
        <time>2019-11-01T10:21:16Z</time>
      </trkpt>
      <trkpt lat="46.29497" lon="2.83543">
        <ele>418.6</ele>
        <time>2019-11-01T10:21:17Z</time>
      </trkpt>
      <trkpt lat="46.29494" lon="2.83546">
        <ele>418.7</ele>
        <time>2019-11-01T10:21:18Z</time>
      </trkpt>
      <trkpt lat="46.2949" lon="2.83548">
        <ele>418.9</ele>
        <time>2019-11-01T10:21:19Z</time>
      </trkpt>
      <trkpt lat="46.29487" lon="2.83551">
        <ele>419.1</ele>
        <time>2019-11-01T10:21:20Z</time>
      </trkpt>
      <trkpt lat="46.29484" lon="2.83554">
        <ele>419.2</ele>
        <time>2019-11-01T10:21:21Z</time>
      </trkpt>
      <trkpt lat="46.2948" lon="2.83557">
        <ele>419.3</ele>
        <time>2019-11-01T10:21:22Z</time>
      </trkpt>
      <trkpt lat="46.29477" lon="2.83561">
        <ele>419.5</ele>
        <time>2019-11-01T10:21:23Z</time>
      </trkpt>
      <trkpt lat="46.29474" lon="2.83564">
        <ele>419.6</ele>
        <time>2019-11-01T10:21:24Z</time>
      </trkpt>
      <trkpt lat="46.2947" lon="2.83567">
        <ele>419.7</ele>
        <time>2019-11-01T10:21:25Z</time>
      </trkpt>
      <trkpt lat="46.29467" lon="2.83571">
        <ele>420</ele>
        <time>2019-11-01T10:21:26Z</time>
      </trkpt>
      <trkpt lat="46.29465" lon="2.83575">
        <ele>420.2</ele>
        <time>2019-11-01T10:21:27Z</time>
      </trkpt>
      <trkpt lat="46.29461" lon="2.83578">
        <ele>420.5</ele>
        <time>2019-11-01T10:21:28Z</time>
      </trkpt>
      <trkpt lat="46.29459" lon="2.83582">
        <ele>420.8</ele>
        <time>2019-11-01T10:21:29Z</time>
      </trkpt>
      <trkpt lat="46.29456" lon="2.83585">
        <ele>421</ele>
        <time>2019-11-01T10:21:30Z</time>
      </trkpt>
      <trkpt lat="46.29453" lon="2.83589">
        <ele>421.3</ele>
        <time>2019-11-01T10:21:31Z</time>
      </trkpt>
      <trkpt lat="46.29451" lon="2.83593">
        <ele>421.6</ele>
        <time>2019-11-01T10:21:32Z</time>
      </trkpt>
      <trkpt lat="46.29448" lon="2.83597">
        <ele>421.8</ele>
        <time>2019-11-01T10:21:33Z</time>
      </trkpt>
      <trkpt lat="46.29445" lon="2.83601">
        <ele>422.1</ele>
        <time>2019-11-01T10:21:34Z</time>
      </trkpt>
      <trkpt lat="46.29443" lon="2.83606">
        <ele>422.4</ele>
        <time>2019-11-01T10:21:35Z</time>
      </trkpt>
      <trkpt lat="46.2944" lon="2.83611">
        <ele>422.6</ele>
        <time>2019-11-01T10:21:36Z</time>
      </trkpt>
      <trkpt lat="46.29437" lon="2.83616">
        <ele>422.9</ele>
        <time>2019-11-01T10:21:37Z</time>
      </trkpt>
      <trkpt lat="46.29435" lon="2.8362">
        <ele>423.1</ele>
        <time>2019-11-01T10:21:38Z</time>
      </trkpt>
      <trkpt lat="46.29432" lon="2.83625">
        <ele>423.3</ele>
        <time>2019-11-01T10:21:39Z</time>
      </trkpt>
      <trkpt lat="46.29429" lon="2.83631">
        <ele>423.6</ele>
        <time>2019-11-01T10:21:40Z</time>
      </trkpt>
      <trkpt lat="46.29427" lon="2.83636">
        <ele>423.8</ele>
        <time>2019-11-01T10:21:41Z</time>
      </trkpt>
      <trkpt lat="46.29424" lon="2.83641">
        <ele>424</ele>
        <time>2019-11-01T10:21:42Z</time>
      </trkpt>
      <trkpt lat="46.29422" lon="2.83646">
        <ele>424.2</ele>
        <time>2019-11-01T10:21:43Z</time>
      </trkpt>
      <trkpt lat="46.29419" lon="2.83651">
        <ele>424.4</ele>
        <time>2019-11-01T10:21:44Z</time>
      </trkpt>
      <trkpt lat="46.29416" lon="2.83655">
        <ele>424.6</ele>
        <time>2019-11-01T10:21:45Z</time>
      </trkpt>
      <trkpt lat="46.29414" lon="2.83659">
        <ele>424.7</ele>
        <time>2019-11-01T10:21:46Z</time>
      </trkpt>
      <trkpt lat="46.29411" lon="2.83664">
        <ele>425</ele>
        <time>2019-11-01T10:21:52Z</time>
      </trkpt>
      <trkpt lat="46.29407" lon="2.83669">
        <ele>425.3</ele>
        <time>2019-11-01T10:21:53Z</time>
      </trkpt>
      <trkpt lat="46.29405" lon="2.83673">
        <ele>425.5</ele>
        <time>2019-11-01T10:21:54Z</time>
      </trkpt>
      <trkpt lat="46.29401" lon="2.83677">
        <ele>425.7</ele>
        <time>2019-11-01T10:21:55Z</time>
      </trkpt>
      <trkpt lat="46.29398" lon="2.83681">
        <ele>426.1</ele>
        <time>2019-11-01T10:21:56Z</time>
      </trkpt>
      <trkpt lat="46.29395" lon="2.83685">
        <ele>426.5</ele>
        <time>2019-11-01T10:21:57Z</time>
      </trkpt>
      <trkpt lat="46.29391" lon="2.83689">
        <ele>426.8</ele>
        <time>2019-11-01T10:21:58Z</time>
      </trkpt>
      <trkpt lat="46.29388" lon="2.83692">
        <ele>427.2</ele>
        <time>2019-11-01T10:21:59Z</time>
      </trkpt>
      <trkpt lat="46.29384" lon="2.83696">
        <ele>427.6</ele>
        <time>2019-11-01T10:22:00Z</time>
      </trkpt>
      <trkpt lat="46.29381" lon="2.83699">
        <ele>428</ele>
        <time>2019-11-01T10:22:01Z</time>
      </trkpt>
      <trkpt lat="46.29378" lon="2.83703">
        <ele>428.4</ele>
        <time>2019-11-01T10:22:02Z</time>
      </trkpt>
      <trkpt lat="46.29375" lon="2.83705">
        <ele>428.8</ele>
        <time>2019-11-01T10:22:03Z</time>
      </trkpt>
      <trkpt lat="46.29372" lon="2.83708">
        <ele>429.1</ele>
        <time>2019-11-01T10:22:04Z</time>
      </trkpt>
      <trkpt lat="46.2937" lon="2.83711">
        <ele>429.4</ele>
        <time>2019-11-01T10:22:05Z</time>
      </trkpt>
      <trkpt lat="46.29367" lon="2.83713">
        <ele>429.6</ele>
        <time>2019-11-01T10:22:06Z</time>
      </trkpt>
      <trkpt lat="46.29365" lon="2.83716">
        <ele>429.8</ele>
        <time>2019-11-01T10:22:07Z</time>
      </trkpt>
      <trkpt lat="46.29362" lon="2.83719">
        <ele>430.1</ele>
        <time>2019-11-01T10:22:08Z</time>
      </trkpt>
      <trkpt lat="46.2936" lon="2.83721">
        <ele>430.4</ele>
        <time>2019-11-01T10:22:09Z</time>
      </trkpt>
      <trkpt lat="46.29357" lon="2.83723">
        <ele>430.6</ele>
        <time>2019-11-01T10:22:10Z</time>
      </trkpt>
      <trkpt lat="46.29355" lon="2.83726">
        <ele>430.8</ele>
        <time>2019-11-01T10:22:11Z</time>
      </trkpt>
      <trkpt lat="46.29352" lon="2.83728">
        <ele>431</ele>
        <time>2019-11-01T10:22:12Z</time>
      </trkpt>
      <trkpt lat="46.29349" lon="2.83729">
        <ele>431.2</ele>
        <time>2019-11-01T10:22:13Z</time>
      </trkpt>
      <trkpt lat="46.29347" lon="2.83731">
        <ele>431.4</ele>
        <time>2019-11-01T10:22:14Z</time>
      </trkpt>
      <trkpt lat="46.29344" lon="2.83732">
        <ele>431.5</ele>
        <time>2019-11-01T10:22:15Z</time>
      </trkpt>
      <trkpt lat="46.29342" lon="2.83732">
        <ele>431.6</ele>
        <time>2019-11-01T10:22:16Z</time>
      </trkpt>
      <trkpt lat="46.29339" lon="2.83731">
        <ele>431.8</ele>
        <time>2019-11-01T10:22:17Z</time>
      </trkpt>
      <trkpt lat="46.29338" lon="2.83729">
        <ele>431.7</ele>
        <time>2019-11-01T10:22:18Z</time>
      </trkpt>
      <trkpt lat="46.29336" lon="2.83726">
        <ele>431.7</ele>
        <time>2019-11-01T10:22:19Z</time>
      </trkpt>
      <trkpt lat="46.29335" lon="2.83722">
        <ele>431.7</ele>
        <time>2019-11-01T10:22:20Z</time>
      </trkpt>
      <trkpt lat="46.29334" lon="2.83718">
        <ele>431.7</ele>
        <time>2019-11-01T10:22:21Z</time>
      </trkpt>
      <trkpt lat="46.29333" lon="2.83714">
        <ele>431.5</ele>
        <time>2019-11-01T10:22:22Z</time>
      </trkpt>
      <trkpt lat="46.29332" lon="2.83709">
        <ele>431.2</ele>
        <time>2019-11-01T10:22:23Z</time>
      </trkpt>
      <trkpt lat="46.29331" lon="2.83703">
        <ele>431.1</ele>
        <time>2019-11-01T10:22:24Z</time>
      </trkpt>
      <trkpt lat="46.29331" lon="2.83699">
        <ele>431</ele>
        <time>2019-11-01T10:22:25Z</time>
      </trkpt>
      <trkpt lat="46.29331" lon="2.83692">
        <ele>430.6</ele>
        <time>2019-11-01T10:22:26Z</time>
      </trkpt>
      <trkpt lat="46.29331" lon="2.83687">
        <ele>430.3</ele>
        <time>2019-11-01T10:22:27Z</time>
      </trkpt>
      <trkpt lat="46.2933" lon="2.83683">
        <ele>430.1</ele>
        <time>2019-11-01T10:22:28Z</time>
      </trkpt>
      <trkpt lat="46.29329" lon="2.83678">
        <ele>429.9</ele>
        <time>2019-11-01T10:22:29Z</time>
      </trkpt>
      <trkpt lat="46.29329" lon="2.83674">
        <ele>429.7</ele>
        <time>2019-11-01T10:22:30Z</time>
      </trkpt>
      <trkpt lat="46.29328" lon="2.83669">
        <ele>429.5</ele>
        <time>2019-11-01T10:22:31Z</time>
      </trkpt>
      <trkpt lat="46.29328" lon="2.83665">
        <ele>429.4</ele>
        <time>2019-11-01T10:22:32Z</time>
      </trkpt>
      <trkpt lat="46.29327" lon="2.83662">
        <ele>429.2</ele>
        <time>2019-11-01T10:22:33Z</time>
      </trkpt>
      <trkpt lat="46.29325" lon="2.83658">
        <ele>429.3</ele>
        <time>2019-11-01T10:22:34Z</time>
      </trkpt>
      <trkpt lat="46.29324" lon="2.83653">
        <ele>429.1</ele>
        <time>2019-11-01T10:22:35Z</time>
      </trkpt>
      <trkpt lat="46.29322" lon="2.83649">
        <ele>428.8</ele>
        <time>2019-11-01T10:22:36Z</time>
      </trkpt>
      <trkpt lat="46.2932" lon="2.83644">
        <ele>428.7</ele>
        <time>2019-11-01T10:22:37Z</time>
      </trkpt>
      <trkpt lat="46.29318" lon="2.83639">
        <ele>428.6</ele>
        <time>2019-11-01T10:22:38Z</time>
      </trkpt>
      <trkpt lat="46.29315" lon="2.83634">
        <ele>428.5</ele>
        <time>2019-11-01T10:22:39Z</time>
      </trkpt>
      <trkpt lat="46.29311" lon="2.83627">
        <ele>428.3</ele>
        <time>2019-11-01T10:22:40Z</time>
      </trkpt>
      <trkpt lat="46.29309" lon="2.83623">
        <ele>428.2</ele>
        <time>2019-11-01T10:22:41Z</time>
      </trkpt>
      <trkpt lat="46.29305" lon="2.83617">
        <ele>428.1</ele>
        <time>2019-11-01T10:22:42Z</time>
      </trkpt>
      <trkpt lat="46.29301" lon="2.83611">
        <ele>428</ele>
        <time>2019-11-01T10:22:43Z</time>
      </trkpt>
      <trkpt lat="46.29296" lon="2.83604">
        <ele>427.8</ele>
        <time>2019-11-01T10:22:44Z</time>
      </trkpt>
      <trkpt lat="46.29293" lon="2.83599">
        <ele>427.6</ele>
        <time>2019-11-01T10:22:45Z</time>
      </trkpt>
      <trkpt lat="46.29288" lon="2.83594">
        <ele>427.5</ele>
        <time>2019-11-01T10:22:46Z</time>
      </trkpt>
      <trkpt lat="46.29283" lon="2.8359">
        <ele>427.4</ele>
        <time>2019-11-01T10:22:47Z</time>
      </trkpt>
      <trkpt lat="46.29276" lon="2.83587">
        <ele>427.3</ele>
        <time>2019-11-01T10:22:48Z</time>
      </trkpt>
      <trkpt lat="46.29271" lon="2.83587">
        <ele>427.4</ele>
        <time>2019-11-01T10:22:49Z</time>
      </trkpt>
      <trkpt lat="46.29267" lon="2.83589">
        <ele>427.4</ele>
        <time>2019-11-01T10:22:50Z</time>
      </trkpt>
      <trkpt lat="46.29261" lon="2.83591">
        <ele>427.6</ele>
        <time>2019-11-01T10:22:51Z</time>
      </trkpt>
      <trkpt lat="46.29256" lon="2.83593">
        <ele>427.8</ele>
        <time>2019-11-01T10:22:52Z</time>
      </trkpt>
      <trkpt lat="46.29252" lon="2.83597">
        <ele>427.8</ele>
        <time>2019-11-01T10:22:53Z</time>
      </trkpt>
      <trkpt lat="46.29247" lon="2.836">
        <ele>428</ele>
        <time>2019-11-01T10:22:54Z</time>
      </trkpt>
      <trkpt lat="46.29245" lon="2.83603">
        <ele>428.1</ele>
        <time>2019-11-01T10:22:55Z</time>
      </trkpt>
      <trkpt lat="46.29242" lon="2.83605">
        <ele>428.1</ele>
        <time>2019-11-01T10:22:56Z</time>
      </trkpt>
      <trkpt lat="46.2924" lon="2.83607">
        <ele>428.3</ele>
        <time>2019-11-01T10:22:57Z</time>
      </trkpt>
      <trkpt lat="46.29238" lon="2.83607">
        <ele>428.3</ele>
        <time>2019-11-01T10:22:58Z</time>
      </trkpt>
      <trkpt lat="46.29237" lon="2.83607">
        <ele>428.3</ele>
        <time>2019-11-01T10:22:59Z</time>
      </trkpt>
      <trkpt lat="46.29236" lon="2.83607">
        <ele>428.4</ele>
        <time>2019-11-01T10:23:00Z</time>
      </trkpt>
      <trkpt lat="46.29235" lon="2.83606">
        <ele>428.4</ele>
        <time>2019-11-01T10:23:01Z</time>
      </trkpt>
      <trkpt lat="46.29235" lon="2.83606">
        <ele>428.3</ele>
        <time>2019-11-01T10:23:02Z</time>
      </trkpt>
      <trkpt lat="46.29233" lon="2.83603">
        <ele>428.3</ele>
        <time>2019-11-01T10:23:03Z</time>
      </trkpt>
      <trkpt lat="46.29231" lon="2.83601">
        <ele>428.2</ele>
        <time>2019-11-01T10:23:04Z</time>
      </trkpt>
      <trkpt lat="46.29229" lon="2.83597">
        <ele>428.2</ele>
        <time>2019-11-01T10:23:05Z</time>
      </trkpt>
      <trkpt lat="46.29226" lon="2.83592">
        <ele>428.2</ele>
        <time>2019-11-01T10:23:06Z</time>
      </trkpt>
      <trkpt lat="46.29224" lon="2.83588">
        <ele>428.2</ele>
        <time>2019-11-01T10:23:07Z</time>
      </trkpt>
      <trkpt lat="46.29221" lon="2.83583">
        <ele>428.2</ele>
        <time>2019-11-01T10:23:08Z</time>
      </trkpt>
      <trkpt lat="46.29219" lon="2.8358">
        <ele>428.1</ele>
        <time>2019-11-01T10:23:09Z</time>
      </trkpt>
      <trkpt lat="46.29216" lon="2.83576">
        <ele>428.2</ele>
        <time>2019-11-01T10:23:10Z</time>
      </trkpt>
      <trkpt lat="46.29213" lon="2.83572">
        <ele>428.3</ele>
        <time>2019-11-01T10:23:11Z</time>
      </trkpt>
      <trkpt lat="46.2921" lon="2.83568">
        <ele>428.3</ele>
        <time>2019-11-01T10:23:12Z</time>
      </trkpt>
      <trkpt lat="46.29208" lon="2.83565">
        <ele>428.4</ele>
        <time>2019-11-01T10:23:13Z</time>
      </trkpt>
      <trkpt lat="46.29205" lon="2.83561">
        <ele>428.5</ele>
        <time>2019-11-01T10:23:14Z</time>
      </trkpt>
      <trkpt lat="46.29203" lon="2.83558">
        <ele>428.6</ele>
        <time>2019-11-01T10:23:15Z</time>
      </trkpt>
      <trkpt lat="46.292" lon="2.83554">
        <ele>428.7</ele>
        <time>2019-11-01T10:23:16Z</time>
      </trkpt>
      <trkpt lat="46.29198" lon="2.8355">
        <ele>428.8</ele>
        <time>2019-11-01T10:23:17Z</time>
      </trkpt>
      <trkpt lat="46.29196" lon="2.83547">
        <ele>428.8</ele>
        <time>2019-11-01T10:23:18Z</time>
      </trkpt>
      <trkpt lat="46.29194" lon="2.83545">
        <ele>429</ele>
        <time>2019-11-01T10:23:19Z</time>
      </trkpt>
      <trkpt lat="46.29193" lon="2.83542">
        <ele>429</ele>
        <time>2019-11-01T10:23:20Z</time>
      </trkpt>
      <trkpt lat="46.29191" lon="2.83539">
        <ele>429.3</ele>
        <time>2019-11-01T10:23:21Z</time>
      </trkpt>
      <trkpt lat="46.2919" lon="2.83537">
        <ele>429.3</ele>
        <time>2019-11-01T10:23:22Z</time>
      </trkpt>
      <trkpt lat="46.29189" lon="2.83534">
        <ele>429.3</ele>
        <time>2019-11-01T10:23:23Z</time>
      </trkpt>
      <trkpt lat="46.29188" lon="2.83532">
        <ele>429.5</ele>
        <time>2019-11-01T10:23:24Z</time>
      </trkpt>
      <trkpt lat="46.29187" lon="2.8353">
        <ele>429.5</ele>
        <time>2019-11-01T10:23:25Z</time>
      </trkpt>
      <trkpt lat="46.29186" lon="2.83528">
        <ele>429.8</ele>
        <time>2019-11-01T10:23:26Z</time>
      </trkpt>
      <trkpt lat="46.29185" lon="2.83526">
        <ele>429.8</ele>
        <time>2019-11-01T10:23:27Z</time>
      </trkpt>
      <trkpt lat="46.29183" lon="2.83525">
        <ele>429.8</ele>
        <time>2019-11-01T10:23:28Z</time>
      </trkpt>
      <trkpt lat="46.29182" lon="2.83523">
        <ele>430</ele>
        <time>2019-11-01T10:23:29Z</time>
      </trkpt>
      <trkpt lat="46.29181" lon="2.83522">
        <ele>430</ele>
        <time>2019-11-01T10:23:30Z</time>
      </trkpt>
      <trkpt lat="46.29179" lon="2.8352">
        <ele>430.3</ele>
        <time>2019-11-01T10:23:31Z</time>
      </trkpt>
      <trkpt lat="46.29178" lon="2.83518">
        <ele>430.3</ele>
        <time>2019-11-01T10:23:32Z</time>
      </trkpt>
      <trkpt lat="46.29177" lon="2.83516">
        <ele>430.3</ele>
        <time>2019-11-01T10:23:33Z</time>
      </trkpt>
      <trkpt lat="46.29176" lon="2.83515">
        <ele>430.6</ele>
        <time>2019-11-01T10:23:34Z</time>
      </trkpt>
      <trkpt lat="46.29175" lon="2.83513">
        <ele>430.6</ele>
        <time>2019-11-01T10:23:35Z</time>
      </trkpt>
      <trkpt lat="46.29174" lon="2.83511">
        <ele>431</ele>
        <time>2019-11-01T10:23:36Z</time>
      </trkpt>
      <trkpt lat="46.29172" lon="2.83509">
        <ele>431</ele>
        <time>2019-11-01T10:23:37Z</time>
      </trkpt>
      <trkpt lat="46.29171" lon="2.83507">
        <ele>431.4</ele>
        <time>2019-11-01T10:23:38Z</time>
      </trkpt>
      <trkpt lat="46.29169" lon="2.83505">
        <ele>431.4</ele>
        <time>2019-11-01T10:23:39Z</time>
      </trkpt>
      <trkpt lat="46.29168" lon="2.83504">
        <ele>431.7</ele>
        <time>2019-11-01T10:23:40Z</time>
      </trkpt>
      <trkpt lat="46.29166" lon="2.83502">
        <ele>431.9</ele>
        <time>2019-11-01T10:23:41Z</time>
      </trkpt>
      <trkpt lat="46.29165" lon="2.835">
        <ele>432.2</ele>
        <time>2019-11-01T10:23:42Z</time>
      </trkpt>
      <trkpt lat="46.29164" lon="2.83497">
        <ele>432.4</ele>
        <time>2019-11-01T10:23:43Z</time>
      </trkpt>
      <trkpt lat="46.29162" lon="2.83494">
        <ele>432.9</ele>
        <time>2019-11-01T10:23:44Z</time>
      </trkpt>
      <trkpt lat="46.29161" lon="2.83492">
        <ele>432.9</ele>
        <time>2019-11-01T10:23:45Z</time>
      </trkpt>
      <trkpt lat="46.29159" lon="2.8349">
        <ele>433.1</ele>
        <time>2019-11-01T10:23:46Z</time>
      </trkpt>
      <trkpt lat="46.29158" lon="2.83487">
        <ele>433.4</ele>
        <time>2019-11-01T10:23:47Z</time>
      </trkpt>
      <trkpt lat="46.29157" lon="2.83484">
        <ele>433.6</ele>
        <time>2019-11-01T10:23:48Z</time>
      </trkpt>
      <trkpt lat="46.29155" lon="2.8348">
        <ele>434</ele>
        <time>2019-11-01T10:23:49Z</time>
      </trkpt>
      <trkpt lat="46.29153" lon="2.83477">
        <ele>434.2</ele>
        <time>2019-11-01T10:23:50Z</time>
      </trkpt>
      <trkpt lat="46.29152" lon="2.83475">
        <ele>434.4</ele>
        <time>2019-11-01T10:23:51Z</time>
      </trkpt>
      <trkpt lat="46.29151" lon="2.83471">
        <ele>434.6</ele>
        <time>2019-11-01T10:23:52Z</time>
      </trkpt>
      <trkpt lat="46.29149" lon="2.83468">
        <ele>435</ele>
        <time>2019-11-01T10:23:53Z</time>
      </trkpt>
      <trkpt lat="46.29148" lon="2.83464">
        <ele>435.2</ele>
        <time>2019-11-01T10:23:54Z</time>
      </trkpt>
      <trkpt lat="46.29147" lon="2.83461">
        <ele>435.4</ele>
        <time>2019-11-01T10:23:55Z</time>
      </trkpt>
      <trkpt lat="46.29145" lon="2.83458">
        <ele>435.6</ele>
        <time>2019-11-01T10:23:56Z</time>
      </trkpt>
      <trkpt lat="46.29144" lon="2.83454">
        <ele>436</ele>
        <time>2019-11-01T10:23:57Z</time>
      </trkpt>
      <trkpt lat="46.29142" lon="2.83451">
        <ele>436.2</ele>
        <time>2019-11-01T10:23:58Z</time>
      </trkpt>
      <trkpt lat="46.29141" lon="2.83447">
        <ele>436.8</ele>
        <time>2019-11-01T10:23:59Z</time>
      </trkpt>
      <trkpt lat="46.2914" lon="2.83444">
        <ele>436.8</ele>
        <time>2019-11-01T10:24:00Z</time>
      </trkpt>
      <trkpt lat="46.29138" lon="2.83441">
        <ele>437.3</ele>
        <time>2019-11-01T10:24:01Z</time>
      </trkpt>
      <trkpt lat="46.29137" lon="2.83438">
        <ele>437.5</ele>
        <time>2019-11-01T10:24:02Z</time>
      </trkpt>
      <trkpt lat="46.29135" lon="2.83435">
        <ele>437.7</ele>
        <time>2019-11-01T10:24:03Z</time>
      </trkpt>
      <trkpt lat="46.29134" lon="2.83431">
        <ele>437.8</ele>
        <time>2019-11-01T10:24:04Z</time>
      </trkpt>
      <trkpt lat="46.29133" lon="2.83428">
        <ele>438</ele>
        <time>2019-11-01T10:24:05Z</time>
      </trkpt>
      <trkpt lat="46.29131" lon="2.83425">
        <ele>438.4</ele>
        <time>2019-11-01T10:24:06Z</time>
      </trkpt>
      <trkpt lat="46.2913" lon="2.83421">
        <ele>438.7</ele>
        <time>2019-11-01T10:24:07Z</time>
      </trkpt>
      <trkpt lat="46.29128" lon="2.83418">
        <ele>438.7</ele>
        <time>2019-11-01T10:24:08Z</time>
      </trkpt>
      <trkpt lat="46.29127" lon="2.83414">
        <ele>438.9</ele>
        <time>2019-11-01T10:24:09Z</time>
      </trkpt>
      <trkpt lat="46.29126" lon="2.83412">
        <ele>439.2</ele>
        <time>2019-11-01T10:24:10Z</time>
      </trkpt>
      <trkpt lat="46.29125" lon="2.83408">
        <ele>439.4</ele>
        <time>2019-11-01T10:24:11Z</time>
      </trkpt>
      <trkpt lat="46.29123" lon="2.83404">
        <ele>439.7</ele>
        <time>2019-11-01T10:24:12Z</time>
      </trkpt>
      <trkpt lat="46.29122" lon="2.83402">
        <ele>439.7</ele>
        <time>2019-11-01T10:24:13Z</time>
      </trkpt>
      <trkpt lat="46.29121" lon="2.83398">
        <ele>440</ele>
        <time>2019-11-01T10:24:14Z</time>
      </trkpt>
      <trkpt lat="46.29119" lon="2.83395">
        <ele>440.2</ele>
        <time>2019-11-01T10:24:15Z</time>
      </trkpt>
      <trkpt lat="46.29118" lon="2.83391">
        <ele>440.4</ele>
        <time>2019-11-01T10:24:16Z</time>
      </trkpt>
      <trkpt lat="46.29116" lon="2.83388">
        <ele>440.5</ele>
        <time>2019-11-01T10:24:17Z</time>
      </trkpt>
      <trkpt lat="46.29115" lon="2.83384">
        <ele>440.7</ele>
        <time>2019-11-01T10:24:18Z</time>
      </trkpt>
      <trkpt lat="46.29114" lon="2.83381">
        <ele>441</ele>
        <time>2019-11-01T10:24:19Z</time>
      </trkpt>
      <trkpt lat="46.29113" lon="2.83378">
        <ele>441.2</ele>
        <time>2019-11-01T10:24:20Z</time>
      </trkpt>
      <trkpt lat="46.29111" lon="2.83374">
        <ele>441.5</ele>
        <time>2019-11-01T10:24:21Z</time>
      </trkpt>
      <trkpt lat="46.2911" lon="2.83371">
        <ele>441.5</ele>
        <time>2019-11-01T10:24:22Z</time>
      </trkpt>
      <trkpt lat="46.29108" lon="2.83367">
        <ele>441.8</ele>
        <time>2019-11-01T10:24:23Z</time>
      </trkpt>
      <trkpt lat="46.29107" lon="2.83365">
        <ele>442</ele>
        <time>2019-11-01T10:24:24Z</time>
      </trkpt>
      <trkpt lat="46.29106" lon="2.83361">
        <ele>442.3</ele>
        <time>2019-11-01T10:24:25Z</time>
      </trkpt>
      <trkpt lat="46.29104" lon="2.83358">
        <ele>442.3</ele>
        <time>2019-11-01T10:24:26Z</time>
      </trkpt>
      <trkpt lat="46.29103" lon="2.83355">
        <ele>442.5</ele>
        <time>2019-11-01T10:24:27Z</time>
      </trkpt>
      <trkpt lat="46.29102" lon="2.83352">
        <ele>442.7</ele>
        <time>2019-11-01T10:24:28Z</time>
      </trkpt>
      <trkpt lat="46.29101" lon="2.83349">
        <ele>442.7</ele>
        <time>2019-11-01T10:24:29Z</time>
      </trkpt>
      <trkpt lat="46.291" lon="2.83346">
        <ele>442.9</ele>
        <time>2019-11-01T10:24:30Z</time>
      </trkpt>
      <trkpt lat="46.29099" lon="2.83343">
        <ele>443</ele>
        <time>2019-11-01T10:24:31Z</time>
      </trkpt>
      <trkpt lat="46.29098" lon="2.8334">
        <ele>443.1</ele>
        <time>2019-11-01T10:24:32Z</time>
      </trkpt>
      <trkpt lat="46.29097" lon="2.83337">
        <ele>443.2</ele>
        <time>2019-11-01T10:24:33Z</time>
      </trkpt>
      <trkpt lat="46.29096" lon="2.83334">
        <ele>443.3</ele>
        <time>2019-11-01T10:24:34Z</time>
      </trkpt>
      <trkpt lat="46.29095" lon="2.83331">
        <ele>443.4</ele>
        <time>2019-11-01T10:24:35Z</time>
      </trkpt>
      <trkpt lat="46.29095" lon="2.83327">
        <ele>443.4</ele>
        <time>2019-11-01T10:24:36Z</time>
      </trkpt>
      <trkpt lat="46.29094" lon="2.83324">
        <ele>443.5</ele>
        <time>2019-11-01T10:24:37Z</time>
      </trkpt>
      <trkpt lat="46.29093" lon="2.83321">
        <ele>443.6</ele>
        <time>2019-11-01T10:24:38Z</time>
      </trkpt>
      <trkpt lat="46.29093" lon="2.83317">
        <ele>443.7</ele>
        <time>2019-11-01T10:24:39Z</time>
      </trkpt>
      <trkpt lat="46.29092" lon="2.83314">
        <ele>443.8</ele>
        <time>2019-11-01T10:24:40Z</time>
      </trkpt>
      <trkpt lat="46.29092" lon="2.83311">
        <ele>443.8</ele>
        <time>2019-11-01T10:24:41Z</time>
      </trkpt>
      <trkpt lat="46.29092" lon="2.83308">
        <ele>443.9</ele>
        <time>2019-11-01T10:24:42Z</time>
      </trkpt>
      <trkpt lat="46.29091" lon="2.83305">
        <ele>444.1</ele>
        <time>2019-11-01T10:24:43Z</time>
      </trkpt>
      <trkpt lat="46.2909" lon="2.83303">
        <ele>444.1</ele>
        <time>2019-11-01T10:24:44Z</time>
      </trkpt>
      <trkpt lat="46.2909" lon="2.833">
        <ele>444.2</ele>
        <time>2019-11-01T10:24:45Z</time>
      </trkpt>
      <trkpt lat="46.29089" lon="2.83297">
        <ele>444.3</ele>
        <time>2019-11-01T10:24:46Z</time>
      </trkpt>
      <trkpt lat="46.29088" lon="2.83294">
        <ele>444.3</ele>
        <time>2019-11-01T10:24:47Z</time>
      </trkpt>
      <trkpt lat="46.29088" lon="2.83291">
        <ele>444.5</ele>
        <time>2019-11-01T10:24:48Z</time>
      </trkpt>
      <trkpt lat="46.29087" lon="2.83288">
        <ele>444.6</ele>
        <time>2019-11-01T10:24:49Z</time>
      </trkpt>
      <trkpt lat="46.29086" lon="2.83285">
        <ele>444.6</ele>
        <time>2019-11-01T10:24:50Z</time>
      </trkpt>
      <trkpt lat="46.29085" lon="2.83282">
        <ele>444.9</ele>
        <time>2019-11-01T10:24:51Z</time>
      </trkpt>
      <trkpt lat="46.29084" lon="2.83279">
        <ele>445</ele>
        <time>2019-11-01T10:24:52Z</time>
      </trkpt>
      <trkpt lat="46.29083" lon="2.83276">
        <ele>445</ele>
        <time>2019-11-01T10:24:53Z</time>
      </trkpt>
      <trkpt lat="46.29082" lon="2.83273">
        <ele>445.1</ele>
        <time>2019-11-01T10:24:54Z</time>
      </trkpt>
      <trkpt lat="46.29081" lon="2.8327">
        <ele>445.4</ele>
        <time>2019-11-01T10:24:55Z</time>
      </trkpt>
      <trkpt lat="46.2908" lon="2.83267">
        <ele>445.5</ele>
        <time>2019-11-01T10:24:56Z</time>
      </trkpt>
      <trkpt lat="46.29078" lon="2.83264">
        <ele>445.7</ele>
        <time>2019-11-01T10:24:57Z</time>
      </trkpt>
      <trkpt lat="46.29077" lon="2.8326">
        <ele>445.8</ele>
        <time>2019-11-01T10:24:58Z</time>
      </trkpt>
      <trkpt lat="46.29075" lon="2.83257">
        <ele>446</ele>
        <time>2019-11-01T10:24:59Z</time>
      </trkpt>
      <trkpt lat="46.29073" lon="2.83255">
        <ele>446</ele>
        <time>2019-11-01T10:25:00Z</time>
      </trkpt>
      <trkpt lat="46.29071" lon="2.83252">
        <ele>446.2</ele>
        <time>2019-11-01T10:25:01Z</time>
      </trkpt>
      <trkpt lat="46.29069" lon="2.8325">
        <ele>446.3</ele>
        <time>2019-11-01T10:25:02Z</time>
      </trkpt>
      <trkpt lat="46.29066" lon="2.83248">
        <ele>446.5</ele>
        <time>2019-11-01T10:25:03Z</time>
      </trkpt>
      <trkpt lat="46.29063" lon="2.83247">
        <ele>446.6</ele>
        <time>2019-11-01T10:25:04Z</time>
      </trkpt>
      <trkpt lat="46.2906" lon="2.83245">
        <ele>446.8</ele>
        <time>2019-11-01T10:25:05Z</time>
      </trkpt>
      <trkpt lat="46.29057" lon="2.83244">
        <ele>446.9</ele>
        <time>2019-11-01T10:25:06Z</time>
      </trkpt>
      <trkpt lat="46.29053" lon="2.83242">
        <ele>447.1</ele>
        <time>2019-11-01T10:25:07Z</time>
      </trkpt>
      <trkpt lat="46.2905" lon="2.83241">
        <ele>447.3</ele>
        <time>2019-11-01T10:25:08Z</time>
      </trkpt>
      <trkpt lat="46.29046" lon="2.8324">
        <ele>447.6</ele>
        <time>2019-11-01T10:25:09Z</time>
      </trkpt>
      <trkpt lat="46.29043" lon="2.83239">
        <ele>447.7</ele>
        <time>2019-11-01T10:25:10Z</time>
      </trkpt>
      <trkpt lat="46.2904" lon="2.83238">
        <ele>447.8</ele>
        <time>2019-11-01T10:25:11Z</time>
      </trkpt>
      <trkpt lat="46.29037" lon="2.83237">
        <ele>447.9</ele>
        <time>2019-11-01T10:25:12Z</time>
      </trkpt>
      <trkpt lat="46.29033" lon="2.83236">
        <ele>448.1</ele>
        <time>2019-11-01T10:25:13Z</time>
      </trkpt>
      <trkpt lat="46.2903" lon="2.83236">
        <ele>448.3</ele>
        <time>2019-11-01T10:25:14Z</time>
      </trkpt>
      <trkpt lat="46.29026" lon="2.83235">
        <ele>448.5</ele>
        <time>2019-11-01T10:25:15Z</time>
      </trkpt>
      <trkpt lat="46.29023" lon="2.83235">
        <ele>448.6</ele>
        <time>2019-11-01T10:28:15Z</time>
      </trkpt>
      <trkpt lat="46.2902" lon="2.83235">
        <ele>449</ele>
        <time>2019-11-01T10:28:16Z</time>
      </trkpt>
      <trkpt lat="46.29016" lon="2.83235">
        <ele>449.1</ele>
        <time>2019-11-01T10:28:17Z</time>
      </trkpt>
      <trkpt lat="46.29013" lon="2.83234">
        <ele>449.3</ele>
        <time>2019-11-01T10:28:18Z</time>
      </trkpt>
      <trkpt lat="46.29009" lon="2.83234">
        <ele>449.5</ele>
        <time>2019-11-01T10:28:19Z</time>
      </trkpt>
      <trkpt lat="46.29006" lon="2.83233">
        <ele>449.7</ele>
        <time>2019-11-01T10:28:20Z</time>
      </trkpt>
      <trkpt lat="46.29003" lon="2.83232">
        <ele>450</ele>
        <time>2019-11-01T10:28:21Z</time>
      </trkpt>
      <trkpt lat="46.28999" lon="2.83231">
        <ele>450.3</ele>
        <time>2019-11-01T10:28:22Z</time>
      </trkpt>
      <trkpt lat="46.28996" lon="2.8323">
        <ele>450.6</ele>
        <time>2019-11-01T10:28:23Z</time>
      </trkpt>
      <trkpt lat="46.28994" lon="2.83229">
        <ele>450.9</ele>
        <time>2019-11-01T10:28:24Z</time>
      </trkpt>
      <trkpt lat="46.28991" lon="2.83228">
        <ele>451.4</ele>
        <time>2019-11-01T10:28:25Z</time>
      </trkpt>
      <trkpt lat="46.28988" lon="2.83227">
        <ele>451.7</ele>
        <time>2019-11-01T10:28:26Z</time>
      </trkpt>
      <trkpt lat="46.28985" lon="2.83226">
        <ele>452</ele>
        <time>2019-11-01T10:28:27Z</time>
      </trkpt>
      <trkpt lat="46.28983" lon="2.83224">
        <ele>452.4</ele>
        <time>2019-11-01T10:28:28Z</time>
      </trkpt>
      <trkpt lat="46.2898" lon="2.83223">
        <ele>452.8</ele>
        <time>2019-11-01T10:28:29Z</time>
      </trkpt>
      <trkpt lat="46.28978" lon="2.83222">
        <ele>453.3</ele>
        <time>2019-11-01T10:28:30Z</time>
      </trkpt>
      <trkpt lat="46.28975" lon="2.8322">
        <ele>453.7</ele>
        <time>2019-11-01T10:28:31Z</time>
      </trkpt>
      <trkpt lat="46.28972" lon="2.83218">
        <ele>454.1</ele>
        <time>2019-11-01T10:28:32Z</time>
      </trkpt>
      <trkpt lat="46.28971" lon="2.83216">
        <ele>454.1</ele>
        <time>2019-11-01T10:28:33Z</time>
      </trkpt>
      <trkpt lat="46.28969" lon="2.83214">
        <ele>454.5</ele>
        <time>2019-11-01T10:28:34Z</time>
      </trkpt>
      <trkpt lat="46.28966" lon="2.83212">
        <ele>455</ele>
        <time>2019-11-01T10:28:35Z</time>
      </trkpt>
      <trkpt lat="46.28964" lon="2.83211">
        <ele>455</ele>
        <time>2019-11-01T10:28:36Z</time>
      </trkpt>
      <trkpt lat="46.28962" lon="2.83208">
        <ele>455.3</ele>
        <time>2019-11-01T10:28:37Z</time>
      </trkpt>
      <trkpt lat="46.2896" lon="2.83207">
        <ele>455.7</ele>
        <time>2019-11-01T10:28:38Z</time>
      </trkpt>
      <trkpt lat="46.28958" lon="2.83205">
        <ele>455.7</ele>
        <time>2019-11-01T10:28:39Z</time>
      </trkpt>
      <trkpt lat="46.28956" lon="2.83203">
        <ele>456.1</ele>
        <time>2019-11-01T10:28:40Z</time>
      </trkpt>
      <trkpt lat="46.28953" lon="2.832">
        <ele>456.4</ele>
        <time>2019-11-01T10:28:41Z</time>
      </trkpt>
      <trkpt lat="46.28951" lon="2.83198">
        <ele>456.8</ele>
        <time>2019-11-01T10:28:42Z</time>
      </trkpt>
      <trkpt lat="46.28949" lon="2.83196">
        <ele>456.8</ele>
        <time>2019-11-01T10:28:43Z</time>
      </trkpt>
      <trkpt lat="46.28947" lon="2.83194">
        <ele>457.2</ele>
        <time>2019-11-01T10:28:44Z</time>
      </trkpt>
      <trkpt lat="46.28945" lon="2.83193">
        <ele>457.5</ele>
        <time>2019-11-01T10:28:45Z</time>
      </trkpt>
      <trkpt lat="46.28942" lon="2.8319">
        <ele>457.9</ele>
        <time>2019-11-01T10:28:46Z</time>
      </trkpt>
      <trkpt lat="46.28941" lon="2.83188">
        <ele>457.9</ele>
        <time>2019-11-01T10:28:47Z</time>
      </trkpt>
      <trkpt lat="46.28938" lon="2.83186">
        <ele>458.3</ele>
        <time>2019-11-01T10:28:48Z</time>
      </trkpt>
      <trkpt lat="46.28937" lon="2.83184">
        <ele>458.5</ele>
        <time>2019-11-01T10:28:49Z</time>
      </trkpt>
      <trkpt lat="46.28934" lon="2.83181">
        <ele>458.4</ele>
        <time>2019-11-01T10:28:50Z</time>
      </trkpt>
      <trkpt lat="46.28932" lon="2.83178">
        <ele>458.7</ele>
        <time>2019-11-01T10:28:51Z</time>
      </trkpt>
      <trkpt lat="46.28931" lon="2.83176">
        <ele>458.8</ele>
        <time>2019-11-01T10:28:52Z</time>
      </trkpt>
      <trkpt lat="46.28929" lon="2.83174">
        <ele>458.8</ele>
        <time>2019-11-01T10:28:53Z</time>
      </trkpt>
      <trkpt lat="46.28927" lon="2.83171">
        <ele>458.9</ele>
        <time>2019-11-01T10:28:54Z</time>
      </trkpt>
      <trkpt lat="46.28925" lon="2.83168">
        <ele>458.9</ele>
        <time>2019-11-01T10:28:55Z</time>
      </trkpt>
      <trkpt lat="46.28923" lon="2.83166">
        <ele>458.9</ele>
        <time>2019-11-01T10:28:56Z</time>
      </trkpt>
      <trkpt lat="46.28921" lon="2.83164">
        <ele>459</ele>
        <time>2019-11-01T10:28:57Z</time>
      </trkpt>
      <trkpt lat="46.28919" lon="2.83161">
        <ele>459</ele>
        <time>2019-11-01T10:28:58Z</time>
      </trkpt>
      <trkpt lat="46.28917" lon="2.83158">
        <ele>459.1</ele>
        <time>2019-11-01T10:28:59Z</time>
      </trkpt>
      <trkpt lat="46.28916" lon="2.83156">
        <ele>459.3</ele>
        <time>2019-11-01T10:29:00Z</time>
      </trkpt>
      <trkpt lat="46.28914" lon="2.83154">
        <ele>459.2</ele>
        <time>2019-11-01T10:29:01Z</time>
      </trkpt>
      <trkpt lat="46.28912" lon="2.83152">
        <ele>459.4</ele>
        <time>2019-11-01T10:29:02Z</time>
      </trkpt>
      <trkpt lat="46.28911" lon="2.83149">
        <ele>459.2</ele>
        <time>2019-11-01T10:29:03Z</time>
      </trkpt>
      <trkpt lat="46.28908" lon="2.83146">
        <ele>459.3</ele>
        <time>2019-11-01T10:29:04Z</time>
      </trkpt>
      <trkpt lat="46.28906" lon="2.83144">
        <ele>459.4</ele>
        <time>2019-11-01T10:29:05Z</time>
      </trkpt>
      <trkpt lat="46.28905" lon="2.83142">
        <ele>459.3</ele>
        <time>2019-11-01T10:29:06Z</time>
      </trkpt>
      <trkpt lat="46.28903" lon="2.83139">
        <ele>459.4</ele>
        <time>2019-11-01T10:29:07Z</time>
      </trkpt>
      <trkpt lat="46.289" lon="2.83136">
        <ele>459.5</ele>
        <time>2019-11-01T10:29:08Z</time>
      </trkpt>
      <trkpt lat="46.28898" lon="2.83134">
        <ele>459.5</ele>
        <time>2019-11-01T10:29:09Z</time>
      </trkpt>
      <trkpt lat="46.28896" lon="2.83132">
        <ele>459.5</ele>
        <time>2019-11-01T10:29:10Z</time>
      </trkpt>
      <trkpt lat="46.28895" lon="2.83131">
        <ele>459.7</ele>
        <time>2019-11-01T10:29:11Z</time>
      </trkpt>
      <trkpt lat="46.28893" lon="2.83129">
        <ele>459.5</ele>
        <time>2019-11-01T10:29:12Z</time>
      </trkpt>
      <trkpt lat="46.2889" lon="2.83127">
        <ele>459.8</ele>
        <time>2019-11-01T10:29:13Z</time>
      </trkpt>
      <trkpt lat="46.28888" lon="2.83125">
        <ele>459.8</ele>
        <time>2019-11-01T10:29:14Z</time>
      </trkpt>
      <trkpt lat="46.28886" lon="2.83123">
        <ele>460.1</ele>
        <time>2019-11-01T10:29:15Z</time>
      </trkpt>
      <trkpt lat="46.28884" lon="2.8312">
        <ele>459.9</ele>
        <time>2019-11-01T10:29:16Z</time>
      </trkpt>
      <trkpt lat="46.28882" lon="2.83117">
        <ele>460.2</ele>
        <time>2019-11-01T10:29:17Z</time>
      </trkpt>
      <trkpt lat="46.2888" lon="2.83114">
        <ele>460.3</ele>
        <time>2019-11-01T10:29:18Z</time>
      </trkpt>
      <trkpt lat="46.28878" lon="2.83112">
        <ele>460.1</ele>
        <time>2019-11-01T10:29:19Z</time>
      </trkpt>
      <trkpt lat="46.28877" lon="2.8311">
        <ele>460.3</ele>
        <time>2019-11-01T10:29:20Z</time>
      </trkpt>
      <trkpt lat="46.28875" lon="2.83107">
        <ele>460.2</ele>
        <time>2019-11-01T10:29:21Z</time>
      </trkpt>
      <trkpt lat="46.28874" lon="2.83104">
        <ele>460.4</ele>
        <time>2019-11-01T10:29:22Z</time>
      </trkpt>
      <trkpt lat="46.28873" lon="2.83102">
        <ele>460.6</ele>
        <time>2019-11-01T10:29:23Z</time>
      </trkpt>
      <trkpt lat="46.28873" lon="2.83105">
        <ele>460.7</ele>
        <time>2019-11-01T10:29:24Z</time>
      </trkpt>
      <trkpt lat="46.28873" lon="2.83105">
        <ele>460.7</ele>
        <time>2019-11-01T10:29:25Z</time>
      </trkpt>
      <trkpt lat="46.28873" lon="2.83104">
        <ele>460.8</ele>
        <time>2019-11-01T10:29:26Z</time>
      </trkpt>
      <trkpt lat="46.28872" lon="2.83102">
        <ele>460.9</ele>
        <time>2019-11-01T10:29:27Z</time>
      </trkpt>
      <trkpt lat="46.2887" lon="2.831">
        <ele>461.2</ele>
        <time>2019-11-01T10:29:28Z</time>
      </trkpt>
      <trkpt lat="46.28868" lon="2.83098">
        <ele>461.4</ele>
        <time>2019-11-01T10:29:29Z</time>
      </trkpt>
      <trkpt lat="46.28866" lon="2.83097">
        <ele>461.6</ele>
        <time>2019-11-01T10:29:30Z</time>
      </trkpt>
      <trkpt lat="46.28864" lon="2.83095">
        <ele>461.8</ele>
        <time>2019-11-01T10:29:31Z</time>
      </trkpt>
      <trkpt lat="46.28861" lon="2.83094">
        <ele>462</ele>
        <time>2019-11-01T10:29:32Z</time>
      </trkpt>
      <trkpt lat="46.28859" lon="2.83092">
        <ele>462.2</ele>
        <time>2019-11-01T10:29:33Z</time>
      </trkpt>
      <trkpt lat="46.28856" lon="2.8309">
        <ele>462.5</ele>
        <time>2019-11-01T10:29:34Z</time>
      </trkpt>
      <trkpt lat="46.28854" lon="2.83088">
        <ele>462.6</ele>
        <time>2019-11-01T10:29:35Z</time>
      </trkpt>
      <trkpt lat="46.28852" lon="2.83086">
        <ele>462.8</ele>
        <time>2019-11-01T10:29:36Z</time>
      </trkpt>
      <trkpt lat="46.28849" lon="2.83084">
        <ele>463</ele>
        <time>2019-11-01T10:29:37Z</time>
      </trkpt>
      <trkpt lat="46.28846" lon="2.83083">
        <ele>463.2</ele>
        <time>2019-11-01T10:29:38Z</time>
      </trkpt>
      <trkpt lat="46.28844" lon="2.83082">
        <ele>463.5</ele>
        <time>2019-11-01T10:29:39Z</time>
      </trkpt>
      <trkpt lat="46.28842" lon="2.8308">
        <ele>463.6</ele>
        <time>2019-11-01T10:29:40Z</time>
      </trkpt>
      <trkpt lat="46.28839" lon="2.83079">
        <ele>463.9</ele>
        <time>2019-11-01T10:29:41Z</time>
      </trkpt>
      <trkpt lat="46.28836" lon="2.83077">
        <ele>464.2</ele>
        <time>2019-11-01T10:29:42Z</time>
      </trkpt>
      <trkpt lat="46.28834" lon="2.83075">
        <ele>464.4</ele>
        <time>2019-11-01T10:29:43Z</time>
      </trkpt>
      <trkpt lat="46.28832" lon="2.83074">
        <ele>464.5</ele>
        <time>2019-11-01T10:29:44Z</time>
      </trkpt>
      <trkpt lat="46.28829" lon="2.83072">
        <ele>464.7</ele>
        <time>2019-11-01T10:29:45Z</time>
      </trkpt>
      <trkpt lat="46.28826" lon="2.83071">
        <ele>464.8</ele>
        <time>2019-11-01T10:29:46Z</time>
      </trkpt>
      <trkpt lat="46.28824" lon="2.83069">
        <ele>465</ele>
        <time>2019-11-01T10:29:47Z</time>
      </trkpt>
      <trkpt lat="46.28821" lon="2.83068">
        <ele>465.2</ele>
        <time>2019-11-01T10:29:48Z</time>
      </trkpt>
      <trkpt lat="46.28819" lon="2.83067">
        <ele>465.3</ele>
        <time>2019-11-01T10:29:49Z</time>
      </trkpt>
      <trkpt lat="46.28816" lon="2.83066">
        <ele>465.6</ele>
        <time>2019-11-01T10:29:50Z</time>
      </trkpt>
      <trkpt lat="46.28814" lon="2.83064">
        <ele>465.8</ele>
        <time>2019-11-01T10:29:51Z</time>
      </trkpt>
      <trkpt lat="46.28811" lon="2.83062">
        <ele>466</ele>
        <time>2019-11-01T10:29:52Z</time>
      </trkpt>
      <trkpt lat="46.28809" lon="2.8306">
        <ele>466.2</ele>
        <time>2019-11-01T10:29:53Z</time>
      </trkpt>
      <trkpt lat="46.28807" lon="2.83058">
        <ele>466.4</ele>
        <time>2019-11-01T10:29:54Z</time>
      </trkpt>
      <trkpt lat="46.28804" lon="2.83057">
        <ele>466.6</ele>
        <time>2019-11-01T10:29:55Z</time>
      </trkpt>
      <trkpt lat="46.28801" lon="2.83055">
        <ele>466.8</ele>
        <time>2019-11-01T10:29:56Z</time>
      </trkpt>
      <trkpt lat="46.28799" lon="2.83053">
        <ele>467</ele>
        <time>2019-11-01T10:29:57Z</time>
      </trkpt>
      <trkpt lat="46.28797" lon="2.83051">
        <ele>467.1</ele>
        <time>2019-11-01T10:29:58Z</time>
      </trkpt>
      <trkpt lat="46.28795" lon="2.83049">
        <ele>467.1</ele>
        <time>2019-11-01T10:29:59Z</time>
      </trkpt>
      <trkpt lat="46.28792" lon="2.83046">
        <ele>467.3</ele>
        <time>2019-11-01T10:30:00Z</time>
      </trkpt>
      <trkpt lat="46.28789" lon="2.83044">
        <ele>467.3</ele>
        <time>2019-11-01T10:30:01Z</time>
      </trkpt>
      <trkpt lat="46.28787" lon="2.83042">
        <ele>467.4</ele>
        <time>2019-11-01T10:30:02Z</time>
      </trkpt>
      <trkpt lat="46.28785" lon="2.8304">
        <ele>467.5</ele>
        <time>2019-11-01T10:30:03Z</time>
      </trkpt>
      <trkpt lat="46.28783" lon="2.83037">
        <ele>467.6</ele>
        <time>2019-11-01T10:30:04Z</time>
      </trkpt>
      <trkpt lat="46.2878" lon="2.83034">
        <ele>467.7</ele>
        <time>2019-11-01T10:30:05Z</time>
      </trkpt>
      <trkpt lat="46.28778" lon="2.83032">
        <ele>467.8</ele>
        <time>2019-11-01T10:30:06Z</time>
      </trkpt>
      <trkpt lat="46.28776" lon="2.83029">
        <ele>468</ele>
        <time>2019-11-01T10:30:07Z</time>
      </trkpt>
      <trkpt lat="46.28774" lon="2.83027">
        <ele>468.1</ele>
        <time>2019-11-01T10:30:08Z</time>
      </trkpt>
      <trkpt lat="46.28772" lon="2.83024">
        <ele>468.3</ele>
        <time>2019-11-01T10:30:09Z</time>
      </trkpt>
      <trkpt lat="46.28769" lon="2.83021">
        <ele>468.5</ele>
        <time>2019-11-01T10:30:10Z</time>
      </trkpt>
      <trkpt lat="46.28767" lon="2.83019">
        <ele>468.7</ele>
        <time>2019-11-01T10:30:11Z</time>
      </trkpt>
      <trkpt lat="46.28765" lon="2.83017">
        <ele>468.8</ele>
        <time>2019-11-01T10:30:12Z</time>
      </trkpt>
      <trkpt lat="46.28763" lon="2.83014">
        <ele>468.9</ele>
        <time>2019-11-01T10:30:13Z</time>
      </trkpt>
      <trkpt lat="46.2876" lon="2.83011">
        <ele>469.1</ele>
        <time>2019-11-01T10:30:14Z</time>
      </trkpt>
      <trkpt lat="46.28758" lon="2.83008">
        <ele>469.2</ele>
        <time>2019-11-01T10:30:15Z</time>
      </trkpt>
      <trkpt lat="46.28756" lon="2.83005">
        <ele>469.4</ele>
        <time>2019-11-01T10:30:16Z</time>
      </trkpt>
      <trkpt lat="46.28754" lon="2.83003">
        <ele>469.5</ele>
        <time>2019-11-01T10:30:17Z</time>
      </trkpt>
      <trkpt lat="46.28751" lon="2.83">
        <ele>469.6</ele>
        <time>2019-11-01T10:30:18Z</time>
      </trkpt>
      <trkpt lat="46.28748" lon="2.82997">
        <ele>469.8</ele>
        <time>2019-11-01T10:30:19Z</time>
      </trkpt>
      <trkpt lat="46.28746" lon="2.82995">
        <ele>470</ele>
        <time>2019-11-01T10:30:20Z</time>
      </trkpt>
      <trkpt lat="46.28744" lon="2.82993">
        <ele>470.2</ele>
        <time>2019-11-01T10:30:21Z</time>
      </trkpt>
      <trkpt lat="46.28742" lon="2.8299">
        <ele>470.4</ele>
        <time>2019-11-01T10:30:22Z</time>
      </trkpt>
      <trkpt lat="46.28739" lon="2.82987">
        <ele>470.6</ele>
        <time>2019-11-01T10:30:23Z</time>
      </trkpt>
      <trkpt lat="46.28737" lon="2.82985">
        <ele>470.8</ele>
        <time>2019-11-01T10:30:24Z</time>
      </trkpt>
      <trkpt lat="46.28735" lon="2.82982">
        <ele>470.9</ele>
        <time>2019-11-01T10:30:25Z</time>
      </trkpt>
      <trkpt lat="46.28733" lon="2.8298">
        <ele>471</ele>
        <time>2019-11-01T10:30:26Z</time>
      </trkpt>
      <trkpt lat="46.28731" lon="2.82978">
        <ele>471.1</ele>
        <time>2019-11-01T10:30:27Z</time>
      </trkpt>
      <trkpt lat="46.28728" lon="2.82975">
        <ele>471.2</ele>
        <time>2019-11-01T10:30:28Z</time>
      </trkpt>
      <trkpt lat="46.28726" lon="2.82972">
        <ele>471.3</ele>
        <time>2019-11-01T10:30:29Z</time>
      </trkpt>
      <trkpt lat="46.28724" lon="2.82969">
        <ele>471.5</ele>
        <time>2019-11-01T10:30:30Z</time>
      </trkpt>
      <trkpt lat="46.28722" lon="2.82967">
        <ele>471.6</ele>
        <time>2019-11-01T10:30:31Z</time>
      </trkpt>
      <trkpt lat="46.2872" lon="2.82965">
        <ele>471.7</ele>
        <time>2019-11-01T10:30:32Z</time>
      </trkpt>
      <trkpt lat="46.28717" lon="2.82962">
        <ele>472</ele>
        <time>2019-11-01T10:30:33Z</time>
      </trkpt>
      <trkpt lat="46.28714" lon="2.82959">
        <ele>472.2</ele>
        <time>2019-11-01T10:30:34Z</time>
      </trkpt>
      <trkpt lat="46.28713" lon="2.82957">
        <ele>472.3</ele>
        <time>2019-11-01T10:30:35Z</time>
      </trkpt>
      <trkpt lat="46.28711" lon="2.82954">
        <ele>472.5</ele>
        <time>2019-11-01T10:30:36Z</time>
      </trkpt>
      <trkpt lat="46.28708" lon="2.82952">
        <ele>472.6</ele>
        <time>2019-11-01T10:30:37Z</time>
      </trkpt>
      <trkpt lat="46.28706" lon="2.82948">
        <ele>472.8</ele>
        <time>2019-11-01T10:30:38Z</time>
      </trkpt>
      <trkpt lat="46.28703" lon="2.82946">
        <ele>473</ele>
        <time>2019-11-01T10:30:39Z</time>
      </trkpt>
      <trkpt lat="46.28702" lon="2.82944">
        <ele>473.1</ele>
        <time>2019-11-01T10:30:40Z</time>
      </trkpt>
      <trkpt lat="46.28699" lon="2.82941">
        <ele>473.2</ele>
        <time>2019-11-01T10:30:41Z</time>
      </trkpt>
      <trkpt lat="46.28697" lon="2.82938">
        <ele>473.4</ele>
        <time>2019-11-01T10:30:42Z</time>
      </trkpt>
      <trkpt lat="46.28695" lon="2.82935">
        <ele>473.6</ele>
        <time>2019-11-01T10:30:43Z</time>
      </trkpt>
      <trkpt lat="46.28692" lon="2.82932">
        <ele>473.9</ele>
        <time>2019-11-01T10:30:44Z</time>
      </trkpt>
      <trkpt lat="46.2869" lon="2.82931">
        <ele>474.1</ele>
        <time>2019-11-01T10:30:45Z</time>
      </trkpt>
      <trkpt lat="46.28687" lon="2.82928">
        <ele>474.4</ele>
        <time>2019-11-01T10:30:46Z</time>
      </trkpt>
      <trkpt lat="46.28685" lon="2.82926">
        <ele>474.7</ele>
        <time>2019-11-01T10:30:47Z</time>
      </trkpt>
      <trkpt lat="46.28682" lon="2.82925">
        <ele>474.9</ele>
        <time>2019-11-01T10:30:48Z</time>
      </trkpt>
      <trkpt lat="46.2868" lon="2.82924">
        <ele>475.1</ele>
        <time>2019-11-01T10:30:49Z</time>
      </trkpt>
      <trkpt lat="46.28677" lon="2.82923">
        <ele>475.3</ele>
        <time>2019-11-01T10:30:50Z</time>
      </trkpt>
      <trkpt lat="46.28674" lon="2.82922">
        <ele>475.6</ele>
        <time>2019-11-01T10:30:51Z</time>
      </trkpt>
      <trkpt lat="46.28671" lon="2.82922">
        <ele>475.7</ele>
        <time>2019-11-01T10:30:52Z</time>
      </trkpt>
      <trkpt lat="46.28668" lon="2.82923">
        <ele>475.8</ele>
        <time>2019-11-01T10:30:53Z</time>
      </trkpt>
      <trkpt lat="46.28666" lon="2.82924">
        <ele>476</ele>
        <time>2019-11-01T10:30:54Z</time>
      </trkpt>
      <trkpt lat="46.28664" lon="2.82925">
        <ele>476.1</ele>
        <time>2019-11-01T10:30:55Z</time>
      </trkpt>
      <trkpt lat="46.28661" lon="2.82927">
        <ele>476.3</ele>
        <time>2019-11-01T10:30:56Z</time>
      </trkpt>
      <trkpt lat="46.28658" lon="2.82929">
        <ele>476.5</ele>
        <time>2019-11-01T10:30:57Z</time>
      </trkpt>
      <trkpt lat="46.28657" lon="2.82932">
        <ele>476.7</ele>
        <time>2019-11-01T10:30:58Z</time>
      </trkpt>
      <trkpt lat="46.28655" lon="2.82935">
        <ele>476.9</ele>
        <time>2019-11-01T10:30:59Z</time>
      </trkpt>
      <trkpt lat="46.28653" lon="2.82938">
        <ele>477.2</ele>
        <time>2019-11-01T10:31:00Z</time>
      </trkpt>
      <trkpt lat="46.28652" lon="2.82941">
        <ele>477.4</ele>
        <time>2019-11-01T10:31:01Z</time>
      </trkpt>
      <trkpt lat="46.2865" lon="2.82946">
        <ele>477.7</ele>
        <time>2019-11-01T10:31:02Z</time>
      </trkpt>
      <trkpt lat="46.28649" lon="2.82949">
        <ele>478</ele>
        <time>2019-11-01T10:31:03Z</time>
      </trkpt>
      <trkpt lat="46.28648" lon="2.82952">
        <ele>478.2</ele>
        <time>2019-11-01T10:31:04Z</time>
      </trkpt>
      <trkpt lat="46.28647" lon="2.82956">
        <ele>478.4</ele>
        <time>2019-11-01T10:31:05Z</time>
      </trkpt>
      <trkpt lat="46.28646" lon="2.82961">
        <ele>478.7</ele>
        <time>2019-11-01T10:31:06Z</time>
      </trkpt>
      <trkpt lat="46.28644" lon="2.82965">
        <ele>479</ele>
        <time>2019-11-01T10:31:07Z</time>
      </trkpt>
      <trkpt lat="46.28643" lon="2.82969">
        <ele>479.2</ele>
        <time>2019-11-01T10:31:08Z</time>
      </trkpt>
      <trkpt lat="46.28642" lon="2.82973">
        <ele>479.3</ele>
        <time>2019-11-01T10:31:09Z</time>
      </trkpt>
      <trkpt lat="46.28641" lon="2.82977">
        <ele>479.5</ele>
        <time>2019-11-01T10:31:10Z</time>
      </trkpt>
      <trkpt lat="46.2864" lon="2.82981">
        <ele>479.6</ele>
        <time>2019-11-01T10:31:11Z</time>
      </trkpt>
      <trkpt lat="46.28639" lon="2.82984">
        <ele>479.7</ele>
        <time>2019-11-01T10:31:12Z</time>
      </trkpt>
      <trkpt lat="46.28638" lon="2.82989">
        <ele>479.9</ele>
        <time>2019-11-01T10:31:13Z</time>
      </trkpt>
      <trkpt lat="46.28637" lon="2.82994">
        <ele>480.1</ele>
        <time>2019-11-01T10:31:14Z</time>
      </trkpt>
      <trkpt lat="46.28636" lon="2.82998">
        <ele>480.2</ele>
        <time>2019-11-01T10:31:15Z</time>
      </trkpt>
      <trkpt lat="46.28635" lon="2.83003">
        <ele>480.4</ele>
        <time>2019-11-01T10:31:16Z</time>
      </trkpt>
      <trkpt lat="46.28634" lon="2.83006">
        <ele>480.5</ele>
        <time>2019-11-01T10:31:17Z</time>
      </trkpt>
      <trkpt lat="46.28633" lon="2.83011">
        <ele>480.6</ele>
        <time>2019-11-01T10:31:18Z</time>
      </trkpt>
      <trkpt lat="46.28632" lon="2.83015">
        <ele>480.7</ele>
        <time>2019-11-01T10:31:19Z</time>
      </trkpt>
      <trkpt lat="46.28631" lon="2.8302">
        <ele>480.9</ele>
        <time>2019-11-01T10:31:20Z</time>
      </trkpt>
      <trkpt lat="46.2863" lon="2.83024">
        <ele>481</ele>
        <time>2019-11-01T10:31:21Z</time>
      </trkpt>
      <trkpt lat="46.28629" lon="2.83029">
        <ele>481.1</ele>
        <time>2019-11-01T10:31:22Z</time>
      </trkpt>
      <trkpt lat="46.28628" lon="2.83034">
        <ele>481.2</ele>
        <time>2019-11-01T10:31:23Z</time>
      </trkpt>
      <trkpt lat="46.28626" lon="2.83039">
        <ele>481.4</ele>
        <time>2019-11-01T10:31:24Z</time>
      </trkpt>
      <trkpt lat="46.28625" lon="2.83044">
        <ele>481.5</ele>
        <time>2019-11-01T10:31:25Z</time>
      </trkpt>
      <trkpt lat="46.28624" lon="2.83048">
        <ele>481.5</ele>
        <time>2019-11-01T10:31:26Z</time>
      </trkpt>
      <trkpt lat="46.28622" lon="2.83053">
        <ele>481.6</ele>
        <time>2019-11-01T10:31:27Z</time>
      </trkpt>
      <trkpt lat="46.2862" lon="2.83058">
        <ele>481.7</ele>
        <time>2019-11-01T10:31:28Z</time>
      </trkpt>
      <trkpt lat="46.28618" lon="2.83061">
        <ele>481.8</ele>
        <time>2019-11-01T10:31:29Z</time>
      </trkpt>
      <trkpt lat="46.28615" lon="2.83065">
        <ele>481.9</ele>
        <time>2019-11-01T10:31:30Z</time>
      </trkpt>
      <trkpt lat="46.28613" lon="2.83067">
        <ele>482</ele>
        <time>2019-11-01T10:31:31Z</time>
      </trkpt>
      <trkpt lat="46.2861" lon="2.8307">
        <ele>482.1</ele>
        <time>2019-11-01T10:31:32Z</time>
      </trkpt>
      <trkpt lat="46.28606" lon="2.83072">
        <ele>482.2</ele>
        <time>2019-11-01T10:31:33Z</time>
      </trkpt>
      <trkpt lat="46.28603" lon="2.83074">
        <ele>482.3</ele>
        <time>2019-11-01T10:31:34Z</time>
      </trkpt>
      <trkpt lat="46.286" lon="2.83075">
        <ele>482.8</ele>
        <time>2019-11-01T10:31:35Z</time>
      </trkpt>
      <trkpt lat="46.28596" lon="2.83076">
        <ele>483</ele>
        <time>2019-11-01T10:31:36Z</time>
      </trkpt>
      <trkpt lat="46.28592" lon="2.83077">
        <ele>483.3</ele>
        <time>2019-11-01T10:31:37Z</time>
      </trkpt>
      <trkpt lat="46.28588" lon="2.83077">
        <ele>483.5</ele>
        <time>2019-11-01T10:31:38Z</time>
      </trkpt>
      <trkpt lat="46.28584" lon="2.83078">
        <ele>483.8</ele>
        <time>2019-11-01T10:31:39Z</time>
      </trkpt>
      <trkpt lat="46.28582" lon="2.83078">
        <ele>483.9</ele>
        <time>2019-11-01T10:31:40Z</time>
      </trkpt>
      <trkpt lat="46.28578" lon="2.83079">
        <ele>484.2</ele>
        <time>2019-11-01T10:31:41Z</time>
      </trkpt>
      <trkpt lat="46.28573" lon="2.83079">
        <ele>484.4</ele>
        <time>2019-11-01T10:31:42Z</time>
      </trkpt>
      <trkpt lat="46.28569" lon="2.83079">
        <ele>484.6</ele>
        <time>2019-11-01T10:31:43Z</time>
      </trkpt>
      <trkpt lat="46.28565" lon="2.8308">
        <ele>484.8</ele>
        <time>2019-11-01T10:31:44Z</time>
      </trkpt>
      <trkpt lat="46.28562" lon="2.83081">
        <ele>485</ele>
        <time>2019-11-01T10:31:45Z</time>
      </trkpt>
      <trkpt lat="46.28558" lon="2.83081">
        <ele>485.2</ele>
        <time>2019-11-01T10:31:46Z</time>
      </trkpt>
      <trkpt lat="46.28555" lon="2.83082">
        <ele>485.3</ele>
        <time>2019-11-01T10:31:47Z</time>
      </trkpt>
      <trkpt lat="46.2855" lon="2.83083">
        <ele>485.6</ele>
        <time>2019-11-01T10:31:48Z</time>
      </trkpt>
      <trkpt lat="46.28547" lon="2.83083">
        <ele>485.7</ele>
        <time>2019-11-01T10:31:49Z</time>
      </trkpt>
      <trkpt lat="46.28544" lon="2.83083">
        <ele>485.9</ele>
        <time>2019-11-01T10:31:50Z</time>
      </trkpt>
      <trkpt lat="46.2854" lon="2.83083">
        <ele>486.1</ele>
        <time>2019-11-01T10:31:51Z</time>
      </trkpt>
      <trkpt lat="46.28537" lon="2.83083">
        <ele>486.2</ele>
        <time>2019-11-01T10:31:52Z</time>
      </trkpt>
      <trkpt lat="46.28533" lon="2.83084">
        <ele>486.4</ele>
        <time>2019-11-01T10:31:53Z</time>
      </trkpt>
      <trkpt lat="46.2853" lon="2.83084">
        <ele>486.5</ele>
        <time>2019-11-01T10:31:54Z</time>
      </trkpt>
      <trkpt lat="46.28527" lon="2.83084">
        <ele>486.6</ele>
        <time>2019-11-01T10:31:55Z</time>
      </trkpt>
      <trkpt lat="46.28524" lon="2.83085">
        <ele>486.7</ele>
        <time>2019-11-01T10:31:56Z</time>
      </trkpt>
      <trkpt lat="46.28521" lon="2.83085">
        <ele>486.7</ele>
        <time>2019-11-01T10:31:57Z</time>
      </trkpt>
      <trkpt lat="46.28518" lon="2.83085">
        <ele>486.8</ele>
        <time>2019-11-01T10:31:58Z</time>
      </trkpt>
      <trkpt lat="46.28515" lon="2.83085">
        <ele>486.8</ele>
        <time>2019-11-01T10:31:59Z</time>
      </trkpt>
      <trkpt lat="46.28512" lon="2.83086">
        <ele>486.8</ele>
        <time>2019-11-01T10:32:00Z</time>
      </trkpt>
      <trkpt lat="46.28509" lon="2.83086">
        <ele>486.8</ele>
        <time>2019-11-01T10:32:01Z</time>
      </trkpt>
      <trkpt lat="46.28506" lon="2.83086">
        <ele>486.8</ele>
        <time>2019-11-01T10:32:02Z</time>
      </trkpt>
      <trkpt lat="46.28503" lon="2.83087">
        <ele>486.8</ele>
        <time>2019-11-01T10:32:03Z</time>
      </trkpt>
      <trkpt lat="46.28501" lon="2.83087">
        <ele>486.8</ele>
        <time>2019-11-01T10:32:04Z</time>
      </trkpt>
      <trkpt lat="46.28498" lon="2.83087">
        <ele>486.8</ele>
        <time>2019-11-01T10:32:05Z</time>
      </trkpt>
      <trkpt lat="46.28494" lon="2.83087">
        <ele>486.8</ele>
        <time>2019-11-01T10:32:06Z</time>
      </trkpt>
      <trkpt lat="46.28491" lon="2.83087">
        <ele>486.8</ele>
        <time>2019-11-01T10:32:07Z</time>
      </trkpt>
      <trkpt lat="46.28488" lon="2.83086">
        <ele>486.8</ele>
        <time>2019-11-01T10:32:08Z</time>
      </trkpt>
      <trkpt lat="46.28484" lon="2.83085">
        <ele>486.8</ele>
        <time>2019-11-01T10:32:09Z</time>
      </trkpt>
      <trkpt lat="46.28479" lon="2.83084">
        <ele>486.7</ele>
        <time>2019-11-01T10:32:10Z</time>
      </trkpt>
      <trkpt lat="46.28474" lon="2.83083">
        <ele>486.7</ele>
        <time>2019-11-01T10:32:11Z</time>
      </trkpt>
      <trkpt lat="46.2847" lon="2.83082">
        <ele>486.7</ele>
        <time>2019-11-01T10:32:12Z</time>
      </trkpt>
      <trkpt lat="46.28465" lon="2.83081">
        <ele>486.7</ele>
        <time>2019-11-01T10:32:13Z</time>
      </trkpt>
      <trkpt lat="46.2846" lon="2.83079">
        <ele>486.7</ele>
        <time>2019-11-01T10:32:14Z</time>
      </trkpt>
      <trkpt lat="46.28456" lon="2.83078">
        <ele>486.7</ele>
        <time>2019-11-01T10:32:15Z</time>
      </trkpt>
      <trkpt lat="46.28453" lon="2.83077">
        <ele>486.6</ele>
        <time>2019-11-01T10:32:16Z</time>
      </trkpt>
      <trkpt lat="46.28451" lon="2.83076">
        <ele>486.6</ele>
        <time>2019-11-01T10:32:17Z</time>
      </trkpt>
      <trkpt lat="46.28449" lon="2.83075">
        <ele>486.6</ele>
        <time>2019-11-01T10:32:18Z</time>
      </trkpt>
      <trkpt lat="46.28448" lon="2.83074">
        <ele>486.6</ele>
        <time>2019-11-01T10:32:19Z</time>
      </trkpt>
      <trkpt lat="46.28447" lon="2.83074">
        <ele>486.6</ele>
        <time>2019-11-01T10:32:20Z</time>
      </trkpt>
      <trkpt lat="46.28446" lon="2.83074">
        <ele>486.6</ele>
        <time>2019-11-01T10:32:21Z</time>
      </trkpt>
      <trkpt lat="46.28445" lon="2.83074">
        <ele>486.6</ele>
        <time>2019-11-01T10:32:22Z</time>
      </trkpt>
      <trkpt lat="46.28444" lon="2.83074">
        <ele>486.6</ele>
        <time>2019-11-01T10:32:23Z</time>
      </trkpt>
      <trkpt lat="46.28442" lon="2.83076">
        <ele>486.6</ele>
        <time>2019-11-01T10:32:24Z</time>
      </trkpt>
      <trkpt lat="46.2844" lon="2.83078">
        <ele>486.6</ele>
        <time>2019-11-01T10:32:25Z</time>
      </trkpt>
      <trkpt lat="46.28439" lon="2.83081">
        <ele>486.6</ele>
        <time>2019-11-01T10:32:26Z</time>
      </trkpt>
      <trkpt lat="46.28437" lon="2.83084">
        <ele>486.6</ele>
        <time>2019-11-01T10:32:27Z</time>
      </trkpt>
      <trkpt lat="46.28436" lon="2.83089">
        <ele>486.6</ele>
        <time>2019-11-01T10:32:28Z</time>
      </trkpt>
      <trkpt lat="46.28435" lon="2.83094">
        <ele>486.6</ele>
        <time>2019-11-01T10:32:29Z</time>
      </trkpt>
      <trkpt lat="46.28433" lon="2.83099">
        <ele>486.6</ele>
        <time>2019-11-01T10:32:30Z</time>
      </trkpt>
      <trkpt lat="46.28433" lon="2.83103">
        <ele>486.6</ele>
        <time>2019-11-01T10:32:31Z</time>
      </trkpt>
      <trkpt lat="46.28431" lon="2.83108">
        <ele>486.6</ele>
        <time>2019-11-01T10:32:32Z</time>
      </trkpt>
      <trkpt lat="46.2843" lon="2.83114">
        <ele>486.6</ele>
        <time>2019-11-01T10:32:33Z</time>
      </trkpt>
      <trkpt lat="46.28429" lon="2.8312">
        <ele>486.6</ele>
        <time>2019-11-01T10:32:34Z</time>
      </trkpt>
      <trkpt lat="46.28428" lon="2.83124">
        <ele>486.6</ele>
        <time>2019-11-01T10:32:35Z</time>
      </trkpt>
      <trkpt lat="46.28426" lon="2.83129">
        <ele>486.6</ele>
        <time>2019-11-01T10:32:36Z</time>
      </trkpt>
      <trkpt lat="46.28425" lon="2.83136">
        <ele>486.5</ele>
        <time>2019-11-01T10:32:37Z</time>
      </trkpt>
      <trkpt lat="46.28424" lon="2.83142">
        <ele>486.5</ele>
        <time>2019-11-01T10:32:38Z</time>
      </trkpt>
      <trkpt lat="46.28423" lon="2.83149">
        <ele>486.4</ele>
        <time>2019-11-01T10:32:39Z</time>
      </trkpt>
      <trkpt lat="46.28422" lon="2.83154">
        <ele>486.4</ele>
        <time>2019-11-01T10:32:40Z</time>
      </trkpt>
      <trkpt lat="46.28421" lon="2.8316">
        <ele>486.3</ele>
        <time>2019-11-01T10:32:41Z</time>
      </trkpt>
      <trkpt lat="46.28419" lon="2.83168">
        <ele>486.2</ele>
        <time>2019-11-01T10:32:42Z</time>
      </trkpt>
      <trkpt lat="46.28419" lon="2.83174">
        <ele>486.1</ele>
        <time>2019-11-01T10:32:43Z</time>
      </trkpt>
      <trkpt lat="46.28418" lon="2.83179">
        <ele>486</ele>
        <time>2019-11-01T10:32:44Z</time>
      </trkpt>
      <trkpt lat="46.28418" lon="2.83185">
        <ele>485.9</ele>
        <time>2019-11-01T10:32:45Z</time>
      </trkpt>
      <trkpt lat="46.28416" lon="2.83193">
        <ele>485.8</ele>
        <time>2019-11-01T10:32:46Z</time>
      </trkpt>
      <trkpt lat="46.28415" lon="2.83199">
        <ele>485.8</ele>
        <time>2019-11-01T10:32:47Z</time>
      </trkpt>
      <trkpt lat="46.28414" lon="2.83206">
        <ele>485.7</ele>
        <time>2019-11-01T10:32:48Z</time>
      </trkpt>
      <trkpt lat="46.28413" lon="2.83211">
        <ele>485.7</ele>
        <time>2019-11-01T10:32:49Z</time>
      </trkpt>
      <trkpt lat="46.28412" lon="2.83217">
        <ele>485.7</ele>
        <time>2019-11-01T10:32:50Z</time>
      </trkpt>
      <trkpt lat="46.28411" lon="2.83224">
        <ele>485.7</ele>
        <time>2019-11-01T10:32:51Z</time>
      </trkpt>
      <trkpt lat="46.2841" lon="2.8323">
        <ele>485.7</ele>
        <time>2019-11-01T10:32:52Z</time>
      </trkpt>
      <trkpt lat="46.28409" lon="2.83238">
        <ele>485.8</ele>
        <time>2019-11-01T10:32:53Z</time>
      </trkpt>
      <trkpt lat="46.28408" lon="2.83244">
        <ele>485.8</ele>
        <time>2019-11-01T10:32:54Z</time>
      </trkpt>
      <trkpt lat="46.28408" lon="2.8325">
        <ele>485.8</ele>
        <time>2019-11-01T10:32:55Z</time>
      </trkpt>
      <trkpt lat="46.28407" lon="2.83257">
        <ele>485.9</ele>
        <time>2019-11-01T10:32:56Z</time>
      </trkpt>
      <trkpt lat="46.28406" lon="2.83264">
        <ele>486</ele>
        <time>2019-11-01T10:32:57Z</time>
      </trkpt>
      <trkpt lat="46.28405" lon="2.8327">
        <ele>486.1</ele>
        <time>2019-11-01T10:32:58Z</time>
      </trkpt>
      <trkpt lat="46.28404" lon="2.83276">
        <ele>486.3</ele>
        <time>2019-11-01T10:32:59Z</time>
      </trkpt>
      <trkpt lat="46.28402" lon="2.83282">
        <ele>486.5</ele>
        <time>2019-11-01T10:33:00Z</time>
      </trkpt>
      <trkpt lat="46.28399" lon="2.83286">
        <ele>486.5</ele>
        <time>2019-11-01T10:33:01Z</time>
      </trkpt>
      <trkpt lat="46.28395" lon="2.8329">
        <ele>486.2</ele>
        <time>2019-11-01T10:33:02Z</time>
      </trkpt>
      <trkpt lat="46.28391" lon="2.83292">
        <ele>486.1</ele>
        <time>2019-11-01T10:33:03Z</time>
      </trkpt>
      <trkpt lat="46.28387" lon="2.83295">
        <ele>485.9</ele>
        <time>2019-11-01T10:33:04Z</time>
      </trkpt>
      <trkpt lat="46.28382" lon="2.83299">
        <ele>485.7</ele>
        <time>2019-11-01T10:33:05Z</time>
      </trkpt>
      <trkpt lat="46.28379" lon="2.83304">
        <ele>485.6</ele>
        <time>2019-11-01T10:33:06Z</time>
      </trkpt>
      <trkpt lat="46.28376" lon="2.83307">
        <ele>485.5</ele>
        <time>2019-11-01T10:33:07Z</time>
      </trkpt>
      <trkpt lat="46.28372" lon="2.83312">
        <ele>485.3</ele>
        <time>2019-11-01T10:33:08Z</time>
      </trkpt>
      <trkpt lat="46.28369" lon="2.83318">
        <ele>485.2</ele>
        <time>2019-11-01T10:33:09Z</time>
      </trkpt>
      <trkpt lat="46.28365" lon="2.83324">
        <ele>484.6</ele>
        <time>2019-11-01T10:33:10Z</time>
      </trkpt>
      <trkpt lat="46.28361" lon="2.83328">
        <ele>484.2</ele>
        <time>2019-11-01T10:33:11Z</time>
      </trkpt>
      <trkpt lat="46.28358" lon="2.83332">
        <ele>483.9</ele>
        <time>2019-11-01T10:33:12Z</time>
      </trkpt>
      <trkpt lat="46.28353" lon="2.83336">
        <ele>483.6</ele>
        <time>2019-11-01T10:33:13Z</time>
      </trkpt>
      <trkpt lat="46.28349" lon="2.8334">
        <ele>483.2</ele>
        <time>2019-11-01T10:33:14Z</time>
      </trkpt>
      <trkpt lat="46.28344" lon="2.83343">
        <ele>482.9</ele>
        <time>2019-11-01T10:33:15Z</time>
      </trkpt>
      <trkpt lat="46.28337" lon="2.83347">
        <ele>482.5</ele>
        <time>2019-11-01T10:33:16Z</time>
      </trkpt>
      <trkpt lat="46.28333" lon="2.8335">
        <ele>482.3</ele>
        <time>2019-11-01T10:33:17Z</time>
      </trkpt>
      <trkpt lat="46.28328" lon="2.83353">
        <ele>482</ele>
        <time>2019-11-01T10:33:18Z</time>
      </trkpt>
      <trkpt lat="46.28322" lon="2.83356">
        <ele>481.7</ele>
        <time>2019-11-01T10:33:19Z</time>
      </trkpt>
      <trkpt lat="46.28315" lon="2.8336">
        <ele>481.3</ele>
        <time>2019-11-01T10:33:20Z</time>
      </trkpt>
      <trkpt lat="46.2831" lon="2.83362">
        <ele>481.1</ele>
        <time>2019-11-01T10:33:21Z</time>
      </trkpt>
      <trkpt lat="46.28304" lon="2.83365">
        <ele>480.9</ele>
        <time>2019-11-01T10:33:22Z</time>
      </trkpt>
      <trkpt lat="46.28298" lon="2.83368">
        <ele>480.6</ele>
        <time>2019-11-01T10:33:23Z</time>
      </trkpt>
      <trkpt lat="46.28291" lon="2.83371">
        <ele>480.4</ele>
        <time>2019-11-01T10:33:24Z</time>
      </trkpt>
      <trkpt lat="46.28284" lon="2.83376">
        <ele>480.2</ele>
        <time>2019-11-01T10:33:25Z</time>
      </trkpt>
      <trkpt lat="46.28279" lon="2.83379">
        <ele>480</ele>
        <time>2019-11-01T10:33:26Z</time>
      </trkpt>
      <trkpt lat="46.28273" lon="2.83385">
        <ele>479.8</ele>
        <time>2019-11-01T10:33:27Z</time>
      </trkpt>
      <trkpt lat="46.28268" lon="2.83391">
        <ele>479.7</ele>
        <time>2019-11-01T10:33:28Z</time>
      </trkpt>
      <trkpt lat="46.28263" lon="2.83397">
        <ele>479.5</ele>
        <time>2019-11-01T10:33:29Z</time>
      </trkpt>
      <trkpt lat="46.28258" lon="2.83405">
        <ele>479.4</ele>
        <time>2019-11-01T10:33:30Z</time>
      </trkpt>
      <trkpt lat="46.28254" lon="2.83412">
        <ele>479.3</ele>
        <time>2019-11-01T10:33:31Z</time>
      </trkpt>
      <trkpt lat="46.2825" lon="2.8342">
        <ele>479.1</ele>
        <time>2019-11-01T10:33:32Z</time>
      </trkpt>
      <trkpt lat="46.28245" lon="2.8343">
        <ele>479</ele>
        <time>2019-11-01T10:33:33Z</time>
      </trkpt>
      <trkpt lat="46.28241" lon="2.83437">
        <ele>478.9</ele>
        <time>2019-11-01T10:33:34Z</time>
      </trkpt>
      <trkpt lat="46.28237" lon="2.83445">
        <ele>478.8</ele>
        <time>2019-11-01T10:33:35Z</time>
      </trkpt>
      <trkpt lat="46.28233" lon="2.83452">
        <ele>478.6</ele>
        <time>2019-11-01T10:33:36Z</time>
      </trkpt>
      <trkpt lat="46.28228" lon="2.8346">
        <ele>478.5</ele>
        <time>2019-11-01T10:33:37Z</time>
      </trkpt>
      <trkpt lat="46.28222" lon="2.83468">
        <ele>478.4</ele>
        <time>2019-11-01T10:33:38Z</time>
      </trkpt>
      <trkpt lat="46.28217" lon="2.83475">
        <ele>478.2</ele>
        <time>2019-11-01T10:33:39Z</time>
      </trkpt>
      <trkpt lat="46.28212" lon="2.83482">
        <ele>478.1</ele>
        <time>2019-11-01T10:33:40Z</time>
      </trkpt>
      <trkpt lat="46.28209" lon="2.83487">
        <ele>478</ele>
        <time>2019-11-01T10:33:41Z</time>
      </trkpt>
      <trkpt lat="46.28204" lon="2.83494">
        <ele>477.9</ele>
        <time>2019-11-01T10:33:42Z</time>
      </trkpt>
      <trkpt lat="46.28199" lon="2.83502">
        <ele>477.8</ele>
        <time>2019-11-01T10:33:43Z</time>
      </trkpt>
      <trkpt lat="46.28194" lon="2.8351">
        <ele>477.7</ele>
        <time>2019-11-01T10:33:44Z</time>
      </trkpt>
      <trkpt lat="46.28191" lon="2.83516">
        <ele>477.6</ele>
        <time>2019-11-01T10:33:45Z</time>
      </trkpt>
      <trkpt lat="46.28186" lon="2.83524">
        <ele>477.5</ele>
        <time>2019-11-01T10:33:46Z</time>
      </trkpt>
      <trkpt lat="46.28181" lon="2.83533">
        <ele>477.3</ele>
        <time>2019-11-01T10:33:47Z</time>
      </trkpt>
      <trkpt lat="46.28178" lon="2.83539">
        <ele>477.2</ele>
        <time>2019-11-01T10:33:48Z</time>
      </trkpt>
      <trkpt lat="46.28173" lon="2.83549">
        <ele>477.1</ele>
        <time>2019-11-01T10:33:49Z</time>
      </trkpt>
      <trkpt lat="46.28169" lon="2.83555">
        <ele>477</ele>
        <time>2019-11-01T10:33:50Z</time>
      </trkpt>
      <trkpt lat="46.28165" lon="2.83563">
        <ele>476.9</ele>
        <time>2019-11-01T10:33:51Z</time>
      </trkpt>
      <trkpt lat="46.28161" lon="2.8357">
        <ele>476.8</ele>
        <time>2019-11-01T10:33:52Z</time>
      </trkpt>
      <trkpt lat="46.28155" lon="2.83579">
        <ele>476.7</ele>
        <time>2019-11-01T10:33:53Z</time>
      </trkpt>
      <trkpt lat="46.28151" lon="2.83586">
        <ele>476.6</ele>
        <time>2019-11-01T10:33:54Z</time>
      </trkpt>
      <trkpt lat="46.28147" lon="2.83591">
        <ele>476.5</ele>
        <time>2019-11-01T10:33:55Z</time>
      </trkpt>
      <trkpt lat="46.28141" lon="2.83597">
        <ele>476.4</ele>
        <time>2019-11-01T10:33:56Z</time>
      </trkpt>
      <trkpt lat="46.28134" lon="2.83602">
        <ele>476.4</ele>
        <time>2019-11-01T10:33:57Z</time>
      </trkpt>
      <trkpt lat="46.28128" lon="2.83604">
        <ele>476.3</ele>
        <time>2019-11-01T10:33:58Z</time>
      </trkpt>
      <trkpt lat="46.28123" lon="2.83605">
        <ele>476.3</ele>
        <time>2019-11-01T10:33:59Z</time>
      </trkpt>
      <trkpt lat="46.28117" lon="2.83607">
        <ele>476.2</ele>
        <time>2019-11-01T10:34:00Z</time>
      </trkpt>
      <trkpt lat="46.28111" lon="2.83608">
        <ele>476.2</ele>
        <time>2019-11-01T10:34:01Z</time>
      </trkpt>
      <trkpt lat="46.28104" lon="2.83609">
        <ele>476.2</ele>
        <time>2019-11-01T10:34:02Z</time>
      </trkpt>
      <trkpt lat="46.28098" lon="2.83611">
        <ele>476.1</ele>
        <time>2019-11-01T10:34:03Z</time>
      </trkpt>
      <trkpt lat="46.28093" lon="2.83612">
        <ele>476.1</ele>
        <time>2019-11-01T10:34:04Z</time>
      </trkpt>
      <trkpt lat="46.28087" lon="2.83615">
        <ele>476</ele>
        <time>2019-11-01T10:34:05Z</time>
      </trkpt>
      <trkpt lat="46.2808" lon="2.83618">
        <ele>476</ele>
        <time>2019-11-01T10:34:06Z</time>
      </trkpt>
      <trkpt lat="46.28075" lon="2.83622">
        <ele>475.9</ele>
        <time>2019-11-01T10:34:07Z</time>
      </trkpt>
      <trkpt lat="46.2807" lon="2.83627">
        <ele>475.8</ele>
        <time>2019-11-01T10:34:08Z</time>
      </trkpt>
      <trkpt lat="46.28066" lon="2.83631">
        <ele>475.7</ele>
        <time>2019-11-01T10:34:09Z</time>
      </trkpt>
      <trkpt lat="46.28062" lon="2.83636">
        <ele>475.6</ele>
        <time>2019-11-01T10:34:10Z</time>
      </trkpt>
      <trkpt lat="46.28057" lon="2.83641">
        <ele>475.5</ele>
        <time>2019-11-01T10:34:11Z</time>
      </trkpt>
      <trkpt lat="46.28053" lon="2.83647">
        <ele>475.4</ele>
        <time>2019-11-01T10:34:12Z</time>
      </trkpt>
      <trkpt lat="46.28048" lon="2.83652">
        <ele>475.2</ele>
        <time>2019-11-01T10:34:13Z</time>
      </trkpt>
      <trkpt lat="46.28043" lon="2.83658">
        <ele>475.1</ele>
        <time>2019-11-01T10:34:14Z</time>
      </trkpt>
      <trkpt lat="46.28038" lon="2.83663">
        <ele>474.9</ele>
        <time>2019-11-01T10:34:15Z</time>
      </trkpt>
      <trkpt lat="46.28033" lon="2.83668">
        <ele>474.7</ele>
        <time>2019-11-01T10:34:30Z</time>
      </trkpt>
      <trkpt lat="46.28026" lon="2.83674">
        <ele>474.4</ele>
        <time>2019-11-01T10:34:31Z</time>
      </trkpt>
      <trkpt lat="46.28022" lon="2.83678">
        <ele>474.2</ele>
        <time>2019-11-01T10:34:32Z</time>
      </trkpt>
      <trkpt lat="46.28016" lon="2.83683">
        <ele>473.9</ele>
        <time>2019-11-01T10:34:33Z</time>
      </trkpt>
      <trkpt lat="46.2801" lon="2.83688">
        <ele>473.6</ele>
        <time>2019-11-01T10:34:34Z</time>
      </trkpt>
      <trkpt lat="46.28005" lon="2.83694">
        <ele>473.3</ele>
        <time>2019-11-01T10:34:35Z</time>
      </trkpt>
      <trkpt lat="46.27998" lon="2.83701">
        <ele>473</ele>
        <time>2019-11-01T10:34:36Z</time>
      </trkpt>
      <trkpt lat="46.27994" lon="2.83706">
        <ele>472.8</ele>
        <time>2019-11-01T10:34:37Z</time>
      </trkpt>
      <trkpt lat="46.27989" lon="2.83713">
        <ele>472.6</ele>
        <time>2019-11-01T10:34:38Z</time>
      </trkpt>
      <trkpt lat="46.27985" lon="2.8372">
        <ele>472.4</ele>
        <time>2019-11-01T10:34:39Z</time>
      </trkpt>
      <trkpt lat="46.27982" lon="2.83728">
        <ele>472.3</ele>
        <time>2019-11-01T10:34:40Z</time>
      </trkpt>
      <trkpt lat="46.27979" lon="2.83736">
        <ele>472.2</ele>
        <time>2019-11-01T10:34:41Z</time>
      </trkpt>
      <trkpt lat="46.27977" lon="2.83743">
        <ele>472.1</ele>
        <time>2019-11-01T10:34:50Z</time>
      </trkpt>
      <trkpt lat="46.27975" lon="2.83749">
        <ele>472.1</ele>
        <time>2019-11-01T10:34:51Z</time>
      </trkpt>
      <trkpt lat="46.27973" lon="2.83753">
        <ele>472.1</ele>
        <time>2019-11-01T10:34:52Z</time>
      </trkpt>
      <trkpt lat="46.27971" lon="2.83757">
        <ele>472</ele>
        <time>2019-11-01T10:34:53Z</time>
      </trkpt>
      <trkpt lat="46.27969" lon="2.8376">
        <ele>472</ele>
        <time>2019-11-01T10:34:54Z</time>
      </trkpt>
      <trkpt lat="46.27967" lon="2.83763">
        <ele>472</ele>
        <time>2019-11-01T10:34:55Z</time>
      </trkpt>
      <trkpt lat="46.27966" lon="2.83765">
        <ele>472</ele>
        <time>2019-11-01T10:34:56Z</time>
      </trkpt>
      <trkpt lat="46.27964" lon="2.83766">
        <ele>472</ele>
        <time>2019-11-01T10:34:57Z</time>
      </trkpt>
      <trkpt lat="46.27963" lon="2.83768">
        <ele>472</ele>
        <time>2019-11-01T10:34:58Z</time>
      </trkpt>
      <trkpt lat="46.27962" lon="2.83768">
        <ele>472</ele>
        <time>2019-11-01T10:34:59Z</time>
      </trkpt>
      <trkpt lat="46.2796" lon="2.83769">
        <ele>472</ele>
        <time>2019-11-01T10:35:00Z</time>
      </trkpt>
      <trkpt lat="46.27959" lon="2.8377">
        <ele>472</ele>
        <time>2019-11-01T10:35:01Z</time>
      </trkpt>
      <trkpt lat="46.27958" lon="2.8377">
        <ele>472</ele>
        <time>2019-11-01T10:35:02Z</time>
      </trkpt>
      <trkpt lat="46.27957" lon="2.8377">
        <ele>472</ele>
        <time>2019-11-01T10:35:03Z</time>
      </trkpt>
      <trkpt lat="46.27955" lon="2.8377">
        <ele>472</ele>
        <time>2019-11-01T10:35:04Z</time>
      </trkpt>
      <trkpt lat="46.27954" lon="2.83769">
        <ele>472</ele>
        <time>2019-11-01T10:35:05Z</time>
      </trkpt>
      <trkpt lat="46.27952" lon="2.83769">
        <ele>472</ele>
        <time>2019-11-01T10:35:06Z</time>
      </trkpt>
      <trkpt lat="46.27951" lon="2.83769">
        <ele>472</ele>
        <time>2019-11-01T10:35:07Z</time>
      </trkpt>
      <trkpt lat="46.2795" lon="2.83769">
        <ele>472</ele>
        <time>2019-11-01T10:35:08Z</time>
      </trkpt>
      <trkpt lat="46.27949" lon="2.83768">
        <ele>472</ele>
        <time>2019-11-01T10:35:09Z</time>
      </trkpt>
      <trkpt lat="46.27948" lon="2.83768">
        <ele>472</ele>
        <time>2019-11-01T10:35:10Z</time>
      </trkpt>
      <trkpt lat="46.27947" lon="2.83768">
        <ele>472</ele>
        <time>2019-11-01T10:35:11Z</time>
      </trkpt>
      <trkpt lat="46.27945" lon="2.83767">
        <ele>472.1</ele>
        <time>2019-11-01T10:35:12Z</time>
      </trkpt>
      <trkpt lat="46.27944" lon="2.83767">
        <ele>472.1</ele>
        <time>2019-11-01T10:35:13Z</time>
      </trkpt>
      <trkpt lat="46.27942" lon="2.83767">
        <ele>472.1</ele>
        <time>2019-11-01T10:35:14Z</time>
      </trkpt>
      <trkpt lat="46.27941" lon="2.83767">
        <ele>472.1</ele>
        <time>2019-11-01T10:35:15Z</time>
      </trkpt>
      <trkpt lat="46.27939" lon="2.83767">
        <ele>472.2</ele>
        <time>2019-11-01T10:35:16Z</time>
      </trkpt>
      <trkpt lat="46.27937" lon="2.83767">
        <ele>472.2</ele>
        <time>2019-11-01T10:35:17Z</time>
      </trkpt>
      <trkpt lat="46.27936" lon="2.83767">
        <ele>472.2</ele>
        <time>2019-11-01T10:35:18Z</time>
      </trkpt>
      <trkpt lat="46.27934" lon="2.83768">
        <ele>472.2</ele>
        <time>2019-11-01T10:35:19Z</time>
      </trkpt>
      <trkpt lat="46.27932" lon="2.83768">
        <ele>472.3</ele>
        <time>2019-11-01T10:35:20Z</time>
      </trkpt>
      <trkpt lat="46.27931" lon="2.83769">
        <ele>472.3</ele>
        <time>2019-11-01T10:35:21Z</time>
      </trkpt>
      <trkpt lat="46.2793" lon="2.83769">
        <ele>472.3</ele>
        <time>2019-11-01T10:35:22Z</time>
      </trkpt>
      <trkpt lat="46.27928" lon="2.83769">
        <ele>472.3</ele>
        <time>2019-11-01T10:35:23Z</time>
      </trkpt>
      <trkpt lat="46.27927" lon="2.83769">
        <ele>472.4</ele>
        <time>2019-11-01T10:35:24Z</time>
      </trkpt>
      <trkpt lat="46.27925" lon="2.8377">
        <ele>472.4</ele>
        <time>2019-11-01T10:35:25Z</time>
      </trkpt>
      <trkpt lat="46.27924" lon="2.8377">
        <ele>472.5</ele>
        <time>2019-11-01T10:35:26Z</time>
      </trkpt>
      <trkpt lat="46.27923" lon="2.83771">
        <ele>472.5</ele>
        <time>2019-11-01T10:35:27Z</time>
      </trkpt>
      <trkpt lat="46.27921" lon="2.83771">
        <ele>472.5</ele>
        <time>2019-11-01T10:35:28Z</time>
      </trkpt>
      <trkpt lat="46.2792" lon="2.83772">
        <ele>472.6</ele>
        <time>2019-11-01T10:35:29Z</time>
      </trkpt>
      <trkpt lat="46.27918" lon="2.83773">
        <ele>472.6</ele>
        <time>2019-11-01T10:35:30Z</time>
      </trkpt>
      <trkpt lat="46.27917" lon="2.83774">
        <ele>472.7</ele>
        <time>2019-11-01T10:35:31Z</time>
      </trkpt>
      <trkpt lat="46.27916" lon="2.83775">
        <ele>472.7</ele>
        <time>2019-11-01T10:35:32Z</time>
      </trkpt>
      <trkpt lat="46.27915" lon="2.83776">
        <ele>472.7</ele>
        <time>2019-11-01T10:35:33Z</time>
      </trkpt>
      <trkpt lat="46.27914" lon="2.83777">
        <ele>472.8</ele>
        <time>2019-11-01T10:35:34Z</time>
      </trkpt>
      <trkpt lat="46.27913" lon="2.83778">
        <ele>472.8</ele>
        <time>2019-11-01T10:35:35Z</time>
      </trkpt>
      <trkpt lat="46.27912" lon="2.83779">
        <ele>472.8</ele>
        <time>2019-11-01T10:35:36Z</time>
      </trkpt>
      <trkpt lat="46.27912" lon="2.83779">
        <ele>472.9</ele>
        <time>2019-11-01T10:35:37Z</time>
      </trkpt>
      <trkpt lat="46.27911" lon="2.8378">
        <ele>472.9</ele>
        <time>2019-11-01T10:35:38Z</time>
      </trkpt>
      <trkpt lat="46.27909" lon="2.83781">
        <ele>473</ele>
        <time>2019-11-01T10:35:39Z</time>
      </trkpt>
      <trkpt lat="46.27908" lon="2.83782">
        <ele>473</ele>
        <time>2019-11-01T10:35:40Z</time>
      </trkpt>
      <trkpt lat="46.27907" lon="2.83784">
        <ele>473.1</ele>
        <time>2019-11-01T10:35:41Z</time>
      </trkpt>
      <trkpt lat="46.27907" lon="2.83785">
        <ele>473.1</ele>
        <time>2019-11-01T10:35:42Z</time>
      </trkpt>
      <trkpt lat="46.27905" lon="2.83787">
        <ele>473.2</ele>
        <time>2019-11-01T10:35:43Z</time>
      </trkpt>
      <trkpt lat="46.27904" lon="2.83789">
        <ele>473.3</ele>
        <time>2019-11-01T10:35:44Z</time>
      </trkpt>
      <trkpt lat="46.27903" lon="2.8379">
        <ele>473.3</ele>
        <time>2019-11-01T10:35:45Z</time>
      </trkpt>
      <trkpt lat="46.27903" lon="2.8379">
        <ele>473.4</ele>
        <time>2019-11-01T10:35:46Z</time>
      </trkpt>
      <trkpt lat="46.279" lon="2.83795">
        <ele>473.6</ele>
        <time>2019-11-01T10:35:47Z</time>
      </trkpt>
      <trkpt lat="46.279" lon="2.83796">
        <ele>473.7</ele>
        <time>2019-11-01T10:35:48Z</time>
      </trkpt>
      <trkpt lat="46.27898" lon="2.83798">
        <ele>473.7</ele>
        <time>2019-11-01T10:35:49Z</time>
      </trkpt>
      <trkpt lat="46.27897" lon="2.83799">
        <ele>473.9</ele>
        <time>2019-11-01T10:35:50Z</time>
      </trkpt>
      <trkpt lat="46.27896" lon="2.838">
        <ele>473.9</ele>
        <time>2019-11-01T10:35:51Z</time>
      </trkpt>
      <trkpt lat="46.27894" lon="2.83801">
        <ele>474</ele>
        <time>2019-11-01T10:35:52Z</time>
      </trkpt>
      <trkpt lat="46.27893" lon="2.83802">
        <ele>474.1</ele>
        <time>2019-11-01T10:35:53Z</time>
      </trkpt>
      <trkpt lat="46.27892" lon="2.83803">
        <ele>474.2</ele>
        <time>2019-11-01T10:35:54Z</time>
      </trkpt>
      <trkpt lat="46.27891" lon="2.83803">
        <ele>474.2</ele>
        <time>2019-11-01T10:35:55Z</time>
      </trkpt>
      <trkpt lat="46.27891" lon="2.83803">
        <ele>474.2</ele>
        <time>2019-11-01T10:35:56Z</time>
      </trkpt>
      <trkpt lat="46.27891" lon="2.83804">
        <ele>474.3</ele>
        <time>2019-11-01T10:35:57Z</time>
      </trkpt>
      <trkpt lat="46.2789" lon="2.83804">
        <ele>474.3</ele>
        <time>2019-11-01T10:35:58Z</time>
      </trkpt>
      <trkpt lat="46.27885" lon="2.83811">
        <ele>474.8</ele>
        <time>2019-11-01T10:35:59Z</time>
      </trkpt>
      <trkpt lat="46.27883" lon="2.83813">
        <ele>474.9</ele>
        <time>2019-11-01T10:36:00Z</time>
      </trkpt>
      <trkpt lat="46.27882" lon="2.83816">
        <ele>475.1</ele>
        <time>2019-11-01T10:36:01Z</time>
      </trkpt>
      <trkpt lat="46.27881" lon="2.83818">
        <ele>475.2</ele>
        <time>2019-11-01T10:36:02Z</time>
      </trkpt>
      <trkpt lat="46.27879" lon="2.83821">
        <ele>475.4</ele>
        <time>2019-11-01T10:36:03Z</time>
      </trkpt>
      <trkpt lat="46.27878" lon="2.83824">
        <ele>475.6</ele>
        <time>2019-11-01T10:36:04Z</time>
      </trkpt>
      <trkpt lat="46.27876" lon="2.83827">
        <ele>475.7</ele>
        <time>2019-11-01T10:36:05Z</time>
      </trkpt>
      <trkpt lat="46.27875" lon="2.83829">
        <ele>475.9</ele>
        <time>2019-11-01T10:36:06Z</time>
      </trkpt>
      <trkpt lat="46.27873" lon="2.83832">
        <ele>476</ele>
        <time>2019-11-01T10:36:07Z</time>
      </trkpt>
      <trkpt lat="46.27871" lon="2.83834">
        <ele>476.2</ele>
        <time>2019-11-01T10:36:08Z</time>
      </trkpt>
      <trkpt lat="46.27869" lon="2.83837">
        <ele>476.3</ele>
        <time>2019-11-01T10:36:09Z</time>
      </trkpt>
      <trkpt lat="46.27867" lon="2.8384">
        <ele>476.5</ele>
        <time>2019-11-01T10:36:10Z</time>
      </trkpt>
      <trkpt lat="46.27865" lon="2.83842">
        <ele>476.7</ele>
        <time>2019-11-01T10:36:11Z</time>
      </trkpt>
      <trkpt lat="46.27863" lon="2.83845">
        <ele>476.8</ele>
        <time>2019-11-01T10:36:12Z</time>
      </trkpt>
      <trkpt lat="46.27861" lon="2.83848">
        <ele>477</ele>
        <time>2019-11-01T10:36:13Z</time>
      </trkpt>
      <trkpt lat="46.2786" lon="2.83852">
        <ele>477.2</ele>
        <time>2019-11-01T10:36:14Z</time>
      </trkpt>
      <trkpt lat="46.27858" lon="2.83855">
        <ele>477.3</ele>
        <time>2019-11-01T10:36:15Z</time>
      </trkpt>
      <trkpt lat="46.27857" lon="2.83858">
        <ele>477.5</ele>
        <time>2019-11-01T10:36:16Z</time>
      </trkpt>
      <trkpt lat="46.27855" lon="2.83861">
        <ele>477.7</ele>
        <time>2019-11-01T10:36:17Z</time>
      </trkpt>
      <trkpt lat="46.27854" lon="2.83865">
        <ele>477.8</ele>
        <time>2019-11-01T10:36:18Z</time>
      </trkpt>
      <trkpt lat="46.27853" lon="2.83869">
        <ele>478</ele>
        <time>2019-11-01T10:36:19Z</time>
      </trkpt>
      <trkpt lat="46.27851" lon="2.83873">
        <ele>478.2</ele>
        <time>2019-11-01T10:36:20Z</time>
      </trkpt>
      <trkpt lat="46.2785" lon="2.83877">
        <ele>478.4</ele>
        <time>2019-11-01T10:36:21Z</time>
      </trkpt>
      <trkpt lat="46.2785" lon="2.83881">
        <ele>478.5</ele>
        <time>2019-11-01T10:36:22Z</time>
      </trkpt>
      <trkpt lat="46.27849" lon="2.83885">
        <ele>478.8</ele>
        <time>2019-11-01T10:36:23Z</time>
      </trkpt>
      <trkpt lat="46.27848" lon="2.83889">
        <ele>479</ele>
        <time>2019-11-01T10:36:24Z</time>
      </trkpt>
      <trkpt lat="46.27847" lon="2.83892">
        <ele>479.1</ele>
        <time>2019-11-01T10:36:25Z</time>
      </trkpt>
      <trkpt lat="46.27845" lon="2.83896">
        <ele>479.3</ele>
        <time>2019-11-01T10:36:26Z</time>
      </trkpt>
      <trkpt lat="46.27843" lon="2.839">
        <ele>479.3</ele>
        <time>2019-11-01T10:36:27Z</time>
      </trkpt>
      <trkpt lat="46.2784" lon="2.83903">
        <ele>479.3</ele>
        <time>2019-11-01T10:36:28Z</time>
      </trkpt>
      <trkpt lat="46.27838" lon="2.83906">
        <ele>479.3</ele>
        <time>2019-11-01T10:36:29Z</time>
      </trkpt>
      <trkpt lat="46.27836" lon="2.83909">
        <ele>479.2</ele>
        <time>2019-11-01T10:36:30Z</time>
      </trkpt>
      <trkpt lat="46.27833" lon="2.83912">
        <ele>479.2</ele>
        <time>2019-11-01T10:36:31Z</time>
      </trkpt>
      <trkpt lat="46.2783" lon="2.83916">
        <ele>479.2</ele>
        <time>2019-11-01T10:36:32Z</time>
      </trkpt>
      <trkpt lat="46.27826" lon="2.83918">
        <ele>479.2</ele>
        <time>2019-11-01T10:36:33Z</time>
      </trkpt>
      <trkpt lat="46.27824" lon="2.8392">
        <ele>479.1</ele>
        <time>2019-11-01T10:36:34Z</time>
      </trkpt>
      <trkpt lat="46.2782" lon="2.83922">
        <ele>479.1</ele>
        <time>2019-11-01T10:36:35Z</time>
      </trkpt>
      <trkpt lat="46.27817" lon="2.83924">
        <ele>479.1</ele>
        <time>2019-11-01T10:36:36Z</time>
      </trkpt>
      <trkpt lat="46.27813" lon="2.83925">
        <ele>479.1</ele>
        <time>2019-11-01T10:36:37Z</time>
      </trkpt>
      <trkpt lat="46.27809" lon="2.83927">
        <ele>479</ele>
        <time>2019-11-01T10:36:38Z</time>
      </trkpt>
      <trkpt lat="46.27806" lon="2.83929">
        <ele>478.9</ele>
        <time>2019-11-01T10:36:39Z</time>
      </trkpt>
      <trkpt lat="46.27803" lon="2.83933">
        <ele>478.8</ele>
        <time>2019-11-01T10:36:40Z</time>
      </trkpt>
      <trkpt lat="46.27801" lon="2.83937">
        <ele>478.7</ele>
        <time>2019-11-01T10:36:41Z</time>
      </trkpt>
      <trkpt lat="46.27799" lon="2.83942">
        <ele>478.6</ele>
        <time>2019-11-01T10:36:42Z</time>
      </trkpt>
      <trkpt lat="46.27797" lon="2.83946">
        <ele>478.5</ele>
        <time>2019-11-01T10:36:43Z</time>
      </trkpt>
      <trkpt lat="46.27795" lon="2.8395">
        <ele>478.4</ele>
        <time>2019-11-01T10:36:44Z</time>
      </trkpt>
      <trkpt lat="46.27793" lon="2.83955">
        <ele>478.2</ele>
        <time>2019-11-01T10:36:45Z</time>
      </trkpt>
      <trkpt lat="46.27791" lon="2.83962">
        <ele>478</ele>
        <time>2019-11-01T10:36:46Z</time>
      </trkpt>
      <trkpt lat="46.27789" lon="2.83969">
        <ele>477.8</ele>
        <time>2019-11-01T10:36:47Z</time>
      </trkpt>
      <trkpt lat="46.27788" lon="2.83974">
        <ele>477.7</ele>
        <time>2019-11-01T10:36:48Z</time>
      </trkpt>
      <trkpt lat="46.27786" lon="2.8398">
        <ele>477.5</ele>
        <time>2019-11-01T10:36:49Z</time>
      </trkpt>
      <trkpt lat="46.27784" lon="2.83987">
        <ele>477.3</ele>
        <time>2019-11-01T10:36:50Z</time>
      </trkpt>
      <trkpt lat="46.27783" lon="2.83995">
        <ele>477</ele>
        <time>2019-11-01T10:36:51Z</time>
      </trkpt>
      <trkpt lat="46.27781" lon="2.84002">
        <ele>476.8</ele>
        <time>2019-11-01T10:36:52Z</time>
      </trkpt>
      <trkpt lat="46.2778" lon="2.84007">
        <ele>476.6</ele>
        <time>2019-11-01T10:36:53Z</time>
      </trkpt>
      <trkpt lat="46.27778" lon="2.84014">
        <ele>476.3</ele>
        <time>2019-11-01T10:36:54Z</time>
      </trkpt>
      <trkpt lat="46.27775" lon="2.84021">
        <ele>476</ele>
        <time>2019-11-01T10:36:55Z</time>
      </trkpt>
      <trkpt lat="46.27772" lon="2.84026">
        <ele>475.8</ele>
        <time>2019-11-01T10:36:56Z</time>
      </trkpt>
      <trkpt lat="46.27768" lon="2.8403">
        <ele>475.5</ele>
        <time>2019-11-01T10:36:57Z</time>
      </trkpt>
      <trkpt lat="46.27764" lon="2.84033">
        <ele>475.3</ele>
        <time>2019-11-01T10:36:58Z</time>
      </trkpt>
      <trkpt lat="46.2776" lon="2.84036">
        <ele>475.1</ele>
        <time>2019-11-01T10:36:59Z</time>
      </trkpt>
      <trkpt lat="46.27755" lon="2.84039">
        <ele>474.8</ele>
        <time>2019-11-01T10:37:00Z</time>
      </trkpt>
      <trkpt lat="46.2775" lon="2.84042">
        <ele>474.6</ele>
        <time>2019-11-01T10:37:01Z</time>
      </trkpt>
      <trkpt lat="46.27745" lon="2.84044">
        <ele>474.3</ele>
        <time>2019-11-01T10:37:02Z</time>
      </trkpt>
      <trkpt lat="46.2774" lon="2.84047">
        <ele>474</ele>
        <time>2019-11-01T10:37:03Z</time>
      </trkpt>
      <trkpt lat="46.27734" lon="2.8405">
        <ele>473.7</ele>
        <time>2019-11-01T10:37:04Z</time>
      </trkpt>
      <trkpt lat="46.27728" lon="2.84053">
        <ele>473.3</ele>
        <time>2019-11-01T10:37:05Z</time>
      </trkpt>
      <trkpt lat="46.27723" lon="2.84056">
        <ele>473</ele>
        <time>2019-11-01T10:37:06Z</time>
      </trkpt>
      <trkpt lat="46.27717" lon="2.84058">
        <ele>472.7</ele>
        <time>2019-11-01T10:37:07Z</time>
      </trkpt>
      <trkpt lat="46.27713" lon="2.8406">
        <ele>472.5</ele>
        <time>2019-11-01T10:37:08Z</time>
      </trkpt>
      <trkpt lat="46.27708" lon="2.84062">
        <ele>472.2</ele>
        <time>2019-11-01T10:37:09Z</time>
      </trkpt>
      <trkpt lat="46.27702" lon="2.84065">
        <ele>471.8</ele>
        <time>2019-11-01T10:37:10Z</time>
      </trkpt>
      <trkpt lat="46.27695" lon="2.84067">
        <ele>471.4</ele>
        <time>2019-11-01T10:37:11Z</time>
      </trkpt>
      <trkpt lat="46.2769" lon="2.84069">
        <ele>471.1</ele>
        <time>2019-11-01T10:37:12Z</time>
      </trkpt>
      <trkpt lat="46.27685" lon="2.84072">
        <ele>470.8</ele>
        <time>2019-11-01T10:37:13Z</time>
      </trkpt>
      <trkpt lat="46.27679" lon="2.84074">
        <ele>470.4</ele>
        <time>2019-11-01T10:37:14Z</time>
      </trkpt>
      <trkpt lat="46.27673" lon="2.84077">
        <ele>470</ele>
        <time>2019-11-01T10:37:15Z</time>
      </trkpt>
      <trkpt lat="46.27666" lon="2.8408">
        <ele>469.5</ele>
        <time>2019-11-01T10:37:16Z</time>
      </trkpt>
      <trkpt lat="46.27662" lon="2.84082">
        <ele>469.2</ele>
        <time>2019-11-01T10:37:17Z</time>
      </trkpt>
      <trkpt lat="46.27656" lon="2.84084">
        <ele>468.8</ele>
        <time>2019-11-01T10:37:18Z</time>
      </trkpt>
      <trkpt lat="46.27649" lon="2.84087">
        <ele>468.3</ele>
        <time>2019-11-01T10:37:19Z</time>
      </trkpt>
      <trkpt lat="46.27644" lon="2.8409">
        <ele>467.9</ele>
        <time>2019-11-01T10:37:20Z</time>
      </trkpt>
      <trkpt lat="46.27639" lon="2.84093">
        <ele>467.5</ele>
        <time>2019-11-01T10:37:21Z</time>
      </trkpt>
      <trkpt lat="46.27633" lon="2.84098">
        <ele>467.2</ele>
        <time>2019-11-01T10:37:22Z</time>
      </trkpt>
      <trkpt lat="46.27627" lon="2.84102">
        <ele>466.8</ele>
        <time>2019-11-01T10:37:23Z</time>
      </trkpt>
      <trkpt lat="46.27622" lon="2.84107">
        <ele>466.4</ele>
        <time>2019-11-01T10:37:24Z</time>
      </trkpt>
      <trkpt lat="46.27615" lon="2.84113">
        <ele>466</ele>
        <time>2019-11-01T10:37:25Z</time>
      </trkpt>
      <trkpt lat="46.2761" lon="2.84118">
        <ele>465.7</ele>
        <time>2019-11-01T10:37:26Z</time>
      </trkpt>
      <trkpt lat="46.27605" lon="2.84124">
        <ele>465.5</ele>
        <time>2019-11-01T10:37:27Z</time>
      </trkpt>
      <trkpt lat="46.27599" lon="2.84131">
        <ele>465.2</ele>
        <time>2019-11-01T10:37:28Z</time>
      </trkpt>
      <trkpt lat="46.27593" lon="2.8414">
        <ele>464.9</ele>
        <time>2019-11-01T10:37:29Z</time>
      </trkpt>
      <trkpt lat="46.27588" lon="2.84147">
        <ele>464.7</ele>
        <time>2019-11-01T10:37:30Z</time>
      </trkpt>
      <trkpt lat="46.27585" lon="2.84153">
        <ele>464.6</ele>
        <time>2019-11-01T10:37:31Z</time>
      </trkpt>
      <trkpt lat="46.2758" lon="2.8416">
        <ele>464.6</ele>
        <time>2019-11-01T10:37:32Z</time>
      </trkpt>
      <trkpt lat="46.27575" lon="2.84167">
        <ele>464.6</ele>
        <time>2019-11-01T10:37:33Z</time>
      </trkpt>
      <trkpt lat="46.27571" lon="2.84172">
        <ele>464.6</ele>
        <time>2019-11-01T10:37:34Z</time>
      </trkpt>
      <trkpt lat="46.27567" lon="2.84176">
        <ele>464.6</ele>
        <time>2019-11-01T10:37:35Z</time>
      </trkpt>
      <trkpt lat="46.27564" lon="2.84179">
        <ele>464.7</ele>
        <time>2019-11-01T10:37:36Z</time>
      </trkpt>
      <trkpt lat="46.27561" lon="2.84182">
        <ele>464.9</ele>
        <time>2019-11-01T10:37:37Z</time>
      </trkpt>
      <trkpt lat="46.27557" lon="2.84186">
        <ele>465.1</ele>
        <time>2019-11-01T10:37:38Z</time>
      </trkpt>
      <trkpt lat="46.27554" lon="2.8419">
        <ele>465.3</ele>
        <time>2019-11-01T10:37:39Z</time>
      </trkpt>
      <trkpt lat="46.27552" lon="2.84193">
        <ele>465.4</ele>
        <time>2019-11-01T10:37:40Z</time>
      </trkpt>
      <trkpt lat="46.2755" lon="2.84196">
        <ele>465.5</ele>
        <time>2019-11-01T10:37:41Z</time>
      </trkpt>
      <trkpt lat="46.27549" lon="2.842">
        <ele>465.8</ele>
        <time>2019-11-01T10:37:42Z</time>
      </trkpt>
      <trkpt lat="46.27547" lon="2.84203">
        <ele>466</ele>
        <time>2019-11-01T10:37:43Z</time>
      </trkpt>
      <trkpt lat="46.27547" lon="2.84207">
        <ele>466.2</ele>
        <time>2019-11-01T10:37:44Z</time>
      </trkpt>
      <trkpt lat="46.27546" lon="2.8421">
        <ele>466.4</ele>
        <time>2019-11-01T10:37:45Z</time>
      </trkpt>
      <trkpt lat="46.27545" lon="2.84214">
        <ele>466.6</ele>
        <time>2019-11-01T10:37:46Z</time>
      </trkpt>
      <trkpt lat="46.27544" lon="2.84217">
        <ele>466.8</ele>
        <time>2019-11-01T10:37:47Z</time>
      </trkpt>
      <trkpt lat="46.27543" lon="2.8422">
        <ele>467</ele>
        <time>2019-11-01T10:37:48Z</time>
      </trkpt>
      <trkpt lat="46.27542" lon="2.84223">
        <ele>467.2</ele>
        <time>2019-11-01T10:37:49Z</time>
      </trkpt>
      <trkpt lat="46.27541" lon="2.84226">
        <ele>467.4</ele>
        <time>2019-11-01T10:37:50Z</time>
      </trkpt>
      <trkpt lat="46.2754" lon="2.84229">
        <ele>467.6</ele>
        <time>2019-11-01T10:37:51Z</time>
      </trkpt>
      <trkpt lat="46.27538" lon="2.84232">
        <ele>467.9</ele>
        <time>2019-11-01T10:37:52Z</time>
      </trkpt>
      <trkpt lat="46.27537" lon="2.84236">
        <ele>468.1</ele>
        <time>2019-11-01T10:37:53Z</time>
      </trkpt>
      <trkpt lat="46.27536" lon="2.8424">
        <ele>468.4</ele>
        <time>2019-11-01T10:37:54Z</time>
      </trkpt>
      <trkpt lat="46.27535" lon="2.84242">
        <ele>468.6</ele>
        <time>2019-11-01T10:37:55Z</time>
      </trkpt>
      <trkpt lat="46.27534" lon="2.84245">
        <ele>468.8</ele>
        <time>2019-11-01T10:37:56Z</time>
      </trkpt>
      <trkpt lat="46.27533" lon="2.84248">
        <ele>469</ele>
        <time>2019-11-01T10:37:57Z</time>
      </trkpt>
      <trkpt lat="46.27531" lon="2.84252">
        <ele>469.2</ele>
        <time>2019-11-01T10:37:58Z</time>
      </trkpt>
      <trkpt lat="46.27531" lon="2.84254">
        <ele>469.4</ele>
        <time>2019-11-01T10:37:59Z</time>
      </trkpt>
      <trkpt lat="46.2753" lon="2.84257">
        <ele>469.6</ele>
        <time>2019-11-01T10:38:00Z</time>
      </trkpt>
      <trkpt lat="46.27529" lon="2.8426">
        <ele>469.8</ele>
        <time>2019-11-01T10:38:01Z</time>
      </trkpt>
      <trkpt lat="46.27527" lon="2.84263">
        <ele>470</ele>
        <time>2019-11-01T10:38:02Z</time>
      </trkpt>
      <trkpt lat="46.27526" lon="2.84266">
        <ele>470.2</ele>
        <time>2019-11-01T10:38:03Z</time>
      </trkpt>
      <trkpt lat="46.27525" lon="2.84269">
        <ele>470.4</ele>
        <time>2019-11-01T10:38:04Z</time>
      </trkpt>
      <trkpt lat="46.27524" lon="2.84271">
        <ele>470.6</ele>
        <time>2019-11-01T10:38:05Z</time>
      </trkpt>
      <trkpt lat="46.27523" lon="2.84274">
        <ele>470.8</ele>
        <time>2019-11-01T10:38:06Z</time>
      </trkpt>
      <trkpt lat="46.27522" lon="2.84277">
        <ele>471</ele>
        <time>2019-11-01T10:38:07Z</time>
      </trkpt>
      <trkpt lat="46.27521" lon="2.8428">
        <ele>471.2</ele>
        <time>2019-11-01T10:38:08Z</time>
      </trkpt>
      <trkpt lat="46.27519" lon="2.84283">
        <ele>471.5</ele>
        <time>2019-11-01T10:38:09Z</time>
      </trkpt>
      <trkpt lat="46.27518" lon="2.84286">
        <ele>471.6</ele>
        <time>2019-11-01T10:38:10Z</time>
      </trkpt>
      <trkpt lat="46.27517" lon="2.84289">
        <ele>471.9</ele>
        <time>2019-11-01T10:38:11Z</time>
      </trkpt>
      <trkpt lat="46.27516" lon="2.84292">
        <ele>472.1</ele>
        <time>2019-11-01T10:38:12Z</time>
      </trkpt>
      <trkpt lat="46.27515" lon="2.84295">
        <ele>472.3</ele>
        <time>2019-11-01T10:38:13Z</time>
      </trkpt>
      <trkpt lat="46.27514" lon="2.84297">
        <ele>472.5</ele>
        <time>2019-11-01T10:38:14Z</time>
      </trkpt>
      <trkpt lat="46.27513" lon="2.843">
        <ele>472.7</ele>
        <time>2019-11-01T10:38:15Z</time>
      </trkpt>
      <trkpt lat="46.27512" lon="2.84304">
        <ele>472.9</ele>
        <time>2019-11-01T10:38:16Z</time>
      </trkpt>
      <trkpt lat="46.27511" lon="2.84307">
        <ele>473.2</ele>
        <time>2019-11-01T10:38:17Z</time>
      </trkpt>
      <trkpt lat="46.2751" lon="2.8431">
        <ele>473.4</ele>
        <time>2019-11-01T10:38:18Z</time>
      </trkpt>
      <trkpt lat="46.27509" lon="2.84312">
        <ele>473.5</ele>
        <time>2019-11-01T10:38:19Z</time>
      </trkpt>
      <trkpt lat="46.27508" lon="2.84315">
        <ele>473.8</ele>
        <time>2019-11-01T10:38:20Z</time>
      </trkpt>
      <trkpt lat="46.27506" lon="2.84319">
        <ele>474.6</ele>
        <time>2019-11-01T10:38:21Z</time>
      </trkpt>
      <trkpt lat="46.27505" lon="2.84322">
        <ele>474.6</ele>
        <time>2019-11-01T10:38:22Z</time>
      </trkpt>
      <trkpt lat="46.27504" lon="2.84324">
        <ele>474.6</ele>
        <time>2019-11-01T10:38:23Z</time>
      </trkpt>
      <trkpt lat="46.27502" lon="2.84327">
        <ele>474.6</ele>
        <time>2019-11-01T10:38:24Z</time>
      </trkpt>
      <trkpt lat="46.27501" lon="2.84331">
        <ele>474.5</ele>
        <time>2019-11-01T10:38:25Z</time>
      </trkpt>
      <trkpt lat="46.27499" lon="2.84334">
        <ele>474.5</ele>
        <time>2019-11-01T10:38:26Z</time>
      </trkpt>
      <trkpt lat="46.27498" lon="2.84338">
        <ele>474.5</ele>
        <time>2019-11-01T10:38:27Z</time>
      </trkpt>
      <trkpt lat="46.27497" lon="2.84341">
        <ele>474.5</ele>
        <time>2019-11-01T10:38:28Z</time>
      </trkpt>
      <trkpt lat="46.27496" lon="2.84345">
        <ele>474.4</ele>
        <time>2019-11-01T10:38:29Z</time>
      </trkpt>
      <trkpt lat="46.27495" lon="2.84349">
        <ele>474.4</ele>
        <time>2019-11-01T10:38:30Z</time>
      </trkpt>
      <trkpt lat="46.27493" lon="2.84353">
        <ele>474.3</ele>
        <time>2019-11-01T10:38:31Z</time>
      </trkpt>
      <trkpt lat="46.27492" lon="2.84357">
        <ele>474.3</ele>
        <time>2019-11-01T10:38:32Z</time>
      </trkpt>
      <trkpt lat="46.27491" lon="2.8436">
        <ele>474.3</ele>
        <time>2019-11-01T10:38:33Z</time>
      </trkpt>
      <trkpt lat="46.27489" lon="2.84364">
        <ele>474.2</ele>
        <time>2019-11-01T10:38:34Z</time>
      </trkpt>
      <trkpt lat="46.27488" lon="2.84368">
        <ele>474.1</ele>
        <time>2019-11-01T10:38:35Z</time>
      </trkpt>
      <trkpt lat="46.27486" lon="2.84373">
        <ele>474</ele>
        <time>2019-11-01T10:38:36Z</time>
      </trkpt>
      <trkpt lat="46.27485" lon="2.84377">
        <ele>473.9</ele>
        <time>2019-11-01T10:38:37Z</time>
      </trkpt>
      <trkpt lat="46.27483" lon="2.84382">
        <ele>473.8</ele>
        <time>2019-11-01T10:38:38Z</time>
      </trkpt>
      <trkpt lat="46.27481" lon="2.84387">
        <ele>473.6</ele>
        <time>2019-11-01T10:38:39Z</time>
      </trkpt>
      <trkpt lat="46.27478" lon="2.84392">
        <ele>473.5</ele>
        <time>2019-11-01T10:38:40Z</time>
      </trkpt>
      <trkpt lat="46.27476" lon="2.84397">
        <ele>473.3</ele>
        <time>2019-11-01T10:38:41Z</time>
      </trkpt>
      <trkpt lat="46.27473" lon="2.84401">
        <ele>473.1</ele>
        <time>2019-11-01T10:38:42Z</time>
      </trkpt>
      <trkpt lat="46.2747" lon="2.84406">
        <ele>472.9</ele>
        <time>2019-11-01T10:38:43Z</time>
      </trkpt>
      <trkpt lat="46.27467" lon="2.84413">
        <ele>472.7</ele>
        <time>2019-11-01T10:38:44Z</time>
      </trkpt>
      <trkpt lat="46.27464" lon="2.84418">
        <ele>472.5</ele>
        <time>2019-11-01T10:38:45Z</time>
      </trkpt>
      <trkpt lat="46.2746" lon="2.84423">
        <ele>472.2</ele>
        <time>2019-11-01T10:38:46Z</time>
      </trkpt>
      <trkpt lat="46.27457" lon="2.84427">
        <ele>472</ele>
        <time>2019-11-01T10:38:47Z</time>
      </trkpt>
      <trkpt lat="46.27453" lon="2.84432">
        <ele>471.8</ele>
        <time>2019-11-01T10:38:48Z</time>
      </trkpt>
      <trkpt lat="46.27448" lon="2.84439">
        <ele>471.5</ele>
        <time>2019-11-01T10:38:49Z</time>
      </trkpt>
      <trkpt lat="46.27444" lon="2.84445">
        <ele>471.2</ele>
        <time>2019-11-01T10:38:50Z</time>
      </trkpt>
      <trkpt lat="46.2744" lon="2.84451">
        <ele>470.9</ele>
        <time>2019-11-01T10:38:51Z</time>
      </trkpt>
      <trkpt lat="46.27436" lon="2.84455">
        <ele>470.7</ele>
        <time>2019-11-01T10:38:52Z</time>
      </trkpt>
      <trkpt lat="46.27431" lon="2.84462">
        <ele>470.4</ele>
        <time>2019-11-01T10:38:53Z</time>
      </trkpt>
      <trkpt lat="46.27427" lon="2.84469">
        <ele>470.2</ele>
        <time>2019-11-01T10:38:54Z</time>
      </trkpt>
      <trkpt lat="46.27423" lon="2.84475">
        <ele>470</ele>
        <time>2019-11-01T10:38:55Z</time>
      </trkpt>
      <trkpt lat="46.27419" lon="2.84481">
        <ele>469.8</ele>
        <time>2019-11-01T10:38:56Z</time>
      </trkpt>
      <trkpt lat="46.27415" lon="2.84488">
        <ele>469.6</ele>
        <time>2019-11-01T10:38:57Z</time>
      </trkpt>
      <trkpt lat="46.27412" lon="2.84494">
        <ele>469.4</ele>
        <time>2019-11-01T10:38:58Z</time>
      </trkpt>
      <trkpt lat="46.27409" lon="2.84501">
        <ele>469.2</ele>
        <time>2019-11-01T10:38:59Z</time>
      </trkpt>
      <trkpt lat="46.27406" lon="2.84508">
        <ele>469</ele>
        <time>2019-11-01T10:39:00Z</time>
      </trkpt>
      <trkpt lat="46.27404" lon="2.84515">
        <ele>468.9</ele>
        <time>2019-11-01T10:39:01Z</time>
      </trkpt>
      <trkpt lat="46.27401" lon="2.84524">
        <ele>468.7</ele>
        <time>2019-11-01T10:39:02Z</time>
      </trkpt>
      <trkpt lat="46.27398" lon="2.84532">
        <ele>468.5</ele>
        <time>2019-11-01T10:39:03Z</time>
      </trkpt>
      <trkpt lat="46.27395" lon="2.8454">
        <ele>468.4</ele>
        <time>2019-11-01T10:39:04Z</time>
      </trkpt>
      <trkpt lat="46.27393" lon="2.84548">
        <ele>468.2</ele>
        <time>2019-11-01T10:39:05Z</time>
      </trkpt>
      <trkpt lat="46.27391" lon="2.84554">
        <ele>468.1</ele>
        <time>2019-11-01T10:39:06Z</time>
      </trkpt>
      <trkpt lat="46.27389" lon="2.84564">
        <ele>467.9</ele>
        <time>2019-11-01T10:39:07Z</time>
      </trkpt>
      <trkpt lat="46.27387" lon="2.84571">
        <ele>467.8</ele>
        <time>2019-11-01T10:39:08Z</time>
      </trkpt>
      <trkpt lat="46.27385" lon="2.84579">
        <ele>467.6</ele>
        <time>2019-11-01T10:39:09Z</time>
      </trkpt>
      <trkpt lat="46.27383" lon="2.84587">
        <ele>467.4</ele>
        <time>2019-11-01T10:39:10Z</time>
      </trkpt>
      <trkpt lat="46.27381" lon="2.84593">
        <ele>467.3</ele>
        <time>2019-11-01T10:39:11Z</time>
      </trkpt>
      <trkpt lat="46.27379" lon="2.84602">
        <ele>467</ele>
        <time>2019-11-01T10:39:12Z</time>
      </trkpt>
      <trkpt lat="46.27377" lon="2.8461">
        <ele>466.8</ele>
        <time>2019-11-01T10:39:13Z</time>
      </trkpt>
      <trkpt lat="46.27374" lon="2.84618">
        <ele>466.5</ele>
        <time>2019-11-01T10:39:14Z</time>
      </trkpt>
      <trkpt lat="46.27372" lon="2.84625">
        <ele>466.2</ele>
        <time>2019-11-01T10:39:15Z</time>
      </trkpt>
      <trkpt lat="46.27369" lon="2.84632">
        <ele>465.8</ele>
        <time>2019-11-01T10:39:16Z</time>
      </trkpt>
      <trkpt lat="46.27365" lon="2.84638">
        <ele>465.5</ele>
        <time>2019-11-01T10:39:17Z</time>
      </trkpt>
      <trkpt lat="46.2736" lon="2.84643">
        <ele>465.2</ele>
        <time>2019-11-01T10:39:18Z</time>
      </trkpt>
      <trkpt lat="46.27355" lon="2.84647">
        <ele>464.7</ele>
        <time>2019-11-01T10:39:19Z</time>
      </trkpt>
      <trkpt lat="46.2735" lon="2.8465">
        <ele>464.4</ele>
        <time>2019-11-01T10:39:20Z</time>
      </trkpt>
      <trkpt lat="46.27343" lon="2.84654">
        <ele>463.8</ele>
        <time>2019-11-01T10:39:21Z</time>
      </trkpt>
      <trkpt lat="46.27336" lon="2.84657">
        <ele>463.4</ele>
        <time>2019-11-01T10:39:22Z</time>
      </trkpt>
      <trkpt lat="46.27329" lon="2.84659">
        <ele>462.9</ele>
        <time>2019-11-01T10:39:23Z</time>
      </trkpt>
      <trkpt lat="46.27322" lon="2.84661">
        <ele>462.4</ele>
        <time>2019-11-01T10:39:24Z</time>
      </trkpt>
      <trkpt lat="46.27316" lon="2.84662">
        <ele>461.9</ele>
        <time>2019-11-01T10:39:25Z</time>
      </trkpt>
      <trkpt lat="46.27306" lon="2.84664">
        <ele>461.3</ele>
        <time>2019-11-01T10:39:26Z</time>
      </trkpt>
      <trkpt lat="46.27299" lon="2.84667">
        <ele>460.7</ele>
        <time>2019-11-01T10:39:27Z</time>
      </trkpt>
      <trkpt lat="46.27291" lon="2.84669">
        <ele>460.3</ele>
        <time>2019-11-01T10:39:28Z</time>
      </trkpt>
      <trkpt lat="46.27284" lon="2.84672">
        <ele>459.9</ele>
        <time>2019-11-01T10:39:29Z</time>
      </trkpt>
      <trkpt lat="46.27277" lon="2.84675">
        <ele>459.4</ele>
        <time>2019-11-01T10:39:30Z</time>
      </trkpt>
      <trkpt lat="46.27268" lon="2.84678">
        <ele>458.9</ele>
        <time>2019-11-01T10:39:31Z</time>
      </trkpt>
      <trkpt lat="46.2726" lon="2.84681">
        <ele>458.4</ele>
        <time>2019-11-01T10:39:32Z</time>
      </trkpt>
      <trkpt lat="46.27254" lon="2.84684">
        <ele>458.1</ele>
        <time>2019-11-01T10:39:33Z</time>
      </trkpt>
      <trkpt lat="46.27246" lon="2.84686">
        <ele>457.6</ele>
        <time>2019-11-01T10:39:34Z</time>
      </trkpt>
      <trkpt lat="46.27237" lon="2.8469">
        <ele>457.1</ele>
        <time>2019-11-01T10:39:35Z</time>
      </trkpt>
      <trkpt lat="46.2723" lon="2.84692">
        <ele>456.6</ele>
        <time>2019-11-01T10:39:36Z</time>
      </trkpt>
      <trkpt lat="46.27222" lon="2.84695">
        <ele>456.1</ele>
        <time>2019-11-01T10:39:37Z</time>
      </trkpt>
      <trkpt lat="46.27216" lon="2.84697">
        <ele>455.7</ele>
        <time>2019-11-01T10:39:38Z</time>
      </trkpt>
      <trkpt lat="46.27211" lon="2.84699">
        <ele>455.3</ele>
        <time>2019-11-01T10:39:39Z</time>
      </trkpt>
      <trkpt lat="46.27203" lon="2.84701">
        <ele>454.8</ele>
        <time>2019-11-01T10:39:40Z</time>
      </trkpt>
      <trkpt lat="46.27197" lon="2.84703">
        <ele>454.4</ele>
        <time>2019-11-01T10:39:41Z</time>
      </trkpt>
      <trkpt lat="46.27192" lon="2.84705">
        <ele>454</ele>
        <time>2019-11-01T10:39:42Z</time>
      </trkpt>
      <trkpt lat="46.27188" lon="2.84708">
        <ele>453.6</ele>
        <time>2019-11-01T10:39:43Z</time>
      </trkpt>
      <trkpt lat="46.27182" lon="2.84712">
        <ele>453.2</ele>
        <time>2019-11-01T10:39:44Z</time>
      </trkpt>
      <trkpt lat="46.27177" lon="2.84717">
        <ele>452.8</ele>
        <time>2019-11-01T10:39:45Z</time>
      </trkpt>
      <trkpt lat="46.27173" lon="2.84723">
        <ele>452.3</ele>
        <time>2019-11-01T10:39:46Z</time>
      </trkpt>
      <trkpt lat="46.27169" lon="2.8473">
        <ele>451.7</ele>
        <time>2019-11-01T10:39:47Z</time>
      </trkpt>
      <trkpt lat="46.27166" lon="2.84737">
        <ele>451.2</ele>
        <time>2019-11-01T10:39:48Z</time>
      </trkpt>
      <trkpt lat="46.27161" lon="2.84747">
        <ele>450.5</ele>
        <time>2019-11-01T10:39:49Z</time>
      </trkpt>
      <trkpt lat="46.27157" lon="2.84756">
        <ele>449.8</ele>
        <time>2019-11-01T10:39:50Z</time>
      </trkpt>
      <trkpt lat="46.27153" lon="2.84765">
        <ele>449.1</ele>
        <time>2019-11-01T10:39:51Z</time>
      </trkpt>
      <trkpt lat="46.2715" lon="2.84772">
        <ele>448.4</ele>
        <time>2019-11-01T10:39:52Z</time>
      </trkpt>
      <trkpt lat="46.27147" lon="2.84781">
        <ele>447.7</ele>
        <time>2019-11-01T10:39:53Z</time>
      </trkpt>
      <trkpt lat="46.27143" lon="2.84791">
        <ele>446.9</ele>
        <time>2019-11-01T10:39:54Z</time>
      </trkpt>
      <trkpt lat="46.27141" lon="2.84799">
        <ele>446.1</ele>
        <time>2019-11-01T10:39:55Z</time>
      </trkpt>
      <trkpt lat="46.27139" lon="2.84806">
        <ele>445.4</ele>
        <time>2019-11-01T10:39:56Z</time>
      </trkpt>
      <trkpt lat="46.27138" lon="2.84812">
        <ele>444.8</ele>
        <time>2019-11-01T10:39:57Z</time>
      </trkpt>
      <trkpt lat="46.27138" lon="2.84817">
        <ele>444.4</ele>
        <time>2019-11-01T10:39:58Z</time>
      </trkpt>
      <trkpt lat="46.27138" lon="2.84825">
        <ele>443.7</ele>
        <time>2019-11-01T10:39:59Z</time>
      </trkpt>
      <trkpt lat="46.27139" lon="2.84832">
        <ele>443</ele>
        <time>2019-11-01T10:40:00Z</time>
      </trkpt>
      <trkpt lat="46.2714" lon="2.84838">
        <ele>442.3</ele>
        <time>2019-11-01T10:40:01Z</time>
      </trkpt>
      <trkpt lat="46.27141" lon="2.84843">
        <ele>441.8</ele>
        <time>2019-11-01T10:40:02Z</time>
      </trkpt>
      <trkpt lat="46.27142" lon="2.8485">
        <ele>441</ele>
        <time>2019-11-01T10:40:03Z</time>
      </trkpt>
      <trkpt lat="46.27143" lon="2.84856">
        <ele>440.5</ele>
        <time>2019-11-01T10:40:04Z</time>
      </trkpt>
      <trkpt lat="46.27142" lon="2.8486">
        <ele>440.1</ele>
        <time>2019-11-01T10:40:05Z</time>
      </trkpt>
      <trkpt lat="46.27141" lon="2.84864">
        <ele>439.7</ele>
        <time>2019-11-01T10:40:06Z</time>
      </trkpt>
      <trkpt lat="46.27139" lon="2.84866">
        <ele>439.4</ele>
        <time>2019-11-01T10:40:07Z</time>
      </trkpt>
      <trkpt lat="46.27136" lon="2.84867">
        <ele>439</ele>
        <time>2019-11-01T10:40:08Z</time>
      </trkpt>
      <trkpt lat="46.27133" lon="2.84868">
        <ele>438.5</ele>
        <time>2019-11-01T10:40:09Z</time>
      </trkpt>
      <trkpt lat="46.27129" lon="2.84868">
        <ele>438</ele>
        <time>2019-11-01T10:40:10Z</time>
      </trkpt>
      <trkpt lat="46.27125" lon="2.84869">
        <ele>437.6</ele>
        <time>2019-11-01T10:40:11Z</time>
      </trkpt>
      <trkpt lat="46.27119" lon="2.84869">
        <ele>437</ele>
        <time>2019-11-01T10:40:12Z</time>
      </trkpt>
      <trkpt lat="46.27114" lon="2.84869">
        <ele>436.5</ele>
        <time>2019-11-01T10:40:13Z</time>
      </trkpt>
      <trkpt lat="46.27107" lon="2.84869">
        <ele>435.9</ele>
        <time>2019-11-01T10:40:14Z</time>
      </trkpt>
      <trkpt lat="46.27101" lon="2.84869">
        <ele>435.3</ele>
        <time>2019-11-01T10:40:15Z</time>
      </trkpt>
      <trkpt lat="46.27094" lon="2.84868">
        <ele>434.9</ele>
        <time>2019-11-01T10:40:16Z</time>
      </trkpt>
      <trkpt lat="46.27086" lon="2.84868">
        <ele>434.5</ele>
        <time>2019-11-01T10:40:17Z</time>
      </trkpt>
      <trkpt lat="46.27078" lon="2.84867">
        <ele>434.1</ele>
        <time>2019-11-01T10:40:18Z</time>
      </trkpt>
      <trkpt lat="46.2707" lon="2.84866">
        <ele>433.7</ele>
        <time>2019-11-01T10:40:19Z</time>
      </trkpt>
      <trkpt lat="46.27064" lon="2.84865">
        <ele>433.6</ele>
        <time>2019-11-01T10:40:20Z</time>
      </trkpt>
      <trkpt lat="46.27055" lon="2.84865">
        <ele>433.5</ele>
        <time>2019-11-01T10:40:21Z</time>
      </trkpt>
      <trkpt lat="46.27046" lon="2.84864">
        <ele>433.5</ele>
        <time>2019-11-01T10:40:22Z</time>
      </trkpt>
      <trkpt lat="46.2704" lon="2.84864">
        <ele>433.4</ele>
        <time>2019-11-01T10:40:23Z</time>
      </trkpt>
      <trkpt lat="46.27035" lon="2.84863">
        <ele>433.6</ele>
        <time>2019-11-01T10:40:24Z</time>
      </trkpt>
      <trkpt lat="46.27031" lon="2.84863">
        <ele>433.8</ele>
        <time>2019-11-01T10:40:25Z</time>
      </trkpt>
      <trkpt lat="46.27027" lon="2.84862">
        <ele>433.9</ele>
        <time>2019-11-01T10:40:26Z</time>
      </trkpt>
      <trkpt lat="46.27025" lon="2.84861">
        <ele>434.2</ele>
        <time>2019-11-01T10:40:27Z</time>
      </trkpt>
      <trkpt lat="46.27022" lon="2.8486">
        <ele>434.4</ele>
        <time>2019-11-01T10:40:28Z</time>
      </trkpt>
      <trkpt lat="46.2702" lon="2.84859">
        <ele>434.7</ele>
        <time>2019-11-01T10:40:29Z</time>
      </trkpt>
      <trkpt lat="46.27019" lon="2.84857">
        <ele>434.9</ele>
        <time>2019-11-01T10:40:30Z</time>
      </trkpt>
      <trkpt lat="46.27017" lon="2.84854">
        <ele>435.1</ele>
        <time>2019-11-01T10:40:31Z</time>
      </trkpt>
      <trkpt lat="46.27016" lon="2.84852">
        <ele>435.4</ele>
        <time>2019-11-01T10:40:32Z</time>
      </trkpt>
      <trkpt lat="46.27015" lon="2.84849">
        <ele>435.6</ele>
        <time>2019-11-01T10:40:33Z</time>
      </trkpt>
      <trkpt lat="46.27015" lon="2.84846">
        <ele>435.8</ele>
        <time>2019-11-01T10:40:34Z</time>
      </trkpt>
      <trkpt lat="46.27013" lon="2.84843">
        <ele>436.2</ele>
        <time>2019-11-01T10:40:35Z</time>
      </trkpt>
      <trkpt lat="46.27012" lon="2.8484">
        <ele>436.4</ele>
        <time>2019-11-01T10:40:36Z</time>
      </trkpt>
      <trkpt lat="46.2701" lon="2.84837">
        <ele>436.7</ele>
        <time>2019-11-01T10:40:37Z</time>
      </trkpt>
      <trkpt lat="46.27008" lon="2.84835">
        <ele>437</ele>
        <time>2019-11-01T10:40:38Z</time>
      </trkpt>
      <trkpt lat="46.27007" lon="2.84833">
        <ele>437.2</ele>
        <time>2019-11-01T10:40:39Z</time>
      </trkpt>
      <trkpt lat="46.27005" lon="2.84831">
        <ele>437.5</ele>
        <time>2019-11-01T10:40:40Z</time>
      </trkpt>
      <trkpt lat="46.27002" lon="2.84829">
        <ele>437.8</ele>
        <time>2019-11-01T10:40:41Z</time>
      </trkpt>
      <trkpt lat="46.27" lon="2.84828">
        <ele>438.1</ele>
        <time>2019-11-01T10:40:42Z</time>
      </trkpt>
      <trkpt lat="46.26998" lon="2.84827">
        <ele>438.4</ele>
        <time>2019-11-01T10:40:43Z</time>
      </trkpt>
      <trkpt lat="46.26996" lon="2.84827">
        <ele>438.7</ele>
        <time>2019-11-01T10:40:44Z</time>
      </trkpt>
      <trkpt lat="46.26993" lon="2.84826">
        <ele>439</ele>
        <time>2019-11-01T10:40:45Z</time>
      </trkpt>
      <trkpt lat="46.26991" lon="2.84825">
        <ele>439.3</ele>
        <time>2019-11-01T10:40:46Z</time>
      </trkpt>
      <trkpt lat="46.26988" lon="2.84825">
        <ele>439.7</ele>
        <time>2019-11-01T10:40:47Z</time>
      </trkpt>
      <trkpt lat="46.26986" lon="2.84824">
        <ele>440</ele>
        <time>2019-11-01T10:40:48Z</time>
      </trkpt>
      <trkpt lat="46.26984" lon="2.84824">
        <ele>440.2</ele>
        <time>2019-11-01T10:40:49Z</time>
      </trkpt>
      <trkpt lat="46.26982" lon="2.84824">
        <ele>440.6</ele>
        <time>2019-11-01T10:40:50Z</time>
      </trkpt>
      <trkpt lat="46.26979" lon="2.84825">
        <ele>441</ele>
        <time>2019-11-01T10:40:51Z</time>
      </trkpt>
      <trkpt lat="46.26976" lon="2.84825">
        <ele>441.4</ele>
        <time>2019-11-01T10:40:52Z</time>
      </trkpt>
      <trkpt lat="46.26974" lon="2.84825">
        <ele>441.7</ele>
        <time>2019-11-01T10:40:53Z</time>
      </trkpt>
      <trkpt lat="46.26971" lon="2.84825">
        <ele>442.1</ele>
        <time>2019-11-01T10:40:54Z</time>
      </trkpt>
      <trkpt lat="46.26969" lon="2.84825">
        <ele>442.4</ele>
        <time>2019-11-01T10:40:55Z</time>
      </trkpt>
      <trkpt lat="46.26966" lon="2.84825">
        <ele>442.8</ele>
        <time>2019-11-01T10:40:56Z</time>
      </trkpt>
      <trkpt lat="46.26963" lon="2.84825">
        <ele>443.1</ele>
        <time>2019-11-01T10:40:57Z</time>
      </trkpt>
      <trkpt lat="46.2696" lon="2.84826">
        <ele>443.5</ele>
        <time>2019-11-01T10:40:58Z</time>
      </trkpt>
      <trkpt lat="46.26958" lon="2.84826">
        <ele>443.7</ele>
        <time>2019-11-01T10:40:59Z</time>
      </trkpt>
      <trkpt lat="46.26956" lon="2.84827">
        <ele>444.1</ele>
        <time>2019-11-01T10:41:00Z</time>
      </trkpt>
      <trkpt lat="46.26953" lon="2.84827">
        <ele>444.4</ele>
        <time>2019-11-01T10:41:01Z</time>
      </trkpt>
      <trkpt lat="46.26951" lon="2.84827">
        <ele>444.6</ele>
        <time>2019-11-01T10:41:02Z</time>
      </trkpt>
      <trkpt lat="46.26949" lon="2.84826">
        <ele>444.8</ele>
        <time>2019-11-01T10:41:03Z</time>
      </trkpt>
      <trkpt lat="46.26947" lon="2.84826">
        <ele>445</ele>
        <time>2019-11-01T10:41:04Z</time>
      </trkpt>
      <trkpt lat="46.26945" lon="2.84826">
        <ele>445.2</ele>
        <time>2019-11-01T10:41:05Z</time>
      </trkpt>
      <trkpt lat="46.26943" lon="2.84825">
        <ele>445.5</ele>
        <time>2019-11-01T10:41:06Z</time>
      </trkpt>
      <trkpt lat="46.26941" lon="2.84824">
        <ele>445.6</ele>
        <time>2019-11-01T10:41:07Z</time>
      </trkpt>
      <trkpt lat="46.26939" lon="2.84824">
        <ele>445.8</ele>
        <time>2019-11-01T10:41:08Z</time>
      </trkpt>
      <trkpt lat="46.26937" lon="2.84823">
        <ele>446</ele>
        <time>2019-11-01T10:41:09Z</time>
      </trkpt>
      <trkpt lat="46.26935" lon="2.84822">
        <ele>446.2</ele>
        <time>2019-11-01T10:41:10Z</time>
      </trkpt>
      <trkpt lat="46.26933" lon="2.8482">
        <ele>446.4</ele>
        <time>2019-11-01T10:41:11Z</time>
      </trkpt>
      <trkpt lat="46.26932" lon="2.84819">
        <ele>446.5</ele>
        <time>2019-11-01T10:41:12Z</time>
      </trkpt>
      <trkpt lat="46.2693" lon="2.84818">
        <ele>446.7</ele>
        <time>2019-11-01T10:41:13Z</time>
      </trkpt>
      <trkpt lat="46.26928" lon="2.84816">
        <ele>446.9</ele>
        <time>2019-11-01T10:41:14Z</time>
      </trkpt>
      <trkpt lat="46.26926" lon="2.84814">
        <ele>447.1</ele>
        <time>2019-11-01T10:41:15Z</time>
      </trkpt>
      <trkpt lat="46.26924" lon="2.84812">
        <ele>447.2</ele>
        <time>2019-11-01T10:41:16Z</time>
      </trkpt>
      <trkpt lat="46.26923" lon="2.84809">
        <ele>447.4</ele>
        <time>2019-11-01T10:41:17Z</time>
      </trkpt>
      <trkpt lat="46.26922" lon="2.84806">
        <ele>447.6</ele>
        <time>2019-11-01T10:41:18Z</time>
      </trkpt>
      <trkpt lat="46.26921" lon="2.84803">
        <ele>447.8</ele>
        <time>2019-11-01T10:41:19Z</time>
      </trkpt>
      <trkpt lat="46.26919" lon="2.84799">
        <ele>448</ele>
        <time>2019-11-01T10:41:20Z</time>
      </trkpt>
      <trkpt lat="46.26918" lon="2.84796">
        <ele>448.2</ele>
        <time>2019-11-01T10:41:21Z</time>
      </trkpt>
      <trkpt lat="46.26918" lon="2.84793">
        <ele>448.3</ele>
        <time>2019-11-01T10:41:22Z</time>
      </trkpt>
      <trkpt lat="46.26917" lon="2.84789">
        <ele>448.5</ele>
        <time>2019-11-01T10:41:23Z</time>
      </trkpt>
      <trkpt lat="46.26917" lon="2.84785">
        <ele>448.8</ele>
        <time>2019-11-01T10:41:24Z</time>
      </trkpt>
      <trkpt lat="46.26917" lon="2.84781">
        <ele>448.9</ele>
        <time>2019-11-01T10:41:25Z</time>
      </trkpt>
      <trkpt lat="46.26916" lon="2.84777">
        <ele>449.1</ele>
        <time>2019-11-01T10:41:26Z</time>
      </trkpt>
      <trkpt lat="46.26916" lon="2.84774">
        <ele>449.3</ele>
        <time>2019-11-01T10:41:27Z</time>
      </trkpt>
      <trkpt lat="46.26916" lon="2.84769">
        <ele>449.5</ele>
        <time>2019-11-01T10:41:28Z</time>
      </trkpt>
      <trkpt lat="46.26916" lon="2.84765">
        <ele>449.7</ele>
        <time>2019-11-01T10:41:29Z</time>
      </trkpt>
      <trkpt lat="46.26916" lon="2.84761">
        <ele>449.9</ele>
        <time>2019-11-01T10:41:30Z</time>
      </trkpt>
      <trkpt lat="46.26916" lon="2.84757">
        <ele>450.1</ele>
        <time>2019-11-01T10:41:31Z</time>
      </trkpt>
      <trkpt lat="46.26916" lon="2.84754">
        <ele>450.2</ele>
        <time>2019-11-01T10:41:32Z</time>
      </trkpt>
      <trkpt lat="46.26916" lon="2.8475">
        <ele>450.4</ele>
        <time>2019-11-01T10:41:33Z</time>
      </trkpt>
      <trkpt lat="46.26916" lon="2.84746">
        <ele>450.6</ele>
        <time>2019-11-01T10:41:34Z</time>
      </trkpt>
      <trkpt lat="46.26916" lon="2.84742">
        <ele>450.7</ele>
        <time>2019-11-01T10:41:35Z</time>
      </trkpt>
      <trkpt lat="46.26916" lon="2.84738">
        <ele>450.9</ele>
        <time>2019-11-01T10:41:36Z</time>
      </trkpt>
      <trkpt lat="46.26916" lon="2.84735">
        <ele>451</ele>
        <time>2019-11-01T10:41:37Z</time>
      </trkpt>
      <trkpt lat="46.26915" lon="2.84731">
        <ele>451.2</ele>
        <time>2019-11-01T10:41:38Z</time>
      </trkpt>
      <trkpt lat="46.26915" lon="2.84726">
        <ele>451.3</ele>
        <time>2019-11-01T10:41:39Z</time>
      </trkpt>
      <trkpt lat="46.26915" lon="2.84722">
        <ele>451.5</ele>
        <time>2019-11-01T10:41:40Z</time>
      </trkpt>
      <trkpt lat="46.26915" lon="2.84718">
        <ele>451.6</ele>
        <time>2019-11-01T10:41:41Z</time>
      </trkpt>
      <trkpt lat="46.26915" lon="2.84715">
        <ele>451.8</ele>
        <time>2019-11-01T10:41:42Z</time>
      </trkpt>
      <trkpt lat="46.26915" lon="2.84712">
        <ele>451.9</ele>
        <time>2019-11-01T10:41:43Z</time>
      </trkpt>
      <trkpt lat="46.26914" lon="2.84707">
        <ele>452.1</ele>
        <time>2019-11-01T10:41:44Z</time>
      </trkpt>
      <trkpt lat="46.26914" lon="2.84704">
        <ele>452.2</ele>
        <time>2019-11-01T10:41:45Z</time>
      </trkpt>
      <trkpt lat="46.26914" lon="2.84701">
        <ele>452.3</ele>
        <time>2019-11-01T10:41:46Z</time>
      </trkpt>
      <trkpt lat="46.26913" lon="2.84697">
        <ele>452.5</ele>
        <time>2019-11-01T10:41:47Z</time>
      </trkpt>
      <trkpt lat="46.26912" lon="2.84694">
        <ele>452.7</ele>
        <time>2019-11-01T10:41:48Z</time>
      </trkpt>
      <trkpt lat="46.26911" lon="2.8469">
        <ele>452.9</ele>
        <time>2019-11-01T10:41:49Z</time>
      </trkpt>
      <trkpt lat="46.2691" lon="2.84686">
        <ele>453</ele>
        <time>2019-11-01T10:41:50Z</time>
      </trkpt>
      <trkpt lat="46.2691" lon="2.84684">
        <ele>453.2</ele>
        <time>2019-11-01T10:41:51Z</time>
      </trkpt>
      <trkpt lat="46.26909" lon="2.8468">
        <ele>453.4</ele>
        <time>2019-11-01T10:41:52Z</time>
      </trkpt>
      <trkpt lat="46.26908" lon="2.84676">
        <ele>453.6</ele>
        <time>2019-11-01T10:41:53Z</time>
      </trkpt>
      <trkpt lat="46.26907" lon="2.84672">
        <ele>453.8</ele>
        <time>2019-11-01T10:41:54Z</time>
      </trkpt>
      <trkpt lat="46.26906" lon="2.84668">
        <ele>454</ele>
        <time>2019-11-01T10:41:55Z</time>
      </trkpt>
      <trkpt lat="46.26905" lon="2.84665">
        <ele>454.2</ele>
        <time>2019-11-01T10:41:56Z</time>
      </trkpt>
      <trkpt lat="46.26904" lon="2.84661">
        <ele>454.4</ele>
        <time>2019-11-01T10:41:57Z</time>
      </trkpt>
      <trkpt lat="46.26902" lon="2.84657">
        <ele>454.6</ele>
        <time>2019-11-01T10:41:58Z</time>
      </trkpt>
      <trkpt lat="46.269" lon="2.84653">
        <ele>454.9</ele>
        <time>2019-11-01T10:41:59Z</time>
      </trkpt>
      <trkpt lat="46.26898" lon="2.8465">
        <ele>455.1</ele>
        <time>2019-11-01T10:42:00Z</time>
      </trkpt>
      <trkpt lat="46.26895" lon="2.84647">
        <ele>455.3</ele>
        <time>2019-11-01T10:42:01Z</time>
      </trkpt>
      <trkpt lat="46.26893" lon="2.84645">
        <ele>455.5</ele>
        <time>2019-11-01T10:42:02Z</time>
      </trkpt>
      <trkpt lat="46.2689" lon="2.84643">
        <ele>455.7</ele>
        <time>2019-11-01T10:42:03Z</time>
      </trkpt>
      <trkpt lat="46.26887" lon="2.84642">
        <ele>455.9</ele>
        <time>2019-11-01T10:42:04Z</time>
      </trkpt>
      <trkpt lat="46.26884" lon="2.84641">
        <ele>456.1</ele>
        <time>2019-11-01T10:42:05Z</time>
      </trkpt>
      <trkpt lat="46.2688" lon="2.84641">
        <ele>456.3</ele>
        <time>2019-11-01T10:42:06Z</time>
      </trkpt>
      <trkpt lat="46.26877" lon="2.84641">
        <ele>456.5</ele>
        <time>2019-11-01T10:42:07Z</time>
      </trkpt>
      <trkpt lat="46.26873" lon="2.84642">
        <ele>456.6</ele>
        <time>2019-11-01T10:42:08Z</time>
      </trkpt>
      <trkpt lat="46.2687" lon="2.84643">
        <ele>456.8</ele>
        <time>2019-11-01T10:42:09Z</time>
      </trkpt>
      <trkpt lat="46.26868" lon="2.84643">
        <ele>456.9</ele>
        <time>2019-11-01T10:42:10Z</time>
      </trkpt>
      <trkpt lat="46.26864" lon="2.84644">
        <ele>457</ele>
        <time>2019-11-01T10:42:11Z</time>
      </trkpt>
      <trkpt lat="46.2686" lon="2.84645">
        <ele>457.2</ele>
        <time>2019-11-01T10:42:12Z</time>
      </trkpt>
      <trkpt lat="46.26857" lon="2.84647">
        <ele>457.3</ele>
        <time>2019-11-01T10:42:13Z</time>
      </trkpt>
      <trkpt lat="46.26854" lon="2.84648">
        <ele>457.5</ele>
        <time>2019-11-01T10:42:14Z</time>
      </trkpt>
      <trkpt lat="46.26851" lon="2.8465">
        <ele>457.6</ele>
        <time>2019-11-01T10:42:15Z</time>
      </trkpt>
      <trkpt lat="46.26848" lon="2.84652">
        <ele>457.7</ele>
        <time>2019-11-01T10:42:16Z</time>
      </trkpt>
      <trkpt lat="46.26844" lon="2.84654">
        <ele>457.9</ele>
        <time>2019-11-01T10:42:17Z</time>
      </trkpt>
      <trkpt lat="46.26841" lon="2.84656">
        <ele>458</ele>
        <time>2019-11-01T10:42:18Z</time>
      </trkpt>
      <trkpt lat="46.26838" lon="2.84658">
        <ele>458.2</ele>
        <time>2019-11-01T10:42:19Z</time>
      </trkpt>
      <trkpt lat="46.26835" lon="2.8466">
        <ele>458.3</ele>
        <time>2019-11-01T10:42:20Z</time>
      </trkpt>
      <trkpt lat="46.26832" lon="2.84662">
        <ele>458.5</ele>
        <time>2019-11-01T10:42:21Z</time>
      </trkpt>
      <trkpt lat="46.26828" lon="2.84665">
        <ele>458.7</ele>
        <time>2019-11-01T10:42:22Z</time>
      </trkpt>
      <trkpt lat="46.26825" lon="2.84668">
        <ele>458.8</ele>
        <time>2019-11-01T10:42:23Z</time>
      </trkpt>
      <trkpt lat="46.26822" lon="2.8467">
        <ele>459</ele>
        <time>2019-11-01T10:42:24Z</time>
      </trkpt>
      <trkpt lat="46.26819" lon="2.84672">
        <ele>459.1</ele>
        <time>2019-11-01T10:42:25Z</time>
      </trkpt>
      <trkpt lat="46.26816" lon="2.84675">
        <ele>459.4</ele>
        <time>2019-11-01T10:42:26Z</time>
      </trkpt>
      <trkpt lat="46.26813" lon="2.84678">
        <ele>459.5</ele>
        <time>2019-11-01T10:42:27Z</time>
      </trkpt>
      <trkpt lat="46.2681" lon="2.84681">
        <ele>459.7</ele>
        <time>2019-11-01T10:42:28Z</time>
      </trkpt>
      <trkpt lat="46.26807" lon="2.84684">
        <ele>459.9</ele>
        <time>2019-11-01T10:42:29Z</time>
      </trkpt>
      <trkpt lat="46.26805" lon="2.84686">
        <ele>460</ele>
        <time>2019-11-01T10:42:30Z</time>
      </trkpt>
      <trkpt lat="46.26802" lon="2.84689">
        <ele>460.3</ele>
        <time>2019-11-01T10:42:31Z</time>
      </trkpt>
      <trkpt lat="46.26799" lon="2.84691">
        <ele>460.4</ele>
        <time>2019-11-01T10:42:32Z</time>
      </trkpt>
      <trkpt lat="46.26797" lon="2.84694">
        <ele>460.6</ele>
        <time>2019-11-01T10:42:33Z</time>
      </trkpt>
      <trkpt lat="46.26794" lon="2.84696">
        <ele>460.8</ele>
        <time>2019-11-01T10:42:34Z</time>
      </trkpt>
      <trkpt lat="46.26792" lon="2.84698">
        <ele>460.9</ele>
        <time>2019-11-01T10:42:35Z</time>
      </trkpt>
      <trkpt lat="46.2679" lon="2.847">
        <ele>461.1</ele>
        <time>2019-11-01T10:42:36Z</time>
      </trkpt>
      <trkpt lat="46.26788" lon="2.84702">
        <ele>461.2</ele>
        <time>2019-11-01T10:42:37Z</time>
      </trkpt>
      <trkpt lat="46.26786" lon="2.84704">
        <ele>461.3</ele>
        <time>2019-11-01T10:42:38Z</time>
      </trkpt>
      <trkpt lat="46.26784" lon="2.84706">
        <ele>461.5</ele>
        <time>2019-11-01T10:42:39Z</time>
      </trkpt>
      <trkpt lat="46.26781" lon="2.84709">
        <ele>461.6</ele>
        <time>2019-11-01T10:42:40Z</time>
      </trkpt>
      <trkpt lat="46.26779" lon="2.84711">
        <ele>461.8</ele>
        <time>2019-11-01T10:42:41Z</time>
      </trkpt>
      <trkpt lat="46.26777" lon="2.84713">
        <ele>461.9</ele>
        <time>2019-11-01T10:42:42Z</time>
      </trkpt>
      <trkpt lat="46.26774" lon="2.84715">
        <ele>462</ele>
        <time>2019-11-01T10:42:43Z</time>
      </trkpt>
      <trkpt lat="46.26772" lon="2.84717">
        <ele>462.1</ele>
        <time>2019-11-01T10:42:44Z</time>
      </trkpt>
      <trkpt lat="46.26769" lon="2.84719">
        <ele>462.2</ele>
        <time>2019-11-01T10:42:45Z</time>
      </trkpt>
      <trkpt lat="46.26767" lon="2.84721">
        <ele>462.3</ele>
        <time>2019-11-01T10:42:46Z</time>
      </trkpt>
      <trkpt lat="46.26764" lon="2.84723">
        <ele>462.4</ele>
        <time>2019-11-01T10:42:47Z</time>
      </trkpt>
      <trkpt lat="46.26761" lon="2.84725">
        <ele>462.5</ele>
        <time>2019-11-01T10:42:48Z</time>
      </trkpt>
      <trkpt lat="46.26758" lon="2.84727">
        <ele>462.6</ele>
        <time>2019-11-01T10:42:49Z</time>
      </trkpt>
      <trkpt lat="46.26755" lon="2.84729">
        <ele>462.7</ele>
        <time>2019-11-01T10:42:50Z</time>
      </trkpt>
      <trkpt lat="46.26752" lon="2.84731">
        <ele>462.8</ele>
        <time>2019-11-01T10:42:51Z</time>
      </trkpt>
      <trkpt lat="46.26749" lon="2.84733">
        <ele>462.9</ele>
        <time>2019-11-01T10:42:52Z</time>
      </trkpt>
      <trkpt lat="46.26746" lon="2.84735">
        <ele>463</ele>
        <time>2019-11-01T10:42:53Z</time>
      </trkpt>
      <trkpt lat="46.26743" lon="2.84737">
        <ele>463.1</ele>
        <time>2019-11-01T10:42:54Z</time>
      </trkpt>
      <trkpt lat="46.26739" lon="2.84739">
        <ele>463.1</ele>
        <time>2019-11-01T10:42:55Z</time>
      </trkpt>
      <trkpt lat="46.26736" lon="2.84741">
        <ele>463.2</ele>
        <time>2019-11-01T10:42:56Z</time>
      </trkpt>
      <trkpt lat="46.26734" lon="2.84743">
        <ele>463.3</ele>
        <time>2019-11-01T10:42:57Z</time>
      </trkpt>
      <trkpt lat="46.26729" lon="2.84745">
        <ele>463.4</ele>
        <time>2019-11-01T10:42:58Z</time>
      </trkpt>
      <trkpt lat="46.26726" lon="2.84747">
        <ele>463.5</ele>
        <time>2019-11-01T10:42:59Z</time>
      </trkpt>
      <trkpt lat="46.26722" lon="2.84748">
        <ele>463.6</ele>
        <time>2019-11-01T10:43:00Z</time>
      </trkpt>
      <trkpt lat="46.2672" lon="2.84749">
        <ele>463.7</ele>
        <time>2019-11-01T10:43:01Z</time>
      </trkpt>
      <trkpt lat="46.26716" lon="2.8475">
        <ele>463.8</ele>
        <time>2019-11-01T10:43:02Z</time>
      </trkpt>
      <trkpt lat="46.26711" lon="2.84751">
        <ele>463.9</ele>
        <time>2019-11-01T10:43:03Z</time>
      </trkpt>
      <trkpt lat="46.26708" lon="2.84751">
        <ele>464</ele>
        <time>2019-11-01T10:43:04Z</time>
      </trkpt>
      <trkpt lat="46.26704" lon="2.84751">
        <ele>464.2</ele>
        <time>2019-11-01T10:43:05Z</time>
      </trkpt>
      <trkpt lat="46.267" lon="2.84751">
        <ele>464.3</ele>
        <time>2019-11-01T10:43:06Z</time>
      </trkpt>
      <trkpt lat="46.26697" lon="2.84751">
        <ele>464.4</ele>
        <time>2019-11-01T10:43:07Z</time>
      </trkpt>
      <trkpt lat="46.26693" lon="2.84752">
        <ele>464.6</ele>
        <time>2019-11-01T10:43:08Z</time>
      </trkpt>
      <trkpt lat="46.2669" lon="2.84752">
        <ele>464.7</ele>
        <time>2019-11-01T10:43:09Z</time>
      </trkpt>
      <trkpt lat="46.26687" lon="2.84752">
        <ele>464.8</ele>
        <time>2019-11-01T10:43:10Z</time>
      </trkpt>
      <trkpt lat="46.26683" lon="2.84752">
        <ele>464.9</ele>
        <time>2019-11-01T10:43:11Z</time>
      </trkpt>
      <trkpt lat="46.26679" lon="2.84753">
        <ele>465.1</ele>
        <time>2019-11-01T10:43:12Z</time>
      </trkpt>
      <trkpt lat="46.26676" lon="2.84754">
        <ele>465.2</ele>
        <time>2019-11-01T10:43:13Z</time>
      </trkpt>
      <trkpt lat="46.26673" lon="2.84755">
        <ele>465.4</ele>
        <time>2019-11-01T10:43:14Z</time>
      </trkpt>
      <trkpt lat="46.2667" lon="2.84757">
        <ele>465.6</ele>
        <time>2019-11-01T10:43:15Z</time>
      </trkpt>
      <trkpt lat="46.26667" lon="2.84758">
        <ele>465.7</ele>
        <time>2019-11-01T10:43:16Z</time>
      </trkpt>
      <trkpt lat="46.26664" lon="2.84759">
        <ele>465.9</ele>
        <time>2019-11-01T10:43:17Z</time>
      </trkpt>
      <trkpt lat="46.26661" lon="2.84761">
        <ele>466.1</ele>
        <time>2019-11-01T10:43:18Z</time>
      </trkpt>
      <trkpt lat="46.26658" lon="2.84762">
        <ele>466.2</ele>
        <time>2019-11-01T10:43:19Z</time>
      </trkpt>
      <trkpt lat="46.26655" lon="2.84763">
        <ele>466.4</ele>
        <time>2019-11-01T10:43:20Z</time>
      </trkpt>
      <trkpt lat="46.26652" lon="2.84765">
        <ele>466.6</ele>
        <time>2019-11-01T10:43:21Z</time>
      </trkpt>
      <trkpt lat="46.26649" lon="2.84766">
        <ele>466.8</ele>
        <time>2019-11-01T10:43:22Z</time>
      </trkpt>
      <trkpt lat="46.26647" lon="2.84767">
        <ele>466.9</ele>
        <time>2019-11-01T10:43:23Z</time>
      </trkpt>
      <trkpt lat="46.26644" lon="2.84769">
        <ele>467.1</ele>
        <time>2019-11-01T10:43:24Z</time>
      </trkpt>
      <trkpt lat="46.26641" lon="2.84771">
        <ele>467.3</ele>
        <time>2019-11-01T10:43:25Z</time>
      </trkpt>
      <trkpt lat="46.26638" lon="2.84772">
        <ele>467.5</ele>
        <time>2019-11-01T10:43:26Z</time>
      </trkpt>
      <trkpt lat="46.26635" lon="2.84773">
        <ele>467.7</ele>
        <time>2019-11-01T10:43:27Z</time>
      </trkpt>
      <trkpt lat="46.26632" lon="2.84775">
        <ele>467.9</ele>
        <time>2019-11-01T10:43:28Z</time>
      </trkpt>
      <trkpt lat="46.2663" lon="2.84776">
        <ele>468.1</ele>
        <time>2019-11-01T10:44:14Z</time>
      </trkpt>
      <trkpt lat="46.26628" lon="2.84778">
        <ele>468.2</ele>
        <time>2019-11-01T10:44:15Z</time>
      </trkpt>
      <trkpt lat="46.26625" lon="2.84779">
        <ele>468.7</ele>
        <time>2019-11-01T10:44:16Z</time>
      </trkpt>
      <trkpt lat="46.26623" lon="2.84781">
        <ele>469</ele>
        <time>2019-11-01T10:44:17Z</time>
      </trkpt>
      <trkpt lat="46.26621" lon="2.84783">
        <ele>469.3</ele>
        <time>2019-11-01T10:44:18Z</time>
      </trkpt>
      <trkpt lat="46.26619" lon="2.84785">
        <ele>469.5</ele>
        <time>2019-11-01T10:44:19Z</time>
      </trkpt>
      <trkpt lat="46.26617" lon="2.84787">
        <ele>469.8</ele>
        <time>2019-11-01T10:44:20Z</time>
      </trkpt>
      <trkpt lat="46.26615" lon="2.8479">
        <ele>470.1</ele>
        <time>2019-11-01T10:44:21Z</time>
      </trkpt>
      <trkpt lat="46.26613" lon="2.84792">
        <ele>470.3</ele>
        <time>2019-11-01T10:44:22Z</time>
      </trkpt>
      <trkpt lat="46.26612" lon="2.84794">
        <ele>470.5</ele>
        <time>2019-11-01T10:44:23Z</time>
      </trkpt>
      <trkpt lat="46.2661" lon="2.84796">
        <ele>470.7</ele>
        <time>2019-11-01T10:44:24Z</time>
      </trkpt>
      <trkpt lat="46.26609" lon="2.84799">
        <ele>470.9</ele>
        <time>2019-11-01T10:44:25Z</time>
      </trkpt>
      <trkpt lat="46.26607" lon="2.84802">
        <ele>471.1</ele>
        <time>2019-11-01T10:44:26Z</time>
      </trkpt>
      <trkpt lat="46.26606" lon="2.84805">
        <ele>471.4</ele>
        <time>2019-11-01T10:44:27Z</time>
      </trkpt>
      <trkpt lat="46.26604" lon="2.84807">
        <ele>471.5</ele>
        <time>2019-11-01T10:44:28Z</time>
      </trkpt>
      <trkpt lat="46.26602" lon="2.84811">
        <ele>471.7</ele>
        <time>2019-11-01T10:44:29Z</time>
      </trkpt>
      <trkpt lat="46.26601" lon="2.84814">
        <ele>471.9</ele>
        <time>2019-11-01T10:44:30Z</time>
      </trkpt>
      <trkpt lat="46.26599" lon="2.84817">
        <ele>472.1</ele>
        <time>2019-11-01T10:44:31Z</time>
      </trkpt>
      <trkpt lat="46.26596" lon="2.84821">
        <ele>472.2</ele>
        <time>2019-11-01T10:44:32Z</time>
      </trkpt>
      <trkpt lat="46.26594" lon="2.84824">
        <ele>472.4</ele>
        <time>2019-11-01T10:44:33Z</time>
      </trkpt>
      <trkpt lat="46.26592" lon="2.84827">
        <ele>472.5</ele>
        <time>2019-11-01T10:44:34Z</time>
      </trkpt>
      <trkpt lat="46.2659" lon="2.84831">
        <ele>472.7</ele>
        <time>2019-11-01T10:44:35Z</time>
      </trkpt>
      <trkpt lat="46.26587" lon="2.84834">
        <ele>472.8</ele>
        <time>2019-11-01T10:44:36Z</time>
      </trkpt>
      <trkpt lat="46.26585" lon="2.84838">
        <ele>472.9</ele>
        <time>2019-11-01T10:44:37Z</time>
      </trkpt>
      <trkpt lat="46.26582" lon="2.84841">
        <ele>473.1</ele>
        <time>2019-11-01T10:44:38Z</time>
      </trkpt>
      <trkpt lat="46.26579" lon="2.84845">
        <ele>473.2</ele>
        <time>2019-11-01T10:44:39Z</time>
      </trkpt>
      <trkpt lat="46.26576" lon="2.84848">
        <ele>473.3</ele>
        <time>2019-11-01T10:44:40Z</time>
      </trkpt>
      <trkpt lat="46.26573" lon="2.84851">
        <ele>473.5</ele>
        <time>2019-11-01T10:44:41Z</time>
      </trkpt>
      <trkpt lat="46.2657" lon="2.84855">
        <ele>473.6</ele>
        <time>2019-11-01T10:44:42Z</time>
      </trkpt>
      <trkpt lat="46.26568" lon="2.84859">
        <ele>473.7</ele>
        <time>2019-11-01T10:44:43Z</time>
      </trkpt>
      <trkpt lat="46.26565" lon="2.84863">
        <ele>473.9</ele>
        <time>2019-11-01T10:44:44Z</time>
      </trkpt>
      <trkpt lat="46.26562" lon="2.84866">
        <ele>474</ele>
        <time>2019-11-01T10:44:45Z</time>
      </trkpt>
      <trkpt lat="46.26559" lon="2.84869">
        <ele>474.1</ele>
        <time>2019-11-01T10:44:46Z</time>
      </trkpt>
      <trkpt lat="46.26555" lon="2.84873">
        <ele>474.2</ele>
        <time>2019-11-01T10:44:47Z</time>
      </trkpt>
      <trkpt lat="46.26552" lon="2.84876">
        <ele>474.3</ele>
        <time>2019-11-01T10:44:48Z</time>
      </trkpt>
      <trkpt lat="46.26548" lon="2.8488">
        <ele>474.4</ele>
        <time>2019-11-01T10:44:49Z</time>
      </trkpt>
      <trkpt lat="46.26545" lon="2.84883">
        <ele>474.5</ele>
        <time>2019-11-01T10:44:50Z</time>
      </trkpt>
      <trkpt lat="46.26542" lon="2.84887">
        <ele>474.6</ele>
        <time>2019-11-01T10:44:51Z</time>
      </trkpt>
      <trkpt lat="46.26538" lon="2.84891">
        <ele>474.7</ele>
        <time>2019-11-01T10:44:52Z</time>
      </trkpt>
      <trkpt lat="46.26535" lon="2.84894">
        <ele>474.8</ele>
        <time>2019-11-01T10:44:53Z</time>
      </trkpt>
      <trkpt lat="46.26531" lon="2.84898">
        <ele>475</ele>
        <time>2019-11-01T10:44:54Z</time>
      </trkpt>
      <trkpt lat="46.26528" lon="2.84901">
        <ele>475.1</ele>
        <time>2019-11-01T10:44:55Z</time>
      </trkpt>
      <trkpt lat="46.26524" lon="2.84905">
        <ele>475.1</ele>
        <time>2019-11-01T10:44:56Z</time>
      </trkpt>
      <trkpt lat="46.26521" lon="2.84909">
        <ele>475.2</ele>
        <time>2019-11-01T10:44:57Z</time>
      </trkpt>
      <trkpt lat="46.26517" lon="2.84912">
        <ele>475.3</ele>
        <time>2019-11-01T10:44:58Z</time>
      </trkpt>
      <trkpt lat="46.26514" lon="2.84916">
        <ele>475.4</ele>
        <time>2019-11-01T10:44:59Z</time>
      </trkpt>
      <trkpt lat="46.2651" lon="2.8492">
        <ele>475.5</ele>
        <time>2019-11-01T10:45:00Z</time>
      </trkpt>
      <trkpt lat="46.26506" lon="2.84923">
        <ele>475.6</ele>
        <time>2019-11-01T10:45:01Z</time>
      </trkpt>
      <trkpt lat="46.26503" lon="2.84927">
        <ele>475.6</ele>
        <time>2019-11-01T10:45:02Z</time>
      </trkpt>
      <trkpt lat="46.26499" lon="2.8493">
        <ele>475.7</ele>
        <time>2019-11-01T10:45:03Z</time>
      </trkpt>
      <trkpt lat="46.26495" lon="2.84933">
        <ele>475.7</ele>
        <time>2019-11-01T10:45:04Z</time>
      </trkpt>
      <trkpt lat="46.26492" lon="2.84935">
        <ele>475.8</ele>
        <time>2019-11-01T10:45:05Z</time>
      </trkpt>
      <trkpt lat="46.26488" lon="2.84937">
        <ele>475.8</ele>
        <time>2019-11-01T10:45:06Z</time>
      </trkpt>
      <trkpt lat="46.26484" lon="2.84939">
        <ele>475.9</ele>
        <time>2019-11-01T10:45:07Z</time>
      </trkpt>
      <trkpt lat="46.2648" lon="2.8494">
        <ele>475.9</ele>
        <time>2019-11-01T10:45:08Z</time>
      </trkpt>
      <trkpt lat="46.26477" lon="2.84942">
        <ele>475.9</ele>
        <time>2019-11-01T10:45:09Z</time>
      </trkpt>
      <trkpt lat="46.26474" lon="2.84943">
        <ele>476</ele>
        <time>2019-11-01T10:45:10Z</time>
      </trkpt>
      <trkpt lat="46.2647" lon="2.84945">
        <ele>476</ele>
        <time>2019-11-01T10:45:11Z</time>
      </trkpt>
      <trkpt lat="46.26466" lon="2.84946">
        <ele>476.1</ele>
        <time>2019-11-01T10:45:12Z</time>
      </trkpt>
      <trkpt lat="46.26462" lon="2.84948">
        <ele>476.1</ele>
        <time>2019-11-01T10:45:13Z</time>
      </trkpt>
      <trkpt lat="46.26459" lon="2.84949">
        <ele>476.2</ele>
        <time>2019-11-01T10:45:14Z</time>
      </trkpt>
      <trkpt lat="46.26454" lon="2.84951">
        <ele>476.2</ele>
        <time>2019-11-01T10:45:15Z</time>
      </trkpt>
      <trkpt lat="46.2645" lon="2.84952">
        <ele>476.3</ele>
        <time>2019-11-01T10:45:16Z</time>
      </trkpt>
      <trkpt lat="46.26446" lon="2.84953">
        <ele>476.4</ele>
        <time>2019-11-01T10:45:17Z</time>
      </trkpt>
      <trkpt lat="46.26443" lon="2.84954">
        <ele>476.4</ele>
        <time>2019-11-01T10:45:18Z</time>
      </trkpt>
      <trkpt lat="46.26439" lon="2.84955">
        <ele>476.5</ele>
        <time>2019-11-01T10:45:19Z</time>
      </trkpt>
      <trkpt lat="46.26436" lon="2.84956">
        <ele>476.6</ele>
        <time>2019-11-01T10:45:20Z</time>
      </trkpt>
      <trkpt lat="46.26434" lon="2.84957">
        <ele>476.6</ele>
        <time>2019-11-01T10:45:21Z</time>
      </trkpt>
      <trkpt lat="46.26431" lon="2.84957">
        <ele>476.7</ele>
        <time>2019-11-01T10:45:22Z</time>
      </trkpt>
      <trkpt lat="46.26429" lon="2.84958">
        <ele>476.8</ele>
        <time>2019-11-01T10:45:23Z</time>
      </trkpt>
      <trkpt lat="46.26429" lon="2.84958">
        <ele>476.8</ele>
        <time>2019-11-01T10:45:24Z</time>
      </trkpt>
      <trkpt lat="46.26429" lon="2.84958">
        <ele>476.8</ele>
        <time>2019-11-01T10:45:25Z</time>
      </trkpt>
      <trkpt lat="46.26426" lon="2.84958">
        <ele>476.9</ele>
        <time>2019-11-01T10:45:26Z</time>
      </trkpt>
      <trkpt lat="46.26424" lon="2.84957">
        <ele>476.9</ele>
        <time>2019-11-01T10:45:27Z</time>
      </trkpt>
      <trkpt lat="46.26421" lon="2.84957">
        <ele>477</ele>
        <time>2019-11-01T10:45:28Z</time>
      </trkpt>
      <trkpt lat="46.26418" lon="2.84957">
        <ele>477</ele>
        <time>2019-11-01T10:45:29Z</time>
      </trkpt>
      <trkpt lat="46.26414" lon="2.84958">
        <ele>477.1</ele>
        <time>2019-11-01T10:45:30Z</time>
      </trkpt>
      <trkpt lat="46.26411" lon="2.84958">
        <ele>477.1</ele>
        <time>2019-11-01T10:45:31Z</time>
      </trkpt>
      <trkpt lat="46.26407" lon="2.84959">
        <ele>477.2</ele>
        <time>2019-11-01T10:45:32Z</time>
      </trkpt>
      <trkpt lat="46.26404" lon="2.84959">
        <ele>477.3</ele>
        <time>2019-11-01T10:45:33Z</time>
      </trkpt>
      <trkpt lat="46.264" lon="2.8496">
        <ele>477.3</ele>
        <time>2019-11-01T10:45:34Z</time>
      </trkpt>
      <trkpt lat="46.26396" lon="2.8496">
        <ele>477.4</ele>
        <time>2019-11-01T10:45:35Z</time>
      </trkpt>
      <trkpt lat="46.26393" lon="2.84961">
        <ele>477.4</ele>
        <time>2019-11-01T10:45:36Z</time>
      </trkpt>
      <trkpt lat="46.26389" lon="2.84962">
        <ele>477.5</ele>
        <time>2019-11-01T10:45:37Z</time>
      </trkpt>
      <trkpt lat="46.26386" lon="2.84962">
        <ele>477.5</ele>
        <time>2019-11-01T10:45:38Z</time>
      </trkpt>
      <trkpt lat="46.26382" lon="2.84963">
        <ele>477.6</ele>
        <time>2019-11-01T10:45:39Z</time>
      </trkpt>
      <trkpt lat="46.26379" lon="2.84965">
        <ele>477.6</ele>
        <time>2019-11-01T10:45:40Z</time>
      </trkpt>
      <trkpt lat="46.26375" lon="2.84966">
        <ele>477.7</ele>
        <time>2019-11-01T10:45:41Z</time>
      </trkpt>
      <trkpt lat="46.26372" lon="2.84966">
        <ele>477.7</ele>
        <time>2019-11-01T10:45:42Z</time>
      </trkpt>
      <trkpt lat="46.26369" lon="2.84968">
        <ele>477.7</ele>
        <time>2019-11-01T10:45:43Z</time>
      </trkpt>
      <trkpt lat="46.26365" lon="2.8497">
        <ele>477.8</ele>
        <time>2019-11-01T10:45:44Z</time>
      </trkpt>
      <trkpt lat="46.26362" lon="2.84971">
        <ele>477.8</ele>
        <time>2019-11-01T10:45:45Z</time>
      </trkpt>
      <trkpt lat="46.26359" lon="2.84973">
        <ele>477.9</ele>
        <time>2019-11-01T10:45:46Z</time>
      </trkpt>
      <trkpt lat="46.26355" lon="2.84975">
        <ele>477.9</ele>
        <time>2019-11-01T10:45:47Z</time>
      </trkpt>
      <trkpt lat="46.26353" lon="2.84978">
        <ele>477.9</ele>
        <time>2019-11-01T10:45:48Z</time>
      </trkpt>
      <trkpt lat="46.2635" lon="2.8498">
        <ele>478</ele>
        <time>2019-11-01T10:45:49Z</time>
      </trkpt>
      <trkpt lat="46.26347" lon="2.84983">
        <ele>478</ele>
        <time>2019-11-01T10:45:50Z</time>
      </trkpt>
      <trkpt lat="46.26345" lon="2.84986">
        <ele>478.1</ele>
        <time>2019-11-01T10:45:51Z</time>
      </trkpt>
      <trkpt lat="46.26342" lon="2.84989">
        <ele>478.2</ele>
        <time>2019-11-01T10:45:52Z</time>
      </trkpt>
      <trkpt lat="46.26339" lon="2.84992">
        <ele>478.3</ele>
        <time>2019-11-01T10:45:53Z</time>
      </trkpt>
      <trkpt lat="46.26336" lon="2.84995">
        <ele>478.4</ele>
        <time>2019-11-01T10:45:54Z</time>
      </trkpt>
      <trkpt lat="46.26334" lon="2.84997">
        <ele>478.5</ele>
        <time>2019-11-01T10:45:55Z</time>
      </trkpt>
      <trkpt lat="46.26331" lon="2.85">
        <ele>478.7</ele>
        <time>2019-11-01T10:45:56Z</time>
      </trkpt>
      <trkpt lat="46.26328" lon="2.85003">
        <ele>478.8</ele>
        <time>2019-11-01T10:45:57Z</time>
      </trkpt>
      <trkpt lat="46.26325" lon="2.85005">
        <ele>479</ele>
        <time>2019-11-01T10:45:58Z</time>
      </trkpt>
      <trkpt lat="46.26322" lon="2.85008">
        <ele>479.1</ele>
        <time>2019-11-01T10:45:59Z</time>
      </trkpt>
      <trkpt lat="46.2632" lon="2.8501">
        <ele>479.3</ele>
        <time>2019-11-01T10:46:00Z</time>
      </trkpt>
      <trkpt lat="46.26318" lon="2.85012">
        <ele>479.4</ele>
        <time>2019-11-01T10:46:01Z</time>
      </trkpt>
      <trkpt lat="46.26314" lon="2.85014">
        <ele>479.6</ele>
        <time>2019-11-01T10:46:02Z</time>
      </trkpt>
      <trkpt lat="46.26312" lon="2.85016">
        <ele>479.8</ele>
        <time>2019-11-01T10:46:03Z</time>
      </trkpt>
      <trkpt lat="46.26309" lon="2.85018">
        <ele>479.9</ele>
        <time>2019-11-01T10:46:04Z</time>
      </trkpt>
      <trkpt lat="46.26307" lon="2.85019">
        <ele>480</ele>
        <time>2019-11-01T10:46:05Z</time>
      </trkpt>
      <trkpt lat="46.26305" lon="2.8502">
        <ele>480.2</ele>
        <time>2019-11-01T10:46:06Z</time>
      </trkpt>
      <trkpt lat="46.26302" lon="2.85022">
        <ele>480.4</ele>
        <time>2019-11-01T10:46:07Z</time>
      </trkpt>
      <trkpt lat="46.263" lon="2.85024">
        <ele>480.6</ele>
        <time>2019-11-01T10:46:08Z</time>
      </trkpt>
      <trkpt lat="46.26297" lon="2.85025">
        <ele>480.8</ele>
        <time>2019-11-01T10:46:09Z</time>
      </trkpt>
      <trkpt lat="46.26296" lon="2.85026">
        <ele>480.9</ele>
        <time>2019-11-01T10:46:10Z</time>
      </trkpt>
      <trkpt lat="46.26293" lon="2.85028">
        <ele>481.2</ele>
        <time>2019-11-01T10:46:11Z</time>
      </trkpt>
      <trkpt lat="46.26291" lon="2.85029">
        <ele>481.4</ele>
        <time>2019-11-01T10:46:12Z</time>
      </trkpt>
      <trkpt lat="46.26289" lon="2.8503">
        <ele>481.6</ele>
        <time>2019-11-01T10:46:13Z</time>
      </trkpt>
      <trkpt lat="46.26286" lon="2.85032">
        <ele>481.8</ele>
        <time>2019-11-01T10:46:14Z</time>
      </trkpt>
      <trkpt lat="46.26284" lon="2.85033">
        <ele>482.1</ele>
        <time>2019-11-01T10:46:15Z</time>
      </trkpt>
      <trkpt lat="46.26282" lon="2.85034">
        <ele>482.3</ele>
        <time>2019-11-01T10:46:16Z</time>
      </trkpt>
      <trkpt lat="46.2628" lon="2.85035">
        <ele>482.5</ele>
        <time>2019-11-01T10:46:17Z</time>
      </trkpt>
      <trkpt lat="46.26278" lon="2.85036">
        <ele>482.7</ele>
        <time>2019-11-01T10:46:18Z</time>
      </trkpt>
      <trkpt lat="46.26276" lon="2.85038">
        <ele>483</ele>
        <time>2019-11-01T10:46:19Z</time>
      </trkpt>
      <trkpt lat="46.26274" lon="2.85039">
        <ele>483.2</ele>
        <time>2019-11-01T10:46:20Z</time>
      </trkpt>
      <trkpt lat="46.26272" lon="2.8504">
        <ele>483.4</ele>
        <time>2019-11-01T10:46:21Z</time>
      </trkpt>
      <trkpt lat="46.2627" lon="2.85042">
        <ele>483.7</ele>
        <time>2019-11-01T10:46:22Z</time>
      </trkpt>
      <trkpt lat="46.26268" lon="2.85043">
        <ele>483.9</ele>
        <time>2019-11-01T10:46:23Z</time>
      </trkpt>
      <trkpt lat="46.26267" lon="2.85044">
        <ele>484.1</ele>
        <time>2019-11-01T10:46:24Z</time>
      </trkpt>
      <trkpt lat="46.26265" lon="2.85045">
        <ele>484.4</ele>
        <time>2019-11-01T10:46:25Z</time>
      </trkpt>
      <trkpt lat="46.26263" lon="2.85046">
        <ele>484.6</ele>
        <time>2019-11-01T10:46:26Z</time>
      </trkpt>
      <trkpt lat="46.26261" lon="2.85046">
        <ele>484.8</ele>
        <time>2019-11-01T10:46:27Z</time>
      </trkpt>
      <trkpt lat="46.2626" lon="2.85046">
        <ele>485</ele>
        <time>2019-11-01T10:46:28Z</time>
      </trkpt>
      <trkpt lat="46.26258" lon="2.85046">
        <ele>485.1</ele>
        <time>2019-11-01T10:46:29Z</time>
      </trkpt>
      <trkpt lat="46.26257" lon="2.85046">
        <ele>485.3</ele>
        <time>2019-11-01T10:46:30Z</time>
      </trkpt>
      <trkpt lat="46.26255" lon="2.85047">
        <ele>485.5</ele>
        <time>2019-11-01T10:46:31Z</time>
      </trkpt>
      <trkpt lat="46.26254" lon="2.85047">
        <ele>485.8</ele>
        <time>2019-11-01T10:46:32Z</time>
      </trkpt>
      <trkpt lat="46.26253" lon="2.85048">
        <ele>485.9</ele>
        <time>2019-11-01T10:46:33Z</time>
      </trkpt>
      <trkpt lat="46.26251" lon="2.85048">
        <ele>486.2</ele>
        <time>2019-11-01T10:46:34Z</time>
      </trkpt>
      <trkpt lat="46.26249" lon="2.85049">
        <ele>486.5</ele>
        <time>2019-11-01T10:46:35Z</time>
      </trkpt>
      <trkpt lat="46.26248" lon="2.8505">
        <ele>486.7</ele>
        <time>2019-11-01T10:46:36Z</time>
      </trkpt>
      <trkpt lat="46.26247" lon="2.8505">
        <ele>486.9</ele>
        <time>2019-11-01T10:46:37Z</time>
      </trkpt>
      <trkpt lat="46.26245" lon="2.85051">
        <ele>487.1</ele>
        <time>2019-11-01T10:46:38Z</time>
      </trkpt>
      <trkpt lat="46.26245" lon="2.85052">
        <ele>487.3</ele>
        <time>2019-11-01T10:46:39Z</time>
      </trkpt>
      <trkpt lat="46.26243" lon="2.85053">
        <ele>487.6</ele>
        <time>2019-11-01T10:46:40Z</time>
      </trkpt>
      <trkpt lat="46.26242" lon="2.85054">
        <ele>487.8</ele>
        <time>2019-11-01T10:46:41Z</time>
      </trkpt>
      <trkpt lat="46.2624" lon="2.85055">
        <ele>488.1</ele>
        <time>2019-11-01T10:46:42Z</time>
      </trkpt>
      <trkpt lat="46.26239" lon="2.85055">
        <ele>488.3</ele>
        <time>2019-11-01T10:46:43Z</time>
      </trkpt>
      <trkpt lat="46.26238" lon="2.85056">
        <ele>488.5</ele>
        <time>2019-11-01T10:46:44Z</time>
      </trkpt>
      <trkpt lat="46.26237" lon="2.85057">
        <ele>488.7</ele>
        <time>2019-11-01T10:46:45Z</time>
      </trkpt>
      <trkpt lat="46.26236" lon="2.85058">
        <ele>489</ele>
        <time>2019-11-01T10:46:46Z</time>
      </trkpt>
      <trkpt lat="46.26234" lon="2.85059">
        <ele>489.2</ele>
        <time>2019-11-01T10:46:47Z</time>
      </trkpt>
      <trkpt lat="46.26234" lon="2.85059">
        <ele>489.4</ele>
        <time>2019-11-01T10:46:48Z</time>
      </trkpt>
      <trkpt lat="46.26232" lon="2.8506">
        <ele>489.7</ele>
        <time>2019-11-01T10:46:49Z</time>
      </trkpt>
      <trkpt lat="46.26231" lon="2.85062">
        <ele>489.9</ele>
        <time>2019-11-01T10:46:50Z</time>
      </trkpt>
      <trkpt lat="46.2623" lon="2.85063">
        <ele>490.2</ele>
        <time>2019-11-01T10:46:51Z</time>
      </trkpt>
      <trkpt lat="46.26228" lon="2.85064">
        <ele>490.5</ele>
        <time>2019-11-01T10:46:52Z</time>
      </trkpt>
      <trkpt lat="46.26227" lon="2.85065">
        <ele>490.7</ele>
        <time>2019-11-01T10:46:53Z</time>
      </trkpt>
      <trkpt lat="46.26226" lon="2.85066">
        <ele>491.1</ele>
        <time>2019-11-01T10:46:54Z</time>
      </trkpt>
      <trkpt lat="46.26225" lon="2.85067">
        <ele>491.3</ele>
        <time>2019-11-01T10:46:55Z</time>
      </trkpt>
      <trkpt lat="46.26223" lon="2.85068">
        <ele>491.6</ele>
        <time>2019-11-01T10:46:56Z</time>
      </trkpt>
      <trkpt lat="46.26222" lon="2.85069">
        <ele>491.8</ele>
        <time>2019-11-01T10:46:57Z</time>
      </trkpt>
      <trkpt lat="46.26222" lon="2.8507">
        <ele>492</ele>
        <time>2019-11-01T10:46:58Z</time>
      </trkpt>
      <trkpt lat="46.2622" lon="2.85072">
        <ele>492.3</ele>
        <time>2019-11-01T10:46:59Z</time>
      </trkpt>
      <trkpt lat="46.26219" lon="2.85073">
        <ele>492.6</ele>
        <time>2019-11-01T10:47:00Z</time>
      </trkpt>
      <trkpt lat="46.26218" lon="2.85074">
        <ele>492.8</ele>
        <time>2019-11-01T10:47:01Z</time>
      </trkpt>
      <trkpt lat="46.26217" lon="2.85076">
        <ele>493.1</ele>
        <time>2019-11-01T10:47:02Z</time>
      </trkpt>
      <trkpt lat="46.26216" lon="2.85077">
        <ele>493.4</ele>
        <time>2019-11-01T10:47:03Z</time>
      </trkpt>
      <trkpt lat="46.26215" lon="2.85078">
        <ele>493.6</ele>
        <time>2019-11-01T10:47:04Z</time>
      </trkpt>
      <trkpt lat="46.26213" lon="2.85079">
        <ele>493.9</ele>
        <time>2019-11-01T10:47:05Z</time>
      </trkpt>
      <trkpt lat="46.26212" lon="2.8508">
        <ele>494.2</ele>
        <time>2019-11-01T10:47:06Z</time>
      </trkpt>
      <trkpt lat="46.26211" lon="2.8508">
        <ele>494.4</ele>
        <time>2019-11-01T10:47:07Z</time>
      </trkpt>
      <trkpt lat="46.26209" lon="2.85081">
        <ele>494.7</ele>
        <time>2019-11-01T10:47:08Z</time>
      </trkpt>
      <trkpt lat="46.26208" lon="2.85082">
        <ele>494.9</ele>
        <time>2019-11-01T10:47:09Z</time>
      </trkpt>
      <trkpt lat="46.26207" lon="2.85083">
        <ele>495.2</ele>
        <time>2019-11-01T10:47:10Z</time>
      </trkpt>
      <trkpt lat="46.26206" lon="2.85084">
        <ele>495.4</ele>
        <time>2019-11-01T10:47:11Z</time>
      </trkpt>
      <trkpt lat="46.26204" lon="2.85086">
        <ele>495.7</ele>
        <time>2019-11-01T10:47:12Z</time>
      </trkpt>
      <trkpt lat="46.26203" lon="2.85088">
        <ele>495.9</ele>
        <time>2019-11-01T10:47:13Z</time>
      </trkpt>
      <trkpt lat="46.26202" lon="2.85089">
        <ele>496.2</ele>
        <time>2019-11-01T10:47:14Z</time>
      </trkpt>
      <trkpt lat="46.26201" lon="2.8509">
        <ele>496.4</ele>
        <time>2019-11-01T10:47:15Z</time>
      </trkpt>
      <trkpt lat="46.26199" lon="2.85092">
        <ele>496.6</ele>
        <time>2019-11-01T10:47:16Z</time>
      </trkpt>
      <trkpt lat="46.26198" lon="2.85093">
        <ele>496.8</ele>
        <time>2019-11-01T10:47:17Z</time>
      </trkpt>
      <trkpt lat="46.26196" lon="2.85094">
        <ele>497</ele>
        <time>2019-11-01T10:47:18Z</time>
      </trkpt>
      <trkpt lat="46.26195" lon="2.85095">
        <ele>497.1</ele>
        <time>2019-11-01T10:47:19Z</time>
      </trkpt>
      <trkpt lat="46.26194" lon="2.85097">
        <ele>497.3</ele>
        <time>2019-11-01T10:47:20Z</time>
      </trkpt>
      <trkpt lat="46.26193" lon="2.85098">
        <ele>497.4</ele>
        <time>2019-11-01T10:47:21Z</time>
      </trkpt>
      <trkpt lat="46.26192" lon="2.851">
        <ele>497.6</ele>
        <time>2019-11-01T10:47:22Z</time>
      </trkpt>
      <trkpt lat="46.2619" lon="2.85101">
        <ele>497.8</ele>
        <time>2019-11-01T10:47:23Z</time>
      </trkpt>
      <trkpt lat="46.26189" lon="2.85103">
        <ele>497.9</ele>
        <time>2019-11-01T10:47:24Z</time>
      </trkpt>
      <trkpt lat="46.26188" lon="2.85104">
        <ele>498</ele>
        <time>2019-11-01T10:47:25Z</time>
      </trkpt>
      <trkpt lat="46.26186" lon="2.85106">
        <ele>498.2</ele>
        <time>2019-11-01T10:47:26Z</time>
      </trkpt>
      <trkpt lat="46.26185" lon="2.85108">
        <ele>498.3</ele>
        <time>2019-11-01T10:47:27Z</time>
      </trkpt>
      <trkpt lat="46.26184" lon="2.85109">
        <ele>498.4</ele>
        <time>2019-11-01T10:47:28Z</time>
      </trkpt>
      <trkpt lat="46.26183" lon="2.85111">
        <ele>498.5</ele>
        <time>2019-11-01T10:47:29Z</time>
      </trkpt>
      <trkpt lat="46.26182" lon="2.85112">
        <ele>498.6</ele>
        <time>2019-11-01T10:47:30Z</time>
      </trkpt>
      <trkpt lat="46.26181" lon="2.85114">
        <ele>498.7</ele>
        <time>2019-11-01T10:47:31Z</time>
      </trkpt>
      <trkpt lat="46.2618" lon="2.85116">
        <ele>498.9</ele>
        <time>2019-11-01T10:47:32Z</time>
      </trkpt>
      <trkpt lat="46.26178" lon="2.85118">
        <ele>499</ele>
        <time>2019-11-01T10:47:33Z</time>
      </trkpt>
      <trkpt lat="46.26177" lon="2.8512">
        <ele>499.1</ele>
        <time>2019-11-01T10:47:34Z</time>
      </trkpt>
      <trkpt lat="46.26176" lon="2.85121">
        <ele>499.2</ele>
        <time>2019-11-01T10:47:35Z</time>
      </trkpt>
      <trkpt lat="46.26175" lon="2.85123">
        <ele>499.3</ele>
        <time>2019-11-01T10:47:36Z</time>
      </trkpt>
      <trkpt lat="46.26174" lon="2.85124">
        <ele>499.4</ele>
        <time>2019-11-01T10:47:37Z</time>
      </trkpt>
      <trkpt lat="46.26173" lon="2.85125">
        <ele>499.4</ele>
        <time>2019-11-01T10:47:38Z</time>
      </trkpt>
      <trkpt lat="46.26171" lon="2.85128">
        <ele>499.6</ele>
        <time>2019-11-01T10:47:39Z</time>
      </trkpt>
      <trkpt lat="46.26169" lon="2.85131">
        <ele>499.7</ele>
        <time>2019-11-01T10:47:40Z</time>
      </trkpt>
      <trkpt lat="46.26168" lon="2.85133">
        <ele>499.9</ele>
        <time>2019-11-01T10:47:41Z</time>
      </trkpt>
      <trkpt lat="46.26166" lon="2.85135">
        <ele>500</ele>
        <time>2019-11-01T10:47:42Z</time>
      </trkpt>
      <trkpt lat="46.26165" lon="2.85137">
        <ele>500.1</ele>
        <time>2019-11-01T10:47:43Z</time>
      </trkpt>
      <trkpt lat="46.26164" lon="2.85139">
        <ele>500.1</ele>
        <time>2019-11-01T10:47:44Z</time>
      </trkpt>
      <trkpt lat="46.26162" lon="2.85141">
        <ele>500.2</ele>
        <time>2019-11-01T10:47:45Z</time>
      </trkpt>
      <trkpt lat="46.26161" lon="2.85143">
        <ele>500.3</ele>
        <time>2019-11-01T10:47:46Z</time>
      </trkpt>
      <trkpt lat="46.26159" lon="2.85144">
        <ele>500.4</ele>
        <time>2019-11-01T10:47:47Z</time>
      </trkpt>
      <trkpt lat="46.26158" lon="2.85146">
        <ele>500.5</ele>
        <time>2019-11-01T10:47:48Z</time>
      </trkpt>
      <trkpt lat="46.26156" lon="2.85148">
        <ele>500.5</ele>
        <time>2019-11-01T10:47:49Z</time>
      </trkpt>
      <trkpt lat="46.26154" lon="2.8515">
        <ele>500.7</ele>
        <time>2019-11-01T10:47:50Z</time>
      </trkpt>
      <trkpt lat="46.26152" lon="2.85152">
        <ele>500.7</ele>
        <time>2019-11-01T10:47:51Z</time>
      </trkpt>
      <trkpt lat="46.2615" lon="2.85154">
        <ele>500.8</ele>
        <time>2019-11-01T10:47:52Z</time>
      </trkpt>
      <trkpt lat="46.26149" lon="2.85156">
        <ele>500.9</ele>
        <time>2019-11-01T10:47:53Z</time>
      </trkpt>
      <trkpt lat="46.26146" lon="2.85157">
        <ele>501</ele>
        <time>2019-11-01T10:47:54Z</time>
      </trkpt>
      <trkpt lat="46.26144" lon="2.85159">
        <ele>501.1</ele>
        <time>2019-11-01T10:47:55Z</time>
      </trkpt>
      <trkpt lat="46.26142" lon="2.85161">
        <ele>501.2</ele>
        <time>2019-11-01T10:47:56Z</time>
      </trkpt>
      <trkpt lat="46.2614" lon="2.85163">
        <ele>501.3</ele>
        <time>2019-11-01T10:47:57Z</time>
      </trkpt>
      <trkpt lat="46.26138" lon="2.85164">
        <ele>501.4</ele>
        <time>2019-11-01T10:47:58Z</time>
      </trkpt>
      <trkpt lat="46.26135" lon="2.85166">
        <ele>501.4</ele>
        <time>2019-11-01T10:47:59Z</time>
      </trkpt>
      <trkpt lat="46.26133" lon="2.85168">
        <ele>501.5</ele>
        <time>2019-11-01T10:48:00Z</time>
      </trkpt>
      <trkpt lat="46.26131" lon="2.8517">
        <ele>501.6</ele>
        <time>2019-11-01T10:48:01Z</time>
      </trkpt>
      <trkpt lat="46.26129" lon="2.85171">
        <ele>501.6</ele>
        <time>2019-11-01T10:48:02Z</time>
      </trkpt>
      <trkpt lat="46.26127" lon="2.85173">
        <ele>501.7</ele>
        <time>2019-11-01T10:48:03Z</time>
      </trkpt>
      <trkpt lat="46.26125" lon="2.85175">
        <ele>501.8</ele>
        <time>2019-11-01T10:48:04Z</time>
      </trkpt>
      <trkpt lat="46.26123" lon="2.85177">
        <ele>501.9</ele>
        <time>2019-11-01T10:48:05Z</time>
      </trkpt>
      <trkpt lat="46.26121" lon="2.85179">
        <ele>501.9</ele>
        <time>2019-11-01T10:48:06Z</time>
      </trkpt>
      <trkpt lat="46.26119" lon="2.85181">
        <ele>502</ele>
        <time>2019-11-01T10:48:07Z</time>
      </trkpt>
      <trkpt lat="46.26117" lon="2.85183">
        <ele>502.1</ele>
        <time>2019-11-01T10:48:08Z</time>
      </trkpt>
      <trkpt lat="46.26115" lon="2.85185">
        <ele>502.2</ele>
        <time>2019-11-01T10:48:09Z</time>
      </trkpt>
      <trkpt lat="46.26113" lon="2.85187">
        <ele>502.3</ele>
        <time>2019-11-01T10:48:10Z</time>
      </trkpt>
      <trkpt lat="46.26111" lon="2.85189">
        <ele>502.3</ele>
        <time>2019-11-01T10:48:11Z</time>
      </trkpt>
      <trkpt lat="46.26108" lon="2.85191">
        <ele>502.3</ele>
        <time>2019-11-01T10:48:12Z</time>
      </trkpt>
      <trkpt lat="46.26106" lon="2.85192">
        <ele>502.5</ele>
        <time>2019-11-01T10:48:13Z</time>
      </trkpt>
      <trkpt lat="46.26104" lon="2.85194">
        <ele>502.5</ele>
        <time>2019-11-01T10:48:14Z</time>
      </trkpt>
      <trkpt lat="46.26102" lon="2.85196">
        <ele>502.5</ele>
        <time>2019-11-01T10:48:15Z</time>
      </trkpt>
      <trkpt lat="46.261" lon="2.85198">
        <ele>502.7</ele>
        <time>2019-11-01T10:48:16Z</time>
      </trkpt>
      <trkpt lat="46.26097" lon="2.852">
        <ele>502.6</ele>
        <time>2019-11-01T10:48:17Z</time>
      </trkpt>
      <trkpt lat="46.26095" lon="2.85202">
        <ele>502.9</ele>
        <time>2019-11-01T10:48:18Z</time>
      </trkpt>
      <trkpt lat="46.26092" lon="2.85204">
        <ele>502.6</ele>
        <time>2019-11-01T10:48:19Z</time>
      </trkpt>
      <trkpt lat="46.2609" lon="2.85206">
        <ele>502.9</ele>
        <time>2019-11-01T10:48:20Z</time>
      </trkpt>
      <trkpt lat="46.26088" lon="2.85207">
        <ele>502.9</ele>
        <time>2019-11-01T10:48:21Z</time>
      </trkpt>
      <trkpt lat="46.26086" lon="2.85209">
        <ele>503.3</ele>
        <time>2019-11-01T10:48:22Z</time>
      </trkpt>
      <trkpt lat="46.26083" lon="2.85211">
        <ele>503.3</ele>
        <time>2019-11-01T10:48:23Z</time>
      </trkpt>
      <trkpt lat="46.26081" lon="2.85213">
        <ele>503.4</ele>
        <time>2019-11-01T10:48:24Z</time>
      </trkpt>
      <trkpt lat="46.26079" lon="2.85214">
        <ele>503.8</ele>
        <time>2019-11-01T10:48:25Z</time>
      </trkpt>
      <trkpt lat="46.26076" lon="2.85216">
        <ele>503.9</ele>
        <time>2019-11-01T10:48:26Z</time>
      </trkpt>
      <trkpt lat="46.26074" lon="2.85217">
        <ele>503.9</ele>
        <time>2019-11-01T10:48:27Z</time>
      </trkpt>
      <trkpt lat="46.26072" lon="2.85219">
        <ele>504.2</ele>
        <time>2019-11-01T10:48:28Z</time>
      </trkpt>
      <trkpt lat="46.26071" lon="2.8522">
        <ele>504.4</ele>
        <time>2019-11-01T10:48:29Z</time>
      </trkpt>
      <trkpt lat="46.26069" lon="2.85222">
        <ele>504.4</ele>
        <time>2019-11-01T10:48:30Z</time>
      </trkpt>
      <trkpt lat="46.26066" lon="2.85223">
        <ele>504.8</ele>
        <time>2019-11-01T10:48:31Z</time>
      </trkpt>
      <trkpt lat="46.26064" lon="2.85225">
        <ele>505</ele>
        <time>2019-11-01T10:48:32Z</time>
      </trkpt>
      <trkpt lat="46.26062" lon="2.85226">
        <ele>505.5</ele>
        <time>2019-11-01T10:48:33Z</time>
      </trkpt>
      <trkpt lat="46.2606" lon="2.85228">
        <ele>505.5</ele>
        <time>2019-11-01T10:48:34Z</time>
      </trkpt>
      <trkpt lat="46.26058" lon="2.8523">
        <ele>505.9</ele>
        <time>2019-11-01T10:48:35Z</time>
      </trkpt>
      <trkpt lat="46.26055" lon="2.85231">
        <ele>506.5</ele>
        <time>2019-11-01T10:48:36Z</time>
      </trkpt>
      <trkpt lat="46.26053" lon="2.85232">
        <ele>507</ele>
        <time>2019-11-01T10:48:37Z</time>
      </trkpt>
      <trkpt lat="46.26052" lon="2.85234">
        <ele>506.8</ele>
        <time>2019-11-01T10:48:38Z</time>
      </trkpt>
      <trkpt lat="46.26049" lon="2.85236">
        <ele>507.4</ele>
        <time>2019-11-01T10:48:39Z</time>
      </trkpt>
      <trkpt lat="46.26048" lon="2.85237">
        <ele>507.2</ele>
        <time>2019-11-01T10:48:40Z</time>
      </trkpt>
      <trkpt lat="46.26045" lon="2.85239">
        <ele>507.7</ele>
        <time>2019-11-01T10:48:41Z</time>
      </trkpt>
      <trkpt lat="46.26043" lon="2.85239">
        <ele>508.2</ele>
        <time>2019-11-01T10:48:42Z</time>
      </trkpt>
      <trkpt lat="46.26042" lon="2.8524">
        <ele>508.7</ele>
        <time>2019-11-01T10:48:43Z</time>
      </trkpt>
      <trkpt lat="46.26039" lon="2.85241">
        <ele>508.7</ele>
        <time>2019-11-01T10:48:44Z</time>
      </trkpt>
      <trkpt lat="46.26037" lon="2.85242">
        <ele>509</ele>
        <time>2019-11-01T10:48:45Z</time>
      </trkpt>
      <trkpt lat="46.26035" lon="2.85243">
        <ele>509.5</ele>
        <time>2019-11-01T10:48:46Z</time>
      </trkpt>
      <trkpt lat="46.26033" lon="2.85244">
        <ele>510.1</ele>
        <time>2019-11-01T10:48:47Z</time>
      </trkpt>
      <trkpt lat="46.26031" lon="2.85245">
        <ele>510.1</ele>
        <time>2019-11-01T10:48:48Z</time>
      </trkpt>
      <trkpt lat="46.26029" lon="2.85245">
        <ele>510.6</ele>
        <time>2019-11-01T10:48:49Z</time>
      </trkpt>
      <trkpt lat="46.26027" lon="2.85246">
        <ele>510.4</ele>
        <time>2019-11-01T10:48:50Z</time>
      </trkpt>
      <trkpt lat="46.26025" lon="2.85246">
        <ele>510.9</ele>
        <time>2019-11-01T10:48:51Z</time>
      </trkpt>
      <trkpt lat="46.26023" lon="2.85247">
        <ele>511.5</ele>
        <time>2019-11-01T10:48:52Z</time>
      </trkpt>
      <trkpt lat="46.26022" lon="2.85247">
        <ele>511.5</ele>
        <time>2019-11-01T10:48:53Z</time>
      </trkpt>
      <trkpt lat="46.26019" lon="2.85248">
        <ele>512.1</ele>
        <time>2019-11-01T10:48:54Z</time>
      </trkpt>
      <trkpt lat="46.26017" lon="2.85248">
        <ele>512.6</ele>
        <time>2019-11-01T10:48:55Z</time>
      </trkpt>
      <trkpt lat="46.26015" lon="2.85248">
        <ele>512.6</ele>
        <time>2019-11-01T10:48:56Z</time>
      </trkpt>
      <trkpt lat="46.26014" lon="2.85249">
        <ele>513.1</ele>
        <time>2019-11-01T10:48:57Z</time>
      </trkpt>
      <trkpt lat="46.26012" lon="2.85249">
        <ele>513.6</ele>
        <time>2019-11-01T10:48:58Z</time>
      </trkpt>
      <trkpt lat="46.2601" lon="2.85249">
        <ele>513.6</ele>
        <time>2019-11-01T10:48:59Z</time>
      </trkpt>
      <trkpt lat="46.26009" lon="2.8525">
        <ele>514</ele>
        <time>2019-11-01T10:49:00Z</time>
      </trkpt>
      <trkpt lat="46.26007" lon="2.8525">
        <ele>513.9</ele>
        <time>2019-11-01T10:49:01Z</time>
      </trkpt>
      <trkpt lat="46.26005" lon="2.8525">
        <ele>514.4</ele>
        <time>2019-11-01T10:49:02Z</time>
      </trkpt>
      <trkpt lat="46.26004" lon="2.85251">
        <ele>514.4</ele>
        <time>2019-11-01T10:49:03Z</time>
      </trkpt>
      <trkpt lat="46.26002" lon="2.85252">
        <ele>515</ele>
        <time>2019-11-01T10:49:04Z</time>
      </trkpt>
      <trkpt lat="46.26001" lon="2.85253">
        <ele>515</ele>
        <time>2019-11-01T10:49:05Z</time>
      </trkpt>
      <trkpt lat="46.25999" lon="2.85254">
        <ele>515.5</ele>
        <time>2019-11-01T10:49:06Z</time>
      </trkpt>
      <trkpt lat="46.25997" lon="2.85255">
        <ele>515.4</ele>
        <time>2019-11-01T10:49:07Z</time>
      </trkpt>
      <trkpt lat="46.25996" lon="2.85256">
        <ele>515.9</ele>
        <time>2019-11-01T10:49:08Z</time>
      </trkpt>
      <trkpt lat="46.25994" lon="2.85256">
        <ele>515.9</ele>
        <time>2019-11-01T10:49:09Z</time>
      </trkpt>
      <trkpt lat="46.25993" lon="2.85258">
        <ele>516.4</ele>
        <time>2019-11-01T10:49:10Z</time>
      </trkpt>
      <trkpt lat="46.25992" lon="2.85259">
        <ele>516.3</ele>
        <time>2019-11-01T10:49:11Z</time>
      </trkpt>
      <trkpt lat="46.25991" lon="2.85259">
        <ele>516.7</ele>
        <time>2019-11-01T10:49:12Z</time>
      </trkpt>
      <trkpt lat="46.25989" lon="2.8526">
        <ele>516.7</ele>
        <time>2019-11-01T10:49:13Z</time>
      </trkpt>
      <trkpt lat="46.25988" lon="2.85261">
        <ele>517.2</ele>
        <time>2019-11-01T10:49:14Z</time>
      </trkpt>
      <trkpt lat="46.25986" lon="2.85261">
        <ele>517.2</ele>
        <time>2019-11-01T10:49:15Z</time>
      </trkpt>
      <trkpt lat="46.25985" lon="2.85262">
        <ele>517.6</ele>
        <time>2019-11-01T10:49:16Z</time>
      </trkpt>
      <trkpt lat="46.25984" lon="2.85262">
        <ele>517.6</ele>
        <time>2019-11-01T10:49:17Z</time>
      </trkpt>
      <trkpt lat="46.25982" lon="2.85263">
        <ele>517.5</ele>
        <time>2019-11-01T10:49:18Z</time>
      </trkpt>
      <trkpt lat="46.25981" lon="2.85264">
        <ele>518</ele>
        <time>2019-11-01T10:49:19Z</time>
      </trkpt>
      <trkpt lat="46.2598" lon="2.85264">
        <ele>518</ele>
        <time>2019-11-01T10:49:20Z</time>
      </trkpt>
      <trkpt lat="46.25978" lon="2.85265">
        <ele>518.5</ele>
        <time>2019-11-01T10:49:21Z</time>
      </trkpt>
      <trkpt lat="46.25977" lon="2.85266">
        <ele>518.5</ele>
        <time>2019-11-01T10:49:22Z</time>
      </trkpt>
      <trkpt lat="46.25975" lon="2.85267">
        <ele>519.1</ele>
        <time>2019-11-01T10:49:23Z</time>
      </trkpt>
      <trkpt lat="46.25973" lon="2.85268">
        <ele>519.5</ele>
        <time>2019-11-01T10:49:24Z</time>
      </trkpt>
      <trkpt lat="46.25972" lon="2.85269">
        <ele>519.5</ele>
        <time>2019-11-01T10:49:25Z</time>
      </trkpt>
      <trkpt lat="46.25969" lon="2.8527">
        <ele>520</ele>
        <time>2019-11-01T10:49:26Z</time>
      </trkpt>
      <trkpt lat="46.25967" lon="2.85271">
        <ele>520.5</ele>
        <time>2019-11-01T10:49:27Z</time>
      </trkpt>
      <trkpt lat="46.25965" lon="2.85271">
        <ele>520.4</ele>
        <time>2019-11-01T10:49:28Z</time>
      </trkpt>
      <trkpt lat="46.25963" lon="2.85272">
        <ele>520.9</ele>
        <time>2019-11-01T10:49:29Z</time>
      </trkpt>
      <trkpt lat="46.25961" lon="2.85273">
        <ele>521.4</ele>
        <time>2019-11-01T10:49:30Z</time>
      </trkpt>
      <trkpt lat="46.25959" lon="2.85274">
        <ele>521.4</ele>
        <time>2019-11-01T10:49:31Z</time>
      </trkpt>
      <trkpt lat="46.25956" lon="2.85274">
        <ele>521.8</ele>
        <time>2019-11-01T10:49:32Z</time>
      </trkpt>
      <trkpt lat="46.25954" lon="2.85275">
        <ele>522.3</ele>
        <time>2019-11-01T10:49:33Z</time>
      </trkpt>
      <trkpt lat="46.25951" lon="2.85275">
        <ele>522.7</ele>
        <time>2019-11-01T10:49:34Z</time>
      </trkpt>
      <trkpt lat="46.2595" lon="2.85275">
        <ele>523.1</ele>
        <time>2019-11-01T10:49:35Z</time>
      </trkpt>
      <trkpt lat="46.25947" lon="2.85275">
        <ele>523.1</ele>
        <time>2019-11-01T10:49:36Z</time>
      </trkpt>
      <trkpt lat="46.25945" lon="2.85275">
        <ele>523.6</ele>
        <time>2019-11-01T10:49:37Z</time>
      </trkpt>
      <trkpt lat="46.25942" lon="2.85276">
        <ele>523.9</ele>
        <time>2019-11-01T10:49:38Z</time>
      </trkpt>
      <trkpt lat="46.2594" lon="2.85276">
        <ele>524.3</ele>
        <time>2019-11-01T10:49:39Z</time>
      </trkpt>
      <trkpt lat="46.25938" lon="2.85276">
        <ele>524.3</ele>
        <time>2019-11-01T10:49:40Z</time>
      </trkpt>
      <trkpt lat="46.25936" lon="2.85276">
        <ele>524.7</ele>
        <time>2019-11-01T10:49:41Z</time>
      </trkpt>
      <trkpt lat="46.25934" lon="2.85276">
        <ele>525</ele>
        <time>2019-11-01T10:49:42Z</time>
      </trkpt>
      <trkpt lat="46.25932" lon="2.85276">
        <ele>525.3</ele>
        <time>2019-11-01T10:49:43Z</time>
      </trkpt>
      <trkpt lat="46.2593" lon="2.85276">
        <ele>525.3</ele>
        <time>2019-11-01T10:49:44Z</time>
      </trkpt>
      <trkpt lat="46.25928" lon="2.85276">
        <ele>525.6</ele>
        <time>2019-11-01T10:49:45Z</time>
      </trkpt>
      <trkpt lat="46.25926" lon="2.85275">
        <ele>526</ele>
        <time>2019-11-01T10:49:46Z</time>
      </trkpt>
      <trkpt lat="46.25923" lon="2.85275">
        <ele>526</ele>
        <time>2019-11-01T10:49:47Z</time>
      </trkpt>
      <trkpt lat="46.25921" lon="2.85274">
        <ele>526.2</ele>
        <time>2019-11-01T10:49:48Z</time>
      </trkpt>
      <trkpt lat="46.25919" lon="2.85274">
        <ele>526.5</ele>
        <time>2019-11-01T10:49:49Z</time>
      </trkpt>
      <trkpt lat="46.25917" lon="2.85274">
        <ele>526.9</ele>
        <time>2019-11-01T10:49:50Z</time>
      </trkpt>
      <trkpt lat="46.25915" lon="2.85273">
        <ele>526.9</ele>
        <time>2019-11-01T10:49:51Z</time>
      </trkpt>
      <trkpt lat="46.25912" lon="2.85273">
        <ele>527.2</ele>
        <time>2019-11-01T10:49:52Z</time>
      </trkpt>
      <trkpt lat="46.2591" lon="2.85273">
        <ele>527.5</ele>
        <time>2019-11-01T10:49:53Z</time>
      </trkpt>
      <trkpt lat="46.25907" lon="2.85274">
        <ele>527.8</ele>
        <time>2019-11-01T10:49:54Z</time>
      </trkpt>
      <trkpt lat="46.25905" lon="2.85274">
        <ele>527.8</ele>
        <time>2019-11-01T10:49:55Z</time>
      </trkpt>
      <trkpt lat="46.25903" lon="2.85274">
        <ele>528.1</ele>
        <time>2019-11-01T10:49:56Z</time>
      </trkpt>
      <trkpt lat="46.259" lon="2.85274">
        <ele>528.4</ele>
        <time>2019-11-01T10:49:57Z</time>
      </trkpt>
      <trkpt lat="46.25897" lon="2.85274">
        <ele>528.7</ele>
        <time>2019-11-01T10:49:58Z</time>
      </trkpt>
      <trkpt lat="46.25895" lon="2.85274">
        <ele>529.1</ele>
        <time>2019-11-01T10:49:59Z</time>
      </trkpt>
      <trkpt lat="46.25893" lon="2.85273">
        <ele>529.5</ele>
        <time>2019-11-01T10:50:00Z</time>
      </trkpt>
      <trkpt lat="46.25891" lon="2.85273">
        <ele>529.5</ele>
        <time>2019-11-01T10:50:01Z</time>
      </trkpt>
      <trkpt lat="46.25888" lon="2.85274">
        <ele>529.9</ele>
        <time>2019-11-01T10:50:02Z</time>
      </trkpt>
      <trkpt lat="46.25886" lon="2.85274">
        <ele>530.4</ele>
        <time>2019-11-01T10:54:22Z</time>
      </trkpt>
      <trkpt lat="46.25883" lon="2.85274">
        <ele>530.7</ele>
        <time>2019-11-01T10:54:23Z</time>
      </trkpt>
      <trkpt lat="46.25882" lon="2.85274">
        <ele>530.7</ele>
        <time>2019-11-01T10:54:24Z</time>
      </trkpt>
      <trkpt lat="46.25879" lon="2.85274">
        <ele>531.1</ele>
        <time>2019-11-01T10:54:25Z</time>
      </trkpt>
      <trkpt lat="46.25876" lon="2.85274">
        <ele>531.4</ele>
        <time>2019-11-01T10:54:26Z</time>
      </trkpt>
      <trkpt lat="46.25874" lon="2.85274">
        <ele>531.7</ele>
        <time>2019-11-01T10:54:27Z</time>
      </trkpt>
      <trkpt lat="46.25872" lon="2.85274">
        <ele>532</ele>
        <time>2019-11-01T10:54:28Z</time>
      </trkpt>
      <trkpt lat="46.25869" lon="2.85274">
        <ele>532.3</ele>
        <time>2019-11-01T10:54:29Z</time>
      </trkpt>
      <trkpt lat="46.25867" lon="2.85275">
        <ele>532.3</ele>
        <time>2019-11-01T10:54:30Z</time>
      </trkpt>
      <trkpt lat="46.25864" lon="2.85275">
        <ele>532.5</ele>
        <time>2019-11-01T10:54:31Z</time>
      </trkpt>
      <trkpt lat="46.25862" lon="2.85276">
        <ele>532.4</ele>
        <time>2019-11-01T10:54:32Z</time>
      </trkpt>
      <trkpt lat="46.2586" lon="2.85278">
        <ele>532.6</ele>
        <time>2019-11-01T10:54:33Z</time>
      </trkpt>
      <trkpt lat="46.25858" lon="2.85279">
        <ele>532.7</ele>
        <time>2019-11-01T10:54:34Z</time>
      </trkpt>
      <trkpt lat="46.25855" lon="2.85282">
        <ele>532.4</ele>
        <time>2019-11-01T10:58:57Z</time>
      </trkpt>
      <trkpt lat="46.25853" lon="2.85283">
        <ele>532.6</ele>
        <time>2019-11-01T10:58:58Z</time>
      </trkpt>
      <trkpt lat="46.25851" lon="2.85285">
        <ele>532.5</ele>
        <time>2019-11-01T10:58:59Z</time>
      </trkpt>
      <trkpt lat="46.25849" lon="2.85286">
        <ele>532.6</ele>
        <time>2019-11-01T10:59:00Z</time>
      </trkpt>
      <trkpt lat="46.25847" lon="2.85288">
        <ele>532.6</ele>
        <time>2019-11-01T10:59:01Z</time>
      </trkpt>
      <trkpt lat="46.25844" lon="2.85291">
        <ele>532.4</ele>
        <time>2019-11-01T10:59:02Z</time>
      </trkpt>
      <trkpt lat="46.25842" lon="2.85294">
        <ele>532.3</ele>
        <time>2019-11-01T10:59:03Z</time>
      </trkpt>
      <trkpt lat="46.25839" lon="2.85296">
        <ele>532.3</ele>
        <time>2019-11-01T10:59:04Z</time>
      </trkpt>
      <trkpt lat="46.25838" lon="2.85298">
        <ele>532.1</ele>
        <time>2019-11-01T10:59:05Z</time>
      </trkpt>
      <trkpt lat="46.25835" lon="2.85301">
        <ele>532.2</ele>
        <time>2019-11-01T10:59:06Z</time>
      </trkpt>
      <trkpt lat="46.25833" lon="2.85303">
        <ele>532.1</ele>
        <time>2019-11-01T10:59:07Z</time>
      </trkpt>
      <trkpt lat="46.2583" lon="2.85306">
        <ele>531.9</ele>
        <time>2019-11-01T10:59:08Z</time>
      </trkpt>
      <trkpt lat="46.25828" lon="2.85309">
        <ele>531.9</ele>
        <time>2019-11-01T10:59:09Z</time>
      </trkpt>
      <trkpt lat="46.25825" lon="2.85311">
        <ele>531.7</ele>
        <time>2019-11-01T10:59:10Z</time>
      </trkpt>
      <trkpt lat="46.25823" lon="2.85313">
        <ele>531.8</ele>
        <time>2019-11-01T10:59:11Z</time>
      </trkpt>
      <trkpt lat="46.2582" lon="2.85316">
        <ele>531.5</ele>
        <time>2019-11-01T10:59:12Z</time>
      </trkpt>
      <trkpt lat="46.25818" lon="2.85319">
        <ele>531.3</ele>
        <time>2019-11-01T10:59:13Z</time>
      </trkpt>
      <trkpt lat="46.25816" lon="2.85321">
        <ele>531.3</ele>
        <time>2019-11-01T10:59:14Z</time>
      </trkpt>
      <trkpt lat="46.25814" lon="2.85324">
        <ele>531</ele>
        <time>2019-11-01T10:59:15Z</time>
      </trkpt>
      <trkpt lat="46.25811" lon="2.85327">
        <ele>531</ele>
        <time>2019-11-01T10:59:16Z</time>
      </trkpt>
      <trkpt lat="46.25808" lon="2.8533">
        <ele>530.7</ele>
        <time>2019-11-01T10:59:17Z</time>
      </trkpt>
      <trkpt lat="46.25806" lon="2.85334">
        <ele>530.4</ele>
        <time>2019-11-01T10:59:18Z</time>
      </trkpt>
      <trkpt lat="46.25803" lon="2.85337">
        <ele>530.1</ele>
        <time>2019-11-01T10:59:19Z</time>
      </trkpt>
      <trkpt lat="46.25801" lon="2.8534">
        <ele>529.8</ele>
        <time>2019-11-01T10:59:20Z</time>
      </trkpt>
      <trkpt lat="46.25798" lon="2.85345">
        <ele>529.5</ele>
        <time>2019-11-01T10:59:21Z</time>
      </trkpt>
      <trkpt lat="46.25795" lon="2.85348">
        <ele>529.5</ele>
        <time>2019-11-01T10:59:22Z</time>
      </trkpt>
      <trkpt lat="46.25793" lon="2.85352">
        <ele>529.3</ele>
        <time>2019-11-01T10:59:23Z</time>
      </trkpt>
      <trkpt lat="46.2579" lon="2.85355">
        <ele>529.1</ele>
        <time>2019-11-01T10:59:24Z</time>
      </trkpt>
      <trkpt lat="46.25787" lon="2.85359">
        <ele>528.9</ele>
        <time>2019-11-01T10:59:25Z</time>
      </trkpt>
      <trkpt lat="46.25784" lon="2.85362">
        <ele>528.8</ele>
        <time>2019-11-01T10:59:26Z</time>
      </trkpt>
      <trkpt lat="46.25781" lon="2.85367">
        <ele>528.7</ele>
        <time>2019-11-01T10:59:27Z</time>
      </trkpt>
      <trkpt lat="46.25777" lon="2.85371">
        <ele>528.5</ele>
        <time>2019-11-01T10:59:28Z</time>
      </trkpt>
      <trkpt lat="46.25775" lon="2.85373">
        <ele>528.5</ele>
        <time>2019-11-01T10:59:29Z</time>
      </trkpt>
      <trkpt lat="46.25771" lon="2.85377">
        <ele>528.4</ele>
        <time>2019-11-01T10:59:30Z</time>
      </trkpt>
      <trkpt lat="46.25768" lon="2.8538">
        <ele>528.3</ele>
        <time>2019-11-01T10:59:31Z</time>
      </trkpt>
      <trkpt lat="46.25764" lon="2.85385">
        <ele>528.2</ele>
        <time>2019-11-01T10:59:32Z</time>
      </trkpt>
      <trkpt lat="46.2576" lon="2.85388">
        <ele>528.2</ele>
        <time>2019-11-01T10:59:33Z</time>
      </trkpt>
      <trkpt lat="46.25757" lon="2.85391">
        <ele>528.2</ele>
        <time>2019-11-01T10:59:34Z</time>
      </trkpt>
      <trkpt lat="46.25754" lon="2.85394">
        <ele>528.1</ele>
        <time>2019-11-01T10:59:35Z</time>
      </trkpt>
      <trkpt lat="46.2575" lon="2.85398">
        <ele>528.1</ele>
        <time>2019-11-01T10:59:36Z</time>
      </trkpt>
      <trkpt lat="46.25747" lon="2.85401">
        <ele>528.1</ele>
        <time>2019-11-01T10:59:37Z</time>
      </trkpt>
      <trkpt lat="46.25743" lon="2.85404">
        <ele>528.2</ele>
        <time>2019-11-01T10:59:38Z</time>
      </trkpt>
      <trkpt lat="46.2574" lon="2.85406">
        <ele>528.2</ele>
        <time>2019-11-01T10:59:39Z</time>
      </trkpt>
      <trkpt lat="46.25737" lon="2.85408">
        <ele>528.2</ele>
        <time>2019-11-01T10:59:40Z</time>
      </trkpt>
      <trkpt lat="46.25734" lon="2.85411">
        <ele>528.2</ele>
        <time>2019-11-01T10:59:41Z</time>
      </trkpt>
      <trkpt lat="46.25731" lon="2.85413">
        <ele>528.2</ele>
        <time>2019-11-01T10:59:42Z</time>
      </trkpt>
      <trkpt lat="46.25728" lon="2.85415">
        <ele>528.3</ele>
        <time>2019-11-01T10:59:43Z</time>
      </trkpt>
      <trkpt lat="46.25726" lon="2.85416">
        <ele>528.3</ele>
        <time>2019-11-01T10:59:44Z</time>
      </trkpt>
      <trkpt lat="46.25723" lon="2.85418">
        <ele>528.3</ele>
        <time>2019-11-01T10:59:45Z</time>
      </trkpt>
      <trkpt lat="46.2572" lon="2.8542">
        <ele>528.3</ele>
        <time>2019-11-01T10:59:46Z</time>
      </trkpt>
      <trkpt lat="46.25718" lon="2.85421">
        <ele>528.4</ele>
        <time>2019-11-01T10:59:47Z</time>
      </trkpt>
      <trkpt lat="46.25716" lon="2.85423">
        <ele>528.4</ele>
        <time>2019-11-01T10:59:48Z</time>
      </trkpt>
      <trkpt lat="46.25715" lon="2.85425">
        <ele>528.4</ele>
        <time>2019-11-01T10:59:49Z</time>
      </trkpt>
      <trkpt lat="46.25714" lon="2.85427">
        <ele>528.4</ele>
        <time>2019-11-01T10:59:50Z</time>
      </trkpt>
      <trkpt lat="46.25713" lon="2.85429">
        <ele>528.4</ele>
        <time>2019-11-01T10:59:51Z</time>
      </trkpt>
      <trkpt lat="46.25713" lon="2.8543">
        <ele>528.8</ele>
        <time>2019-11-01T10:59:52Z</time>
      </trkpt>
      <trkpt lat="46.25713" lon="2.8543">
        <ele>528.4</ele>
        <time>2019-11-01T10:59:53Z</time>
      </trkpt>
      <trkpt lat="46.25711" lon="2.85429">
        <ele>528.8</ele>
        <time>2019-11-01T10:59:54Z</time>
      </trkpt>
      <trkpt lat="46.25711" lon="2.8543">
        <ele>529</ele>
        <time>2019-11-01T10:59:55Z</time>
      </trkpt>
      <trkpt lat="46.25711" lon="2.85429">
        <ele>529</ele>
        <time>2019-11-01T10:59:56Z</time>
      </trkpt>
      <trkpt lat="46.25712" lon="2.85428">
        <ele>528.8</ele>
        <time>2019-11-01T10:59:57Z</time>
      </trkpt>
      <trkpt lat="46.25715" lon="2.85426">
        <ele>528.5</ele>
        <time>2019-11-01T10:59:58Z</time>
      </trkpt>
      <trkpt lat="46.25718" lon="2.85426">
        <ele>528.4</ele>
        <time>2019-11-01T10:59:59Z</time>
      </trkpt>
      <trkpt lat="46.2572" lon="2.85427">
        <ele>528.4</ele>
        <time>2019-11-01T11:00:00Z</time>
      </trkpt>
      <trkpt lat="46.25722" lon="2.85428">
        <ele>528.4</ele>
        <time>2019-11-01T11:00:01Z</time>
      </trkpt>
      <trkpt lat="46.25725" lon="2.85431">
        <ele>528.4</ele>
        <time>2019-11-01T11:00:02Z</time>
      </trkpt>
      <trkpt lat="46.25727" lon="2.85433">
        <ele>528.4</ele>
        <time>2019-11-01T11:00:03Z</time>
      </trkpt>
      <trkpt lat="46.25729" lon="2.85436">
        <ele>528.3</ele>
        <time>2019-11-01T11:00:04Z</time>
      </trkpt>
      <trkpt lat="46.25731" lon="2.85439">
        <ele>528.3</ele>
        <time>2019-11-01T11:00:05Z</time>
      </trkpt>
      <trkpt lat="46.25733" lon="2.85441">
        <ele>528.3</ele>
        <time>2019-11-01T11:00:06Z</time>
      </trkpt>
      <trkpt lat="46.25735" lon="2.85444">
        <ele>528.3</ele>
        <time>2019-11-01T11:00:07Z</time>
      </trkpt>
      <trkpt lat="46.25737" lon="2.85446">
        <ele>528.3</ele>
        <time>2019-11-01T11:00:08Z</time>
      </trkpt>
      <trkpt lat="46.25738" lon="2.85449">
        <ele>528.2</ele>
        <time>2019-11-01T11:00:09Z</time>
      </trkpt>
      <trkpt lat="46.25738" lon="2.85451">
        <ele>528.2</ele>
        <time>2019-11-01T11:00:10Z</time>
      </trkpt>
      <trkpt lat="46.25738" lon="2.85453">
        <ele>528.2</ele>
        <time>2019-11-01T11:00:11Z</time>
      </trkpt>
      <trkpt lat="46.25738" lon="2.85455">
        <ele>528.2</ele>
        <time>2019-11-01T11:00:12Z</time>
      </trkpt>
      <trkpt lat="46.25737" lon="2.85458">
        <ele>528.2</ele>
        <time>2019-11-01T11:00:13Z</time>
      </trkpt>
      <trkpt lat="46.25737" lon="2.8546">
        <ele>528.3</ele>
        <time>2019-11-01T11:00:14Z</time>
      </trkpt>
      <trkpt lat="46.25737" lon="2.85463">
        <ele>528.3</ele>
        <time>2019-11-01T11:00:15Z</time>
      </trkpt>
      <trkpt lat="46.25736" lon="2.85467">
        <ele>528.4</ele>
        <time>2019-11-01T11:00:16Z</time>
      </trkpt>
      <trkpt lat="46.25736" lon="2.8547">
        <ele>528.4</ele>
        <time>2019-11-01T11:00:17Z</time>
      </trkpt>
      <trkpt lat="46.25736" lon="2.85473">
        <ele>528.5</ele>
        <time>2019-11-01T11:00:18Z</time>
      </trkpt>
      <trkpt lat="46.25735" lon="2.85476">
        <ele>528.5</ele>
        <time>2019-11-01T11:00:19Z</time>
      </trkpt>
      <trkpt lat="46.25735" lon="2.8548">
        <ele>528.6</ele>
        <time>2019-11-01T11:00:20Z</time>
      </trkpt>
      <trkpt lat="46.25734" lon="2.85483">
        <ele>528.6</ele>
        <time>2019-11-01T11:00:21Z</time>
      </trkpt>
      <trkpt lat="46.25734" lon="2.85486">
        <ele>528.7</ele>
        <time>2019-11-01T11:00:22Z</time>
      </trkpt>
      <trkpt lat="46.25733" lon="2.8549">
        <ele>528.7</ele>
        <time>2019-11-01T11:00:23Z</time>
      </trkpt>
      <trkpt lat="46.25733" lon="2.85493">
        <ele>528.8</ele>
        <time>2019-11-01T11:00:24Z</time>
      </trkpt>
      <trkpt lat="46.25732" lon="2.85497">
        <ele>528.9</ele>
        <time>2019-11-01T11:00:25Z</time>
      </trkpt>
      <trkpt lat="46.25732" lon="2.85501">
        <ele>529</ele>
        <time>2019-11-01T11:00:26Z</time>
      </trkpt>
      <trkpt lat="46.25731" lon="2.85505">
        <ele>529.1</ele>
        <time>2019-11-01T11:00:27Z</time>
      </trkpt>
      <trkpt lat="46.25731" lon="2.8551">
        <ele>529.2</ele>
        <time>2019-11-01T11:00:28Z</time>
      </trkpt>
      <trkpt lat="46.2573" lon="2.85514">
        <ele>529.3</ele>
        <time>2019-11-01T11:00:29Z</time>
      </trkpt>
      <trkpt lat="46.2573" lon="2.85519">
        <ele>529.4</ele>
        <time>2019-11-01T11:00:30Z</time>
      </trkpt>
      <trkpt lat="46.2573" lon="2.85523">
        <ele>529.5</ele>
        <time>2019-11-01T11:00:31Z</time>
      </trkpt>
      <trkpt lat="46.2573" lon="2.85527">
        <ele>529.7</ele>
        <time>2019-11-01T11:00:32Z</time>
      </trkpt>
      <trkpt lat="46.2573" lon="2.85532">
        <ele>529.9</ele>
        <time>2019-11-01T11:00:33Z</time>
      </trkpt>
      <trkpt lat="46.2573" lon="2.85536">
        <ele>530</ele>
        <time>2019-11-01T11:00:34Z</time>
      </trkpt>
      <trkpt lat="46.2573" lon="2.85541">
        <ele>530.1</ele>
        <time>2019-11-01T11:00:35Z</time>
      </trkpt>
      <trkpt lat="46.2573" lon="2.85545">
        <ele>530.2</ele>
        <time>2019-11-01T11:00:36Z</time>
      </trkpt>
      <trkpt lat="46.2573" lon="2.85549">
        <ele>530.3</ele>
        <time>2019-11-01T11:00:37Z</time>
      </trkpt>
      <trkpt lat="46.25731" lon="2.85553">
        <ele>530.3</ele>
        <time>2019-11-01T11:00:38Z</time>
      </trkpt>
      <trkpt lat="46.25731" lon="2.85557">
        <ele>530.4</ele>
        <time>2019-11-01T11:00:39Z</time>
      </trkpt>
      <trkpt lat="46.25731" lon="2.8556">
        <ele>530.6</ele>
        <time>2019-11-01T11:00:40Z</time>
      </trkpt>
      <trkpt lat="46.25731" lon="2.85564">
        <ele>530.7</ele>
        <time>2019-11-01T11:00:41Z</time>
      </trkpt>
      <trkpt lat="46.25731" lon="2.85568">
        <ele>530.8</ele>
        <time>2019-11-01T11:00:42Z</time>
      </trkpt>
      <trkpt lat="46.25731" lon="2.85572">
        <ele>530.9</ele>
        <time>2019-11-01T11:00:43Z</time>
      </trkpt>
      <trkpt lat="46.2573" lon="2.85576">
        <ele>531</ele>
        <time>2019-11-01T11:00:44Z</time>
      </trkpt>
      <trkpt lat="46.2573" lon="2.8558">
        <ele>531.2</ele>
        <time>2019-11-01T11:00:45Z</time>
      </trkpt>
      <trkpt lat="46.25729" lon="2.85584">
        <ele>531.3</ele>
        <time>2019-11-01T11:00:46Z</time>
      </trkpt>
      <trkpt lat="46.25729" lon="2.85589">
        <ele>531.5</ele>
        <time>2019-11-01T11:00:47Z</time>
      </trkpt>
      <trkpt lat="46.25728" lon="2.85593">
        <ele>531.7</ele>
        <time>2019-11-01T11:00:48Z</time>
      </trkpt>
      <trkpt lat="46.25728" lon="2.85597">
        <ele>531.8</ele>
        <time>2019-11-01T11:00:49Z</time>
      </trkpt>
      <trkpt lat="46.25728" lon="2.85601">
        <ele>531.9</ele>
        <time>2019-11-01T11:00:50Z</time>
      </trkpt>
      <trkpt lat="46.25727" lon="2.85605">
        <ele>532</ele>
        <time>2019-11-01T11:00:51Z</time>
      </trkpt>
      <trkpt lat="46.25727" lon="2.85609">
        <ele>532.2</ele>
        <time>2019-11-01T11:00:52Z</time>
      </trkpt>
      <trkpt lat="46.25726" lon="2.85613">
        <ele>532.3</ele>
        <time>2019-11-01T11:00:53Z</time>
      </trkpt>
      <trkpt lat="46.25726" lon="2.85617">
        <ele>532.4</ele>
        <time>2019-11-01T11:00:54Z</time>
      </trkpt>
      <trkpt lat="46.25726" lon="2.85621">
        <ele>532.6</ele>
        <time>2019-11-01T11:00:55Z</time>
      </trkpt>
      <trkpt lat="46.25725" lon="2.85625">
        <ele>532.7</ele>
        <time>2019-11-01T11:00:56Z</time>
      </trkpt>
      <trkpt lat="46.25725" lon="2.85628">
        <ele>532.7</ele>
        <time>2019-11-01T11:00:57Z</time>
      </trkpt>
      <trkpt lat="46.25724" lon="2.85632">
        <ele>532.8</ele>
        <time>2019-11-01T11:00:58Z</time>
      </trkpt>
      <trkpt lat="46.25724" lon="2.85636">
        <ele>533</ele>
        <time>2019-11-01T11:00:59Z</time>
      </trkpt>
      <trkpt lat="46.25724" lon="2.85638">
        <ele>533.1</ele>
        <time>2019-11-01T11:01:00Z</time>
      </trkpt>
      <trkpt lat="46.25723" lon="2.85641">
        <ele>533.2</ele>
        <time>2019-11-01T11:01:01Z</time>
      </trkpt>
      <trkpt lat="46.25722" lon="2.85645">
        <ele>533.4</ele>
        <time>2019-11-01T11:01:02Z</time>
      </trkpt>
      <trkpt lat="46.25721" lon="2.85649">
        <ele>533.6</ele>
        <time>2019-11-01T11:01:03Z</time>
      </trkpt>
      <trkpt lat="46.25721" lon="2.85653">
        <ele>533.8</ele>
        <time>2019-11-01T11:01:04Z</time>
      </trkpt>
      <trkpt lat="46.2572" lon="2.85657">
        <ele>533.9</ele>
        <time>2019-11-01T11:01:05Z</time>
      </trkpt>
      <trkpt lat="46.2572" lon="2.8566">
        <ele>534.1</ele>
        <time>2019-11-01T11:01:06Z</time>
      </trkpt>
      <trkpt lat="46.25719" lon="2.85664">
        <ele>534.3</ele>
        <time>2019-11-01T11:01:07Z</time>
      </trkpt>
      <trkpt lat="46.25718" lon="2.85668">
        <ele>534.5</ele>
        <time>2019-11-01T11:01:08Z</time>
      </trkpt>
      <trkpt lat="46.25718" lon="2.85672">
        <ele>534.6</ele>
        <time>2019-11-01T11:01:09Z</time>
      </trkpt>
      <trkpt lat="46.25717" lon="2.85675">
        <ele>534.8</ele>
        <time>2019-11-01T11:01:10Z</time>
      </trkpt>
      <trkpt lat="46.25716" lon="2.85679">
        <ele>535</ele>
        <time>2019-11-01T11:01:11Z</time>
      </trkpt>
      <trkpt lat="46.25716" lon="2.85682">
        <ele>535.1</ele>
        <time>2019-11-01T11:01:12Z</time>
      </trkpt>
      <trkpt lat="46.25716" lon="2.85684">
        <ele>535.2</ele>
        <time>2019-11-01T11:01:13Z</time>
      </trkpt>
      <trkpt lat="46.25715" lon="2.85687">
        <ele>535.4</ele>
        <time>2019-11-01T11:01:14Z</time>
      </trkpt>
      <trkpt lat="46.25714" lon="2.8569">
        <ele>535.5</ele>
        <time>2019-11-01T11:01:15Z</time>
      </trkpt>
      <trkpt lat="46.25714" lon="2.85694">
        <ele>535.7</ele>
        <time>2019-11-01T11:01:16Z</time>
      </trkpt>
      <trkpt lat="46.25713" lon="2.85697">
        <ele>535.9</ele>
        <time>2019-11-01T11:01:17Z</time>
      </trkpt>
      <trkpt lat="46.25712" lon="2.85701">
        <ele>536.1</ele>
        <time>2019-11-01T11:01:18Z</time>
      </trkpt>
      <trkpt lat="46.25712" lon="2.85704">
        <ele>536.3</ele>
        <time>2019-11-01T11:01:19Z</time>
      </trkpt>
      <trkpt lat="46.25711" lon="2.85707">
        <ele>536.5</ele>
        <time>2019-11-01T11:01:20Z</time>
      </trkpt>
      <trkpt lat="46.2571" lon="2.85711">
        <ele>536.8</ele>
        <time>2019-11-01T11:01:21Z</time>
      </trkpt>
      <trkpt lat="46.25709" lon="2.85715">
        <ele>537</ele>
        <time>2019-11-01T11:01:22Z</time>
      </trkpt>
      <trkpt lat="46.25709" lon="2.85718">
        <ele>537.2</ele>
        <time>2019-11-01T11:01:23Z</time>
      </trkpt>
      <trkpt lat="46.25708" lon="2.85722">
        <ele>537.3</ele>
        <time>2019-11-01T11:01:24Z</time>
      </trkpt>
      <trkpt lat="46.25708" lon="2.85725">
        <ele>537.5</ele>
        <time>2019-11-01T11:01:25Z</time>
      </trkpt>
      <trkpt lat="46.25708" lon="2.85729">
        <ele>537.7</ele>
        <time>2019-11-01T11:01:29Z</time>
      </trkpt>
      <trkpt lat="46.25708" lon="2.85732">
        <ele>537.9</ele>
        <time>2019-11-01T11:01:30Z</time>
      </trkpt>
      <trkpt lat="46.25708" lon="2.85736">
        <ele>538.1</ele>
        <time>2019-11-01T11:01:55Z</time>
      </trkpt>
      <trkpt lat="46.25707" lon="2.8574">
        <ele>538.2</ele>
        <time>2019-11-01T11:01:56Z</time>
      </trkpt>
      <trkpt lat="46.25707" lon="2.85743">
        <ele>538.4</ele>
        <time>2019-11-01T11:01:57Z</time>
      </trkpt>
      <trkpt lat="46.25706" lon="2.85747">
        <ele>538.6</ele>
        <time>2019-11-01T11:01:58Z</time>
      </trkpt>
      <trkpt lat="46.25706" lon="2.85751">
        <ele>538.7</ele>
        <time>2019-11-01T11:01:59Z</time>
      </trkpt>
      <trkpt lat="46.25705" lon="2.85754">
        <ele>538.9</ele>
        <time>2019-11-01T11:02:00Z</time>
      </trkpt>
      <trkpt lat="46.25705" lon="2.85758">
        <ele>539</ele>
        <time>2019-11-01T11:02:01Z</time>
      </trkpt>
      <trkpt lat="46.25704" lon="2.85762">
        <ele>539.2</ele>
        <time>2019-11-01T11:02:02Z</time>
      </trkpt>
      <trkpt lat="46.25704" lon="2.85766">
        <ele>539.4</ele>
        <time>2019-11-01T11:02:03Z</time>
      </trkpt>
      <trkpt lat="46.25704" lon="2.8577">
        <ele>539.5</ele>
        <time>2019-11-01T11:02:04Z</time>
      </trkpt>
      <trkpt lat="46.25703" lon="2.85773">
        <ele>539.6</ele>
        <time>2019-11-01T11:02:05Z</time>
      </trkpt>
      <trkpt lat="46.25703" lon="2.85778">
        <ele>539.7</ele>
        <time>2019-11-01T11:02:06Z</time>
      </trkpt>
      <trkpt lat="46.25702" lon="2.85782">
        <ele>539.8</ele>
        <time>2019-11-01T11:02:07Z</time>
      </trkpt>
      <trkpt lat="46.25701" lon="2.85786">
        <ele>540</ele>
        <time>2019-11-01T11:02:08Z</time>
      </trkpt>
      <trkpt lat="46.25701" lon="2.8579">
        <ele>540.2</ele>
        <time>2019-11-01T11:02:09Z</time>
      </trkpt>
      <trkpt lat="46.257" lon="2.85794">
        <ele>540.4</ele>
        <time>2019-11-01T11:02:10Z</time>
      </trkpt>
      <trkpt lat="46.257" lon="2.85798">
        <ele>540.5</ele>
        <time>2019-11-01T11:02:11Z</time>
      </trkpt>
      <trkpt lat="46.25699" lon="2.85801">
        <ele>540.7</ele>
        <time>2019-11-01T11:02:12Z</time>
      </trkpt>
      <trkpt lat="46.25698" lon="2.85805">
        <ele>540.9</ele>
        <time>2019-11-01T11:02:13Z</time>
      </trkpt>
      <trkpt lat="46.25697" lon="2.85809">
        <ele>541</ele>
        <time>2019-11-01T11:02:14Z</time>
      </trkpt>
      <trkpt lat="46.25696" lon="2.85813">
        <ele>541.1</ele>
        <time>2019-11-01T11:02:15Z</time>
      </trkpt>
      <trkpt lat="46.25696" lon="2.85816">
        <ele>541.3</ele>
        <time>2019-11-01T11:02:16Z</time>
      </trkpt>
      <trkpt lat="46.25695" lon="2.8582">
        <ele>541.5</ele>
        <time>2019-11-01T11:02:17Z</time>
      </trkpt>
      <trkpt lat="46.25694" lon="2.85823">
        <ele>541.6</ele>
        <time>2019-11-01T11:02:18Z</time>
      </trkpt>
      <trkpt lat="46.25693" lon="2.85826">
        <ele>541.8</ele>
        <time>2019-11-01T11:02:19Z</time>
      </trkpt>
      <trkpt lat="46.25692" lon="2.85829">
        <ele>541.9</ele>
        <time>2019-11-01T11:02:20Z</time>
      </trkpt>
      <trkpt lat="46.25692" lon="2.85832">
        <ele>542</ele>
        <time>2019-11-01T11:02:21Z</time>
      </trkpt>
      <trkpt lat="46.25691" lon="2.85835">
        <ele>542.1</ele>
        <time>2019-11-01T11:02:22Z</time>
      </trkpt>
      <trkpt lat="46.2569" lon="2.85837">
        <ele>542.3</ele>
        <time>2019-11-01T11:02:23Z</time>
      </trkpt>
      <trkpt lat="46.25689" lon="2.8584">
        <ele>542.4</ele>
        <time>2019-11-01T11:02:24Z</time>
      </trkpt>
      <trkpt lat="46.25688" lon="2.85843">
        <ele>542.6</ele>
        <time>2019-11-01T11:02:25Z</time>
      </trkpt>
      <trkpt lat="46.25687" lon="2.85846">
        <ele>542.8</ele>
        <time>2019-11-01T11:02:26Z</time>
      </trkpt>
      <trkpt lat="46.25686" lon="2.85849">
        <ele>543</ele>
        <time>2019-11-01T11:02:27Z</time>
      </trkpt>
      <trkpt lat="46.25686" lon="2.85853">
        <ele>543.2</ele>
        <time>2019-11-01T11:02:28Z</time>
      </trkpt>
      <trkpt lat="46.25685" lon="2.85856">
        <ele>543.4</ele>
        <time>2019-11-01T11:02:29Z</time>
      </trkpt>
      <trkpt lat="46.25684" lon="2.85859">
        <ele>543.6</ele>
        <time>2019-11-01T11:02:30Z</time>
      </trkpt>
      <trkpt lat="46.25683" lon="2.85863">
        <ele>543.7</ele>
        <time>2019-11-01T11:02:31Z</time>
      </trkpt>
      <trkpt lat="46.25682" lon="2.85866">
        <ele>543.9</ele>
        <time>2019-11-01T11:02:32Z</time>
      </trkpt>
      <trkpt lat="46.25681" lon="2.85869">
        <ele>544</ele>
        <time>2019-11-01T11:02:33Z</time>
      </trkpt>
      <trkpt lat="46.25681" lon="2.85873">
        <ele>544.1</ele>
        <time>2019-11-01T11:02:34Z</time>
      </trkpt>
      <trkpt lat="46.2568" lon="2.85876">
        <ele>544.2</ele>
        <time>2019-11-01T11:02:35Z</time>
      </trkpt>
      <trkpt lat="46.25679" lon="2.8588">
        <ele>544.2</ele>
        <time>2019-11-01T11:02:36Z</time>
      </trkpt>
      <trkpt lat="46.25678" lon="2.85884">
        <ele>544.3</ele>
        <time>2019-11-01T11:02:37Z</time>
      </trkpt>
      <trkpt lat="46.25677" lon="2.85888">
        <ele>544.4</ele>
        <time>2019-11-01T11:02:38Z</time>
      </trkpt>
      <trkpt lat="46.25676" lon="2.85892">
        <ele>544.5</ele>
        <time>2019-11-01T11:02:39Z</time>
      </trkpt>
      <trkpt lat="46.25675" lon="2.85896">
        <ele>544.6</ele>
        <time>2019-11-01T11:02:40Z</time>
      </trkpt>
      <trkpt lat="46.25674" lon="2.859">
        <ele>544.8</ele>
        <time>2019-11-01T11:02:41Z</time>
      </trkpt>
      <trkpt lat="46.25673" lon="2.85903">
        <ele>544.8</ele>
        <time>2019-11-01T11:02:42Z</time>
      </trkpt>
      <trkpt lat="46.25672" lon="2.85906">
        <ele>544.9</ele>
        <time>2019-11-01T11:02:43Z</time>
      </trkpt>
      <trkpt lat="46.25671" lon="2.8591">
        <ele>545.1</ele>
        <time>2019-11-01T11:02:44Z</time>
      </trkpt>
      <trkpt lat="46.2567" lon="2.85914">
        <ele>545.2</ele>
        <time>2019-11-01T11:02:45Z</time>
      </trkpt>
      <trkpt lat="46.25669" lon="2.85918">
        <ele>545.4</ele>
        <time>2019-11-01T11:02:46Z</time>
      </trkpt>
      <trkpt lat="46.25668" lon="2.85923">
        <ele>545.5</ele>
        <time>2019-11-01T11:02:47Z</time>
      </trkpt>
      <trkpt lat="46.25667" lon="2.85927">
        <ele>545.6</ele>
        <time>2019-11-01T11:02:48Z</time>
      </trkpt>
      <trkpt lat="46.25666" lon="2.85931">
        <ele>545.7</ele>
        <time>2019-11-01T11:02:49Z</time>
      </trkpt>
      <trkpt lat="46.25666" lon="2.85936">
        <ele>545.8</ele>
        <time>2019-11-01T11:02:50Z</time>
      </trkpt>
      <trkpt lat="46.25665" lon="2.8594">
        <ele>545.9</ele>
        <time>2019-11-01T11:02:51Z</time>
      </trkpt>
      <trkpt lat="46.25665" lon="2.85944">
        <ele>546.1</ele>
        <time>2019-11-01T11:02:52Z</time>
      </trkpt>
      <trkpt lat="46.25664" lon="2.85948">
        <ele>546.2</ele>
        <time>2019-11-01T11:02:53Z</time>
      </trkpt>
      <trkpt lat="46.25664" lon="2.85952">
        <ele>546.4</ele>
        <time>2019-11-01T11:02:54Z</time>
      </trkpt>
      <trkpt lat="46.25663" lon="2.85956">
        <ele>546.5</ele>
        <time>2019-11-01T11:02:55Z</time>
      </trkpt>
      <trkpt lat="46.25663" lon="2.8596">
        <ele>546.5</ele>
        <time>2019-11-01T11:02:56Z</time>
      </trkpt>
      <trkpt lat="46.25662" lon="2.85964">
        <ele>546.6</ele>
        <time>2019-11-01T11:02:57Z</time>
      </trkpt>
      <trkpt lat="46.25661" lon="2.85968">
        <ele>546.6</ele>
        <time>2019-11-01T11:02:58Z</time>
      </trkpt>
      <trkpt lat="46.2566" lon="2.85971">
        <ele>546.7</ele>
        <time>2019-11-01T11:02:59Z</time>
      </trkpt>
      <trkpt lat="46.25659" lon="2.85975">
        <ele>546.8</ele>
        <time>2019-11-01T11:03:00Z</time>
      </trkpt>
      <trkpt lat="46.25658" lon="2.85978">
        <ele>546.8</ele>
        <time>2019-11-01T11:03:01Z</time>
      </trkpt>
      <trkpt lat="46.25658" lon="2.8598">
        <ele>546.8</ele>
        <time>2019-11-01T11:03:02Z</time>
      </trkpt>
      <trkpt lat="46.25658" lon="2.85982">
        <ele>546.9</ele>
        <time>2019-11-01T11:03:03Z</time>
      </trkpt>
      <trkpt lat="46.25658" lon="2.85984">
        <ele>546.9</ele>
        <time>2019-11-01T11:03:04Z</time>
      </trkpt>
      <trkpt lat="46.25658" lon="2.85984">
        <ele>546.9</ele>
        <time>2019-11-01T11:03:05Z</time>
      </trkpt>
      <trkpt lat="46.25659" lon="2.85984">
        <ele>546.9</ele>
        <time>2019-11-01T11:03:06Z</time>
      </trkpt>
      <trkpt lat="46.2566" lon="2.85983">
        <ele>547</ele>
        <time>2019-11-01T11:03:07Z</time>
      </trkpt>
      <trkpt lat="46.2566" lon="2.85983">
        <ele>547</ele>
        <time>2019-11-01T11:03:08Z</time>
      </trkpt>
      <trkpt lat="46.2566" lon="2.85984">
        <ele>547</ele>
        <time>2019-11-01T11:03:09Z</time>
      </trkpt>
      <trkpt lat="46.2566" lon="2.85984">
        <ele>547</ele>
        <time>2019-11-01T11:03:10Z</time>
      </trkpt>
      <trkpt lat="46.2566" lon="2.85984">
        <ele>547</ele>
        <time>2019-11-01T11:03:11Z</time>
      </trkpt>
      <trkpt lat="46.2566" lon="2.85984">
        <ele>547</ele>
        <time>2019-11-01T11:03:12Z</time>
      </trkpt>
      <trkpt lat="46.25661" lon="2.85987">
        <ele>547.1</ele>
        <time>2019-11-01T11:03:13Z</time>
      </trkpt>
      <trkpt lat="46.25661" lon="2.85991">
        <ele>547.4</ele>
        <time>2019-11-01T11:03:14Z</time>
      </trkpt>
      <trkpt lat="46.25661" lon="2.85995">
        <ele>547.5</ele>
        <time>2019-11-01T11:03:15Z</time>
      </trkpt>
      <trkpt lat="46.25661" lon="2.85999">
        <ele>547.6</ele>
        <time>2019-11-01T11:03:16Z</time>
      </trkpt>
      <trkpt lat="46.25661" lon="2.86003">
        <ele>547.8</ele>
        <time>2019-11-01T11:03:17Z</time>
      </trkpt>
      <trkpt lat="46.25661" lon="2.86008">
        <ele>547.9</ele>
        <time>2019-11-01T11:03:18Z</time>
      </trkpt>
      <trkpt lat="46.25661" lon="2.86012">
        <ele>548.1</ele>
        <time>2019-11-01T11:03:19Z</time>
      </trkpt>
      <trkpt lat="46.25661" lon="2.86017">
        <ele>548.3</ele>
        <time>2019-11-01T11:03:20Z</time>
      </trkpt>
      <trkpt lat="46.2566" lon="2.86022">
        <ele>548.4</ele>
        <time>2019-11-01T11:03:21Z</time>
      </trkpt>
      <trkpt lat="46.2566" lon="2.86027">
        <ele>548.6</ele>
        <time>2019-11-01T11:03:22Z</time>
      </trkpt>
      <trkpt lat="46.25659" lon="2.86032">
        <ele>548.7</ele>
        <time>2019-11-01T11:03:23Z</time>
      </trkpt>
      <trkpt lat="46.25659" lon="2.86037">
        <ele>548.8</ele>
        <time>2019-11-01T11:03:24Z</time>
      </trkpt>
      <trkpt lat="46.25659" lon="2.86042">
        <ele>549</ele>
        <time>2019-11-01T11:03:25Z</time>
      </trkpt>
      <trkpt lat="46.25658" lon="2.86047">
        <ele>549.1</ele>
        <time>2019-11-01T11:03:26Z</time>
      </trkpt>
      <trkpt lat="46.25658" lon="2.86053">
        <ele>549.2</ele>
        <time>2019-11-01T11:03:27Z</time>
      </trkpt>
      <trkpt lat="46.25658" lon="2.86058">
        <ele>549.3</ele>
        <time>2019-11-01T11:03:28Z</time>
      </trkpt>
      <trkpt lat="46.25658" lon="2.86063">
        <ele>549.4</ele>
        <time>2019-11-01T11:03:29Z</time>
      </trkpt>
      <trkpt lat="46.25658" lon="2.86068">
        <ele>549.5</ele>
        <time>2019-11-01T11:03:30Z</time>
      </trkpt>
      <trkpt lat="46.25657" lon="2.86073">
        <ele>549.6</ele>
        <time>2019-11-01T11:03:31Z</time>
      </trkpt>
      <trkpt lat="46.25657" lon="2.86079">
        <ele>549.7</ele>
        <time>2019-11-01T11:03:32Z</time>
      </trkpt>
      <trkpt lat="46.25656" lon="2.86084">
        <ele>549.8</ele>
        <time>2019-11-01T11:03:33Z</time>
      </trkpt>
      <trkpt lat="46.25656" lon="2.86089">
        <ele>549.9</ele>
        <time>2019-11-01T11:03:34Z</time>
      </trkpt>
      <trkpt lat="46.25656" lon="2.86094">
        <ele>549.9</ele>
        <time>2019-11-01T11:03:35Z</time>
      </trkpt>
      <trkpt lat="46.25656" lon="2.861">
        <ele>550</ele>
        <time>2019-11-01T11:03:36Z</time>
      </trkpt>
      <trkpt lat="46.25656" lon="2.86105">
        <ele>550</ele>
        <time>2019-11-01T11:03:37Z</time>
      </trkpt>
      <trkpt lat="46.25655" lon="2.86111">
        <ele>550.1</ele>
        <time>2019-11-01T11:03:38Z</time>
      </trkpt>
      <trkpt lat="46.25655" lon="2.86117">
        <ele>550.2</ele>
        <time>2019-11-01T11:03:39Z</time>
      </trkpt>
      <trkpt lat="46.25655" lon="2.86123">
        <ele>550.3</ele>
        <time>2019-11-01T11:03:40Z</time>
      </trkpt>
      <trkpt lat="46.25655" lon="2.86129">
        <ele>550.4</ele>
        <time>2019-11-01T11:03:41Z</time>
      </trkpt>
      <trkpt lat="46.25655" lon="2.86135">
        <ele>550.5</ele>
        <time>2019-11-01T11:03:42Z</time>
      </trkpt>
      <trkpt lat="46.25654" lon="2.86141">
        <ele>550.5</ele>
        <time>2019-11-01T11:03:43Z</time>
      </trkpt>
      <trkpt lat="46.25654" lon="2.86147">
        <ele>550.6</ele>
        <time>2019-11-01T11:03:44Z</time>
      </trkpt>
      <trkpt lat="46.25654" lon="2.86154">
        <ele>550.7</ele>
        <time>2019-11-01T11:03:45Z</time>
      </trkpt>
      <trkpt lat="46.25654" lon="2.8616">
        <ele>550.8</ele>
        <time>2019-11-01T11:03:46Z</time>
      </trkpt>
      <trkpt lat="46.25654" lon="2.86167">
        <ele>550.8</ele>
        <time>2019-11-01T11:03:47Z</time>
      </trkpt>
      <trkpt lat="46.25654" lon="2.86173">
        <ele>550.9</ele>
        <time>2019-11-01T11:03:48Z</time>
      </trkpt>
      <trkpt lat="46.25654" lon="2.8618">
        <ele>550.9</ele>
        <time>2019-11-01T11:03:49Z</time>
      </trkpt>
      <trkpt lat="46.25654" lon="2.86186">
        <ele>550.9</ele>
        <time>2019-11-01T11:03:50Z</time>
      </trkpt>
      <trkpt lat="46.25654" lon="2.86193">
        <ele>551</ele>
        <time>2019-11-01T11:03:51Z</time>
      </trkpt>
      <trkpt lat="46.25654" lon="2.86199">
        <ele>551</ele>
        <time>2019-11-01T11:03:52Z</time>
      </trkpt>
      <trkpt lat="46.25654" lon="2.86206">
        <ele>551</ele>
        <time>2019-11-01T11:03:53Z</time>
      </trkpt>
      <trkpt lat="46.25653" lon="2.86212">
        <ele>551</ele>
        <time>2019-11-01T11:03:54Z</time>
      </trkpt>
      <trkpt lat="46.25653" lon="2.86218">
        <ele>550.9</ele>
        <time>2019-11-01T11:03:55Z</time>
      </trkpt>
      <trkpt lat="46.25652" lon="2.86224">
        <ele>550.8</ele>
        <time>2019-11-01T11:03:56Z</time>
      </trkpt>
      <trkpt lat="46.25652" lon="2.8623">
        <ele>550.7</ele>
        <time>2019-11-01T11:03:57Z</time>
      </trkpt>
      <trkpt lat="46.25651" lon="2.86236">
        <ele>550.6</ele>
        <time>2019-11-01T11:03:58Z</time>
      </trkpt>
      <trkpt lat="46.2565" lon="2.86242">
        <ele>550.6</ele>
        <time>2019-11-01T11:03:59Z</time>
      </trkpt>
      <trkpt lat="46.25649" lon="2.86248">
        <ele>550.4</ele>
        <time>2019-11-01T11:04:00Z</time>
      </trkpt>
      <trkpt lat="46.25647" lon="2.86255">
        <ele>550.3</ele>
        <time>2019-11-01T11:04:01Z</time>
      </trkpt>
      <trkpt lat="46.25646" lon="2.86261">
        <ele>550.2</ele>
        <time>2019-11-01T11:04:02Z</time>
      </trkpt>
      <trkpt lat="46.25645" lon="2.86267">
        <ele>550.1</ele>
        <time>2019-11-01T11:04:03Z</time>
      </trkpt>
      <trkpt lat="46.25643" lon="2.86273">
        <ele>550</ele>
        <time>2019-11-01T11:04:04Z</time>
      </trkpt>
      <trkpt lat="46.25642" lon="2.8628">
        <ele>549.9</ele>
        <time>2019-11-01T11:04:05Z</time>
      </trkpt>
      <trkpt lat="46.25641" lon="2.86287">
        <ele>549.8</ele>
        <time>2019-11-01T11:04:06Z</time>
      </trkpt>
      <trkpt lat="46.2564" lon="2.86294">
        <ele>549.8</ele>
        <time>2019-11-01T11:04:07Z</time>
      </trkpt>
      <trkpt lat="46.25639" lon="2.86301">
        <ele>549.7</ele>
        <time>2019-11-01T11:04:08Z</time>
      </trkpt>
      <trkpt lat="46.25638" lon="2.86309">
        <ele>549.6</ele>
        <time>2019-11-01T11:04:09Z</time>
      </trkpt>
      <trkpt lat="46.25637" lon="2.86317">
        <ele>549.5</ele>
        <time>2019-11-01T11:04:10Z</time>
      </trkpt>
      <trkpt lat="46.25636" lon="2.86326">
        <ele>549.4</ele>
        <time>2019-11-01T11:04:11Z</time>
      </trkpt>
      <trkpt lat="46.25635" lon="2.86334">
        <ele>549.4</ele>
        <time>2019-11-01T11:04:12Z</time>
      </trkpt>
      <trkpt lat="46.25634" lon="2.86342">
        <ele>549.3</ele>
        <time>2019-11-01T11:04:13Z</time>
      </trkpt>
      <trkpt lat="46.25632" lon="2.86351">
        <ele>549.3</ele>
        <time>2019-11-01T11:04:14Z</time>
      </trkpt>
      <trkpt lat="46.25631" lon="2.86359">
        <ele>549.2</ele>
        <time>2019-11-01T11:04:15Z</time>
      </trkpt>
      <trkpt lat="46.2563" lon="2.86368">
        <ele>549.1</ele>
        <time>2019-11-01T11:04:16Z</time>
      </trkpt>
      <trkpt lat="46.25629" lon="2.86376">
        <ele>549</ele>
        <time>2019-11-01T11:04:17Z</time>
      </trkpt>
      <trkpt lat="46.25629" lon="2.86384">
        <ele>548.9</ele>
        <time>2019-11-01T11:04:18Z</time>
      </trkpt>
      <trkpt lat="46.25628" lon="2.86393">
        <ele>548.8</ele>
        <time>2019-11-01T11:04:19Z</time>
      </trkpt>
      <trkpt lat="46.25628" lon="2.86401">
        <ele>548.7</ele>
        <time>2019-11-01T11:04:20Z</time>
      </trkpt>
      <trkpt lat="46.25628" lon="2.8641">
        <ele>548.6</ele>
        <time>2019-11-01T11:04:21Z</time>
      </trkpt>
      <trkpt lat="46.25629" lon="2.86418">
        <ele>548.6</ele>
        <time>2019-11-01T11:04:22Z</time>
      </trkpt>
      <trkpt lat="46.25629" lon="2.86427">
        <ele>548.5</ele>
        <time>2019-11-01T11:04:23Z</time>
      </trkpt>
      <trkpt lat="46.25629" lon="2.86435">
        <ele>548.5</ele>
        <time>2019-11-01T11:04:24Z</time>
      </trkpt>
      <trkpt lat="46.2563" lon="2.86444">
        <ele>548.5</ele>
        <time>2019-11-01T11:04:25Z</time>
      </trkpt>
      <trkpt lat="46.2563" lon="2.86453">
        <ele>548.5</ele>
        <time>2019-11-01T11:04:26Z</time>
      </trkpt>
      <trkpt lat="46.25631" lon="2.86461">
        <ele>548.5</ele>
        <time>2019-11-01T11:04:27Z</time>
      </trkpt>
      <trkpt lat="46.25631" lon="2.8647">
        <ele>548.5</ele>
        <time>2019-11-01T11:04:28Z</time>
      </trkpt>
      <trkpt lat="46.25631" lon="2.86478">
        <ele>548.5</ele>
        <time>2019-11-01T11:04:29Z</time>
      </trkpt>
      <trkpt lat="46.25631" lon="2.86486">
        <ele>548.5</ele>
        <time>2019-11-01T11:04:30Z</time>
      </trkpt>
      <trkpt lat="46.25631" lon="2.86495">
        <ele>548.5</ele>
        <time>2019-11-01T11:04:31Z</time>
      </trkpt>
      <trkpt lat="46.2563" lon="2.86503">
        <ele>548.5</ele>
        <time>2019-11-01T11:04:32Z</time>
      </trkpt>
      <trkpt lat="46.2563" lon="2.86512">
        <ele>548.5</ele>
        <time>2019-11-01T11:04:33Z</time>
      </trkpt>
      <trkpt lat="46.2563" lon="2.8652">
        <ele>548.5</ele>
        <time>2019-11-01T11:04:34Z</time>
      </trkpt>
      <trkpt lat="46.25629" lon="2.86528">
        <ele>548.5</ele>
        <time>2019-11-01T11:04:35Z</time>
      </trkpt>
      <trkpt lat="46.25629" lon="2.86537">
        <ele>548.4</ele>
        <time>2019-11-01T11:04:36Z</time>
      </trkpt>
      <trkpt lat="46.25629" lon="2.86545">
        <ele>548.4</ele>
        <time>2019-11-01T11:04:37Z</time>
      </trkpt>
      <trkpt lat="46.25628" lon="2.86553">
        <ele>548.4</ele>
        <time>2019-11-01T11:04:38Z</time>
      </trkpt>
      <trkpt lat="46.25627" lon="2.8656">
        <ele>548.3</ele>
        <time>2019-11-01T11:04:39Z</time>
      </trkpt>
      <trkpt lat="46.25626" lon="2.86569">
        <ele>548.2</ele>
        <time>2019-11-01T11:04:40Z</time>
      </trkpt>
      <trkpt lat="46.25625" lon="2.86577">
        <ele>548.1</ele>
        <time>2019-11-01T11:04:41Z</time>
      </trkpt>
      <trkpt lat="46.25624" lon="2.86585">
        <ele>548</ele>
        <time>2019-11-01T11:04:42Z</time>
      </trkpt>
      <trkpt lat="46.25623" lon="2.86593">
        <ele>547.9</ele>
        <time>2019-11-01T11:04:43Z</time>
      </trkpt>
      <trkpt lat="46.25622" lon="2.86602">
        <ele>547.8</ele>
        <time>2019-11-01T11:04:44Z</time>
      </trkpt>
      <trkpt lat="46.25621" lon="2.8661">
        <ele>547.7</ele>
        <time>2019-11-01T11:04:45Z</time>
      </trkpt>
      <trkpt lat="46.25619" lon="2.86619">
        <ele>547.6</ele>
        <time>2019-11-01T11:04:46Z</time>
      </trkpt>
      <trkpt lat="46.25618" lon="2.86627">
        <ele>547.4</ele>
        <time>2019-11-01T11:04:47Z</time>
      </trkpt>
      <trkpt lat="46.25617" lon="2.86636">
        <ele>547.3</ele>
        <time>2019-11-01T11:04:48Z</time>
      </trkpt>
      <trkpt lat="46.25616" lon="2.86643">
        <ele>547.2</ele>
        <time>2019-11-01T11:04:49Z</time>
      </trkpt>
      <trkpt lat="46.25615" lon="2.86654">
        <ele>547</ele>
        <time>2019-11-01T11:04:50Z</time>
      </trkpt>
      <trkpt lat="46.25615" lon="2.86663">
        <ele>546.8</ele>
        <time>2019-11-01T11:04:51Z</time>
      </trkpt>
      <trkpt lat="46.25614" lon="2.86672">
        <ele>546.6</ele>
        <time>2019-11-01T11:04:52Z</time>
      </trkpt>
      <trkpt lat="46.25614" lon="2.86681">
        <ele>546.4</ele>
        <time>2019-11-01T11:04:53Z</time>
      </trkpt>
      <trkpt lat="46.25614" lon="2.8669">
        <ele>546.3</ele>
        <time>2019-11-01T11:04:54Z</time>
      </trkpt>
      <trkpt lat="46.25615" lon="2.867">
        <ele>546.1</ele>
        <time>2019-11-01T11:04:55Z</time>
      </trkpt>
      <trkpt lat="46.25615" lon="2.86709">
        <ele>546</ele>
        <time>2019-11-01T11:04:56Z</time>
      </trkpt>
      <trkpt lat="46.25616" lon="2.86719">
        <ele>545.8</ele>
        <time>2019-11-01T11:04:57Z</time>
      </trkpt>
      <trkpt lat="46.25617" lon="2.86728">
        <ele>545.6</ele>
        <time>2019-11-01T11:04:58Z</time>
      </trkpt>
      <trkpt lat="46.25618" lon="2.86738">
        <ele>545.4</ele>
        <time>2019-11-01T11:04:59Z</time>
      </trkpt>
      <trkpt lat="46.25619" lon="2.86748">
        <ele>545.2</ele>
        <time>2019-11-01T11:05:00Z</time>
      </trkpt>
      <trkpt lat="46.2562" lon="2.86758">
        <ele>545</ele>
        <time>2019-11-01T11:05:01Z</time>
      </trkpt>
      <trkpt lat="46.25621" lon="2.86768">
        <ele>544.7</ele>
        <time>2019-11-01T11:05:02Z</time>
      </trkpt>
      <trkpt lat="46.25622" lon="2.86778">
        <ele>544.4</ele>
        <time>2019-11-01T11:05:03Z</time>
      </trkpt>
      <trkpt lat="46.25624" lon="2.86789">
        <ele>544</ele>
        <time>2019-11-01T11:05:04Z</time>
      </trkpt>
      <trkpt lat="46.25625" lon="2.86799">
        <ele>543.7</ele>
        <time>2019-11-01T11:05:05Z</time>
      </trkpt>
      <trkpt lat="46.25626" lon="2.8681">
        <ele>543.4</ele>
        <time>2019-11-01T11:05:06Z</time>
      </trkpt>
      <trkpt lat="46.25627" lon="2.8682">
        <ele>543.2</ele>
        <time>2019-11-01T11:05:07Z</time>
      </trkpt>
      <trkpt lat="46.25628" lon="2.86829">
        <ele>543</ele>
        <time>2019-11-01T11:05:08Z</time>
      </trkpt>
      <trkpt lat="46.25629" lon="2.86839">
        <ele>542.8</ele>
        <time>2019-11-01T11:05:09Z</time>
      </trkpt>
      <trkpt lat="46.25629" lon="2.86844">
        <ele>542.6</ele>
        <time>2019-11-01T11:05:10Z</time>
      </trkpt>
      <trkpt lat="46.2563" lon="2.8685">
        <ele>542.4</ele>
        <time>2019-11-01T11:05:11Z</time>
      </trkpt>
      <trkpt lat="46.2563" lon="2.86856">
        <ele>542.3</ele>
        <time>2019-11-01T11:05:12Z</time>
      </trkpt>
      <trkpt lat="46.25631" lon="2.8686">
        <ele>542.1</ele>
        <time>2019-11-01T11:05:13Z</time>
      </trkpt>
      <trkpt lat="46.25631" lon="2.86864">
        <ele>542.1</ele>
        <time>2019-11-01T11:05:14Z</time>
      </trkpt>
      <trkpt lat="46.25631" lon="2.86868">
        <ele>542</ele>
        <time>2019-11-01T11:05:15Z</time>
      </trkpt>
      <trkpt lat="46.25631" lon="2.86871">
        <ele>541.9</ele>
        <time>2019-11-01T11:05:16Z</time>
      </trkpt>
      <trkpt lat="46.25631" lon="2.86874">
        <ele>541.9</ele>
        <time>2019-11-01T11:05:17Z</time>
      </trkpt>
      <trkpt lat="46.25632" lon="2.86877">
        <ele>541.8</ele>
        <time>2019-11-01T11:05:18Z</time>
      </trkpt>
      <trkpt lat="46.25632" lon="2.86879">
        <ele>541.8</ele>
        <time>2019-11-01T11:05:19Z</time>
      </trkpt>
      <trkpt lat="46.25632" lon="2.8688">
        <ele>541.8</ele>
        <time>2019-11-01T11:05:20Z</time>
      </trkpt>
      <trkpt lat="46.25633" lon="2.86882">
        <ele>541.8</ele>
        <time>2019-11-01T11:05:21Z</time>
      </trkpt>
      <trkpt lat="46.25633" lon="2.86883">
        <ele>541.7</ele>
        <time>2019-11-01T11:05:22Z</time>
      </trkpt>
      <trkpt lat="46.25633" lon="2.86886">
        <ele>541.7</ele>
        <time>2019-11-01T11:05:23Z</time>
      </trkpt>
      <trkpt lat="46.25633" lon="2.86889">
        <ele>541.7</ele>
        <time>2019-11-01T11:05:24Z</time>
      </trkpt>
      <trkpt lat="46.25633" lon="2.86893">
        <ele>541.6</ele>
        <time>2019-11-01T11:05:25Z</time>
      </trkpt>
      <trkpt lat="46.25633" lon="2.86899">
        <ele>541.5</ele>
        <time>2019-11-01T11:05:26Z</time>
      </trkpt>
      <trkpt lat="46.25632" lon="2.86905">
        <ele>541.4</ele>
        <time>2019-11-01T11:05:27Z</time>
      </trkpt>
      <trkpt lat="46.25632" lon="2.86912">
        <ele>541.3</ele>
        <time>2019-11-01T11:05:28Z</time>
      </trkpt>
      <trkpt lat="46.25631" lon="2.86918">
        <ele>541.2</ele>
        <time>2019-11-01T11:05:29Z</time>
      </trkpt>
      <trkpt lat="46.25631" lon="2.86925">
        <ele>541.1</ele>
        <time>2019-11-01T11:05:30Z</time>
      </trkpt>
      <trkpt lat="46.2563" lon="2.86931">
        <ele>541</ele>
        <time>2019-11-01T11:05:31Z</time>
      </trkpt>
      <trkpt lat="46.25629" lon="2.86938">
        <ele>540.8</ele>
        <time>2019-11-01T11:05:32Z</time>
      </trkpt>
      <trkpt lat="46.25627" lon="2.86944">
        <ele>540.7</ele>
        <time>2019-11-01T11:05:33Z</time>
      </trkpt>
      <trkpt lat="46.25626" lon="2.8695">
        <ele>540.6</ele>
        <time>2019-11-01T11:05:34Z</time>
      </trkpt>
      <trkpt lat="46.25625" lon="2.86956">
        <ele>540.4</ele>
        <time>2019-11-01T11:05:35Z</time>
      </trkpt>
      <trkpt lat="46.25623" lon="2.86962">
        <ele>540.3</ele>
        <time>2019-11-01T11:05:36Z</time>
      </trkpt>
      <trkpt lat="46.25621" lon="2.86967">
        <ele>540.1</ele>
        <time>2019-11-01T11:05:37Z</time>
      </trkpt>
      <trkpt lat="46.25617" lon="2.86971">
        <ele>539.9</ele>
        <time>2019-11-01T11:05:38Z</time>
      </trkpt>
      <trkpt lat="46.25613" lon="2.86975">
        <ele>539.8</ele>
        <time>2019-11-01T11:05:39Z</time>
      </trkpt>
      <trkpt lat="46.25609" lon="2.86979">
        <ele>539.7</ele>
        <time>2019-11-01T11:05:40Z</time>
      </trkpt>
      <trkpt lat="46.25606" lon="2.86983">
        <ele>539.6</ele>
        <time>2019-11-01T11:05:41Z</time>
      </trkpt>
      <trkpt lat="46.25602" lon="2.86988">
        <ele>539.6</ele>
        <time>2019-11-01T11:05:42Z</time>
      </trkpt>
      <trkpt lat="46.256" lon="2.86994">
        <ele>539.5</ele>
        <time>2019-11-01T11:05:43Z</time>
      </trkpt>
      <trkpt lat="46.25597" lon="2.87">
        <ele>539.4</ele>
        <time>2019-11-01T11:05:44Z</time>
      </trkpt>
      <trkpt lat="46.25596" lon="2.87006">
        <ele>539.3</ele>
        <time>2019-11-01T11:05:45Z</time>
      </trkpt>
      <trkpt lat="46.25594" lon="2.87013">
        <ele>539.2</ele>
        <time>2019-11-01T11:05:46Z</time>
      </trkpt>
      <trkpt lat="46.25593" lon="2.87021">
        <ele>539.1</ele>
        <time>2019-11-01T11:05:47Z</time>
      </trkpt>
      <trkpt lat="46.25592" lon="2.87027">
        <ele>539</ele>
        <time>2019-11-01T11:05:48Z</time>
      </trkpt>
      <trkpt lat="46.25591" lon="2.87035">
        <ele>539</ele>
        <time>2019-11-01T11:05:49Z</time>
      </trkpt>
      <trkpt lat="46.2559" lon="2.87042">
        <ele>538.9</ele>
        <time>2019-11-01T11:05:50Z</time>
      </trkpt>
      <trkpt lat="46.25589" lon="2.8705">
        <ele>538.7</ele>
        <time>2019-11-01T11:05:51Z</time>
      </trkpt>
      <trkpt lat="46.25588" lon="2.87057">
        <ele>538.6</ele>
        <time>2019-11-01T11:05:52Z</time>
      </trkpt>
      <trkpt lat="46.25587" lon="2.87065">
        <ele>538.5</ele>
        <time>2019-11-01T11:05:53Z</time>
      </trkpt>
      <trkpt lat="46.25586" lon="2.87073">
        <ele>538.4</ele>
        <time>2019-11-01T11:05:54Z</time>
      </trkpt>
      <trkpt lat="46.25586" lon="2.8708">
        <ele>538.2</ele>
        <time>2019-11-01T11:05:55Z</time>
      </trkpt>
      <trkpt lat="46.25586" lon="2.87088">
        <ele>538.1</ele>
        <time>2019-11-01T11:05:56Z</time>
      </trkpt>
      <trkpt lat="46.25585" lon="2.87096">
        <ele>538</ele>
        <time>2019-11-01T11:05:57Z</time>
      </trkpt>
      <trkpt lat="46.25585" lon="2.87104">
        <ele>537.9</ele>
        <time>2019-11-01T11:05:58Z</time>
      </trkpt>
      <trkpt lat="46.25584" lon="2.87112">
        <ele>537.8</ele>
        <time>2019-11-01T11:05:59Z</time>
      </trkpt>
      <trkpt lat="46.25583" lon="2.8712">
        <ele>537.6</ele>
        <time>2019-11-01T11:06:00Z</time>
      </trkpt>
      <trkpt lat="46.25583" lon="2.87128">
        <ele>537.5</ele>
        <time>2019-11-01T11:06:01Z</time>
      </trkpt>
      <trkpt lat="46.25583" lon="2.87136">
        <ele>537.4</ele>
        <time>2019-11-01T11:06:02Z</time>
      </trkpt>
      <trkpt lat="46.25583" lon="2.87143">
        <ele>537.3</ele>
        <time>2019-11-01T11:06:03Z</time>
      </trkpt>
      <trkpt lat="46.25583" lon="2.8715">
        <ele>537.3</ele>
        <time>2019-11-01T11:06:04Z</time>
      </trkpt>
      <trkpt lat="46.25584" lon="2.87157">
        <ele>537.2</ele>
        <time>2019-11-01T11:06:05Z</time>
      </trkpt>
      <trkpt lat="46.25584" lon="2.87166">
        <ele>537.2</ele>
        <time>2019-11-01T11:06:06Z</time>
      </trkpt>
      <trkpt lat="46.25585" lon="2.87172">
        <ele>537.3</ele>
        <time>2019-11-01T11:06:07Z</time>
      </trkpt>
      <trkpt lat="46.25586" lon="2.87179">
        <ele>537.3</ele>
        <time>2019-11-01T11:06:08Z</time>
      </trkpt>
      <trkpt lat="46.25587" lon="2.87185">
        <ele>537.3</ele>
        <time>2019-11-01T11:06:09Z</time>
      </trkpt>
      <trkpt lat="46.25587" lon="2.87189">
        <ele>537.2</ele>
        <time>2019-11-01T11:06:10Z</time>
      </trkpt>
      <trkpt lat="46.25588" lon="2.87196">
        <ele>537.4</ele>
        <time>2019-11-01T11:06:11Z</time>
      </trkpt>
      <trkpt lat="46.25588" lon="2.87202">
        <ele>537.3</ele>
        <time>2019-11-01T11:06:12Z</time>
      </trkpt>
      <trkpt lat="46.25589" lon="2.87208">
        <ele>537.3</ele>
        <time>2019-11-01T11:06:13Z</time>
      </trkpt>
      <trkpt lat="46.2559" lon="2.87213">
        <ele>537.3</ele>
        <time>2019-11-01T11:06:14Z</time>
      </trkpt>
      <trkpt lat="46.2559" lon="2.87219">
        <ele>537.3</ele>
        <time>2019-11-01T11:06:15Z</time>
      </trkpt>
      <trkpt lat="46.2559" lon="2.87226">
        <ele>537.4</ele>
        <time>2019-11-01T11:06:16Z</time>
      </trkpt>
      <trkpt lat="46.2559" lon="2.87232">
        <ele>537.4</ele>
        <time>2019-11-01T11:06:17Z</time>
      </trkpt>
      <trkpt lat="46.2559" lon="2.87238">
        <ele>537.4</ele>
        <time>2019-11-01T11:06:18Z</time>
      </trkpt>
      <trkpt lat="46.25589" lon="2.87244">
        <ele>537.4</ele>
        <time>2019-11-01T11:06:19Z</time>
      </trkpt>
      <trkpt lat="46.25589" lon="2.8725">
        <ele>537.5</ele>
        <time>2019-11-01T11:06:20Z</time>
      </trkpt>
      <trkpt lat="46.25588" lon="2.87256">
        <ele>537.5</ele>
        <time>2019-11-01T11:06:21Z</time>
      </trkpt>
      <trkpt lat="46.25588" lon="2.87262">
        <ele>537.4</ele>
        <time>2019-11-01T11:06:22Z</time>
      </trkpt>
      <trkpt lat="46.25587" lon="2.87268">
        <ele>537.5</ele>
        <time>2019-11-01T11:06:23Z</time>
      </trkpt>
      <trkpt lat="46.25586" lon="2.87274">
        <ele>537.6</ele>
        <time>2019-11-01T11:06:24Z</time>
      </trkpt>
      <trkpt lat="46.25586" lon="2.87279">
        <ele>537.7</ele>
        <time>2019-11-01T11:06:25Z</time>
      </trkpt>
      <trkpt lat="46.25586" lon="2.87284">
        <ele>537.8</ele>
        <time>2019-11-01T11:06:26Z</time>
      </trkpt>
      <trkpt lat="46.25585" lon="2.8729">
        <ele>537.9</ele>
        <time>2019-11-01T11:06:27Z</time>
      </trkpt>
      <trkpt lat="46.25585" lon="2.87295">
        <ele>538</ele>
        <time>2019-11-01T11:06:28Z</time>
      </trkpt>
      <trkpt lat="46.25585" lon="2.87302">
        <ele>538</ele>
        <time>2019-11-01T11:06:29Z</time>
      </trkpt>
      <trkpt lat="46.25584" lon="2.87308">
        <ele>538.1</ele>
        <time>2019-11-01T11:06:30Z</time>
      </trkpt>
      <trkpt lat="46.25584" lon="2.87315">
        <ele>538.3</ele>
        <time>2019-11-01T11:06:31Z</time>
      </trkpt>
      <trkpt lat="46.25585" lon="2.87321">
        <ele>538.4</ele>
        <time>2019-11-01T11:06:32Z</time>
      </trkpt>
      <trkpt lat="46.25585" lon="2.87328">
        <ele>538.8</ele>
        <time>2019-11-01T11:06:33Z</time>
      </trkpt>
      <trkpt lat="46.25585" lon="2.87334">
        <ele>538.8</ele>
        <time>2019-11-01T11:06:34Z</time>
      </trkpt>
      <trkpt lat="46.25586" lon="2.8734">
        <ele>538.9</ele>
        <time>2019-11-01T11:06:35Z</time>
      </trkpt>
      <trkpt lat="46.25586" lon="2.87347">
        <ele>539</ele>
        <time>2019-11-01T11:06:36Z</time>
      </trkpt>
      <trkpt lat="46.25586" lon="2.87353">
        <ele>539</ele>
        <time>2019-11-01T11:06:37Z</time>
      </trkpt>
      <trkpt lat="46.25587" lon="2.87359">
        <ele>539</ele>
        <time>2019-11-01T11:06:38Z</time>
      </trkpt>
      <trkpt lat="46.25587" lon="2.87365">
        <ele>539</ele>
        <time>2019-11-01T11:06:39Z</time>
      </trkpt>
      <trkpt lat="46.25587" lon="2.87371">
        <ele>538.9</ele>
        <time>2019-11-01T11:06:40Z</time>
      </trkpt>
      <trkpt lat="46.25587" lon="2.87376">
        <ele>538.8</ele>
        <time>2019-11-01T11:06:41Z</time>
      </trkpt>
      <trkpt lat="46.25587" lon="2.8738">
        <ele>538.8</ele>
        <time>2019-11-01T11:06:42Z</time>
      </trkpt>
      <trkpt lat="46.25588" lon="2.87386">
        <ele>538.7</ele>
        <time>2019-11-01T11:06:43Z</time>
      </trkpt>
      <trkpt lat="46.25588" lon="2.87391">
        <ele>538.7</ele>
        <time>2019-11-01T11:06:44Z</time>
      </trkpt>
      <trkpt lat="46.25588" lon="2.87395">
        <ele>538.8</ele>
        <time>2019-11-01T11:06:45Z</time>
      </trkpt>
      <trkpt lat="46.25589" lon="2.87398">
        <ele>538.8</ele>
        <time>2019-11-01T11:06:46Z</time>
      </trkpt>
      <trkpt lat="46.25591" lon="2.87403">
        <ele>538.9</ele>
        <time>2019-11-01T11:06:47Z</time>
      </trkpt>
      <trkpt lat="46.25593" lon="2.87407">
        <ele>539</ele>
        <time>2019-11-01T11:06:48Z</time>
      </trkpt>
      <trkpt lat="46.25595" lon="2.87412">
        <ele>539</ele>
        <time>2019-11-01T11:06:49Z</time>
      </trkpt>
      <trkpt lat="46.25596" lon="2.87416">
        <ele>539.2</ele>
        <time>2019-11-01T11:06:50Z</time>
      </trkpt>
      <trkpt lat="46.25598" lon="2.87422">
        <ele>539.3</ele>
        <time>2019-11-01T11:06:51Z</time>
      </trkpt>
      <trkpt lat="46.256" lon="2.87427">
        <ele>539.4</ele>
        <time>2019-11-01T11:06:52Z</time>
      </trkpt>
      <trkpt lat="46.25602" lon="2.87433">
        <ele>539.5</ele>
        <time>2019-11-01T11:06:53Z</time>
      </trkpt>
      <trkpt lat="46.25603" lon="2.87438">
        <ele>539.6</ele>
        <time>2019-11-01T11:06:54Z</time>
      </trkpt>
      <trkpt lat="46.25604" lon="2.87443">
        <ele>539.7</ele>
        <time>2019-11-01T11:06:55Z</time>
      </trkpt>
      <trkpt lat="46.25605" lon="2.87448">
        <ele>539.8</ele>
        <time>2019-11-01T11:06:56Z</time>
      </trkpt>
      <trkpt lat="46.25606" lon="2.87452">
        <ele>539.8</ele>
        <time>2019-11-01T11:06:57Z</time>
      </trkpt>
      <trkpt lat="46.25607" lon="2.87455">
        <ele>539.8</ele>
        <time>2019-11-01T11:06:58Z</time>
      </trkpt>
      <trkpt lat="46.25608" lon="2.87456">
        <ele>539.8</ele>
        <time>2019-11-01T11:06:59Z</time>
      </trkpt>
      <trkpt lat="46.25609" lon="2.87456">
        <ele>539.8</ele>
        <time>2019-11-01T11:07:00Z</time>
      </trkpt>
      <trkpt lat="46.25609" lon="2.87455">
        <ele>539.8</ele>
        <time>2019-11-01T11:07:01Z</time>
      </trkpt>
      <trkpt lat="46.25609" lon="2.87453">
        <ele>539.8</ele>
        <time>2019-11-01T11:07:02Z</time>
      </trkpt>
      <trkpt lat="46.25609" lon="2.87449">
        <ele>539.7</ele>
        <time>2019-11-01T11:07:03Z</time>
      </trkpt>
      <trkpt lat="46.25609" lon="2.87445">
        <ele>539.7</ele>
        <time>2019-11-01T11:07:04Z</time>
      </trkpt>
      <trkpt lat="46.25611" lon="2.87441">
        <ele>539.6</ele>
        <time>2019-11-01T11:07:05Z</time>
      </trkpt>
      <trkpt lat="46.25614" lon="2.87439">
        <ele>539.7</ele>
        <time>2019-11-01T11:07:06Z</time>
      </trkpt>
      <trkpt lat="46.25617" lon="2.87438">
        <ele>539.8</ele>
        <time>2019-11-01T11:07:07Z</time>
      </trkpt>
      <trkpt lat="46.2562" lon="2.87439">
        <ele>539.8</ele>
        <time>2019-11-01T11:07:08Z</time>
      </trkpt>
      <trkpt lat="46.25623" lon="2.87441">
        <ele>539.9</ele>
        <time>2019-11-01T11:07:09Z</time>
      </trkpt>
      <trkpt lat="46.25626" lon="2.87444">
        <ele>539.9</ele>
        <time>2019-11-01T11:07:10Z</time>
      </trkpt>
      <trkpt lat="46.2563" lon="2.87448">
        <ele>540</ele>
        <time>2019-11-01T11:07:11Z</time>
      </trkpt>
      <trkpt lat="46.25633" lon="2.87451">
        <ele>540.1</ele>
        <time>2019-11-01T11:07:12Z</time>
      </trkpt>
      <trkpt lat="46.25637" lon="2.87455">
        <ele>540.2</ele>
        <time>2019-11-01T11:07:13Z</time>
      </trkpt>
      <trkpt lat="46.2564" lon="2.8746">
        <ele>540.3</ele>
        <time>2019-11-01T11:07:14Z</time>
      </trkpt>
      <trkpt lat="46.25644" lon="2.87464">
        <ele>540.4</ele>
        <time>2019-11-01T11:07:15Z</time>
      </trkpt>
      <trkpt lat="46.25647" lon="2.87468">
        <ele>540.5</ele>
        <time>2019-11-01T11:07:16Z</time>
      </trkpt>
      <trkpt lat="46.2565" lon="2.87473">
        <ele>540.5</ele>
        <time>2019-11-01T11:07:17Z</time>
      </trkpt>
      <trkpt lat="46.25654" lon="2.87477">
        <ele>540.6</ele>
        <time>2019-11-01T11:07:18Z</time>
      </trkpt>
      <trkpt lat="46.25657" lon="2.87481">
        <ele>540.7</ele>
        <time>2019-11-01T11:07:19Z</time>
      </trkpt>
      <trkpt lat="46.25661" lon="2.87485">
        <ele>540.8</ele>
        <time>2019-11-01T11:07:20Z</time>
      </trkpt>
      <trkpt lat="46.25664" lon="2.87489">
        <ele>541</ele>
        <time>2019-11-01T11:07:21Z</time>
      </trkpt>
      <trkpt lat="46.25668" lon="2.87493">
        <ele>541.1</ele>
        <time>2019-11-01T11:07:22Z</time>
      </trkpt>
      <trkpt lat="46.25671" lon="2.87498">
        <ele>541.2</ele>
        <time>2019-11-01T11:07:23Z</time>
      </trkpt>
      <trkpt lat="46.25675" lon="2.87503">
        <ele>541.4</ele>
        <time>2019-11-01T11:07:24Z</time>
      </trkpt>
      <trkpt lat="46.25679" lon="2.87507">
        <ele>541.4</ele>
        <time>2019-11-01T11:07:25Z</time>
      </trkpt>
      <trkpt lat="46.25682" lon="2.87512">
        <ele>541.4</ele>
        <time>2019-11-01T11:07:26Z</time>
      </trkpt>
      <trkpt lat="46.25686" lon="2.87517">
        <ele>541.5</ele>
        <time>2019-11-01T11:07:27Z</time>
      </trkpt>
      <trkpt lat="46.25689" lon="2.87521">
        <ele>541.5</ele>
        <time>2019-11-01T11:07:28Z</time>
      </trkpt>
      <trkpt lat="46.25692" lon="2.87527">
        <ele>541.5</ele>
        <time>2019-11-01T11:07:29Z</time>
      </trkpt>
      <trkpt lat="46.25697" lon="2.87533">
        <ele>541.6</ele>
        <time>2019-11-01T11:07:30Z</time>
      </trkpt>
      <trkpt lat="46.25701" lon="2.87539">
        <ele>541.6</ele>
        <time>2019-11-01T11:07:31Z</time>
      </trkpt>
      <trkpt lat="46.25705" lon="2.87545">
        <ele>541.7</ele>
        <time>2019-11-01T11:07:32Z</time>
      </trkpt>
      <trkpt lat="46.25708" lon="2.87549">
        <ele>541.7</ele>
        <time>2019-11-01T11:07:33Z</time>
      </trkpt>
      <trkpt lat="46.25712" lon="2.87555">
        <ele>541.8</ele>
        <time>2019-11-01T11:07:34Z</time>
      </trkpt>
      <trkpt lat="46.25717" lon="2.87562">
        <ele>541.9</ele>
        <time>2019-11-01T11:07:35Z</time>
      </trkpt>
      <trkpt lat="46.25721" lon="2.87567">
        <ele>542</ele>
        <time>2019-11-01T11:07:36Z</time>
      </trkpt>
      <trkpt lat="46.25724" lon="2.87572">
        <ele>542</ele>
        <time>2019-11-01T11:07:37Z</time>
      </trkpt>
      <trkpt lat="46.25728" lon="2.87578">
        <ele>542.1</ele>
        <time>2019-11-01T11:07:38Z</time>
      </trkpt>
      <trkpt lat="46.25732" lon="2.87583">
        <ele>542.2</ele>
        <time>2019-11-01T11:07:39Z</time>
      </trkpt>
      <trkpt lat="46.25735" lon="2.87587">
        <ele>542.3</ele>
        <time>2019-11-01T11:07:40Z</time>
      </trkpt>
      <trkpt lat="46.25738" lon="2.87593">
        <ele>542.4</ele>
        <time>2019-11-01T11:07:41Z</time>
      </trkpt>
      <trkpt lat="46.25741" lon="2.87597">
        <ele>542.4</ele>
        <time>2019-11-01T11:07:42Z</time>
      </trkpt>
      <trkpt lat="46.25745" lon="2.87603">
        <ele>542.5</ele>
        <time>2019-11-01T11:07:43Z</time>
      </trkpt>
      <trkpt lat="46.25748" lon="2.87608">
        <ele>542.6</ele>
        <time>2019-11-01T11:07:44Z</time>
      </trkpt>
      <trkpt lat="46.25751" lon="2.87613">
        <ele>542.7</ele>
        <time>2019-11-01T11:07:45Z</time>
      </trkpt>
      <trkpt lat="46.25755" lon="2.87618">
        <ele>542.8</ele>
        <time>2019-11-01T11:07:46Z</time>
      </trkpt>
      <trkpt lat="46.25758" lon="2.87623">
        <ele>542.9</ele>
        <time>2019-11-01T11:07:47Z</time>
      </trkpt>
      <trkpt lat="46.25761" lon="2.87628">
        <ele>543</ele>
        <time>2019-11-01T11:07:48Z</time>
      </trkpt>
      <trkpt lat="46.25765" lon="2.87633">
        <ele>543.1</ele>
        <time>2019-11-01T11:07:49Z</time>
      </trkpt>
      <trkpt lat="46.25768" lon="2.87638">
        <ele>543.2</ele>
        <time>2019-11-01T11:07:50Z</time>
      </trkpt>
      <trkpt lat="46.2577" lon="2.87642">
        <ele>543.3</ele>
        <time>2019-11-01T11:07:51Z</time>
      </trkpt>
      <trkpt lat="46.25773" lon="2.87647">
        <ele>543.4</ele>
        <time>2019-11-01T11:07:52Z</time>
      </trkpt>
      <trkpt lat="46.25777" lon="2.87653">
        <ele>543.5</ele>
        <time>2019-11-01T11:07:53Z</time>
      </trkpt>
      <trkpt lat="46.25779" lon="2.87658">
        <ele>543.5</ele>
        <time>2019-11-01T11:07:54Z</time>
      </trkpt>
      <trkpt lat="46.25782" lon="2.87663">
        <ele>543.6</ele>
        <time>2019-11-01T11:07:55Z</time>
      </trkpt>
      <trkpt lat="46.25785" lon="2.87669">
        <ele>544</ele>
        <time>2019-11-01T11:07:56Z</time>
      </trkpt>
      <trkpt lat="46.25787" lon="2.87674">
        <ele>544.4</ele>
        <time>2019-11-01T11:07:57Z</time>
      </trkpt>
      <trkpt lat="46.2579" lon="2.87679">
        <ele>544.7</ele>
        <time>2019-11-01T11:07:58Z</time>
      </trkpt>
      <trkpt lat="46.25792" lon="2.87684">
        <ele>544.9</ele>
        <time>2019-11-01T11:07:59Z</time>
      </trkpt>
      <trkpt lat="46.25795" lon="2.87689">
        <ele>545.1</ele>
        <time>2019-11-01T11:08:00Z</time>
      </trkpt>
      <trkpt lat="46.25797" lon="2.87694">
        <ele>545.4</ele>
        <time>2019-11-01T11:08:01Z</time>
      </trkpt>
      <trkpt lat="46.25799" lon="2.87699">
        <ele>545.6</ele>
        <time>2019-11-01T11:08:02Z</time>
      </trkpt>
      <trkpt lat="46.25801" lon="2.87704">
        <ele>545.9</ele>
        <time>2019-11-01T11:08:03Z</time>
      </trkpt>
      <trkpt lat="46.25803" lon="2.87709">
        <ele>546</ele>
        <time>2019-11-01T11:08:04Z</time>
      </trkpt>
      <trkpt lat="46.25805" lon="2.87713">
        <ele>546.2</ele>
        <time>2019-11-01T11:08:05Z</time>
      </trkpt>
      <trkpt lat="46.25808" lon="2.87718">
        <ele>546.4</ele>
        <time>2019-11-01T11:08:06Z</time>
      </trkpt>
      <trkpt lat="46.2581" lon="2.87723">
        <ele>546.7</ele>
        <time>2019-11-01T11:08:07Z</time>
      </trkpt>
      <trkpt lat="46.25812" lon="2.87728">
        <ele>546.9</ele>
        <time>2019-11-01T11:08:08Z</time>
      </trkpt>
      <trkpt lat="46.25814" lon="2.87732">
        <ele>547.2</ele>
        <time>2019-11-01T11:08:09Z</time>
      </trkpt>
      <trkpt lat="46.25816" lon="2.87737">
        <ele>547.4</ele>
        <time>2019-11-01T11:08:10Z</time>
      </trkpt>
      <trkpt lat="46.25819" lon="2.87742">
        <ele>547.8</ele>
        <time>2019-11-01T11:08:11Z</time>
      </trkpt>
      <trkpt lat="46.25821" lon="2.87747">
        <ele>548.2</ele>
        <time>2019-11-01T11:08:12Z</time>
      </trkpt>
      <trkpt lat="46.25823" lon="2.87752">
        <ele>548.6</ele>
        <time>2019-11-01T11:08:13Z</time>
      </trkpt>
      <trkpt lat="46.25826" lon="2.87757">
        <ele>548.8</ele>
        <time>2019-11-01T11:08:14Z</time>
      </trkpt>
      <trkpt lat="46.25828" lon="2.87761">
        <ele>549.1</ele>
        <time>2019-11-01T11:08:15Z</time>
      </trkpt>
      <trkpt lat="46.2583" lon="2.87766">
        <ele>549.5</ele>
        <time>2019-11-01T11:08:16Z</time>
      </trkpt>
      <trkpt lat="46.25833" lon="2.87771">
        <ele>549.8</ele>
        <time>2019-11-01T11:08:17Z</time>
      </trkpt>
      <trkpt lat="46.25836" lon="2.87775">
        <ele>550</ele>
        <time>2019-11-01T11:08:18Z</time>
      </trkpt>
      <trkpt lat="46.25838" lon="2.8778">
        <ele>550.3</ele>
        <time>2019-11-01T11:08:19Z</time>
      </trkpt>
      <trkpt lat="46.25841" lon="2.87784">
        <ele>550.5</ele>
        <time>2019-11-01T11:08:20Z</time>
      </trkpt>
      <trkpt lat="46.25843" lon="2.87788">
        <ele>550.7</ele>
        <time>2019-11-01T11:08:21Z</time>
      </trkpt>
      <trkpt lat="46.25845" lon="2.87792">
        <ele>550.8</ele>
        <time>2019-11-01T11:08:22Z</time>
      </trkpt>
      <trkpt lat="46.25848" lon="2.87796">
        <ele>551</ele>
        <time>2019-11-01T11:08:23Z</time>
      </trkpt>
      <trkpt lat="46.2585" lon="2.87799">
        <ele>551.1</ele>
        <time>2019-11-01T11:08:24Z</time>
      </trkpt>
      <trkpt lat="46.25851" lon="2.87802">
        <ele>551.2</ele>
        <time>2019-11-01T11:08:25Z</time>
      </trkpt>
      <trkpt lat="46.25853" lon="2.87805">
        <ele>551.3</ele>
        <time>2019-11-01T11:08:26Z</time>
      </trkpt>
      <trkpt lat="46.25855" lon="2.87808">
        <ele>551.5</ele>
        <time>2019-11-01T11:08:27Z</time>
      </trkpt>
      <trkpt lat="46.25856" lon="2.8781">
        <ele>551.6</ele>
        <time>2019-11-01T11:08:28Z</time>
      </trkpt>
      <trkpt lat="46.25858" lon="2.87813">
        <ele>551.7</ele>
        <time>2019-11-01T11:08:29Z</time>
      </trkpt>
      <trkpt lat="46.25859" lon="2.87815">
        <ele>551.8</ele>
        <time>2019-11-01T11:08:30Z</time>
      </trkpt>
      <trkpt lat="46.25861" lon="2.87817">
        <ele>551.9</ele>
        <time>2019-11-01T11:08:31Z</time>
      </trkpt>
      <trkpt lat="46.25863" lon="2.8782">
        <ele>552</ele>
        <time>2019-11-01T11:08:32Z</time>
      </trkpt>
      <trkpt lat="46.25865" lon="2.87822">
        <ele>552.1</ele>
        <time>2019-11-01T11:08:33Z</time>
      </trkpt>
      <trkpt lat="46.25867" lon="2.87825">
        <ele>552.3</ele>
        <time>2019-11-01T11:08:34Z</time>
      </trkpt>
      <trkpt lat="46.25868" lon="2.87827">
        <ele>552.4</ele>
        <time>2019-11-01T11:08:35Z</time>
      </trkpt>
      <trkpt lat="46.2587" lon="2.8783">
        <ele>552.6</ele>
        <time>2019-11-01T11:08:36Z</time>
      </trkpt>
      <trkpt lat="46.25872" lon="2.87832">
        <ele>552.7</ele>
        <time>2019-11-01T11:08:37Z</time>
      </trkpt>
      <trkpt lat="46.25874" lon="2.87835">
        <ele>552.9</ele>
        <time>2019-11-01T11:08:38Z</time>
      </trkpt>
      <trkpt lat="46.25875" lon="2.87837">
        <ele>553.1</ele>
        <time>2019-11-01T11:08:39Z</time>
      </trkpt>
      <trkpt lat="46.25878" lon="2.87839">
        <ele>553.2</ele>
        <time>2019-11-01T11:08:40Z</time>
      </trkpt>
      <trkpt lat="46.2588" lon="2.87842">
        <ele>553.4</ele>
        <time>2019-11-01T11:08:41Z</time>
      </trkpt>
      <trkpt lat="46.25881" lon="2.87844">
        <ele>553.6</ele>
        <time>2019-11-01T11:08:42Z</time>
      </trkpt>
      <trkpt lat="46.25883" lon="2.87847">
        <ele>553.8</ele>
        <time>2019-11-01T11:08:43Z</time>
      </trkpt>
      <trkpt lat="46.25885" lon="2.87849">
        <ele>554</ele>
        <time>2019-11-01T11:08:44Z</time>
      </trkpt>
      <trkpt lat="46.25887" lon="2.87852">
        <ele>554.2</ele>
        <time>2019-11-01T11:08:45Z</time>
      </trkpt>
      <trkpt lat="46.25889" lon="2.87854">
        <ele>554.4</ele>
        <time>2019-11-01T11:08:46Z</time>
      </trkpt>
      <trkpt lat="46.25891" lon="2.87857">
        <ele>554.6</ele>
        <time>2019-11-01T11:08:47Z</time>
      </trkpt>
      <trkpt lat="46.25893" lon="2.8786">
        <ele>554.9</ele>
        <time>2019-11-01T11:08:48Z</time>
      </trkpt>
      <trkpt lat="46.25895" lon="2.87862">
        <ele>555.1</ele>
        <time>2019-11-01T11:08:49Z</time>
      </trkpt>
      <trkpt lat="46.25897" lon="2.87865">
        <ele>555.3</ele>
        <time>2019-11-01T11:08:50Z</time>
      </trkpt>
      <trkpt lat="46.25899" lon="2.87867">
        <ele>555.5</ele>
        <time>2019-11-01T11:08:51Z</time>
      </trkpt>
      <trkpt lat="46.25901" lon="2.8787">
        <ele>555.7</ele>
        <time>2019-11-01T11:08:52Z</time>
      </trkpt>
      <trkpt lat="46.25903" lon="2.87873">
        <ele>555.9</ele>
        <time>2019-11-01T11:08:53Z</time>
      </trkpt>
      <trkpt lat="46.25905" lon="2.87875">
        <ele>556.1</ele>
        <time>2019-11-01T11:08:54Z</time>
      </trkpt>
      <trkpt lat="46.25907" lon="2.87878">
        <ele>556.3</ele>
        <time>2019-11-01T11:08:55Z</time>
      </trkpt>
      <trkpt lat="46.25909" lon="2.87881">
        <ele>556.5</ele>
        <time>2019-11-01T11:08:56Z</time>
      </trkpt>
      <trkpt lat="46.25911" lon="2.87883">
        <ele>556.7</ele>
        <time>2019-11-01T11:08:57Z</time>
      </trkpt>
      <trkpt lat="46.25913" lon="2.87887">
        <ele>556.9</ele>
        <time>2019-11-01T11:08:58Z</time>
      </trkpt>
      <trkpt lat="46.25915" lon="2.8789">
        <ele>557.2</ele>
        <time>2019-11-01T11:08:59Z</time>
      </trkpt>
      <trkpt lat="46.25917" lon="2.87893">
        <ele>557.4</ele>
        <time>2019-11-01T11:09:00Z</time>
      </trkpt>
      <trkpt lat="46.25919" lon="2.87895">
        <ele>557.7</ele>
        <time>2019-11-01T11:09:01Z</time>
      </trkpt>
      <trkpt lat="46.25921" lon="2.87898">
        <ele>557.9</ele>
        <time>2019-11-01T11:09:02Z</time>
      </trkpt>
      <trkpt lat="46.25923" lon="2.87901">
        <ele>558.1</ele>
        <time>2019-11-01T11:09:03Z</time>
      </trkpt>
      <trkpt lat="46.25925" lon="2.87903">
        <ele>558.4</ele>
        <time>2019-11-01T11:09:04Z</time>
      </trkpt>
      <trkpt lat="46.25926" lon="2.87906">
        <ele>558.6</ele>
        <time>2019-11-01T11:09:05Z</time>
      </trkpt>
      <trkpt lat="46.25928" lon="2.87909">
        <ele>558.8</ele>
        <time>2019-11-01T11:09:06Z</time>
      </trkpt>
      <trkpt lat="46.2593" lon="2.87911">
        <ele>559</ele>
        <time>2019-11-01T11:09:07Z</time>
      </trkpt>
      <trkpt lat="46.25931" lon="2.87914">
        <ele>559.2</ele>
        <time>2019-11-01T11:09:08Z</time>
      </trkpt>
      <trkpt lat="46.25933" lon="2.87916">
        <ele>559.3</ele>
        <time>2019-11-01T11:09:09Z</time>
      </trkpt>
      <trkpt lat="46.25934" lon="2.87919">
        <ele>559.5</ele>
        <time>2019-11-01T11:09:10Z</time>
      </trkpt>
      <trkpt lat="46.25936" lon="2.87921">
        <ele>559.7</ele>
        <time>2019-11-01T11:09:11Z</time>
      </trkpt>
      <trkpt lat="46.25938" lon="2.87924">
        <ele>559.9</ele>
        <time>2019-11-01T11:09:12Z</time>
      </trkpt>
      <trkpt lat="46.25939" lon="2.87926">
        <ele>560</ele>
        <time>2019-11-01T11:09:13Z</time>
      </trkpt>
      <trkpt lat="46.25941" lon="2.87929">
        <ele>560.2</ele>
        <time>2019-11-01T11:09:14Z</time>
      </trkpt>
      <trkpt lat="46.25943" lon="2.87931">
        <ele>560.4</ele>
        <time>2019-11-01T11:09:15Z</time>
      </trkpt>
      <trkpt lat="46.25944" lon="2.87934">
        <ele>560.6</ele>
        <time>2019-11-01T11:09:16Z</time>
      </trkpt>
      <trkpt lat="46.25946" lon="2.87936">
        <ele>560.8</ele>
        <time>2019-11-01T11:09:17Z</time>
      </trkpt>
      <trkpt lat="46.25948" lon="2.87938">
        <ele>561</ele>
        <time>2019-11-01T11:09:18Z</time>
      </trkpt>
      <trkpt lat="46.2595" lon="2.87941">
        <ele>561.2</ele>
        <time>2019-11-01T11:09:19Z</time>
      </trkpt>
      <trkpt lat="46.25952" lon="2.87943">
        <ele>561.4</ele>
        <time>2019-11-01T11:09:20Z</time>
      </trkpt>
      <trkpt lat="46.25953" lon="2.87945">
        <ele>561.6</ele>
        <time>2019-11-01T11:09:21Z</time>
      </trkpt>
      <trkpt lat="46.25955" lon="2.87947">
        <ele>561.9</ele>
        <time>2019-11-01T11:09:22Z</time>
      </trkpt>
      <trkpt lat="46.25957" lon="2.8795">
        <ele>562.2</ele>
        <time>2019-11-01T11:09:23Z</time>
      </trkpt>
      <trkpt lat="46.25959" lon="2.87952">
        <ele>562.5</ele>
        <time>2019-11-01T11:09:24Z</time>
      </trkpt>
      <trkpt lat="46.2596" lon="2.87954">
        <ele>562.9</ele>
        <time>2019-11-01T11:09:25Z</time>
      </trkpt>
      <trkpt lat="46.25962" lon="2.87956">
        <ele>563.2</ele>
        <time>2019-11-01T11:09:26Z</time>
      </trkpt>
      <trkpt lat="46.25964" lon="2.87959">
        <ele>563.5</ele>
        <time>2019-11-01T11:09:27Z</time>
      </trkpt>
      <trkpt lat="46.25966" lon="2.87961">
        <ele>563.8</ele>
        <time>2019-11-01T11:09:28Z</time>
      </trkpt>
      <trkpt lat="46.25967" lon="2.87963">
        <ele>564</ele>
        <time>2019-11-01T11:09:29Z</time>
      </trkpt>
      <trkpt lat="46.25969" lon="2.87965">
        <ele>564.3</ele>
        <time>2019-11-01T11:09:30Z</time>
      </trkpt>
      <trkpt lat="46.25971" lon="2.87967">
        <ele>564.6</ele>
        <time>2019-11-01T11:09:31Z</time>
      </trkpt>
      <trkpt lat="46.25973" lon="2.8797">
        <ele>564.9</ele>
        <time>2019-11-01T11:09:32Z</time>
      </trkpt>
      <trkpt lat="46.25975" lon="2.87972">
        <ele>565.2</ele>
        <time>2019-11-01T11:09:33Z</time>
      </trkpt>
      <trkpt lat="46.25977" lon="2.87974">
        <ele>565.4</ele>
        <time>2019-11-01T11:09:34Z</time>
      </trkpt>
      <trkpt lat="46.25979" lon="2.87977">
        <ele>565.7</ele>
        <time>2019-11-01T11:09:35Z</time>
      </trkpt>
      <trkpt lat="46.25981" lon="2.87979">
        <ele>565.9</ele>
        <time>2019-11-01T11:09:36Z</time>
      </trkpt>
      <trkpt lat="46.25983" lon="2.87982">
        <ele>566.2</ele>
        <time>2019-11-01T11:09:37Z</time>
      </trkpt>
      <trkpt lat="46.25985" lon="2.87984">
        <ele>566.4</ele>
        <time>2019-11-01T11:09:38Z</time>
      </trkpt>
      <trkpt lat="46.25987" lon="2.87987">
        <ele>566.7</ele>
        <time>2019-11-01T11:09:39Z</time>
      </trkpt>
      <trkpt lat="46.25989" lon="2.8799">
        <ele>566.9</ele>
        <time>2019-11-01T11:09:40Z</time>
      </trkpt>
      <trkpt lat="46.25991" lon="2.87993">
        <ele>567.2</ele>
        <time>2019-11-01T11:09:41Z</time>
      </trkpt>
      <trkpt lat="46.25993" lon="2.87995">
        <ele>567.5</ele>
        <time>2019-11-01T11:09:42Z</time>
      </trkpt>
      <trkpt lat="46.25995" lon="2.87998">
        <ele>567.8</ele>
        <time>2019-11-01T11:09:43Z</time>
      </trkpt>
      <trkpt lat="46.25997" lon="2.88001">
        <ele>568.1</ele>
        <time>2019-11-01T11:09:44Z</time>
      </trkpt>
      <trkpt lat="46.25998" lon="2.88004">
        <ele>568.4</ele>
        <time>2019-11-01T11:09:45Z</time>
      </trkpt>
      <trkpt lat="46.26" lon="2.88006">
        <ele>568.6</ele>
        <time>2019-11-01T11:09:46Z</time>
      </trkpt>
      <trkpt lat="46.26002" lon="2.88009">
        <ele>568.9</ele>
        <time>2019-11-01T11:09:47Z</time>
      </trkpt>
      <trkpt lat="46.26004" lon="2.88012">
        <ele>569.2</ele>
        <time>2019-11-01T11:09:48Z</time>
      </trkpt>
      <trkpt lat="46.26005" lon="2.88015">
        <ele>569.5</ele>
        <time>2019-11-01T11:09:49Z</time>
      </trkpt>
      <trkpt lat="46.26007" lon="2.88017">
        <ele>569.7</ele>
        <time>2019-11-01T11:09:50Z</time>
      </trkpt>
      <trkpt lat="46.26008" lon="2.8802">
        <ele>569.9</ele>
        <time>2019-11-01T11:09:51Z</time>
      </trkpt>
      <trkpt lat="46.2601" lon="2.88022">
        <ele>570.1</ele>
        <time>2019-11-01T11:09:52Z</time>
      </trkpt>
      <trkpt lat="46.26012" lon="2.88024">
        <ele>570.3</ele>
        <time>2019-11-01T11:09:53Z</time>
      </trkpt>
      <trkpt lat="46.26013" lon="2.88027">
        <ele>570.5</ele>
        <time>2019-11-01T11:09:54Z</time>
      </trkpt>
      <trkpt lat="46.26015" lon="2.88029">
        <ele>570.7</ele>
        <time>2019-11-01T11:09:55Z</time>
      </trkpt>
      <trkpt lat="46.26016" lon="2.88032">
        <ele>570.9</ele>
        <time>2019-11-01T11:09:56Z</time>
      </trkpt>
      <trkpt lat="46.26018" lon="2.88035">
        <ele>571.1</ele>
        <time>2019-11-01T11:09:57Z</time>
      </trkpt>
      <trkpt lat="46.26019" lon="2.88036">
        <ele>571.2</ele>
        <time>2019-11-01T11:09:58Z</time>
      </trkpt>
      <trkpt lat="46.26021" lon="2.88039">
        <ele>571.5</ele>
        <time>2019-11-01T11:09:59Z</time>
      </trkpt>
      <trkpt lat="46.26023" lon="2.88041">
        <ele>571.8</ele>
        <time>2019-11-01T11:10:00Z</time>
      </trkpt>
      <trkpt lat="46.26024" lon="2.88043">
        <ele>572</ele>
        <time>2019-11-01T11:10:07Z</time>
      </trkpt>
      <trkpt lat="46.26026" lon="2.88045">
        <ele>572.3</ele>
        <time>2019-11-01T11:10:48Z</time>
      </trkpt>
      <trkpt lat="46.26028" lon="2.88047">
        <ele>572.5</ele>
        <time>2019-11-01T11:10:49Z</time>
      </trkpt>
      <trkpt lat="46.26029" lon="2.88049">
        <ele>572.8</ele>
        <time>2019-11-01T11:10:50Z</time>
      </trkpt>
      <trkpt lat="46.26031" lon="2.88051">
        <ele>573</ele>
        <time>2019-11-01T11:10:51Z</time>
      </trkpt>
      <trkpt lat="46.26033" lon="2.88053">
        <ele>573.2</ele>
        <time>2019-11-01T11:10:52Z</time>
      </trkpt>
      <trkpt lat="46.26035" lon="2.88055">
        <ele>573.5</ele>
        <time>2019-11-01T11:10:53Z</time>
      </trkpt>
      <trkpt lat="46.26037" lon="2.88058">
        <ele>573.7</ele>
        <time>2019-11-01T11:10:54Z</time>
      </trkpt>
      <trkpt lat="46.26038" lon="2.88059">
        <ele>573.9</ele>
        <time>2019-11-01T11:10:55Z</time>
      </trkpt>
      <trkpt lat="46.26041" lon="2.88062">
        <ele>574.2</ele>
        <time>2019-11-01T11:10:56Z</time>
      </trkpt>
      <trkpt lat="46.26043" lon="2.88064">
        <ele>574.6</ele>
        <time>2019-11-01T11:10:57Z</time>
      </trkpt>
      <trkpt lat="46.26045" lon="2.88066">
        <ele>574.9</ele>
        <time>2019-11-01T11:10:58Z</time>
      </trkpt>
      <trkpt lat="46.26047" lon="2.88068">
        <ele>575.1</ele>
        <time>2019-11-01T11:10:59Z</time>
      </trkpt>
      <trkpt lat="46.26049" lon="2.8807">
        <ele>575.3</ele>
        <time>2019-11-01T11:11:00Z</time>
      </trkpt>
      <trkpt lat="46.26051" lon="2.88073">
        <ele>575.5</ele>
        <time>2019-11-01T11:11:01Z</time>
      </trkpt>
      <trkpt lat="46.26053" lon="2.88075">
        <ele>575.7</ele>
        <time>2019-11-01T11:11:02Z</time>
      </trkpt>
      <trkpt lat="46.26056" lon="2.88077">
        <ele>576</ele>
        <time>2019-11-01T11:11:03Z</time>
      </trkpt>
      <trkpt lat="46.26058" lon="2.88079">
        <ele>576.2</ele>
        <time>2019-11-01T11:11:04Z</time>
      </trkpt>
      <trkpt lat="46.2606" lon="2.88082">
        <ele>576.5</ele>
        <time>2019-11-01T11:11:05Z</time>
      </trkpt>
      <trkpt lat="46.26063" lon="2.88084">
        <ele>576.8</ele>
        <time>2019-11-01T11:11:06Z</time>
      </trkpt>
      <trkpt lat="46.26064" lon="2.88086">
        <ele>577</ele>
        <time>2019-11-01T11:11:07Z</time>
      </trkpt>
      <trkpt lat="46.26067" lon="2.88088">
        <ele>577.3</ele>
        <time>2019-11-01T11:11:08Z</time>
      </trkpt>
      <trkpt lat="46.26068" lon="2.8809">
        <ele>577.4</ele>
        <time>2019-11-01T11:11:09Z</time>
      </trkpt>
      <trkpt lat="46.2607" lon="2.88091">
        <ele>577.6</ele>
        <time>2019-11-01T11:11:10Z</time>
      </trkpt>
      <trkpt lat="46.26072" lon="2.88093">
        <ele>577.7</ele>
        <time>2019-11-01T11:11:11Z</time>
      </trkpt>
      <trkpt lat="46.26074" lon="2.88095">
        <ele>577.8</ele>
        <time>2019-11-01T11:11:12Z</time>
      </trkpt>
      <trkpt lat="46.26075" lon="2.88097">
        <ele>577.9</ele>
        <time>2019-11-01T11:11:13Z</time>
      </trkpt>
      <trkpt lat="46.26077" lon="2.88099">
        <ele>577.9</ele>
        <time>2019-11-01T11:11:14Z</time>
      </trkpt>
      <trkpt lat="46.26079" lon="2.88101">
        <ele>578</ele>
        <time>2019-11-01T11:11:15Z</time>
      </trkpt>
      <trkpt lat="46.2608" lon="2.88102">
        <ele>578.1</ele>
        <time>2019-11-01T11:11:16Z</time>
      </trkpt>
      <trkpt lat="46.26082" lon="2.88104">
        <ele>578.1</ele>
        <time>2019-11-01T11:11:17Z</time>
      </trkpt>
      <trkpt lat="46.26083" lon="2.88106">
        <ele>578.3</ele>
        <time>2019-11-01T11:11:18Z</time>
      </trkpt>
      <trkpt lat="46.26085" lon="2.88108">
        <ele>578.4</ele>
        <time>2019-11-01T11:11:19Z</time>
      </trkpt>
      <trkpt lat="46.26087" lon="2.8811">
        <ele>578.6</ele>
        <time>2019-11-01T11:11:20Z</time>
      </trkpt>
      <trkpt lat="46.26089" lon="2.88112">
        <ele>578.7</ele>
        <time>2019-11-01T11:11:21Z</time>
      </trkpt>
      <trkpt lat="46.26091" lon="2.88114">
        <ele>578.8</ele>
        <time>2019-11-01T11:11:22Z</time>
      </trkpt>
      <trkpt lat="46.26092" lon="2.88116">
        <ele>578.9</ele>
        <time>2019-11-01T11:11:23Z</time>
      </trkpt>
      <trkpt lat="46.26094" lon="2.88118">
        <ele>579</ele>
        <time>2019-11-01T11:11:24Z</time>
      </trkpt>
      <trkpt lat="46.26096" lon="2.88121">
        <ele>579.2</ele>
        <time>2019-11-01T11:11:25Z</time>
      </trkpt>
      <trkpt lat="46.26098" lon="2.88122">
        <ele>579.2</ele>
        <time>2019-11-01T11:11:26Z</time>
      </trkpt>
      <trkpt lat="46.261" lon="2.88125">
        <ele>579.3</ele>
        <time>2019-11-01T11:11:27Z</time>
      </trkpt>
      <trkpt lat="46.26101" lon="2.88127">
        <ele>579.4</ele>
        <time>2019-11-01T11:11:28Z</time>
      </trkpt>
      <trkpt lat="46.26103" lon="2.88129">
        <ele>579.5</ele>
        <time>2019-11-01T11:11:29Z</time>
      </trkpt>
      <trkpt lat="46.26105" lon="2.88132">
        <ele>579.6</ele>
        <time>2019-11-01T11:11:30Z</time>
      </trkpt>
      <trkpt lat="46.26107" lon="2.88134">
        <ele>579.7</ele>
        <time>2019-11-01T11:11:31Z</time>
      </trkpt>
      <trkpt lat="46.26109" lon="2.88135">
        <ele>579.8</ele>
        <time>2019-11-01T11:11:32Z</time>
      </trkpt>
      <trkpt lat="46.26112" lon="2.88138">
        <ele>579.8</ele>
        <time>2019-11-01T11:11:33Z</time>
      </trkpt>
      <trkpt lat="46.26114" lon="2.8814">
        <ele>579.9</ele>
        <time>2019-11-01T11:11:34Z</time>
      </trkpt>
      <trkpt lat="46.26116" lon="2.88142">
        <ele>579.9</ele>
        <time>2019-11-01T11:11:35Z</time>
      </trkpt>
      <trkpt lat="46.26118" lon="2.88144">
        <ele>580</ele>
        <time>2019-11-01T11:11:36Z</time>
      </trkpt>
      <trkpt lat="46.2612" lon="2.88146">
        <ele>580</ele>
        <time>2019-11-01T11:11:37Z</time>
      </trkpt>
      <trkpt lat="46.26122" lon="2.88149">
        <ele>580</ele>
        <time>2019-11-01T11:11:38Z</time>
      </trkpt>
      <trkpt lat="46.26124" lon="2.88152">
        <ele>580.1</ele>
        <time>2019-11-01T11:11:39Z</time>
      </trkpt>
      <trkpt lat="46.26126" lon="2.88154">
        <ele>580.1</ele>
        <time>2019-11-01T11:11:40Z</time>
      </trkpt>
      <trkpt lat="46.26128" lon="2.88156">
        <ele>580.2</ele>
        <time>2019-11-01T11:11:41Z</time>
      </trkpt>
      <trkpt lat="46.2613" lon="2.88159">
        <ele>580.2</ele>
        <time>2019-11-01T11:11:42Z</time>
      </trkpt>
      <trkpt lat="46.26132" lon="2.88162">
        <ele>580.3</ele>
        <time>2019-11-01T11:11:43Z</time>
      </trkpt>
      <trkpt lat="46.26134" lon="2.88164">
        <ele>580.4</ele>
        <time>2019-11-01T11:11:44Z</time>
      </trkpt>
      <trkpt lat="46.26136" lon="2.88167">
        <ele>580.5</ele>
        <time>2019-11-01T11:11:45Z</time>
      </trkpt>
      <trkpt lat="46.26137" lon="2.88169">
        <ele>580.6</ele>
        <time>2019-11-01T11:11:46Z</time>
      </trkpt>
      <trkpt lat="46.2614" lon="2.88172">
        <ele>580.7</ele>
        <time>2019-11-01T11:11:47Z</time>
      </trkpt>
      <trkpt lat="46.26141" lon="2.88175">
        <ele>580.7</ele>
        <time>2019-11-01T11:11:48Z</time>
      </trkpt>
      <trkpt lat="46.26143" lon="2.88177">
        <ele>580.8</ele>
        <time>2019-11-01T11:11:49Z</time>
      </trkpt>
      <trkpt lat="46.26144" lon="2.8818">
        <ele>580.8</ele>
        <time>2019-11-01T11:11:50Z</time>
      </trkpt>
      <trkpt lat="46.26146" lon="2.88183">
        <ele>580.9</ele>
        <time>2019-11-01T11:11:51Z</time>
      </trkpt>
      <trkpt lat="46.26147" lon="2.88186">
        <ele>580.9</ele>
        <time>2019-11-01T11:11:52Z</time>
      </trkpt>
      <trkpt lat="46.26149" lon="2.88189">
        <ele>580.9</ele>
        <time>2019-11-01T11:11:53Z</time>
      </trkpt>
      <trkpt lat="46.2615" lon="2.88192">
        <ele>580.8</ele>
        <time>2019-11-01T11:11:54Z</time>
      </trkpt>
      <trkpt lat="46.26152" lon="2.88195">
        <ele>580.8</ele>
        <time>2019-11-01T11:11:55Z</time>
      </trkpt>
      <trkpt lat="46.26154" lon="2.88197">
        <ele>580.8</ele>
        <time>2019-11-01T11:11:56Z</time>
      </trkpt>
      <trkpt lat="46.26155" lon="2.88199">
        <ele>580.8</ele>
        <time>2019-11-01T11:11:57Z</time>
      </trkpt>
      <trkpt lat="46.26156" lon="2.882">
        <ele>580.7</ele>
        <time>2019-11-01T11:11:58Z</time>
      </trkpt>
      <trkpt lat="46.26156" lon="2.882">
        <ele>580.7</ele>
        <time>2019-11-01T11:11:59Z</time>
      </trkpt>
      <trkpt lat="46.26157" lon="2.882">
        <ele>580.7</ele>
        <time>2019-11-01T11:12:00Z</time>
      </trkpt>
      <trkpt lat="46.26156" lon="2.88199">
        <ele>580.7</ele>
        <time>2019-11-01T11:12:01Z</time>
      </trkpt>
      <trkpt lat="46.26158" lon="2.88203">
        <ele>580.6</ele>
        <time>2019-11-01T11:12:02Z</time>
      </trkpt>
      <trkpt lat="46.2616" lon="2.88206">
        <ele>580.5</ele>
        <time>2019-11-01T11:12:03Z</time>
      </trkpt>
      <trkpt lat="46.26162" lon="2.8821">
        <ele>580.4</ele>
        <time>2019-11-01T11:12:04Z</time>
      </trkpt>
      <trkpt lat="46.26164" lon="2.88213">
        <ele>580.3</ele>
        <time>2019-11-01T11:12:05Z</time>
      </trkpt>
      <trkpt lat="46.26167" lon="2.88216">
        <ele>580.2</ele>
        <time>2019-11-01T11:12:06Z</time>
      </trkpt>
      <trkpt lat="46.2617" lon="2.8822">
        <ele>580</ele>
        <time>2019-11-01T11:12:07Z</time>
      </trkpt>
      <trkpt lat="46.26173" lon="2.88223">
        <ele>579.8</ele>
        <time>2019-11-01T11:12:08Z</time>
      </trkpt>
      <trkpt lat="46.26176" lon="2.88227">
        <ele>579.7</ele>
        <time>2019-11-01T11:12:09Z</time>
      </trkpt>
      <trkpt lat="46.2618" lon="2.8823">
        <ele>579.5</ele>
        <time>2019-11-01T11:12:10Z</time>
      </trkpt>
      <trkpt lat="46.26183" lon="2.88233">
        <ele>579.3</ele>
        <time>2019-11-01T11:12:11Z</time>
      </trkpt>
      <trkpt lat="46.26187" lon="2.88237">
        <ele>579.1</ele>
        <time>2019-11-01T11:12:12Z</time>
      </trkpt>
      <trkpt lat="46.26191" lon="2.8824">
        <ele>578.9</ele>
        <time>2019-11-01T11:12:13Z</time>
      </trkpt>
      <trkpt lat="46.26194" lon="2.88244">
        <ele>578.6</ele>
        <time>2019-11-01T11:12:14Z</time>
      </trkpt>
      <trkpt lat="46.26198" lon="2.88247">
        <ele>578.4</ele>
        <time>2019-11-01T11:12:15Z</time>
      </trkpt>
      <trkpt lat="46.26202" lon="2.88251">
        <ele>578.1</ele>
        <time>2019-11-01T11:12:16Z</time>
      </trkpt>
      <trkpt lat="46.26206" lon="2.88254">
        <ele>577.8</ele>
        <time>2019-11-01T11:12:17Z</time>
      </trkpt>
      <trkpt lat="46.26211" lon="2.88258">
        <ele>577.5</ele>
        <time>2019-11-01T11:12:18Z</time>
      </trkpt>
      <trkpt lat="46.26215" lon="2.88261">
        <ele>577</ele>
        <time>2019-11-01T11:12:19Z</time>
      </trkpt>
      <trkpt lat="46.2622" lon="2.88265">
        <ele>576.6</ele>
        <time>2019-11-01T11:12:20Z</time>
      </trkpt>
      <trkpt lat="46.26225" lon="2.88268">
        <ele>576</ele>
        <time>2019-11-01T11:12:21Z</time>
      </trkpt>
      <trkpt lat="46.26231" lon="2.88272">
        <ele>575.4</ele>
        <time>2019-11-01T11:12:22Z</time>
      </trkpt>
      <trkpt lat="46.26237" lon="2.88276">
        <ele>574.7</ele>
        <time>2019-11-01T11:12:23Z</time>
      </trkpt>
      <trkpt lat="46.26244" lon="2.8828">
        <ele>574.1</ele>
        <time>2019-11-01T11:12:24Z</time>
      </trkpt>
      <trkpt lat="46.26251" lon="2.88285">
        <ele>573.4</ele>
        <time>2019-11-01T11:12:25Z</time>
      </trkpt>
      <trkpt lat="46.26259" lon="2.88289">
        <ele>572.8</ele>
        <time>2019-11-01T11:12:26Z</time>
      </trkpt>
      <trkpt lat="46.26267" lon="2.88294">
        <ele>572.2</ele>
        <time>2019-11-01T11:12:27Z</time>
      </trkpt>
      <trkpt lat="46.26275" lon="2.88299">
        <ele>571.7</ele>
        <time>2019-11-01T11:12:28Z</time>
      </trkpt>
      <trkpt lat="46.26283" lon="2.88304">
        <ele>571.2</ele>
        <time>2019-11-01T11:12:29Z</time>
      </trkpt>
      <trkpt lat="46.26291" lon="2.8831">
        <ele>570.7</ele>
        <time>2019-11-01T11:12:30Z</time>
      </trkpt>
      <trkpt lat="46.26299" lon="2.88316">
        <ele>570.4</ele>
        <time>2019-11-01T11:12:31Z</time>
      </trkpt>
      <trkpt lat="46.26306" lon="2.88323">
        <ele>570.1</ele>
        <time>2019-11-01T11:12:32Z</time>
      </trkpt>
      <trkpt lat="46.26314" lon="2.88329">
        <ele>569.8</ele>
        <time>2019-11-01T11:12:33Z</time>
      </trkpt>
      <trkpt lat="46.26322" lon="2.88335">
        <ele>569.5</ele>
        <time>2019-11-01T11:12:34Z</time>
      </trkpt>
      <trkpt lat="46.2633" lon="2.8834">
        <ele>569.3</ele>
        <time>2019-11-01T11:12:35Z</time>
      </trkpt>
      <trkpt lat="46.26339" lon="2.88344">
        <ele>569</ele>
        <time>2019-11-01T11:12:36Z</time>
      </trkpt>
      <trkpt lat="46.26347" lon="2.88348">
        <ele>568.6</ele>
        <time>2019-11-01T11:12:37Z</time>
      </trkpt>
      <trkpt lat="46.26356" lon="2.88352">
        <ele>568.4</ele>
        <time>2019-11-01T11:12:38Z</time>
      </trkpt>
      <trkpt lat="46.26365" lon="2.88357">
        <ele>568.2</ele>
        <time>2019-11-01T11:12:39Z</time>
      </trkpt>
      <trkpt lat="46.26374" lon="2.88361">
        <ele>568</ele>
        <time>2019-11-01T11:12:40Z</time>
      </trkpt>
      <trkpt lat="46.26382" lon="2.88365">
        <ele>567.7</ele>
        <time>2019-11-01T11:12:41Z</time>
      </trkpt>
      <trkpt lat="46.26389" lon="2.88368">
        <ele>567.6</ele>
        <time>2019-11-01T11:12:42Z</time>
      </trkpt>
      <trkpt lat="46.26399" lon="2.88373">
        <ele>567.4</ele>
        <time>2019-11-01T11:12:43Z</time>
      </trkpt>
      <trkpt lat="46.26407" lon="2.88377">
        <ele>567.3</ele>
        <time>2019-11-01T11:12:44Z</time>
      </trkpt>
      <trkpt lat="46.26415" lon="2.88381">
        <ele>567.1</ele>
        <time>2019-11-01T11:12:45Z</time>
      </trkpt>
      <trkpt lat="46.26421" lon="2.88384">
        <ele>567</ele>
        <time>2019-11-01T11:12:46Z</time>
      </trkpt>
      <trkpt lat="46.26428" lon="2.88387">
        <ele>566.8</ele>
        <time>2019-11-01T11:12:47Z</time>
      </trkpt>
      <trkpt lat="46.26434" lon="2.8839">
        <ele>566.7</ele>
        <time>2019-11-01T11:12:48Z</time>
      </trkpt>
      <trkpt lat="46.2644" lon="2.88393">
        <ele>566.5</ele>
        <time>2019-11-01T11:12:49Z</time>
      </trkpt>
      <trkpt lat="46.26445" lon="2.88396">
        <ele>566.3</ele>
        <time>2019-11-01T11:12:50Z</time>
      </trkpt>
      <trkpt lat="46.2645" lon="2.88397">
        <ele>566.6</ele>
        <time>2019-11-01T11:12:51Z</time>
      </trkpt>
      <trkpt lat="46.26453" lon="2.88396">
        <ele>566.8</ele>
        <time>2019-11-01T11:12:52Z</time>
      </trkpt>
      <trkpt lat="46.26458" lon="2.88393">
        <ele>567.1</ele>
        <time>2019-11-01T11:12:53Z</time>
      </trkpt>
      <trkpt lat="46.2646" lon="2.8839">
        <ele>567.3</ele>
        <time>2019-11-01T11:12:54Z</time>
      </trkpt>
      <trkpt lat="46.26463" lon="2.88385">
        <ele>567.5</ele>
        <time>2019-11-01T11:12:55Z</time>
      </trkpt>
      <trkpt lat="46.26465" lon="2.88381">
        <ele>567.7</ele>
        <time>2019-11-01T11:12:56Z</time>
      </trkpt>
      <trkpt lat="46.26468" lon="2.88376">
        <ele>567.9</ele>
        <time>2019-11-01T11:12:57Z</time>
      </trkpt>
      <trkpt lat="46.2647" lon="2.88371">
        <ele>568.1</ele>
        <time>2019-11-01T11:12:58Z</time>
      </trkpt>
      <trkpt lat="46.26473" lon="2.88366">
        <ele>568.3</ele>
        <time>2019-11-01T11:12:59Z</time>
      </trkpt>
      <trkpt lat="46.26475" lon="2.88361">
        <ele>568.5</ele>
        <time>2019-11-01T11:13:00Z</time>
      </trkpt>
      <trkpt lat="46.26477" lon="2.88356">
        <ele>568.6</ele>
        <time>2019-11-01T11:13:01Z</time>
      </trkpt>
      <trkpt lat="46.26479" lon="2.8835">
        <ele>568.7</ele>
        <time>2019-11-01T11:13:02Z</time>
      </trkpt>
      <trkpt lat="46.26481" lon="2.88345">
        <ele>568.8</ele>
        <time>2019-11-01T11:13:03Z</time>
      </trkpt>
      <trkpt lat="46.26483" lon="2.88339">
        <ele>568.8</ele>
        <time>2019-11-01T11:13:04Z</time>
      </trkpt>
      <trkpt lat="46.26484" lon="2.88333">
        <ele>568.7</ele>
        <time>2019-11-01T11:13:05Z</time>
      </trkpt>
      <trkpt lat="46.26484" lon="2.88327">
        <ele>568.6</ele>
        <time>2019-11-01T11:13:06Z</time>
      </trkpt>
      <trkpt lat="46.26485" lon="2.88322">
        <ele>568.4</ele>
        <time>2019-11-01T11:13:07Z</time>
      </trkpt>
      <trkpt lat="46.26485" lon="2.88316">
        <ele>568.2</ele>
        <time>2019-11-01T11:13:08Z</time>
      </trkpt>
      <trkpt lat="46.26486" lon="2.8831">
        <ele>568</ele>
        <time>2019-11-01T11:13:09Z</time>
      </trkpt>
      <trkpt lat="46.26487" lon="2.88303">
        <ele>567.6</ele>
        <time>2019-11-01T11:13:10Z</time>
      </trkpt>
      <trkpt lat="46.26488" lon="2.88296">
        <ele>567.2</ele>
        <time>2019-11-01T11:13:11Z</time>
      </trkpt>
      <trkpt lat="46.2649" lon="2.88289">
        <ele>566.7</ele>
        <time>2019-11-01T11:13:12Z</time>
      </trkpt>
      <trkpt lat="46.26491" lon="2.88282">
        <ele>566.2</ele>
        <time>2019-11-01T11:13:13Z</time>
      </trkpt>
      <trkpt lat="46.26493" lon="2.88274">
        <ele>565.5</ele>
        <time>2019-11-01T11:13:14Z</time>
      </trkpt>
      <trkpt lat="46.26495" lon="2.88267">
        <ele>564.9</ele>
        <time>2019-11-01T11:13:15Z</time>
      </trkpt>
      <trkpt lat="46.26498" lon="2.88261">
        <ele>564.3</ele>
        <time>2019-11-01T11:13:16Z</time>
      </trkpt>
      <trkpt lat="46.26502" lon="2.88255">
        <ele>563.6</ele>
        <time>2019-11-01T11:13:17Z</time>
      </trkpt>
      <trkpt lat="46.26507" lon="2.88248">
        <ele>562.9</ele>
        <time>2019-11-01T11:13:18Z</time>
      </trkpt>
      <trkpt lat="46.26512" lon="2.8824">
        <ele>562</ele>
        <time>2019-11-01T11:13:19Z</time>
      </trkpt>
      <trkpt lat="46.26518" lon="2.88232">
        <ele>561</ele>
        <time>2019-11-01T11:13:20Z</time>
      </trkpt>
      <trkpt lat="46.26524" lon="2.88223">
        <ele>560</ele>
        <time>2019-11-01T11:13:21Z</time>
      </trkpt>
      <trkpt lat="46.2653" lon="2.88214">
        <ele>558.8</ele>
        <time>2019-11-01T11:13:22Z</time>
      </trkpt>
      <trkpt lat="46.26537" lon="2.88204">
        <ele>557.6</ele>
        <time>2019-11-01T11:13:23Z</time>
      </trkpt>
      <trkpt lat="46.26544" lon="2.88194">
        <ele>556.6</ele>
        <time>2019-11-01T11:13:24Z</time>
      </trkpt>
      <trkpt lat="46.26551" lon="2.88183">
        <ele>555.6</ele>
        <time>2019-11-01T11:13:25Z</time>
      </trkpt>
      <trkpt lat="46.26558" lon="2.88172">
        <ele>554.7</ele>
        <time>2019-11-01T11:13:26Z</time>
      </trkpt>
      <trkpt lat="46.26566" lon="2.88161">
        <ele>553.8</ele>
        <time>2019-11-01T11:13:27Z</time>
      </trkpt>
      <trkpt lat="46.26574" lon="2.8815">
        <ele>552.9</ele>
        <time>2019-11-01T11:13:28Z</time>
      </trkpt>
      <trkpt lat="46.26582" lon="2.88138">
        <ele>552.2</ele>
        <time>2019-11-01T11:13:29Z</time>
      </trkpt>
      <trkpt lat="46.2659" lon="2.88127">
        <ele>551.5</ele>
        <time>2019-11-01T11:13:30Z</time>
      </trkpt>
      <trkpt lat="46.26598" lon="2.88115">
        <ele>550.9</ele>
        <time>2019-11-01T11:13:31Z</time>
      </trkpt>
      <trkpt lat="46.26606" lon="2.88103">
        <ele>550.2</ele>
        <time>2019-11-01T11:13:32Z</time>
      </trkpt>
      <trkpt lat="46.26614" lon="2.8809">
        <ele>549.7</ele>
        <time>2019-11-01T11:13:33Z</time>
      </trkpt>
      <trkpt lat="46.26621" lon="2.88078">
        <ele>549.1</ele>
        <time>2019-11-01T11:13:34Z</time>
      </trkpt>
      <trkpt lat="46.26628" lon="2.88065">
        <ele>548.5</ele>
        <time>2019-11-01T11:13:35Z</time>
      </trkpt>
      <trkpt lat="46.26634" lon="2.88052">
        <ele>547.8</ele>
        <time>2019-11-01T11:13:36Z</time>
      </trkpt>
      <trkpt lat="46.2664" lon="2.8804">
        <ele>547.2</ele>
        <time>2019-11-01T11:13:37Z</time>
      </trkpt>
      <trkpt lat="46.26644" lon="2.88031">
        <ele>546.8</ele>
        <time>2019-11-01T11:13:38Z</time>
      </trkpt>
      <trkpt lat="46.2665" lon="2.88018">
        <ele>545.2</ele>
        <time>2019-11-01T11:13:39Z</time>
      </trkpt>
      <trkpt lat="46.26655" lon="2.88008">
        <ele>544.3</ele>
        <time>2019-11-01T11:13:40Z</time>
      </trkpt>
      <trkpt lat="46.26661" lon="2.87997">
        <ele>543.6</ele>
        <time>2019-11-01T11:13:41Z</time>
      </trkpt>
      <trkpt lat="46.26667" lon="2.87987">
        <ele>542.6</ele>
        <time>2019-11-01T11:13:42Z</time>
      </trkpt>
      <trkpt lat="46.26672" lon="2.87976">
        <ele>542</ele>
        <time>2019-11-01T11:13:43Z</time>
      </trkpt>
      <trkpt lat="46.26678" lon="2.87965">
        <ele>541.4</ele>
        <time>2019-11-01T11:13:44Z</time>
      </trkpt>
      <trkpt lat="46.26683" lon="2.87953">
        <ele>540.8</ele>
        <time>2019-11-01T11:13:45Z</time>
      </trkpt>
      <trkpt lat="46.26688" lon="2.87941">
        <ele>540.2</ele>
        <time>2019-11-01T11:13:46Z</time>
      </trkpt>
      <trkpt lat="46.26694" lon="2.8793">
        <ele>539.7</ele>
        <time>2019-11-01T11:13:47Z</time>
      </trkpt>
      <trkpt lat="46.26699" lon="2.87918">
        <ele>539.3</ele>
        <time>2019-11-01T11:13:48Z</time>
      </trkpt>
      <trkpt lat="46.26705" lon="2.87906">
        <ele>538.8</ele>
        <time>2019-11-01T11:13:49Z</time>
      </trkpt>
      <trkpt lat="46.26712" lon="2.87895">
        <ele>538.3</ele>
        <time>2019-11-01T11:13:50Z</time>
      </trkpt>
      <trkpt lat="46.26718" lon="2.87884">
        <ele>538</ele>
        <time>2019-11-01T11:13:51Z</time>
      </trkpt>
      <trkpt lat="46.26722" lon="2.87876">
        <ele>537.8</ele>
        <time>2019-11-01T11:13:52Z</time>
      </trkpt>
      <trkpt lat="46.26729" lon="2.87865">
        <ele>537.5</ele>
        <time>2019-11-01T11:13:53Z</time>
      </trkpt>
      <trkpt lat="46.26736" lon="2.87853">
        <ele>537.2</ele>
        <time>2019-11-01T11:13:54Z</time>
      </trkpt>
      <trkpt lat="46.26743" lon="2.87844">
        <ele>536.9</ele>
        <time>2019-11-01T11:13:55Z</time>
      </trkpt>
      <trkpt lat="46.26749" lon="2.87835">
        <ele>536.6</ele>
        <time>2019-11-01T11:13:56Z</time>
      </trkpt>
      <trkpt lat="46.26754" lon="2.87828">
        <ele>536.4</ele>
        <time>2019-11-01T11:13:57Z</time>
      </trkpt>
      <trkpt lat="46.26763" lon="2.87818">
        <ele>536.1</ele>
        <time>2019-11-01T11:13:58Z</time>
      </trkpt>
      <trkpt lat="46.2677" lon="2.8781">
        <ele>535.6</ele>
        <time>2019-11-01T11:13:59Z</time>
      </trkpt>
      <trkpt lat="46.26778" lon="2.87804">
        <ele>535</ele>
        <time>2019-11-01T11:14:00Z</time>
      </trkpt>
      <trkpt lat="46.26787" lon="2.87798">
        <ele>534.4</ele>
        <time>2019-11-01T11:14:01Z</time>
      </trkpt>
      <trkpt lat="46.26795" lon="2.87792">
        <ele>534</ele>
        <time>2019-11-01T11:14:02Z</time>
      </trkpt>
      <trkpt lat="46.26804" lon="2.87788">
        <ele>533.6</ele>
        <time>2019-11-01T11:14:03Z</time>
      </trkpt>
      <trkpt lat="46.26813" lon="2.87784">
        <ele>533.3</ele>
        <time>2019-11-01T11:14:04Z</time>
      </trkpt>
      <trkpt lat="46.26823" lon="2.87782">
        <ele>532.8</ele>
        <time>2019-11-01T11:14:05Z</time>
      </trkpt>
      <trkpt lat="46.26833" lon="2.8778">
        <ele>532.3</ele>
        <time>2019-11-01T11:14:06Z</time>
      </trkpt>
      <trkpt lat="46.26842" lon="2.87779">
        <ele>531.7</ele>
        <time>2019-11-01T11:14:07Z</time>
      </trkpt>
      <trkpt lat="46.26852" lon="2.87779">
        <ele>530.9</ele>
        <time>2019-11-01T11:14:08Z</time>
      </trkpt>
      <trkpt lat="46.26861" lon="2.87779">
        <ele>530.2</ele>
        <time>2019-11-01T11:14:09Z</time>
      </trkpt>
      <trkpt lat="46.26871" lon="2.8778">
        <ele>529.5</ele>
        <time>2019-11-01T11:14:10Z</time>
      </trkpt>
      <trkpt lat="46.26881" lon="2.87782">
        <ele>528.9</ele>
        <time>2019-11-01T11:14:11Z</time>
      </trkpt>
      <trkpt lat="46.2689" lon="2.87784">
        <ele>527.8</ele>
        <time>2019-11-01T11:14:12Z</time>
      </trkpt>
      <trkpt lat="46.26902" lon="2.87786">
        <ele>526.7</ele>
        <time>2019-11-01T11:14:13Z</time>
      </trkpt>
      <trkpt lat="46.26913" lon="2.87788">
        <ele>525.8</ele>
        <time>2019-11-01T11:14:14Z</time>
      </trkpt>
      <trkpt lat="46.26924" lon="2.87791">
        <ele>525.1</ele>
        <time>2019-11-01T11:14:15Z</time>
      </trkpt>
      <trkpt lat="46.26935" lon="2.87792">
        <ele>524.2</ele>
        <time>2019-11-01T11:14:16Z</time>
      </trkpt>
      <trkpt lat="46.26943" lon="2.87794">
        <ele>523.5</ele>
        <time>2019-11-01T11:14:17Z</time>
      </trkpt>
      <trkpt lat="46.26952" lon="2.87795">
        <ele>522.9</ele>
        <time>2019-11-01T11:14:18Z</time>
      </trkpt>
      <trkpt lat="46.26962" lon="2.87797">
        <ele>522.2</ele>
        <time>2019-11-01T11:14:19Z</time>
      </trkpt>
      <trkpt lat="46.26968" lon="2.87798">
        <ele>521.9</ele>
        <time>2019-11-01T11:14:20Z</time>
      </trkpt>
      <trkpt lat="46.26974" lon="2.87799">
        <ele>521.8</ele>
        <time>2019-11-01T11:14:21Z</time>
      </trkpt>
      <trkpt lat="46.26978" lon="2.878">
        <ele>521.8</ele>
        <time>2019-11-01T11:14:22Z</time>
      </trkpt>
      <trkpt lat="46.26985" lon="2.878">
        <ele>521.6</ele>
        <time>2019-11-01T11:14:23Z</time>
      </trkpt>
      <trkpt lat="46.2699" lon="2.87802">
        <ele>521.5</ele>
        <time>2019-11-01T11:14:24Z</time>
      </trkpt>
      <trkpt lat="46.26996" lon="2.87803">
        <ele>521.4</ele>
        <time>2019-11-01T11:14:25Z</time>
      </trkpt>
      <trkpt lat="46.27002" lon="2.87804">
        <ele>521.2</ele>
        <time>2019-11-01T11:14:26Z</time>
      </trkpt>
      <trkpt lat="46.27008" lon="2.87806">
        <ele>521.1</ele>
        <time>2019-11-01T11:14:27Z</time>
      </trkpt>
      <trkpt lat="46.27014" lon="2.87807">
        <ele>521</ele>
        <time>2019-11-01T11:14:28Z</time>
      </trkpt>
      <trkpt lat="46.27021" lon="2.87808">
        <ele>520.8</ele>
        <time>2019-11-01T11:14:29Z</time>
      </trkpt>
      <trkpt lat="46.27027" lon="2.8781">
        <ele>520.7</ele>
        <time>2019-11-01T11:14:30Z</time>
      </trkpt>
      <trkpt lat="46.27034" lon="2.87811">
        <ele>520.5</ele>
        <time>2019-11-01T11:14:31Z</time>
      </trkpt>
      <trkpt lat="46.27041" lon="2.87813">
        <ele>520.4</ele>
        <time>2019-11-01T11:14:32Z</time>
      </trkpt>
      <trkpt lat="46.27048" lon="2.87814">
        <ele>520.3</ele>
        <time>2019-11-01T11:14:33Z</time>
      </trkpt>
      <trkpt lat="46.27055" lon="2.87814">
        <ele>520.2</ele>
        <time>2019-11-01T11:14:34Z</time>
      </trkpt>
      <trkpt lat="46.27062" lon="2.87814">
        <ele>520</ele>
        <time>2019-11-01T11:14:35Z</time>
      </trkpt>
      <trkpt lat="46.27069" lon="2.87813">
        <ele>520</ele>
        <time>2019-11-01T11:14:36Z</time>
      </trkpt>
      <trkpt lat="46.27076" lon="2.87811">
        <ele>519.9</ele>
        <time>2019-11-01T11:14:37Z</time>
      </trkpt>
      <trkpt lat="46.27083" lon="2.87809">
        <ele>519.9</ele>
        <time>2019-11-01T11:14:38Z</time>
      </trkpt>
      <trkpt lat="46.2709" lon="2.87807">
        <ele>519.8</ele>
        <time>2019-11-01T11:14:39Z</time>
      </trkpt>
      <trkpt lat="46.27098" lon="2.87804">
        <ele>519.6</ele>
        <time>2019-11-01T11:14:40Z</time>
      </trkpt>
      <trkpt lat="46.27105" lon="2.87802">
        <ele>519.5</ele>
        <time>2019-11-01T11:14:41Z</time>
      </trkpt>
      <trkpt lat="46.27113" lon="2.87799">
        <ele>519.3</ele>
        <time>2019-11-01T11:14:42Z</time>
      </trkpt>
      <trkpt lat="46.2712" lon="2.87798">
        <ele>519.1</ele>
        <time>2019-11-01T11:14:43Z</time>
      </trkpt>
      <trkpt lat="46.27128" lon="2.87797">
        <ele>518.8</ele>
        <time>2019-11-01T11:14:44Z</time>
      </trkpt>
      <trkpt lat="46.27135" lon="2.87797">
        <ele>518.5</ele>
        <time>2019-11-01T11:14:45Z</time>
      </trkpt>
      <trkpt lat="46.27143" lon="2.87797">
        <ele>518.2</ele>
        <time>2019-11-01T11:14:46Z</time>
      </trkpt>
      <trkpt lat="46.27151" lon="2.87797">
        <ele>517.9</ele>
        <time>2019-11-01T11:14:47Z</time>
      </trkpt>
      <trkpt lat="46.27159" lon="2.87797">
        <ele>517.6</ele>
        <time>2019-11-01T11:14:48Z</time>
      </trkpt>
      <trkpt lat="46.27168" lon="2.87798">
        <ele>517.3</ele>
        <time>2019-11-01T11:14:49Z</time>
      </trkpt>
      <trkpt lat="46.27176" lon="2.87799">
        <ele>516.9</ele>
        <time>2019-11-01T11:14:50Z</time>
      </trkpt>
      <trkpt lat="46.27185" lon="2.878">
        <ele>516.6</ele>
        <time>2019-11-01T11:14:51Z</time>
      </trkpt>
      <trkpt lat="46.27192" lon="2.87801">
        <ele>516.3</ele>
        <time>2019-11-01T11:14:52Z</time>
      </trkpt>
      <trkpt lat="46.27203" lon="2.87804">
        <ele>515.8</ele>
        <time>2019-11-01T11:14:53Z</time>
      </trkpt>
      <trkpt lat="46.27212" lon="2.87808">
        <ele>515.4</ele>
        <time>2019-11-01T11:14:54Z</time>
      </trkpt>
      <trkpt lat="46.2722" lon="2.87812">
        <ele>514.9</ele>
        <time>2019-11-01T11:14:55Z</time>
      </trkpt>
      <trkpt lat="46.27227" lon="2.87815">
        <ele>514.5</ele>
        <time>2019-11-01T11:14:56Z</time>
      </trkpt>
      <trkpt lat="46.27237" lon="2.87818">
        <ele>513.9</ele>
        <time>2019-11-01T11:14:57Z</time>
      </trkpt>
      <trkpt lat="46.27246" lon="2.8782">
        <ele>513.3</ele>
        <time>2019-11-01T11:14:58Z</time>
      </trkpt>
      <trkpt lat="46.27258" lon="2.87821">
        <ele>512.5</ele>
        <time>2019-11-01T11:14:59Z</time>
      </trkpt>
      <trkpt lat="46.27268" lon="2.87821">
        <ele>511.9</ele>
        <time>2019-11-01T11:15:00Z</time>
      </trkpt>
      <trkpt lat="46.27279" lon="2.87821">
        <ele>511.2</ele>
        <time>2019-11-01T11:15:01Z</time>
      </trkpt>
      <trkpt lat="46.2729" lon="2.8782">
        <ele>510.4</ele>
        <time>2019-11-01T11:15:02Z</time>
      </trkpt>
      <trkpt lat="46.27301" lon="2.87819">
        <ele>509.7</ele>
        <time>2019-11-01T11:15:03Z</time>
      </trkpt>
      <trkpt lat="46.27312" lon="2.87818">
        <ele>509</ele>
        <time>2019-11-01T11:15:04Z</time>
      </trkpt>
      <trkpt lat="46.27323" lon="2.87817">
        <ele>508.4</ele>
        <time>2019-11-01T11:15:05Z</time>
      </trkpt>
      <trkpt lat="46.27335" lon="2.87816">
        <ele>507.8</ele>
        <time>2019-11-01T11:15:06Z</time>
      </trkpt>
      <trkpt lat="46.27347" lon="2.87815">
        <ele>507.4</ele>
        <time>2019-11-01T11:15:07Z</time>
      </trkpt>
      <trkpt lat="46.27359" lon="2.87814">
        <ele>507.2</ele>
        <time>2019-11-01T11:15:08Z</time>
      </trkpt>
      <trkpt lat="46.27371" lon="2.87813">
        <ele>507</ele>
        <time>2019-11-01T11:15:09Z</time>
      </trkpt>
      <trkpt lat="46.27383" lon="2.87814">
        <ele>507</ele>
        <time>2019-11-01T11:15:10Z</time>
      </trkpt>
      <trkpt lat="46.27394" lon="2.87815">
        <ele>507.1</ele>
        <time>2019-11-01T11:15:11Z</time>
      </trkpt>
      <trkpt lat="46.27402" lon="2.87817">
        <ele>507.2</ele>
        <time>2019-11-01T11:15:12Z</time>
      </trkpt>
      <trkpt lat="46.27415" lon="2.87822">
        <ele>507.3</ele>
        <time>2019-11-01T11:15:13Z</time>
      </trkpt>
      <trkpt lat="46.27425" lon="2.87826">
        <ele>507.5</ele>
        <time>2019-11-01T11:15:14Z</time>
      </trkpt>
      <trkpt lat="46.27434" lon="2.87831">
        <ele>507.6</ele>
        <time>2019-11-01T11:15:15Z</time>
      </trkpt>
      <trkpt lat="46.27441" lon="2.87834">
        <ele>507.8</ele>
        <time>2019-11-01T11:15:16Z</time>
      </trkpt>
      <trkpt lat="46.2745" lon="2.87838">
        <ele>507.9</ele>
        <time>2019-11-01T11:15:17Z</time>
      </trkpt>
      <trkpt lat="46.27458" lon="2.87842">
        <ele>508</ele>
        <time>2019-11-01T11:15:18Z</time>
      </trkpt>
      <trkpt lat="46.27466" lon="2.87846">
        <ele>508.1</ele>
        <time>2019-11-01T11:15:19Z</time>
      </trkpt>
      <trkpt lat="46.27471" lon="2.8785">
        <ele>508.2</ele>
        <time>2019-11-01T11:15:20Z</time>
      </trkpt>
      <trkpt lat="46.27476" lon="2.87853">
        <ele>508.3</ele>
        <time>2019-11-01T11:15:21Z</time>
      </trkpt>
      <trkpt lat="46.27479" lon="2.87855">
        <ele>508.4</ele>
        <time>2019-11-01T11:15:22Z</time>
      </trkpt>
      <trkpt lat="46.27482" lon="2.87857">
        <ele>508.3</ele>
        <time>2019-11-01T11:15:23Z</time>
      </trkpt>
      <trkpt lat="46.27484" lon="2.87858">
        <ele>508.3</ele>
        <time>2019-11-01T11:15:24Z</time>
      </trkpt>
      <trkpt lat="46.27485" lon="2.8786">
        <ele>508.2</ele>
        <time>2019-11-01T11:15:25Z</time>
      </trkpt>
      <trkpt lat="46.27488" lon="2.87861">
        <ele>508.2</ele>
        <time>2019-11-01T11:15:26Z</time>
      </trkpt>
      <trkpt lat="46.2749" lon="2.87861">
        <ele>508.2</ele>
        <time>2019-11-01T11:15:27Z</time>
      </trkpt>
      <trkpt lat="46.27492" lon="2.87862">
        <ele>508.1</ele>
        <time>2019-11-01T11:15:28Z</time>
      </trkpt>
      <trkpt lat="46.27496" lon="2.87865">
        <ele>508.1</ele>
        <time>2019-11-01T11:15:29Z</time>
      </trkpt>
      <trkpt lat="46.27499" lon="2.87867">
        <ele>508</ele>
        <time>2019-11-01T11:15:30Z</time>
      </trkpt>
      <trkpt lat="46.27503" lon="2.8787">
        <ele>507.9</ele>
        <time>2019-11-01T11:15:31Z</time>
      </trkpt>
      <trkpt lat="46.27506" lon="2.87873">
        <ele>507.8</ele>
        <time>2019-11-01T11:15:32Z</time>
      </trkpt>
      <trkpt lat="46.2751" lon="2.87876">
        <ele>507.7</ele>
        <time>2019-11-01T11:15:33Z</time>
      </trkpt>
      <trkpt lat="46.27514" lon="2.87878">
        <ele>507.6</ele>
        <time>2019-11-01T11:15:34Z</time>
      </trkpt>
      <trkpt lat="46.27518" lon="2.87881">
        <ele>507.5</ele>
        <time>2019-11-01T11:15:35Z</time>
      </trkpt>
      <trkpt lat="46.27523" lon="2.87884">
        <ele>507.4</ele>
        <time>2019-11-01T11:15:36Z</time>
      </trkpt>
      <trkpt lat="46.27528" lon="2.87888">
        <ele>507.3</ele>
        <time>2019-11-01T11:15:37Z</time>
      </trkpt>
      <trkpt lat="46.27532" lon="2.87891">
        <ele>507.1</ele>
        <time>2019-11-01T11:15:38Z</time>
      </trkpt>
      <trkpt lat="46.27537" lon="2.87894">
        <ele>507</ele>
        <time>2019-11-01T11:15:39Z</time>
      </trkpt>
      <trkpt lat="46.27541" lon="2.87898">
        <ele>506.9</ele>
        <time>2019-11-01T11:15:40Z</time>
      </trkpt>
      <trkpt lat="46.27546" lon="2.87901">
        <ele>506.8</ele>
        <time>2019-11-01T11:15:41Z</time>
      </trkpt>
      <trkpt lat="46.27551" lon="2.87904">
        <ele>506.7</ele>
        <time>2019-11-01T11:15:42Z</time>
      </trkpt>
      <trkpt lat="46.27555" lon="2.87906">
        <ele>506.6</ele>
        <time>2019-11-01T11:15:43Z</time>
      </trkpt>
      <trkpt lat="46.27561" lon="2.87911">
        <ele>506.5</ele>
        <time>2019-11-01T11:15:44Z</time>
      </trkpt>
      <trkpt lat="46.27566" lon="2.87915">
        <ele>506.4</ele>
        <time>2019-11-01T11:15:45Z</time>
      </trkpt>
      <trkpt lat="46.27572" lon="2.87918">
        <ele>506.3</ele>
        <time>2019-11-01T11:15:46Z</time>
      </trkpt>
      <trkpt lat="46.27578" lon="2.87922">
        <ele>506.2</ele>
        <time>2019-11-01T11:15:47Z</time>
      </trkpt>
      <trkpt lat="46.27584" lon="2.87926">
        <ele>506.1</ele>
        <time>2019-11-01T11:15:48Z</time>
      </trkpt>
      <trkpt lat="46.2759" lon="2.8793">
        <ele>506</ele>
        <time>2019-11-01T11:15:49Z</time>
      </trkpt>
      <trkpt lat="46.27597" lon="2.87934">
        <ele>505.9</ele>
        <time>2019-11-01T11:15:50Z</time>
      </trkpt>
      <trkpt lat="46.27602" lon="2.87937">
        <ele>505.8</ele>
        <time>2019-11-01T11:15:51Z</time>
      </trkpt>
      <trkpt lat="46.27609" lon="2.87942">
        <ele>505.7</ele>
        <time>2019-11-01T11:15:52Z</time>
      </trkpt>
      <trkpt lat="46.27615" lon="2.87946">
        <ele>505.6</ele>
        <time>2019-11-01T11:15:53Z</time>
      </trkpt>
      <trkpt lat="46.27621" lon="2.87951">
        <ele>505.5</ele>
        <time>2019-11-01T11:15:54Z</time>
      </trkpt>
      <trkpt lat="46.27627" lon="2.87956">
        <ele>505.4</ele>
        <time>2019-11-01T11:15:55Z</time>
      </trkpt>
      <trkpt lat="46.27631" lon="2.8796">
        <ele>505.3</ele>
        <time>2019-11-01T11:15:56Z</time>
      </trkpt>
      <trkpt lat="46.27637" lon="2.87965">
        <ele>505.2</ele>
        <time>2019-11-01T11:15:57Z</time>
      </trkpt>
      <trkpt lat="46.27643" lon="2.87972">
        <ele>505</ele>
        <time>2019-11-01T11:15:58Z</time>
      </trkpt>
      <trkpt lat="46.27648" lon="2.87977">
        <ele>504.8</ele>
        <time>2019-11-01T11:15:59Z</time>
      </trkpt>
      <trkpt lat="46.27654" lon="2.87983">
        <ele>504.6</ele>
        <time>2019-11-01T11:16:00Z</time>
      </trkpt>
      <trkpt lat="46.27659" lon="2.87988">
        <ele>504.3</ele>
        <time>2019-11-01T11:16:01Z</time>
      </trkpt>
      <trkpt lat="46.27664" lon="2.87994">
        <ele>504</ele>
        <time>2019-11-01T11:16:02Z</time>
      </trkpt>
      <trkpt lat="46.2767" lon="2.87999">
        <ele>503.7</ele>
        <time>2019-11-01T11:16:03Z</time>
      </trkpt>
      <trkpt lat="46.27676" lon="2.88005">
        <ele>503.4</ele>
        <time>2019-11-01T11:16:04Z</time>
      </trkpt>
      <trkpt lat="46.27681" lon="2.88011">
        <ele>503.1</ele>
        <time>2019-11-01T11:16:05Z</time>
      </trkpt>
      <trkpt lat="46.27687" lon="2.88017">
        <ele>502.7</ele>
        <time>2019-11-01T11:16:06Z</time>
      </trkpt>
      <trkpt lat="46.27693" lon="2.88023">
        <ele>502.3</ele>
        <time>2019-11-01T11:16:07Z</time>
      </trkpt>
      <trkpt lat="46.27699" lon="2.88029">
        <ele>501.9</ele>
        <time>2019-11-01T11:16:08Z</time>
      </trkpt>
      <trkpt lat="46.27705" lon="2.88036">
        <ele>501.5</ele>
        <time>2019-11-01T11:16:09Z</time>
      </trkpt>
      <trkpt lat="46.27711" lon="2.88043">
        <ele>501.1</ele>
        <time>2019-11-01T11:16:10Z</time>
      </trkpt>
      <trkpt lat="46.27717" lon="2.88051">
        <ele>500.7</ele>
        <time>2019-11-01T11:16:11Z</time>
      </trkpt>
      <trkpt lat="46.27723" lon="2.8806">
        <ele>500.3</ele>
        <time>2019-11-01T11:16:12Z</time>
      </trkpt>
      <trkpt lat="46.27728" lon="2.88069">
        <ele>500</ele>
        <time>2019-11-01T11:16:13Z</time>
      </trkpt>
      <trkpt lat="46.27734" lon="2.88078">
        <ele>499.7</ele>
        <time>2019-11-01T11:16:14Z</time>
      </trkpt>
      <trkpt lat="46.27739" lon="2.88087">
        <ele>499.4</ele>
        <time>2019-11-01T11:16:15Z</time>
      </trkpt>
      <trkpt lat="46.27744" lon="2.88096">
        <ele>499.1</ele>
        <time>2019-11-01T11:16:16Z</time>
      </trkpt>
      <trkpt lat="46.27749" lon="2.88106">
        <ele>498.9</ele>
        <time>2019-11-01T11:16:17Z</time>
      </trkpt>
      <trkpt lat="46.27755" lon="2.88115">
        <ele>498.5</ele>
        <time>2019-11-01T11:16:18Z</time>
      </trkpt>
      <trkpt lat="46.2776" lon="2.88125">
        <ele>498.2</ele>
        <time>2019-11-01T11:16:19Z</time>
      </trkpt>
      <trkpt lat="46.27766" lon="2.88134">
        <ele>497.8</ele>
        <time>2019-11-01T11:16:20Z</time>
      </trkpt>
      <trkpt lat="46.27771" lon="2.88144">
        <ele>497.4</ele>
        <time>2019-11-01T11:16:21Z</time>
      </trkpt>
      <trkpt lat="46.27777" lon="2.88154">
        <ele>496.9</ele>
        <time>2019-11-01T11:16:22Z</time>
      </trkpt>
      <trkpt lat="46.27782" lon="2.88163">
        <ele>496.4</ele>
        <time>2019-11-01T11:16:23Z</time>
      </trkpt>
      <trkpt lat="46.27788" lon="2.88173">
        <ele>495.9</ele>
        <time>2019-11-01T11:16:24Z</time>
      </trkpt>
      <trkpt lat="46.27794" lon="2.88182">
        <ele>495.4</ele>
        <time>2019-11-01T11:16:25Z</time>
      </trkpt>
      <trkpt lat="46.27801" lon="2.88191">
        <ele>494.9</ele>
        <time>2019-11-01T11:16:26Z</time>
      </trkpt>
      <trkpt lat="46.27807" lon="2.882">
        <ele>494.5</ele>
        <time>2019-11-01T11:16:27Z</time>
      </trkpt>
      <trkpt lat="46.27813" lon="2.88209">
        <ele>494.1</ele>
        <time>2019-11-01T11:16:28Z</time>
      </trkpt>
      <trkpt lat="46.27819" lon="2.88217">
        <ele>493.6</ele>
        <time>2019-11-01T11:16:29Z</time>
      </trkpt>
      <trkpt lat="46.27826" lon="2.88226">
        <ele>493.2</ele>
        <time>2019-11-01T11:16:30Z</time>
      </trkpt>
      <trkpt lat="46.27832" lon="2.88234">
        <ele>492.8</ele>
        <time>2019-11-01T11:16:31Z</time>
      </trkpt>
      <trkpt lat="46.27839" lon="2.88242">
        <ele>492.3</ele>
        <time>2019-11-01T11:16:32Z</time>
      </trkpt>
      <trkpt lat="46.27845" lon="2.8825">
        <ele>491.9</ele>
        <time>2019-11-01T11:16:33Z</time>
      </trkpt>
      <trkpt lat="46.27853" lon="2.88258">
        <ele>491.5</ele>
        <time>2019-11-01T11:16:34Z</time>
      </trkpt>
      <trkpt lat="46.2786" lon="2.88265">
        <ele>491.2</ele>
        <time>2019-11-01T11:16:35Z</time>
      </trkpt>
      <trkpt lat="46.27866" lon="2.88273">
        <ele>490.8</ele>
        <time>2019-11-01T11:16:36Z</time>
      </trkpt>
      <trkpt lat="46.27873" lon="2.88281">
        <ele>490.4</ele>
        <time>2019-11-01T11:16:37Z</time>
      </trkpt>
      <trkpt lat="46.2788" lon="2.88289">
        <ele>489.9</ele>
        <time>2019-11-01T11:16:38Z</time>
      </trkpt>
      <trkpt lat="46.27886" lon="2.88297">
        <ele>489.2</ele>
        <time>2019-11-01T11:16:39Z</time>
      </trkpt>
      <trkpt lat="46.27892" lon="2.88306">
        <ele>488.5</ele>
        <time>2019-11-01T11:16:40Z</time>
      </trkpt>
      <trkpt lat="46.27898" lon="2.88315">
        <ele>487.7</ele>
        <time>2019-11-01T11:16:41Z</time>
      </trkpt>
      <trkpt lat="46.27902" lon="2.88323">
        <ele>487</ele>
        <time>2019-11-01T11:16:42Z</time>
      </trkpt>
      <trkpt lat="46.27906" lon="2.88332">
        <ele>486.5</ele>
        <time>2019-11-01T11:16:43Z</time>
      </trkpt>
      <trkpt lat="46.2791" lon="2.8834">
        <ele>486</ele>
        <time>2019-11-01T11:16:44Z</time>
      </trkpt>
      <trkpt lat="46.27913" lon="2.88348">
        <ele>485.5</ele>
        <time>2019-11-01T11:16:45Z</time>
      </trkpt>
      <trkpt lat="46.27916" lon="2.88355">
        <ele>485.3</ele>
        <time>2019-11-01T11:16:46Z</time>
      </trkpt>
      <trkpt lat="46.2792" lon="2.88362">
        <ele>484.9</ele>
        <time>2019-11-01T11:16:47Z</time>
      </trkpt>
      <trkpt lat="46.27924" lon="2.88368">
        <ele>484.8</ele>
        <time>2019-11-01T11:16:48Z</time>
      </trkpt>
      <trkpt lat="46.27929" lon="2.88374">
        <ele>484.6</ele>
        <time>2019-11-01T11:16:49Z</time>
      </trkpt>
      <trkpt lat="46.27934" lon="2.8838">
        <ele>484.5</ele>
        <time>2019-11-01T11:16:50Z</time>
      </trkpt>
      <trkpt lat="46.27939" lon="2.88384">
        <ele>484.3</ele>
        <time>2019-11-01T11:16:51Z</time>
      </trkpt>
      <trkpt lat="46.27945" lon="2.88389">
        <ele>484.1</ele>
        <time>2019-11-01T11:16:52Z</time>
      </trkpt>
      <trkpt lat="46.2795" lon="2.88393">
        <ele>483.9</ele>
        <time>2019-11-01T11:16:53Z</time>
      </trkpt>
      <trkpt lat="46.27956" lon="2.88397">
        <ele>483.7</ele>
        <time>2019-11-01T11:16:54Z</time>
      </trkpt>
      <trkpt lat="46.27962" lon="2.88402">
        <ele>483.4</ele>
        <time>2019-11-01T11:16:55Z</time>
      </trkpt>
      <trkpt lat="46.27968" lon="2.88406">
        <ele>483.2</ele>
        <time>2019-11-01T11:16:56Z</time>
      </trkpt>
      <trkpt lat="46.27974" lon="2.88411">
        <ele>482.9</ele>
        <time>2019-11-01T11:16:57Z</time>
      </trkpt>
      <trkpt lat="46.2798" lon="2.88416">
        <ele>482.6</ele>
        <time>2019-11-01T11:16:58Z</time>
      </trkpt>
      <trkpt lat="46.27986" lon="2.8842">
        <ele>482.2</ele>
        <time>2019-11-01T11:16:59Z</time>
      </trkpt>
      <trkpt lat="46.27993" lon="2.88425">
        <ele>481.9</ele>
        <time>2019-11-01T11:17:00Z</time>
      </trkpt>
      <trkpt lat="46.27999" lon="2.88429">
        <ele>481.6</ele>
        <time>2019-11-01T11:17:01Z</time>
      </trkpt>
      <trkpt lat="46.28005" lon="2.88433">
        <ele>481.2</ele>
        <time>2019-11-01T11:17:02Z</time>
      </trkpt>
      <trkpt lat="46.28011" lon="2.88436">
        <ele>480.9</ele>
        <time>2019-11-01T11:17:03Z</time>
      </trkpt>
      <trkpt lat="46.28018" lon="2.88439">
        <ele>480.6</ele>
        <time>2019-11-01T11:17:04Z</time>
      </trkpt>
      <trkpt lat="46.28024" lon="2.8844">
        <ele>480.3</ele>
        <time>2019-11-01T11:17:05Z</time>
      </trkpt>
      <trkpt lat="46.28029" lon="2.88441">
        <ele>480.1</ele>
        <time>2019-11-01T11:17:06Z</time>
      </trkpt>
      <trkpt lat="46.28035" lon="2.88442">
        <ele>479.8</ele>
        <time>2019-11-01T11:17:07Z</time>
      </trkpt>
      <trkpt lat="46.2804" lon="2.88442">
        <ele>479.6</ele>
        <time>2019-11-01T11:17:08Z</time>
      </trkpt>
      <trkpt lat="46.28045" lon="2.88442">
        <ele>479.4</ele>
        <time>2019-11-01T11:17:09Z</time>
      </trkpt>
      <trkpt lat="46.2805" lon="2.88442">
        <ele>479.2</ele>
        <time>2019-11-01T11:17:10Z</time>
      </trkpt>
      <trkpt lat="46.28055" lon="2.88441">
        <ele>479</ele>
        <time>2019-11-01T11:17:11Z</time>
      </trkpt>
      <trkpt lat="46.2806" lon="2.88441">
        <ele>478.8</ele>
        <time>2019-11-01T11:17:12Z</time>
      </trkpt>
      <trkpt lat="46.28064" lon="2.88441">
        <ele>478.6</ele>
        <time>2019-11-01T11:17:13Z</time>
      </trkpt>
      <trkpt lat="46.28068" lon="2.88441">
        <ele>478.4</ele>
        <time>2019-11-01T11:17:14Z</time>
      </trkpt>
      <trkpt lat="46.28072" lon="2.88442">
        <ele>478.3</ele>
        <time>2019-11-01T11:17:15Z</time>
      </trkpt>
      <trkpt lat="46.28075" lon="2.88443">
        <ele>478.1</ele>
        <time>2019-11-01T11:17:16Z</time>
      </trkpt>
      <trkpt lat="46.28078" lon="2.88443">
        <ele>478.1</ele>
        <time>2019-11-01T11:17:17Z</time>
      </trkpt>
      <trkpt lat="46.2808" lon="2.88442">
        <ele>478.2</ele>
        <time>2019-11-01T11:17:18Z</time>
      </trkpt>
      <trkpt lat="46.28082" lon="2.8844">
        <ele>478.3</ele>
        <time>2019-11-01T11:17:19Z</time>
      </trkpt>
      <trkpt lat="46.28083" lon="2.88437">
        <ele>478.3</ele>
        <time>2019-11-01T11:17:20Z</time>
      </trkpt>
      <trkpt lat="46.28084" lon="2.88434">
        <ele>478.4</ele>
        <time>2019-11-01T11:17:21Z</time>
      </trkpt>
      <trkpt lat="46.28085" lon="2.8843">
        <ele>478.5</ele>
        <time>2019-11-01T11:17:22Z</time>
      </trkpt>
      <trkpt lat="46.28085" lon="2.88426">
        <ele>478.5</ele>
        <time>2019-11-01T11:17:23Z</time>
      </trkpt>
      <trkpt lat="46.28086" lon="2.88423">
        <ele>478.6</ele>
        <time>2019-11-01T11:17:24Z</time>
      </trkpt>
      <trkpt lat="46.28087" lon="2.88419">
        <ele>478.7</ele>
        <time>2019-11-01T11:17:25Z</time>
      </trkpt>
      <trkpt lat="46.28088" lon="2.88416">
        <ele>478.7</ele>
        <time>2019-11-01T11:17:26Z</time>
      </trkpt>
      <trkpt lat="46.28089" lon="2.88413">
        <ele>478.8</ele>
        <time>2019-11-01T11:17:27Z</time>
      </trkpt>
      <trkpt lat="46.2809" lon="2.8841">
        <ele>478.9</ele>
        <time>2019-11-01T11:17:28Z</time>
      </trkpt>
      <trkpt lat="46.28091" lon="2.88406">
        <ele>478.9</ele>
        <time>2019-11-01T11:17:29Z</time>
      </trkpt>
      <trkpt lat="46.28091" lon="2.88403">
        <ele>479</ele>
        <time>2019-11-01T11:17:30Z</time>
      </trkpt>
      <trkpt lat="46.28091" lon="2.884">
        <ele>479.1</ele>
        <time>2019-11-01T11:17:31Z</time>
      </trkpt>
      <trkpt lat="46.28092" lon="2.88396">
        <ele>479.1</ele>
        <time>2019-11-01T11:17:32Z</time>
      </trkpt>
      <trkpt lat="46.28092" lon="2.88393">
        <ele>479.2</ele>
        <time>2019-11-01T11:17:33Z</time>
      </trkpt>
      <trkpt lat="46.28092" lon="2.88389">
        <ele>479.2</ele>
        <time>2019-11-01T11:17:34Z</time>
      </trkpt>
      <trkpt lat="46.28092" lon="2.88386">
        <ele>479.3</ele>
        <time>2019-11-01T11:17:35Z</time>
      </trkpt>
      <trkpt lat="46.28093" lon="2.88382">
        <ele>479.4</ele>
        <time>2019-11-01T11:17:36Z</time>
      </trkpt>
      <trkpt lat="46.28093" lon="2.88378">
        <ele>479.5</ele>
        <time>2019-11-01T11:17:37Z</time>
      </trkpt>
      <trkpt lat="46.28093" lon="2.88374">
        <ele>479.5</ele>
        <time>2019-11-01T11:17:38Z</time>
      </trkpt>
      <trkpt lat="46.28093" lon="2.88371">
        <ele>479.5</ele>
        <time>2019-11-01T11:17:39Z</time>
      </trkpt>
      <trkpt lat="46.28093" lon="2.88368">
        <ele>479.5</ele>
        <time>2019-11-01T11:17:40Z</time>
      </trkpt>
      <trkpt lat="46.28093" lon="2.88366">
        <ele>479.5</ele>
        <time>2019-11-01T11:17:41Z</time>
      </trkpt>
      <trkpt lat="46.28092" lon="2.88364">
        <ele>479.5</ele>
        <time>2019-11-01T11:17:42Z</time>
      </trkpt>
      <trkpt lat="46.28091" lon="2.88364">
        <ele>479.4</ele>
        <time>2019-11-01T11:17:43Z</time>
      </trkpt>
      <trkpt lat="46.28091" lon="2.88365">
        <ele>479.4</ele>
        <time>2019-11-01T11:17:44Z</time>
      </trkpt>
      <trkpt lat="46.28091" lon="2.88367">
        <ele>479.4</ele>
        <time>2019-11-01T11:17:45Z</time>
      </trkpt>
      <trkpt lat="46.28092" lon="2.88367">
        <ele>479.4</ele>
        <time>2019-11-01T11:17:46Z</time>
      </trkpt>
      <trkpt lat="46.28094" lon="2.88367">
        <ele>479.3</ele>
        <time>2019-11-01T11:17:47Z</time>
      </trkpt>
      <trkpt lat="46.28096" lon="2.88366">
        <ele>479.3</ele>
        <time>2019-11-01T11:17:48Z</time>
      </trkpt>
      <trkpt lat="46.28098" lon="2.88364">
        <ele>479.3</ele>
        <time>2019-11-01T11:17:49Z</time>
      </trkpt>
      <trkpt lat="46.28101" lon="2.88361">
        <ele>479.3</ele>
        <time>2019-11-01T11:17:50Z</time>
      </trkpt>
      <trkpt lat="46.28103" lon="2.88358">
        <ele>479.3</ele>
        <time>2019-11-01T11:17:51Z</time>
      </trkpt>
      <trkpt lat="46.28105" lon="2.88354">
        <ele>479.3</ele>
        <time>2019-11-01T11:17:52Z</time>
      </trkpt>
      <trkpt lat="46.28108" lon="2.88351">
        <ele>479.3</ele>
        <time>2019-11-01T11:17:53Z</time>
      </trkpt>
      <trkpt lat="46.2811" lon="2.88348">
        <ele>479.3</ele>
        <time>2019-11-01T11:17:54Z</time>
      </trkpt>
      <trkpt lat="46.28112" lon="2.88345">
        <ele>479.2</ele>
        <time>2019-11-01T11:17:55Z</time>
      </trkpt>
      <trkpt lat="46.28114" lon="2.88342">
        <ele>479.2</ele>
        <time>2019-11-01T11:17:56Z</time>
      </trkpt>
      <trkpt lat="46.28117" lon="2.88339">
        <ele>479.2</ele>
        <time>2019-11-01T11:17:57Z</time>
      </trkpt>
      <trkpt lat="46.28119" lon="2.88336">
        <ele>479.2</ele>
        <time>2019-11-01T11:17:58Z</time>
      </trkpt>
      <trkpt lat="46.28121" lon="2.88333">
        <ele>479.2</ele>
        <time>2019-11-01T11:17:59Z</time>
      </trkpt>
      <trkpt lat="46.28124" lon="2.88331">
        <ele>479.2</ele>
        <time>2019-11-01T11:18:00Z</time>
      </trkpt>
      <trkpt lat="46.28126" lon="2.88328">
        <ele>479.3</ele>
        <time>2019-11-01T11:18:01Z</time>
      </trkpt>
      <trkpt lat="46.28129" lon="2.88325">
        <ele>479.3</ele>
        <time>2019-11-01T11:18:02Z</time>
      </trkpt>
      <trkpt lat="46.28131" lon="2.88323">
        <ele>479.3</ele>
        <time>2019-11-01T11:18:03Z</time>
      </trkpt>
      <trkpt lat="46.28134" lon="2.8832">
        <ele>479.3</ele>
        <time>2019-11-01T11:18:04Z</time>
      </trkpt>
      <trkpt lat="46.28136" lon="2.88317">
        <ele>479.4</ele>
        <time>2019-11-01T11:18:05Z</time>
      </trkpt>
      <trkpt lat="46.28139" lon="2.88314">
        <ele>479.5</ele>
        <time>2019-11-01T11:18:06Z</time>
      </trkpt>
      <trkpt lat="46.28141" lon="2.8831">
        <ele>479.7</ele>
        <time>2019-11-01T11:18:07Z</time>
      </trkpt>
      <trkpt lat="46.28143" lon="2.88306">
        <ele>480</ele>
        <time>2019-11-01T11:18:08Z</time>
      </trkpt>
      <trkpt lat="46.28145" lon="2.88302">
        <ele>480.3</ele>
        <time>2019-11-01T11:18:09Z</time>
      </trkpt>
      <trkpt lat="46.28146" lon="2.88298">
        <ele>480.5</ele>
        <time>2019-11-01T11:18:10Z</time>
      </trkpt>
      <trkpt lat="46.28147" lon="2.88293">
        <ele>480.7</ele>
        <time>2019-11-01T11:18:11Z</time>
      </trkpt>
      <trkpt lat="46.28149" lon="2.88288">
        <ele>481</ele>
        <time>2019-11-01T11:18:12Z</time>
      </trkpt>
      <trkpt lat="46.2815" lon="2.88282">
        <ele>481.4</ele>
        <time>2019-11-01T11:18:13Z</time>
      </trkpt>
      <trkpt lat="46.28151" lon="2.88277">
        <ele>481.7</ele>
        <time>2019-11-01T11:18:14Z</time>
      </trkpt>
      <trkpt lat="46.28152" lon="2.88272">
        <ele>482.1</ele>
        <time>2019-11-01T11:18:15Z</time>
      </trkpt>
      <trkpt lat="46.28153" lon="2.88267">
        <ele>482.5</ele>
        <time>2019-11-01T11:18:16Z</time>
      </trkpt>
      <trkpt lat="46.28154" lon="2.88262">
        <ele>482.8</ele>
        <time>2019-11-01T11:18:17Z</time>
      </trkpt>
      <trkpt lat="46.28155" lon="2.88257">
        <ele>483.1</ele>
        <time>2019-11-01T11:18:18Z</time>
      </trkpt>
      <trkpt lat="46.28156" lon="2.88252">
        <ele>483.5</ele>
        <time>2019-11-01T11:18:19Z</time>
      </trkpt>
      <trkpt lat="46.28157" lon="2.88247">
        <ele>483.9</ele>
        <time>2019-11-01T11:18:20Z</time>
      </trkpt>
      <trkpt lat="46.28158" lon="2.88242">
        <ele>484.3</ele>
        <time>2019-11-01T11:18:21Z</time>
      </trkpt>
      <trkpt lat="46.2816" lon="2.88237">
        <ele>484.7</ele>
        <time>2019-11-01T11:18:22Z</time>
      </trkpt>
      <trkpt lat="46.28161" lon="2.88232">
        <ele>485</ele>
        <time>2019-11-01T11:18:23Z</time>
      </trkpt>
      <trkpt lat="46.28163" lon="2.88227">
        <ele>485.3</ele>
        <time>2019-11-01T11:18:24Z</time>
      </trkpt>
      <trkpt lat="46.28165" lon="2.88223">
        <ele>485.6</ele>
        <time>2019-11-01T11:18:25Z</time>
      </trkpt>
      <trkpt lat="46.28166" lon="2.88219">
        <ele>485.9</ele>
        <time>2019-11-01T11:18:26Z</time>
      </trkpt>
      <trkpt lat="46.28168" lon="2.88215">
        <ele>486.1</ele>
        <time>2019-11-01T11:18:27Z</time>
      </trkpt>
      <trkpt lat="46.2817" lon="2.88212">
        <ele>486.3</ele>
        <time>2019-11-01T11:18:28Z</time>
      </trkpt>
      <trkpt lat="46.28172" lon="2.88208">
        <ele>486.5</ele>
        <time>2019-11-01T11:18:29Z</time>
      </trkpt>
      <trkpt lat="46.28174" lon="2.88205">
        <ele>486.7</ele>
        <time>2019-11-01T11:18:30Z</time>
      </trkpt>
      <trkpt lat="46.28176" lon="2.88202">
        <ele>486.9</ele>
        <time>2019-11-01T11:18:31Z</time>
      </trkpt>
      <trkpt lat="46.28178" lon="2.88199">
        <ele>487.1</ele>
        <time>2019-11-01T11:18:32Z</time>
      </trkpt>
      <trkpt lat="46.28179" lon="2.88196">
        <ele>487.2</ele>
        <time>2019-11-01T11:18:33Z</time>
      </trkpt>
      <trkpt lat="46.28181" lon="2.88192">
        <ele>487.4</ele>
        <time>2019-11-01T11:18:34Z</time>
      </trkpt>
      <trkpt lat="46.28182" lon="2.88189">
        <ele>487.5</ele>
        <time>2019-11-01T11:18:35Z</time>
      </trkpt>
      <trkpt lat="46.28183" lon="2.88186">
        <ele>487.7</ele>
        <time>2019-11-01T11:18:36Z</time>
      </trkpt>
      <trkpt lat="46.28184" lon="2.88183">
        <ele>487.8</ele>
        <time>2019-11-01T11:18:37Z</time>
      </trkpt>
      <trkpt lat="46.28186" lon="2.8818">
        <ele>488</ele>
        <time>2019-11-01T11:18:38Z</time>
      </trkpt>
      <trkpt lat="46.28187" lon="2.88177">
        <ele>488.1</ele>
        <time>2019-11-01T11:18:39Z</time>
      </trkpt>
      <trkpt lat="46.28188" lon="2.88173">
        <ele>488.3</ele>
        <time>2019-11-01T11:18:40Z</time>
      </trkpt>
      <trkpt lat="46.28189" lon="2.8817">
        <ele>488.5</ele>
        <time>2019-11-01T11:18:41Z</time>
      </trkpt>
      <trkpt lat="46.2819" lon="2.88166">
        <ele>488.5</ele>
        <time>2019-11-01T11:18:42Z</time>
      </trkpt>
      <trkpt lat="46.28191" lon="2.88162">
        <ele>488.6</ele>
        <time>2019-11-01T11:18:43Z</time>
      </trkpt>
      <trkpt lat="46.28192" lon="2.88159">
        <ele>488.7</ele>
        <time>2019-11-01T11:18:44Z</time>
      </trkpt>
      <trkpt lat="46.28194" lon="2.88155">
        <ele>488.8</ele>
        <time>2019-11-01T11:18:45Z</time>
      </trkpt>
      <trkpt lat="46.28195" lon="2.88152">
        <ele>489</ele>
        <time>2019-11-01T11:18:46Z</time>
      </trkpt>
      <trkpt lat="46.28197" lon="2.88148">
        <ele>489.1</ele>
        <time>2019-11-01T11:18:47Z</time>
      </trkpt>
      <trkpt lat="46.28198" lon="2.88145">
        <ele>489.2</ele>
        <time>2019-11-01T11:18:48Z</time>
      </trkpt>
      <trkpt lat="46.282" lon="2.88141">
        <ele>489.2</ele>
        <time>2019-11-01T11:18:49Z</time>
      </trkpt>
      <trkpt lat="46.28201" lon="2.88138">
        <ele>489.3</ele>
        <time>2019-11-01T11:18:50Z</time>
      </trkpt>
      <trkpt lat="46.28203" lon="2.88135">
        <ele>489.4</ele>
        <time>2019-11-01T11:18:51Z</time>
      </trkpt>
      <trkpt lat="46.28204" lon="2.88132">
        <ele>489.5</ele>
        <time>2019-11-01T11:18:52Z</time>
      </trkpt>
      <trkpt lat="46.28206" lon="2.88128">
        <ele>489.6</ele>
        <time>2019-11-01T11:18:53Z</time>
      </trkpt>
      <trkpt lat="46.28207" lon="2.88125">
        <ele>489.7</ele>
        <time>2019-11-01T11:18:54Z</time>
      </trkpt>
      <trkpt lat="46.28209" lon="2.88122">
        <ele>489.8</ele>
        <time>2019-11-01T11:18:55Z</time>
      </trkpt>
      <trkpt lat="46.28211" lon="2.88119">
        <ele>489.9</ele>
        <time>2019-11-01T11:18:56Z</time>
      </trkpt>
      <trkpt lat="46.28212" lon="2.88116">
        <ele>490</ele>
        <time>2019-11-01T11:18:57Z</time>
      </trkpt>
      <trkpt lat="46.28214" lon="2.88112">
        <ele>490</ele>
        <time>2019-11-01T11:18:58Z</time>
      </trkpt>
      <trkpt lat="46.28216" lon="2.88109">
        <ele>490.1</ele>
        <time>2019-11-01T11:18:59Z</time>
      </trkpt>
      <trkpt lat="46.28217" lon="2.88106">
        <ele>490.1</ele>
        <time>2019-11-01T11:19:00Z</time>
      </trkpt>
      <trkpt lat="46.28219" lon="2.88102">
        <ele>490.2</ele>
        <time>2019-11-01T11:19:01Z</time>
      </trkpt>
      <trkpt lat="46.28221" lon="2.88099">
        <ele>490.2</ele>
        <time>2019-11-01T11:19:02Z</time>
      </trkpt>
      <trkpt lat="46.28222" lon="2.88095">
        <ele>490.2</ele>
        <time>2019-11-01T11:19:03Z</time>
      </trkpt>
      <trkpt lat="46.28224" lon="2.88091">
        <ele>490.3</ele>
        <time>2019-11-01T11:19:04Z</time>
      </trkpt>
      <trkpt lat="46.28226" lon="2.88087">
        <ele>490.3</ele>
        <time>2019-11-01T11:19:05Z</time>
      </trkpt>
      <trkpt lat="46.28227" lon="2.88082">
        <ele>490.3</ele>
        <time>2019-11-01T11:19:06Z</time>
      </trkpt>
      <trkpt lat="46.28229" lon="2.88077">
        <ele>490.4</ele>
        <time>2019-11-01T11:19:07Z</time>
      </trkpt>
      <trkpt lat="46.28231" lon="2.88071">
        <ele>490.5</ele>
        <time>2019-11-01T11:19:08Z</time>
      </trkpt>
      <trkpt lat="46.28233" lon="2.88066">
        <ele>490.6</ele>
        <time>2019-11-01T11:19:09Z</time>
      </trkpt>
      <trkpt lat="46.28235" lon="2.88061">
        <ele>490.4</ele>
        <time>2019-11-01T11:19:10Z</time>
      </trkpt>
      <trkpt lat="46.28237" lon="2.88057">
        <ele>490.3</ele>
        <time>2019-11-01T11:19:11Z</time>
      </trkpt>
      <trkpt lat="46.2824" lon="2.88053">
        <ele>490.2</ele>
        <time>2019-11-01T11:19:12Z</time>
      </trkpt>
      <trkpt lat="46.28243" lon="2.8805">
        <ele>490.1</ele>
        <time>2019-11-01T11:19:13Z</time>
      </trkpt>
      <trkpt lat="46.28246" lon="2.88048">
        <ele>490</ele>
        <time>2019-11-01T11:19:14Z</time>
      </trkpt>
      <trkpt lat="46.28249" lon="2.88045">
        <ele>490</ele>
        <time>2019-11-01T11:19:15Z</time>
      </trkpt>
      <trkpt lat="46.28252" lon="2.88043">
        <ele>490</ele>
        <time>2019-11-01T11:19:16Z</time>
      </trkpt>
      <trkpt lat="46.28254" lon="2.88041">
        <ele>489.9</ele>
        <time>2019-11-01T11:19:17Z</time>
      </trkpt>
      <trkpt lat="46.28256" lon="2.8804">
        <ele>489.8</ele>
        <time>2019-11-01T11:19:18Z</time>
      </trkpt>
      <trkpt lat="46.28258" lon="2.88038">
        <ele>489.6</ele>
        <time>2019-11-01T11:19:19Z</time>
      </trkpt>
      <trkpt lat="46.2826" lon="2.88036">
        <ele>489.5</ele>
        <time>2019-11-01T11:19:20Z</time>
      </trkpt>
      <trkpt lat="46.28263" lon="2.88034">
        <ele>489.3</ele>
        <time>2019-11-01T11:19:21Z</time>
      </trkpt>
      <trkpt lat="46.28265" lon="2.88032">
        <ele>489.1</ele>
        <time>2019-11-01T11:19:22Z</time>
      </trkpt>
      <trkpt lat="46.28268" lon="2.88029">
        <ele>488.9</ele>
        <time>2019-11-01T11:19:23Z</time>
      </trkpt>
      <trkpt lat="46.28271" lon="2.88027">
        <ele>488.7</ele>
        <time>2019-11-01T11:19:24Z</time>
      </trkpt>
      <trkpt lat="46.28274" lon="2.88024">
        <ele>488.4</ele>
        <time>2019-11-01T11:19:25Z</time>
      </trkpt>
      <trkpt lat="46.28277" lon="2.88021">
        <ele>487.9</ele>
        <time>2019-11-01T11:19:26Z</time>
      </trkpt>
      <trkpt lat="46.28281" lon="2.88018">
        <ele>487.5</ele>
        <time>2019-11-01T11:19:27Z</time>
      </trkpt>
      <trkpt lat="46.28285" lon="2.88014">
        <ele>487.2</ele>
        <time>2019-11-01T11:19:28Z</time>
      </trkpt>
      <trkpt lat="46.28289" lon="2.8801">
        <ele>486.8</ele>
        <time>2019-11-01T11:19:29Z</time>
      </trkpt>
      <trkpt lat="46.28294" lon="2.88006">
        <ele>486.4</ele>
        <time>2019-11-01T11:19:30Z</time>
      </trkpt>
      <trkpt lat="46.28298" lon="2.88002">
        <ele>486.1</ele>
        <time>2019-11-01T11:19:31Z</time>
      </trkpt>
      <trkpt lat="46.28303" lon="2.87997">
        <ele>485.8</ele>
        <time>2019-11-01T11:19:32Z</time>
      </trkpt>
      <trkpt lat="46.28308" lon="2.87992">
        <ele>485.3</ele>
        <time>2019-11-01T11:19:33Z</time>
      </trkpt>
      <trkpt lat="46.28313" lon="2.87988">
        <ele>484.8</ele>
        <time>2019-11-01T11:19:34Z</time>
      </trkpt>
      <trkpt lat="46.28319" lon="2.87982">
        <ele>484.4</ele>
        <time>2019-11-01T11:19:35Z</time>
      </trkpt>
      <trkpt lat="46.28324" lon="2.87977">
        <ele>483.8</ele>
        <time>2019-11-01T11:19:36Z</time>
      </trkpt>
      <trkpt lat="46.28329" lon="2.87971">
        <ele>483.4</ele>
        <time>2019-11-01T11:19:37Z</time>
      </trkpt>
      <trkpt lat="46.28334" lon="2.87965">
        <ele>482.9</ele>
        <time>2019-11-01T11:19:38Z</time>
      </trkpt>
      <trkpt lat="46.28338" lon="2.87959">
        <ele>482.5</ele>
        <time>2019-11-01T11:19:39Z</time>
      </trkpt>
      <trkpt lat="46.28343" lon="2.87952">
        <ele>482</ele>
        <time>2019-11-01T11:19:40Z</time>
      </trkpt>
      <trkpt lat="46.28347" lon="2.87944">
        <ele>481.8</ele>
        <time>2019-11-01T11:19:41Z</time>
      </trkpt>
      <trkpt lat="46.2835" lon="2.87936">
        <ele>481.6</ele>
        <time>2019-11-01T11:19:42Z</time>
      </trkpt>
      <trkpt lat="46.28354" lon="2.87928">
        <ele>481.3</ele>
        <time>2019-11-01T11:19:43Z</time>
      </trkpt>
      <trkpt lat="46.28357" lon="2.87919">
        <ele>481.1</ele>
        <time>2019-11-01T11:19:44Z</time>
      </trkpt>
      <trkpt lat="46.28361" lon="2.8791">
        <ele>481</ele>
        <time>2019-11-01T11:19:45Z</time>
      </trkpt>
      <trkpt lat="46.28365" lon="2.87902">
        <ele>480.8</ele>
        <time>2019-11-01T11:19:46Z</time>
      </trkpt>
      <trkpt lat="46.28369" lon="2.87894">
        <ele>480.7</ele>
        <time>2019-11-01T11:19:47Z</time>
      </trkpt>
      <trkpt lat="46.28374" lon="2.87886">
        <ele>480.6</ele>
        <time>2019-11-01T11:19:48Z</time>
      </trkpt>
      <trkpt lat="46.28379" lon="2.87878">
        <ele>480.6</ele>
        <time>2019-11-01T11:19:49Z</time>
      </trkpt>
      <trkpt lat="46.28384" lon="2.8787">
        <ele>480.5</ele>
        <time>2019-11-01T11:19:50Z</time>
      </trkpt>
      <trkpt lat="46.28389" lon="2.87862">
        <ele>480.2</ele>
        <time>2019-11-01T11:19:51Z</time>
      </trkpt>
      <trkpt lat="46.28394" lon="2.87854">
        <ele>479.8</ele>
        <time>2019-11-01T11:19:52Z</time>
      </trkpt>
      <trkpt lat="46.28399" lon="2.87845">
        <ele>479.1</ele>
        <time>2019-11-01T11:19:53Z</time>
      </trkpt>
      <trkpt lat="46.28402" lon="2.87835">
        <ele>478.3</ele>
        <time>2019-11-01T11:19:54Z</time>
      </trkpt>
      <trkpt lat="46.28405" lon="2.87824">
        <ele>477.6</ele>
        <time>2019-11-01T11:19:55Z</time>
      </trkpt>
      <trkpt lat="46.28408" lon="2.87814">
        <ele>477</ele>
        <time>2019-11-01T11:19:56Z</time>
      </trkpt>
      <trkpt lat="46.2841" lon="2.87802">
        <ele>476.1</ele>
        <time>2019-11-01T11:19:57Z</time>
      </trkpt>
      <trkpt lat="46.28412" lon="2.8779">
        <ele>475.4</ele>
        <time>2019-11-01T11:19:58Z</time>
      </trkpt>
      <trkpt lat="46.28415" lon="2.87779">
        <ele>474.7</ele>
        <time>2019-11-01T11:19:59Z</time>
      </trkpt>
      <trkpt lat="46.28417" lon="2.87767">
        <ele>474</ele>
        <time>2019-11-01T11:20:00Z</time>
      </trkpt>
      <trkpt lat="46.2842" lon="2.87756">
        <ele>473.3</ele>
        <time>2019-11-01T11:20:01Z</time>
      </trkpt>
      <trkpt lat="46.28424" lon="2.87746">
        <ele>472.8</ele>
        <time>2019-11-01T11:20:02Z</time>
      </trkpt>
      <trkpt lat="46.28428" lon="2.87737">
        <ele>472.2</ele>
        <time>2019-11-01T11:20:03Z</time>
      </trkpt>
      <trkpt lat="46.28433" lon="2.8773">
        <ele>471.8</ele>
        <time>2019-11-01T11:20:04Z</time>
      </trkpt>
      <trkpt lat="46.28439" lon="2.87723">
        <ele>471.5</ele>
        <time>2019-11-01T11:20:05Z</time>
      </trkpt>
      <trkpt lat="46.28445" lon="2.87718">
        <ele>471.1</ele>
        <time>2019-11-01T11:20:06Z</time>
      </trkpt>
      <trkpt lat="46.28452" lon="2.87712">
        <ele>470.6</ele>
        <time>2019-11-01T11:20:07Z</time>
      </trkpt>
      <trkpt lat="46.28458" lon="2.87707">
        <ele>470.1</ele>
        <time>2019-11-01T11:20:08Z</time>
      </trkpt>
      <trkpt lat="46.28464" lon="2.87703">
        <ele>469.6</ele>
        <time>2019-11-01T11:20:09Z</time>
      </trkpt>
      <trkpt lat="46.2847" lon="2.87698">
        <ele>469</ele>
        <time>2019-11-01T11:20:10Z</time>
      </trkpt>
      <trkpt lat="46.28475" lon="2.87693">
        <ele>468.4</ele>
        <time>2019-11-01T11:20:11Z</time>
      </trkpt>
      <trkpt lat="46.28478" lon="2.87687">
        <ele>467.9</ele>
        <time>2019-11-01T11:20:12Z</time>
      </trkpt>
      <trkpt lat="46.28481" lon="2.8768">
        <ele>467.3</ele>
        <time>2019-11-01T11:20:13Z</time>
      </trkpt>
      <trkpt lat="46.28484" lon="2.87673">
        <ele>466.9</ele>
        <time>2019-11-01T11:20:14Z</time>
      </trkpt>
      <trkpt lat="46.28487" lon="2.87665">
        <ele>466.6</ele>
        <time>2019-11-01T11:20:15Z</time>
      </trkpt>
      <trkpt lat="46.2849" lon="2.87656">
        <ele>466.5</ele>
        <time>2019-11-01T11:20:16Z</time>
      </trkpt>
      <trkpt lat="46.28494" lon="2.87648">
        <ele>466.5</ele>
        <time>2019-11-01T11:20:17Z</time>
      </trkpt>
      <trkpt lat="46.28498" lon="2.87639">
        <ele>466.8</ele>
        <time>2019-11-01T11:20:18Z</time>
      </trkpt>
      <trkpt lat="46.28502" lon="2.87631">
        <ele>467.1</ele>
        <time>2019-11-01T11:20:19Z</time>
      </trkpt>
      <trkpt lat="46.28506" lon="2.87623">
        <ele>467.4</ele>
        <time>2019-11-01T11:20:20Z</time>
      </trkpt>
      <trkpt lat="46.28511" lon="2.87616">
        <ele>467.4</ele>
        <time>2019-11-01T11:20:21Z</time>
      </trkpt>
      <trkpt lat="46.28516" lon="2.8761">
        <ele>467.5</ele>
        <time>2019-11-01T11:20:22Z</time>
      </trkpt>
      <trkpt lat="46.28521" lon="2.87606">
        <ele>467.6</ele>
        <time>2019-11-01T11:20:23Z</time>
      </trkpt>
      <trkpt lat="46.28525" lon="2.87603">
        <ele>467.7</ele>
        <time>2019-11-01T11:20:24Z</time>
      </trkpt>
      <trkpt lat="46.28529" lon="2.876">
        <ele>467.9</ele>
        <time>2019-11-01T11:20:25Z</time>
      </trkpt>
      <trkpt lat="46.28533" lon="2.87598">
        <ele>468.1</ele>
        <time>2019-11-01T11:20:26Z</time>
      </trkpt>
      <trkpt lat="46.28536" lon="2.87595">
        <ele>468.2</ele>
        <time>2019-11-01T11:20:27Z</time>
      </trkpt>
      <trkpt lat="46.28539" lon="2.87593">
        <ele>468.3</ele>
        <time>2019-11-01T11:20:28Z</time>
      </trkpt>
      <trkpt lat="46.28542" lon="2.8759">
        <ele>468.4</ele>
        <time>2019-11-01T11:20:29Z</time>
      </trkpt>
      <trkpt lat="46.28544" lon="2.87588">
        <ele>468.5</ele>
        <time>2019-11-01T11:20:30Z</time>
      </trkpt>
      <trkpt lat="46.28547" lon="2.87585">
        <ele>468.6</ele>
        <time>2019-11-01T11:20:31Z</time>
      </trkpt>
      <trkpt lat="46.28549" lon="2.87583">
        <ele>468.8</ele>
        <time>2019-11-01T11:20:32Z</time>
      </trkpt>
      <trkpt lat="46.28552" lon="2.8758">
        <ele>468.9</ele>
        <time>2019-11-01T11:20:33Z</time>
      </trkpt>
      <trkpt lat="46.28554" lon="2.87578">
        <ele>469</ele>
        <time>2019-11-01T11:20:34Z</time>
      </trkpt>
      <trkpt lat="46.28556" lon="2.87575">
        <ele>469.1</ele>
        <time>2019-11-01T11:20:35Z</time>
      </trkpt>
      <trkpt lat="46.28558" lon="2.87573">
        <ele>469.1</ele>
        <time>2019-11-01T11:20:36Z</time>
      </trkpt>
      <trkpt lat="46.2856" lon="2.8757">
        <ele>469.2</ele>
        <time>2019-11-01T11:20:37Z</time>
      </trkpt>
      <trkpt lat="46.28561" lon="2.87567">
        <ele>469.2</ele>
        <time>2019-11-01T11:20:38Z</time>
      </trkpt>
      <trkpt lat="46.28563" lon="2.87564">
        <ele>469.3</ele>
        <time>2019-11-01T11:20:39Z</time>
      </trkpt>
      <trkpt lat="46.28565" lon="2.87561">
        <ele>469.4</ele>
        <time>2019-11-01T11:20:40Z</time>
      </trkpt>
      <trkpt lat="46.28566" lon="2.87558">
        <ele>469.5</ele>
        <time>2019-11-01T11:20:41Z</time>
      </trkpt>
      <trkpt lat="46.28567" lon="2.87555">
        <ele>469.6</ele>
        <time>2019-11-01T11:20:42Z</time>
      </trkpt>
      <trkpt lat="46.28568" lon="2.87551">
        <ele>469.7</ele>
        <time>2019-11-01T11:20:43Z</time>
      </trkpt>
      <trkpt lat="46.28569" lon="2.87548">
        <ele>469.9</ele>
        <time>2019-11-01T11:20:44Z</time>
      </trkpt>
      <trkpt lat="46.2857" lon="2.87545">
        <ele>470</ele>
        <time>2019-11-01T11:20:45Z</time>
      </trkpt>
      <trkpt lat="46.28571" lon="2.87541">
        <ele>470.1</ele>
        <time>2019-11-01T11:20:46Z</time>
      </trkpt>
      <trkpt lat="46.28573" lon="2.87538">
        <ele>470.2</ele>
        <time>2019-11-01T11:20:47Z</time>
      </trkpt>
      <trkpt lat="46.28574" lon="2.87534">
        <ele>470.3</ele>
        <time>2019-11-01T11:20:48Z</time>
      </trkpt>
      <trkpt lat="46.28575" lon="2.8753">
        <ele>470.4</ele>
        <time>2019-11-01T11:20:49Z</time>
      </trkpt>
      <trkpt lat="46.28576" lon="2.87526">
        <ele>470.6</ele>
        <time>2019-11-01T11:20:50Z</time>
      </trkpt>
      <trkpt lat="46.28578" lon="2.87522">
        <ele>470.6</ele>
        <time>2019-11-01T11:20:51Z</time>
      </trkpt>
      <trkpt lat="46.28579" lon="2.87518">
        <ele>470.6</ele>
        <time>2019-11-01T11:20:52Z</time>
      </trkpt>
      <trkpt lat="46.28581" lon="2.87514">
        <ele>470.6</ele>
        <time>2019-11-01T11:20:53Z</time>
      </trkpt>
      <trkpt lat="46.28582" lon="2.8751">
        <ele>470.7</ele>
        <time>2019-11-01T11:20:54Z</time>
      </trkpt>
      <trkpt lat="46.28584" lon="2.87506">
        <ele>470.8</ele>
        <time>2019-11-01T11:20:55Z</time>
      </trkpt>
      <trkpt lat="46.28586" lon="2.87502">
        <ele>470.8</ele>
        <time>2019-11-01T11:20:56Z</time>
      </trkpt>
      <trkpt lat="46.28588" lon="2.87498">
        <ele>470.9</ele>
        <time>2019-11-01T11:20:57Z</time>
      </trkpt>
      <trkpt lat="46.28589" lon="2.87493">
        <ele>470.9</ele>
        <time>2019-11-01T11:20:58Z</time>
      </trkpt>
      <trkpt lat="46.28591" lon="2.87489">
        <ele>471</ele>
        <time>2019-11-01T11:20:59Z</time>
      </trkpt>
      <trkpt lat="46.28593" lon="2.87484">
        <ele>471.1</ele>
        <time>2019-11-01T11:21:00Z</time>
      </trkpt>
      <trkpt lat="46.28595" lon="2.87479">
        <ele>471.2</ele>
        <time>2019-11-01T11:21:01Z</time>
      </trkpt>
      <trkpt lat="46.28597" lon="2.87474">
        <ele>471.3</ele>
        <time>2019-11-01T11:21:02Z</time>
      </trkpt>
      <trkpt lat="46.28599" lon="2.87468">
        <ele>471.6</ele>
        <time>2019-11-01T11:21:03Z</time>
      </trkpt>
      <trkpt lat="46.28601" lon="2.87463">
        <ele>471.8</ele>
        <time>2019-11-01T11:21:04Z</time>
      </trkpt>
      <trkpt lat="46.28603" lon="2.87458">
        <ele>471.9</ele>
        <time>2019-11-01T11:21:05Z</time>
      </trkpt>
      <trkpt lat="46.28605" lon="2.87452">
        <ele>472</ele>
        <time>2019-11-01T11:21:06Z</time>
      </trkpt>
      <trkpt lat="46.28607" lon="2.87447">
        <ele>472.1</ele>
        <time>2019-11-01T11:21:07Z</time>
      </trkpt>
      <trkpt lat="46.28608" lon="2.87442">
        <ele>472.1</ele>
        <time>2019-11-01T11:21:08Z</time>
      </trkpt>
      <trkpt lat="46.28611" lon="2.87435">
        <ele>472.1</ele>
        <time>2019-11-01T11:21:09Z</time>
      </trkpt>
      <trkpt lat="46.28612" lon="2.87429">
        <ele>472.1</ele>
        <time>2019-11-01T11:21:10Z</time>
      </trkpt>
      <trkpt lat="46.28614" lon="2.87424">
        <ele>472.1</ele>
        <time>2019-11-01T11:21:11Z</time>
      </trkpt>
      <trkpt lat="46.28616" lon="2.87419">
        <ele>472.1</ele>
        <time>2019-11-01T11:21:12Z</time>
      </trkpt>
      <trkpt lat="46.28619" lon="2.87411">
        <ele>472</ele>
        <time>2019-11-01T11:21:13Z</time>
      </trkpt>
      <trkpt lat="46.28622" lon="2.87405">
        <ele>472</ele>
        <time>2019-11-01T11:21:14Z</time>
      </trkpt>
      <trkpt lat="46.28625" lon="2.87399">
        <ele>471.9</ele>
        <time>2019-11-01T11:21:15Z</time>
      </trkpt>
      <trkpt lat="46.28628" lon="2.87394">
        <ele>471.8</ele>
        <time>2019-11-01T11:21:16Z</time>
      </trkpt>
      <trkpt lat="46.28631" lon="2.87388">
        <ele>471.7</ele>
        <time>2019-11-01T11:21:17Z</time>
      </trkpt>
      <trkpt lat="46.28635" lon="2.87381">
        <ele>471.5</ele>
        <time>2019-11-01T11:21:18Z</time>
      </trkpt>
      <trkpt lat="46.28639" lon="2.87376">
        <ele>471.4</ele>
        <time>2019-11-01T11:21:19Z</time>
      </trkpt>
      <trkpt lat="46.28643" lon="2.8737">
        <ele>471.3</ele>
        <time>2019-11-01T11:21:20Z</time>
      </trkpt>
      <trkpt lat="46.28646" lon="2.87366">
        <ele>471.2</ele>
        <time>2019-11-01T11:21:21Z</time>
      </trkpt>
      <trkpt lat="46.2865" lon="2.87361">
        <ele>471.1</ele>
        <time>2019-11-01T11:21:22Z</time>
      </trkpt>
      <trkpt lat="46.28654" lon="2.87354">
        <ele>471</ele>
        <time>2019-11-01T11:21:23Z</time>
      </trkpt>
      <trkpt lat="46.28658" lon="2.87349">
        <ele>470.9</ele>
        <time>2019-11-01T11:21:24Z</time>
      </trkpt>
      <trkpt lat="46.28661" lon="2.87345">
        <ele>470.8</ele>
        <time>2019-11-01T11:21:25Z</time>
      </trkpt>
      <trkpt lat="46.28665" lon="2.87339">
        <ele>470.7</ele>
        <time>2019-11-01T11:21:26Z</time>
      </trkpt>
      <trkpt lat="46.28669" lon="2.87333">
        <ele>470.6</ele>
        <time>2019-11-01T11:21:27Z</time>
      </trkpt>
      <trkpt lat="46.28673" lon="2.87328">
        <ele>470.5</ele>
        <time>2019-11-01T11:21:28Z</time>
      </trkpt>
      <trkpt lat="46.28677" lon="2.87322">
        <ele>470.4</ele>
        <time>2019-11-01T11:21:29Z</time>
      </trkpt>
      <trkpt lat="46.2868" lon="2.87318">
        <ele>470.3</ele>
        <time>2019-11-01T11:21:30Z</time>
      </trkpt>
      <trkpt lat="46.28683" lon="2.87312">
        <ele>470.3</ele>
        <time>2019-11-01T11:21:31Z</time>
      </trkpt>
      <trkpt lat="46.28688" lon="2.87306">
        <ele>470.3</ele>
        <time>2019-11-01T11:21:32Z</time>
      </trkpt>
      <trkpt lat="46.28692" lon="2.873">
        <ele>470.3</ele>
        <time>2019-11-01T11:21:33Z</time>
      </trkpt>
      <trkpt lat="46.28696" lon="2.87294">
        <ele>470.1</ele>
        <time>2019-11-01T11:21:34Z</time>
      </trkpt>
      <trkpt lat="46.28699" lon="2.87288">
        <ele>469.8</ele>
        <time>2019-11-01T11:21:35Z</time>
      </trkpt>
      <trkpt lat="46.28704" lon="2.87282">
        <ele>469.5</ele>
        <time>2019-11-01T11:21:36Z</time>
      </trkpt>
      <trkpt lat="46.28709" lon="2.87273">
        <ele>469.1</ele>
        <time>2019-11-01T11:21:37Z</time>
      </trkpt>
      <trkpt lat="46.28714" lon="2.87264">
        <ele>468.7</ele>
        <time>2019-11-01T11:21:38Z</time>
      </trkpt>
      <trkpt lat="46.28718" lon="2.87257">
        <ele>468.2</ele>
        <time>2019-11-01T11:21:39Z</time>
      </trkpt>
      <trkpt lat="46.28723" lon="2.87249">
        <ele>467.6</ele>
        <time>2019-11-01T11:21:40Z</time>
      </trkpt>
      <trkpt lat="46.2873" lon="2.87238">
        <ele>466.9</ele>
        <time>2019-11-01T11:21:41Z</time>
      </trkpt>
      <trkpt lat="46.28734" lon="2.8723">
        <ele>466.4</ele>
        <time>2019-11-01T11:21:42Z</time>
      </trkpt>
      <trkpt lat="46.2874" lon="2.8722">
        <ele>466</ele>
        <time>2019-11-01T11:21:43Z</time>
      </trkpt>
      <trkpt lat="46.28745" lon="2.8721">
        <ele>465.7</ele>
        <time>2019-11-01T11:21:44Z</time>
      </trkpt>
      <trkpt lat="46.28752" lon="2.872">
        <ele>465.4</ele>
        <time>2019-11-01T11:21:45Z</time>
      </trkpt>
      <trkpt lat="46.2876" lon="2.87189">
        <ele>464.7</ele>
        <time>2019-11-01T11:21:46Z</time>
      </trkpt>
      <trkpt lat="46.28767" lon="2.8718">
        <ele>464.1</ele>
        <time>2019-11-01T11:21:47Z</time>
      </trkpt>
      <trkpt lat="46.28776" lon="2.87173">
        <ele>463.7</ele>
        <time>2019-11-01T11:21:48Z</time>
      </trkpt>
      <trkpt lat="46.28784" lon="2.87165">
        <ele>463</ele>
        <time>2019-11-01T11:21:49Z</time>
      </trkpt>
      <trkpt lat="46.28792" lon="2.87157">
        <ele>462.3</ele>
        <time>2019-11-01T11:21:50Z</time>
      </trkpt>
      <trkpt lat="46.288" lon="2.87149">
        <ele>461.5</ele>
        <time>2019-11-01T11:21:51Z</time>
      </trkpt>
      <trkpt lat="46.28807" lon="2.87139">
        <ele>460.9</ele>
        <time>2019-11-01T11:21:52Z</time>
      </trkpt>
      <trkpt lat="46.28812" lon="2.87127">
        <ele>460.7</ele>
        <time>2019-11-01T11:21:53Z</time>
      </trkpt>
      <trkpt lat="46.28817" lon="2.87114">
        <ele>460.8</ele>
        <time>2019-11-01T11:21:54Z</time>
      </trkpt>
      <trkpt lat="46.28823" lon="2.87101">
        <ele>461</ele>
        <time>2019-11-01T11:21:55Z</time>
      </trkpt>
      <trkpt lat="46.28828" lon="2.87089">
        <ele>460.9</ele>
        <time>2019-11-01T11:21:56Z</time>
      </trkpt>
      <trkpt lat="46.28834" lon="2.87078">
        <ele>461</ele>
        <time>2019-11-01T11:21:57Z</time>
      </trkpt>
      <trkpt lat="46.2884" lon="2.87068">
        <ele>460.8</ele>
        <time>2019-11-01T11:21:58Z</time>
      </trkpt>
      <trkpt lat="46.28845" lon="2.87058">
        <ele>461</ele>
        <time>2019-11-01T11:21:59Z</time>
      </trkpt>
      <trkpt lat="46.2885" lon="2.87049">
        <ele>461</ele>
        <time>2019-11-01T11:22:00Z</time>
      </trkpt>
      <trkpt lat="46.28853" lon="2.87041">
        <ele>461.1</ele>
        <time>2019-11-01T11:22:01Z</time>
      </trkpt>
      <trkpt lat="46.28856" lon="2.87033">
        <ele>461</ele>
        <time>2019-11-01T11:22:02Z</time>
      </trkpt>
      <trkpt lat="46.28858" lon="2.87026">
        <ele>460.9</ele>
        <time>2019-11-01T11:22:03Z</time>
      </trkpt>
      <trkpt lat="46.2886" lon="2.87019">
        <ele>461</ele>
        <time>2019-11-01T11:22:04Z</time>
      </trkpt>
      <trkpt lat="46.28862" lon="2.87011">
        <ele>461</ele>
        <time>2019-11-01T11:22:05Z</time>
      </trkpt>
      <trkpt lat="46.28864" lon="2.87004">
        <ele>461.1</ele>
        <time>2019-11-01T11:22:06Z</time>
      </trkpt>
      <trkpt lat="46.28866" lon="2.86996">
        <ele>461.2</ele>
        <time>2019-11-01T11:22:07Z</time>
      </trkpt>
      <trkpt lat="46.28868" lon="2.86988">
        <ele>461.2</ele>
        <time>2019-11-01T11:22:08Z</time>
      </trkpt>
      <trkpt lat="46.2887" lon="2.8698">
        <ele>461.2</ele>
        <time>2019-11-01T11:22:09Z</time>
      </trkpt>
      <trkpt lat="46.28872" lon="2.86972">
        <ele>461.2</ele>
        <time>2019-11-01T11:22:10Z</time>
      </trkpt>
      <trkpt lat="46.28874" lon="2.86964">
        <ele>461.1</ele>
        <time>2019-11-01T11:22:11Z</time>
      </trkpt>
      <trkpt lat="46.28877" lon="2.86957">
        <ele>460.9</ele>
        <time>2019-11-01T11:22:12Z</time>
      </trkpt>
      <trkpt lat="46.28881" lon="2.86949">
        <ele>460.8</ele>
        <time>2019-11-01T11:22:13Z</time>
      </trkpt>
      <trkpt lat="46.28884" lon="2.86942">
        <ele>460.8</ele>
        <time>2019-11-01T11:22:14Z</time>
      </trkpt>
      <trkpt lat="46.28888" lon="2.86935">
        <ele>460.8</ele>
        <time>2019-11-01T11:22:15Z</time>
      </trkpt>
      <trkpt lat="46.28893" lon="2.86928">
        <ele>460.7</ele>
        <time>2019-11-01T11:22:16Z</time>
      </trkpt>
      <trkpt lat="46.28897" lon="2.86922">
        <ele>460.7</ele>
        <time>2019-11-01T11:22:17Z</time>
      </trkpt>
      <trkpt lat="46.28901" lon="2.86915">
        <ele>460.7</ele>
        <time>2019-11-01T11:22:18Z</time>
      </trkpt>
      <trkpt lat="46.28905" lon="2.86908">
        <ele>460.7</ele>
        <time>2019-11-01T11:22:19Z</time>
      </trkpt>
      <trkpt lat="46.28909" lon="2.86901">
        <ele>460.8</ele>
        <time>2019-11-01T11:22:20Z</time>
      </trkpt>
      <trkpt lat="46.28913" lon="2.86893">
        <ele>460.9</ele>
        <time>2019-11-01T11:22:21Z</time>
      </trkpt>
      <trkpt lat="46.28917" lon="2.86885">
        <ele>461</ele>
        <time>2019-11-01T11:22:22Z</time>
      </trkpt>
      <trkpt lat="46.2892" lon="2.86876">
        <ele>461.2</ele>
        <time>2019-11-01T11:22:23Z</time>
      </trkpt>
      <trkpt lat="46.28923" lon="2.86867">
        <ele>461.3</ele>
        <time>2019-11-01T11:22:24Z</time>
      </trkpt>
      <trkpt lat="46.28925" lon="2.86858">
        <ele>461.6</ele>
        <time>2019-11-01T11:22:25Z</time>
      </trkpt>
      <trkpt lat="46.28926" lon="2.86848">
        <ele>461.8</ele>
        <time>2019-11-01T11:22:26Z</time>
      </trkpt>
      <trkpt lat="46.28927" lon="2.86839">
        <ele>462</ele>
        <time>2019-11-01T11:22:27Z</time>
      </trkpt>
      <trkpt lat="46.28928" lon="2.86829">
        <ele>462.1</ele>
        <time>2019-11-01T11:22:28Z</time>
      </trkpt>
      <trkpt lat="46.28928" lon="2.8682">
        <ele>462.2</ele>
        <time>2019-11-01T11:22:29Z</time>
      </trkpt>
      <trkpt lat="46.28928" lon="2.8681">
        <ele>462.3</ele>
        <time>2019-11-01T11:22:30Z</time>
      </trkpt>
      <trkpt lat="46.28928" lon="2.868">
        <ele>462.2</ele>
        <time>2019-11-01T11:22:31Z</time>
      </trkpt>
      <trkpt lat="46.28929" lon="2.8679">
        <ele>462.2</ele>
        <time>2019-11-01T11:22:32Z</time>
      </trkpt>
      <trkpt lat="46.28929" lon="2.86781">
        <ele>462.1</ele>
        <time>2019-11-01T11:22:33Z</time>
      </trkpt>
      <trkpt lat="46.28929" lon="2.86771">
        <ele>462</ele>
        <time>2019-11-01T11:22:34Z</time>
      </trkpt>
      <trkpt lat="46.2893" lon="2.86761">
        <ele>462</ele>
        <time>2019-11-01T11:22:35Z</time>
      </trkpt>
      <trkpt lat="46.2893" lon="2.86752">
        <ele>461.9</ele>
        <time>2019-11-01T11:22:36Z</time>
      </trkpt>
      <trkpt lat="46.2893" lon="2.86742">
        <ele>461.9</ele>
        <time>2019-11-01T11:22:37Z</time>
      </trkpt>
      <trkpt lat="46.28931" lon="2.86733">
        <ele>461.8</ele>
        <time>2019-11-01T11:22:38Z</time>
      </trkpt>
      <trkpt lat="46.28932" lon="2.86723">
        <ele>461.7</ele>
        <time>2019-11-01T11:22:39Z</time>
      </trkpt>
      <trkpt lat="46.28934" lon="2.86713">
        <ele>461.6</ele>
        <time>2019-11-01T11:22:40Z</time>
      </trkpt>
      <trkpt lat="46.28936" lon="2.86703">
        <ele>461.4</ele>
        <time>2019-11-01T11:22:41Z</time>
      </trkpt>
      <trkpt lat="46.28938" lon="2.86693">
        <ele>461.4</ele>
        <time>2019-11-01T11:22:42Z</time>
      </trkpt>
      <trkpt lat="46.2894" lon="2.86684">
        <ele>461.3</ele>
        <time>2019-11-01T11:22:43Z</time>
      </trkpt>
      <trkpt lat="46.28942" lon="2.86673">
        <ele>461.2</ele>
        <time>2019-11-01T11:22:44Z</time>
      </trkpt>
      <trkpt lat="46.28944" lon="2.86663">
        <ele>461.1</ele>
        <time>2019-11-01T11:22:45Z</time>
      </trkpt>
      <trkpt lat="46.28947" lon="2.86653">
        <ele>461</ele>
        <time>2019-11-01T11:22:46Z</time>
      </trkpt>
      <trkpt lat="46.28949" lon="2.86643">
        <ele>461</ele>
        <time>2019-11-01T11:22:47Z</time>
      </trkpt>
      <trkpt lat="46.28951" lon="2.86634">
        <ele>461</ele>
        <time>2019-11-01T11:22:48Z</time>
      </trkpt>
      <trkpt lat="46.28953" lon="2.86624">
        <ele>460.9</ele>
        <time>2019-11-01T11:22:49Z</time>
      </trkpt>
      <trkpt lat="46.28956" lon="2.86614">
        <ele>460.9</ele>
        <time>2019-11-01T11:22:50Z</time>
      </trkpt>
      <trkpt lat="46.28959" lon="2.86605">
        <ele>460.8</ele>
        <time>2019-11-01T11:22:51Z</time>
      </trkpt>
      <trkpt lat="46.28963" lon="2.86595">
        <ele>460.8</ele>
        <time>2019-11-01T11:22:52Z</time>
      </trkpt>
      <trkpt lat="46.28966" lon="2.86586">
        <ele>460.6</ele>
        <time>2019-11-01T11:22:53Z</time>
      </trkpt>
      <trkpt lat="46.2897" lon="2.86577">
        <ele>460.6</ele>
        <time>2019-11-01T11:22:54Z</time>
      </trkpt>
      <trkpt lat="46.28974" lon="2.86567">
        <ele>460.5</ele>
        <time>2019-11-01T11:22:55Z</time>
      </trkpt>
      <trkpt lat="46.28978" lon="2.86558">
        <ele>460.6</ele>
        <time>2019-11-01T11:22:56Z</time>
      </trkpt>
      <trkpt lat="46.28981" lon="2.86548">
        <ele>460.6</ele>
        <time>2019-11-01T11:22:57Z</time>
      </trkpt>
      <trkpt lat="46.28985" lon="2.86538">
        <ele>460.7</ele>
        <time>2019-11-01T11:22:58Z</time>
      </trkpt>
      <trkpt lat="46.28987" lon="2.86528">
        <ele>460.8</ele>
        <time>2019-11-01T11:22:59Z</time>
      </trkpt>
      <trkpt lat="46.2899" lon="2.86517">
        <ele>460.8</ele>
        <time>2019-11-01T11:23:00Z</time>
      </trkpt>
      <trkpt lat="46.28994" lon="2.86507">
        <ele>460.9</ele>
        <time>2019-11-01T11:23:01Z</time>
      </trkpt>
      <trkpt lat="46.28997" lon="2.86497">
        <ele>461</ele>
        <time>2019-11-01T11:23:02Z</time>
      </trkpt>
      <trkpt lat="46.29001" lon="2.86487">
        <ele>461</ele>
        <time>2019-11-01T11:23:03Z</time>
      </trkpt>
      <trkpt lat="46.29005" lon="2.86477">
        <ele>460.9</ele>
        <time>2019-11-01T11:23:04Z</time>
      </trkpt>
      <trkpt lat="46.2901" lon="2.86467">
        <ele>460.8</ele>
        <time>2019-11-01T11:23:05Z</time>
      </trkpt>
      <trkpt lat="46.29014" lon="2.86458">
        <ele>460.7</ele>
        <time>2019-11-01T11:23:06Z</time>
      </trkpt>
      <trkpt lat="46.29019" lon="2.86449">
        <ele>460.5</ele>
        <time>2019-11-01T11:23:07Z</time>
      </trkpt>
      <trkpt lat="46.29023" lon="2.8644">
        <ele>460.4</ele>
        <time>2019-11-01T11:23:08Z</time>
      </trkpt>
      <trkpt lat="46.29026" lon="2.86431">
        <ele>460.3</ele>
        <time>2019-11-01T11:23:09Z</time>
      </trkpt>
      <trkpt lat="46.2903" lon="2.86422">
        <ele>460.2</ele>
        <time>2019-11-01T11:23:10Z</time>
      </trkpt>
      <trkpt lat="46.29033" lon="2.86413">
        <ele>460.1</ele>
        <time>2019-11-01T11:23:11Z</time>
      </trkpt>
      <trkpt lat="46.29035" lon="2.86404">
        <ele>459.9</ele>
        <time>2019-11-01T11:23:12Z</time>
      </trkpt>
      <trkpt lat="46.29038" lon="2.86395">
        <ele>459.9</ele>
        <time>2019-11-01T11:23:13Z</time>
      </trkpt>
      <trkpt lat="46.29041" lon="2.86387">
        <ele>459.8</ele>
        <time>2019-11-01T11:23:14Z</time>
      </trkpt>
      <trkpt lat="46.29043" lon="2.86378">
        <ele>459.8</ele>
        <time>2019-11-01T11:23:15Z</time>
      </trkpt>
      <trkpt lat="46.29046" lon="2.8637">
        <ele>459.7</ele>
        <time>2019-11-01T11:23:16Z</time>
      </trkpt>
      <trkpt lat="46.29048" lon="2.86361">
        <ele>459.6</ele>
        <time>2019-11-01T11:23:17Z</time>
      </trkpt>
      <trkpt lat="46.2905" lon="2.86354">
        <ele>459.5</ele>
        <time>2019-11-01T11:23:18Z</time>
      </trkpt>
      <trkpt lat="46.29052" lon="2.86346">
        <ele>459.4</ele>
        <time>2019-11-01T11:23:19Z</time>
      </trkpt>
      <trkpt lat="46.29054" lon="2.86339">
        <ele>459.3</ele>
        <time>2019-11-01T11:23:20Z</time>
      </trkpt>
      <trkpt lat="46.29055" lon="2.86331">
        <ele>459.2</ele>
        <time>2019-11-01T11:23:21Z</time>
      </trkpt>
      <trkpt lat="46.29057" lon="2.86324">
        <ele>459</ele>
        <time>2019-11-01T11:23:22Z</time>
      </trkpt>
      <trkpt lat="46.29058" lon="2.86319">
        <ele>459</ele>
        <time>2019-11-01T11:23:23Z</time>
      </trkpt>
      <trkpt lat="46.29059" lon="2.86314">
        <ele>459.1</ele>
        <time>2019-11-01T11:23:24Z</time>
      </trkpt>
      <trkpt lat="46.29059" lon="2.8631">
        <ele>459.1</ele>
        <time>2019-11-01T11:23:25Z</time>
      </trkpt>
      <trkpt lat="46.29058" lon="2.86307">
        <ele>459.2</ele>
        <time>2019-11-01T11:23:26Z</time>
      </trkpt>
      <trkpt lat="46.29056" lon="2.86304">
        <ele>459.2</ele>
        <time>2019-11-01T11:23:27Z</time>
      </trkpt>
      <trkpt lat="46.29053" lon="2.86303">
        <ele>459.2</ele>
        <time>2019-11-01T11:23:28Z</time>
      </trkpt>
      <trkpt lat="46.2905" lon="2.86301">
        <ele>459.3</ele>
        <time>2019-11-01T11:23:29Z</time>
      </trkpt>
      <trkpt lat="46.29047" lon="2.863">
        <ele>459.3</ele>
        <time>2019-11-01T11:23:30Z</time>
      </trkpt>
      <trkpt lat="46.29044" lon="2.86298">
        <ele>459.4</ele>
        <time>2019-11-01T11:23:31Z</time>
      </trkpt>
      <trkpt lat="46.2904" lon="2.86296">
        <ele>459.4</ele>
        <time>2019-11-01T11:23:32Z</time>
      </trkpt>
      <trkpt lat="46.29037" lon="2.86294">
        <ele>459.4</ele>
        <time>2019-11-01T11:23:33Z</time>
      </trkpt>
      <trkpt lat="46.29033" lon="2.86291">
        <ele>459.5</ele>
        <time>2019-11-01T11:23:34Z</time>
      </trkpt>
      <trkpt lat="46.29029" lon="2.86288">
        <ele>459.6</ele>
        <time>2019-11-01T11:23:35Z</time>
      </trkpt>
      <trkpt lat="46.29025" lon="2.86285">
        <ele>459.6</ele>
        <time>2019-11-01T11:23:36Z</time>
      </trkpt>
      <trkpt lat="46.29022" lon="2.86282">
        <ele>459.6</ele>
        <time>2019-11-01T11:23:37Z</time>
      </trkpt>
      <trkpt lat="46.29018" lon="2.86279">
        <ele>459.6</ele>
        <time>2019-11-01T11:23:38Z</time>
      </trkpt>
      <trkpt lat="46.29014" lon="2.86275">
        <ele>459.7</ele>
        <time>2019-11-01T11:23:39Z</time>
      </trkpt>
      <trkpt lat="46.2901" lon="2.86271">
        <ele>459.8</ele>
        <time>2019-11-01T11:23:40Z</time>
      </trkpt>
      <trkpt lat="46.29006" lon="2.86267">
        <ele>459.8</ele>
        <time>2019-11-01T11:23:41Z</time>
      </trkpt>
      <trkpt lat="46.29003" lon="2.86263">
        <ele>459.9</ele>
        <time>2019-11-01T11:23:42Z</time>
      </trkpt>
      <trkpt lat="46.28999" lon="2.86259">
        <ele>460</ele>
        <time>2019-11-01T11:23:43Z</time>
      </trkpt>
      <trkpt lat="46.28995" lon="2.86255">
        <ele>460</ele>
        <time>2019-11-01T11:23:44Z</time>
      </trkpt>
      <trkpt lat="46.28991" lon="2.86252">
        <ele>460.1</ele>
        <time>2019-11-01T11:23:45Z</time>
      </trkpt>
      <trkpt lat="46.28987" lon="2.86248">
        <ele>460.2</ele>
        <time>2019-11-01T11:23:46Z</time>
      </trkpt>
      <trkpt lat="46.28984" lon="2.86245">
        <ele>460.3</ele>
        <time>2019-11-01T11:23:47Z</time>
      </trkpt>
      <trkpt lat="46.2898" lon="2.86242">
        <ele>460.4</ele>
        <time>2019-11-01T11:23:48Z</time>
      </trkpt>
      <trkpt lat="46.28976" lon="2.8624">
        <ele>460.5</ele>
        <time>2019-11-01T11:23:49Z</time>
      </trkpt>
      <trkpt lat="46.28973" lon="2.86238">
        <ele>460.6</ele>
        <time>2019-11-01T11:23:50Z</time>
      </trkpt>
      <trkpt lat="46.28969" lon="2.86236">
        <ele>460.8</ele>
        <time>2019-11-01T11:23:51Z</time>
      </trkpt>
      <trkpt lat="46.28965" lon="2.86233">
        <ele>460.9</ele>
        <time>2019-11-01T11:23:52Z</time>
      </trkpt>
      <trkpt lat="46.2896" lon="2.86231">
        <ele>461</ele>
        <time>2019-11-01T11:23:53Z</time>
      </trkpt>
      <trkpt lat="46.28955" lon="2.86229">
        <ele>461.1</ele>
        <time>2019-11-01T11:23:54Z</time>
      </trkpt>
      <trkpt lat="46.28952" lon="2.86227">
        <ele>461.2</ele>
        <time>2019-11-01T11:23:55Z</time>
      </trkpt>
      <trkpt lat="46.28948" lon="2.86225">
        <ele>461.3</ele>
        <time>2019-11-01T11:23:56Z</time>
      </trkpt>
      <trkpt lat="46.28943" lon="2.86222">
        <ele>461.4</ele>
        <time>2019-11-01T11:23:57Z</time>
      </trkpt>
      <trkpt lat="46.28939" lon="2.8622">
        <ele>461.4</ele>
        <time>2019-11-01T11:23:58Z</time>
      </trkpt>
      <trkpt lat="46.28935" lon="2.86218">
        <ele>461.5</ele>
        <time>2019-11-01T11:23:59Z</time>
      </trkpt>
      <trkpt lat="46.28932" lon="2.86216">
        <ele>461.5</ele>
        <time>2019-11-01T11:24:00Z</time>
      </trkpt>
      <trkpt lat="46.28927" lon="2.86214">
        <ele>461.6</ele>
        <time>2019-11-01T11:24:01Z</time>
      </trkpt>
      <trkpt lat="46.28924" lon="2.86211">
        <ele>461.6</ele>
        <time>2019-11-01T11:24:02Z</time>
      </trkpt>
      <trkpt lat="46.28922" lon="2.86209">
        <ele>461.7</ele>
        <time>2019-11-01T11:24:03Z</time>
      </trkpt>
      <trkpt lat="46.2892" lon="2.86206">
        <ele>461.7</ele>
        <time>2019-11-01T11:24:04Z</time>
      </trkpt>
      <trkpt lat="46.28919" lon="2.86202">
        <ele>461.2</ele>
        <time>2019-11-01T11:24:05Z</time>
      </trkpt>
      <trkpt lat="46.2892" lon="2.86197">
        <ele>461</ele>
        <time>2019-11-01T11:24:06Z</time>
      </trkpt>
      <trkpt lat="46.28922" lon="2.86192">
        <ele>460.9</ele>
        <time>2019-11-01T11:24:07Z</time>
      </trkpt>
      <trkpt lat="46.28925" lon="2.86188">
        <ele>460.8</ele>
        <time>2019-11-01T11:24:08Z</time>
      </trkpt>
      <trkpt lat="46.28927" lon="2.86185">
        <ele>460.6</ele>
        <time>2019-11-01T11:24:09Z</time>
      </trkpt>
      <trkpt lat="46.28931" lon="2.8618">
        <ele>460.4</ele>
        <time>2019-11-01T11:24:10Z</time>
      </trkpt>
      <trkpt lat="46.28936" lon="2.86174">
        <ele>460.1</ele>
        <time>2019-11-01T11:24:11Z</time>
      </trkpt>
      <trkpt lat="46.2894" lon="2.86169">
        <ele>459.9</ele>
        <time>2019-11-01T11:24:12Z</time>
      </trkpt>
      <trkpt lat="46.28944" lon="2.86164">
        <ele>459.7</ele>
        <time>2019-11-01T11:24:13Z</time>
      </trkpt>
      <trkpt lat="46.28948" lon="2.86159">
        <ele>459.6</ele>
        <time>2019-11-01T11:24:14Z</time>
      </trkpt>
      <trkpt lat="46.28953" lon="2.86154">
        <ele>459.4</ele>
        <time>2019-11-01T11:24:15Z</time>
      </trkpt>
      <trkpt lat="46.28958" lon="2.86147">
        <ele>459.1</ele>
        <time>2019-11-01T11:24:16Z</time>
      </trkpt>
      <trkpt lat="46.28963" lon="2.86141">
        <ele>458.8</ele>
        <time>2019-11-01T11:24:17Z</time>
      </trkpt>
      <trkpt lat="46.28966" lon="2.86136">
        <ele>458.6</ele>
        <time>2019-11-01T11:24:18Z</time>
      </trkpt>
      <trkpt lat="46.2897" lon="2.86129">
        <ele>458.3</ele>
        <time>2019-11-01T11:24:19Z</time>
      </trkpt>
      <trkpt lat="46.28975" lon="2.86121">
        <ele>458</ele>
        <time>2019-11-01T11:24:20Z</time>
      </trkpt>
      <trkpt lat="46.28979" lon="2.86113">
        <ele>457.8</ele>
        <time>2019-11-01T11:24:21Z</time>
      </trkpt>
      <trkpt lat="46.28983" lon="2.86105">
        <ele>457.5</ele>
        <time>2019-11-01T11:24:22Z</time>
      </trkpt>
      <trkpt lat="46.28987" lon="2.86097">
        <ele>457.2</ele>
        <time>2019-11-01T11:24:23Z</time>
      </trkpt>
      <trkpt lat="46.2899" lon="2.86088">
        <ele>456.9</ele>
        <time>2019-11-01T11:24:24Z</time>
      </trkpt>
      <trkpt lat="46.28994" lon="2.86079">
        <ele>456.7</ele>
        <time>2019-11-01T11:24:25Z</time>
      </trkpt>
      <trkpt lat="46.28997" lon="2.8607">
        <ele>456.5</ele>
        <time>2019-11-01T11:24:26Z</time>
      </trkpt>
      <trkpt lat="46.29001" lon="2.86062">
        <ele>456.3</ele>
        <time>2019-11-01T11:24:27Z</time>
      </trkpt>
      <trkpt lat="46.29004" lon="2.86053">
        <ele>456.1</ele>
        <time>2019-11-01T11:24:28Z</time>
      </trkpt>
      <trkpt lat="46.29008" lon="2.86045">
        <ele>456</ele>
        <time>2019-11-01T11:24:29Z</time>
      </trkpt>
      <trkpt lat="46.29011" lon="2.86036">
        <ele>455.9</ele>
        <time>2019-11-01T11:24:30Z</time>
      </trkpt>
      <trkpt lat="46.29015" lon="2.86028">
        <ele>455.9</ele>
        <time>2019-11-01T11:24:31Z</time>
      </trkpt>
      <trkpt lat="46.29018" lon="2.8602">
        <ele>455.8</ele>
        <time>2019-11-01T11:24:32Z</time>
      </trkpt>
      <trkpt lat="46.29022" lon="2.86012">
        <ele>455.8</ele>
        <time>2019-11-01T11:24:33Z</time>
      </trkpt>
      <trkpt lat="46.29025" lon="2.86003">
        <ele>455.7</ele>
        <time>2019-11-01T11:24:34Z</time>
      </trkpt>
      <trkpt lat="46.29028" lon="2.85995">
        <ele>455.6</ele>
        <time>2019-11-01T11:24:35Z</time>
      </trkpt>
      <trkpt lat="46.29032" lon="2.85987">
        <ele>455.6</ele>
        <time>2019-11-01T11:24:36Z</time>
      </trkpt>
      <trkpt lat="46.29035" lon="2.85979">
        <ele>455.4</ele>
        <time>2019-11-01T11:24:37Z</time>
      </trkpt>
      <trkpt lat="46.29038" lon="2.85971">
        <ele>455.3</ele>
        <time>2019-11-01T11:24:38Z</time>
      </trkpt>
      <trkpt lat="46.29042" lon="2.85963">
        <ele>455.1</ele>
        <time>2019-11-01T11:24:39Z</time>
      </trkpt>
      <trkpt lat="46.29045" lon="2.85955">
        <ele>454.9</ele>
        <time>2019-11-01T11:24:40Z</time>
      </trkpt>
      <trkpt lat="46.29048" lon="2.85948">
        <ele>454.6</ele>
        <time>2019-11-01T11:24:41Z</time>
      </trkpt>
      <trkpt lat="46.29051" lon="2.85939">
        <ele>454.4</ele>
        <time>2019-11-01T11:24:42Z</time>
      </trkpt>
      <trkpt lat="46.29054" lon="2.85931">
        <ele>454.3</ele>
        <time>2019-11-01T11:24:43Z</time>
      </trkpt>
      <trkpt lat="46.29058" lon="2.85924">
        <ele>454.1</ele>
        <time>2019-11-01T11:24:44Z</time>
      </trkpt>
      <trkpt lat="46.29061" lon="2.85916">
        <ele>453.9</ele>
        <time>2019-11-01T11:24:45Z</time>
      </trkpt>
      <trkpt lat="46.29064" lon="2.85908">
        <ele>453.8</ele>
        <time>2019-11-01T11:24:46Z</time>
      </trkpt>
      <trkpt lat="46.29068" lon="2.85901">
        <ele>453.7</ele>
        <time>2019-11-01T11:24:47Z</time>
      </trkpt>
      <trkpt lat="46.29071" lon="2.85894">
        <ele>453.7</ele>
        <time>2019-11-01T11:24:48Z</time>
      </trkpt>
      <trkpt lat="46.29074" lon="2.85887">
        <ele>453.6</ele>
        <time>2019-11-01T11:24:49Z</time>
      </trkpt>
      <trkpt lat="46.29077" lon="2.8588">
        <ele>453.6</ele>
        <time>2019-11-01T11:24:50Z</time>
      </trkpt>
      <trkpt lat="46.29078" lon="2.85874">
        <ele>453.6</ele>
        <time>2019-11-01T11:24:51Z</time>
      </trkpt>
      <trkpt lat="46.29077" lon="2.85868">
        <ele>453.7</ele>
        <time>2019-11-01T11:24:52Z</time>
      </trkpt>
      <trkpt lat="46.29075" lon="2.85864">
        <ele>453.8</ele>
        <time>2019-11-01T11:24:53Z</time>
      </trkpt>
      <trkpt lat="46.29072" lon="2.8586">
        <ele>453.8</ele>
        <time>2019-11-01T11:24:54Z</time>
      </trkpt>
      <trkpt lat="46.29068" lon="2.85858">
        <ele>453.9</ele>
        <time>2019-11-01T11:24:55Z</time>
      </trkpt>
      <trkpt lat="46.29064" lon="2.85856">
        <ele>453.9</ele>
        <time>2019-11-01T11:24:56Z</time>
      </trkpt>
      <trkpt lat="46.29059" lon="2.85854">
        <ele>453.9</ele>
        <time>2019-11-01T11:24:57Z</time>
      </trkpt>
      <trkpt lat="46.29055" lon="2.85852">
        <ele>454</ele>
        <time>2019-11-01T11:24:58Z</time>
      </trkpt>
      <trkpt lat="46.29051" lon="2.85849">
        <ele>454</ele>
        <time>2019-11-01T11:24:59Z</time>
      </trkpt>
      <trkpt lat="46.29047" lon="2.85844">
        <ele>454</ele>
        <time>2019-11-01T11:25:00Z</time>
      </trkpt>
      <trkpt lat="46.29045" lon="2.85839">
        <ele>454</ele>
        <time>2019-11-01T11:25:01Z</time>
      </trkpt>
      <trkpt lat="46.29043" lon="2.85833">
        <ele>454</ele>
        <time>2019-11-01T11:25:02Z</time>
      </trkpt>
      <trkpt lat="46.29043" lon="2.85827">
        <ele>453.9</ele>
        <time>2019-11-01T11:25:03Z</time>
      </trkpt>
      <trkpt lat="46.29043" lon="2.8582">
        <ele>453.8</ele>
        <time>2019-11-01T11:25:04Z</time>
      </trkpt>
      <trkpt lat="46.29043" lon="2.85813">
        <ele>453.6</ele>
        <time>2019-11-01T11:25:05Z</time>
      </trkpt>
      <trkpt lat="46.29044" lon="2.85806">
        <ele>453.4</ele>
        <time>2019-11-01T11:25:06Z</time>
      </trkpt>
      <trkpt lat="46.29044" lon="2.85799">
        <ele>453.2</ele>
        <time>2019-11-01T11:25:07Z</time>
      </trkpt>
      <trkpt lat="46.29044" lon="2.85792">
        <ele>453</ele>
        <time>2019-11-01T11:25:08Z</time>
      </trkpt>
      <trkpt lat="46.29044" lon="2.85786">
        <ele>452.8</ele>
        <time>2019-11-01T11:25:09Z</time>
      </trkpt>
      <trkpt lat="46.29045" lon="2.85779">
        <ele>452.6</ele>
        <time>2019-11-01T11:25:10Z</time>
      </trkpt>
      <trkpt lat="46.29045" lon="2.85773">
        <ele>452.4</ele>
        <time>2019-11-01T11:25:11Z</time>
      </trkpt>
      <trkpt lat="46.29045" lon="2.85767">
        <ele>452.3</ele>
        <time>2019-11-01T11:25:12Z</time>
      </trkpt>
      <trkpt lat="46.29045" lon="2.85761">
        <ele>452.1</ele>
        <time>2019-11-01T11:25:13Z</time>
      </trkpt>
      <trkpt lat="46.29046" lon="2.85754">
        <ele>451.9</ele>
        <time>2019-11-01T11:25:14Z</time>
      </trkpt>
      <trkpt lat="46.29047" lon="2.85748">
        <ele>451.7</ele>
        <time>2019-11-01T11:25:15Z</time>
      </trkpt>
      <trkpt lat="46.29047" lon="2.85741">
        <ele>451.6</ele>
        <time>2019-11-01T11:25:16Z</time>
      </trkpt>
      <trkpt lat="46.29049" lon="2.85734">
        <ele>451.5</ele>
        <time>2019-11-01T11:25:17Z</time>
      </trkpt>
      <trkpt lat="46.2905" lon="2.85726">
        <ele>451.1</ele>
        <time>2019-11-01T11:25:18Z</time>
      </trkpt>
      <trkpt lat="46.29052" lon="2.85718">
        <ele>450.9</ele>
        <time>2019-11-01T11:25:19Z</time>
      </trkpt>
      <trkpt lat="46.29053" lon="2.85711">
        <ele>450.8</ele>
        <time>2019-11-01T11:25:20Z</time>
      </trkpt>
      <trkpt lat="46.29055" lon="2.85702">
        <ele>450.5</ele>
        <time>2019-11-01T11:25:21Z</time>
      </trkpt>
      <trkpt lat="46.29055" lon="2.85694">
        <ele>450.4</ele>
        <time>2019-11-01T11:25:22Z</time>
      </trkpt>
      <trkpt lat="46.29054" lon="2.85685">
        <ele>450.2</ele>
        <time>2019-11-01T11:25:23Z</time>
      </trkpt>
      <trkpt lat="46.29052" lon="2.85677">
        <ele>449.9</ele>
        <time>2019-11-01T11:25:24Z</time>
      </trkpt>
      <trkpt lat="46.2905" lon="2.85669">
        <ele>449.6</ele>
        <time>2019-11-01T11:25:25Z</time>
      </trkpt>
      <trkpt lat="46.29048" lon="2.85662">
        <ele>449.4</ele>
        <time>2019-11-01T11:25:26Z</time>
      </trkpt>
      <trkpt lat="46.29045" lon="2.85656">
        <ele>449.2</ele>
        <time>2019-11-01T11:25:27Z</time>
      </trkpt>
      <trkpt lat="46.29042" lon="2.85652">
        <ele>449.1</ele>
        <time>2019-11-01T11:25:28Z</time>
      </trkpt>
      <trkpt lat="46.29039" lon="2.85649">
        <ele>448.9</ele>
        <time>2019-11-01T11:25:29Z</time>
      </trkpt>
      <trkpt lat="46.29037" lon="2.85648">
        <ele>448.8</ele>
        <time>2019-11-01T11:25:30Z</time>
      </trkpt>
      <trkpt lat="46.29036" lon="2.85647">
        <ele>448.7</ele>
        <time>2019-11-01T11:25:31Z</time>
      </trkpt>
      <trkpt lat="46.29034" lon="2.85647">
        <ele>448.6</ele>
        <time>2019-11-01T11:25:32Z</time>
      </trkpt>
      <trkpt lat="46.29033" lon="2.85647">
        <ele>448.5</ele>
        <time>2019-11-01T11:25:33Z</time>
      </trkpt>
      <trkpt lat="46.29031" lon="2.85648">
        <ele>448.4</ele>
        <time>2019-11-01T11:25:34Z</time>
      </trkpt>
      <trkpt lat="46.29029" lon="2.85649">
        <ele>448.3</ele>
        <time>2019-11-01T11:25:35Z</time>
      </trkpt>
      <trkpt lat="46.29027" lon="2.85651">
        <ele>448.2</ele>
        <time>2019-11-01T11:25:36Z</time>
      </trkpt>
      <trkpt lat="46.29025" lon="2.85652">
        <ele>448.1</ele>
        <time>2019-11-01T11:25:37Z</time>
      </trkpt>
      <trkpt lat="46.29023" lon="2.85655">
        <ele>448</ele>
        <time>2019-11-01T11:25:38Z</time>
      </trkpt>
      <trkpt lat="46.29021" lon="2.85657">
        <ele>447.8</ele>
        <time>2019-11-01T11:25:39Z</time>
      </trkpt>
      <trkpt lat="46.29019" lon="2.85659">
        <ele>447.7</ele>
        <time>2019-11-01T11:25:40Z</time>
      </trkpt>
      <trkpt lat="46.29016" lon="2.85662">
        <ele>447.7</ele>
        <time>2019-11-01T11:25:41Z</time>
      </trkpt>
      <trkpt lat="46.29014" lon="2.85665">
        <ele>447.7</ele>
        <time>2019-11-01T11:25:42Z</time>
      </trkpt>
      <trkpt lat="46.29011" lon="2.85668">
        <ele>447.6</ele>
        <time>2019-11-01T11:25:43Z</time>
      </trkpt>
      <trkpt lat="46.29008" lon="2.85671">
        <ele>447.5</ele>
        <time>2019-11-01T11:25:44Z</time>
      </trkpt>
      <trkpt lat="46.29005" lon="2.85674">
        <ele>447.4</ele>
        <time>2019-11-01T11:25:45Z</time>
      </trkpt>
      <trkpt lat="46.29003" lon="2.85677">
        <ele>447.3</ele>
        <time>2019-11-01T11:25:46Z</time>
      </trkpt>
      <trkpt lat="46.29" lon="2.8568">
        <ele>447.3</ele>
        <time>2019-11-01T11:25:47Z</time>
      </trkpt>
      <trkpt lat="46.28997" lon="2.85683">
        <ele>447.1</ele>
        <time>2019-11-01T11:25:48Z</time>
      </trkpt>
      <trkpt lat="46.28993" lon="2.85687">
        <ele>446.9</ele>
        <time>2019-11-01T11:25:49Z</time>
      </trkpt>
      <trkpt lat="46.2899" lon="2.8569">
        <ele>446.9</ele>
        <time>2019-11-01T11:25:50Z</time>
      </trkpt>
      <trkpt lat="46.28986" lon="2.85694">
        <ele>446.8</ele>
        <time>2019-11-01T11:25:51Z</time>
      </trkpt>
      <trkpt lat="46.28982" lon="2.85699">
        <ele>446.8</ele>
        <time>2019-11-01T11:25:52Z</time>
      </trkpt>
      <trkpt lat="46.28978" lon="2.85703">
        <ele>446.7</ele>
        <time>2019-11-01T11:25:53Z</time>
      </trkpt>
      <trkpt lat="46.28975" lon="2.85706">
        <ele>446.7</ele>
        <time>2019-11-01T11:25:54Z</time>
      </trkpt>
      <trkpt lat="46.28971" lon="2.85709">
        <ele>446.7</ele>
        <time>2019-11-01T11:25:55Z</time>
      </trkpt>
      <trkpt lat="46.28967" lon="2.85713">
        <ele>446.7</ele>
        <time>2019-11-01T11:25:56Z</time>
      </trkpt>
      <trkpt lat="46.28963" lon="2.85716">
        <ele>446.7</ele>
        <time>2019-11-01T11:25:57Z</time>
      </trkpt>
      <trkpt lat="46.28959" lon="2.85719">
        <ele>446.6</ele>
        <time>2019-11-01T11:25:58Z</time>
      </trkpt>
      <trkpt lat="46.28955" lon="2.85722">
        <ele>446.7</ele>
        <time>2019-11-01T11:25:59Z</time>
      </trkpt>
      <trkpt lat="46.28949" lon="2.85726">
        <ele>446.7</ele>
        <time>2019-11-01T11:26:00Z</time>
      </trkpt>
      <trkpt lat="46.28945" lon="2.85728">
        <ele>446.8</ele>
        <time>2019-11-01T11:26:01Z</time>
      </trkpt>
      <trkpt lat="46.28939" lon="2.85731">
        <ele>447</ele>
        <time>2019-11-01T11:26:02Z</time>
      </trkpt>
      <trkpt lat="46.28934" lon="2.85733">
        <ele>447</ele>
        <time>2019-11-01T11:26:03Z</time>
      </trkpt>
      <trkpt lat="46.28929" lon="2.85735">
        <ele>447</ele>
        <time>2019-11-01T11:26:04Z</time>
      </trkpt>
      <trkpt lat="46.28924" lon="2.85736">
        <ele>447.1</ele>
        <time>2019-11-01T11:26:05Z</time>
      </trkpt>
      <trkpt lat="46.28919" lon="2.85738">
        <ele>447.2</ele>
        <time>2019-11-01T11:26:06Z</time>
      </trkpt>
      <trkpt lat="46.28912" lon="2.8574">
        <ele>447.4</ele>
        <time>2019-11-01T11:26:07Z</time>
      </trkpt>
      <trkpt lat="46.28907" lon="2.85741">
        <ele>447.5</ele>
        <time>2019-11-01T11:26:08Z</time>
      </trkpt>
      <trkpt lat="46.28902" lon="2.85742">
        <ele>447.5</ele>
        <time>2019-11-01T11:26:09Z</time>
      </trkpt>
      <trkpt lat="46.28897" lon="2.85742">
        <ele>447.5</ele>
        <time>2019-11-01T11:26:10Z</time>
      </trkpt>
      <trkpt lat="46.28891" lon="2.85741">
        <ele>447.3</ele>
        <time>2019-11-01T11:26:11Z</time>
      </trkpt>
      <trkpt lat="46.28886" lon="2.85738">
        <ele>447.2</ele>
        <time>2019-11-01T11:26:12Z</time>
      </trkpt>
      <trkpt lat="46.28881" lon="2.85734">
        <ele>447.1</ele>
        <time>2019-11-01T11:26:13Z</time>
      </trkpt>
      <trkpt lat="46.28877" lon="2.85731">
        <ele>447</ele>
        <time>2019-11-01T11:26:14Z</time>
      </trkpt>
      <trkpt lat="46.28872" lon="2.85727">
        <ele>446.9</ele>
        <time>2019-11-01T11:26:15Z</time>
      </trkpt>
      <trkpt lat="46.28867" lon="2.85721">
        <ele>446.9</ele>
        <time>2019-11-01T11:26:16Z</time>
      </trkpt>
      <trkpt lat="46.28862" lon="2.85717">
        <ele>446.9</ele>
        <time>2019-11-01T11:26:17Z</time>
      </trkpt>
      <trkpt lat="46.28858" lon="2.85713">
        <ele>446.9</ele>
        <time>2019-11-01T11:26:18Z</time>
      </trkpt>
      <trkpt lat="46.28854" lon="2.85709">
        <ele>447</ele>
        <time>2019-11-01T11:26:19Z</time>
      </trkpt>
      <trkpt lat="46.28849" lon="2.85705">
        <ele>447.2</ele>
        <time>2019-11-01T11:26:20Z</time>
      </trkpt>
      <trkpt lat="46.28843" lon="2.85701">
        <ele>447.4</ele>
        <time>2019-11-01T11:26:21Z</time>
      </trkpt>
      <trkpt lat="46.28837" lon="2.85698">
        <ele>447.5</ele>
        <time>2019-11-01T11:26:22Z</time>
      </trkpt>
      <trkpt lat="46.28833" lon="2.85695">
        <ele>447.7</ele>
        <time>2019-11-01T11:26:23Z</time>
      </trkpt>
      <trkpt lat="46.28829" lon="2.85692">
        <ele>447.8</ele>
        <time>2019-11-01T11:26:24Z</time>
      </trkpt>
      <trkpt lat="46.28824" lon="2.85689">
        <ele>448.1</ele>
        <time>2019-11-01T11:26:25Z</time>
      </trkpt>
      <trkpt lat="46.2882" lon="2.85686">
        <ele>448.2</ele>
        <time>2019-11-01T11:26:26Z</time>
      </trkpt>
      <trkpt lat="46.28816" lon="2.85683">
        <ele>448.3</ele>
        <time>2019-11-01T11:26:27Z</time>
      </trkpt>
      <trkpt lat="46.28814" lon="2.85681">
        <ele>448.4</ele>
        <time>2019-11-01T11:26:28Z</time>
      </trkpt>
      <trkpt lat="46.2881" lon="2.85677">
        <ele>448.6</ele>
        <time>2019-11-01T11:26:29Z</time>
      </trkpt>
      <trkpt lat="46.28807" lon="2.85672">
        <ele>448.8</ele>
        <time>2019-11-01T11:26:30Z</time>
      </trkpt>
      <trkpt lat="46.28804" lon="2.85667">
        <ele>449</ele>
        <time>2019-11-01T11:26:31Z</time>
      </trkpt>
      <trkpt lat="46.28801" lon="2.85661">
        <ele>449.1</ele>
        <time>2019-11-01T11:26:32Z</time>
      </trkpt>
      <trkpt lat="46.28799" lon="2.85655">
        <ele>449.3</ele>
        <time>2019-11-01T11:26:33Z</time>
      </trkpt>
      <trkpt lat="46.28797" lon="2.85649">
        <ele>449.4</ele>
        <time>2019-11-01T11:26:34Z</time>
      </trkpt>
      <trkpt lat="46.28795" lon="2.85642">
        <ele>449.5</ele>
        <time>2019-11-01T11:26:35Z</time>
      </trkpt>
      <trkpt lat="46.28792" lon="2.85634">
        <ele>449.5</ele>
        <time>2019-11-01T11:26:36Z</time>
      </trkpt>
      <trkpt lat="46.28791" lon="2.85628">
        <ele>449.6</ele>
        <time>2019-11-01T11:26:37Z</time>
      </trkpt>
      <trkpt lat="46.28789" lon="2.85621">
        <ele>449.8</ele>
        <time>2019-11-01T11:26:38Z</time>
      </trkpt>
      <trkpt lat="46.28787" lon="2.85613">
        <ele>450.1</ele>
        <time>2019-11-01T11:26:39Z</time>
      </trkpt>
      <trkpt lat="46.28785" lon="2.85608">
        <ele>450.4</ele>
        <time>2019-11-01T11:26:40Z</time>
      </trkpt>
      <trkpt lat="46.28784" lon="2.85603">
        <ele>450.7</ele>
        <time>2019-11-01T11:26:41Z</time>
      </trkpt>
      <trkpt lat="46.28782" lon="2.85597">
        <ele>451</ele>
        <time>2019-11-01T11:26:42Z</time>
      </trkpt>
      <trkpt lat="46.2878" lon="2.85591">
        <ele>451.4</ele>
        <time>2019-11-01T11:26:43Z</time>
      </trkpt>
      <trkpt lat="46.28778" lon="2.85585">
        <ele>451.8</ele>
        <time>2019-11-01T11:26:44Z</time>
      </trkpt>
      <trkpt lat="46.28775" lon="2.85579">
        <ele>452.3</ele>
        <time>2019-11-01T11:26:45Z</time>
      </trkpt>
      <trkpt lat="46.28773" lon="2.85575">
        <ele>452.6</ele>
        <time>2019-11-01T11:26:46Z</time>
      </trkpt>
      <trkpt lat="46.28771" lon="2.85571">
        <ele>453</ele>
        <time>2019-11-01T11:26:47Z</time>
      </trkpt>
      <trkpt lat="46.28768" lon="2.85566">
        <ele>453.4</ele>
        <time>2019-11-01T11:26:48Z</time>
      </trkpt>
      <trkpt lat="46.28766" lon="2.85562">
        <ele>453.8</ele>
        <time>2019-11-01T11:26:49Z</time>
      </trkpt>
      <trkpt lat="46.28764" lon="2.85558">
        <ele>454.2</ele>
        <time>2019-11-01T11:26:50Z</time>
      </trkpt>
      <trkpt lat="46.28761" lon="2.85554">
        <ele>454.6</ele>
        <time>2019-11-01T11:26:51Z</time>
      </trkpt>
      <trkpt lat="46.28758" lon="2.8555">
        <ele>455.1</ele>
        <time>2019-11-01T11:26:52Z</time>
      </trkpt>
      <trkpt lat="46.28756" lon="2.85546">
        <ele>455.5</ele>
        <time>2019-11-01T11:26:53Z</time>
      </trkpt>
      <trkpt lat="46.28753" lon="2.85542">
        <ele>455.9</ele>
        <time>2019-11-01T11:26:54Z</time>
      </trkpt>
      <trkpt lat="46.28751" lon="2.85538">
        <ele>456.3</ele>
        <time>2019-11-01T11:26:55Z</time>
      </trkpt>
      <trkpt lat="46.28748" lon="2.85534">
        <ele>456.6</ele>
        <time>2019-11-01T11:26:56Z</time>
      </trkpt>
      <trkpt lat="46.28746" lon="2.85532">
        <ele>456.7</ele>
        <time>2019-11-01T11:26:57Z</time>
      </trkpt>
      <trkpt lat="46.28743" lon="2.85528">
        <ele>456.9</ele>
        <time>2019-11-01T11:26:58Z</time>
      </trkpt>
      <trkpt lat="46.28741" lon="2.85525">
        <ele>457</ele>
        <time>2019-11-01T11:26:59Z</time>
      </trkpt>
      <trkpt lat="46.28738" lon="2.85523">
        <ele>457.1</ele>
        <time>2019-11-01T11:27:00Z</time>
      </trkpt>
      <trkpt lat="46.28735" lon="2.8552">
        <ele>457.2</ele>
        <time>2019-11-01T11:27:01Z</time>
      </trkpt>
      <trkpt lat="46.28732" lon="2.85518">
        <ele>457.2</ele>
        <time>2019-11-01T11:27:02Z</time>
      </trkpt>
      <trkpt lat="46.2873" lon="2.85516">
        <ele>457.3</ele>
        <time>2019-11-01T11:27:03Z</time>
      </trkpt>
      <trkpt lat="46.28727" lon="2.85514">
        <ele>457.4</ele>
        <time>2019-11-01T11:27:04Z</time>
      </trkpt>
      <trkpt lat="46.28724" lon="2.85513">
        <ele>457.5</ele>
        <time>2019-11-01T11:27:05Z</time>
      </trkpt>
      <trkpt lat="46.28721" lon="2.85512">
        <ele>457.7</ele>
        <time>2019-11-01T11:27:06Z</time>
      </trkpt>
      <trkpt lat="46.28719" lon="2.85511">
        <ele>457.9</ele>
        <time>2019-11-01T11:27:07Z</time>
      </trkpt>
      <trkpt lat="46.28716" lon="2.8551">
        <ele>458.1</ele>
        <time>2019-11-01T11:27:08Z</time>
      </trkpt>
      <trkpt lat="46.28713" lon="2.8551">
        <ele>458.2</ele>
        <time>2019-11-01T11:27:09Z</time>
      </trkpt>
      <trkpt lat="46.2871" lon="2.85509">
        <ele>458.4</ele>
        <time>2019-11-01T11:27:10Z</time>
      </trkpt>
      <trkpt lat="46.28707" lon="2.85508">
        <ele>458.5</ele>
        <time>2019-11-01T11:27:11Z</time>
      </trkpt>
      <trkpt lat="46.28705" lon="2.85508">
        <ele>458.6</ele>
        <time>2019-11-01T11:27:12Z</time>
      </trkpt>
      <trkpt lat="46.28702" lon="2.85508">
        <ele>458.6</ele>
        <time>2019-11-01T11:27:13Z</time>
      </trkpt>
      <trkpt lat="46.28699" lon="2.85507">
        <ele>458.8</ele>
        <time>2019-11-01T11:27:14Z</time>
      </trkpt>
      <trkpt lat="46.28696" lon="2.85506">
        <ele>459</ele>
        <time>2019-11-01T11:27:15Z</time>
      </trkpt>
      <trkpt lat="46.28694" lon="2.85506">
        <ele>459.2</ele>
        <time>2019-11-01T11:27:16Z</time>
      </trkpt>
      <trkpt lat="46.28691" lon="2.85505">
        <ele>459.4</ele>
        <time>2019-11-01T11:27:17Z</time>
      </trkpt>
      <trkpt lat="46.28687" lon="2.85505">
        <ele>459.7</ele>
        <time>2019-11-01T11:27:18Z</time>
      </trkpt>
      <trkpt lat="46.28684" lon="2.85504">
        <ele>459.9</ele>
        <time>2019-11-01T11:27:19Z</time>
      </trkpt>
      <trkpt lat="46.28682" lon="2.85504">
        <ele>460.2</ele>
        <time>2019-11-01T11:27:20Z</time>
      </trkpt>
      <trkpt lat="46.28679" lon="2.85504">
        <ele>460.4</ele>
        <time>2019-11-01T11:27:21Z</time>
      </trkpt>
      <trkpt lat="46.28676" lon="2.85503">
        <ele>460.7</ele>
        <time>2019-11-01T11:27:22Z</time>
      </trkpt>
      <trkpt lat="46.28672" lon="2.85502">
        <ele>461.1</ele>
        <time>2019-11-01T11:27:23Z</time>
      </trkpt>
      <trkpt lat="46.2867" lon="2.85501">
        <ele>461.4</ele>
        <time>2019-11-01T11:27:24Z</time>
      </trkpt>
      <trkpt lat="46.28667" lon="2.85501">
        <ele>461.8</ele>
        <time>2019-11-01T11:27:25Z</time>
      </trkpt>
      <trkpt lat="46.28665" lon="2.855">
        <ele>462.1</ele>
        <time>2019-11-01T11:27:26Z</time>
      </trkpt>
      <trkpt lat="46.28662" lon="2.85499">
        <ele>462.4</ele>
        <time>2019-11-01T11:27:27Z</time>
      </trkpt>
      <trkpt lat="46.28659" lon="2.85498">
        <ele>462.7</ele>
        <time>2019-11-01T11:27:28Z</time>
      </trkpt>
      <trkpt lat="46.28656" lon="2.85497">
        <ele>463</ele>
        <time>2019-11-01T11:27:29Z</time>
      </trkpt>
      <trkpt lat="46.28654" lon="2.85497">
        <ele>463.2</ele>
        <time>2019-11-01T11:27:30Z</time>
      </trkpt>
      <trkpt lat="46.28651" lon="2.85496">
        <ele>463.5</ele>
        <time>2019-11-01T11:27:31Z</time>
      </trkpt>
      <trkpt lat="46.28649" lon="2.85495">
        <ele>463.8</ele>
        <time>2019-11-01T11:27:32Z</time>
      </trkpt>
      <trkpt lat="46.28646" lon="2.85494">
        <ele>463.9</ele>
        <time>2019-11-01T11:27:33Z</time>
      </trkpt>
      <trkpt lat="46.28643" lon="2.85494">
        <ele>464.1</ele>
        <time>2019-11-01T11:27:34Z</time>
      </trkpt>
      <trkpt lat="46.28639" lon="2.85493">
        <ele>464.3</ele>
        <time>2019-11-01T11:27:35Z</time>
      </trkpt>
      <trkpt lat="46.28636" lon="2.85492">
        <ele>464.5</ele>
        <time>2019-11-01T11:27:36Z</time>
      </trkpt>
      <trkpt lat="46.28633" lon="2.85492">
        <ele>464.7</ele>
        <time>2019-11-01T11:27:37Z</time>
      </trkpt>
      <trkpt lat="46.2863" lon="2.85491">
        <ele>464.9</ele>
        <time>2019-11-01T11:27:38Z</time>
      </trkpt>
      <trkpt lat="46.28627" lon="2.8549">
        <ele>465.1</ele>
        <time>2019-11-01T11:27:39Z</time>
      </trkpt>
      <trkpt lat="46.28624" lon="2.8549">
        <ele>465.3</ele>
        <time>2019-11-01T11:27:40Z</time>
      </trkpt>
      <trkpt lat="46.28622" lon="2.85489">
        <ele>465.5</ele>
        <time>2019-11-01T11:27:41Z</time>
      </trkpt>
      <trkpt lat="46.28619" lon="2.85488">
        <ele>465.8</ele>
        <time>2019-11-01T11:27:42Z</time>
      </trkpt>
      <trkpt lat="46.28616" lon="2.85488">
        <ele>466.1</ele>
        <time>2019-11-01T11:27:43Z</time>
      </trkpt>
      <trkpt lat="46.28614" lon="2.85487">
        <ele>466.3</ele>
        <time>2019-11-01T11:27:44Z</time>
      </trkpt>
      <trkpt lat="46.28611" lon="2.85487">
        <ele>466.5</ele>
        <time>2019-11-01T11:27:45Z</time>
      </trkpt>
      <trkpt lat="46.28609" lon="2.85486">
        <ele>466.8</ele>
        <time>2019-11-01T11:27:46Z</time>
      </trkpt>
      <trkpt lat="46.28606" lon="2.85486">
        <ele>467</ele>
        <time>2019-11-01T11:27:47Z</time>
      </trkpt>
      <trkpt lat="46.28604" lon="2.85485">
        <ele>467.1</ele>
        <time>2019-11-01T11:27:48Z</time>
      </trkpt>
      <trkpt lat="46.28602" lon="2.85485">
        <ele>467.3</ele>
        <time>2019-11-01T11:27:49Z</time>
      </trkpt>
      <trkpt lat="46.286" lon="2.85484">
        <ele>467.4</ele>
        <time>2019-11-01T11:27:50Z</time>
      </trkpt>
      <trkpt lat="46.28597" lon="2.85483">
        <ele>467.5</ele>
        <time>2019-11-01T11:27:51Z</time>
      </trkpt>
      <trkpt lat="46.28595" lon="2.85483">
        <ele>467.7</ele>
        <time>2019-11-01T11:27:52Z</time>
      </trkpt>
      <trkpt lat="46.28593" lon="2.85482">
        <ele>467.8</ele>
        <time>2019-11-01T11:27:53Z</time>
      </trkpt>
      <trkpt lat="46.2859" lon="2.85482">
        <ele>468</ele>
        <time>2019-11-01T11:27:54Z</time>
      </trkpt>
      <trkpt lat="46.28589" lon="2.85481">
        <ele>468</ele>
        <time>2019-11-01T11:27:55Z</time>
      </trkpt>
      <trkpt lat="46.28587" lon="2.8548">
        <ele>468.2</ele>
        <time>2019-11-01T11:27:56Z</time>
      </trkpt>
      <trkpt lat="46.28584" lon="2.85479">
        <ele>468.4</ele>
        <time>2019-11-01T11:27:57Z</time>
      </trkpt>
      <trkpt lat="46.28582" lon="2.85479">
        <ele>468.6</ele>
        <time>2019-11-01T11:27:58Z</time>
      </trkpt>
      <trkpt lat="46.2858" lon="2.85478">
        <ele>468.8</ele>
        <time>2019-11-01T11:27:59Z</time>
      </trkpt>
      <trkpt lat="46.28578" lon="2.85478">
        <ele>469</ele>
        <time>2019-11-01T11:28:00Z</time>
      </trkpt>
      <trkpt lat="46.28576" lon="2.85476">
        <ele>469.1</ele>
        <time>2019-11-01T11:28:01Z</time>
      </trkpt>
      <trkpt lat="46.28574" lon="2.85475">
        <ele>469.3</ele>
        <time>2019-11-01T11:28:02Z</time>
      </trkpt>
      <trkpt lat="46.28572" lon="2.85474">
        <ele>469.4</ele>
        <time>2019-11-01T11:28:03Z</time>
      </trkpt>
      <trkpt lat="46.2857" lon="2.85473">
        <ele>469.6</ele>
        <time>2019-11-01T11:28:04Z</time>
      </trkpt>
      <trkpt lat="46.28568" lon="2.85473">
        <ele>469.8</ele>
        <time>2019-11-01T11:28:05Z</time>
      </trkpt>
      <trkpt lat="46.28566" lon="2.85473">
        <ele>470</ele>
        <time>2019-11-01T11:28:06Z</time>
      </trkpt>
      <trkpt lat="46.28564" lon="2.85473">
        <ele>470.3</ele>
        <time>2019-11-01T11:28:07Z</time>
      </trkpt>
      <trkpt lat="46.28562" lon="2.85472">
        <ele>470.5</ele>
        <time>2019-11-01T11:28:08Z</time>
      </trkpt>
      <trkpt lat="46.28559" lon="2.85472">
        <ele>470.8</ele>
        <time>2019-11-01T11:28:09Z</time>
      </trkpt>
      <trkpt lat="46.28557" lon="2.85472">
        <ele>471</ele>
        <time>2019-11-01T11:28:10Z</time>
      </trkpt>
      <trkpt lat="46.28554" lon="2.85472">
        <ele>471.2</ele>
        <time>2019-11-01T11:28:11Z</time>
      </trkpt>
      <trkpt lat="46.28552" lon="2.85471">
        <ele>471.5</ele>
        <time>2019-11-01T11:28:12Z</time>
      </trkpt>
      <trkpt lat="46.2855" lon="2.85471">
        <ele>471.7</ele>
        <time>2019-11-01T11:28:13Z</time>
      </trkpt>
      <trkpt lat="46.28547" lon="2.8547">
        <ele>472</ele>
        <time>2019-11-01T11:28:14Z</time>
      </trkpt>
      <trkpt lat="46.28545" lon="2.85469">
        <ele>472.2</ele>
        <time>2019-11-01T11:28:15Z</time>
      </trkpt>
      <trkpt lat="46.28542" lon="2.85469">
        <ele>472.4</ele>
        <time>2019-11-01T11:28:16Z</time>
      </trkpt>
      <trkpt lat="46.2854" lon="2.85469">
        <ele>472.6</ele>
        <time>2019-11-01T11:28:17Z</time>
      </trkpt>
      <trkpt lat="46.28537" lon="2.85468">
        <ele>472.8</ele>
        <time>2019-11-01T11:28:18Z</time>
      </trkpt>
      <trkpt lat="46.28535" lon="2.85467">
        <ele>473</ele>
        <time>2019-11-01T11:28:19Z</time>
      </trkpt>
      <trkpt lat="46.28532" lon="2.85467">
        <ele>473.3</ele>
        <time>2019-11-01T11:28:20Z</time>
      </trkpt>
      <trkpt lat="46.2853" lon="2.85466">
        <ele>473.5</ele>
        <time>2019-11-01T11:28:21Z</time>
      </trkpt>
      <trkpt lat="46.28527" lon="2.85466">
        <ele>473.7</ele>
        <time>2019-11-01T11:28:22Z</time>
      </trkpt>
      <trkpt lat="46.28524" lon="2.85465">
        <ele>473.9</ele>
        <time>2019-11-01T11:28:23Z</time>
      </trkpt>
      <trkpt lat="46.28522" lon="2.85465">
        <ele>474.2</ele>
        <time>2019-11-01T11:28:24Z</time>
      </trkpt>
      <trkpt lat="46.2852" lon="2.85464">
        <ele>474.4</ele>
        <time>2019-11-01T11:28:25Z</time>
      </trkpt>
      <trkpt lat="46.28517" lon="2.85463">
        <ele>474.6</ele>
        <time>2019-11-01T11:28:26Z</time>
      </trkpt>
      <trkpt lat="46.28515" lon="2.85462">
        <ele>474.8</ele>
        <time>2019-11-01T11:28:27Z</time>
      </trkpt>
      <trkpt lat="46.28512" lon="2.85462">
        <ele>475</ele>
        <time>2019-11-01T11:28:28Z</time>
      </trkpt>
      <trkpt lat="46.2851" lon="2.85461">
        <ele>475.2</ele>
        <time>2019-11-01T11:28:29Z</time>
      </trkpt>
      <trkpt lat="46.28507" lon="2.85461">
        <ele>475.4</ele>
        <time>2019-11-01T11:28:30Z</time>
      </trkpt>
      <trkpt lat="46.28505" lon="2.8546">
        <ele>475.6</ele>
        <time>2019-11-01T11:28:31Z</time>
      </trkpt>
      <trkpt lat="46.28503" lon="2.8546">
        <ele>475.8</ele>
        <time>2019-11-01T11:28:32Z</time>
      </trkpt>
      <trkpt lat="46.285" lon="2.85459">
        <ele>476</ele>
        <time>2019-11-01T11:28:33Z</time>
      </trkpt>
      <trkpt lat="46.28498" lon="2.85458">
        <ele>476.2</ele>
        <time>2019-11-01T11:28:34Z</time>
      </trkpt>
      <trkpt lat="46.28496" lon="2.85458">
        <ele>476.3</ele>
        <time>2019-11-01T11:28:35Z</time>
      </trkpt>
      <trkpt lat="46.28494" lon="2.85457">
        <ele>476.5</ele>
        <time>2019-11-01T11:28:36Z</time>
      </trkpt>
      <trkpt lat="46.28492" lon="2.85457">
        <ele>476.7</ele>
        <time>2019-11-01T11:28:37Z</time>
      </trkpt>
      <trkpt lat="46.28489" lon="2.85456">
        <ele>476.9</ele>
        <time>2019-11-01T11:28:38Z</time>
      </trkpt>
      <trkpt lat="46.28487" lon="2.85456">
        <ele>477.1</ele>
        <time>2019-11-01T11:28:39Z</time>
      </trkpt>
      <trkpt lat="46.28485" lon="2.85455">
        <ele>477.2</ele>
        <time>2019-11-01T11:28:40Z</time>
      </trkpt>
      <trkpt lat="46.28482" lon="2.85454">
        <ele>477.4</ele>
        <time>2019-11-01T11:28:41Z</time>
      </trkpt>
      <trkpt lat="46.2848" lon="2.85454">
        <ele>477.6</ele>
        <time>2019-11-01T11:28:42Z</time>
      </trkpt>
      <trkpt lat="46.28478" lon="2.85453">
        <ele>477.7</ele>
        <time>2019-11-01T11:28:43Z</time>
      </trkpt>
      <trkpt lat="46.28476" lon="2.85452">
        <ele>477.9</ele>
        <time>2019-11-01T11:28:44Z</time>
      </trkpt>
      <trkpt lat="46.28473" lon="2.85451">
        <ele>478.1</ele>
        <time>2019-11-01T11:28:45Z</time>
      </trkpt>
      <trkpt lat="46.28471" lon="2.85451">
        <ele>478.2</ele>
        <time>2019-11-01T11:28:46Z</time>
      </trkpt>
      <trkpt lat="46.28468" lon="2.8545">
        <ele>478.4</ele>
        <time>2019-11-01T11:28:47Z</time>
      </trkpt>
      <trkpt lat="46.28466" lon="2.8545">
        <ele>478.5</ele>
        <time>2019-11-01T11:28:48Z</time>
      </trkpt>
      <trkpt lat="46.28463" lon="2.85449">
        <ele>478.7</ele>
        <time>2019-11-01T11:28:49Z</time>
      </trkpt>
      <trkpt lat="46.28461" lon="2.85449">
        <ele>478.8</ele>
        <time>2019-11-01T11:28:50Z</time>
      </trkpt>
      <trkpt lat="46.28458" lon="2.85449">
        <ele>478.9</ele>
        <time>2019-11-01T11:28:51Z</time>
      </trkpt>
      <trkpt lat="46.28456" lon="2.85448">
        <ele>479</ele>
        <time>2019-11-01T11:28:52Z</time>
      </trkpt>
      <trkpt lat="46.28453" lon="2.85448">
        <ele>479.1</ele>
        <time>2019-11-01T11:28:53Z</time>
      </trkpt>
      <trkpt lat="46.2845" lon="2.85448">
        <ele>479.2</ele>
        <time>2019-11-01T11:28:54Z</time>
      </trkpt>
      <trkpt lat="46.28448" lon="2.85449">
        <ele>479.3</ele>
        <time>2019-11-01T11:28:55Z</time>
      </trkpt>
      <trkpt lat="46.28445" lon="2.85449">
        <ele>479.5</ele>
        <time>2019-11-01T11:28:56Z</time>
      </trkpt>
      <trkpt lat="46.28442" lon="2.8545">
        <ele>479.6</ele>
        <time>2019-11-01T11:28:57Z</time>
      </trkpt>
      <trkpt lat="46.28439" lon="2.85451">
        <ele>479.8</ele>
        <time>2019-11-01T11:28:58Z</time>
      </trkpt>
      <trkpt lat="46.28435" lon="2.85452">
        <ele>479.9</ele>
        <time>2019-11-01T11:28:59Z</time>
      </trkpt>
      <trkpt lat="46.28433" lon="2.85453">
        <ele>480</ele>
        <time>2019-11-01T11:29:00Z</time>
      </trkpt>
      <trkpt lat="46.28429" lon="2.85454">
        <ele>480.2</ele>
        <time>2019-11-01T11:29:01Z</time>
      </trkpt>
      <trkpt lat="46.28426" lon="2.85455">
        <ele>480.4</ele>
        <time>2019-11-01T11:29:02Z</time>
      </trkpt>
      <trkpt lat="46.28422" lon="2.85457">
        <ele>480.7</ele>
        <time>2019-11-01T11:29:03Z</time>
      </trkpt>
      <trkpt lat="46.28419" lon="2.85459">
        <ele>480.8</ele>
        <time>2019-11-01T11:29:04Z</time>
      </trkpt>
      <trkpt lat="46.28415" lon="2.85461">
        <ele>481</ele>
        <time>2019-11-01T11:29:05Z</time>
      </trkpt>
      <trkpt lat="46.28411" lon="2.85463">
        <ele>481.3</ele>
        <time>2019-11-01T11:29:06Z</time>
      </trkpt>
      <trkpt lat="46.28408" lon="2.85465">
        <ele>481.6</ele>
        <time>2019-11-01T11:29:07Z</time>
      </trkpt>
      <trkpt lat="46.28404" lon="2.85467">
        <ele>481.8</ele>
        <time>2019-11-01T11:29:08Z</time>
      </trkpt>
      <trkpt lat="46.284" lon="2.85469">
        <ele>482.1</ele>
        <time>2019-11-01T11:29:09Z</time>
      </trkpt>
      <trkpt lat="46.28396" lon="2.85471">
        <ele>482.3</ele>
        <time>2019-11-01T11:29:10Z</time>
      </trkpt>
      <trkpt lat="46.28391" lon="2.85472">
        <ele>482.6</ele>
        <time>2019-11-01T11:29:11Z</time>
      </trkpt>
      <trkpt lat="46.28388" lon="2.85473">
        <ele>482.8</ele>
        <time>2019-11-01T11:29:12Z</time>
      </trkpt>
      <trkpt lat="46.28384" lon="2.85474">
        <ele>483.1</ele>
        <time>2019-11-01T11:29:13Z</time>
      </trkpt>
      <trkpt lat="46.2838" lon="2.85475">
        <ele>483.3</ele>
        <time>2019-11-01T11:29:14Z</time>
      </trkpt>
      <trkpt lat="46.28375" lon="2.85476">
        <ele>483.5</ele>
        <time>2019-11-01T11:29:15Z</time>
      </trkpt>
      <trkpt lat="46.2837" lon="2.85477">
        <ele>483.7</ele>
        <time>2019-11-01T11:29:16Z</time>
      </trkpt>
      <trkpt lat="46.28366" lon="2.85478">
        <ele>483.8</ele>
        <time>2019-11-01T11:29:17Z</time>
      </trkpt>
      <trkpt lat="46.28362" lon="2.85478">
        <ele>484</ele>
        <time>2019-11-01T11:29:18Z</time>
      </trkpt>
      <trkpt lat="46.28358" lon="2.85478">
        <ele>484.2</ele>
        <time>2019-11-01T11:29:19Z</time>
      </trkpt>
      <trkpt lat="46.28354" lon="2.85478">
        <ele>484.3</ele>
        <time>2019-11-01T11:29:20Z</time>
      </trkpt>
      <trkpt lat="46.28349" lon="2.85477">
        <ele>484.5</ele>
        <time>2019-11-01T11:30:06Z</time>
      </trkpt>
      <trkpt lat="46.28345" lon="2.85477">
        <ele>484.7</ele>
        <time>2019-11-01T11:30:07Z</time>
      </trkpt>
      <trkpt lat="46.28341" lon="2.85477">
        <ele>484.8</ele>
        <time>2019-11-01T11:30:08Z</time>
      </trkpt>
      <trkpt lat="46.28337" lon="2.85477">
        <ele>485</ele>
        <time>2019-11-01T11:30:09Z</time>
      </trkpt>
      <trkpt lat="46.28332" lon="2.85476">
        <ele>485.3</ele>
        <time>2019-11-01T11:30:10Z</time>
      </trkpt>
      <trkpt lat="46.28329" lon="2.85476">
        <ele>485.4</ele>
        <time>2019-11-01T11:30:11Z</time>
      </trkpt>
      <trkpt lat="46.28325" lon="2.85476">
        <ele>485.6</ele>
        <time>2019-11-01T11:30:12Z</time>
      </trkpt>
      <trkpt lat="46.28321" lon="2.85475">
        <ele>485.8</ele>
        <time>2019-11-01T11:30:13Z</time>
      </trkpt>
      <trkpt lat="46.28317" lon="2.85474">
        <ele>486</ele>
        <time>2019-11-01T11:30:14Z</time>
      </trkpt>
      <trkpt lat="46.28313" lon="2.85473">
        <ele>486.1</ele>
        <time>2019-11-01T11:30:15Z</time>
      </trkpt>
      <trkpt lat="46.2831" lon="2.85472">
        <ele>486.2</ele>
        <time>2019-11-01T11:30:16Z</time>
      </trkpt>
      <trkpt lat="46.28306" lon="2.85471">
        <ele>486.4</ele>
        <time>2019-11-01T11:30:17Z</time>
      </trkpt>
      <trkpt lat="46.28303" lon="2.85469">
        <ele>486.5</ele>
        <time>2019-11-01T11:30:18Z</time>
      </trkpt>
      <trkpt lat="46.283" lon="2.85468">
        <ele>486.7</ele>
        <time>2019-11-01T11:30:19Z</time>
      </trkpt>
      <trkpt lat="46.28296" lon="2.85466">
        <ele>486.9</ele>
        <time>2019-11-01T11:30:20Z</time>
      </trkpt>
      <trkpt lat="46.28293" lon="2.85464">
        <ele>487.1</ele>
        <time>2019-11-01T11:30:21Z</time>
      </trkpt>
      <trkpt lat="46.2829" lon="2.85463">
        <ele>487.2</ele>
        <time>2019-11-01T11:30:22Z</time>
      </trkpt>
      <trkpt lat="46.28287" lon="2.85461">
        <ele>487.4</ele>
        <time>2019-11-01T11:30:23Z</time>
      </trkpt>
      <trkpt lat="46.28284" lon="2.8546">
        <ele>487.5</ele>
        <time>2019-11-01T11:30:24Z</time>
      </trkpt>
      <trkpt lat="46.28281" lon="2.85458">
        <ele>487.7</ele>
        <time>2019-11-01T11:30:25Z</time>
      </trkpt>
      <trkpt lat="46.28277" lon="2.85457">
        <ele>488</ele>
        <time>2019-11-01T11:30:26Z</time>
      </trkpt>
      <trkpt lat="46.28273" lon="2.85455">
        <ele>488.3</ele>
        <time>2019-11-01T11:30:27Z</time>
      </trkpt>
      <trkpt lat="46.28271" lon="2.85455">
        <ele>488.4</ele>
        <time>2019-11-01T11:30:28Z</time>
      </trkpt>
      <trkpt lat="46.28267" lon="2.85453">
        <ele>488.6</ele>
        <time>2019-11-01T11:30:29Z</time>
      </trkpt>
      <trkpt lat="46.28264" lon="2.85453">
        <ele>488.8</ele>
        <time>2019-11-01T11:30:30Z</time>
      </trkpt>
      <trkpt lat="46.2826" lon="2.85451">
        <ele>489</ele>
        <time>2019-11-01T11:30:31Z</time>
      </trkpt>
      <trkpt lat="46.28256" lon="2.8545">
        <ele>489.1</ele>
        <time>2019-11-01T11:30:32Z</time>
      </trkpt>
      <trkpt lat="46.28253" lon="2.85449">
        <ele>489.3</ele>
        <time>2019-11-01T11:30:33Z</time>
      </trkpt>
      <trkpt lat="46.28249" lon="2.85448">
        <ele>489.6</ele>
        <time>2019-11-01T11:30:34Z</time>
      </trkpt>
      <trkpt lat="46.28246" lon="2.85447">
        <ele>489.8</ele>
        <time>2019-11-01T11:30:35Z</time>
      </trkpt>
      <trkpt lat="46.28242" lon="2.85445">
        <ele>490.1</ele>
        <time>2019-11-01T11:30:36Z</time>
      </trkpt>
      <trkpt lat="46.28238" lon="2.85444">
        <ele>490.4</ele>
        <time>2019-11-01T11:30:37Z</time>
      </trkpt>
      <trkpt lat="46.28235" lon="2.85443">
        <ele>490.6</ele>
        <time>2019-11-01T11:30:38Z</time>
      </trkpt>
      <trkpt lat="46.28231" lon="2.85442">
        <ele>490.9</ele>
        <time>2019-11-01T11:30:39Z</time>
      </trkpt>
      <trkpt lat="46.28226" lon="2.8544">
        <ele>491.1</ele>
        <time>2019-11-01T11:30:40Z</time>
      </trkpt>
      <trkpt lat="46.28222" lon="2.85439">
        <ele>491.4</ele>
        <time>2019-11-01T11:30:41Z</time>
      </trkpt>
      <trkpt lat="46.28218" lon="2.85438">
        <ele>491.6</ele>
        <time>2019-11-01T11:30:42Z</time>
      </trkpt>
      <trkpt lat="46.28215" lon="2.85437">
        <ele>491.8</ele>
        <time>2019-11-01T11:30:43Z</time>
      </trkpt>
      <trkpt lat="46.28211" lon="2.85436">
        <ele>492.1</ele>
        <time>2019-11-01T11:30:44Z</time>
      </trkpt>
      <trkpt lat="46.28207" lon="2.85434">
        <ele>492.3</ele>
        <time>2019-11-01T11:30:45Z</time>
      </trkpt>
      <trkpt lat="46.28202" lon="2.85433">
        <ele>492.6</ele>
        <time>2019-11-01T11:30:46Z</time>
      </trkpt>
      <trkpt lat="46.28199" lon="2.85432">
        <ele>492.8</ele>
        <time>2019-11-01T11:30:47Z</time>
      </trkpt>
      <trkpt lat="46.28194" lon="2.8543">
        <ele>493.1</ele>
        <time>2019-11-01T11:30:48Z</time>
      </trkpt>
      <trkpt lat="46.2819" lon="2.85429">
        <ele>493.4</ele>
        <time>2019-11-01T11:30:49Z</time>
      </trkpt>
      <trkpt lat="46.28185" lon="2.85427">
        <ele>493.6</ele>
        <time>2019-11-01T11:30:50Z</time>
      </trkpt>
      <trkpt lat="46.28181" lon="2.85426">
        <ele>493.8</ele>
        <time>2019-11-01T11:30:51Z</time>
      </trkpt>
      <trkpt lat="46.28177" lon="2.85425">
        <ele>494</ele>
        <time>2019-11-01T11:30:52Z</time>
      </trkpt>
      <trkpt lat="46.28172" lon="2.85424">
        <ele>494.2</ele>
        <time>2019-11-01T11:30:53Z</time>
      </trkpt>
      <trkpt lat="46.28168" lon="2.85422">
        <ele>494.3</ele>
        <time>2019-11-01T11:30:54Z</time>
      </trkpt>
      <trkpt lat="46.28163" lon="2.85421">
        <ele>494.5</ele>
        <time>2019-11-01T11:30:55Z</time>
      </trkpt>
      <trkpt lat="46.28159" lon="2.85419">
        <ele>494.6</ele>
        <time>2019-11-01T11:30:56Z</time>
      </trkpt>
      <trkpt lat="46.28155" lon="2.85418">
        <ele>494.7</ele>
        <time>2019-11-01T11:30:57Z</time>
      </trkpt>
      <trkpt lat="46.2815" lon="2.85417">
        <ele>494.7</ele>
        <time>2019-11-01T11:30:58Z</time>
      </trkpt>
      <trkpt lat="46.28146" lon="2.85416">
        <ele>494.8</ele>
        <time>2019-11-01T11:30:59Z</time>
      </trkpt>
      <trkpt lat="46.28142" lon="2.85415">
        <ele>494.8</ele>
        <time>2019-11-01T11:31:00Z</time>
      </trkpt>
      <trkpt lat="46.28137" lon="2.85413">
        <ele>494.8</ele>
        <time>2019-11-01T11:31:01Z</time>
      </trkpt>
      <trkpt lat="46.28133" lon="2.85412">
        <ele>494.8</ele>
        <time>2019-11-01T11:31:02Z</time>
      </trkpt>
      <trkpt lat="46.28128" lon="2.85411">
        <ele>494.9</ele>
        <time>2019-11-01T11:31:03Z</time>
      </trkpt>
      <trkpt lat="46.28124" lon="2.8541">
        <ele>494.9</ele>
        <time>2019-11-01T11:31:04Z</time>
      </trkpt>
      <trkpt lat="46.2812" lon="2.85409">
        <ele>494.8</ele>
        <time>2019-11-01T11:31:05Z</time>
      </trkpt>
      <trkpt lat="46.28116" lon="2.85407">
        <ele>494.8</ele>
        <time>2019-11-01T11:31:06Z</time>
      </trkpt>
      <trkpt lat="46.28112" lon="2.85406">
        <ele>494.8</ele>
        <time>2019-11-01T11:31:07Z</time>
      </trkpt>
      <trkpt lat="46.28109" lon="2.85405">
        <ele>494.8</ele>
        <time>2019-11-01T11:31:08Z</time>
      </trkpt>
      <trkpt lat="46.28105" lon="2.85404">
        <ele>494.7</ele>
        <time>2019-11-01T11:31:09Z</time>
      </trkpt>
      <trkpt lat="46.28101" lon="2.85403">
        <ele>494.7</ele>
        <time>2019-11-01T11:31:10Z</time>
      </trkpt>
      <trkpt lat="46.28098" lon="2.85402">
        <ele>494.7</ele>
        <time>2019-11-01T11:31:11Z</time>
      </trkpt>
      <trkpt lat="46.28096" lon="2.85401">
        <ele>494.7</ele>
        <time>2019-11-01T11:31:12Z</time>
      </trkpt>
      <trkpt lat="46.28093" lon="2.854">
        <ele>494.6</ele>
        <time>2019-11-01T11:31:13Z</time>
      </trkpt>
      <trkpt lat="46.2809" lon="2.85399">
        <ele>494.6</ele>
        <time>2019-11-01T11:31:14Z</time>
      </trkpt>
      <trkpt lat="46.28088" lon="2.85398">
        <ele>494.6</ele>
        <time>2019-11-01T11:31:15Z</time>
      </trkpt>
      <trkpt lat="46.28086" lon="2.85397">
        <ele>494.6</ele>
        <time>2019-11-01T11:31:16Z</time>
      </trkpt>
      <trkpt lat="46.28086" lon="2.85396">
        <ele>494.6</ele>
        <time>2019-11-01T11:31:17Z</time>
      </trkpt>
      <trkpt lat="46.28086" lon="2.85396">
        <ele>494.6</ele>
        <time>2019-11-01T11:31:18Z</time>
      </trkpt>
      <trkpt lat="46.28086" lon="2.85395">
        <ele>494.6</ele>
        <time>2019-11-01T11:31:19Z</time>
      </trkpt>
      <trkpt lat="46.28087" lon="2.85389">
        <ele>494.8</ele>
        <time>2019-11-01T11:31:20Z</time>
      </trkpt>
      <trkpt lat="46.28088" lon="2.85385">
        <ele>494.9</ele>
        <time>2019-11-01T11:31:21Z</time>
      </trkpt>
      <trkpt lat="46.28088" lon="2.8538">
        <ele>494.9</ele>
        <time>2019-11-01T11:31:22Z</time>
      </trkpt>
      <trkpt lat="46.28089" lon="2.85376">
        <ele>495</ele>
        <time>2019-11-01T11:31:23Z</time>
      </trkpt>
      <trkpt lat="46.2809" lon="2.85371">
        <ele>495.1</ele>
        <time>2019-11-01T11:31:24Z</time>
      </trkpt>
      <trkpt lat="46.28092" lon="2.85366">
        <ele>495.2</ele>
        <time>2019-11-01T11:31:25Z</time>
      </trkpt>
      <trkpt lat="46.28093" lon="2.85361">
        <ele>495.2</ele>
        <time>2019-11-01T11:31:26Z</time>
      </trkpt>
      <trkpt lat="46.28094" lon="2.85355">
        <ele>495.3</ele>
        <time>2019-11-01T11:31:27Z</time>
      </trkpt>
      <trkpt lat="46.28095" lon="2.8535">
        <ele>495.3</ele>
        <time>2019-11-01T11:31:28Z</time>
      </trkpt>
      <trkpt lat="46.28097" lon="2.85345">
        <ele>495.3</ele>
        <time>2019-11-01T11:31:29Z</time>
      </trkpt>
      <trkpt lat="46.28098" lon="2.8534">
        <ele>495.3</ele>
        <time>2019-11-01T11:31:30Z</time>
      </trkpt>
      <trkpt lat="46.28099" lon="2.85335">
        <ele>495.3</ele>
        <time>2019-11-01T11:31:31Z</time>
      </trkpt>
      <trkpt lat="46.281" lon="2.85329">
        <ele>495.3</ele>
        <time>2019-11-01T11:31:32Z</time>
      </trkpt>
      <trkpt lat="46.28102" lon="2.85324">
        <ele>495.3</ele>
        <time>2019-11-01T11:31:33Z</time>
      </trkpt>
      <trkpt lat="46.28103" lon="2.85319">
        <ele>495.3</ele>
        <time>2019-11-01T11:31:34Z</time>
      </trkpt>
      <trkpt lat="46.28104" lon="2.85313">
        <ele>495.2</ele>
        <time>2019-11-01T11:31:35Z</time>
      </trkpt>
      <trkpt lat="46.28105" lon="2.85308">
        <ele>495.2</ele>
        <time>2019-11-01T11:31:36Z</time>
      </trkpt>
      <trkpt lat="46.28106" lon="2.85302">
        <ele>495.1</ele>
        <time>2019-11-01T11:31:37Z</time>
      </trkpt>
      <trkpt lat="46.28108" lon="2.85297">
        <ele>495</ele>
        <time>2019-11-01T11:31:38Z</time>
      </trkpt>
      <trkpt lat="46.28109" lon="2.85291">
        <ele>494.9</ele>
        <time>2019-11-01T11:31:39Z</time>
      </trkpt>
      <trkpt lat="46.28111" lon="2.85286">
        <ele>494.8</ele>
        <time>2019-11-01T11:31:40Z</time>
      </trkpt>
      <trkpt lat="46.28112" lon="2.8528">
        <ele>494.7</ele>
        <time>2019-11-01T11:31:41Z</time>
      </trkpt>
      <trkpt lat="46.28114" lon="2.85274">
        <ele>494.7</ele>
        <time>2019-11-01T11:31:42Z</time>
      </trkpt>
      <trkpt lat="46.28115" lon="2.85269">
        <ele>494.7</ele>
        <time>2019-11-01T11:31:43Z</time>
      </trkpt>
      <trkpt lat="46.28117" lon="2.85263">
        <ele>494.7</ele>
        <time>2019-11-01T11:31:44Z</time>
      </trkpt>
      <trkpt lat="46.28118" lon="2.85257">
        <ele>494.7</ele>
        <time>2019-11-01T11:31:45Z</time>
      </trkpt>
      <trkpt lat="46.28119" lon="2.85252">
        <ele>494.7</ele>
        <time>2019-11-01T11:31:46Z</time>
      </trkpt>
      <trkpt lat="46.28121" lon="2.85246">
        <ele>494.8</ele>
        <time>2019-11-01T11:31:47Z</time>
      </trkpt>
      <trkpt lat="46.28122" lon="2.85239">
        <ele>494.8</ele>
        <time>2019-11-01T11:31:48Z</time>
      </trkpt>
      <trkpt lat="46.28124" lon="2.85234">
        <ele>494.9</ele>
        <time>2019-11-01T11:31:49Z</time>
      </trkpt>
      <trkpt lat="46.28126" lon="2.85228">
        <ele>494.9</ele>
        <time>2019-11-01T11:31:50Z</time>
      </trkpt>
      <trkpt lat="46.28127" lon="2.85223">
        <ele>494.9</ele>
        <time>2019-11-01T11:31:51Z</time>
      </trkpt>
      <trkpt lat="46.28129" lon="2.85217">
        <ele>494.9</ele>
        <time>2019-11-01T11:31:52Z</time>
      </trkpt>
      <trkpt lat="46.2813" lon="2.85211">
        <ele>494.8</ele>
        <time>2019-11-01T11:31:53Z</time>
      </trkpt>
      <trkpt lat="46.28132" lon="2.85206">
        <ele>494.7</ele>
        <time>2019-11-01T11:31:54Z</time>
      </trkpt>
      <trkpt lat="46.28134" lon="2.852">
        <ele>494.6</ele>
        <time>2019-11-01T11:31:55Z</time>
      </trkpt>
      <trkpt lat="46.28136" lon="2.85193">
        <ele>494.5</ele>
        <time>2019-11-01T11:31:56Z</time>
      </trkpt>
      <trkpt lat="46.28137" lon="2.85187">
        <ele>494.3</ele>
        <time>2019-11-01T11:31:57Z</time>
      </trkpt>
      <trkpt lat="46.28139" lon="2.85181">
        <ele>494.1</ele>
        <time>2019-11-01T11:31:58Z</time>
      </trkpt>
      <trkpt lat="46.28141" lon="2.85174">
        <ele>493.8</ele>
        <time>2019-11-01T11:31:59Z</time>
      </trkpt>
      <trkpt lat="46.28143" lon="2.85168">
        <ele>493.6</ele>
        <time>2019-11-01T11:32:00Z</time>
      </trkpt>
      <trkpt lat="46.28144" lon="2.85162">
        <ele>493.3</ele>
        <time>2019-11-01T11:32:01Z</time>
      </trkpt>
      <trkpt lat="46.28146" lon="2.85156">
        <ele>493.1</ele>
        <time>2019-11-01T11:32:02Z</time>
      </trkpt>
      <trkpt lat="46.28148" lon="2.8515">
        <ele>492.9</ele>
        <time>2019-11-01T11:32:03Z</time>
      </trkpt>
      <trkpt lat="46.2815" lon="2.85143">
        <ele>492.7</ele>
        <time>2019-11-01T11:32:04Z</time>
      </trkpt>
      <trkpt lat="46.28152" lon="2.85137">
        <ele>492.6</ele>
        <time>2019-11-01T11:32:05Z</time>
      </trkpt>
      <trkpt lat="46.28153" lon="2.85131">
        <ele>492.5</ele>
        <time>2019-11-01T11:32:06Z</time>
      </trkpt>
      <trkpt lat="46.28155" lon="2.85124">
        <ele>492.4</ele>
        <time>2019-11-01T11:32:07Z</time>
      </trkpt>
      <trkpt lat="46.28157" lon="2.85118">
        <ele>492.4</ele>
        <time>2019-11-01T11:32:08Z</time>
      </trkpt>
      <trkpt lat="46.28159" lon="2.85111">
        <ele>492.4</ele>
        <time>2019-11-01T11:32:09Z</time>
      </trkpt>
      <trkpt lat="46.2816" lon="2.85105">
        <ele>492.4</ele>
        <time>2019-11-01T11:32:10Z</time>
      </trkpt>
      <trkpt lat="46.28162" lon="2.85098">
        <ele>492.5</ele>
        <time>2019-11-01T11:32:11Z</time>
      </trkpt>
      <trkpt lat="46.28163" lon="2.85091">
        <ele>492.5</ele>
        <time>2019-11-01T11:32:12Z</time>
      </trkpt>
      <trkpt lat="46.28165" lon="2.85085">
        <ele>492.5</ele>
        <time>2019-11-01T11:32:13Z</time>
      </trkpt>
      <trkpt lat="46.28167" lon="2.85079">
        <ele>492.5</ele>
        <time>2019-11-01T11:32:14Z</time>
      </trkpt>
      <trkpt lat="46.28168" lon="2.85072">
        <ele>492.5</ele>
        <time>2019-11-01T11:32:15Z</time>
      </trkpt>
      <trkpt lat="46.2817" lon="2.85065">
        <ele>492.5</ele>
        <time>2019-11-01T11:32:16Z</time>
      </trkpt>
      <trkpt lat="46.28171" lon="2.85059">
        <ele>492.5</ele>
        <time>2019-11-01T11:32:17Z</time>
      </trkpt>
      <trkpt lat="46.28173" lon="2.85052">
        <ele>492.5</ele>
        <time>2019-11-01T11:32:18Z</time>
      </trkpt>
      <trkpt lat="46.28174" lon="2.85045">
        <ele>492.4</ele>
        <time>2019-11-01T11:32:19Z</time>
      </trkpt>
      <trkpt lat="46.28176" lon="2.85038">
        <ele>492.4</ele>
        <time>2019-11-01T11:32:20Z</time>
      </trkpt>
      <trkpt lat="46.28177" lon="2.85031">
        <ele>492.4</ele>
        <time>2019-11-01T11:32:21Z</time>
      </trkpt>
      <trkpt lat="46.28178" lon="2.85024">
        <ele>492.4</ele>
        <time>2019-11-01T11:32:22Z</time>
      </trkpt>
      <trkpt lat="46.28179" lon="2.85018">
        <ele>492.3</ele>
        <time>2019-11-01T11:32:23Z</time>
      </trkpt>
      <trkpt lat="46.2818" lon="2.85011">
        <ele>492.3</ele>
        <time>2019-11-01T11:32:24Z</time>
      </trkpt>
      <trkpt lat="46.28181" lon="2.85004">
        <ele>492.3</ele>
        <time>2019-11-01T11:32:25Z</time>
      </trkpt>
      <trkpt lat="46.28183" lon="2.84997">
        <ele>492.2</ele>
        <time>2019-11-01T11:32:26Z</time>
      </trkpt>
      <trkpt lat="46.28184" lon="2.8499">
        <ele>492.2</ele>
        <time>2019-11-01T11:32:27Z</time>
      </trkpt>
      <trkpt lat="46.28185" lon="2.84983">
        <ele>492.1</ele>
        <time>2019-11-01T11:32:28Z</time>
      </trkpt>
      <trkpt lat="46.28186" lon="2.84976">
        <ele>492</ele>
        <time>2019-11-01T11:32:29Z</time>
      </trkpt>
      <trkpt lat="46.28186" lon="2.84968">
        <ele>491.9</ele>
        <time>2019-11-01T11:32:30Z</time>
      </trkpt>
      <trkpt lat="46.28188" lon="2.84961">
        <ele>491.7</ele>
        <time>2019-11-01T11:32:31Z</time>
      </trkpt>
      <trkpt lat="46.28188" lon="2.84953">
        <ele>491.6</ele>
        <time>2019-11-01T11:32:32Z</time>
      </trkpt>
      <trkpt lat="46.28189" lon="2.84945">
        <ele>491.5</ele>
        <time>2019-11-01T11:32:33Z</time>
      </trkpt>
      <trkpt lat="46.2819" lon="2.84937">
        <ele>491.3</ele>
        <time>2019-11-01T11:32:34Z</time>
      </trkpt>
      <trkpt lat="46.28191" lon="2.84929">
        <ele>491.2</ele>
        <time>2019-11-01T11:32:35Z</time>
      </trkpt>
      <trkpt lat="46.28192" lon="2.84921">
        <ele>491.2</ele>
        <time>2019-11-01T11:32:36Z</time>
      </trkpt>
      <trkpt lat="46.28193" lon="2.84913">
        <ele>491.1</ele>
        <time>2019-11-01T11:32:37Z</time>
      </trkpt>
      <trkpt lat="46.28193" lon="2.84906">
        <ele>491</ele>
        <time>2019-11-01T11:32:38Z</time>
      </trkpt>
      <trkpt lat="46.28194" lon="2.84897">
        <ele>491</ele>
        <time>2019-11-01T11:32:39Z</time>
      </trkpt>
      <trkpt lat="46.28195" lon="2.84889">
        <ele>490.9</ele>
        <time>2019-11-01T11:32:40Z</time>
      </trkpt>
      <trkpt lat="46.28196" lon="2.8488">
        <ele>490.8</ele>
        <time>2019-11-01T11:32:41Z</time>
      </trkpt>
      <trkpt lat="46.28196" lon="2.84872">
        <ele>490.7</ele>
        <time>2019-11-01T11:32:42Z</time>
      </trkpt>
      <trkpt lat="46.28197" lon="2.84863">
        <ele>490.6</ele>
        <time>2019-11-01T11:32:43Z</time>
      </trkpt>
      <trkpt lat="46.28198" lon="2.84855">
        <ele>490.4</ele>
        <time>2019-11-01T11:32:44Z</time>
      </trkpt>
      <trkpt lat="46.28198" lon="2.84846">
        <ele>490.3</ele>
        <time>2019-11-01T11:32:45Z</time>
      </trkpt>
      <trkpt lat="46.28199" lon="2.84837">
        <ele>490.1</ele>
        <time>2019-11-01T11:32:46Z</time>
      </trkpt>
      <trkpt lat="46.282" lon="2.84828">
        <ele>490</ele>
        <time>2019-11-01T11:32:47Z</time>
      </trkpt>
      <trkpt lat="46.282" lon="2.84819">
        <ele>489.9</ele>
        <time>2019-11-01T11:32:48Z</time>
      </trkpt>
      <trkpt lat="46.28201" lon="2.8481">
        <ele>489.8</ele>
        <time>2019-11-01T11:32:49Z</time>
      </trkpt>
      <trkpt lat="46.28201" lon="2.84801">
        <ele>489.7</ele>
        <time>2019-11-01T11:32:50Z</time>
      </trkpt>
      <trkpt lat="46.282" lon="2.84793">
        <ele>489.7</ele>
        <time>2019-11-01T11:32:51Z</time>
      </trkpt>
      <trkpt lat="46.28198" lon="2.84785">
        <ele>489.6</ele>
        <time>2019-11-01T11:32:52Z</time>
      </trkpt>
      <trkpt lat="46.28195" lon="2.84778">
        <ele>489.6</ele>
        <time>2019-11-01T11:32:53Z</time>
      </trkpt>
      <trkpt lat="46.28191" lon="2.84771">
        <ele>489.7</ele>
        <time>2019-11-01T11:32:54Z</time>
      </trkpt>
      <trkpt lat="46.28188" lon="2.84765">
        <ele>489.9</ele>
        <time>2019-11-01T11:32:55Z</time>
      </trkpt>
      <trkpt lat="46.28183" lon="2.84759">
        <ele>490</ele>
        <time>2019-11-01T11:32:56Z</time>
      </trkpt>
      <trkpt lat="46.28179" lon="2.84753">
        <ele>490.1</ele>
        <time>2019-11-01T11:32:57Z</time>
      </trkpt>
      <trkpt lat="46.28175" lon="2.84747">
        <ele>490.1</ele>
        <time>2019-11-01T11:32:58Z</time>
      </trkpt>
      <trkpt lat="46.2817" lon="2.84742">
        <ele>490.1</ele>
        <time>2019-11-01T11:32:59Z</time>
      </trkpt>
      <trkpt lat="46.28165" lon="2.84736">
        <ele>490.2</ele>
        <time>2019-11-01T11:33:00Z</time>
      </trkpt>
      <trkpt lat="46.28161" lon="2.84732">
        <ele>490.2</ele>
        <time>2019-11-01T11:33:01Z</time>
      </trkpt>
      <trkpt lat="46.28157" lon="2.84727">
        <ele>490.1</ele>
        <time>2019-11-01T11:33:02Z</time>
      </trkpt>
      <trkpt lat="46.28151" lon="2.84721">
        <ele>490.1</ele>
        <time>2019-11-01T11:33:03Z</time>
      </trkpt>
      <trkpt lat="46.28147" lon="2.84716">
        <ele>490.1</ele>
        <time>2019-11-01T11:33:04Z</time>
      </trkpt>
      <trkpt lat="46.28142" lon="2.84711">
        <ele>490</ele>
        <time>2019-11-01T11:33:05Z</time>
      </trkpt>
      <trkpt lat="46.28137" lon="2.84706">
        <ele>490</ele>
        <time>2019-11-01T11:33:06Z</time>
      </trkpt>
      <trkpt lat="46.28132" lon="2.84701">
        <ele>489.9</ele>
        <time>2019-11-01T11:33:07Z</time>
      </trkpt>
      <trkpt lat="46.28128" lon="2.84696">
        <ele>489.9</ele>
        <time>2019-11-01T11:33:08Z</time>
      </trkpt>
      <trkpt lat="46.28123" lon="2.84691">
        <ele>489.8</ele>
        <time>2019-11-01T11:33:09Z</time>
      </trkpt>
      <trkpt lat="46.28118" lon="2.84687">
        <ele>489.8</ele>
        <time>2019-11-01T11:33:10Z</time>
      </trkpt>
      <trkpt lat="46.28113" lon="2.84683">
        <ele>489.7</ele>
        <time>2019-11-01T11:33:11Z</time>
      </trkpt>
      <trkpt lat="46.28109" lon="2.84679">
        <ele>489.7</ele>
        <time>2019-11-01T11:33:12Z</time>
      </trkpt>
      <trkpt lat="46.28104" lon="2.84675">
        <ele>489.7</ele>
        <time>2019-11-01T11:33:13Z</time>
      </trkpt>
      <trkpt lat="46.281" lon="2.84671">
        <ele>489.7</ele>
        <time>2019-11-01T11:33:14Z</time>
      </trkpt>
      <trkpt lat="46.28096" lon="2.84667">
        <ele>489.6</ele>
        <time>2019-11-01T11:33:15Z</time>
      </trkpt>
      <trkpt lat="46.28092" lon="2.84663">
        <ele>489.6</ele>
        <time>2019-11-01T11:33:16Z</time>
      </trkpt>
      <trkpt lat="46.28088" lon="2.84658">
        <ele>489.6</ele>
        <time>2019-11-01T11:33:17Z</time>
      </trkpt>
      <trkpt lat="46.28084" lon="2.84654">
        <ele>489.5</ele>
        <time>2019-11-01T11:33:18Z</time>
      </trkpt>
      <trkpt lat="46.2808" lon="2.84649">
        <ele>489.5</ele>
        <time>2019-11-01T11:33:19Z</time>
      </trkpt>
      <trkpt lat="46.28075" lon="2.84643">
        <ele>489.4</ele>
        <time>2019-11-01T11:33:20Z</time>
      </trkpt>
      <trkpt lat="46.28071" lon="2.84638">
        <ele>489.3</ele>
        <time>2019-11-01T11:33:21Z</time>
      </trkpt>
      <trkpt lat="46.28067" lon="2.84632">
        <ele>489.2</ele>
        <time>2019-11-01T11:33:22Z</time>
      </trkpt>
      <trkpt lat="46.28062" lon="2.84626">
        <ele>489</ele>
        <time>2019-11-01T11:33:23Z</time>
      </trkpt>
      <trkpt lat="46.28058" lon="2.84619">
        <ele>488.9</ele>
        <time>2019-11-01T11:33:24Z</time>
      </trkpt>
      <trkpt lat="46.28054" lon="2.84612">
        <ele>488.7</ele>
        <time>2019-11-01T11:33:25Z</time>
      </trkpt>
      <trkpt lat="46.28049" lon="2.84604">
        <ele>488.5</ele>
        <time>2019-11-01T11:33:26Z</time>
      </trkpt>
      <trkpt lat="46.28045" lon="2.84597">
        <ele>488.3</ele>
        <time>2019-11-01T11:33:27Z</time>
      </trkpt>
      <trkpt lat="46.2804" lon="2.84591">
        <ele>488</ele>
        <time>2019-11-01T11:33:28Z</time>
      </trkpt>
      <trkpt lat="46.28036" lon="2.84584">
        <ele>487.8</ele>
        <time>2019-11-01T11:33:29Z</time>
      </trkpt>
      <trkpt lat="46.28032" lon="2.84579">
        <ele>487.5</ele>
        <time>2019-11-01T11:33:30Z</time>
      </trkpt>
      <trkpt lat="46.28027" lon="2.84571">
        <ele>487.2</ele>
        <time>2019-11-01T11:33:31Z</time>
      </trkpt>
      <trkpt lat="46.28023" lon="2.84564">
        <ele>486.9</ele>
        <time>2019-11-01T11:33:32Z</time>
      </trkpt>
      <trkpt lat="46.28019" lon="2.84557">
        <ele>486.5</ele>
        <time>2019-11-01T11:33:33Z</time>
      </trkpt>
      <trkpt lat="46.28016" lon="2.84548">
        <ele>486.4</ele>
        <time>2019-11-01T11:33:34Z</time>
      </trkpt>
      <trkpt lat="46.28014" lon="2.84539">
        <ele>486.2</ele>
        <time>2019-11-01T11:33:35Z</time>
      </trkpt>
      <trkpt lat="46.28012" lon="2.8453">
        <ele>486</ele>
        <time>2019-11-01T11:33:36Z</time>
      </trkpt>
      <trkpt lat="46.28011" lon="2.8452">
        <ele>485.7</ele>
        <time>2019-11-01T11:33:37Z</time>
      </trkpt>
      <trkpt lat="46.28009" lon="2.8451">
        <ele>485.6</ele>
        <time>2019-11-01T11:33:38Z</time>
      </trkpt>
      <trkpt lat="46.28008" lon="2.84502">
        <ele>485.5</ele>
        <time>2019-11-01T11:33:39Z</time>
      </trkpt>
      <trkpt lat="46.28007" lon="2.8449">
        <ele>485.2</ele>
        <time>2019-11-01T11:33:40Z</time>
      </trkpt>
      <trkpt lat="46.28005" lon="2.8448">
        <ele>485.1</ele>
        <time>2019-11-01T11:33:41Z</time>
      </trkpt>
      <trkpt lat="46.28004" lon="2.84469">
        <ele>484.9</ele>
        <time>2019-11-01T11:33:42Z</time>
      </trkpt>
      <trkpt lat="46.28002" lon="2.84459">
        <ele>484.7</ele>
        <time>2019-11-01T11:33:43Z</time>
      </trkpt>
      <trkpt lat="46.28001" lon="2.84451">
        <ele>484.5</ele>
        <time>2019-11-01T11:33:44Z</time>
      </trkpt>
      <trkpt lat="46.27998" lon="2.84438">
        <ele>484.3</ele>
        <time>2019-11-01T11:33:45Z</time>
      </trkpt>
      <trkpt lat="46.27997" lon="2.84427">
        <ele>484</ele>
        <time>2019-11-01T11:33:46Z</time>
      </trkpt>
      <trkpt lat="46.27995" lon="2.84416">
        <ele>483.6</ele>
        <time>2019-11-01T11:33:47Z</time>
      </trkpt>
      <trkpt lat="46.27993" lon="2.84405">
        <ele>483.2</ele>
        <time>2019-11-01T11:33:48Z</time>
      </trkpt>
      <trkpt lat="46.27991" lon="2.84394">
        <ele>482.7</ele>
        <time>2019-11-01T11:33:49Z</time>
      </trkpt>
      <trkpt lat="46.27989" lon="2.84384">
        <ele>482.3</ele>
        <time>2019-11-01T11:33:50Z</time>
      </trkpt>
      <trkpt lat="46.27986" lon="2.84373">
        <ele>481.9</ele>
        <time>2019-11-01T11:33:51Z</time>
      </trkpt>
      <trkpt lat="46.27983" lon="2.84363">
        <ele>481.5</ele>
        <time>2019-11-01T11:33:52Z</time>
      </trkpt>
      <trkpt lat="46.2798" lon="2.84352">
        <ele>481.2</ele>
        <time>2019-11-01T11:33:53Z</time>
      </trkpt>
      <trkpt lat="46.27977" lon="2.84342">
        <ele>481.1</ele>
        <time>2019-11-01T11:33:54Z</time>
      </trkpt>
      <trkpt lat="46.27975" lon="2.84331">
        <ele>480.9</ele>
        <time>2019-11-01T11:33:55Z</time>
      </trkpt>
      <trkpt lat="46.27972" lon="2.84321">
        <ele>480.8</ele>
        <time>2019-11-01T11:33:56Z</time>
      </trkpt>
      <trkpt lat="46.27969" lon="2.84311">
        <ele>480.7</ele>
        <time>2019-11-01T11:33:57Z</time>
      </trkpt>
      <trkpt lat="46.27967" lon="2.84303">
        <ele>480.5</ele>
        <time>2019-11-01T11:33:58Z</time>
      </trkpt>
      <trkpt lat="46.27964" lon="2.84291">
        <ele>480.4</ele>
        <time>2019-11-01T11:33:59Z</time>
      </trkpt>
      <trkpt lat="46.27961" lon="2.84281">
        <ele>480.2</ele>
        <time>2019-11-01T11:34:00Z</time>
      </trkpt>
      <trkpt lat="46.27959" lon="2.84271">
        <ele>480.2</ele>
        <time>2019-11-01T11:34:01Z</time>
      </trkpt>
      <trkpt lat="46.27957" lon="2.84263">
        <ele>480.1</ele>
        <time>2019-11-01T11:34:02Z</time>
      </trkpt>
      <trkpt lat="46.27954" lon="2.84254">
        <ele>480.1</ele>
        <time>2019-11-01T11:34:03Z</time>
      </trkpt>
      <trkpt lat="46.27952" lon="2.84244">
        <ele>479.9</ele>
        <time>2019-11-01T11:34:04Z</time>
      </trkpt>
      <trkpt lat="46.27949" lon="2.84234">
        <ele>479.8</ele>
        <time>2019-11-01T11:34:05Z</time>
      </trkpt>
      <trkpt lat="46.27947" lon="2.84225">
        <ele>479.7</ele>
        <time>2019-11-01T11:34:06Z</time>
      </trkpt>
      <trkpt lat="46.27945" lon="2.84215">
        <ele>479.6</ele>
        <time>2019-11-01T11:34:07Z</time>
      </trkpt>
      <trkpt lat="46.27942" lon="2.84206">
        <ele>479.6</ele>
        <time>2019-11-01T11:34:08Z</time>
      </trkpt>
      <trkpt lat="46.2794" lon="2.84197">
        <ele>479.5</ele>
        <time>2019-11-01T11:34:09Z</time>
      </trkpt>
      <trkpt lat="46.27937" lon="2.84186">
        <ele>479.5</ele>
        <time>2019-11-01T11:34:10Z</time>
      </trkpt>
      <trkpt lat="46.27935" lon="2.84177">
        <ele>479.5</ele>
        <time>2019-11-01T11:34:11Z</time>
      </trkpt>
      <trkpt lat="46.27933" lon="2.84168">
        <ele>479.6</ele>
        <time>2019-11-01T11:34:12Z</time>
      </trkpt>
      <trkpt lat="46.27932" lon="2.84159">
        <ele>479.7</ele>
        <time>2019-11-01T11:34:13Z</time>
      </trkpt>
      <trkpt lat="46.27931" lon="2.8415">
        <ele>479.8</ele>
        <time>2019-11-01T11:34:14Z</time>
      </trkpt>
      <trkpt lat="46.2793" lon="2.8414">
        <ele>479.8</ele>
        <time>2019-11-01T11:34:15Z</time>
      </trkpt>
      <trkpt lat="46.27928" lon="2.84132">
        <ele>480</ele>
        <time>2019-11-01T11:34:16Z</time>
      </trkpt>
      <trkpt lat="46.27927" lon="2.84125">
        <ele>480.1</ele>
        <time>2019-11-01T11:34:17Z</time>
      </trkpt>
      <trkpt lat="46.27926" lon="2.84116">
        <ele>480.1</ele>
        <time>2019-11-01T11:34:18Z</time>
      </trkpt>
      <trkpt lat="46.27924" lon="2.84106">
        <ele>480.2</ele>
        <time>2019-11-01T11:34:19Z</time>
      </trkpt>
      <trkpt lat="46.27922" lon="2.84098">
        <ele>480.3</ele>
        <time>2019-11-01T11:34:20Z</time>
      </trkpt>
      <trkpt lat="46.2792" lon="2.8409">
        <ele>480.3</ele>
        <time>2019-11-01T11:34:21Z</time>
      </trkpt>
      <trkpt lat="46.27918" lon="2.84083">
        <ele>480.3</ele>
        <time>2019-11-01T11:34:22Z</time>
      </trkpt>
      <trkpt lat="46.27916" lon="2.84077">
        <ele>480.4</ele>
        <time>2019-11-01T11:34:23Z</time>
      </trkpt>
      <trkpt lat="46.27915" lon="2.84071">
        <ele>480.5</ele>
        <time>2019-11-01T11:34:24Z</time>
      </trkpt>
      <trkpt lat="46.27913" lon="2.84065">
        <ele>480.5</ele>
        <time>2019-11-01T11:34:25Z</time>
      </trkpt>
      <trkpt lat="46.27912" lon="2.84059">
        <ele>480.4</ele>
        <time>2019-11-01T11:34:26Z</time>
      </trkpt>
      <trkpt lat="46.2791" lon="2.84054">
        <ele>480.3</ele>
        <time>2019-11-01T11:34:27Z</time>
      </trkpt>
      <trkpt lat="46.27908" lon="2.84049">
        <ele>480.3</ele>
        <time>2019-11-01T11:34:28Z</time>
      </trkpt>
      <trkpt lat="46.27906" lon="2.84043">
        <ele>480.2</ele>
        <time>2019-11-01T11:34:29Z</time>
      </trkpt>
      <trkpt lat="46.27903" lon="2.84037">
        <ele>480.2</ele>
        <time>2019-11-01T11:34:30Z</time>
      </trkpt>
      <trkpt lat="46.27901" lon="2.8403">
        <ele>480.2</ele>
        <time>2019-11-01T11:34:31Z</time>
      </trkpt>
      <trkpt lat="46.27899" lon="2.84023">
        <ele>480.2</ele>
        <time>2019-11-01T11:34:32Z</time>
      </trkpt>
      <trkpt lat="46.27897" lon="2.84015">
        <ele>480.3</ele>
        <time>2019-11-01T11:34:33Z</time>
      </trkpt>
      <trkpt lat="46.27895" lon="2.84008">
        <ele>480.3</ele>
        <time>2019-11-01T11:34:34Z</time>
      </trkpt>
      <trkpt lat="46.27893" lon="2.84">
        <ele>480.3</ele>
        <time>2019-11-01T11:34:35Z</time>
      </trkpt>
      <trkpt lat="46.2789" lon="2.83993">
        <ele>480.4</ele>
        <time>2019-11-01T11:34:36Z</time>
      </trkpt>
      <trkpt lat="46.27888" lon="2.83986">
        <ele>480.4</ele>
        <time>2019-11-01T11:34:37Z</time>
      </trkpt>
      <trkpt lat="46.27886" lon="2.83979">
        <ele>480.4</ele>
        <time>2019-11-01T11:34:38Z</time>
      </trkpt>
      <trkpt lat="46.27883" lon="2.83972">
        <ele>480.4</ele>
        <time>2019-11-01T11:34:39Z</time>
      </trkpt>
      <trkpt lat="46.27881" lon="2.83965">
        <ele>480.4</ele>
        <time>2019-11-01T11:34:40Z</time>
      </trkpt>
      <trkpt lat="46.27879" lon="2.83958">
        <ele>480.4</ele>
        <time>2019-11-01T11:34:41Z</time>
      </trkpt>
      <trkpt lat="46.27876" lon="2.83951">
        <ele>480.4</ele>
        <time>2019-11-01T11:34:42Z</time>
      </trkpt>
      <trkpt lat="46.27874" lon="2.83944">
        <ele>480.3</ele>
        <time>2019-11-01T11:34:43Z</time>
      </trkpt>
      <trkpt lat="46.27872" lon="2.83938">
        <ele>480.3</ele>
        <time>2019-11-01T11:34:44Z</time>
      </trkpt>
      <trkpt lat="46.27869" lon="2.83931">
        <ele>480.2</ele>
        <time>2019-11-01T11:34:45Z</time>
      </trkpt>
      <trkpt lat="46.27867" lon="2.83924">
        <ele>480.1</ele>
        <time>2019-11-01T11:34:46Z</time>
      </trkpt>
      <trkpt lat="46.27865" lon="2.83917">
        <ele>480</ele>
        <time>2019-11-01T11:34:47Z</time>
      </trkpt>
      <trkpt lat="46.27863" lon="2.8391">
        <ele>479.9</ele>
        <time>2019-11-01T11:34:48Z</time>
      </trkpt>
      <trkpt lat="46.2786" lon="2.83903">
        <ele>479.8</ele>
        <time>2019-11-01T11:34:49Z</time>
      </trkpt>
      <trkpt lat="46.27858" lon="2.83899">
        <ele>479.7</ele>
        <time>2019-11-01T11:34:50Z</time>
      </trkpt>
      <trkpt lat="46.27855" lon="2.83894">
        <ele>479.6</ele>
        <time>2019-11-01T11:34:51Z</time>
      </trkpt>
      <trkpt lat="46.27851" lon="2.83891">
        <ele>479.5</ele>
        <time>2019-11-01T11:34:52Z</time>
      </trkpt>
      <trkpt lat="46.27847" lon="2.8389">
        <ele>479.4</ele>
        <time>2019-11-01T11:34:53Z</time>
      </trkpt>
      <trkpt lat="46.27843" lon="2.83892">
        <ele>479.3</ele>
        <time>2019-11-01T11:34:54Z</time>
      </trkpt>
      <trkpt lat="46.27839" lon="2.83895">
        <ele>479.3</ele>
        <time>2019-11-01T11:34:55Z</time>
      </trkpt>
      <trkpt lat="46.27835" lon="2.839">
        <ele>479.2</ele>
        <time>2019-11-01T11:34:56Z</time>
      </trkpt>
      <trkpt lat="46.27832" lon="2.83904">
        <ele>479.2</ele>
        <time>2019-11-01T11:34:57Z</time>
      </trkpt>
      <trkpt lat="46.27828" lon="2.83909">
        <ele>479.2</ele>
        <time>2019-11-01T11:34:58Z</time>
      </trkpt>
      <trkpt lat="46.27824" lon="2.83913">
        <ele>479.1</ele>
        <time>2019-11-01T11:34:59Z</time>
      </trkpt>
      <trkpt lat="46.27819" lon="2.83916">
        <ele>479.1</ele>
        <time>2019-11-01T11:35:00Z</time>
      </trkpt>
      <trkpt lat="46.27812" lon="2.83919">
        <ele>479.1</ele>
        <time>2019-11-01T11:35:01Z</time>
      </trkpt>
      <trkpt lat="46.27807" lon="2.8392">
        <ele>479</ele>
        <time>2019-11-01T11:35:02Z</time>
      </trkpt>
      <trkpt lat="46.27802" lon="2.83919">
        <ele>479</ele>
        <time>2019-11-01T11:35:03Z</time>
      </trkpt>
      <trkpt lat="46.27796" lon="2.83918">
        <ele>479</ele>
        <time>2019-11-01T11:35:04Z</time>
      </trkpt>
      <trkpt lat="46.27791" lon="2.83916">
        <ele>479</ele>
        <time>2019-11-01T11:35:05Z</time>
      </trkpt>
      <trkpt lat="46.27785" lon="2.83914">
        <ele>479</ele>
        <time>2019-11-01T11:35:06Z</time>
      </trkpt>
      <trkpt lat="46.2778" lon="2.83912">
        <ele>479</ele>
        <time>2019-11-01T11:35:07Z</time>
      </trkpt>
      <trkpt lat="46.27774" lon="2.8391">
        <ele>479</ele>
        <time>2019-11-01T11:35:08Z</time>
      </trkpt>
      <trkpt lat="46.27769" lon="2.83907">
        <ele>479</ele>
        <time>2019-11-01T11:35:09Z</time>
      </trkpt>
      <trkpt lat="46.27763" lon="2.83905">
        <ele>479</ele>
        <time>2019-11-01T11:35:10Z</time>
      </trkpt>
      <trkpt lat="46.27758" lon="2.83902">
        <ele>479</ele>
        <time>2019-11-01T11:35:11Z</time>
      </trkpt>
      <trkpt lat="46.27753" lon="2.83898">
        <ele>479</ele>
        <time>2019-11-01T11:35:12Z</time>
      </trkpt>
      <trkpt lat="46.27747" lon="2.83894">
        <ele>479</ele>
        <time>2019-11-01T11:35:13Z</time>
      </trkpt>
      <trkpt lat="46.27743" lon="2.83891">
        <ele>479</ele>
        <time>2019-11-01T11:35:14Z</time>
      </trkpt>
      <trkpt lat="46.27738" lon="2.83886">
        <ele>478.9</ele>
        <time>2019-11-01T11:35:15Z</time>
      </trkpt>
      <trkpt lat="46.27733" lon="2.8388">
        <ele>478.9</ele>
        <time>2019-11-01T11:35:16Z</time>
      </trkpt>
      <trkpt lat="46.27729" lon="2.83874">
        <ele>478.9</ele>
        <time>2019-11-01T11:35:17Z</time>
      </trkpt>
      <trkpt lat="46.27726" lon="2.83868">
        <ele>478.8</ele>
        <time>2019-11-01T11:35:18Z</time>
      </trkpt>
      <trkpt lat="46.27723" lon="2.83862">
        <ele>478.7</ele>
        <time>2019-11-01T11:35:19Z</time>
      </trkpt>
      <trkpt lat="46.2772" lon="2.83856">
        <ele>478.6</ele>
        <time>2019-11-01T11:35:20Z</time>
      </trkpt>
      <trkpt lat="46.27716" lon="2.83848">
        <ele>478.4</ele>
        <time>2019-11-01T11:35:21Z</time>
      </trkpt>
      <trkpt lat="46.27714" lon="2.83841">
        <ele>478.3</ele>
        <time>2019-11-01T11:35:22Z</time>
      </trkpt>
      <trkpt lat="46.27712" lon="2.83835">
        <ele>478.2</ele>
        <time>2019-11-01T11:35:23Z</time>
      </trkpt>
      <trkpt lat="46.2771" lon="2.83828">
        <ele>478.1</ele>
        <time>2019-11-01T11:35:24Z</time>
      </trkpt>
      <trkpt lat="46.27708" lon="2.8382">
        <ele>478</ele>
        <time>2019-11-01T11:35:25Z</time>
      </trkpt>
      <trkpt lat="46.27706" lon="2.83813">
        <ele>477.9</ele>
        <time>2019-11-01T11:35:26Z</time>
      </trkpt>
      <trkpt lat="46.27703" lon="2.83803">
        <ele>477.9</ele>
        <time>2019-11-01T11:35:27Z</time>
      </trkpt>
      <trkpt lat="46.27702" lon="2.83797">
        <ele>477.8</ele>
        <time>2019-11-01T11:35:28Z</time>
      </trkpt>
      <trkpt lat="46.27699" lon="2.83789">
        <ele>477.7</ele>
        <time>2019-11-01T11:35:29Z</time>
      </trkpt>
      <trkpt lat="46.27697" lon="2.83782">
        <ele>477.6</ele>
        <time>2019-11-01T11:35:30Z</time>
      </trkpt>
      <trkpt lat="46.27693" lon="2.83772">
        <ele>477.4</ele>
        <time>2019-11-01T11:35:31Z</time>
      </trkpt>
      <trkpt lat="46.2769" lon="2.83765">
        <ele>477.2</ele>
        <time>2019-11-01T11:35:32Z</time>
      </trkpt>
      <trkpt lat="46.27687" lon="2.83758">
        <ele>477</ele>
        <time>2019-11-01T11:35:33Z</time>
      </trkpt>
      <trkpt lat="46.27683" lon="2.83751">
        <ele>476.9</ele>
        <time>2019-11-01T11:35:34Z</time>
      </trkpt>
      <trkpt lat="46.27679" lon="2.83743">
        <ele>476.7</ele>
        <time>2019-11-01T11:35:35Z</time>
      </trkpt>
      <trkpt lat="46.27675" lon="2.83738">
        <ele>476.5</ele>
        <time>2019-11-01T11:35:36Z</time>
      </trkpt>
      <trkpt lat="46.2767" lon="2.83732">
        <ele>476.3</ele>
        <time>2019-11-01T11:35:37Z</time>
      </trkpt>
      <trkpt lat="46.27667" lon="2.83728">
        <ele>476.1</ele>
        <time>2019-11-01T11:35:38Z</time>
      </trkpt>
      <trkpt lat="46.27662" lon="2.83722">
        <ele>475.9</ele>
        <time>2019-11-01T11:35:39Z</time>
      </trkpt>
      <trkpt lat="46.27658" lon="2.83717">
        <ele>475.7</ele>
        <time>2019-11-01T11:35:40Z</time>
      </trkpt>
      <trkpt lat="46.27653" lon="2.8371">
        <ele>475.4</ele>
        <time>2019-11-01T11:35:41Z</time>
      </trkpt>
      <trkpt lat="46.2765" lon="2.83705">
        <ele>475.2</ele>
        <time>2019-11-01T11:35:42Z</time>
      </trkpt>
      <trkpt lat="46.27645" lon="2.83699">
        <ele>475</ele>
        <time>2019-11-01T11:35:43Z</time>
      </trkpt>
      <trkpt lat="46.27641" lon="2.83693">
        <ele>474.8</ele>
        <time>2019-11-01T11:35:44Z</time>
      </trkpt>
      <trkpt lat="46.27636" lon="2.83687">
        <ele>474.6</ele>
        <time>2019-11-01T11:35:45Z</time>
      </trkpt>
      <trkpt lat="46.27632" lon="2.83682">
        <ele>474.4</ele>
        <time>2019-11-01T11:35:46Z</time>
      </trkpt>
      <trkpt lat="46.27628" lon="2.83677">
        <ele>474.3</ele>
        <time>2019-11-01T11:35:47Z</time>
      </trkpt>
      <trkpt lat="46.27625" lon="2.83671">
        <ele>474.1</ele>
        <time>2019-11-01T11:35:48Z</time>
      </trkpt>
      <trkpt lat="46.27622" lon="2.83665">
        <ele>474</ele>
        <time>2019-11-01T11:35:49Z</time>
      </trkpt>
      <trkpt lat="46.2762" lon="2.83658">
        <ele>473.8</ele>
        <time>2019-11-01T11:35:50Z</time>
      </trkpt>
      <trkpt lat="46.2762" lon="2.83651">
        <ele>473.7</ele>
        <time>2019-11-01T11:35:51Z</time>
      </trkpt>
      <trkpt lat="46.27621" lon="2.83643">
        <ele>473.6</ele>
        <time>2019-11-01T11:35:52Z</time>
      </trkpt>
      <trkpt lat="46.27623" lon="2.83636">
        <ele>473.5</ele>
        <time>2019-11-01T11:35:53Z</time>
      </trkpt>
      <trkpt lat="46.27626" lon="2.83629">
        <ele>473.4</ele>
        <time>2019-11-01T11:35:54Z</time>
      </trkpt>
      <trkpt lat="46.27629" lon="2.83621">
        <ele>473.2</ele>
        <time>2019-11-01T11:35:55Z</time>
      </trkpt>
      <trkpt lat="46.27633" lon="2.83614">
        <ele>473</ele>
        <time>2019-11-01T11:35:56Z</time>
      </trkpt>
      <trkpt lat="46.27636" lon="2.83608">
        <ele>472.8</ele>
        <time>2019-11-01T11:35:57Z</time>
      </trkpt>
      <trkpt lat="46.27639" lon="2.83601">
        <ele>472.6</ele>
        <time>2019-11-01T11:35:58Z</time>
      </trkpt>
      <trkpt lat="46.27643" lon="2.83594">
        <ele>472.3</ele>
        <time>2019-11-01T11:35:59Z</time>
      </trkpt>
      <trkpt lat="46.27648" lon="2.83585">
        <ele>471.9</ele>
        <time>2019-11-01T11:36:00Z</time>
      </trkpt>
      <trkpt lat="46.27652" lon="2.83578">
        <ele>471.5</ele>
        <time>2019-11-01T11:36:01Z</time>
      </trkpt>
      <trkpt lat="46.27655" lon="2.83571">
        <ele>471.3</ele>
        <time>2019-11-01T11:36:02Z</time>
      </trkpt>
      <trkpt lat="46.27658" lon="2.83564">
        <ele>471</ele>
        <time>2019-11-01T11:36:03Z</time>
      </trkpt>
      <trkpt lat="46.27663" lon="2.83554">
        <ele>470.6</ele>
        <time>2019-11-01T11:36:04Z</time>
      </trkpt>
      <trkpt lat="46.27667" lon="2.83547">
        <ele>470.2</ele>
        <time>2019-11-01T11:36:05Z</time>
      </trkpt>
      <trkpt lat="46.27671" lon="2.83539">
        <ele>469.8</ele>
        <time>2019-11-01T11:36:06Z</time>
      </trkpt>
      <trkpt lat="46.27674" lon="2.83532">
        <ele>469.5</ele>
        <time>2019-11-01T11:36:07Z</time>
      </trkpt>
      <trkpt lat="46.27678" lon="2.83524">
        <ele>469.1</ele>
        <time>2019-11-01T11:36:08Z</time>
      </trkpt>
      <trkpt lat="46.27682" lon="2.83514">
        <ele>468.5</ele>
        <time>2019-11-01T11:36:09Z</time>
      </trkpt>
      <trkpt lat="46.27686" lon="2.83506">
        <ele>467.9</ele>
        <time>2019-11-01T11:36:10Z</time>
      </trkpt>
      <trkpt lat="46.27689" lon="2.83497">
        <ele>467.3</ele>
        <time>2019-11-01T11:36:11Z</time>
      </trkpt>
      <trkpt lat="46.27693" lon="2.8349">
        <ele>466.8</ele>
        <time>2019-11-01T11:36:12Z</time>
      </trkpt>
      <trkpt lat="46.27697" lon="2.83482">
        <ele>466.3</ele>
        <time>2019-11-01T11:36:13Z</time>
      </trkpt>
      <trkpt lat="46.27702" lon="2.83474">
        <ele>465.8</ele>
        <time>2019-11-01T11:36:14Z</time>
      </trkpt>
      <trkpt lat="46.27708" lon="2.83467">
        <ele>465.1</ele>
        <time>2019-11-01T11:36:15Z</time>
      </trkpt>
      <trkpt lat="46.27714" lon="2.83464">
        <ele>464.6</ele>
        <time>2019-11-01T11:36:16Z</time>
      </trkpt>
      <trkpt lat="46.27721" lon="2.83462">
        <ele>464.1</ele>
        <time>2019-11-01T11:36:17Z</time>
      </trkpt>
      <trkpt lat="46.27729" lon="2.83461">
        <ele>463.7</ele>
        <time>2019-11-01T11:36:18Z</time>
      </trkpt>
      <trkpt lat="46.27738" lon="2.83462">
        <ele>463.3</ele>
        <time>2019-11-01T11:36:19Z</time>
      </trkpt>
      <trkpt lat="46.27746" lon="2.83463">
        <ele>463.1</ele>
        <time>2019-11-01T11:36:20Z</time>
      </trkpt>
      <trkpt lat="46.27752" lon="2.83462">
        <ele>463</ele>
        <time>2019-11-01T11:36:21Z</time>
      </trkpt>
      <trkpt lat="46.27758" lon="2.83458">
        <ele>462.9</ele>
        <time>2019-11-01T11:36:22Z</time>
      </trkpt>
      <trkpt lat="46.27763" lon="2.83452">
        <ele>462.9</ele>
        <time>2019-11-01T11:36:23Z</time>
      </trkpt>
      <trkpt lat="46.27766" lon="2.83445">
        <ele>462.8</ele>
        <time>2019-11-01T11:36:24Z</time>
      </trkpt>
      <trkpt lat="46.27768" lon="2.83437">
        <ele>462.8</ele>
        <time>2019-11-01T11:36:25Z</time>
      </trkpt>
      <trkpt lat="46.27769" lon="2.83428">
        <ele>462.8</ele>
        <time>2019-11-01T11:36:26Z</time>
      </trkpt>
      <trkpt lat="46.2777" lon="2.83419">
        <ele>462.8</ele>
        <time>2019-11-01T11:36:27Z</time>
      </trkpt>
      <trkpt lat="46.27771" lon="2.8341">
        <ele>462.8</ele>
        <time>2019-11-01T11:36:28Z</time>
      </trkpt>
      <trkpt lat="46.27771" lon="2.83401">
        <ele>462.9</ele>
        <time>2019-11-01T11:36:29Z</time>
      </trkpt>
      <trkpt lat="46.2777" lon="2.83391">
        <ele>463</ele>
        <time>2019-11-01T11:36:30Z</time>
      </trkpt>
      <trkpt lat="46.27769" lon="2.83382">
        <ele>463.2</ele>
        <time>2019-11-01T11:36:31Z</time>
      </trkpt>
      <trkpt lat="46.27769" lon="2.83373">
        <ele>463.4</ele>
        <time>2019-11-01T11:36:32Z</time>
      </trkpt>
      <trkpt lat="46.27769" lon="2.83364">
        <ele>463.6</ele>
        <time>2019-11-01T11:36:33Z</time>
      </trkpt>
      <trkpt lat="46.27769" lon="2.83355">
        <ele>463.8</ele>
        <time>2019-11-01T11:36:34Z</time>
      </trkpt>
      <trkpt lat="46.2777" lon="2.83347">
        <ele>464.1</ele>
        <time>2019-11-01T11:36:35Z</time>
      </trkpt>
      <trkpt lat="46.27772" lon="2.83339">
        <ele>464.4</ele>
        <time>2019-11-01T11:36:36Z</time>
      </trkpt>
      <trkpt lat="46.27775" lon="2.83332">
        <ele>464.6</ele>
        <time>2019-11-01T11:36:37Z</time>
      </trkpt>
      <trkpt lat="46.27777" lon="2.83326">
        <ele>464.7</ele>
        <time>2019-11-01T11:36:38Z</time>
      </trkpt>
      <trkpt lat="46.27779" lon="2.83316">
        <ele>465</ele>
        <time>2019-11-01T11:36:39Z</time>
      </trkpt>
      <trkpt lat="46.2778" lon="2.83309">
        <ele>465.1</ele>
        <time>2019-11-01T11:36:40Z</time>
      </trkpt>
      <trkpt lat="46.27781" lon="2.83302">
        <ele>465.2</ele>
        <time>2019-11-01T11:36:41Z</time>
      </trkpt>
      <trkpt lat="46.27781" lon="2.83296">
        <ele>465.3</ele>
        <time>2019-11-01T11:36:42Z</time>
      </trkpt>
      <trkpt lat="46.27781" lon="2.83287">
        <ele>465.4</ele>
        <time>2019-11-01T11:36:43Z</time>
      </trkpt>
      <trkpt lat="46.2778" lon="2.83279">
        <ele>465.5</ele>
        <time>2019-11-01T11:36:44Z</time>
      </trkpt>
      <trkpt lat="46.27779" lon="2.83271">
        <ele>465.6</ele>
        <time>2019-11-01T11:36:45Z</time>
      </trkpt>
      <trkpt lat="46.27778" lon="2.83265">
        <ele>465.7</ele>
        <time>2019-11-01T11:36:46Z</time>
      </trkpt>
      <trkpt lat="46.27777" lon="2.83257">
        <ele>465.9</ele>
        <time>2019-11-01T11:36:47Z</time>
      </trkpt>
      <trkpt lat="46.27776" lon="2.83247">
        <ele>466</ele>
        <time>2019-11-01T11:36:48Z</time>
      </trkpt>
      <trkpt lat="46.27776" lon="2.83238">
        <ele>466.1</ele>
        <time>2019-11-01T11:36:49Z</time>
      </trkpt>
      <trkpt lat="46.27776" lon="2.83232">
        <ele>466.2</ele>
        <time>2019-11-01T11:36:50Z</time>
      </trkpt>
      <trkpt lat="46.27776" lon="2.83224">
        <ele>466.3</ele>
        <time>2019-11-01T11:36:51Z</time>
      </trkpt>
      <trkpt lat="46.27777" lon="2.83216">
        <ele>466.4</ele>
        <time>2019-11-01T11:36:52Z</time>
      </trkpt>
      <trkpt lat="46.27779" lon="2.83207">
        <ele>466.5</ele>
        <time>2019-11-01T11:36:53Z</time>
      </trkpt>
      <trkpt lat="46.27779" lon="2.83199">
        <ele>466.6</ele>
        <time>2019-11-01T11:36:54Z</time>
      </trkpt>
      <trkpt lat="46.27779" lon="2.83194">
        <ele>466.5</ele>
        <time>2019-11-01T11:36:55Z</time>
      </trkpt>
      <trkpt lat="46.27778" lon="2.83187">
        <ele>466.2</ele>
        <time>2019-11-01T11:36:56Z</time>
      </trkpt>
      <trkpt lat="46.27775" lon="2.83182">
        <ele>466.1</ele>
        <time>2019-11-01T11:36:57Z</time>
      </trkpt>
      <trkpt lat="46.27771" lon="2.83177">
        <ele>465.9</ele>
        <time>2019-11-01T11:36:58Z</time>
      </trkpt>
      <trkpt lat="46.27767" lon="2.83174">
        <ele>465.7</ele>
        <time>2019-11-01T11:36:59Z</time>
      </trkpt>
      <trkpt lat="46.27763" lon="2.83173">
        <ele>465.6</ele>
        <time>2019-11-01T11:37:00Z</time>
      </trkpt>
      <trkpt lat="46.27758" lon="2.83171">
        <ele>465.4</ele>
        <time>2019-11-01T11:37:01Z</time>
      </trkpt>
      <trkpt lat="46.27752" lon="2.8317">
        <ele>465.1</ele>
        <time>2019-11-01T11:37:02Z</time>
      </trkpt>
      <trkpt lat="46.27746" lon="2.8317">
        <ele>464.9</ele>
        <time>2019-11-01T11:37:03Z</time>
      </trkpt>
      <trkpt lat="46.27739" lon="2.8317">
        <ele>464.7</ele>
        <time>2019-11-01T11:37:04Z</time>
      </trkpt>
      <trkpt lat="46.27734" lon="2.8317">
        <ele>464.5</ele>
        <time>2019-11-01T11:37:05Z</time>
      </trkpt>
      <trkpt lat="46.27728" lon="2.83171">
        <ele>464.2</ele>
        <time>2019-11-01T11:37:06Z</time>
      </trkpt>
      <trkpt lat="46.27721" lon="2.83171">
        <ele>463.9</ele>
        <time>2019-11-01T11:37:07Z</time>
      </trkpt>
      <trkpt lat="46.27715" lon="2.83171">
        <ele>463.7</ele>
        <time>2019-11-01T11:37:08Z</time>
      </trkpt>
      <trkpt lat="46.27709" lon="2.8317">
        <ele>463.4</ele>
        <time>2019-11-01T11:37:09Z</time>
      </trkpt>
      <trkpt lat="46.27704" lon="2.83171">
        <ele>463.2</ele>
        <time>2019-11-01T11:37:10Z</time>
      </trkpt>
      <trkpt lat="46.27698" lon="2.83171">
        <ele>462.9</ele>
        <time>2019-11-01T11:37:11Z</time>
      </trkpt>
      <trkpt lat="46.2769" lon="2.83171">
        <ele>462.6</ele>
        <time>2019-11-01T11:37:12Z</time>
      </trkpt>
      <trkpt lat="46.27684" lon="2.83171">
        <ele>462.3</ele>
        <time>2019-11-01T11:37:13Z</time>
      </trkpt>
      <trkpt lat="46.27677" lon="2.83171">
        <ele>462</ele>
        <time>2019-11-01T11:37:14Z</time>
      </trkpt>
      <trkpt lat="46.27672" lon="2.83171">
        <ele>461.8</ele>
        <time>2019-11-01T11:37:15Z</time>
      </trkpt>
      <trkpt lat="46.27665" lon="2.83172">
        <ele>461.6</ele>
        <time>2019-11-01T11:37:16Z</time>
      </trkpt>
      <trkpt lat="46.27657" lon="2.83172">
        <ele>461.4</ele>
        <time>2019-11-01T11:37:17Z</time>
      </trkpt>
      <trkpt lat="46.2765" lon="2.83173">
        <ele>461.2</ele>
        <time>2019-11-01T11:37:18Z</time>
      </trkpt>
      <trkpt lat="46.27643" lon="2.83174">
        <ele>461</ele>
        <time>2019-11-01T11:37:19Z</time>
      </trkpt>
      <trkpt lat="46.27637" lon="2.83175">
        <ele>460.9</ele>
        <time>2019-11-01T11:37:20Z</time>
      </trkpt>
      <trkpt lat="46.2763" lon="2.83175">
        <ele>460.8</ele>
        <time>2019-11-01T11:37:21Z</time>
      </trkpt>
      <trkpt lat="46.27621" lon="2.83172">
        <ele>460.7</ele>
        <time>2019-11-01T11:37:22Z</time>
      </trkpt>
      <trkpt lat="46.27616" lon="2.83168">
        <ele>460.7</ele>
        <time>2019-11-01T11:37:23Z</time>
      </trkpt>
      <trkpt lat="46.27612" lon="2.83162">
        <ele>460.7</ele>
        <time>2019-11-01T11:37:24Z</time>
      </trkpt>
      <trkpt lat="46.2761" lon="2.83156">
        <ele>460.7</ele>
        <time>2019-11-01T11:37:25Z</time>
      </trkpt>
      <trkpt lat="46.27608" lon="2.83149">
        <ele>460.8</ele>
        <time>2019-11-01T11:37:26Z</time>
      </trkpt>
      <trkpt lat="46.27605" lon="2.8314">
        <ele>460.8</ele>
        <time>2019-11-01T11:37:27Z</time>
      </trkpt>
      <trkpt lat="46.27604" lon="2.83133">
        <ele>460.8</ele>
        <time>2019-11-01T11:37:28Z</time>
      </trkpt>
      <trkpt lat="46.27603" lon="2.83127">
        <ele>460.9</ele>
        <time>2019-11-01T11:37:29Z</time>
      </trkpt>
      <trkpt lat="46.27602" lon="2.83119">
        <ele>460.9</ele>
        <time>2019-11-01T11:37:30Z</time>
      </trkpt>
      <trkpt lat="46.276" lon="2.8311">
        <ele>461</ele>
        <time>2019-11-01T11:37:31Z</time>
      </trkpt>
      <trkpt lat="46.27599" lon="2.83103">
        <ele>461</ele>
        <time>2019-11-01T11:37:32Z</time>
      </trkpt>
      <trkpt lat="46.27598" lon="2.83096">
        <ele>461.1</ele>
        <time>2019-11-01T11:37:33Z</time>
      </trkpt>
      <trkpt lat="46.27597" lon="2.8309">
        <ele>461.1</ele>
        <time>2019-11-01T11:37:34Z</time>
      </trkpt>
      <trkpt lat="46.27595" lon="2.83083">
        <ele>461.1</ele>
        <time>2019-11-01T11:37:35Z</time>
      </trkpt>
      <trkpt lat="46.27593" lon="2.83076">
        <ele>461.2</ele>
        <time>2019-11-01T11:37:36Z</time>
      </trkpt>
      <trkpt lat="46.2759" lon="2.83069">
        <ele>461.2</ele>
        <time>2019-11-01T11:37:37Z</time>
      </trkpt>
      <trkpt lat="46.27587" lon="2.83063">
        <ele>461.2</ele>
        <time>2019-11-01T11:37:38Z</time>
      </trkpt>
      <trkpt lat="46.27584" lon="2.83059">
        <ele>461.2</ele>
        <time>2019-11-01T11:37:39Z</time>
      </trkpt>
      <trkpt lat="46.2758" lon="2.83054">
        <ele>461.2</ele>
        <time>2019-11-01T11:37:40Z</time>
      </trkpt>
      <trkpt lat="46.27576" lon="2.83047">
        <ele>461.1</ele>
        <time>2019-11-01T11:37:41Z</time>
      </trkpt>
      <trkpt lat="46.27572" lon="2.83043">
        <ele>461.1</ele>
        <time>2019-11-01T11:37:42Z</time>
      </trkpt>
      <trkpt lat="46.27567" lon="2.83037">
        <ele>461</ele>
        <time>2019-11-01T11:37:43Z</time>
      </trkpt>
      <trkpt lat="46.27564" lon="2.83032">
        <ele>461</ele>
        <time>2019-11-01T11:37:44Z</time>
      </trkpt>
      <trkpt lat="46.2756" lon="2.83027">
        <ele>461</ele>
        <time>2019-11-01T11:37:45Z</time>
      </trkpt>
      <trkpt lat="46.27555" lon="2.83021">
        <ele>460.9</ele>
        <time>2019-11-01T11:37:46Z</time>
      </trkpt>
      <trkpt lat="46.2755" lon="2.83015">
        <ele>460.8</ele>
        <time>2019-11-01T11:37:47Z</time>
      </trkpt>
      <trkpt lat="46.27547" lon="2.8301">
        <ele>460.8</ele>
        <time>2019-11-01T11:37:48Z</time>
      </trkpt>
      <trkpt lat="46.27542" lon="2.83005">
        <ele>460.7</ele>
        <time>2019-11-01T11:37:49Z</time>
      </trkpt>
      <trkpt lat="46.27537" lon="2.82997">
        <ele>460.7</ele>
        <time>2019-11-01T11:37:50Z</time>
      </trkpt>
      <trkpt lat="46.27532" lon="2.82991">
        <ele>460.6</ele>
        <time>2019-11-01T11:37:51Z</time>
      </trkpt>
      <trkpt lat="46.27528" lon="2.82985">
        <ele>460.6</ele>
        <time>2019-11-01T11:37:52Z</time>
      </trkpt>
      <trkpt lat="46.27525" lon="2.8298">
        <ele>460.6</ele>
        <time>2019-11-01T11:37:53Z</time>
      </trkpt>
      <trkpt lat="46.2752" lon="2.82974">
        <ele>460.6</ele>
        <time>2019-11-01T11:37:54Z</time>
      </trkpt>
      <trkpt lat="46.27514" lon="2.82968">
        <ele>460.5</ele>
        <time>2019-11-01T11:37:55Z</time>
      </trkpt>
      <trkpt lat="46.27509" lon="2.82963">
        <ele>460.5</ele>
        <time>2019-11-01T11:37:56Z</time>
      </trkpt>
      <trkpt lat="46.27504" lon="2.82958">
        <ele>460.5</ele>
        <time>2019-11-01T11:37:57Z</time>
      </trkpt>
      <trkpt lat="46.27499" lon="2.82954">
        <ele>460.5</ele>
        <time>2019-11-01T11:37:58Z</time>
      </trkpt>
      <trkpt lat="46.27494" lon="2.82951">
        <ele>460.5</ele>
        <time>2019-11-01T11:37:59Z</time>
      </trkpt>
      <trkpt lat="46.27488" lon="2.82947">
        <ele>460.5</ele>
        <time>2019-11-01T11:38:00Z</time>
      </trkpt>
      <trkpt lat="46.27482" lon="2.82943">
        <ele>460.5</ele>
        <time>2019-11-01T11:38:01Z</time>
      </trkpt>
      <trkpt lat="46.27477" lon="2.82939">
        <ele>460.5</ele>
        <time>2019-11-01T11:38:02Z</time>
      </trkpt>
      <trkpt lat="46.27472" lon="2.82936">
        <ele>460.5</ele>
        <time>2019-11-01T11:38:03Z</time>
      </trkpt>
      <trkpt lat="46.27467" lon="2.82933">
        <ele>460.4</ele>
        <time>2019-11-01T11:38:04Z</time>
      </trkpt>
      <trkpt lat="46.27461" lon="2.82928">
        <ele>460.3</ele>
        <time>2019-11-01T11:38:05Z</time>
      </trkpt>
      <trkpt lat="46.27456" lon="2.82924">
        <ele>460.3</ele>
        <time>2019-11-01T11:38:06Z</time>
      </trkpt>
      <trkpt lat="46.27451" lon="2.8292">
        <ele>460.2</ele>
        <time>2019-11-01T11:38:07Z</time>
      </trkpt>
      <trkpt lat="46.27446" lon="2.82916">
        <ele>460.1</ele>
        <time>2019-11-01T11:38:08Z</time>
      </trkpt>
      <trkpt lat="46.27442" lon="2.82914">
        <ele>460.1</ele>
        <time>2019-11-01T11:38:09Z</time>
      </trkpt>
      <trkpt lat="46.27436" lon="2.82909">
        <ele>460</ele>
        <time>2019-11-01T11:38:10Z</time>
      </trkpt>
      <trkpt lat="46.2743" lon="2.82906">
        <ele>459.9</ele>
        <time>2019-11-01T11:38:11Z</time>
      </trkpt>
      <trkpt lat="46.27425" lon="2.82903">
        <ele>459.8</ele>
        <time>2019-11-01T11:38:12Z</time>
      </trkpt>
      <trkpt lat="46.27421" lon="2.829">
        <ele>459.8</ele>
        <time>2019-11-01T11:38:13Z</time>
      </trkpt>
      <trkpt lat="46.27414" lon="2.82896">
        <ele>459.7</ele>
        <time>2019-11-01T11:38:14Z</time>
      </trkpt>
      <trkpt lat="46.27409" lon="2.82893">
        <ele>459.6</ele>
        <time>2019-11-01T11:38:15Z</time>
      </trkpt>
      <trkpt lat="46.27404" lon="2.8289">
        <ele>459.5</ele>
        <time>2019-11-01T11:38:16Z</time>
      </trkpt>
      <trkpt lat="46.27399" lon="2.82887">
        <ele>459.5</ele>
        <time>2019-11-01T11:38:17Z</time>
      </trkpt>
      <trkpt lat="46.27394" lon="2.82884">
        <ele>459.4</ele>
        <time>2019-11-01T11:38:18Z</time>
      </trkpt>
      <trkpt lat="46.27389" lon="2.82881">
        <ele>459.4</ele>
        <time>2019-11-01T11:38:19Z</time>
      </trkpt>
      <trkpt lat="46.27383" lon="2.82878">
        <ele>459.3</ele>
        <time>2019-11-01T11:38:20Z</time>
      </trkpt>
      <trkpt lat="46.27378" lon="2.82875">
        <ele>459.3</ele>
        <time>2019-11-01T11:38:21Z</time>
      </trkpt>
      <trkpt lat="46.27374" lon="2.82872">
        <ele>459.3</ele>
        <time>2019-11-01T11:38:22Z</time>
      </trkpt>
      <trkpt lat="46.27368" lon="2.82868">
        <ele>459.2</ele>
        <time>2019-11-01T11:38:23Z</time>
      </trkpt>
      <trkpt lat="46.27362" lon="2.82863">
        <ele>459.2</ele>
        <time>2019-11-01T11:38:24Z</time>
      </trkpt>
      <trkpt lat="46.27357" lon="2.82858">
        <ele>459.2</ele>
        <time>2019-11-01T11:38:25Z</time>
      </trkpt>
      <trkpt lat="46.27353" lon="2.82854">
        <ele>459.2</ele>
        <time>2019-11-01T11:38:26Z</time>
      </trkpt>
      <trkpt lat="46.27348" lon="2.82849">
        <ele>459.1</ele>
        <time>2019-11-01T11:38:27Z</time>
      </trkpt>
      <trkpt lat="46.27344" lon="2.82844">
        <ele>459.1</ele>
        <time>2019-11-01T11:38:28Z</time>
      </trkpt>
      <trkpt lat="46.27339" lon="2.82839">
        <ele>459.1</ele>
        <time>2019-11-01T11:38:29Z</time>
      </trkpt>
      <trkpt lat="46.27335" lon="2.82834">
        <ele>459.1</ele>
        <time>2019-11-01T11:38:30Z</time>
      </trkpt>
      <trkpt lat="46.27331" lon="2.82829">
        <ele>459.1</ele>
        <time>2019-11-01T11:38:31Z</time>
      </trkpt>
      <trkpt lat="46.27327" lon="2.82822">
        <ele>459.1</ele>
        <time>2019-11-01T11:38:32Z</time>
      </trkpt>
      <trkpt lat="46.27325" lon="2.82817">
        <ele>459</ele>
        <time>2019-11-01T11:38:33Z</time>
      </trkpt>
      <trkpt lat="46.27322" lon="2.82808">
        <ele>458.9</ele>
        <time>2019-11-01T11:38:34Z</time>
      </trkpt>
      <trkpt lat="46.27322" lon="2.82801">
        <ele>458.8</ele>
        <time>2019-11-01T11:38:35Z</time>
      </trkpt>
      <trkpt lat="46.27321" lon="2.82793">
        <ele>458.7</ele>
        <time>2019-11-01T11:38:36Z</time>
      </trkpt>
      <trkpt lat="46.27321" lon="2.82785">
        <ele>458.5</ele>
        <time>2019-11-01T11:38:37Z</time>
      </trkpt>
      <trkpt lat="46.27321" lon="2.82778">
        <ele>458.4</ele>
        <time>2019-11-01T11:38:38Z</time>
      </trkpt>
      <trkpt lat="46.2732" lon="2.82768">
        <ele>458.2</ele>
        <time>2019-11-01T11:38:39Z</time>
      </trkpt>
      <trkpt lat="46.2732" lon="2.8276">
        <ele>457.9</ele>
        <time>2019-11-01T11:38:40Z</time>
      </trkpt>
      <trkpt lat="46.27319" lon="2.82752">
        <ele>457.7</ele>
        <time>2019-11-01T11:38:41Z</time>
      </trkpt>
      <trkpt lat="46.27318" lon="2.82745">
        <ele>457.5</ele>
        <time>2019-11-01T11:38:42Z</time>
      </trkpt>
      <trkpt lat="46.27317" lon="2.82738">
        <ele>457.2</ele>
        <time>2019-11-01T11:38:43Z</time>
      </trkpt>
      <trkpt lat="46.27315" lon="2.82728">
        <ele>456.8</ele>
        <time>2019-11-01T11:38:44Z</time>
      </trkpt>
      <trkpt lat="46.27312" lon="2.8272">
        <ele>456.5</ele>
        <time>2019-11-01T11:38:45Z</time>
      </trkpt>
      <trkpt lat="46.2731" lon="2.82713">
        <ele>456.2</ele>
        <time>2019-11-01T11:38:46Z</time>
      </trkpt>
      <trkpt lat="46.27309" lon="2.82707">
        <ele>455.9</ele>
        <time>2019-11-01T11:38:47Z</time>
      </trkpt>
      <trkpt lat="46.27308" lon="2.82699">
        <ele>455.1</ele>
        <time>2019-11-01T11:38:48Z</time>
      </trkpt>
      <trkpt lat="46.2731" lon="2.82692">
        <ele>454.9</ele>
        <time>2019-11-01T11:38:49Z</time>
      </trkpt>
      <trkpt lat="46.27312" lon="2.82686">
        <ele>454.7</ele>
        <time>2019-11-01T11:38:50Z</time>
      </trkpt>
      <trkpt lat="46.27316" lon="2.82681">
        <ele>454.6</ele>
        <time>2019-11-01T11:38:51Z</time>
      </trkpt>
      <trkpt lat="46.27319" lon="2.82677">
        <ele>454.4</ele>
        <time>2019-11-01T11:38:52Z</time>
      </trkpt>
      <trkpt lat="46.27324" lon="2.82669">
        <ele>454.2</ele>
        <time>2019-11-01T11:38:53Z</time>
      </trkpt>
      <trkpt lat="46.27328" lon="2.82661">
        <ele>454</ele>
        <time>2019-11-01T11:38:54Z</time>
      </trkpt>
      <trkpt lat="46.27332" lon="2.82653">
        <ele>453.7</ele>
        <time>2019-11-01T11:38:55Z</time>
      </trkpt>
      <trkpt lat="46.27335" lon="2.82645">
        <ele>453.5</ele>
        <time>2019-11-01T11:38:56Z</time>
      </trkpt>
      <trkpt lat="46.27339" lon="2.82634">
        <ele>453.2</ele>
        <time>2019-11-01T11:38:57Z</time>
      </trkpt>
      <trkpt lat="46.27343" lon="2.8262">
        <ele>452.9</ele>
        <time>2019-11-01T11:38:58Z</time>
      </trkpt>
      <trkpt lat="46.27346" lon="2.82608">
        <ele>452.8</ele>
        <time>2019-11-01T11:38:59Z</time>
      </trkpt>
      <trkpt lat="46.2735" lon="2.82596">
        <ele>452.6</ele>
        <time>2019-11-01T11:39:00Z</time>
      </trkpt>
      <trkpt lat="46.27354" lon="2.82584">
        <ele>452.5</ele>
        <time>2019-11-01T11:39:01Z</time>
      </trkpt>
      <trkpt lat="46.27357" lon="2.82571">
        <ele>452.4</ele>
        <time>2019-11-01T11:39:02Z</time>
      </trkpt>
      <trkpt lat="46.2736" lon="2.82558">
        <ele>452.3</ele>
        <time>2019-11-01T11:39:03Z</time>
      </trkpt>
      <trkpt lat="46.27362" lon="2.82544">
        <ele>452.3</ele>
        <time>2019-11-01T11:39:04Z</time>
      </trkpt>
      <trkpt lat="46.27364" lon="2.82531">
        <ele>452.4</ele>
        <time>2019-11-01T11:39:05Z</time>
      </trkpt>
      <trkpt lat="46.27365" lon="2.82518">
        <ele>452.5</ele>
        <time>2019-11-01T11:39:06Z</time>
      </trkpt>
      <trkpt lat="46.27366" lon="2.82507">
        <ele>452.7</ele>
        <time>2019-11-01T11:39:07Z</time>
      </trkpt>
      <trkpt lat="46.27368" lon="2.82492">
        <ele>452.9</ele>
        <time>2019-11-01T11:39:08Z</time>
      </trkpt>
      <trkpt lat="46.27369" lon="2.82479">
        <ele>453</ele>
        <time>2019-11-01T11:39:09Z</time>
      </trkpt>
      <trkpt lat="46.2737" lon="2.82469">
        <ele>453</ele>
        <time>2019-11-01T11:39:10Z</time>
      </trkpt>
      <trkpt lat="46.2737" lon="2.82458">
        <ele>453</ele>
        <time>2019-11-01T11:39:11Z</time>
      </trkpt>
      <trkpt lat="46.2737" lon="2.82444">
        <ele>453</ele>
        <time>2019-11-01T11:39:12Z</time>
      </trkpt>
      <trkpt lat="46.2737" lon="2.82434">
        <ele>452.9</ele>
        <time>2019-11-01T11:39:13Z</time>
      </trkpt>
      <trkpt lat="46.27369" lon="2.82424">
        <ele>452.9</ele>
        <time>2019-11-01T11:39:14Z</time>
      </trkpt>
      <trkpt lat="46.27368" lon="2.82416">
        <ele>452.8</ele>
        <time>2019-11-01T11:39:15Z</time>
      </trkpt>
      <trkpt lat="46.27366" lon="2.82407">
        <ele>452.7</ele>
        <time>2019-11-01T11:39:16Z</time>
      </trkpt>
      <trkpt lat="46.27365" lon="2.82397">
        <ele>452.6</ele>
        <time>2019-11-01T11:39:17Z</time>
      </trkpt>
      <trkpt lat="46.27364" lon="2.8239">
        <ele>452.5</ele>
        <time>2019-11-01T11:39:18Z</time>
      </trkpt>
      <trkpt lat="46.27363" lon="2.82383">
        <ele>452.4</ele>
        <time>2019-11-01T11:39:19Z</time>
      </trkpt>
      <trkpt lat="46.27363" lon="2.82378">
        <ele>452.3</ele>
        <time>2019-11-01T11:39:20Z</time>
      </trkpt>
      <trkpt lat="46.27363" lon="2.82372">
        <ele>452.2</ele>
        <time>2019-11-01T11:39:21Z</time>
      </trkpt>
      <trkpt lat="46.27363" lon="2.82367">
        <ele>452.1</ele>
        <time>2019-11-01T11:39:22Z</time>
      </trkpt>
      <trkpt lat="46.27364" lon="2.82363">
        <ele>452.2</ele>
        <time>2019-11-01T11:39:23Z</time>
      </trkpt>
      <trkpt lat="46.27365" lon="2.8236">
        <ele>452.3</ele>
        <time>2019-11-01T11:39:24Z</time>
      </trkpt>
      <trkpt lat="46.27367" lon="2.82358">
        <ele>452.4</ele>
        <time>2019-11-01T11:39:25Z</time>
      </trkpt>
      <trkpt lat="46.27368" lon="2.82358">
        <ele>452.5</ele>
        <time>2019-11-01T11:39:26Z</time>
      </trkpt>
      <trkpt lat="46.27371" lon="2.82358">
        <ele>452.6</ele>
        <time>2019-11-01T11:39:27Z</time>
      </trkpt>
      <trkpt lat="46.27374" lon="2.82359">
        <ele>452.7</ele>
        <time>2019-11-01T11:39:28Z</time>
      </trkpt>
      <trkpt lat="46.27377" lon="2.8236">
        <ele>452.8</ele>
        <time>2019-11-01T11:39:29Z</time>
      </trkpt>
      <trkpt lat="46.2738" lon="2.82361">
        <ele>453</ele>
        <time>2019-11-01T11:39:30Z</time>
      </trkpt>
      <trkpt lat="46.27385" lon="2.82362">
        <ele>453.1</ele>
        <time>2019-11-01T11:39:31Z</time>
      </trkpt>
      <trkpt lat="46.27388" lon="2.82363">
        <ele>453.3</ele>
        <time>2019-11-01T11:39:32Z</time>
      </trkpt>
      <trkpt lat="46.27392" lon="2.82364">
        <ele>453.5</ele>
        <time>2019-11-01T11:39:33Z</time>
      </trkpt>
      <trkpt lat="46.27396" lon="2.82366">
        <ele>453.6</ele>
        <time>2019-11-01T11:39:34Z</time>
      </trkpt>
      <trkpt lat="46.27399" lon="2.82367">
        <ele>453.8</ele>
        <time>2019-11-01T11:39:35Z</time>
      </trkpt>
      <trkpt lat="46.27403" lon="2.82368">
        <ele>454</ele>
        <time>2019-11-01T11:39:36Z</time>
      </trkpt>
      <trkpt lat="46.27407" lon="2.82369">
        <ele>454.2</ele>
        <time>2019-11-01T11:39:37Z</time>
      </trkpt>
      <trkpt lat="46.27411" lon="2.8237">
        <ele>454.3</ele>
        <time>2019-11-01T11:39:38Z</time>
      </trkpt>
      <trkpt lat="46.27414" lon="2.82371">
        <ele>454.5</ele>
        <time>2019-11-01T11:39:39Z</time>
      </trkpt>
      <trkpt lat="46.27419" lon="2.82372">
        <ele>454.7</ele>
        <time>2019-11-01T11:39:40Z</time>
      </trkpt>
      <trkpt lat="46.27424" lon="2.82373">
        <ele>454.9</ele>
        <time>2019-11-01T11:39:41Z</time>
      </trkpt>
      <trkpt lat="46.27429" lon="2.82374">
        <ele>455.1</ele>
        <time>2019-11-01T11:39:42Z</time>
      </trkpt>
      <trkpt lat="46.27433" lon="2.82375">
        <ele>455.3</ele>
        <time>2019-11-01T11:39:43Z</time>
      </trkpt>
      <trkpt lat="46.27437" lon="2.82376">
        <ele>455.4</ele>
        <time>2019-11-01T11:39:44Z</time>
      </trkpt>
      <trkpt lat="46.27443" lon="2.82377">
        <ele>455.6</ele>
        <time>2019-11-01T11:39:45Z</time>
      </trkpt>
      <trkpt lat="46.27449" lon="2.82379">
        <ele>455.7</ele>
        <time>2019-11-01T11:39:46Z</time>
      </trkpt>
      <trkpt lat="46.27454" lon="2.8238">
        <ele>455.8</ele>
        <time>2019-11-01T11:39:47Z</time>
      </trkpt>
      <trkpt lat="46.2746" lon="2.82382">
        <ele>456</ele>
        <time>2019-11-01T11:39:48Z</time>
      </trkpt>
      <trkpt lat="46.27465" lon="2.82383">
        <ele>456.1</ele>
        <time>2019-11-01T11:39:49Z</time>
      </trkpt>
      <trkpt lat="46.2747" lon="2.82382">
        <ele>456.3</ele>
        <time>2019-11-01T11:39:50Z</time>
      </trkpt>
      <trkpt lat="46.27477" lon="2.82384">
        <ele>456.5</ele>
        <time>2019-11-01T11:39:51Z</time>
      </trkpt>
      <trkpt lat="46.27483" lon="2.82385">
        <ele>456.6</ele>
        <time>2019-11-01T11:39:52Z</time>
      </trkpt>
      <trkpt lat="46.27488" lon="2.82385">
        <ele>456.6</ele>
        <time>2019-11-01T11:39:53Z</time>
      </trkpt>
      <trkpt lat="46.27493" lon="2.82386">
        <ele>456.7</ele>
        <time>2019-11-01T11:39:54Z</time>
      </trkpt>
      <trkpt lat="46.27498" lon="2.82387">
        <ele>456.7</ele>
        <time>2019-11-01T11:39:55Z</time>
      </trkpt>
      <trkpt lat="46.27504" lon="2.82387">
        <ele>456.6</ele>
        <time>2019-11-01T11:39:56Z</time>
      </trkpt>
      <trkpt lat="46.27509" lon="2.82387">
        <ele>456.6</ele>
        <time>2019-11-01T11:39:57Z</time>
      </trkpt>
      <trkpt lat="46.27512" lon="2.82387">
        <ele>456.6</ele>
        <time>2019-11-01T11:39:58Z</time>
      </trkpt>
      <trkpt lat="46.27517" lon="2.82387">
        <ele>456.5</ele>
        <time>2019-11-01T11:39:59Z</time>
      </trkpt>
      <trkpt lat="46.27523" lon="2.82387">
        <ele>456.5</ele>
        <time>2019-11-01T11:40:00Z</time>
      </trkpt>
      <trkpt lat="46.27527" lon="2.82387">
        <ele>456.4</ele>
        <time>2019-11-01T11:40:01Z</time>
      </trkpt>
      <trkpt lat="46.27532" lon="2.82387">
        <ele>456.3</ele>
        <time>2019-11-01T11:40:02Z</time>
      </trkpt>
      <trkpt lat="46.27537" lon="2.82387">
        <ele>456.2</ele>
        <time>2019-11-01T11:40:03Z</time>
      </trkpt>
      <trkpt lat="46.27541" lon="2.82388">
        <ele>456.1</ele>
        <time>2019-11-01T11:40:04Z</time>
      </trkpt>
      <trkpt lat="46.27547" lon="2.82388">
        <ele>456</ele>
        <time>2019-11-01T11:40:05Z</time>
      </trkpt>
      <trkpt lat="46.27552" lon="2.82388">
        <ele>455.9</ele>
        <time>2019-11-01T11:40:06Z</time>
      </trkpt>
      <trkpt lat="46.27557" lon="2.82387">
        <ele>455.8</ele>
        <time>2019-11-01T11:40:07Z</time>
      </trkpt>
      <trkpt lat="46.27562" lon="2.82387">
        <ele>455.7</ele>
        <time>2019-11-01T11:40:08Z</time>
      </trkpt>
      <trkpt lat="46.27566" lon="2.82387">
        <ele>455.7</ele>
        <time>2019-11-01T11:40:09Z</time>
      </trkpt>
      <trkpt lat="46.27572" lon="2.82388">
        <ele>455.6</ele>
        <time>2019-11-01T11:40:10Z</time>
      </trkpt>
      <trkpt lat="46.27578" lon="2.82389">
        <ele>455.5</ele>
        <time>2019-11-01T11:40:11Z</time>
      </trkpt>
      <trkpt lat="46.27584" lon="2.82391">
        <ele>455.3</ele>
        <time>2019-11-01T11:40:12Z</time>
      </trkpt>
      <trkpt lat="46.2759" lon="2.82393">
        <ele>455.1</ele>
        <time>2019-11-01T11:40:13Z</time>
      </trkpt>
      <trkpt lat="46.27596" lon="2.82395">
        <ele>454.9</ele>
        <time>2019-11-01T11:40:14Z</time>
      </trkpt>
      <trkpt lat="46.27602" lon="2.82398">
        <ele>454.8</ele>
        <time>2019-11-01T11:40:15Z</time>
      </trkpt>
      <trkpt lat="46.27608" lon="2.824">
        <ele>454.7</ele>
        <time>2019-11-01T11:40:16Z</time>
      </trkpt>
      <trkpt lat="46.27614" lon="2.82403">
        <ele>454.6</ele>
        <time>2019-11-01T11:40:17Z</time>
      </trkpt>
      <trkpt lat="46.2762" lon="2.82407">
        <ele>454.5</ele>
        <time>2019-11-01T11:40:18Z</time>
      </trkpt>
      <trkpt lat="46.27626" lon="2.82412">
        <ele>454.3</ele>
        <time>2019-11-01T11:40:19Z</time>
      </trkpt>
      <trkpt lat="46.27632" lon="2.82416">
        <ele>454.1</ele>
        <time>2019-11-01T11:40:20Z</time>
      </trkpt>
      <trkpt lat="46.27638" lon="2.82421">
        <ele>453.9</ele>
        <time>2019-11-01T11:40:21Z</time>
      </trkpt>
      <trkpt lat="46.27643" lon="2.82426">
        <ele>453.8</ele>
        <time>2019-11-01T11:40:22Z</time>
      </trkpt>
      <trkpt lat="46.27649" lon="2.8243">
        <ele>453.8</ele>
        <time>2019-11-01T11:40:23Z</time>
      </trkpt>
      <trkpt lat="46.27655" lon="2.82435">
        <ele>453.8</ele>
        <time>2019-11-01T11:40:24Z</time>
      </trkpt>
      <trkpt lat="46.27661" lon="2.8244">
        <ele>453.7</ele>
        <time>2019-11-01T11:40:25Z</time>
      </trkpt>
      <trkpt lat="46.27667" lon="2.82445">
        <ele>453.7</ele>
        <time>2019-11-01T11:40:26Z</time>
      </trkpt>
      <trkpt lat="46.27673" lon="2.8245">
        <ele>453.7</ele>
        <time>2019-11-01T11:40:27Z</time>
      </trkpt>
      <trkpt lat="46.27679" lon="2.82454">
        <ele>453.6</ele>
        <time>2019-11-01T11:40:28Z</time>
      </trkpt>
      <trkpt lat="46.27686" lon="2.82458">
        <ele>453.5</ele>
        <time>2019-11-01T11:40:29Z</time>
      </trkpt>
      <trkpt lat="46.27692" lon="2.82461">
        <ele>453.3</ele>
        <time>2019-11-01T11:40:30Z</time>
      </trkpt>
      <trkpt lat="46.27699" lon="2.82464">
        <ele>453.1</ele>
        <time>2019-11-01T11:40:31Z</time>
      </trkpt>
      <trkpt lat="46.27704" lon="2.82466">
        <ele>453</ele>
        <time>2019-11-01T11:40:32Z</time>
      </trkpt>
      <trkpt lat="46.27711" lon="2.82469">
        <ele>452.9</ele>
        <time>2019-11-01T11:40:33Z</time>
      </trkpt>
      <trkpt lat="46.27718" lon="2.82472">
        <ele>452.8</ele>
        <time>2019-11-01T11:40:34Z</time>
      </trkpt>
      <trkpt lat="46.27724" lon="2.82474">
        <ele>452.8</ele>
        <time>2019-11-01T11:40:35Z</time>
      </trkpt>
      <trkpt lat="46.2773" lon="2.82477">
        <ele>452.8</ele>
        <time>2019-11-01T11:40:36Z</time>
      </trkpt>
      <trkpt lat="46.27736" lon="2.82479">
        <ele>452.8</ele>
        <time>2019-11-01T11:40:37Z</time>
      </trkpt>
      <trkpt lat="46.27741" lon="2.8248">
        <ele>452.8</ele>
        <time>2019-11-01T11:40:38Z</time>
      </trkpt>
      <trkpt lat="46.27744" lon="2.8248">
        <ele>452.8</ele>
        <time>2019-11-01T11:40:39Z</time>
      </trkpt>
      <trkpt lat="46.27746" lon="2.82478">
        <ele>452.7</ele>
        <time>2019-11-01T11:40:40Z</time>
      </trkpt>
      <trkpt lat="46.27747" lon="2.82475">
        <ele>452.5</ele>
        <time>2019-11-01T11:40:41Z</time>
      </trkpt>
      <trkpt lat="46.27747" lon="2.82471">
        <ele>452.4</ele>
        <time>2019-11-01T11:40:42Z</time>
      </trkpt>
      <trkpt lat="46.27747" lon="2.82466">
        <ele>452.2</ele>
        <time>2019-11-01T11:40:43Z</time>
      </trkpt>
      <trkpt lat="46.27747" lon="2.8246">
        <ele>451.9</ele>
        <time>2019-11-01T11:40:44Z</time>
      </trkpt>
      <trkpt lat="46.27746" lon="2.82454">
        <ele>451.8</ele>
        <time>2019-11-01T11:40:45Z</time>
      </trkpt>
      <trkpt lat="46.27746" lon="2.82447">
        <ele>451.6</ele>
        <time>2019-11-01T11:40:46Z</time>
      </trkpt>
      <trkpt lat="46.27745" lon="2.82441">
        <ele>451.5</ele>
        <time>2019-11-01T11:40:47Z</time>
      </trkpt>
      <trkpt lat="46.27744" lon="2.82435">
        <ele>451.4</ele>
        <time>2019-11-01T11:40:48Z</time>
      </trkpt>
      <trkpt lat="46.27743" lon="2.8243">
        <ele>451.2</ele>
        <time>2019-11-01T11:40:49Z</time>
      </trkpt>
      <trkpt lat="46.27741" lon="2.82424">
        <ele>451.1</ele>
        <time>2019-11-01T11:40:50Z</time>
      </trkpt>
      <trkpt lat="46.2774" lon="2.82417">
        <ele>450.9</ele>
        <time>2019-11-01T11:40:51Z</time>
      </trkpt>
      <trkpt lat="46.27738" lon="2.82411">
        <ele>450.7</ele>
        <time>2019-11-01T11:40:52Z</time>
      </trkpt>
      <trkpt lat="46.27737" lon="2.82405">
        <ele>450.5</ele>
        <time>2019-11-01T11:40:53Z</time>
      </trkpt>
      <trkpt lat="46.27736" lon="2.82399">
        <ele>450.1</ele>
        <time>2019-11-01T11:40:54Z</time>
      </trkpt>
      <trkpt lat="46.27734" lon="2.82393">
        <ele>450.1</ele>
        <time>2019-11-01T11:40:55Z</time>
      </trkpt>
      <trkpt lat="46.27732" lon="2.82387">
        <ele>449.8</ele>
        <time>2019-11-01T11:40:56Z</time>
      </trkpt>
      <trkpt lat="46.2773" lon="2.82381">
        <ele>449.7</ele>
        <time>2019-11-01T11:40:57Z</time>
      </trkpt>
      <trkpt lat="46.27727" lon="2.82375">
        <ele>449.5</ele>
        <time>2019-11-01T11:40:58Z</time>
      </trkpt>
      <trkpt lat="46.27725" lon="2.82368">
        <ele>449.3</ele>
        <time>2019-11-01T11:40:59Z</time>
      </trkpt>
      <trkpt lat="46.27723" lon="2.82362">
        <ele>449.1</ele>
        <time>2019-11-01T11:41:00Z</time>
      </trkpt>
      <trkpt lat="46.27721" lon="2.82355">
        <ele>449</ele>
        <time>2019-11-01T11:41:01Z</time>
      </trkpt>
      <trkpt lat="46.27719" lon="2.82349">
        <ele>448.9</ele>
        <time>2019-11-01T11:41:02Z</time>
      </trkpt>
      <trkpt lat="46.27717" lon="2.82343">
        <ele>448.5</ele>
        <time>2019-11-01T11:41:03Z</time>
      </trkpt>
      <trkpt lat="46.27715" lon="2.82337">
        <ele>448.3</ele>
        <time>2019-11-01T11:41:04Z</time>
      </trkpt>
      <trkpt lat="46.27714" lon="2.82331">
        <ele>447.9</ele>
        <time>2019-11-01T11:41:05Z</time>
      </trkpt>
      <trkpt lat="46.27712" lon="2.82325">
        <ele>447.7</ele>
        <time>2019-11-01T11:41:06Z</time>
      </trkpt>
      <trkpt lat="46.2771" lon="2.8232">
        <ele>447.5</ele>
        <time>2019-11-01T11:41:07Z</time>
      </trkpt>
      <trkpt lat="46.27709" lon="2.82315">
        <ele>447.3</ele>
        <time>2019-11-01T11:41:08Z</time>
      </trkpt>
      <trkpt lat="46.27707" lon="2.8231">
        <ele>447.1</ele>
        <time>2019-11-01T11:41:09Z</time>
      </trkpt>
      <trkpt lat="46.27706" lon="2.82306">
        <ele>446.6</ele>
        <time>2019-11-01T11:41:10Z</time>
      </trkpt>
      <trkpt lat="46.27705" lon="2.82301">
        <ele>446.4</ele>
        <time>2019-11-01T11:41:11Z</time>
      </trkpt>
      <trkpt lat="46.27704" lon="2.82297">
        <ele>446.2</ele>
        <time>2019-11-01T11:41:12Z</time>
      </trkpt>
      <trkpt lat="46.27702" lon="2.82292">
        <ele>445.9</ele>
        <time>2019-11-01T11:41:13Z</time>
      </trkpt>
      <trkpt lat="46.27701" lon="2.82287">
        <ele>445.7</ele>
        <time>2019-11-01T11:41:14Z</time>
      </trkpt>
      <trkpt lat="46.27699" lon="2.82282">
        <ele>445.4</ele>
        <time>2019-11-01T11:41:15Z</time>
      </trkpt>
      <trkpt lat="46.27698" lon="2.82277">
        <ele>445.2</ele>
        <time>2019-11-01T11:41:16Z</time>
      </trkpt>
      <trkpt lat="46.27696" lon="2.82271">
        <ele>444.7</ele>
        <time>2019-11-01T11:41:17Z</time>
      </trkpt>
      <trkpt lat="46.27694" lon="2.82265">
        <ele>444.5</ele>
        <time>2019-11-01T11:41:18Z</time>
      </trkpt>
      <trkpt lat="46.27693" lon="2.82259">
        <ele>444.3</ele>
        <time>2019-11-01T11:41:19Z</time>
      </trkpt>
      <trkpt lat="46.27692" lon="2.82254">
        <ele>443.9</ele>
        <time>2019-11-01T11:41:20Z</time>
      </trkpt>
      <trkpt lat="46.2769" lon="2.82249">
        <ele>443.6</ele>
        <time>2019-11-01T11:41:21Z</time>
      </trkpt>
      <trkpt lat="46.27689" lon="2.82244">
        <ele>443.4</ele>
        <time>2019-11-01T11:41:22Z</time>
      </trkpt>
      <trkpt lat="46.27688" lon="2.82238">
        <ele>443.1</ele>
        <time>2019-11-01T11:41:23Z</time>
      </trkpt>
      <trkpt lat="46.27686" lon="2.82233">
        <ele>442.7</ele>
        <time>2019-11-01T11:41:24Z</time>
      </trkpt>
      <trkpt lat="46.27685" lon="2.82228">
        <ele>442.5</ele>
        <time>2019-11-01T11:41:25Z</time>
      </trkpt>
      <trkpt lat="46.27683" lon="2.82223">
        <ele>442.4</ele>
        <time>2019-11-01T11:41:26Z</time>
      </trkpt>
      <trkpt lat="46.27682" lon="2.82218">
        <ele>442.2</ele>
        <time>2019-11-01T11:41:27Z</time>
      </trkpt>
      <trkpt lat="46.27681" lon="2.82213">
        <ele>442</ele>
        <time>2019-11-01T11:41:28Z</time>
      </trkpt>
      <trkpt lat="46.27679" lon="2.82208">
        <ele>441.9</ele>
        <time>2019-11-01T11:41:29Z</time>
      </trkpt>
      <trkpt lat="46.27678" lon="2.82203">
        <ele>441.7</ele>
        <time>2019-11-01T11:41:30Z</time>
      </trkpt>
      <trkpt lat="46.27678" lon="2.82198">
        <ele>441.2</ele>
        <time>2019-11-01T11:41:31Z</time>
      </trkpt>
      <trkpt lat="46.27677" lon="2.82194">
        <ele>441.2</ele>
        <time>2019-11-01T11:41:32Z</time>
      </trkpt>
      <trkpt lat="46.27676" lon="2.82191">
        <ele>440.9</ele>
        <time>2019-11-01T11:41:33Z</time>
      </trkpt>
      <trkpt lat="46.27675" lon="2.82187">
        <ele>440.7</ele>
        <time>2019-11-01T11:41:34Z</time>
      </trkpt>
      <trkpt lat="46.27674" lon="2.82182">
        <ele>440.4</ele>
        <time>2019-11-01T11:41:35Z</time>
      </trkpt>
      <trkpt lat="46.27673" lon="2.82178">
        <ele>440.2</ele>
        <time>2019-11-01T11:41:36Z</time>
      </trkpt>
      <trkpt lat="46.27672" lon="2.82173">
        <ele>439.7</ele>
        <time>2019-11-01T11:41:37Z</time>
      </trkpt>
      <trkpt lat="46.27671" lon="2.82168">
        <ele>439.5</ele>
        <time>2019-11-01T11:41:38Z</time>
      </trkpt>
      <trkpt lat="46.2767" lon="2.82162">
        <ele>439.4</ele>
        <time>2019-11-01T11:41:39Z</time>
      </trkpt>
      <trkpt lat="46.27669" lon="2.82157">
        <ele>439.2</ele>
        <time>2019-11-01T11:41:40Z</time>
      </trkpt>
      <trkpt lat="46.27668" lon="2.82151">
        <ele>438.8</ele>
        <time>2019-11-01T11:41:41Z</time>
      </trkpt>
      <trkpt lat="46.27667" lon="2.82146">
        <ele>438.6</ele>
        <time>2019-11-01T11:41:42Z</time>
      </trkpt>
      <trkpt lat="46.27666" lon="2.8214">
        <ele>438.4</ele>
        <time>2019-11-01T11:41:43Z</time>
      </trkpt>
      <trkpt lat="46.27665" lon="2.82136">
        <ele>438.2</ele>
        <time>2019-11-01T11:41:44Z</time>
      </trkpt>
      <trkpt lat="46.27665" lon="2.82131">
        <ele>438</ele>
        <time>2019-11-01T11:41:45Z</time>
      </trkpt>
      <trkpt lat="46.27664" lon="2.82125">
        <ele>437.7</ele>
        <time>2019-11-01T11:41:46Z</time>
      </trkpt>
      <trkpt lat="46.27664" lon="2.82119">
        <ele>437.5</ele>
        <time>2019-11-01T11:41:47Z</time>
      </trkpt>
      <trkpt lat="46.27664" lon="2.82112">
        <ele>437.1</ele>
        <time>2019-11-01T11:41:48Z</time>
      </trkpt>
      <trkpt lat="46.27663" lon="2.82106">
        <ele>436.8</ele>
        <time>2019-11-01T11:41:49Z</time>
      </trkpt>
      <trkpt lat="46.27663" lon="2.821">
        <ele>436.6</ele>
        <time>2019-11-01T11:41:50Z</time>
      </trkpt>
      <trkpt lat="46.27662" lon="2.82096">
        <ele>436.4</ele>
        <time>2019-11-01T11:41:51Z</time>
      </trkpt>
      <trkpt lat="46.27662" lon="2.82093">
        <ele>436.1</ele>
        <time>2019-11-01T11:41:52Z</time>
      </trkpt>
      <trkpt lat="46.27662" lon="2.8209">
        <ele>435.9</ele>
        <time>2019-11-01T11:41:53Z</time>
      </trkpt>
      <trkpt lat="46.27661" lon="2.82087">
        <ele>435.7</ele>
        <time>2019-11-01T11:41:54Z</time>
      </trkpt>
      <trkpt lat="46.27661" lon="2.82083">
        <ele>435.7</ele>
        <time>2019-11-01T11:41:55Z</time>
      </trkpt>
      <trkpt lat="46.2766" lon="2.82078">
        <ele>435.3</ele>
        <time>2019-11-01T11:41:56Z</time>
      </trkpt>
      <trkpt lat="46.27659" lon="2.82073">
        <ele>435.1</ele>
        <time>2019-11-01T11:41:57Z</time>
      </trkpt>
      <trkpt lat="46.27658" lon="2.82068">
        <ele>434.9</ele>
        <time>2019-11-01T11:41:58Z</time>
      </trkpt>
      <trkpt lat="46.27658" lon="2.82061">
        <ele>434.8</ele>
        <time>2019-11-01T11:41:59Z</time>
      </trkpt>
      <trkpt lat="46.27657" lon="2.82055">
        <ele>434.4</ele>
        <time>2019-11-01T11:42:00Z</time>
      </trkpt>
      <trkpt lat="46.27656" lon="2.82049">
        <ele>434.3</ele>
        <time>2019-11-01T11:42:01Z</time>
      </trkpt>
      <trkpt lat="46.27655" lon="2.82044">
        <ele>434.1</ele>
        <time>2019-11-01T11:42:02Z</time>
      </trkpt>
      <trkpt lat="46.27654" lon="2.82038">
        <ele>433.9</ele>
        <time>2019-11-01T11:42:03Z</time>
      </trkpt>
      <trkpt lat="46.27652" lon="2.82031">
        <ele>433.6</ele>
        <time>2019-11-01T11:42:04Z</time>
      </trkpt>
      <trkpt lat="46.2765" lon="2.82024">
        <ele>433.4</ele>
        <time>2019-11-01T11:42:05Z</time>
      </trkpt>
      <trkpt lat="46.27648" lon="2.82018">
        <ele>433.1</ele>
        <time>2019-11-01T11:42:06Z</time>
      </trkpt>
      <trkpt lat="46.27646" lon="2.82012">
        <ele>433</ele>
        <time>2019-11-01T11:42:07Z</time>
      </trkpt>
      <trkpt lat="46.27643" lon="2.82006">
        <ele>432.9</ele>
        <time>2019-11-01T11:42:08Z</time>
      </trkpt>
      <trkpt lat="46.2764" lon="2.82">
        <ele>432.7</ele>
        <time>2019-11-01T11:42:09Z</time>
      </trkpt>
      <trkpt lat="46.27638" lon="2.81993">
        <ele>432.6</ele>
        <time>2019-11-01T11:42:10Z</time>
      </trkpt>
      <trkpt lat="46.27635" lon="2.81986">
        <ele>432.5</ele>
        <time>2019-11-01T11:42:11Z</time>
      </trkpt>
      <trkpt lat="46.27632" lon="2.8198">
        <ele>432.3</ele>
        <time>2019-11-01T11:42:12Z</time>
      </trkpt>
      <trkpt lat="46.27629" lon="2.81973">
        <ele>432.1</ele>
        <time>2019-11-01T11:42:13Z</time>
      </trkpt>
      <trkpt lat="46.27626" lon="2.81965">
        <ele>431.9</ele>
        <time>2019-11-01T11:42:14Z</time>
      </trkpt>
      <trkpt lat="46.27623" lon="2.81958">
        <ele>431.8</ele>
        <time>2019-11-01T11:42:15Z</time>
      </trkpt>
      <trkpt lat="46.2762" lon="2.81952">
        <ele>431.6</ele>
        <time>2019-11-01T11:42:16Z</time>
      </trkpt>
      <trkpt lat="46.27617" lon="2.81944">
        <ele>431.5</ele>
        <time>2019-11-01T11:42:17Z</time>
      </trkpt>
      <trkpt lat="46.27614" lon="2.81937">
        <ele>431.5</ele>
        <time>2019-11-01T11:42:18Z</time>
      </trkpt>
      <trkpt lat="46.27611" lon="2.81929">
        <ele>431.3</ele>
        <time>2019-11-01T11:42:19Z</time>
      </trkpt>
      <trkpt lat="46.27608" lon="2.81922">
        <ele>431.1</ele>
        <time>2019-11-01T11:42:20Z</time>
      </trkpt>
      <trkpt lat="46.27605" lon="2.81914">
        <ele>430.9</ele>
        <time>2019-11-01T11:42:21Z</time>
      </trkpt>
      <trkpt lat="46.27603" lon="2.81906">
        <ele>430.7</ele>
        <time>2019-11-01T11:42:22Z</time>
      </trkpt>
      <trkpt lat="46.276" lon="2.81899">
        <ele>430.7</ele>
        <time>2019-11-01T11:42:23Z</time>
      </trkpt>
      <trkpt lat="46.27597" lon="2.81892">
        <ele>430.4</ele>
        <time>2019-11-01T11:42:24Z</time>
      </trkpt>
      <trkpt lat="46.27594" lon="2.81884">
        <ele>430</ele>
        <time>2019-11-01T11:42:25Z</time>
      </trkpt>
      <trkpt lat="46.27591" lon="2.81876">
        <ele>429.7</ele>
        <time>2019-11-01T11:42:26Z</time>
      </trkpt>
      <trkpt lat="46.27589" lon="2.81868">
        <ele>429.6</ele>
        <time>2019-11-01T11:42:27Z</time>
      </trkpt>
      <trkpt lat="46.27587" lon="2.81861">
        <ele>429.4</ele>
        <time>2019-11-01T11:42:28Z</time>
      </trkpt>
      <trkpt lat="46.27584" lon="2.81853">
        <ele>429.2</ele>
        <time>2019-11-01T11:42:29Z</time>
      </trkpt>
      <trkpt lat="46.27582" lon="2.81846">
        <ele>428.8</ele>
        <time>2019-11-01T11:42:30Z</time>
      </trkpt>
      <trkpt lat="46.2758" lon="2.81841">
        <ele>428.8</ele>
        <time>2019-11-01T11:42:31Z</time>
      </trkpt>
      <trkpt lat="46.27578" lon="2.81834">
        <ele>428.8</ele>
        <time>2019-11-01T11:42:32Z</time>
      </trkpt>
      <trkpt lat="46.27577" lon="2.81826">
        <ele>428.3</ele>
        <time>2019-11-01T11:42:33Z</time>
      </trkpt>
      <trkpt lat="46.27576" lon="2.81819">
        <ele>427.9</ele>
        <time>2019-11-01T11:42:34Z</time>
      </trkpt>
      <trkpt lat="46.27575" lon="2.81812">
        <ele>427.8</ele>
        <time>2019-11-01T11:42:35Z</time>
      </trkpt>
      <trkpt lat="46.27576" lon="2.81804">
        <ele>427.4</ele>
        <time>2019-11-01T11:42:36Z</time>
      </trkpt>
      <trkpt lat="46.27577" lon="2.81797">
        <ele>427.1</ele>
        <time>2019-11-01T11:42:37Z</time>
      </trkpt>
      <trkpt lat="46.27579" lon="2.81789">
        <ele>426.7</ele>
        <time>2019-11-01T11:42:38Z</time>
      </trkpt>
      <trkpt lat="46.2758" lon="2.81781">
        <ele>426.5</ele>
        <time>2019-11-01T11:42:39Z</time>
      </trkpt>
      <trkpt lat="46.27581" lon="2.81773">
        <ele>426.3</ele>
        <time>2019-11-01T11:42:40Z</time>
      </trkpt>
      <trkpt lat="46.27582" lon="2.81765">
        <ele>426</ele>
        <time>2019-11-01T11:42:41Z</time>
      </trkpt>
      <trkpt lat="46.27583" lon="2.81758">
        <ele>425.9</ele>
        <time>2019-11-01T11:42:42Z</time>
      </trkpt>
      <trkpt lat="46.27583" lon="2.8175">
        <ele>425.7</ele>
        <time>2019-11-01T11:42:43Z</time>
      </trkpt>
      <trkpt lat="46.27584" lon="2.81742">
        <ele>425.6</ele>
        <time>2019-11-01T11:42:44Z</time>
      </trkpt>
      <trkpt lat="46.27584" lon="2.81735">
        <ele>425.6</ele>
        <time>2019-11-01T11:42:45Z</time>
      </trkpt>
      <trkpt lat="46.27584" lon="2.81727">
        <ele>425.6</ele>
        <time>2019-11-01T11:42:46Z</time>
      </trkpt>
      <trkpt lat="46.27584" lon="2.81719">
        <ele>425.6</ele>
        <time>2019-11-01T11:42:47Z</time>
      </trkpt>
      <trkpt lat="46.27583" lon="2.81712">
        <ele>425.6</ele>
        <time>2019-11-01T11:42:48Z</time>
      </trkpt>
      <trkpt lat="46.27582" lon="2.81704">
        <ele>425.6</ele>
        <time>2019-11-01T11:42:49Z</time>
      </trkpt>
      <trkpt lat="46.27581" lon="2.81696">
        <ele>425.7</ele>
        <time>2019-11-01T11:42:50Z</time>
      </trkpt>
      <trkpt lat="46.27581" lon="2.81689">
        <ele>425.6</ele>
        <time>2019-11-01T11:42:51Z</time>
      </trkpt>
      <trkpt lat="46.27582" lon="2.81681">
        <ele>425.4</ele>
        <time>2019-11-01T11:42:52Z</time>
      </trkpt>
      <trkpt lat="46.27583" lon="2.81674">
        <ele>425.2</ele>
        <time>2019-11-01T11:42:53Z</time>
      </trkpt>
      <trkpt lat="46.27584" lon="2.81667">
        <ele>425.2</ele>
        <time>2019-11-01T11:42:54Z</time>
      </trkpt>
      <trkpt lat="46.27586" lon="2.8166">
        <ele>424.9</ele>
        <time>2019-11-01T11:42:55Z</time>
      </trkpt>
      <trkpt lat="46.27587" lon="2.81653">
        <ele>424.6</ele>
        <time>2019-11-01T11:42:56Z</time>
      </trkpt>
      <trkpt lat="46.27589" lon="2.81646">
        <ele>424.5</ele>
        <time>2019-11-01T11:42:57Z</time>
      </trkpt>
      <trkpt lat="46.27591" lon="2.81639">
        <ele>424.3</ele>
        <time>2019-11-01T11:42:58Z</time>
      </trkpt>
      <trkpt lat="46.27592" lon="2.81632">
        <ele>424.3</ele>
        <time>2019-11-01T11:42:59Z</time>
      </trkpt>
      <trkpt lat="46.27593" lon="2.81624">
        <ele>424.2</ele>
        <time>2019-11-01T11:43:00Z</time>
      </trkpt>
      <trkpt lat="46.27593" lon="2.81616">
        <ele>424.2</ele>
        <time>2019-11-01T11:43:01Z</time>
      </trkpt>
      <trkpt lat="46.27594" lon="2.81609">
        <ele>424</ele>
        <time>2019-11-01T11:43:02Z</time>
      </trkpt>
      <trkpt lat="46.27594" lon="2.81603">
        <ele>424</ele>
        <time>2019-11-01T11:43:03Z</time>
      </trkpt>
      <trkpt lat="46.27593" lon="2.81597">
        <ele>423.9</ele>
        <time>2019-11-01T11:43:04Z</time>
      </trkpt>
      <trkpt lat="46.27593" lon="2.8159">
        <ele>423.8</ele>
        <time>2019-11-01T11:43:05Z</time>
      </trkpt>
      <trkpt lat="46.27594" lon="2.81583">
        <ele>423.7</ele>
        <time>2019-11-01T11:43:06Z</time>
      </trkpt>
      <trkpt lat="46.27594" lon="2.81574">
        <ele>423.5</ele>
        <time>2019-11-01T11:43:07Z</time>
      </trkpt>
      <trkpt lat="46.27594" lon="2.81566">
        <ele>423.4</ele>
        <time>2019-11-01T11:43:08Z</time>
      </trkpt>
      <trkpt lat="46.27594" lon="2.81557">
        <ele>423.2</ele>
        <time>2019-11-01T11:43:09Z</time>
      </trkpt>
      <trkpt lat="46.27593" lon="2.81547">
        <ele>423</ele>
        <time>2019-11-01T11:43:10Z</time>
      </trkpt>
      <trkpt lat="46.27592" lon="2.81538">
        <ele>422.8</ele>
        <time>2019-11-01T11:43:11Z</time>
      </trkpt>
      <trkpt lat="46.27591" lon="2.8153">
        <ele>422.6</ele>
        <time>2019-11-01T11:43:12Z</time>
      </trkpt>
      <trkpt lat="46.27589" lon="2.81522">
        <ele>422.4</ele>
        <time>2019-11-01T11:43:13Z</time>
      </trkpt>
      <trkpt lat="46.27587" lon="2.81515">
        <ele>422.2</ele>
        <time>2019-11-01T11:43:14Z</time>
      </trkpt>
      <trkpt lat="46.27586" lon="2.81508">
        <ele>422.1</ele>
        <time>2019-11-01T11:43:21Z</time>
      </trkpt>
      <trkpt lat="46.27586" lon="2.81502">
        <ele>422</ele>
        <time>2019-11-01T11:43:22Z</time>
      </trkpt>
      <trkpt lat="46.27586" lon="2.81496">
        <ele>422</ele>
        <time>2019-11-01T11:43:23Z</time>
      </trkpt>
      <trkpt lat="46.27587" lon="2.81489">
        <ele>422</ele>
        <time>2019-11-01T11:43:24Z</time>
      </trkpt>
      <trkpt lat="46.27587" lon="2.81483">
        <ele>422</ele>
        <time>2019-11-01T11:43:25Z</time>
      </trkpt>
      <trkpt lat="46.27588" lon="2.81476">
        <ele>422.1</ele>
        <time>2019-11-01T11:43:26Z</time>
      </trkpt>
      <trkpt lat="46.27589" lon="2.81469">
        <ele>422.1</ele>
        <time>2019-11-01T11:43:27Z</time>
      </trkpt>
      <trkpt lat="46.27589" lon="2.81462">
        <ele>422.2</ele>
        <time>2019-11-01T11:43:28Z</time>
      </trkpt>
      <trkpt lat="46.27589" lon="2.81456">
        <ele>422.2</ele>
        <time>2019-11-01T11:43:29Z</time>
      </trkpt>
      <trkpt lat="46.27589" lon="2.8145">
        <ele>422.2</ele>
        <time>2019-11-01T11:43:30Z</time>
      </trkpt>
      <trkpt lat="46.27589" lon="2.81444">
        <ele>422.3</ele>
        <time>2019-11-01T11:43:31Z</time>
      </trkpt>
      <trkpt lat="46.27589" lon="2.81441">
        <ele>422.3</ele>
        <time>2019-11-01T11:43:32Z</time>
      </trkpt>
      <trkpt lat="46.27588" lon="2.81438">
        <ele>422.3</ele>
        <time>2019-11-01T11:43:33Z</time>
      </trkpt>
      <trkpt lat="46.27588" lon="2.81437">
        <ele>422.3</ele>
        <time>2019-11-01T11:43:34Z</time>
      </trkpt>
      <trkpt lat="46.27589" lon="2.81438">
        <ele>422.3</ele>
        <time>2019-11-01T11:43:35Z</time>
      </trkpt>
      <trkpt lat="46.27591" lon="2.8144">
        <ele>422.3</ele>
        <time>2019-11-01T11:43:36Z</time>
      </trkpt>
      <trkpt lat="46.27593" lon="2.81442">
        <ele>422.3</ele>
        <time>2019-11-01T11:43:37Z</time>
      </trkpt>
      <trkpt lat="46.27594" lon="2.81443">
        <ele>422.7</ele>
        <time>2019-11-01T11:43:38Z</time>
      </trkpt>
      <trkpt lat="46.27596" lon="2.81445">
        <ele>422.8</ele>
        <time>2019-11-01T11:43:39Z</time>
      </trkpt>
      <trkpt lat="46.27598" lon="2.81447">
        <ele>422.9</ele>
        <time>2019-11-01T11:43:40Z</time>
      </trkpt>
      <trkpt lat="46.276" lon="2.81449">
        <ele>423</ele>
        <time>2019-11-01T11:43:41Z</time>
      </trkpt>
      <trkpt lat="46.27601" lon="2.81451">
        <ele>423.1</ele>
        <time>2019-11-01T11:43:42Z</time>
      </trkpt>
      <trkpt lat="46.27603" lon="2.81453">
        <ele>423.2</ele>
        <time>2019-11-01T11:43:43Z</time>
      </trkpt>
      <trkpt lat="46.27605" lon="2.81454">
        <ele>423.3</ele>
        <time>2019-11-01T11:43:44Z</time>
      </trkpt>
      <trkpt lat="46.27608" lon="2.81457">
        <ele>423.5</ele>
        <time>2019-11-01T11:43:45Z</time>
      </trkpt>
      <trkpt lat="46.27612" lon="2.81459">
        <ele>423.6</ele>
        <time>2019-11-01T11:43:46Z</time>
      </trkpt>
      <trkpt lat="46.27616" lon="2.81461">
        <ele>423.8</ele>
        <time>2019-11-01T11:43:47Z</time>
      </trkpt>
      <trkpt lat="46.27619" lon="2.81462">
        <ele>423.9</ele>
        <time>2019-11-01T11:43:48Z</time>
      </trkpt>
      <trkpt lat="46.27623" lon="2.81464">
        <ele>424</ele>
        <time>2019-11-01T11:43:49Z</time>
      </trkpt>
      <trkpt lat="46.27628" lon="2.81466">
        <ele>424.2</ele>
        <time>2019-11-01T11:43:50Z</time>
      </trkpt>
      <trkpt lat="46.27632" lon="2.81468">
        <ele>424.3</ele>
        <time>2019-11-01T11:43:51Z</time>
      </trkpt>
      <trkpt lat="46.27636" lon="2.81469">
        <ele>424.4</ele>
        <time>2019-11-01T11:43:52Z</time>
      </trkpt>
      <trkpt lat="46.2764" lon="2.8147">
        <ele>424.6</ele>
        <time>2019-11-01T11:43:53Z</time>
      </trkpt>
      <trkpt lat="46.27643" lon="2.81471">
        <ele>424.7</ele>
        <time>2019-11-01T11:43:54Z</time>
      </trkpt>
      <trkpt lat="46.27646" lon="2.81472">
        <ele>424.9</ele>
        <time>2019-11-01T11:43:55Z</time>
      </trkpt>
      <trkpt lat="46.27649" lon="2.81473">
        <ele>425</ele>
        <time>2019-11-01T11:43:56Z</time>
      </trkpt>
      <trkpt lat="46.27652" lon="2.81473">
        <ele>425.2</ele>
        <time>2019-11-01T11:43:57Z</time>
      </trkpt>
      <trkpt lat="46.27656" lon="2.81474">
        <ele>425.5</ele>
        <time>2019-11-01T11:43:58Z</time>
      </trkpt>
      <trkpt lat="46.2766" lon="2.81475">
        <ele>425.8</ele>
        <time>2019-11-01T11:43:59Z</time>
      </trkpt>
      <trkpt lat="46.27663" lon="2.81476">
        <ele>426</ele>
        <time>2019-11-01T11:44:00Z</time>
      </trkpt>
      <trkpt lat="46.27667" lon="2.81476">
        <ele>426.2</ele>
        <time>2019-11-01T11:44:01Z</time>
      </trkpt>
      <trkpt lat="46.2767" lon="2.81477">
        <ele>426.4</ele>
        <time>2019-11-01T11:44:02Z</time>
      </trkpt>
      <trkpt lat="46.27674" lon="2.81477">
        <ele>426.6</ele>
        <time>2019-11-01T11:44:03Z</time>
      </trkpt>
      <trkpt lat="46.27677" lon="2.81478">
        <ele>426.8</ele>
        <time>2019-11-01T11:44:04Z</time>
      </trkpt>
      <trkpt lat="46.27681" lon="2.81479">
        <ele>426.9</ele>
        <time>2019-11-01T11:44:05Z</time>
      </trkpt>
      <trkpt lat="46.27684" lon="2.81479">
        <ele>427.1</ele>
        <time>2019-11-01T11:44:06Z</time>
      </trkpt>
      <trkpt lat="46.27687" lon="2.81479">
        <ele>427.3</ele>
        <time>2019-11-01T11:44:07Z</time>
      </trkpt>
      <trkpt lat="46.27691" lon="2.8148">
        <ele>427.5</ele>
        <time>2019-11-01T11:44:08Z</time>
      </trkpt>
      <trkpt lat="46.27694" lon="2.8148">
        <ele>427.7</ele>
        <time>2019-11-01T11:44:09Z</time>
      </trkpt>
      <trkpt lat="46.27698" lon="2.81481">
        <ele>428</ele>
        <time>2019-11-01T11:44:10Z</time>
      </trkpt>
      <trkpt lat="46.27702" lon="2.81481">
        <ele>428.4</ele>
        <time>2019-11-01T11:44:11Z</time>
      </trkpt>
      <trkpt lat="46.27705" lon="2.81482">
        <ele>428.6</ele>
        <time>2019-11-01T11:44:12Z</time>
      </trkpt>
      <trkpt lat="46.27708" lon="2.81482">
        <ele>428.8</ele>
        <time>2019-11-01T11:44:13Z</time>
      </trkpt>
      <trkpt lat="46.27711" lon="2.81482">
        <ele>429</ele>
        <time>2019-11-01T11:44:14Z</time>
      </trkpt>
      <trkpt lat="46.27714" lon="2.81483">
        <ele>429.2</ele>
        <time>2019-11-01T11:44:15Z</time>
      </trkpt>
      <trkpt lat="46.27716" lon="2.81483">
        <ele>429.3</ele>
        <time>2019-11-01T11:44:16Z</time>
      </trkpt>
      <trkpt lat="46.27719" lon="2.81484">
        <ele>429.4</ele>
        <time>2019-11-01T11:44:17Z</time>
      </trkpt>
      <trkpt lat="46.27721" lon="2.81484">
        <ele>429.6</ele>
        <time>2019-11-01T11:44:18Z</time>
      </trkpt>
      <trkpt lat="46.27723" lon="2.81485">
        <ele>429.6</ele>
        <time>2019-11-01T11:44:19Z</time>
      </trkpt>
      <trkpt lat="46.27726" lon="2.81486">
        <ele>429.8</ele>
        <time>2019-11-01T11:44:20Z</time>
      </trkpt>
      <trkpt lat="46.27729" lon="2.81486">
        <ele>429.9</ele>
        <time>2019-11-01T11:44:21Z</time>
      </trkpt>
      <trkpt lat="46.27732" lon="2.81487">
        <ele>430</ele>
        <time>2019-11-01T11:44:22Z</time>
      </trkpt>
      <trkpt lat="46.27735" lon="2.81486">
        <ele>430.1</ele>
        <time>2019-11-01T11:44:23Z</time>
      </trkpt>
      <trkpt lat="46.27737" lon="2.81485">
        <ele>430</ele>
        <time>2019-11-01T11:44:24Z</time>
      </trkpt>
      <trkpt lat="46.27738" lon="2.81483">
        <ele>429.9</ele>
        <time>2019-11-01T11:44:25Z</time>
      </trkpt>
      <trkpt lat="46.27738" lon="2.8148">
        <ele>429.8</ele>
        <time>2019-11-01T11:44:26Z</time>
      </trkpt>
      <trkpt lat="46.27738" lon="2.81477">
        <ele>429.7</ele>
        <time>2019-11-01T11:44:27Z</time>
      </trkpt>
      <trkpt lat="46.27737" lon="2.81474">
        <ele>429.6</ele>
        <time>2019-11-01T11:44:28Z</time>
      </trkpt>
      <trkpt lat="46.27736" lon="2.81471">
        <ele>429.5</ele>
        <time>2019-11-01T11:44:29Z</time>
      </trkpt>
      <trkpt lat="46.27735" lon="2.81469">
        <ele>429.4</ele>
        <time>2019-11-01T11:44:30Z</time>
      </trkpt>
      <trkpt lat="46.27734" lon="2.81468">
        <ele>429.4</ele>
        <time>2019-11-01T11:44:31Z</time>
      </trkpt>
      <trkpt lat="46.27734" lon="2.81467">
        <ele>429.3</ele>
        <time>2019-11-01T11:44:32Z</time>
      </trkpt>
      <trkpt lat="46.27734" lon="2.81467">
        <ele>429.3</ele>
        <time>2019-11-01T11:44:33Z</time>
      </trkpt>
      <trkpt lat="46.27733" lon="2.81467">
        <ele>429.3</ele>
        <time>2019-11-01T11:44:34Z</time>
      </trkpt>
      <trkpt lat="46.27731" lon="2.81462">
        <ele>429.1</ele>
        <time>2019-11-01T11:44:35Z</time>
      </trkpt>
      <trkpt lat="46.2773" lon="2.81459">
        <ele>429</ele>
        <time>2019-11-01T11:44:36Z</time>
      </trkpt>
      <trkpt lat="46.27728" lon="2.81456">
        <ele>428.8</ele>
        <time>2019-11-01T11:44:37Z</time>
      </trkpt>
      <trkpt lat="46.27726" lon="2.81453">
        <ele>428.7</ele>
        <time>2019-11-01T11:44:38Z</time>
      </trkpt>
      <trkpt lat="46.27724" lon="2.81449">
        <ele>428.5</ele>
        <time>2019-11-01T11:44:39Z</time>
      </trkpt>
      <trkpt lat="46.27722" lon="2.81445">
        <ele>428.3</ele>
        <time>2019-11-01T11:44:40Z</time>
      </trkpt>
      <trkpt lat="46.27719" lon="2.81441">
        <ele>428.1</ele>
        <time>2019-11-01T11:44:41Z</time>
      </trkpt>
      <trkpt lat="46.27717" lon="2.81437">
        <ele>427.9</ele>
        <time>2019-11-01T11:44:42Z</time>
      </trkpt>
      <trkpt lat="46.27714" lon="2.81432">
        <ele>427.7</ele>
        <time>2019-11-01T11:44:43Z</time>
      </trkpt>
      <trkpt lat="46.27711" lon="2.81427">
        <ele>427.5</ele>
        <time>2019-11-01T11:44:44Z</time>
      </trkpt>
      <trkpt lat="46.27708" lon="2.81422">
        <ele>427.2</ele>
        <time>2019-11-01T11:44:45Z</time>
      </trkpt>
      <trkpt lat="46.27706" lon="2.81416">
        <ele>427</ele>
        <time>2019-11-01T11:44:46Z</time>
      </trkpt>
      <trkpt lat="46.27703" lon="2.81411">
        <ele>426.7</ele>
        <time>2019-11-01T11:44:47Z</time>
      </trkpt>
      <trkpt lat="46.27699" lon="2.81405">
        <ele>426.5</ele>
        <time>2019-11-01T11:44:48Z</time>
      </trkpt>
      <trkpt lat="46.27696" lon="2.81398">
        <ele>426.2</ele>
        <time>2019-11-01T11:44:49Z</time>
      </trkpt>
      <trkpt lat="46.27692" lon="2.81392">
        <ele>426</ele>
        <time>2019-11-01T11:44:50Z</time>
      </trkpt>
      <trkpt lat="46.27689" lon="2.81385">
        <ele>425.7</ele>
        <time>2019-11-01T11:44:51Z</time>
      </trkpt>
      <trkpt lat="46.27685" lon="2.81378">
        <ele>425.4</ele>
        <time>2019-11-01T11:44:52Z</time>
      </trkpt>
      <trkpt lat="46.27682" lon="2.81371">
        <ele>425.2</ele>
        <time>2019-11-01T11:44:53Z</time>
      </trkpt>
      <trkpt lat="46.27678" lon="2.81364">
        <ele>425.1</ele>
        <time>2019-11-01T11:44:54Z</time>
      </trkpt>
      <trkpt lat="46.27674" lon="2.81357">
        <ele>424.9</ele>
        <time>2019-11-01T11:44:55Z</time>
      </trkpt>
      <trkpt lat="46.2767" lon="2.8135">
        <ele>424.7</ele>
        <time>2019-11-01T11:44:56Z</time>
      </trkpt>
      <trkpt lat="46.27666" lon="2.81343">
        <ele>424.5</ele>
        <time>2019-11-01T11:44:57Z</time>
      </trkpt>
      <trkpt lat="46.27662" lon="2.81335">
        <ele>424.3</ele>
        <time>2019-11-01T11:44:58Z</time>
      </trkpt>
      <trkpt lat="46.27658" lon="2.81328">
        <ele>424</ele>
        <time>2019-11-01T11:44:59Z</time>
      </trkpt>
      <trkpt lat="46.27653" lon="2.8132">
        <ele>423.6</ele>
        <time>2019-11-01T11:45:00Z</time>
      </trkpt>
      <trkpt lat="46.27649" lon="2.81313">
        <ele>423.2</ele>
        <time>2019-11-01T11:45:01Z</time>
      </trkpt>
      <trkpt lat="46.27645" lon="2.81305">
        <ele>422.7</ele>
        <time>2019-11-01T11:45:02Z</time>
      </trkpt>
      <trkpt lat="46.27641" lon="2.81297">
        <ele>422.1</ele>
        <time>2019-11-01T11:45:03Z</time>
      </trkpt>
      <trkpt lat="46.27636" lon="2.81289">
        <ele>421.6</ele>
        <time>2019-11-01T11:45:04Z</time>
      </trkpt>
      <trkpt lat="46.27632" lon="2.8128">
        <ele>421.2</ele>
        <time>2019-11-01T11:45:05Z</time>
      </trkpt>
      <trkpt lat="46.27627" lon="2.81272">
        <ele>420.7</ele>
        <time>2019-11-01T11:45:06Z</time>
      </trkpt>
      <trkpt lat="46.27622" lon="2.81264">
        <ele>420.3</ele>
        <time>2019-11-01T11:45:07Z</time>
      </trkpt>
      <trkpt lat="46.27618" lon="2.81255">
        <ele>419.8</ele>
        <time>2019-11-01T11:45:08Z</time>
      </trkpt>
      <trkpt lat="46.27614" lon="2.81249">
        <ele>419.5</ele>
        <time>2019-11-01T11:45:09Z</time>
      </trkpt>
      <trkpt lat="46.27609" lon="2.8124">
        <ele>419.3</ele>
        <time>2019-11-01T11:45:10Z</time>
      </trkpt>
      <trkpt lat="46.27603" lon="2.81229">
        <ele>418.9</ele>
        <time>2019-11-01T11:45:11Z</time>
      </trkpt>
      <trkpt lat="46.27599" lon="2.8122">
        <ele>418.7</ele>
        <time>2019-11-01T11:45:12Z</time>
      </trkpt>
      <trkpt lat="46.27594" lon="2.81212">
        <ele>418.4</ele>
        <time>2019-11-01T11:45:13Z</time>
      </trkpt>
      <trkpt lat="46.27589" lon="2.81203">
        <ele>418.1</ele>
        <time>2019-11-01T11:45:14Z</time>
      </trkpt>
      <trkpt lat="46.27585" lon="2.81196">
        <ele>417.8</ele>
        <time>2019-11-01T11:45:15Z</time>
      </trkpt>
      <trkpt lat="46.2758" lon="2.81185">
        <ele>417.5</ele>
        <time>2019-11-01T11:45:16Z</time>
      </trkpt>
      <trkpt lat="46.27575" lon="2.81177">
        <ele>417.2</ele>
        <time>2019-11-01T11:45:17Z</time>
      </trkpt>
      <trkpt lat="46.27572" lon="2.8117">
        <ele>416.9</ele>
        <time>2019-11-01T11:45:18Z</time>
      </trkpt>
      <trkpt lat="46.27567" lon="2.81162">
        <ele>416.7</ele>
        <time>2019-11-01T11:45:19Z</time>
      </trkpt>
      <trkpt lat="46.27562" lon="2.81152">
        <ele>416.4</ele>
        <time>2019-11-01T11:45:20Z</time>
      </trkpt>
      <trkpt lat="46.27559" lon="2.81145">
        <ele>416.2</ele>
        <time>2019-11-01T11:45:21Z</time>
      </trkpt>
      <trkpt lat="46.27556" lon="2.81139">
        <ele>416</ele>
        <time>2019-11-01T11:45:22Z</time>
      </trkpt>
      <trkpt lat="46.27556" lon="2.81133">
        <ele>415.9</ele>
        <time>2019-11-01T11:45:23Z</time>
      </trkpt>
      <trkpt lat="46.27557" lon="2.81126">
        <ele>415.9</ele>
        <time>2019-11-01T11:45:24Z</time>
      </trkpt>
      <trkpt lat="46.27559" lon="2.81122">
        <ele>415.9</ele>
        <time>2019-11-01T11:45:25Z</time>
      </trkpt>
      <trkpt lat="46.27562" lon="2.81117">
        <ele>416</ele>
        <time>2019-11-01T11:45:26Z</time>
      </trkpt>
      <trkpt lat="46.27565" lon="2.81114">
        <ele>415.9</ele>
        <time>2019-11-01T11:45:27Z</time>
      </trkpt>
      <trkpt lat="46.27569" lon="2.8111">
        <ele>415.9</ele>
        <time>2019-11-01T11:45:28Z</time>
      </trkpt>
      <trkpt lat="46.27572" lon="2.81106">
        <ele>415.9</ele>
        <time>2019-11-01T11:45:29Z</time>
      </trkpt>
      <trkpt lat="46.27576" lon="2.81102">
        <ele>415.8</ele>
        <time>2019-11-01T11:45:30Z</time>
      </trkpt>
      <trkpt lat="46.27579" lon="2.81097">
        <ele>415.8</ele>
        <time>2019-11-01T11:45:31Z</time>
      </trkpt>
      <trkpt lat="46.27583" lon="2.81094">
        <ele>415.8</ele>
        <time>2019-11-01T11:45:32Z</time>
      </trkpt>
      <trkpt lat="46.27586" lon="2.81089">
        <ele>415.9</ele>
        <time>2019-11-01T11:45:33Z</time>
      </trkpt>
      <trkpt lat="46.2759" lon="2.81085">
        <ele>416</ele>
        <time>2019-11-01T11:45:34Z</time>
      </trkpt>
      <trkpt lat="46.27593" lon="2.81081">
        <ele>416</ele>
        <time>2019-11-01T11:45:35Z</time>
      </trkpt>
      <trkpt lat="46.27597" lon="2.81076">
        <ele>416</ele>
        <time>2019-11-01T11:45:36Z</time>
      </trkpt>
      <trkpt lat="46.276" lon="2.81071">
        <ele>416.1</ele>
        <time>2019-11-01T11:45:37Z</time>
      </trkpt>
      <trkpt lat="46.27604" lon="2.81067">
        <ele>416.1</ele>
        <time>2019-11-01T11:45:38Z</time>
      </trkpt>
      <trkpt lat="46.27608" lon="2.81062">
        <ele>416.2</ele>
        <time>2019-11-01T11:45:39Z</time>
      </trkpt>
      <trkpt lat="46.27611" lon="2.81057">
        <ele>416.3</ele>
        <time>2019-11-01T11:45:40Z</time>
      </trkpt>
      <trkpt lat="46.27615" lon="2.81052">
        <ele>416.4</ele>
        <time>2019-11-01T11:45:41Z</time>
      </trkpt>
      <trkpt lat="46.27619" lon="2.81047">
        <ele>416.5</ele>
        <time>2019-11-01T11:45:42Z</time>
      </trkpt>
      <trkpt lat="46.27622" lon="2.81042">
        <ele>416.5</ele>
        <time>2019-11-01T11:45:43Z</time>
      </trkpt>
      <trkpt lat="46.27626" lon="2.81036">
        <ele>416.5</ele>
        <time>2019-11-01T11:45:44Z</time>
      </trkpt>
      <trkpt lat="46.27629" lon="2.81031">
        <ele>416.5</ele>
        <time>2019-11-01T11:45:45Z</time>
      </trkpt>
      <trkpt lat="46.27632" lon="2.81026">
        <ele>416.5</ele>
        <time>2019-11-01T11:45:46Z</time>
      </trkpt>
      <trkpt lat="46.27636" lon="2.8102">
        <ele>416.4</ele>
        <time>2019-11-01T11:45:47Z</time>
      </trkpt>
      <trkpt lat="46.27639" lon="2.81014">
        <ele>416.4</ele>
        <time>2019-11-01T11:45:48Z</time>
      </trkpt>
      <trkpt lat="46.27642" lon="2.81009">
        <ele>416.4</ele>
        <time>2019-11-01T11:45:49Z</time>
      </trkpt>
      <trkpt lat="46.27645" lon="2.81003">
        <ele>416.4</ele>
        <time>2019-11-01T11:45:50Z</time>
      </trkpt>
      <trkpt lat="46.27648" lon="2.80997">
        <ele>416.4</ele>
        <time>2019-11-01T11:45:51Z</time>
      </trkpt>
      <trkpt lat="46.27652" lon="2.80991">
        <ele>416.4</ele>
        <time>2019-11-01T11:45:52Z</time>
      </trkpt>
      <trkpt lat="46.27655" lon="2.80985">
        <ele>416.4</ele>
        <time>2019-11-01T11:45:53Z</time>
      </trkpt>
      <trkpt lat="46.27658" lon="2.80979">
        <ele>416.4</ele>
        <time>2019-11-01T11:45:54Z</time>
      </trkpt>
      <trkpt lat="46.27661" lon="2.80972">
        <ele>416.4</ele>
        <time>2019-11-01T11:45:55Z</time>
      </trkpt>
      <trkpt lat="46.27665" lon="2.80966">
        <ele>416.4</ele>
        <time>2019-11-01T11:45:56Z</time>
      </trkpt>
      <trkpt lat="46.27668" lon="2.8096">
        <ele>416.3</ele>
        <time>2019-11-01T11:45:57Z</time>
      </trkpt>
      <trkpt lat="46.27672" lon="2.80954">
        <ele>416.3</ele>
        <time>2019-11-01T11:45:58Z</time>
      </trkpt>
      <trkpt lat="46.27675" lon="2.80947">
        <ele>416.2</ele>
        <time>2019-11-01T11:45:59Z</time>
      </trkpt>
      <trkpt lat="46.27679" lon="2.8094">
        <ele>416.1</ele>
        <time>2019-11-01T11:46:00Z</time>
      </trkpt>
      <trkpt lat="46.27682" lon="2.80933">
        <ele>416</ele>
        <time>2019-11-01T11:46:01Z</time>
      </trkpt>
      <trkpt lat="46.27685" lon="2.80926">
        <ele>415.9</ele>
        <time>2019-11-01T11:46:02Z</time>
      </trkpt>
      <trkpt lat="46.27689" lon="2.80919">
        <ele>415.8</ele>
        <time>2019-11-01T11:46:03Z</time>
      </trkpt>
      <trkpt lat="46.27692" lon="2.80911">
        <ele>415.6</ele>
        <time>2019-11-01T11:46:04Z</time>
      </trkpt>
      <trkpt lat="46.27696" lon="2.80903">
        <ele>415.5</ele>
        <time>2019-11-01T11:46:05Z</time>
      </trkpt>
      <trkpt lat="46.27699" lon="2.80896">
        <ele>415.3</ele>
        <time>2019-11-01T11:46:06Z</time>
      </trkpt>
      <trkpt lat="46.27702" lon="2.80888">
        <ele>415.1</ele>
        <time>2019-11-01T11:46:07Z</time>
      </trkpt>
      <trkpt lat="46.27706" lon="2.8088">
        <ele>415</ele>
        <time>2019-11-01T11:46:08Z</time>
      </trkpt>
      <trkpt lat="46.27709" lon="2.80872">
        <ele>414.9</ele>
        <time>2019-11-01T11:46:09Z</time>
      </trkpt>
      <trkpt lat="46.27713" lon="2.80863">
        <ele>414.8</ele>
        <time>2019-11-01T11:46:10Z</time>
      </trkpt>
      <trkpt lat="46.27716" lon="2.80854">
        <ele>414.7</ele>
        <time>2019-11-01T11:46:11Z</time>
      </trkpt>
      <trkpt lat="46.27719" lon="2.80845">
        <ele>414.6</ele>
        <time>2019-11-01T11:46:12Z</time>
      </trkpt>
      <trkpt lat="46.27723" lon="2.80836">
        <ele>414.5</ele>
        <time>2019-11-01T11:46:13Z</time>
      </trkpt>
      <trkpt lat="46.27726" lon="2.80828">
        <ele>414.4</ele>
        <time>2019-11-01T11:46:14Z</time>
      </trkpt>
      <trkpt lat="46.27729" lon="2.80819">
        <ele>414.3</ele>
        <time>2019-11-01T11:46:15Z</time>
      </trkpt>
      <trkpt lat="46.27732" lon="2.8081">
        <ele>414.2</ele>
        <time>2019-11-01T11:46:16Z</time>
      </trkpt>
      <trkpt lat="46.27736" lon="2.80801">
        <ele>414.1</ele>
        <time>2019-11-01T11:46:17Z</time>
      </trkpt>
      <trkpt lat="46.27739" lon="2.80792">
        <ele>414.1</ele>
        <time>2019-11-01T11:46:18Z</time>
      </trkpt>
      <trkpt lat="46.27742" lon="2.80783">
        <ele>414</ele>
        <time>2019-11-01T11:46:19Z</time>
      </trkpt>
      <trkpt lat="46.27745" lon="2.80774">
        <ele>414</ele>
        <time>2019-11-01T11:46:20Z</time>
      </trkpt>
      <trkpt lat="46.27748" lon="2.80765">
        <ele>413.9</ele>
        <time>2019-11-01T11:46:21Z</time>
      </trkpt>
      <trkpt lat="46.27751" lon="2.80755">
        <ele>413.9</ele>
        <time>2019-11-01T11:46:22Z</time>
      </trkpt>
      <trkpt lat="46.27753" lon="2.80748">
        <ele>413.9</ele>
        <time>2019-11-01T11:46:23Z</time>
      </trkpt>
      <trkpt lat="46.27756" lon="2.80738">
        <ele>414</ele>
        <time>2019-11-01T11:46:24Z</time>
      </trkpt>
      <trkpt lat="46.27759" lon="2.80727">
        <ele>414</ele>
        <time>2019-11-01T11:46:25Z</time>
      </trkpt>
      <trkpt lat="46.27762" lon="2.80718">
        <ele>414.1</ele>
        <time>2019-11-01T11:46:26Z</time>
      </trkpt>
      <trkpt lat="46.27764" lon="2.80709">
        <ele>414.2</ele>
        <time>2019-11-01T11:46:27Z</time>
      </trkpt>
      <trkpt lat="46.27767" lon="2.807">
        <ele>414.2</ele>
        <time>2019-11-01T11:46:28Z</time>
      </trkpt>
      <trkpt lat="46.2777" lon="2.80691">
        <ele>414.3</ele>
        <time>2019-11-01T11:46:29Z</time>
      </trkpt>
      <trkpt lat="46.27772" lon="2.80682">
        <ele>414.4</ele>
        <time>2019-11-01T11:46:30Z</time>
      </trkpt>
      <trkpt lat="46.27774" lon="2.80672">
        <ele>414.5</ele>
        <time>2019-11-01T11:46:31Z</time>
      </trkpt>
      <trkpt lat="46.27776" lon="2.80663">
        <ele>414.6</ele>
        <time>2019-11-01T11:46:32Z</time>
      </trkpt>
      <trkpt lat="46.27779" lon="2.80654">
        <ele>414.8</ele>
        <time>2019-11-01T11:46:33Z</time>
      </trkpt>
      <trkpt lat="46.27782" lon="2.80645">
        <ele>414.9</ele>
        <time>2019-11-01T11:46:34Z</time>
      </trkpt>
      <trkpt lat="46.27784" lon="2.80636">
        <ele>415</ele>
        <time>2019-11-01T11:46:35Z</time>
      </trkpt>
      <trkpt lat="46.27787" lon="2.80628">
        <ele>415.2</ele>
        <time>2019-11-01T11:46:36Z</time>
      </trkpt>
      <trkpt lat="46.27789" lon="2.80619">
        <ele>415.3</ele>
        <time>2019-11-01T11:46:37Z</time>
      </trkpt>
      <trkpt lat="46.27791" lon="2.80611">
        <ele>415.5</ele>
        <time>2019-11-01T11:46:38Z</time>
      </trkpt>
      <trkpt lat="46.27794" lon="2.80602">
        <ele>415.7</ele>
        <time>2019-11-01T11:46:39Z</time>
      </trkpt>
      <trkpt lat="46.27797" lon="2.80592">
        <ele>416</ele>
        <time>2019-11-01T11:46:40Z</time>
      </trkpt>
      <trkpt lat="46.278" lon="2.80583">
        <ele>416.2</ele>
        <time>2019-11-01T11:46:41Z</time>
      </trkpt>
      <trkpt lat="46.27802" lon="2.80574">
        <ele>416.4</ele>
        <time>2019-11-01T11:46:42Z</time>
      </trkpt>
      <trkpt lat="46.27805" lon="2.80564">
        <ele>416.6</ele>
        <time>2019-11-01T11:46:43Z</time>
      </trkpt>
      <trkpt lat="46.27808" lon="2.80555">
        <ele>416.8</ele>
        <time>2019-11-01T11:46:44Z</time>
      </trkpt>
      <trkpt lat="46.27811" lon="2.80546">
        <ele>417</ele>
        <time>2019-11-01T11:46:45Z</time>
      </trkpt>
      <trkpt lat="46.27814" lon="2.80536">
        <ele>417.1</ele>
        <time>2019-11-01T11:46:46Z</time>
      </trkpt>
      <trkpt lat="46.27817" lon="2.80527">
        <ele>417.1</ele>
        <time>2019-11-01T11:46:47Z</time>
      </trkpt>
      <trkpt lat="46.2782" lon="2.80517">
        <ele>417.1</ele>
        <time>2019-11-01T11:46:48Z</time>
      </trkpt>
      <trkpt lat="46.27823" lon="2.80508">
        <ele>417.1</ele>
        <time>2019-11-01T11:46:49Z</time>
      </trkpt>
      <trkpt lat="46.27826" lon="2.80498">
        <ele>417</ele>
        <time>2019-11-01T11:46:50Z</time>
      </trkpt>
      <trkpt lat="46.27829" lon="2.80489">
        <ele>416.9</ele>
        <time>2019-11-01T11:46:51Z</time>
      </trkpt>
      <trkpt lat="46.27831" lon="2.80479">
        <ele>416.7</ele>
        <time>2019-11-01T11:46:52Z</time>
      </trkpt>
      <trkpt lat="46.27834" lon="2.80469">
        <ele>416.6</ele>
        <time>2019-11-01T11:46:53Z</time>
      </trkpt>
      <trkpt lat="46.27836" lon="2.8046">
        <ele>416.4</ele>
        <time>2019-11-01T11:46:54Z</time>
      </trkpt>
      <trkpt lat="46.27839" lon="2.8045">
        <ele>416.2</ele>
        <time>2019-11-01T11:46:55Z</time>
      </trkpt>
      <trkpt lat="46.27842" lon="2.8044">
        <ele>416.1</ele>
        <time>2019-11-01T11:46:56Z</time>
      </trkpt>
      <trkpt lat="46.27844" lon="2.8043">
        <ele>415.9</ele>
        <time>2019-11-01T11:46:57Z</time>
      </trkpt>
      <trkpt lat="46.27847" lon="2.8042">
        <ele>415.8</ele>
        <time>2019-11-01T11:46:58Z</time>
      </trkpt>
      <trkpt lat="46.2785" lon="2.80409">
        <ele>415.6</ele>
        <time>2019-11-01T11:46:59Z</time>
      </trkpt>
      <trkpt lat="46.27853" lon="2.80399">
        <ele>415.4</ele>
        <time>2019-11-01T11:47:00Z</time>
      </trkpt>
      <trkpt lat="46.27855" lon="2.80388">
        <ele>415.1</ele>
        <time>2019-11-01T11:47:01Z</time>
      </trkpt>
      <trkpt lat="46.27858" lon="2.80378">
        <ele>414.8</ele>
        <time>2019-11-01T11:47:02Z</time>
      </trkpt>
      <trkpt lat="46.27861" lon="2.80367">
        <ele>414.5</ele>
        <time>2019-11-01T11:47:03Z</time>
      </trkpt>
      <trkpt lat="46.27864" lon="2.80356">
        <ele>414.1</ele>
        <time>2019-11-01T11:47:04Z</time>
      </trkpt>
      <trkpt lat="46.27866" lon="2.80348">
        <ele>413.9</ele>
        <time>2019-11-01T11:47:05Z</time>
      </trkpt>
      <trkpt lat="46.27869" lon="2.80336">
        <ele>413.6</ele>
        <time>2019-11-01T11:47:06Z</time>
      </trkpt>
      <trkpt lat="46.27872" lon="2.80325">
        <ele>413.4</ele>
        <time>2019-11-01T11:47:07Z</time>
      </trkpt>
      <trkpt lat="46.27875" lon="2.80315">
        <ele>413.3</ele>
        <time>2019-11-01T11:47:08Z</time>
      </trkpt>
      <trkpt lat="46.27879" lon="2.80304">
        <ele>413.2</ele>
        <time>2019-11-01T11:47:09Z</time>
      </trkpt>
      <trkpt lat="46.27882" lon="2.80293">
        <ele>413.1</ele>
        <time>2019-11-01T11:47:10Z</time>
      </trkpt>
      <trkpt lat="46.27885" lon="2.80282">
        <ele>413.1</ele>
        <time>2019-11-01T11:47:11Z</time>
      </trkpt>
      <trkpt lat="46.27887" lon="2.80272">
        <ele>413.2</ele>
        <time>2019-11-01T11:47:12Z</time>
      </trkpt>
      <trkpt lat="46.27891" lon="2.8026">
        <ele>413.3</ele>
        <time>2019-11-01T11:47:13Z</time>
      </trkpt>
      <trkpt lat="46.27893" lon="2.80252">
        <ele>413.4</ele>
        <time>2019-11-01T11:47:14Z</time>
      </trkpt>
      <trkpt lat="46.27895" lon="2.80243">
        <ele>413.5</ele>
        <time>2019-11-01T11:47:15Z</time>
      </trkpt>
      <trkpt lat="46.27899" lon="2.80232">
        <ele>413.7</ele>
        <time>2019-11-01T11:47:16Z</time>
      </trkpt>
      <trkpt lat="46.27901" lon="2.80224">
        <ele>413.8</ele>
        <time>2019-11-01T11:47:17Z</time>
      </trkpt>
      <trkpt lat="46.27904" lon="2.80216">
        <ele>414</ele>
        <time>2019-11-01T11:47:18Z</time>
      </trkpt>
      <trkpt lat="46.27906" lon="2.80207">
        <ele>414.1</ele>
        <time>2019-11-01T11:47:19Z</time>
      </trkpt>
      <trkpt lat="46.27908" lon="2.802">
        <ele>414.3</ele>
        <time>2019-11-01T11:47:20Z</time>
      </trkpt>
      <trkpt lat="46.27911" lon="2.80192">
        <ele>414.4</ele>
        <time>2019-11-01T11:47:21Z</time>
      </trkpt>
      <trkpt lat="46.27913" lon="2.80184">
        <ele>414.6</ele>
        <time>2019-11-01T11:47:22Z</time>
      </trkpt>
      <trkpt lat="46.27915" lon="2.80177">
        <ele>414.7</ele>
        <time>2019-11-01T11:47:23Z</time>
      </trkpt>
      <trkpt lat="46.27917" lon="2.80171">
        <ele>414.8</ele>
        <time>2019-11-01T11:47:24Z</time>
      </trkpt>
      <trkpt lat="46.27919" lon="2.80162">
        <ele>415</ele>
        <time>2019-11-01T11:47:25Z</time>
      </trkpt>
      <trkpt lat="46.27921" lon="2.80155">
        <ele>415.1</ele>
        <time>2019-11-01T11:47:26Z</time>
      </trkpt>
      <trkpt lat="46.27923" lon="2.80148">
        <ele>415.2</ele>
        <time>2019-11-01T11:47:27Z</time>
      </trkpt>
      <trkpt lat="46.27925" lon="2.80141">
        <ele>415.3</ele>
        <time>2019-11-01T11:47:28Z</time>
      </trkpt>
      <trkpt lat="46.27928" lon="2.80134">
        <ele>415.4</ele>
        <time>2019-11-01T11:47:29Z</time>
      </trkpt>
      <trkpt lat="46.2793" lon="2.80127">
        <ele>415.5</ele>
        <time>2019-11-01T11:47:30Z</time>
      </trkpt>
      <trkpt lat="46.27932" lon="2.8012">
        <ele>415.6</ele>
        <time>2019-11-01T11:47:31Z</time>
      </trkpt>
      <trkpt lat="46.27934" lon="2.80113">
        <ele>415.6</ele>
        <time>2019-11-01T11:47:32Z</time>
      </trkpt>
      <trkpt lat="46.27936" lon="2.80107">
        <ele>415.7</ele>
        <time>2019-11-01T11:47:33Z</time>
      </trkpt>
      <trkpt lat="46.27938" lon="2.801">
        <ele>415.7</ele>
        <time>2019-11-01T11:47:34Z</time>
      </trkpt>
      <trkpt lat="46.2794" lon="2.80093">
        <ele>415.8</ele>
        <time>2019-11-01T11:47:35Z</time>
      </trkpt>
      <trkpt lat="46.27942" lon="2.80086">
        <ele>415.8</ele>
        <time>2019-11-01T11:47:36Z</time>
      </trkpt>
      <trkpt lat="46.27944" lon="2.80079">
        <ele>415.9</ele>
        <time>2019-11-01T11:47:37Z</time>
      </trkpt>
      <trkpt lat="46.27946" lon="2.80072">
        <ele>415.9</ele>
        <time>2019-11-01T11:47:38Z</time>
      </trkpt>
      <trkpt lat="46.27949" lon="2.80063">
        <ele>415.9</ele>
        <time>2019-11-01T11:47:39Z</time>
      </trkpt>
      <trkpt lat="46.27952" lon="2.80054">
        <ele>415.9</ele>
        <time>2019-11-01T11:47:40Z</time>
      </trkpt>
      <trkpt lat="46.27955" lon="2.80045">
        <ele>415.9</ele>
        <time>2019-11-01T11:47:41Z</time>
      </trkpt>
      <trkpt lat="46.27958" lon="2.80036">
        <ele>415.9</ele>
        <time>2019-11-01T11:47:42Z</time>
      </trkpt>
      <trkpt lat="46.27961" lon="2.80026">
        <ele>415.8</ele>
        <time>2019-11-01T11:47:43Z</time>
      </trkpt>
      <trkpt lat="46.27964" lon="2.80016">
        <ele>415.7</ele>
        <time>2019-11-01T11:47:44Z</time>
      </trkpt>
      <trkpt lat="46.27967" lon="2.80005">
        <ele>415.5</ele>
        <time>2019-11-01T11:47:45Z</time>
      </trkpt>
      <trkpt lat="46.2797" lon="2.79995">
        <ele>415.4</ele>
        <time>2019-11-01T11:47:46Z</time>
      </trkpt>
      <trkpt lat="46.27972" lon="2.79987">
        <ele>415.2</ele>
        <time>2019-11-01T11:47:47Z</time>
      </trkpt>
      <trkpt lat="46.27975" lon="2.79974">
        <ele>415</ele>
        <time>2019-11-01T11:47:48Z</time>
      </trkpt>
      <trkpt lat="46.27978" lon="2.79963">
        <ele>414.7</ele>
        <time>2019-11-01T11:47:49Z</time>
      </trkpt>
      <trkpt lat="46.27981" lon="2.79952">
        <ele>414.5</ele>
        <time>2019-11-01T11:47:50Z</time>
      </trkpt>
      <trkpt lat="46.27984" lon="2.79941">
        <ele>414.4</ele>
        <time>2019-11-01T11:47:51Z</time>
      </trkpt>
      <trkpt lat="46.27987" lon="2.7993">
        <ele>414.2</ele>
        <time>2019-11-01T11:47:52Z</time>
      </trkpt>
      <trkpt lat="46.2799" lon="2.79918">
        <ele>414.1</ele>
        <time>2019-11-01T11:47:53Z</time>
      </trkpt>
      <trkpt lat="46.27993" lon="2.79906">
        <ele>414.1</ele>
        <time>2019-11-01T11:47:54Z</time>
      </trkpt>
      <trkpt lat="46.27996" lon="2.79894">
        <ele>414.1</ele>
        <time>2019-11-01T11:47:55Z</time>
      </trkpt>
      <trkpt lat="46.27999" lon="2.79882">
        <ele>414.1</ele>
        <time>2019-11-01T11:47:56Z</time>
      </trkpt>
      <trkpt lat="46.28002" lon="2.79873">
        <ele>414.1</ele>
        <time>2019-11-01T11:47:57Z</time>
      </trkpt>
      <trkpt lat="46.28006" lon="2.79859">
        <ele>414.1</ele>
        <time>2019-11-01T11:47:58Z</time>
      </trkpt>
      <trkpt lat="46.28009" lon="2.79848">
        <ele>414.1</ele>
        <time>2019-11-01T11:47:59Z</time>
      </trkpt>
      <trkpt lat="46.28012" lon="2.7984">
        <ele>414.2</ele>
        <time>2019-11-01T11:48:10Z</time>
      </trkpt>
      <trkpt lat="46.28015" lon="2.79829">
        <ele>414.2</ele>
        <time>2019-11-01T11:48:11Z</time>
      </trkpt>
      <trkpt lat="46.28019" lon="2.79818">
        <ele>414.3</ele>
        <time>2019-11-01T11:48:12Z</time>
      </trkpt>
      <trkpt lat="46.28022" lon="2.79809">
        <ele>414.3</ele>
        <time>2019-11-01T11:48:13Z</time>
      </trkpt>
      <trkpt lat="46.28024" lon="2.798">
        <ele>414.4</ele>
        <time>2019-11-01T11:48:14Z</time>
      </trkpt>
      <trkpt lat="46.28027" lon="2.79792">
        <ele>414.4</ele>
        <time>2019-11-01T11:48:15Z</time>
      </trkpt>
      <trkpt lat="46.28029" lon="2.79784">
        <ele>414.5</ele>
        <time>2019-11-01T11:48:16Z</time>
      </trkpt>
      <trkpt lat="46.28032" lon="2.79777">
        <ele>414.6</ele>
        <time>2019-11-01T11:48:17Z</time>
      </trkpt>
      <trkpt lat="46.28034" lon="2.7977">
        <ele>414.7</ele>
        <time>2019-11-01T11:48:18Z</time>
      </trkpt>
      <trkpt lat="46.28037" lon="2.79763">
        <ele>414.8</ele>
        <time>2019-11-01T11:48:19Z</time>
      </trkpt>
      <trkpt lat="46.28039" lon="2.79757">
        <ele>414.8</ele>
        <time>2019-11-01T11:48:20Z</time>
      </trkpt>
      <trkpt lat="46.28042" lon="2.79751">
        <ele>415</ele>
        <time>2019-11-01T11:48:21Z</time>
      </trkpt>
      <trkpt lat="46.28045" lon="2.79747">
        <ele>415.1</ele>
        <time>2019-11-01T11:48:22Z</time>
      </trkpt>
      <trkpt lat="46.28049" lon="2.79744">
        <ele>415.2</ele>
        <time>2019-11-01T11:48:23Z</time>
      </trkpt>
      <trkpt lat="46.28053" lon="2.79742">
        <ele>415.8</ele>
        <time>2019-11-01T11:48:24Z</time>
      </trkpt>
      <trkpt lat="46.28057" lon="2.79742">
        <ele>416</ele>
        <time>2019-11-01T11:48:25Z</time>
      </trkpt>
      <trkpt lat="46.2806" lon="2.79743">
        <ele>416.2</ele>
        <time>2019-11-01T11:48:26Z</time>
      </trkpt>
      <trkpt lat="46.28064" lon="2.79746">
        <ele>416.4</ele>
        <time>2019-11-01T11:48:27Z</time>
      </trkpt>
      <trkpt lat="46.28068" lon="2.79749">
        <ele>416.6</ele>
        <time>2019-11-01T11:48:28Z</time>
      </trkpt>
      <trkpt lat="46.28071" lon="2.79752">
        <ele>416.8</ele>
        <time>2019-11-01T11:49:35Z</time>
      </trkpt>
      <trkpt lat="46.28075" lon="2.79755">
        <ele>417.1</ele>
        <time>2019-11-01T11:49:36Z</time>
      </trkpt>
      <trkpt lat="46.2808" lon="2.79758">
        <ele>417.3</ele>
        <time>2019-11-01T11:49:37Z</time>
      </trkpt>
      <trkpt lat="46.28084" lon="2.79761">
        <ele>417.6</ele>
        <time>2019-11-01T11:49:38Z</time>
      </trkpt>
      <trkpt lat="46.28088" lon="2.79764">
        <ele>417.8</ele>
        <time>2019-11-01T11:49:39Z</time>
      </trkpt>
      <trkpt lat="46.28092" lon="2.79767">
        <ele>418.1</ele>
        <time>2019-11-01T11:49:40Z</time>
      </trkpt>
      <trkpt lat="46.28096" lon="2.7977">
        <ele>418.4</ele>
        <time>2019-11-01T11:49:41Z</time>
      </trkpt>
      <trkpt lat="46.281" lon="2.79773">
        <ele>418.6</ele>
        <time>2019-11-01T11:49:42Z</time>
      </trkpt>
      <trkpt lat="46.28104" lon="2.79776">
        <ele>418.9</ele>
        <time>2019-11-01T11:49:43Z</time>
      </trkpt>
      <trkpt lat="46.28109" lon="2.79779">
        <ele>419.2</ele>
        <time>2019-11-01T11:49:44Z</time>
      </trkpt>
      <trkpt lat="46.28113" lon="2.79781">
        <ele>419.6</ele>
        <time>2019-11-01T11:49:45Z</time>
      </trkpt>
      <trkpt lat="46.28117" lon="2.79784">
        <ele>419.9</ele>
        <time>2019-11-01T11:49:46Z</time>
      </trkpt>
      <trkpt lat="46.28121" lon="2.79787">
        <ele>420.2</ele>
        <time>2019-11-01T11:49:47Z</time>
      </trkpt>
      <trkpt lat="46.28124" lon="2.79789">
        <ele>420.4</ele>
        <time>2019-11-01T11:49:49Z</time>
      </trkpt>
      <trkpt lat="46.28128" lon="2.79792">
        <ele>420.7</ele>
        <time>2019-11-01T11:49:50Z</time>
      </trkpt>
      <trkpt lat="46.28131" lon="2.79794">
        <ele>421</ele>
        <time>2019-11-01T11:49:51Z</time>
      </trkpt>
      <trkpt lat="46.28136" lon="2.79797">
        <ele>421.3</ele>
        <time>2019-11-01T11:49:52Z</time>
      </trkpt>
      <trkpt lat="46.2814" lon="2.798">
        <ele>421.6</ele>
        <time>2019-11-01T11:49:53Z</time>
      </trkpt>
      <trkpt lat="46.28144" lon="2.79802">
        <ele>422</ele>
        <time>2019-11-01T11:49:54Z</time>
      </trkpt>
      <trkpt lat="46.28147" lon="2.79804">
        <ele>422.3</ele>
        <time>2019-11-01T11:49:55Z</time>
      </trkpt>
      <trkpt lat="46.28152" lon="2.79805">
        <ele>422.7</ele>
        <time>2019-11-01T11:49:56Z</time>
      </trkpt>
      <trkpt lat="46.28157" lon="2.79805">
        <ele>423.2</ele>
        <time>2019-11-01T11:49:57Z</time>
      </trkpt>
      <trkpt lat="46.28161" lon="2.79803">
        <ele>423.4</ele>
        <time>2019-11-01T11:49:58Z</time>
      </trkpt>
      <trkpt lat="46.28164" lon="2.798">
        <ele>423.5</ele>
        <time>2019-11-01T11:49:59Z</time>
      </trkpt>
      <trkpt lat="46.28168" lon="2.79795">
        <ele>423.7</ele>
        <time>2019-11-01T11:50:00Z</time>
      </trkpt>
      <trkpt lat="46.28171" lon="2.79789">
        <ele>424</ele>
        <time>2019-11-01T11:50:01Z</time>
      </trkpt>
      <trkpt lat="46.28175" lon="2.79783">
        <ele>424.1</ele>
        <time>2019-11-01T11:50:02Z</time>
      </trkpt>
      <trkpt lat="46.28178" lon="2.79777">
        <ele>424.3</ele>
        <time>2019-11-01T11:50:03Z</time>
      </trkpt>
      <trkpt lat="46.28181" lon="2.79771">
        <ele>424.4</ele>
        <time>2019-11-01T11:50:04Z</time>
      </trkpt>
      <trkpt lat="46.28185" lon="2.79766">
        <ele>424.6</ele>
        <time>2019-11-01T11:50:05Z</time>
      </trkpt>
      <trkpt lat="46.28188" lon="2.79761">
        <ele>424.7</ele>
        <time>2019-11-01T11:50:06Z</time>
      </trkpt>
      <trkpt lat="46.28192" lon="2.79756">
        <ele>424.8</ele>
        <time>2019-11-01T11:50:07Z</time>
      </trkpt>
      <trkpt lat="46.28195" lon="2.79751">
        <ele>424.9</ele>
        <time>2019-11-01T11:50:08Z</time>
      </trkpt>
      <trkpt lat="46.28198" lon="2.79745">
        <ele>424.9</ele>
        <time>2019-11-01T11:50:09Z</time>
      </trkpt>
      <trkpt lat="46.28201" lon="2.7974">
        <ele>425</ele>
        <time>2019-11-01T11:50:10Z</time>
      </trkpt>
      <trkpt lat="46.28204" lon="2.79734">
        <ele>425</ele>
        <time>2019-11-01T11:50:11Z</time>
      </trkpt>
      <trkpt lat="46.28207" lon="2.79729">
        <ele>425</ele>
        <time>2019-11-01T11:50:12Z</time>
      </trkpt>
      <trkpt lat="46.28209" lon="2.79724">
        <ele>425</ele>
        <time>2019-11-01T11:50:13Z</time>
      </trkpt>
      <trkpt lat="46.28211" lon="2.7972">
        <ele>425</ele>
        <time>2019-11-01T11:50:14Z</time>
      </trkpt>
      <trkpt lat="46.28214" lon="2.79715">
        <ele>425</ele>
        <time>2019-11-01T11:50:15Z</time>
      </trkpt>
      <trkpt lat="46.28216" lon="2.7971">
        <ele>424.9</ele>
        <time>2019-11-01T11:50:16Z</time>
      </trkpt>
      <trkpt lat="46.28217" lon="2.79705">
        <ele>424.8</ele>
        <time>2019-11-01T11:50:17Z</time>
      </trkpt>
      <trkpt lat="46.28219" lon="2.797">
        <ele>424.8</ele>
        <time>2019-11-01T11:50:18Z</time>
      </trkpt>
      <trkpt lat="46.2822" lon="2.79695">
        <ele>424.7</ele>
        <time>2019-11-01T11:50:19Z</time>
      </trkpt>
      <trkpt lat="46.28221" lon="2.79689">
        <ele>424.6</ele>
        <time>2019-11-01T11:50:20Z</time>
      </trkpt>
      <trkpt lat="46.28222" lon="2.79684">
        <ele>424.5</ele>
        <time>2019-11-01T11:50:21Z</time>
      </trkpt>
      <trkpt lat="46.28224" lon="2.79679">
        <ele>424.4</ele>
        <time>2019-11-01T11:50:22Z</time>
      </trkpt>
      <trkpt lat="46.28225" lon="2.79675">
        <ele>424.3</ele>
        <time>2019-11-01T11:50:23Z</time>
      </trkpt>
      <trkpt lat="46.28227" lon="2.79669">
        <ele>424.2</ele>
        <time>2019-11-01T11:50:24Z</time>
      </trkpt>
      <trkpt lat="46.28229" lon="2.79664">
        <ele>424.1</ele>
        <time>2019-11-01T11:50:25Z</time>
      </trkpt>
      <trkpt lat="46.2823" lon="2.7966">
        <ele>424</ele>
        <time>2019-11-01T11:50:26Z</time>
      </trkpt>
      <trkpt lat="46.2823" lon="2.79657">
        <ele>423.9</ele>
        <time>2019-11-01T11:50:27Z</time>
      </trkpt>
      <trkpt lat="46.2823" lon="2.79655">
        <ele>423.9</ele>
        <time>2019-11-01T11:50:28Z</time>
      </trkpt>
      <trkpt lat="46.2823" lon="2.79654">
        <ele>423.9</ele>
        <time>2019-11-01T11:50:29Z</time>
      </trkpt>
      <trkpt lat="46.2823" lon="2.79654">
        <ele>423.9</ele>
        <time>2019-11-01T11:50:30Z</time>
      </trkpt>
      <trkpt lat="46.28229" lon="2.79651">
        <ele>423.8</ele>
        <time>2019-11-01T11:50:31Z</time>
      </trkpt>
      <trkpt lat="46.2823" lon="2.79649">
        <ele>423.8</ele>
        <time>2019-11-01T11:50:32Z</time>
      </trkpt>
      <trkpt lat="46.2823" lon="2.79645">
        <ele>423.7</ele>
        <time>2019-11-01T11:50:33Z</time>
      </trkpt>
      <trkpt lat="46.28231" lon="2.79641">
        <ele>423.6</ele>
        <time>2019-11-01T11:50:34Z</time>
      </trkpt>
      <trkpt lat="46.28233" lon="2.79636">
        <ele>423.5</ele>
        <time>2019-11-01T11:50:35Z</time>
      </trkpt>
      <trkpt lat="46.28235" lon="2.79631">
        <ele>423.4</ele>
        <time>2019-11-01T11:50:36Z</time>
      </trkpt>
      <trkpt lat="46.28237" lon="2.79626">
        <ele>423.3</ele>
        <time>2019-11-01T11:50:37Z</time>
      </trkpt>
      <trkpt lat="46.28239" lon="2.79622">
        <ele>423.1</ele>
        <time>2019-11-01T11:50:38Z</time>
      </trkpt>
      <trkpt lat="46.28242" lon="2.79617">
        <ele>423</ele>
        <time>2019-11-01T11:50:39Z</time>
      </trkpt>
      <trkpt lat="46.28244" lon="2.79614">
        <ele>422.9</ele>
        <time>2019-11-01T11:50:40Z</time>
      </trkpt>
      <trkpt lat="46.28246" lon="2.79611">
        <ele>422.9</ele>
        <time>2019-11-01T11:50:41Z</time>
      </trkpt>
      <trkpt lat="46.28247" lon="2.79608">
        <ele>422.8</ele>
        <time>2019-11-01T11:50:42Z</time>
      </trkpt>
      <trkpt lat="46.28248" lon="2.79605">
        <ele>422.7</ele>
        <time>2019-11-01T11:50:43Z</time>
      </trkpt>
      <trkpt lat="46.28249" lon="2.79603">
        <ele>422.7</ele>
        <time>2019-11-01T11:50:44Z</time>
      </trkpt>
      <trkpt lat="46.28249" lon="2.79602">
        <ele>422.7</ele>
        <time>2019-11-01T11:50:45Z</time>
      </trkpt>
      <trkpt lat="46.28249" lon="2.79601">
        <ele>422.7</ele>
        <time>2019-11-01T11:50:46Z</time>
      </trkpt>
      <trkpt lat="46.28249" lon="2.79601">
        <ele>422.6</ele>
        <time>2019-11-01T11:50:47Z</time>
      </trkpt>
      <trkpt lat="46.28249" lon="2.796">
        <ele>422.6</ele>
        <time>2019-11-01T11:50:48Z</time>
      </trkpt>
      <trkpt lat="46.28249" lon="2.796">
        <ele>422.6</ele>
        <time>2019-11-01T11:50:49Z</time>
      </trkpt>
      <trkpt lat="46.28232" lon="2.79583">
        <ele>419</ele>
        <time>2019-11-01T11:50:50Z</time>
      </trkpt>
      <trkpt lat="46.28215" lon="2.79565">
        <ele>418</ele>
        <time>2019-11-01T11:50:51Z</time>
      </trkpt>
      <trkpt lat="46.28204" lon="2.79546">
        <ele>418</ele>
        <time>2019-11-01T11:50:52Z</time>
      </trkpt>
      <trkpt lat="46.28189" lon="2.79529">
        <ele>417</ele>
        <time>2019-11-01T11:50:53Z</time>
      </trkpt>
      <trkpt lat="46.28182" lon="2.79513">
        <ele>417</ele>
        <time>2019-11-01T11:50:54Z</time>
      </trkpt>
      <trkpt lat="46.28171" lon="2.79489">
        <ele>415</ele>
        <time>2019-11-01T11:50:55Z</time>
      </trkpt>
      <trkpt lat="46.28161" lon="2.79471">
        <ele>413</ele>
        <time>2019-11-01T11:50:56Z</time>
      </trkpt>
      <trkpt lat="46.28153" lon="2.79456">
        <ele>412</ele>
        <time>2019-11-01T11:50:57Z</time>
      </trkpt>
      <trkpt lat="46.28146" lon="2.7944">
        <ele>412</ele>
        <time>2019-11-01T11:50:58Z</time>
      </trkpt>
      <trkpt lat="46.2814" lon="2.79427">
        <ele>412</ele>
        <time>2019-11-01T11:50:59Z</time>
      </trkpt>
      <trkpt lat="46.2814" lon="2.79399">
        <ele>410.9</ele>
        <time>2019-11-01T11:51:00Z</time>
      </trkpt>
      <trkpt lat="46.28139" lon="2.79381">
        <ele>411</ele>
        <time>2019-11-01T11:51:01Z</time>
      </trkpt>
      <trkpt lat="46.28134" lon="2.79357">
        <ele>410</ele>
        <time>2019-11-01T11:51:02Z</time>
      </trkpt>
      <trkpt lat="46.28129" lon="2.79346">
        <ele>410</ele>
        <time>2019-11-01T11:51:03Z</time>
      </trkpt>
      <trkpt lat="46.28122" lon="2.79337">
        <ele>410</ele>
        <time>2019-11-01T11:51:04Z</time>
      </trkpt>
      <trkpt lat="46.28112" lon="2.7933">
        <ele>408</ele>
        <time>2019-11-01T11:51:05Z</time>
      </trkpt>
      <trkpt lat="46.28092" lon="2.79323">
        <ele>408</ele>
        <time>2019-11-01T11:51:06Z</time>
      </trkpt>
      <trkpt lat="46.28074" lon="2.79317">
        <ele>406</ele>
        <time>2019-11-01T11:51:07Z</time>
      </trkpt>
      <trkpt lat="46.2805" lon="2.7931">
        <ele>405</ele>
        <time>2019-11-01T11:51:08Z</time>
      </trkpt>
      <trkpt lat="46.27983" lon="2.79291">
        <ele>398</ele>
        <time>2019-11-01T11:51:09Z</time>
      </trkpt>
      <trkpt lat="46.27978" lon="2.79281">
        <ele>398</ele>
        <time>2019-11-01T11:51:10Z</time>
      </trkpt>
      <trkpt lat="46.27975" lon="2.79271">
        <ele>398</ele>
        <time>2019-11-01T11:51:11Z</time>
      </trkpt>
      <trkpt lat="46.27974" lon="2.79254">
        <ele>397</ele>
        <time>2019-11-01T11:51:12Z</time>
      </trkpt>
      <trkpt lat="46.27974" lon="2.79243">
        <ele>394</ele>
        <time>2019-11-01T11:51:13Z</time>
      </trkpt>
      <trkpt lat="46.27976" lon="2.79216">
        <ele>392.8</ele>
        <time>2019-11-01T11:51:14Z</time>
      </trkpt>
      <trkpt lat="46.27973" lon="2.79197">
        <ele>394.4</ele>
        <time>2019-11-01T11:51:15Z</time>
      </trkpt>
      <trkpt lat="46.27975" lon="2.79187">
        <ele>393.9</ele>
        <time>2019-11-01T11:51:16Z</time>
      </trkpt>
      <trkpt lat="46.27976" lon="2.79173">
        <ele>393.2</ele>
        <time>2019-11-01T11:51:17Z</time>
      </trkpt>
      <trkpt lat="46.27976" lon="2.7916">
        <ele>392.5</ele>
        <time>2019-11-01T11:51:18Z</time>
      </trkpt>
      <trkpt lat="46.27978" lon="2.79146">
        <ele>391.7</ele>
        <time>2019-11-01T11:51:19Z</time>
      </trkpt>
      <trkpt lat="46.2798" lon="2.79132">
        <ele>391</ele>
        <time>2019-11-01T11:51:20Z</time>
      </trkpt>
      <trkpt lat="46.27984" lon="2.79117">
        <ele>390</ele>
        <time>2019-11-01T11:51:21Z</time>
      </trkpt>
      <trkpt lat="46.27987" lon="2.79107">
        <ele>389.4</ele>
        <time>2019-11-01T11:51:22Z</time>
      </trkpt>
      <trkpt lat="46.27993" lon="2.79093">
        <ele>388.4</ele>
        <time>2019-11-01T11:51:23Z</time>
      </trkpt>
      <trkpt lat="46.27998" lon="2.79082">
        <ele>387.6</ele>
        <time>2019-11-01T11:51:24Z</time>
      </trkpt>
      <trkpt lat="46.28004" lon="2.79071">
        <ele>386.7</ele>
        <time>2019-11-01T11:51:25Z</time>
      </trkpt>
      <trkpt lat="46.2801" lon="2.79059">
        <ele>385.8</ele>
        <time>2019-11-01T11:51:26Z</time>
      </trkpt>
      <trkpt lat="46.28014" lon="2.7905">
        <ele>385.1</ele>
        <time>2019-11-01T11:51:27Z</time>
      </trkpt>
      <trkpt lat="46.28019" lon="2.79034">
        <ele>384.2</ele>
        <time>2019-11-01T11:51:28Z</time>
      </trkpt>
      <trkpt lat="46.28023" lon="2.79021">
        <ele>383.5</ele>
        <time>2019-11-01T11:51:29Z</time>
      </trkpt>
      <trkpt lat="46.28025" lon="2.79006">
        <ele>382.7</ele>
        <time>2019-11-01T11:51:30Z</time>
      </trkpt>
      <trkpt lat="46.28028" lon="2.78992">
        <ele>381.9</ele>
        <time>2019-11-01T11:51:31Z</time>
      </trkpt>
      <trkpt lat="46.28031" lon="2.78979">
        <ele>381.3</ele>
        <time>2019-11-01T11:51:32Z</time>
      </trkpt>
      <trkpt lat="46.28033" lon="2.78968">
        <ele>380.9</ele>
        <time>2019-11-01T11:51:33Z</time>
      </trkpt>
      <trkpt lat="46.28033" lon="2.78957">
        <ele>380.8</ele>
        <time>2019-11-01T11:51:34Z</time>
      </trkpt>
      <trkpt lat="46.28032" lon="2.78947">
        <ele>381</ele>
        <time>2019-11-01T11:51:35Z</time>
      </trkpt>
      <trkpt lat="46.2803" lon="2.78938">
        <ele>381.3</ele>
        <time>2019-11-01T11:51:36Z</time>
      </trkpt>
      <trkpt lat="46.28028" lon="2.7893">
        <ele>380.3</ele>
        <time>2019-11-01T11:51:37Z</time>
      </trkpt>
      <trkpt lat="46.28027" lon="2.78923">
        <ele>378.8</ele>
        <time>2019-11-01T11:51:38Z</time>
      </trkpt>
      <trkpt lat="46.28026" lon="2.78917">
        <ele>378.4</ele>
        <time>2019-11-01T11:51:39Z</time>
      </trkpt>
      <trkpt lat="46.28026" lon="2.7891">
        <ele>377.9</ele>
        <time>2019-11-01T11:51:40Z</time>
      </trkpt>
      <trkpt lat="46.28025" lon="2.78902">
        <ele>377.4</ele>
        <time>2019-11-01T11:51:41Z</time>
      </trkpt>
      <trkpt lat="46.28025" lon="2.78894">
        <ele>377</ele>
        <time>2019-11-01T11:51:42Z</time>
      </trkpt>
      <trkpt lat="46.28026" lon="2.78885">
        <ele>376.6</ele>
        <time>2019-11-01T11:51:43Z</time>
      </trkpt>
      <trkpt lat="46.28028" lon="2.78877">
        <ele>376.1</ele>
        <time>2019-11-01T11:51:44Z</time>
      </trkpt>
      <trkpt lat="46.2803" lon="2.78868">
        <ele>375.8</ele>
        <time>2019-11-01T11:51:45Z</time>
      </trkpt>
      <trkpt lat="46.28034" lon="2.7886">
        <ele>375.4</ele>
        <time>2019-11-01T11:51:46Z</time>
      </trkpt>
      <trkpt lat="46.28038" lon="2.78852">
        <ele>375.1</ele>
        <time>2019-11-01T11:51:47Z</time>
      </trkpt>
      <trkpt lat="46.28042" lon="2.78843">
        <ele>374.7</ele>
        <time>2019-11-01T11:51:48Z</time>
      </trkpt>
      <trkpt lat="46.28045" lon="2.78833">
        <ele>374.4</ele>
        <time>2019-11-01T11:51:49Z</time>
      </trkpt>
      <trkpt lat="46.28049" lon="2.78825">
        <ele>374.2</ele>
        <time>2019-11-01T11:51:50Z</time>
      </trkpt>
      <trkpt lat="46.28052" lon="2.78818">
        <ele>374</ele>
        <time>2019-11-01T11:51:51Z</time>
      </trkpt>
      <trkpt lat="46.28056" lon="2.78807">
        <ele>373.7</ele>
        <time>2019-11-01T11:51:52Z</time>
      </trkpt>
      <trkpt lat="46.28059" lon="2.78798">
        <ele>373.5</ele>
        <time>2019-11-01T11:51:53Z</time>
      </trkpt>
      <trkpt lat="46.28063" lon="2.7879">
        <ele>373.3</ele>
        <time>2019-11-01T11:51:54Z</time>
      </trkpt>
      <trkpt lat="46.28067" lon="2.78781">
        <ele>373.2</ele>
        <time>2019-11-01T11:51:55Z</time>
      </trkpt>
      <trkpt lat="46.2807" lon="2.78773">
        <ele>373</ele>
        <time>2019-11-01T11:51:56Z</time>
      </trkpt>
      <trkpt lat="46.28074" lon="2.78764">
        <ele>372.9</ele>
        <time>2019-11-01T11:51:57Z</time>
      </trkpt>
      <trkpt lat="46.28078" lon="2.78756">
        <ele>372.8</ele>
        <time>2019-11-01T11:51:58Z</time>
      </trkpt>
      <trkpt lat="46.28081" lon="2.78749">
        <ele>372.8</ele>
        <time>2019-11-01T11:51:59Z</time>
      </trkpt>
      <trkpt lat="46.28085" lon="2.78741">
        <ele>372.7</ele>
        <time>2019-11-01T11:52:00Z</time>
      </trkpt>
      <trkpt lat="46.28089" lon="2.78731">
        <ele>372.6</ele>
        <time>2019-11-01T11:52:01Z</time>
      </trkpt>
      <trkpt lat="46.28092" lon="2.78724">
        <ele>372.6</ele>
        <time>2019-11-01T11:52:02Z</time>
      </trkpt>
      <trkpt lat="46.28096" lon="2.78716">
        <ele>372.6</ele>
        <time>2019-11-01T11:52:03Z</time>
      </trkpt>
      <trkpt lat="46.28099" lon="2.78709">
        <ele>372.5</ele>
        <time>2019-11-01T11:52:04Z</time>
      </trkpt>
      <trkpt lat="46.28103" lon="2.78701">
        <ele>372.5</ele>
        <time>2019-11-01T11:52:05Z</time>
      </trkpt>
      <trkpt lat="46.28107" lon="2.78694">
        <ele>372.5</ele>
        <time>2019-11-01T11:52:06Z</time>
      </trkpt>
      <trkpt lat="46.2811" lon="2.78687">
        <ele>372.5</ele>
        <time>2019-11-01T11:52:07Z</time>
      </trkpt>
      <trkpt lat="46.28114" lon="2.78679">
        <ele>372.5</ele>
        <time>2019-11-01T11:52:08Z</time>
      </trkpt>
      <trkpt lat="46.28118" lon="2.78672">
        <ele>372.5</ele>
        <time>2019-11-01T11:52:09Z</time>
      </trkpt>
      <trkpt lat="46.28121" lon="2.78664">
        <ele>372.5</ele>
        <time>2019-11-01T11:52:10Z</time>
      </trkpt>
      <trkpt lat="46.28125" lon="2.78657">
        <ele>372.6</ele>
        <time>2019-11-01T11:52:11Z</time>
      </trkpt>
      <trkpt lat="46.28128" lon="2.7865">
        <ele>372.6</ele>
        <time>2019-11-01T11:52:12Z</time>
      </trkpt>
      <trkpt lat="46.28131" lon="2.78642">
        <ele>372.6</ele>
        <time>2019-11-01T11:52:13Z</time>
      </trkpt>
      <trkpt lat="46.28134" lon="2.78634">
        <ele>372.6</ele>
        <time>2019-11-01T11:52:14Z</time>
      </trkpt>
      <trkpt lat="46.28138" lon="2.78627">
        <ele>372.7</ele>
        <time>2019-11-01T11:52:15Z</time>
      </trkpt>
      <trkpt lat="46.2814" lon="2.78619">
        <ele>372.8</ele>
        <time>2019-11-01T11:52:16Z</time>
      </trkpt>
      <trkpt lat="46.28143" lon="2.78612">
        <ele>372.8</ele>
        <time>2019-11-01T11:52:17Z</time>
      </trkpt>
      <trkpt lat="46.28146" lon="2.78604">
        <ele>372.9</ele>
        <time>2019-11-01T11:52:18Z</time>
      </trkpt>
      <trkpt lat="46.28148" lon="2.78596">
        <ele>373</ele>
        <time>2019-11-01T11:52:19Z</time>
      </trkpt>
      <trkpt lat="46.28151" lon="2.78589">
        <ele>373.1</ele>
        <time>2019-11-01T11:52:20Z</time>
      </trkpt>
      <trkpt lat="46.28154" lon="2.78582">
        <ele>373.1</ele>
        <time>2019-11-01T11:52:21Z</time>
      </trkpt>
      <trkpt lat="46.28156" lon="2.78575">
        <ele>373.2</ele>
        <time>2019-11-01T11:52:22Z</time>
      </trkpt>
      <trkpt lat="46.28159" lon="2.78568">
        <ele>373.3</ele>
        <time>2019-11-01T11:52:23Z</time>
      </trkpt>
      <trkpt lat="46.28161" lon="2.78562">
        <ele>373.4</ele>
        <time>2019-11-01T11:52:24Z</time>
      </trkpt>
      <trkpt lat="46.28164" lon="2.78555">
        <ele>373.5</ele>
        <time>2019-11-01T11:52:25Z</time>
      </trkpt>
      <trkpt lat="46.28166" lon="2.78548">
        <ele>373.6</ele>
        <time>2019-11-01T11:52:26Z</time>
      </trkpt>
      <trkpt lat="46.28169" lon="2.78541">
        <ele>373.6</ele>
        <time>2019-11-01T11:52:27Z</time>
      </trkpt>
      <trkpt lat="46.28171" lon="2.78533">
        <ele>373.7</ele>
        <time>2019-11-01T11:52:28Z</time>
      </trkpt>
      <trkpt lat="46.28174" lon="2.78525">
        <ele>373.8</ele>
        <time>2019-11-01T11:52:29Z</time>
      </trkpt>
      <trkpt lat="46.28177" lon="2.78516">
        <ele>373.9</ele>
        <time>2019-11-01T11:52:30Z</time>
      </trkpt>
      <trkpt lat="46.2818" lon="2.78508">
        <ele>374.1</ele>
        <time>2019-11-01T11:52:31Z</time>
      </trkpt>
      <trkpt lat="46.28182" lon="2.785">
        <ele>374.2</ele>
        <time>2019-11-01T11:52:32Z</time>
      </trkpt>
      <trkpt lat="46.28185" lon="2.78493">
        <ele>374.3</ele>
        <time>2019-11-01T11:52:33Z</time>
      </trkpt>
      <trkpt lat="46.28189" lon="2.78486">
        <ele>374.4</ele>
        <time>2019-11-01T11:52:34Z</time>
      </trkpt>
      <trkpt lat="46.28192" lon="2.78478">
        <ele>374.5</ele>
        <time>2019-11-01T11:52:35Z</time>
      </trkpt>
      <trkpt lat="46.28195" lon="2.7847">
        <ele>374.6</ele>
        <time>2019-11-01T11:52:36Z</time>
      </trkpt>
      <trkpt lat="46.28197" lon="2.78464">
        <ele>374.7</ele>
        <time>2019-11-01T11:52:37Z</time>
      </trkpt>
      <trkpt lat="46.28202" lon="2.78455">
        <ele>374.8</ele>
        <time>2019-11-01T11:52:38Z</time>
      </trkpt>
      <trkpt lat="46.28206" lon="2.78449">
        <ele>374.9</ele>
        <time>2019-11-01T11:52:39Z</time>
      </trkpt>
      <trkpt lat="46.2821" lon="2.78443">
        <ele>375.1</ele>
        <time>2019-11-01T11:52:40Z</time>
      </trkpt>
      <trkpt lat="46.28215" lon="2.78438">
        <ele>375.2</ele>
        <time>2019-11-01T11:52:41Z</time>
      </trkpt>
      <trkpt lat="46.2822" lon="2.78433">
        <ele>375.3</ele>
        <time>2019-11-01T11:52:42Z</time>
      </trkpt>
      <trkpt lat="46.28225" lon="2.78429">
        <ele>375.4</ele>
        <time>2019-11-01T11:52:43Z</time>
      </trkpt>
      <trkpt lat="46.2823" lon="2.78425">
        <ele>375.5</ele>
        <time>2019-11-01T11:52:44Z</time>
      </trkpt>
      <trkpt lat="46.28235" lon="2.78422">
        <ele>375.5</ele>
        <time>2019-11-01T11:52:45Z</time>
      </trkpt>
      <trkpt lat="46.28239" lon="2.78419">
        <ele>375.5</ele>
        <time>2019-11-01T11:52:46Z</time>
      </trkpt>
      <trkpt lat="46.28243" lon="2.78416">
        <ele>375.4</ele>
        <time>2019-11-01T11:52:47Z</time>
      </trkpt>
      <trkpt lat="46.28247" lon="2.78414">
        <ele>375.4</ele>
        <time>2019-11-01T11:52:48Z</time>
      </trkpt>
      <trkpt lat="46.28252" lon="2.78412">
        <ele>375.2</ele>
        <time>2019-11-01T11:52:49Z</time>
      </trkpt>
      <trkpt lat="46.28256" lon="2.7841">
        <ele>375.1</ele>
        <time>2019-11-01T11:52:50Z</time>
      </trkpt>
      <trkpt lat="46.28259" lon="2.78408">
        <ele>375</ele>
        <time>2019-11-01T11:52:51Z</time>
      </trkpt>
      <trkpt lat="46.28263" lon="2.78406">
        <ele>375</ele>
        <time>2019-11-01T11:52:52Z</time>
      </trkpt>
      <trkpt lat="46.28267" lon="2.78405">
        <ele>374.8</ele>
        <time>2019-11-01T11:52:53Z</time>
      </trkpt>
      <trkpt lat="46.28272" lon="2.78403">
        <ele>374.7</ele>
        <time>2019-11-01T11:52:54Z</time>
      </trkpt>
      <trkpt lat="46.28276" lon="2.78401">
        <ele>374.6</ele>
        <time>2019-11-01T11:52:55Z</time>
      </trkpt>
      <trkpt lat="46.2828" lon="2.78399">
        <ele>374.5</ele>
        <time>2019-11-01T11:52:56Z</time>
      </trkpt>
      <trkpt lat="46.28284" lon="2.78397">
        <ele>374.3</ele>
        <time>2019-11-01T11:52:57Z</time>
      </trkpt>
      <trkpt lat="46.28288" lon="2.78395">
        <ele>374.2</ele>
        <time>2019-11-01T11:52:58Z</time>
      </trkpt>
      <trkpt lat="46.28292" lon="2.78393">
        <ele>374.1</ele>
        <time>2019-11-01T11:52:59Z</time>
      </trkpt>
      <trkpt lat="46.28296" lon="2.7839">
        <ele>374</ele>
        <time>2019-11-01T11:53:00Z</time>
      </trkpt>
      <trkpt lat="46.28299" lon="2.78386">
        <ele>373.9</ele>
        <time>2019-11-01T11:53:01Z</time>
      </trkpt>
      <trkpt lat="46.28301" lon="2.78381">
        <ele>373.8</ele>
        <time>2019-11-01T11:53:02Z</time>
      </trkpt>
      <trkpt lat="46.28304" lon="2.78376">
        <ele>373.6</ele>
        <time>2019-11-01T11:53:03Z</time>
      </trkpt>
      <trkpt lat="46.28306" lon="2.7837">
        <ele>373.5</ele>
        <time>2019-11-01T11:53:04Z</time>
      </trkpt>
      <trkpt lat="46.28309" lon="2.78363">
        <ele>373.4</ele>
        <time>2019-11-01T11:53:05Z</time>
      </trkpt>
      <trkpt lat="46.28312" lon="2.78356">
        <ele>373.2</ele>
        <time>2019-11-01T11:53:06Z</time>
      </trkpt>
      <trkpt lat="46.28315" lon="2.7835">
        <ele>373.1</ele>
        <time>2019-11-01T11:53:07Z</time>
      </trkpt>
      <trkpt lat="46.28318" lon="2.78344">
        <ele>372.9</ele>
        <time>2019-11-01T11:53:08Z</time>
      </trkpt>
      <trkpt lat="46.28321" lon="2.78338">
        <ele>372.8</ele>
        <time>2019-11-01T11:53:09Z</time>
      </trkpt>
      <trkpt lat="46.28325" lon="2.78332">
        <ele>372.6</ele>
        <time>2019-11-01T11:53:10Z</time>
      </trkpt>
      <trkpt lat="46.28329" lon="2.78326">
        <ele>372.5</ele>
        <time>2019-11-01T11:53:11Z</time>
      </trkpt>
      <trkpt lat="46.28332" lon="2.78322">
        <ele>372.4</ele>
        <time>2019-11-01T11:53:12Z</time>
      </trkpt>
      <trkpt lat="46.28337" lon="2.78316">
        <ele>372.2</ele>
        <time>2019-11-01T11:53:13Z</time>
      </trkpt>
      <trkpt lat="46.28341" lon="2.7831">
        <ele>372.1</ele>
        <time>2019-11-01T11:53:14Z</time>
      </trkpt>
      <trkpt lat="46.28346" lon="2.78304">
        <ele>371.9</ele>
        <time>2019-11-01T11:53:15Z</time>
      </trkpt>
      <trkpt lat="46.28351" lon="2.78298">
        <ele>371.8</ele>
        <time>2019-11-01T11:53:16Z</time>
      </trkpt>
      <trkpt lat="46.28355" lon="2.78293">
        <ele>371.7</ele>
        <time>2019-11-01T11:53:17Z</time>
      </trkpt>
      <trkpt lat="46.28359" lon="2.78288">
        <ele>371.5</ele>
        <time>2019-11-01T11:53:18Z</time>
      </trkpt>
      <trkpt lat="46.28366" lon="2.78282">
        <ele>371.4</ele>
        <time>2019-11-01T11:53:19Z</time>
      </trkpt>
      <trkpt lat="46.28372" lon="2.78277">
        <ele>371.3</ele>
        <time>2019-11-01T11:53:20Z</time>
      </trkpt>
      <trkpt lat="46.28377" lon="2.78272">
        <ele>371.2</ele>
        <time>2019-11-01T11:53:21Z</time>
      </trkpt>
      <trkpt lat="46.28383" lon="2.78268">
        <ele>371.1</ele>
        <time>2019-11-01T11:53:22Z</time>
      </trkpt>
      <trkpt lat="46.28388" lon="2.78264">
        <ele>371</ele>
        <time>2019-11-01T11:53:23Z</time>
      </trkpt>
      <trkpt lat="46.28393" lon="2.78259">
        <ele>370.9</ele>
        <time>2019-11-01T11:53:24Z</time>
      </trkpt>
      <trkpt lat="46.28398" lon="2.78254">
        <ele>370.9</ele>
        <time>2019-11-01T11:53:25Z</time>
      </trkpt>
      <trkpt lat="46.28402" lon="2.78249">
        <ele>370.9</ele>
        <time>2019-11-01T11:53:26Z</time>
      </trkpt>
      <trkpt lat="46.28407" lon="2.78244">
        <ele>370.8</ele>
        <time>2019-11-01T11:53:27Z</time>
      </trkpt>
      <trkpt lat="46.28412" lon="2.78239">
        <ele>370.8</ele>
        <time>2019-11-01T11:53:28Z</time>
      </trkpt>
      <trkpt lat="46.28417" lon="2.78235">
        <ele>370.8</ele>
        <time>2019-11-01T11:53:29Z</time>
      </trkpt>
      <trkpt lat="46.28422" lon="2.78231">
        <ele>370.8</ele>
        <time>2019-11-01T11:53:30Z</time>
      </trkpt>
      <trkpt lat="46.28428" lon="2.78228">
        <ele>370.8</ele>
        <time>2019-11-01T11:53:31Z</time>
      </trkpt>
      <trkpt lat="46.28433" lon="2.78226">
        <ele>370.8</ele>
        <time>2019-11-01T11:53:32Z</time>
      </trkpt>
      <trkpt lat="46.28438" lon="2.78223">
        <ele>370.8</ele>
        <time>2019-11-01T11:53:33Z</time>
      </trkpt>
      <trkpt lat="46.28444" lon="2.78221">
        <ele>370.8</ele>
        <time>2019-11-01T11:53:34Z</time>
      </trkpt>
      <trkpt lat="46.28448" lon="2.78219">
        <ele>370.8</ele>
        <time>2019-11-01T11:53:35Z</time>
      </trkpt>
      <trkpt lat="46.28453" lon="2.78216">
        <ele>370.8</ele>
        <time>2019-11-01T11:53:36Z</time>
      </trkpt>
      <trkpt lat="46.28458" lon="2.78214">
        <ele>370.8</ele>
        <time>2019-11-01T11:53:37Z</time>
      </trkpt>
      <trkpt lat="46.28463" lon="2.78212">
        <ele>370.8</ele>
        <time>2019-11-01T11:53:38Z</time>
      </trkpt>
      <trkpt lat="46.28468" lon="2.78209">
        <ele>370.9</ele>
        <time>2019-11-01T11:53:39Z</time>
      </trkpt>
      <trkpt lat="46.28474" lon="2.78206">
        <ele>370.9</ele>
        <time>2019-11-01T11:53:40Z</time>
      </trkpt>
      <trkpt lat="46.28479" lon="2.78202">
        <ele>371</ele>
        <time>2019-11-01T11:53:41Z</time>
      </trkpt>
      <trkpt lat="46.28483" lon="2.78197">
        <ele>371</ele>
        <time>2019-11-01T11:53:42Z</time>
      </trkpt>
      <trkpt lat="46.28487" lon="2.78193">
        <ele>371.1</ele>
        <time>2019-11-01T11:53:43Z</time>
      </trkpt>
      <trkpt lat="46.28492" lon="2.78189">
        <ele>371.1</ele>
        <time>2019-11-01T11:53:44Z</time>
      </trkpt>
      <trkpt lat="46.28496" lon="2.78185">
        <ele>371.1</ele>
        <time>2019-11-01T11:53:45Z</time>
      </trkpt>
      <trkpt lat="46.28499" lon="2.78181">
        <ele>371.2</ele>
        <time>2019-11-01T11:53:46Z</time>
      </trkpt>
      <trkpt lat="46.28503" lon="2.78177">
        <ele>371.2</ele>
        <time>2019-11-01T11:53:47Z</time>
      </trkpt>
      <trkpt lat="46.28506" lon="2.78172">
        <ele>371.2</ele>
        <time>2019-11-01T11:53:48Z</time>
      </trkpt>
      <trkpt lat="46.28509" lon="2.78168">
        <ele>371.2</ele>
        <time>2019-11-01T11:53:49Z</time>
      </trkpt>
      <trkpt lat="46.28512" lon="2.78163">
        <ele>371.2</ele>
        <time>2019-11-01T11:53:50Z</time>
      </trkpt>
      <trkpt lat="46.28514" lon="2.78158">
        <ele>371.2</ele>
        <time>2019-11-01T11:53:51Z</time>
      </trkpt>
      <trkpt lat="46.28516" lon="2.78153">
        <ele>371.2</ele>
        <time>2019-11-01T11:53:52Z</time>
      </trkpt>
      <trkpt lat="46.28518" lon="2.78147">
        <ele>371.2</ele>
        <time>2019-11-01T11:53:53Z</time>
      </trkpt>
      <trkpt lat="46.28521" lon="2.78141">
        <ele>371.2</ele>
        <time>2019-11-01T11:53:54Z</time>
      </trkpt>
      <trkpt lat="46.28523" lon="2.78136">
        <ele>371.1</ele>
        <time>2019-11-01T11:53:55Z</time>
      </trkpt>
      <trkpt lat="46.28525" lon="2.7813">
        <ele>371.1</ele>
        <time>2019-11-01T11:53:56Z</time>
      </trkpt>
      <trkpt lat="46.28528" lon="2.78124">
        <ele>371</ele>
        <time>2019-11-01T11:53:57Z</time>
      </trkpt>
      <trkpt lat="46.28529" lon="2.78117">
        <ele>370.9</ele>
        <time>2019-11-01T11:53:58Z</time>
      </trkpt>
      <trkpt lat="46.28532" lon="2.7811">
        <ele>370.8</ele>
        <time>2019-11-01T11:53:59Z</time>
      </trkpt>
      <trkpt lat="46.28534" lon="2.78103">
        <ele>370.6</ele>
        <time>2019-11-01T11:54:00Z</time>
      </trkpt>
      <trkpt lat="46.28537" lon="2.78098">
        <ele>370.5</ele>
        <time>2019-11-01T11:54:01Z</time>
      </trkpt>
      <trkpt lat="46.2854" lon="2.78093">
        <ele>370.4</ele>
        <time>2019-11-01T11:54:02Z</time>
      </trkpt>
      <trkpt lat="46.28544" lon="2.78089">
        <ele>370.3</ele>
        <time>2019-11-01T11:54:03Z</time>
      </trkpt>
      <trkpt lat="46.28547" lon="2.78084">
        <ele>370.1</ele>
        <time>2019-11-01T11:54:04Z</time>
      </trkpt>
      <trkpt lat="46.2855" lon="2.78078">
        <ele>370</ele>
        <time>2019-11-01T11:54:05Z</time>
      </trkpt>
      <trkpt lat="46.28553" lon="2.78072">
        <ele>369.9</ele>
        <time>2019-11-01T11:54:06Z</time>
      </trkpt>
      <trkpt lat="46.28554" lon="2.78065">
        <ele>369.8</ele>
        <time>2019-11-01T11:54:07Z</time>
      </trkpt>
      <trkpt lat="46.28555" lon="2.78059">
        <ele>369.7</ele>
        <time>2019-11-01T11:54:08Z</time>
      </trkpt>
      <trkpt lat="46.28554" lon="2.78052">
        <ele>369.6</ele>
        <time>2019-11-01T11:54:09Z</time>
      </trkpt>
      <trkpt lat="46.28553" lon="2.78045">
        <ele>369.5</ele>
        <time>2019-11-01T11:54:10Z</time>
      </trkpt>
      <trkpt lat="46.2855" lon="2.78037">
        <ele>369.4</ele>
        <time>2019-11-01T11:54:11Z</time>
      </trkpt>
      <trkpt lat="46.28547" lon="2.78028">
        <ele>369.3</ele>
        <time>2019-11-01T11:54:12Z</time>
      </trkpt>
      <trkpt lat="46.28544" lon="2.7802">
        <ele>369.3</ele>
        <time>2019-11-01T11:54:13Z</time>
      </trkpt>
      <trkpt lat="46.28543" lon="2.78012">
        <ele>369.2</ele>
        <time>2019-11-01T11:54:14Z</time>
      </trkpt>
      <trkpt lat="46.28542" lon="2.78003">
        <ele>369.2</ele>
        <time>2019-11-01T11:54:15Z</time>
      </trkpt>
      <trkpt lat="46.28541" lon="2.77995">
        <ele>369.2</ele>
        <time>2019-11-01T11:54:16Z</time>
      </trkpt>
      <trkpt lat="46.28539" lon="2.77989">
        <ele>369.2</ele>
        <time>2019-11-01T11:54:17Z</time>
      </trkpt>
      <trkpt lat="46.28537" lon="2.77981">
        <ele>369.3</ele>
        <time>2019-11-01T11:54:18Z</time>
      </trkpt>
      <trkpt lat="46.28535" lon="2.77973">
        <ele>369.3</ele>
        <time>2019-11-01T11:54:19Z</time>
      </trkpt>
      <trkpt lat="46.28534" lon="2.77966">
        <ele>369.3</ele>
        <time>2019-11-01T11:54:20Z</time>
      </trkpt>
      <trkpt lat="46.28533" lon="2.7796">
        <ele>369.3</ele>
        <time>2019-11-01T11:54:21Z</time>
      </trkpt>
      <trkpt lat="46.28531" lon="2.77953">
        <ele>369.4</ele>
        <time>2019-11-01T11:54:22Z</time>
      </trkpt>
      <trkpt lat="46.28529" lon="2.77946">
        <ele>369.4</ele>
        <time>2019-11-01T11:54:23Z</time>
      </trkpt>
      <trkpt lat="46.28527" lon="2.77939">
        <ele>369.4</ele>
        <time>2019-11-01T11:54:24Z</time>
      </trkpt>
      <trkpt lat="46.28524" lon="2.77932">
        <ele>369.4</ele>
        <time>2019-11-01T11:54:25Z</time>
      </trkpt>
      <trkpt lat="46.28523" lon="2.77925">
        <ele>369.4</ele>
        <time>2019-11-01T11:54:26Z</time>
      </trkpt>
      <trkpt lat="46.28522" lon="2.77918">
        <ele>369.4</ele>
        <time>2019-11-01T11:54:27Z</time>
      </trkpt>
      <trkpt lat="46.28521" lon="2.77913">
        <ele>369.4</ele>
        <time>2019-11-01T11:54:28Z</time>
      </trkpt>
      <trkpt lat="46.28521" lon="2.77907">
        <ele>369.4</ele>
        <time>2019-11-01T11:54:29Z</time>
      </trkpt>
      <trkpt lat="46.28521" lon="2.77901">
        <ele>369.4</ele>
        <time>2019-11-01T11:54:30Z</time>
      </trkpt>
      <trkpt lat="46.28522" lon="2.77893">
        <ele>369.4</ele>
        <time>2019-11-01T11:54:31Z</time>
      </trkpt>
      <trkpt lat="46.28523" lon="2.77886">
        <ele>369.4</ele>
        <time>2019-11-01T11:54:32Z</time>
      </trkpt>
      <trkpt lat="46.28525" lon="2.77879">
        <ele>369.5</ele>
        <time>2019-11-01T11:54:33Z</time>
      </trkpt>
      <trkpt lat="46.28527" lon="2.77872">
        <ele>369.5</ele>
        <time>2019-11-01T11:54:34Z</time>
      </trkpt>
      <trkpt lat="46.28529" lon="2.77866">
        <ele>369.6</ele>
        <time>2019-11-01T11:54:35Z</time>
      </trkpt>
      <trkpt lat="46.28532" lon="2.7786">
        <ele>369.7</ele>
        <time>2019-11-01T11:54:36Z</time>
      </trkpt>
      <trkpt lat="46.28535" lon="2.77854">
        <ele>369.8</ele>
        <time>2019-11-01T11:54:37Z</time>
      </trkpt>
      <trkpt lat="46.28538" lon="2.77848">
        <ele>370</ele>
        <time>2019-11-01T11:54:38Z</time>
      </trkpt>
      <trkpt lat="46.28541" lon="2.77843">
        <ele>370.1</ele>
        <time>2019-11-01T11:54:39Z</time>
      </trkpt>
      <trkpt lat="46.28545" lon="2.77838">
        <ele>370.3</ele>
        <time>2019-11-01T11:54:40Z</time>
      </trkpt>
      <trkpt lat="46.28549" lon="2.77834">
        <ele>370.6</ele>
        <time>2019-11-01T11:54:41Z</time>
      </trkpt>
      <trkpt lat="46.28553" lon="2.77831">
        <ele>370.8</ele>
        <time>2019-11-01T11:54:42Z</time>
      </trkpt>
      <trkpt lat="46.28557" lon="2.77828">
        <ele>371.2</ele>
        <time>2019-11-01T11:54:43Z</time>
      </trkpt>
      <trkpt lat="46.2856" lon="2.77825">
        <ele>371.5</ele>
        <time>2019-11-01T11:54:44Z</time>
      </trkpt>
      <trkpt lat="46.28564" lon="2.77824">
        <ele>371.8</ele>
        <time>2019-11-01T11:54:45Z</time>
      </trkpt>
      <trkpt lat="46.28567" lon="2.77822">
        <ele>372</ele>
        <time>2019-11-01T11:54:46Z</time>
      </trkpt>
      <trkpt lat="46.28569" lon="2.77821">
        <ele>372.4</ele>
        <time>2019-11-01T11:54:47Z</time>
      </trkpt>
      <trkpt lat="46.28572" lon="2.77821">
        <ele>372.7</ele>
        <time>2019-11-01T11:54:48Z</time>
      </trkpt>
      <trkpt lat="46.28575" lon="2.77821">
        <ele>372.9</ele>
        <time>2019-11-01T11:54:49Z</time>
      </trkpt>
      <trkpt lat="46.28578" lon="2.77822">
        <ele>373.2</ele>
        <time>2019-11-01T11:54:50Z</time>
      </trkpt>
      <trkpt lat="46.2858" lon="2.77822">
        <ele>373.5</ele>
        <time>2019-11-01T11:54:51Z</time>
      </trkpt>
      <trkpt lat="46.28583" lon="2.77823">
        <ele>373.8</ele>
        <time>2019-11-01T11:54:52Z</time>
      </trkpt>
      <trkpt lat="46.28585" lon="2.77824">
        <ele>374.1</ele>
        <time>2019-11-01T11:54:53Z</time>
      </trkpt>
      <trkpt lat="46.28588" lon="2.77825">
        <ele>374.4</ele>
        <time>2019-11-01T11:54:54Z</time>
      </trkpt>
      <trkpt lat="46.2859" lon="2.77826">
        <ele>374.7</ele>
        <time>2019-11-01T11:54:55Z</time>
      </trkpt>
      <trkpt lat="46.28593" lon="2.77826">
        <ele>375</ele>
        <time>2019-11-01T11:54:56Z</time>
      </trkpt>
      <trkpt lat="46.28595" lon="2.77827">
        <ele>375.3</ele>
        <time>2019-11-01T11:54:57Z</time>
      </trkpt>
      <trkpt lat="46.28597" lon="2.77828">
        <ele>375.5</ele>
        <time>2019-11-01T11:54:58Z</time>
      </trkpt>
      <trkpt lat="46.286" lon="2.77829">
        <ele>375.7</ele>
        <time>2019-11-01T11:54:59Z</time>
      </trkpt>
      <trkpt lat="46.28602" lon="2.77831">
        <ele>375.9</ele>
        <time>2019-11-01T11:55:00Z</time>
      </trkpt>
      <trkpt lat="46.28604" lon="2.77832">
        <ele>376.1</ele>
        <time>2019-11-01T11:55:01Z</time>
      </trkpt>
      <trkpt lat="46.28606" lon="2.77833">
        <ele>376.3</ele>
        <time>2019-11-01T11:55:02Z</time>
      </trkpt>
      <trkpt lat="46.28608" lon="2.77834">
        <ele>376.5</ele>
        <time>2019-11-01T11:55:03Z</time>
      </trkpt>
      <trkpt lat="46.2861" lon="2.77836">
        <ele>376.7</ele>
        <time>2019-11-01T11:55:04Z</time>
      </trkpt>
      <trkpt lat="46.28613" lon="2.77837">
        <ele>376.9</ele>
        <time>2019-11-01T11:55:05Z</time>
      </trkpt>
      <trkpt lat="46.28615" lon="2.77839">
        <ele>377</ele>
        <time>2019-11-01T11:55:06Z</time>
      </trkpt>
      <trkpt lat="46.28617" lon="2.77841">
        <ele>377.1</ele>
        <time>2019-11-01T11:55:07Z</time>
      </trkpt>
      <trkpt lat="46.28619" lon="2.77842">
        <ele>377.3</ele>
        <time>2019-11-01T11:55:08Z</time>
      </trkpt>
      <trkpt lat="46.28621" lon="2.77843">
        <ele>377.4</ele>
        <time>2019-11-01T11:55:09Z</time>
      </trkpt>
      <trkpt lat="46.28623" lon="2.77843">
        <ele>377.4</ele>
        <time>2019-11-01T11:55:10Z</time>
      </trkpt>
      <trkpt lat="46.28626" lon="2.77843">
        <ele>377.5</ele>
        <time>2019-11-01T11:55:11Z</time>
      </trkpt>
      <trkpt lat="46.28628" lon="2.77843">
        <ele>377.6</ele>
        <time>2019-11-01T11:55:12Z</time>
      </trkpt>
      <trkpt lat="46.28631" lon="2.77842">
        <ele>377.7</ele>
        <time>2019-11-01T11:55:13Z</time>
      </trkpt>
      <trkpt lat="46.28634" lon="2.77841">
        <ele>377.8</ele>
        <time>2019-11-01T11:55:14Z</time>
      </trkpt>
      <trkpt lat="46.28637" lon="2.77839">
        <ele>377.9</ele>
        <time>2019-11-01T11:55:15Z</time>
      </trkpt>
      <trkpt lat="46.28639" lon="2.77838">
        <ele>377.9</ele>
        <time>2019-11-01T11:55:16Z</time>
      </trkpt>
      <trkpt lat="46.28642" lon="2.77836">
        <ele>378</ele>
        <time>2019-11-01T11:55:17Z</time>
      </trkpt>
      <trkpt lat="46.28645" lon="2.77834">
        <ele>378.1</ele>
        <time>2019-11-01T11:55:18Z</time>
      </trkpt>
      <trkpt lat="46.28647" lon="2.77832">
        <ele>378.1</ele>
        <time>2019-11-01T11:55:19Z</time>
      </trkpt>
      <trkpt lat="46.2865" lon="2.7783">
        <ele>378.1</ele>
        <time>2019-11-01T11:55:20Z</time>
      </trkpt>
      <trkpt lat="46.28652" lon="2.77828">
        <ele>378.1</ele>
        <time>2019-11-01T11:55:21Z</time>
      </trkpt>
      <trkpt lat="46.28655" lon="2.77827">
        <ele>378.2</ele>
        <time>2019-11-01T11:55:22Z</time>
      </trkpt>
      <trkpt lat="46.28658" lon="2.77824">
        <ele>378.2</ele>
        <time>2019-11-01T11:55:23Z</time>
      </trkpt>
      <trkpt lat="46.2866" lon="2.77823">
        <ele>378.2</ele>
        <time>2019-11-01T11:55:24Z</time>
      </trkpt>
      <trkpt lat="46.28663" lon="2.77821">
        <ele>378.1</ele>
        <time>2019-11-01T11:55:25Z</time>
      </trkpt>
      <trkpt lat="46.28666" lon="2.77819">
        <ele>378.1</ele>
        <time>2019-11-01T11:55:26Z</time>
      </trkpt>
      <trkpt lat="46.28669" lon="2.77817">
        <ele>378.1</ele>
        <time>2019-11-01T11:55:27Z</time>
      </trkpt>
      <trkpt lat="46.28672" lon="2.77815">
        <ele>378.1</ele>
        <time>2019-11-01T11:55:28Z</time>
      </trkpt>
      <trkpt lat="46.28675" lon="2.77813">
        <ele>378.1</ele>
        <time>2019-11-01T11:55:29Z</time>
      </trkpt>
      <trkpt lat="46.28677" lon="2.77811">
        <ele>378.1</ele>
        <time>2019-11-01T11:55:30Z</time>
      </trkpt>
      <trkpt lat="46.2868" lon="2.77808">
        <ele>378.1</ele>
        <time>2019-11-01T11:55:31Z</time>
      </trkpt>
      <trkpt lat="46.28684" lon="2.77806">
        <ele>378</ele>
        <time>2019-11-01T11:55:32Z</time>
      </trkpt>
      <trkpt lat="46.28687" lon="2.77803">
        <ele>378</ele>
        <time>2019-11-01T11:55:33Z</time>
      </trkpt>
      <trkpt lat="46.28691" lon="2.77801">
        <ele>378</ele>
        <time>2019-11-01T11:55:42Z</time>
      </trkpt>
      <trkpt lat="46.28695" lon="2.77798">
        <ele>378</ele>
        <time>2019-11-01T11:55:43Z</time>
      </trkpt>
      <trkpt lat="46.28699" lon="2.77795">
        <ele>378</ele>
        <time>2019-11-01T11:55:44Z</time>
      </trkpt>
      <trkpt lat="46.28703" lon="2.77792">
        <ele>377.9</ele>
        <time>2019-11-01T11:55:45Z</time>
      </trkpt>
      <trkpt lat="46.28707" lon="2.77789">
        <ele>377.9</ele>
        <time>2019-11-01T11:55:46Z</time>
      </trkpt>
      <trkpt lat="46.28711" lon="2.77785">
        <ele>377.9</ele>
        <time>2019-11-01T11:55:47Z</time>
      </trkpt>
      <trkpt lat="46.28715" lon="2.77782">
        <ele>377.9</ele>
        <time>2019-11-01T11:55:48Z</time>
      </trkpt>
      <trkpt lat="46.28719" lon="2.77778">
        <ele>377.9</ele>
        <time>2019-11-01T11:55:49Z</time>
      </trkpt>
      <trkpt lat="46.28723" lon="2.77773">
        <ele>377.9</ele>
        <time>2019-11-01T11:55:50Z</time>
      </trkpt>
      <trkpt lat="46.28727" lon="2.77769">
        <ele>377.9</ele>
        <time>2019-11-01T11:55:51Z</time>
      </trkpt>
      <trkpt lat="46.2873" lon="2.77764">
        <ele>377.9</ele>
        <time>2019-11-01T11:55:52Z</time>
      </trkpt>
      <trkpt lat="46.28734" lon="2.77758">
        <ele>377.9</ele>
        <time>2019-11-01T11:55:53Z</time>
      </trkpt>
      <trkpt lat="46.28738" lon="2.77753">
        <ele>377.8</ele>
        <time>2019-11-01T11:55:54Z</time>
      </trkpt>
      <trkpt lat="46.28742" lon="2.77749">
        <ele>377.7</ele>
        <time>2019-11-01T11:55:55Z</time>
      </trkpt>
      <trkpt lat="46.28745" lon="2.77745">
        <ele>377.5</ele>
        <time>2019-11-01T11:55:56Z</time>
      </trkpt>
      <trkpt lat="46.28748" lon="2.77741">
        <ele>377.4</ele>
        <time>2019-11-01T11:55:57Z</time>
      </trkpt>
      <trkpt lat="46.28751" lon="2.77737">
        <ele>377.2</ele>
        <time>2019-11-01T11:55:58Z</time>
      </trkpt>
      <trkpt lat="46.28752" lon="2.77732">
        <ele>377</ele>
        <time>2019-11-01T11:55:59Z</time>
      </trkpt>
      <trkpt lat="46.28753" lon="2.77728">
        <ele>376.8</ele>
        <time>2019-11-01T11:56:00Z</time>
      </trkpt>
      <trkpt lat="46.28752" lon="2.77723">
        <ele>376.6</ele>
        <time>2019-11-01T11:56:01Z</time>
      </trkpt>
      <trkpt lat="46.28751" lon="2.77718">
        <ele>376.4</ele>
        <time>2019-11-01T11:56:02Z</time>
      </trkpt>
      <trkpt lat="46.2875" lon="2.77712">
        <ele>376.1</ele>
        <time>2019-11-01T11:56:03Z</time>
      </trkpt>
      <trkpt lat="46.28749" lon="2.77705">
        <ele>375.8</ele>
        <time>2019-11-01T11:56:04Z</time>
      </trkpt>
      <trkpt lat="46.28748" lon="2.77698">
        <ele>375.4</ele>
        <time>2019-11-01T11:56:05Z</time>
      </trkpt>
      <trkpt lat="46.28748" lon="2.7769">
        <ele>375</ele>
        <time>2019-11-01T11:56:06Z</time>
      </trkpt>
      <trkpt lat="46.28748" lon="2.77682">
        <ele>374.6</ele>
        <time>2019-11-01T11:56:07Z</time>
      </trkpt>
      <trkpt lat="46.28748" lon="2.77673">
        <ele>374.2</ele>
        <time>2019-11-01T11:56:08Z</time>
      </trkpt>
      <trkpt lat="46.28748" lon="2.77664">
        <ele>373.8</ele>
        <time>2019-11-01T11:56:09Z</time>
      </trkpt>
      <trkpt lat="46.28749" lon="2.77654">
        <ele>373.3</ele>
        <time>2019-11-01T11:56:10Z</time>
      </trkpt>
      <trkpt lat="46.28751" lon="2.77645">
        <ele>372.8</ele>
        <time>2019-11-01T11:56:11Z</time>
      </trkpt>
      <trkpt lat="46.28752" lon="2.77635">
        <ele>372.2</ele>
        <time>2019-11-01T11:56:12Z</time>
      </trkpt>
      <trkpt lat="46.28754" lon="2.77626">
        <ele>371.8</ele>
        <time>2019-11-01T11:56:13Z</time>
      </trkpt>
      <trkpt lat="46.28756" lon="2.77619">
        <ele>371.4</ele>
        <time>2019-11-01T11:56:14Z</time>
      </trkpt>
      <trkpt lat="46.28758" lon="2.77611">
        <ele>371.1</ele>
        <time>2019-11-01T11:56:15Z</time>
      </trkpt>
      <trkpt lat="46.28759" lon="2.77603">
        <ele>370.7</ele>
        <time>2019-11-01T11:56:16Z</time>
      </trkpt>
      <trkpt lat="46.2876" lon="2.77595">
        <ele>370.4</ele>
        <time>2019-11-01T11:56:17Z</time>
      </trkpt>
      <trkpt lat="46.28761" lon="2.77587">
        <ele>370.2</ele>
        <time>2019-11-01T11:56:18Z</time>
      </trkpt>
      <trkpt lat="46.28764" lon="2.77579">
        <ele>369.9</ele>
        <time>2019-11-01T11:56:19Z</time>
      </trkpt>
      <trkpt lat="46.28767" lon="2.77571">
        <ele>369.6</ele>
        <time>2019-11-01T11:56:20Z</time>
      </trkpt>
      <trkpt lat="46.28771" lon="2.77564">
        <ele>369.3</ele>
        <time>2019-11-01T11:56:21Z</time>
      </trkpt>
      <trkpt lat="46.28776" lon="2.77556">
        <ele>369.1</ele>
        <time>2019-11-01T11:56:22Z</time>
      </trkpt>
      <trkpt lat="46.28781" lon="2.77548">
        <ele>368.8</ele>
        <time>2019-11-01T11:56:23Z</time>
      </trkpt>
      <trkpt lat="46.28786" lon="2.7754">
        <ele>368.6</ele>
        <time>2019-11-01T11:56:24Z</time>
      </trkpt>
      <trkpt lat="46.28792" lon="2.77533">
        <ele>368.4</ele>
        <time>2019-11-01T11:56:25Z</time>
      </trkpt>
      <trkpt lat="46.28798" lon="2.77527">
        <ele>368.2</ele>
        <time>2019-11-01T11:56:26Z</time>
      </trkpt>
      <trkpt lat="46.28804" lon="2.77523">
        <ele>368</ele>
        <time>2019-11-01T11:56:27Z</time>
      </trkpt>
      <trkpt lat="46.28811" lon="2.77518">
        <ele>367.7</ele>
        <time>2019-11-01T11:56:28Z</time>
      </trkpt>
      <trkpt lat="46.28817" lon="2.77513">
        <ele>367.5</ele>
        <time>2019-11-01T11:56:29Z</time>
      </trkpt>
      <trkpt lat="46.28824" lon="2.77508">
        <ele>367.2</ele>
        <time>2019-11-01T11:56:30Z</time>
      </trkpt>
      <trkpt lat="46.28832" lon="2.77504">
        <ele>366.9</ele>
        <time>2019-11-01T11:56:31Z</time>
      </trkpt>
      <trkpt lat="46.28838" lon="2.775">
        <ele>366.7</ele>
        <time>2019-11-01T11:56:32Z</time>
      </trkpt>
      <trkpt lat="46.28845" lon="2.77495">
        <ele>366.5</ele>
        <time>2019-11-01T11:56:33Z</time>
      </trkpt>
      <trkpt lat="46.28851" lon="2.77489">
        <ele>366.3</ele>
        <time>2019-11-01T11:56:34Z</time>
      </trkpt>
      <trkpt lat="46.28857" lon="2.77482">
        <ele>366</ele>
        <time>2019-11-01T11:56:35Z</time>
      </trkpt>
      <trkpt lat="46.28863" lon="2.77475">
        <ele>365.8</ele>
        <time>2019-11-01T11:56:36Z</time>
      </trkpt>
      <trkpt lat="46.2887" lon="2.77468">
        <ele>365.6</ele>
        <time>2019-11-01T11:56:37Z</time>
      </trkpt>
      <trkpt lat="46.28876" lon="2.77461">
        <ele>365.4</ele>
        <time>2019-11-01T11:56:38Z</time>
      </trkpt>
      <trkpt lat="46.28883" lon="2.77455">
        <ele>365.3</ele>
        <time>2019-11-01T11:56:39Z</time>
      </trkpt>
      <trkpt lat="46.2889" lon="2.7745">
        <ele>365.1</ele>
        <time>2019-11-01T11:56:40Z</time>
      </trkpt>
      <trkpt lat="46.28898" lon="2.77446">
        <ele>365</ele>
        <time>2019-11-01T11:56:41Z</time>
      </trkpt>
      <trkpt lat="46.28905" lon="2.77441">
        <ele>364.9</ele>
        <time>2019-11-01T11:56:42Z</time>
      </trkpt>
      <trkpt lat="46.28913" lon="2.77438">
        <ele>364.8</ele>
        <time>2019-11-01T11:56:43Z</time>
      </trkpt>
      <trkpt lat="46.28921" lon="2.77434">
        <ele>364.8</ele>
        <time>2019-11-01T11:56:44Z</time>
      </trkpt>
      <trkpt lat="46.28928" lon="2.77431">
        <ele>364.7</ele>
        <time>2019-11-01T11:56:45Z</time>
      </trkpt>
      <trkpt lat="46.28936" lon="2.77429">
        <ele>364.7</ele>
        <time>2019-11-01T11:56:46Z</time>
      </trkpt>
      <trkpt lat="46.28943" lon="2.77426">
        <ele>364.7</ele>
        <time>2019-11-01T11:56:47Z</time>
      </trkpt>
      <trkpt lat="46.2895" lon="2.77423">
        <ele>364.7</ele>
        <time>2019-11-01T11:56:48Z</time>
      </trkpt>
      <trkpt lat="46.28958" lon="2.7742">
        <ele>364.8</ele>
        <time>2019-11-01T11:56:49Z</time>
      </trkpt>
      <trkpt lat="46.28965" lon="2.77418">
        <ele>364.8</ele>
        <time>2019-11-01T11:56:50Z</time>
      </trkpt>
      <trkpt lat="46.28972" lon="2.77416">
        <ele>365</ele>
        <time>2019-11-01T11:56:51Z</time>
      </trkpt>
      <trkpt lat="46.28978" lon="2.77414">
        <ele>365.1</ele>
        <time>2019-11-01T11:56:52Z</time>
      </trkpt>
      <trkpt lat="46.28984" lon="2.77411">
        <ele>365.2</ele>
        <time>2019-11-01T11:56:53Z</time>
      </trkpt>
      <trkpt lat="46.2899" lon="2.77407">
        <ele>365.3</ele>
        <time>2019-11-01T11:56:54Z</time>
      </trkpt>
      <trkpt lat="46.28995" lon="2.77402">
        <ele>365.5</ele>
        <time>2019-11-01T11:56:55Z</time>
      </trkpt>
      <trkpt lat="46.29" lon="2.77396">
        <ele>365.6</ele>
        <time>2019-11-01T11:56:56Z</time>
      </trkpt>
      <trkpt lat="46.29004" lon="2.7739">
        <ele>365.8</ele>
        <time>2019-11-01T11:56:57Z</time>
      </trkpt>
      <trkpt lat="46.29008" lon="2.77384">
        <ele>366</ele>
        <time>2019-11-01T11:56:58Z</time>
      </trkpt>
      <trkpt lat="46.29012" lon="2.77377">
        <ele>366.2</ele>
        <time>2019-11-01T11:56:59Z</time>
      </trkpt>
      <trkpt lat="46.29017" lon="2.77371">
        <ele>366.4</ele>
        <time>2019-11-01T11:57:00Z</time>
      </trkpt>
      <trkpt lat="46.29021" lon="2.77365">
        <ele>366.7</ele>
        <time>2019-11-01T11:57:01Z</time>
      </trkpt>
      <trkpt lat="46.29025" lon="2.77359">
        <ele>366.9</ele>
        <time>2019-11-01T11:57:02Z</time>
      </trkpt>
      <trkpt lat="46.29029" lon="2.77354">
        <ele>367</ele>
        <time>2019-11-01T11:57:03Z</time>
      </trkpt>
      <trkpt lat="46.29033" lon="2.77349">
        <ele>367.2</ele>
        <time>2019-11-01T11:57:04Z</time>
      </trkpt>
      <trkpt lat="46.29036" lon="2.77345">
        <ele>367.3</ele>
        <time>2019-11-01T11:57:05Z</time>
      </trkpt>
      <trkpt lat="46.29039" lon="2.7734">
        <ele>367.3</ele>
        <time>2019-11-01T11:57:06Z</time>
      </trkpt>
      <trkpt lat="46.29042" lon="2.77336">
        <ele>367.3</ele>
        <time>2019-11-01T11:57:07Z</time>
      </trkpt>
      <trkpt lat="46.29045" lon="2.77332">
        <ele>367.3</ele>
        <time>2019-11-01T11:57:08Z</time>
      </trkpt>
      <trkpt lat="46.29047" lon="2.77329">
        <ele>367.2</ele>
        <time>2019-11-01T11:57:09Z</time>
      </trkpt>
      <trkpt lat="46.2905" lon="2.77325">
        <ele>367.1</ele>
        <time>2019-11-01T11:57:10Z</time>
      </trkpt>
      <trkpt lat="46.29052" lon="2.77321">
        <ele>367</ele>
        <time>2019-11-01T11:57:11Z</time>
      </trkpt>
      <trkpt lat="46.29055" lon="2.77318">
        <ele>366.9</ele>
        <time>2019-11-01T11:57:12Z</time>
      </trkpt>
      <trkpt lat="46.29058" lon="2.77314">
        <ele>366.8</ele>
        <time>2019-11-01T11:57:13Z</time>
      </trkpt>
      <trkpt lat="46.2906" lon="2.77311">
        <ele>366.7</ele>
        <time>2019-11-01T11:57:14Z</time>
      </trkpt>
      <trkpt lat="46.29062" lon="2.77308">
        <ele>366.6</ele>
        <time>2019-11-01T11:57:15Z</time>
      </trkpt>
      <trkpt lat="46.29063" lon="2.77305">
        <ele>366.5</ele>
        <time>2019-11-01T11:57:16Z</time>
      </trkpt>
      <trkpt lat="46.29063" lon="2.77304">
        <ele>366.5</ele>
        <time>2019-11-01T11:57:17Z</time>
      </trkpt>
      <trkpt lat="46.29063" lon="2.77303">
        <ele>366.4</ele>
        <time>2019-11-01T11:57:18Z</time>
      </trkpt>
      <trkpt lat="46.29063" lon="2.77303">
        <ele>366.4</ele>
        <time>2019-11-01T11:57:19Z</time>
      </trkpt>
      <trkpt lat="46.29062" lon="2.77303">
        <ele>366.4</ele>
        <time>2019-11-01T11:57:20Z</time>
      </trkpt>
      <trkpt lat="46.2906" lon="2.77304">
        <ele>366.3</ele>
        <time>2019-11-01T11:57:21Z</time>
      </trkpt>
      <trkpt lat="46.29061" lon="2.77302">
        <ele>366.3</ele>
        <time>2019-11-01T11:57:22Z</time>
      </trkpt>
      <trkpt lat="46.29061" lon="2.773">
        <ele>366.2</ele>
        <time>2019-11-01T11:57:23Z</time>
      </trkpt>
      <trkpt lat="46.29062" lon="2.77297">
        <ele>366.1</ele>
        <time>2019-11-01T11:57:24Z</time>
      </trkpt>
      <trkpt lat="46.29062" lon="2.77293">
        <ele>366</ele>
        <time>2019-11-01T11:57:25Z</time>
      </trkpt>
      <trkpt lat="46.29062" lon="2.77288">
        <ele>365.9</ele>
        <time>2019-11-01T11:57:26Z</time>
      </trkpt>
      <trkpt lat="46.29063" lon="2.77283">
        <ele>365.8</ele>
        <time>2019-11-01T11:57:27Z</time>
      </trkpt>
      <trkpt lat="46.29063" lon="2.77277">
        <ele>365.7</ele>
        <time>2019-11-01T11:57:28Z</time>
      </trkpt>
      <trkpt lat="46.29064" lon="2.77271">
        <ele>365.7</ele>
        <time>2019-11-01T11:57:29Z</time>
      </trkpt>
      <trkpt lat="46.29065" lon="2.77266">
        <ele>365.6</ele>
        <time>2019-11-01T11:57:30Z</time>
      </trkpt>
      <trkpt lat="46.29067" lon="2.7726">
        <ele>365.5</ele>
        <time>2019-11-01T11:57:31Z</time>
      </trkpt>
      <trkpt lat="46.29069" lon="2.77255">
        <ele>365.5</ele>
        <time>2019-11-01T11:57:32Z</time>
      </trkpt>
      <trkpt lat="46.2907" lon="2.7725">
        <ele>365.4</ele>
        <time>2019-11-01T11:57:33Z</time>
      </trkpt>
      <trkpt lat="46.29072" lon="2.77246">
        <ele>365.2</ele>
        <time>2019-11-01T11:57:34Z</time>
      </trkpt>
      <trkpt lat="46.29074" lon="2.77242">
        <ele>365.2</ele>
        <time>2019-11-01T11:57:35Z</time>
      </trkpt>
      <trkpt lat="46.29075" lon="2.77238">
        <ele>365.2</ele>
        <time>2019-11-01T11:57:36Z</time>
      </trkpt>
      <trkpt lat="46.29077" lon="2.77234">
        <ele>365.1</ele>
        <time>2019-11-01T11:57:37Z</time>
      </trkpt>
      <trkpt lat="46.29078" lon="2.7723">
        <ele>365</ele>
        <time>2019-11-01T11:57:38Z</time>
      </trkpt>
      <trkpt lat="46.29078" lon="2.77226">
        <ele>364.9</ele>
        <time>2019-11-01T11:57:39Z</time>
      </trkpt>
      <trkpt lat="46.29078" lon="2.77222">
        <ele>364.7</ele>
        <time>2019-11-01T11:57:40Z</time>
      </trkpt>
      <trkpt lat="46.29077" lon="2.77219">
        <ele>364.5</ele>
        <time>2019-11-01T11:57:41Z</time>
      </trkpt>
      <trkpt lat="46.29076" lon="2.77215">
        <ele>364.3</ele>
        <time>2019-11-01T11:57:42Z</time>
      </trkpt>
      <trkpt lat="46.29074" lon="2.77211">
        <ele>364.1</ele>
        <time>2019-11-01T11:57:43Z</time>
      </trkpt>
      <trkpt lat="46.29073" lon="2.77207">
        <ele>363.9</ele>
        <time>2019-11-01T11:57:44Z</time>
      </trkpt>
      <trkpt lat="46.29071" lon="2.77203">
        <ele>363.9</ele>
        <time>2019-11-01T11:57:45Z</time>
      </trkpt>
      <trkpt lat="46.2907" lon="2.77201">
        <ele>363.7</ele>
        <time>2019-11-01T11:57:46Z</time>
      </trkpt>
      <trkpt lat="46.29069" lon="2.77198">
        <ele>363.5</ele>
        <time>2019-11-01T11:57:47Z</time>
      </trkpt>
      <trkpt lat="46.29069" lon="2.77195">
        <ele>363.5</ele>
        <time>2019-11-01T11:57:48Z</time>
      </trkpt>
      <trkpt lat="46.29068" lon="2.77192">
        <ele>363.4</ele>
        <time>2019-11-01T11:57:49Z</time>
      </trkpt>
      <trkpt lat="46.29067" lon="2.7719">
        <ele>363.2</ele>
        <time>2019-11-01T11:57:50Z</time>
      </trkpt>
      <trkpt lat="46.29066" lon="2.77188">
        <ele>363.2</ele>
        <time>2019-11-01T11:57:51Z</time>
      </trkpt>
      <trkpt lat="46.29064" lon="2.77186">
        <ele>363.1</ele>
        <time>2019-11-01T11:57:52Z</time>
      </trkpt>
      <trkpt lat="46.29062" lon="2.77184">
        <ele>363.1</ele>
        <time>2019-11-01T11:57:53Z</time>
      </trkpt>
      <trkpt lat="46.2906" lon="2.77183">
        <ele>363.2</ele>
        <time>2019-11-01T11:57:54Z</time>
      </trkpt>
      <trkpt lat="46.29059" lon="2.77181">
        <ele>363.1</ele>
        <time>2019-11-01T11:57:55Z</time>
      </trkpt>
      <trkpt lat="46.29057" lon="2.7718">
        <ele>363.1</ele>
        <time>2019-11-01T11:57:56Z</time>
      </trkpt>
      <trkpt lat="46.29055" lon="2.7718">
        <ele>363.2</ele>
        <time>2019-11-01T11:57:57Z</time>
      </trkpt>
      <trkpt lat="46.29053" lon="2.77179">
        <ele>363.2</ele>
        <time>2019-11-01T11:57:58Z</time>
      </trkpt>
      <trkpt lat="46.29051" lon="2.77178">
        <ele>363.3</ele>
        <time>2019-11-01T11:57:59Z</time>
      </trkpt>
      <trkpt lat="46.29049" lon="2.77177">
        <ele>363.3</ele>
        <time>2019-11-01T11:58:00Z</time>
      </trkpt>
      <trkpt lat="46.29047" lon="2.77176">
        <ele>363.3</ele>
        <time>2019-11-01T11:58:01Z</time>
      </trkpt>
      <trkpt lat="46.29045" lon="2.77174">
        <ele>363.4</ele>
        <time>2019-11-01T11:58:02Z</time>
      </trkpt>
      <trkpt lat="46.29043" lon="2.77173">
        <ele>363.4</ele>
        <time>2019-11-01T11:58:03Z</time>
      </trkpt>
      <trkpt lat="46.29041" lon="2.77172">
        <ele>363.5</ele>
        <time>2019-11-01T11:58:04Z</time>
      </trkpt>
      <trkpt lat="46.29039" lon="2.7717">
        <ele>363.6</ele>
        <time>2019-11-01T11:58:05Z</time>
      </trkpt>
      <trkpt lat="46.29037" lon="2.77169">
        <ele>363.7</ele>
        <time>2019-11-01T11:58:06Z</time>
      </trkpt>
      <trkpt lat="46.29034" lon="2.77168">
        <ele>363.8</ele>
        <time>2019-11-01T11:58:07Z</time>
      </trkpt>
      <trkpt lat="46.29032" lon="2.77167">
        <ele>363.8</ele>
        <time>2019-11-01T11:58:08Z</time>
      </trkpt>
      <trkpt lat="46.2903" lon="2.77167">
        <ele>363.9</ele>
        <time>2019-11-01T11:58:09Z</time>
      </trkpt>
      <trkpt lat="46.29027" lon="2.77166">
        <ele>364.1</ele>
        <time>2019-11-01T11:58:10Z</time>
      </trkpt>
      <trkpt lat="46.29025" lon="2.77166">
        <ele>364.3</ele>
        <time>2019-11-01T11:58:11Z</time>
      </trkpt>
      <trkpt lat="46.29022" lon="2.77165">
        <ele>364.5</ele>
        <time>2019-11-01T11:58:12Z</time>
      </trkpt>
      <trkpt lat="46.2902" lon="2.77164">
        <ele>364.6</ele>
        <time>2019-11-01T11:58:13Z</time>
      </trkpt>
      <trkpt lat="46.29018" lon="2.77163">
        <ele>364.8</ele>
        <time>2019-11-01T11:58:14Z</time>
      </trkpt>
      <trkpt lat="46.29016" lon="2.77162">
        <ele>365</ele>
        <time>2019-11-01T11:58:15Z</time>
      </trkpt>
      <trkpt lat="46.29013" lon="2.77161">
        <ele>365.2</ele>
        <time>2019-11-01T11:58:16Z</time>
      </trkpt>
      <trkpt lat="46.29011" lon="2.7716">
        <ele>365.4</ele>
        <time>2019-11-01T11:58:17Z</time>
      </trkpt>
      <trkpt lat="46.29009" lon="2.77159">
        <ele>365.6</ele>
        <time>2019-11-01T11:58:18Z</time>
      </trkpt>
      <trkpt lat="46.29007" lon="2.77158">
        <ele>365.9</ele>
        <time>2019-11-01T11:58:19Z</time>
      </trkpt>
      <trkpt lat="46.29005" lon="2.77158">
        <ele>366.2</ele>
        <time>2019-11-01T11:58:20Z</time>
      </trkpt>
      <trkpt lat="46.29003" lon="2.77158">
        <ele>366.2</ele>
        <time>2019-11-01T11:58:21Z</time>
      </trkpt>
      <trkpt lat="46.29001" lon="2.77157">
        <ele>366.5</ele>
        <time>2019-11-01T11:58:22Z</time>
      </trkpt>
      <trkpt lat="46.28999" lon="2.77157">
        <ele>366.8</ele>
        <time>2019-11-01T11:58:23Z</time>
      </trkpt>
      <trkpt lat="46.28997" lon="2.77159">
        <ele>366.8</ele>
        <time>2019-11-01T11:58:24Z</time>
      </trkpt>
      <trkpt lat="46.28995" lon="2.77159">
        <ele>367.1</ele>
        <time>2019-11-01T11:58:25Z</time>
      </trkpt>
      <trkpt lat="46.28992" lon="2.7716">
        <ele>367.3</ele>
        <time>2019-11-01T11:58:26Z</time>
      </trkpt>
      <trkpt lat="46.28989" lon="2.77161">
        <ele>367.4</ele>
        <time>2019-11-01T11:58:27Z</time>
      </trkpt>
      <trkpt lat="46.28987" lon="2.77161">
        <ele>367.6</ele>
        <time>2019-11-01T11:58:28Z</time>
      </trkpt>
      <trkpt lat="46.28984" lon="2.77162">
        <ele>367.7</ele>
        <time>2019-11-01T11:58:29Z</time>
      </trkpt>
      <trkpt lat="46.28982" lon="2.77162">
        <ele>367.7</ele>
        <time>2019-11-01T11:58:30Z</time>
      </trkpt>
      <trkpt lat="46.28981" lon="2.77163">
        <ele>367.9</ele>
        <time>2019-11-01T11:58:31Z</time>
      </trkpt>
      <trkpt lat="46.28979" lon="2.77164">
        <ele>367.9</ele>
        <time>2019-11-01T11:58:32Z</time>
      </trkpt>
      <trkpt lat="46.28976" lon="2.77165">
        <ele>367.9</ele>
        <time>2019-11-01T11:58:33Z</time>
      </trkpt>
      <trkpt lat="46.28974" lon="2.77166">
        <ele>368</ele>
        <time>2019-11-01T11:58:34Z</time>
      </trkpt>
      <trkpt lat="46.28973" lon="2.77167">
        <ele>368</ele>
        <time>2019-11-01T11:58:35Z</time>
      </trkpt>
      <trkpt lat="46.28971" lon="2.77168">
        <ele>368.1</ele>
        <time>2019-11-01T11:58:36Z</time>
      </trkpt>
      <trkpt lat="46.2897" lon="2.77168">
        <ele>368.1</ele>
        <time>2019-11-01T11:58:37Z</time>
      </trkpt>
      <trkpt lat="46.28969" lon="2.77169">
        <ele>368.1</ele>
        <time>2019-11-01T11:58:38Z</time>
      </trkpt>
      <trkpt lat="46.28967" lon="2.77171">
        <ele>368.1</ele>
        <time>2019-11-01T11:58:39Z</time>
      </trkpt>
      <trkpt lat="46.28965" lon="2.77171">
        <ele>368.2</ele>
        <time>2019-11-01T11:58:40Z</time>
      </trkpt>
      <trkpt lat="46.28963" lon="2.77173">
        <ele>368.3</ele>
        <time>2019-11-01T11:58:41Z</time>
      </trkpt>
      <trkpt lat="46.28961" lon="2.77174">
        <ele>368.2</ele>
        <time>2019-11-01T11:58:42Z</time>
      </trkpt>
      <trkpt lat="46.2896" lon="2.77175">
        <ele>368.3</ele>
        <time>2019-11-01T11:58:43Z</time>
      </trkpt>
      <trkpt lat="46.28958" lon="2.77176">
        <ele>368.3</ele>
        <time>2019-11-01T11:58:44Z</time>
      </trkpt>
      <trkpt lat="46.28956" lon="2.77178">
        <ele>368.3</ele>
        <time>2019-11-01T11:58:45Z</time>
      </trkpt>
      <trkpt lat="46.28954" lon="2.77179">
        <ele>368.4</ele>
        <time>2019-11-01T11:58:46Z</time>
      </trkpt>
      <trkpt lat="46.28952" lon="2.77179">
        <ele>368.6</ele>
        <time>2019-11-01T11:58:47Z</time>
      </trkpt>
      <trkpt lat="46.2895" lon="2.77179">
        <ele>368.6</ele>
        <time>2019-11-01T11:58:48Z</time>
      </trkpt>
      <trkpt lat="46.28948" lon="2.7718">
        <ele>368.8</ele>
        <time>2019-11-01T11:58:49Z</time>
      </trkpt>
      <trkpt lat="46.28946" lon="2.77181">
        <ele>368.8</ele>
        <time>2019-11-01T11:58:50Z</time>
      </trkpt>
      <trkpt lat="46.28945" lon="2.77182">
        <ele>368.9</ele>
        <time>2019-11-01T11:58:51Z</time>
      </trkpt>
      <trkpt lat="46.28943" lon="2.77182">
        <ele>369.1</ele>
        <time>2019-11-01T11:58:52Z</time>
      </trkpt>
      <trkpt lat="46.28941" lon="2.77182">
        <ele>369.3</ele>
        <time>2019-11-01T11:58:53Z</time>
      </trkpt>
      <trkpt lat="46.28939" lon="2.77182">
        <ele>369.5</ele>
        <time>2019-11-01T11:58:54Z</time>
      </trkpt>
      <trkpt lat="46.28938" lon="2.77182">
        <ele>369.7</ele>
        <time>2019-11-01T11:58:55Z</time>
      </trkpt>
      <trkpt lat="46.28936" lon="2.77181">
        <ele>369.9</ele>
        <time>2019-11-01T11:58:56Z</time>
      </trkpt>
      <trkpt lat="46.28934" lon="2.77181">
        <ele>370.1</ele>
        <time>2019-11-01T11:58:57Z</time>
      </trkpt>
      <trkpt lat="46.28933" lon="2.77181">
        <ele>370.3</ele>
        <time>2019-11-01T11:58:58Z</time>
      </trkpt>
      <trkpt lat="46.28931" lon="2.77181">
        <ele>370.6</ele>
        <time>2019-11-01T11:58:59Z</time>
      </trkpt>
      <trkpt lat="46.28929" lon="2.7718">
        <ele>370.7</ele>
        <time>2019-11-01T11:59:00Z</time>
      </trkpt>
      <trkpt lat="46.28928" lon="2.7718">
        <ele>370.9</ele>
        <time>2019-11-01T11:59:01Z</time>
      </trkpt>
      <trkpt lat="46.28926" lon="2.7718">
        <ele>371.2</ele>
        <time>2019-11-01T11:59:02Z</time>
      </trkpt>
      <trkpt lat="46.28924" lon="2.7718">
        <ele>371.4</ele>
        <time>2019-11-01T11:59:03Z</time>
      </trkpt>
      <trkpt lat="46.28922" lon="2.7718">
        <ele>371.7</ele>
        <time>2019-11-01T11:59:04Z</time>
      </trkpt>
      <trkpt lat="46.2892" lon="2.7718">
        <ele>372</ele>
        <time>2019-11-01T11:59:05Z</time>
      </trkpt>
      <trkpt lat="46.28918" lon="2.77181">
        <ele>372.2</ele>
        <time>2019-11-01T11:59:37Z</time>
      </trkpt>
      <trkpt lat="46.28916" lon="2.77182">
        <ele>372.4</ele>
        <time>2019-11-01T11:59:38Z</time>
      </trkpt>
      <trkpt lat="46.28914" lon="2.77183">
        <ele>372.7</ele>
        <time>2019-11-01T11:59:39Z</time>
      </trkpt>
      <trkpt lat="46.28912" lon="2.77184">
        <ele>373</ele>
        <time>2019-11-01T11:59:40Z</time>
      </trkpt>
      <trkpt lat="46.28911" lon="2.77185">
        <ele>373.2</ele>
        <time>2019-11-01T11:59:41Z</time>
      </trkpt>
      <trkpt lat="46.28909" lon="2.77185">
        <ele>373.5</ele>
        <time>2019-11-01T11:59:42Z</time>
      </trkpt>
      <trkpt lat="46.28908" lon="2.77186">
        <ele>373.7</ele>
        <time>2019-11-01T11:59:43Z</time>
      </trkpt>
      <trkpt lat="46.28907" lon="2.77187">
        <ele>373.8</ele>
        <time>2019-11-01T11:59:44Z</time>
      </trkpt>
      <trkpt lat="46.28906" lon="2.77189">
        <ele>374</ele>
        <time>2019-11-01T11:59:45Z</time>
      </trkpt>
      <trkpt lat="46.28905" lon="2.7719">
        <ele>374.2</ele>
        <time>2019-11-01T11:59:46Z</time>
      </trkpt>
      <trkpt lat="46.28904" lon="2.77191">
        <ele>374.4</ele>
        <time>2019-11-01T11:59:47Z</time>
      </trkpt>
      <trkpt lat="46.28903" lon="2.77192">
        <ele>374.5</ele>
        <time>2019-11-01T11:59:48Z</time>
      </trkpt>
      <trkpt lat="46.28901" lon="2.77194">
        <ele>374.7</ele>
        <time>2019-11-01T11:59:49Z</time>
      </trkpt>
      <trkpt lat="46.289" lon="2.77195">
        <ele>374.9</ele>
        <time>2019-11-01T11:59:50Z</time>
      </trkpt>
      <trkpt lat="46.28898" lon="2.77196">
        <ele>375.1</ele>
        <time>2019-11-01T11:59:51Z</time>
      </trkpt>
      <trkpt lat="46.28896" lon="2.77197">
        <ele>375.4</ele>
        <time>2019-11-01T11:59:52Z</time>
      </trkpt>
      <trkpt lat="46.28894" lon="2.77199">
        <ele>375.7</ele>
        <time>2019-11-01T11:59:53Z</time>
      </trkpt>
      <trkpt lat="46.28893" lon="2.77199">
        <ele>375.9</ele>
        <time>2019-11-01T11:59:54Z</time>
      </trkpt>
      <trkpt lat="46.28891" lon="2.772">
        <ele>376.1</ele>
        <time>2019-11-01T11:59:55Z</time>
      </trkpt>
      <trkpt lat="46.28889" lon="2.77201">
        <ele>376.4</ele>
        <time>2019-11-01T11:59:56Z</time>
      </trkpt>
      <trkpt lat="46.28888" lon="2.77202">
        <ele>376.6</ele>
        <time>2019-11-01T11:59:57Z</time>
      </trkpt>
      <trkpt lat="46.28886" lon="2.77203">
        <ele>376.8</ele>
        <time>2019-11-01T11:59:58Z</time>
      </trkpt>
      <trkpt lat="46.28884" lon="2.77204">
        <ele>377.1</ele>
        <time>2019-11-01T11:59:59Z</time>
      </trkpt>
      <trkpt lat="46.28881" lon="2.77205">
        <ele>377.4</ele>
        <time>2019-11-01T12:00:00Z</time>
      </trkpt>
      <trkpt lat="46.28879" lon="2.77206">
        <ele>377.7</ele>
        <time>2019-11-01T12:00:01Z</time>
      </trkpt>
      <trkpt lat="46.28877" lon="2.77206">
        <ele>378</ele>
        <time>2019-11-01T12:00:02Z</time>
      </trkpt>
      <trkpt lat="46.28875" lon="2.77207">
        <ele>378.3</ele>
        <time>2019-11-01T12:00:03Z</time>
      </trkpt>
      <trkpt lat="46.28873" lon="2.77208">
        <ele>378.5</ele>
        <time>2019-11-01T12:00:04Z</time>
      </trkpt>
      <trkpt lat="46.28871" lon="2.77209">
        <ele>378.8</ele>
        <time>2019-11-01T12:00:05Z</time>
      </trkpt>
      <trkpt lat="46.28868" lon="2.7721">
        <ele>379</ele>
        <time>2019-11-01T12:00:06Z</time>
      </trkpt>
      <trkpt lat="46.28866" lon="2.7721">
        <ele>379.3</ele>
        <time>2019-11-01T12:00:07Z</time>
      </trkpt>
      <trkpt lat="46.28863" lon="2.77211">
        <ele>379.6</ele>
        <time>2019-11-01T12:00:08Z</time>
      </trkpt>
      <trkpt lat="46.28861" lon="2.77212">
        <ele>379.9</ele>
        <time>2019-11-01T12:00:09Z</time>
      </trkpt>
      <trkpt lat="46.28858" lon="2.77213">
        <ele>380.2</ele>
        <time>2019-11-01T12:00:10Z</time>
      </trkpt>
      <trkpt lat="46.28857" lon="2.77213">
        <ele>380.4</ele>
        <time>2019-11-01T12:00:11Z</time>
      </trkpt>
      <trkpt lat="46.28854" lon="2.77213">
        <ele>380.7</ele>
        <time>2019-11-01T12:00:12Z</time>
      </trkpt>
      <trkpt lat="46.28852" lon="2.77213">
        <ele>380.9</ele>
        <time>2019-11-01T12:00:13Z</time>
      </trkpt>
      <trkpt lat="46.2885" lon="2.77213">
        <ele>381.1</ele>
        <time>2019-11-01T12:00:14Z</time>
      </trkpt>
      <trkpt lat="46.28848" lon="2.77213">
        <ele>381.3</ele>
        <time>2019-11-01T12:00:15Z</time>
      </trkpt>
      <trkpt lat="46.28845" lon="2.77213">
        <ele>381.5</ele>
        <time>2019-11-01T12:00:16Z</time>
      </trkpt>
      <trkpt lat="46.28843" lon="2.77213">
        <ele>381.7</ele>
        <time>2019-11-01T12:00:17Z</time>
      </trkpt>
      <trkpt lat="46.2884" lon="2.77213">
        <ele>381.9</ele>
        <time>2019-11-01T12:00:18Z</time>
      </trkpt>
      <trkpt lat="46.28838" lon="2.77213">
        <ele>382.1</ele>
        <time>2019-11-01T12:00:19Z</time>
      </trkpt>
      <trkpt lat="46.28836" lon="2.77213">
        <ele>382.2</ele>
        <time>2019-11-01T12:00:20Z</time>
      </trkpt>
      <trkpt lat="46.28834" lon="2.77213">
        <ele>382.4</ele>
        <time>2019-11-01T12:00:21Z</time>
      </trkpt>
      <trkpt lat="46.28832" lon="2.77213">
        <ele>382.6</ele>
        <time>2019-11-01T12:00:22Z</time>
      </trkpt>
      <trkpt lat="46.2883" lon="2.77214">
        <ele>382.7</ele>
        <time>2019-11-01T12:00:23Z</time>
      </trkpt>
      <trkpt lat="46.28828" lon="2.77214">
        <ele>382.8</ele>
        <time>2019-11-01T12:00:24Z</time>
      </trkpt>
      <trkpt lat="46.28826" lon="2.77215">
        <ele>383</ele>
        <time>2019-11-01T12:00:25Z</time>
      </trkpt>
      <trkpt lat="46.28823" lon="2.77215">
        <ele>383.2</ele>
        <time>2019-11-01T12:00:26Z</time>
      </trkpt>
      <trkpt lat="46.28821" lon="2.77215">
        <ele>383.3</ele>
        <time>2019-11-01T12:00:27Z</time>
      </trkpt>
      <trkpt lat="46.28818" lon="2.77216">
        <ele>383.4</ele>
        <time>2019-11-01T12:00:28Z</time>
      </trkpt>
      <trkpt lat="46.28816" lon="2.77216">
        <ele>383.5</ele>
        <time>2019-11-01T12:00:29Z</time>
      </trkpt>
      <trkpt lat="46.28814" lon="2.77216">
        <ele>383.6</ele>
        <time>2019-11-01T12:00:30Z</time>
      </trkpt>
      <trkpt lat="46.28811" lon="2.77216">
        <ele>383.8</ele>
        <time>2019-11-01T12:00:31Z</time>
      </trkpt>
      <trkpt lat="46.28809" lon="2.77216">
        <ele>383.9</ele>
        <time>2019-11-01T12:00:32Z</time>
      </trkpt>
      <trkpt lat="46.28805" lon="2.77215">
        <ele>384</ele>
        <time>2019-11-01T12:00:33Z</time>
      </trkpt>
      <trkpt lat="46.28803" lon="2.77215">
        <ele>384.1</ele>
        <time>2019-11-01T12:00:34Z</time>
      </trkpt>
      <trkpt lat="46.288" lon="2.77215">
        <ele>384.2</ele>
        <time>2019-11-01T12:00:35Z</time>
      </trkpt>
      <trkpt lat="46.28797" lon="2.77215">
        <ele>384.3</ele>
        <time>2019-11-01T12:00:36Z</time>
      </trkpt>
      <trkpt lat="46.28794" lon="2.77215">
        <ele>384.4</ele>
        <time>2019-11-01T12:00:37Z</time>
      </trkpt>
      <trkpt lat="46.28791" lon="2.77215">
        <ele>384.5</ele>
        <time>2019-11-01T12:00:38Z</time>
      </trkpt>
      <trkpt lat="46.28788" lon="2.77214">
        <ele>384.6</ele>
        <time>2019-11-01T12:00:39Z</time>
      </trkpt>
      <trkpt lat="46.28785" lon="2.77214">
        <ele>384.7</ele>
        <time>2019-11-01T12:00:40Z</time>
      </trkpt>
      <trkpt lat="46.28782" lon="2.77213">
        <ele>384.8</ele>
        <time>2019-11-01T12:00:41Z</time>
      </trkpt>
      <trkpt lat="46.28778" lon="2.77213">
        <ele>384.9</ele>
        <time>2019-11-01T12:00:42Z</time>
      </trkpt>
      <trkpt lat="46.28775" lon="2.77212">
        <ele>385</ele>
        <time>2019-11-01T12:00:43Z</time>
      </trkpt>
      <trkpt lat="46.28772" lon="2.77211">
        <ele>385.1</ele>
        <time>2019-11-01T12:00:44Z</time>
      </trkpt>
      <trkpt lat="46.28768" lon="2.77211">
        <ele>385.3</ele>
        <time>2019-11-01T12:00:45Z</time>
      </trkpt>
      <trkpt lat="46.28764" lon="2.77211">
        <ele>385.4</ele>
        <time>2019-11-01T12:00:46Z</time>
      </trkpt>
      <trkpt lat="46.28761" lon="2.77211">
        <ele>385.5</ele>
        <time>2019-11-01T12:00:47Z</time>
      </trkpt>
      <trkpt lat="46.28758" lon="2.7721">
        <ele>385.6</ele>
        <time>2019-11-01T12:00:48Z</time>
      </trkpt>
      <trkpt lat="46.28755" lon="2.7721">
        <ele>385.7</ele>
        <time>2019-11-01T12:00:49Z</time>
      </trkpt>
      <trkpt lat="46.28751" lon="2.7721">
        <ele>385.8</ele>
        <time>2019-11-01T12:00:50Z</time>
      </trkpt>
      <trkpt lat="46.28747" lon="2.77209">
        <ele>386</ele>
        <time>2019-11-01T12:00:51Z</time>
      </trkpt>
      <trkpt lat="46.28744" lon="2.77209">
        <ele>386.1</ele>
        <time>2019-11-01T12:00:52Z</time>
      </trkpt>
      <trkpt lat="46.28741" lon="2.77209">
        <ele>386.2</ele>
        <time>2019-11-01T12:00:53Z</time>
      </trkpt>
      <trkpt lat="46.28737" lon="2.77209">
        <ele>386.3</ele>
        <time>2019-11-01T12:00:54Z</time>
      </trkpt>
      <trkpt lat="46.28733" lon="2.77209">
        <ele>386.4</ele>
        <time>2019-11-01T12:00:55Z</time>
      </trkpt>
      <trkpt lat="46.28731" lon="2.77209">
        <ele>386.4</ele>
        <time>2019-11-01T12:00:56Z</time>
      </trkpt>
      <trkpt lat="46.28727" lon="2.77209">
        <ele>386.5</ele>
        <time>2019-11-01T12:00:57Z</time>
      </trkpt>
      <trkpt lat="46.28724" lon="2.77209">
        <ele>386.6</ele>
        <time>2019-11-01T12:00:58Z</time>
      </trkpt>
      <trkpt lat="46.2872" lon="2.77208">
        <ele>386.6</ele>
        <time>2019-11-01T12:00:59Z</time>
      </trkpt>
      <trkpt lat="46.28717" lon="2.77208">
        <ele>386.6</ele>
        <time>2019-11-01T12:01:00Z</time>
      </trkpt>
      <trkpt lat="46.28713" lon="2.77208">
        <ele>386.6</ele>
        <time>2019-11-01T12:01:01Z</time>
      </trkpt>
      <trkpt lat="46.28709" lon="2.77208">
        <ele>386.5</ele>
        <time>2019-11-01T12:01:02Z</time>
      </trkpt>
      <trkpt lat="46.28706" lon="2.77208">
        <ele>386.4</ele>
        <time>2019-11-01T12:01:03Z</time>
      </trkpt>
      <trkpt lat="46.28702" lon="2.77209">
        <ele>386.3</ele>
        <time>2019-11-01T12:01:04Z</time>
      </trkpt>
      <trkpt lat="46.28699" lon="2.77209">
        <ele>386.2</ele>
        <time>2019-11-01T12:01:05Z</time>
      </trkpt>
      <trkpt lat="46.28695" lon="2.77208">
        <ele>386.1</ele>
        <time>2019-11-01T12:01:06Z</time>
      </trkpt>
      <trkpt lat="46.28693" lon="2.77207">
        <ele>385.9</ele>
        <time>2019-11-01T12:01:07Z</time>
      </trkpt>
      <trkpt lat="46.2869" lon="2.77206">
        <ele>385.8</ele>
        <time>2019-11-01T12:01:08Z</time>
      </trkpt>
      <trkpt lat="46.28688" lon="2.77205">
        <ele>385.7</ele>
        <time>2019-11-01T12:01:09Z</time>
      </trkpt>
      <trkpt lat="46.28686" lon="2.77204">
        <ele>385.5</ele>
        <time>2019-11-01T12:01:10Z</time>
      </trkpt>
      <trkpt lat="46.28684" lon="2.77203">
        <ele>385.5</ele>
        <time>2019-11-01T12:01:11Z</time>
      </trkpt>
      <trkpt lat="46.28683" lon="2.77202">
        <ele>385.4</ele>
        <time>2019-11-01T12:01:12Z</time>
      </trkpt>
      <trkpt lat="46.28683" lon="2.77203">
        <ele>385.4</ele>
        <time>2019-11-01T12:01:13Z</time>
      </trkpt>
      <trkpt lat="46.28682" lon="2.77202">
        <ele>385.3</ele>
        <time>2019-11-01T12:01:14Z</time>
      </trkpt>
      <trkpt lat="46.28681" lon="2.77202">
        <ele>385.3</ele>
        <time>2019-11-01T12:01:15Z</time>
      </trkpt>
      <trkpt lat="46.28678" lon="2.77199">
        <ele>385.4</ele>
        <time>2019-11-01T12:01:16Z</time>
      </trkpt>
      <trkpt lat="46.28675" lon="2.77198">
        <ele>385.5</ele>
        <time>2019-11-01T12:01:17Z</time>
      </trkpt>
      <trkpt lat="46.28672" lon="2.77197">
        <ele>385.6</ele>
        <time>2019-11-01T12:01:18Z</time>
      </trkpt>
      <trkpt lat="46.28669" lon="2.77195">
        <ele>385.6</ele>
        <time>2019-11-01T12:01:19Z</time>
      </trkpt>
      <trkpt lat="46.28665" lon="2.77193">
        <ele>385.6</ele>
        <time>2019-11-01T12:01:20Z</time>
      </trkpt>
      <trkpt lat="46.28662" lon="2.77191">
        <ele>385.7</ele>
        <time>2019-11-01T12:01:21Z</time>
      </trkpt>
      <trkpt lat="46.28659" lon="2.77189">
        <ele>385.7</ele>
        <time>2019-11-01T12:01:22Z</time>
      </trkpt>
      <trkpt lat="46.28655" lon="2.77188">
        <ele>385.7</ele>
        <time>2019-11-01T12:01:23Z</time>
      </trkpt>
      <trkpt lat="46.28652" lon="2.77186">
        <ele>385.7</ele>
        <time>2019-11-01T12:01:24Z</time>
      </trkpt>
      <trkpt lat="46.28649" lon="2.77184">
        <ele>385.7</ele>
        <time>2019-11-01T12:01:25Z</time>
      </trkpt>
      <trkpt lat="46.28645" lon="2.77183">
        <ele>385.7</ele>
        <time>2019-11-01T12:01:26Z</time>
      </trkpt>
      <trkpt lat="46.28642" lon="2.77181">
        <ele>385.7</ele>
        <time>2019-11-01T12:01:27Z</time>
      </trkpt>
      <trkpt lat="46.28638" lon="2.77179">
        <ele>385.6</ele>
        <time>2019-11-01T12:01:28Z</time>
      </trkpt>
      <trkpt lat="46.28634" lon="2.77177">
        <ele>385.4</ele>
        <time>2019-11-01T12:01:29Z</time>
      </trkpt>
      <trkpt lat="46.2863" lon="2.77175">
        <ele>385.2</ele>
        <time>2019-11-01T12:01:30Z</time>
      </trkpt>
      <trkpt lat="46.28625" lon="2.77173">
        <ele>385.1</ele>
        <time>2019-11-01T12:01:31Z</time>
      </trkpt>
      <trkpt lat="46.28621" lon="2.7717">
        <ele>384.9</ele>
        <time>2019-11-01T12:01:32Z</time>
      </trkpt>
      <trkpt lat="46.28616" lon="2.77167">
        <ele>384.7</ele>
        <time>2019-11-01T12:01:33Z</time>
      </trkpt>
      <trkpt lat="46.28611" lon="2.77164">
        <ele>384.5</ele>
        <time>2019-11-01T12:01:34Z</time>
      </trkpt>
      <trkpt lat="46.28607" lon="2.77161">
        <ele>384.3</ele>
        <time>2019-11-01T12:01:35Z</time>
      </trkpt>
      <trkpt lat="46.28602" lon="2.77158">
        <ele>384.1</ele>
        <time>2019-11-01T12:01:36Z</time>
      </trkpt>
      <trkpt lat="46.28598" lon="2.77155">
        <ele>383.9</ele>
        <time>2019-11-01T12:01:37Z</time>
      </trkpt>
      <trkpt lat="46.28593" lon="2.77152">
        <ele>383.7</ele>
        <time>2019-11-01T12:01:38Z</time>
      </trkpt>
      <trkpt lat="46.28588" lon="2.77149">
        <ele>383.6</ele>
        <time>2019-11-01T12:01:39Z</time>
      </trkpt>
      <trkpt lat="46.28582" lon="2.77146">
        <ele>383.4</ele>
        <time>2019-11-01T12:01:40Z</time>
      </trkpt>
      <trkpt lat="46.28577" lon="2.77143">
        <ele>383.3</ele>
        <time>2019-11-01T12:01:41Z</time>
      </trkpt>
      <trkpt lat="46.28572" lon="2.7714">
        <ele>383.1</ele>
        <time>2019-11-01T12:01:42Z</time>
      </trkpt>
      <trkpt lat="46.28567" lon="2.77137">
        <ele>382.9</ele>
        <time>2019-11-01T12:01:43Z</time>
      </trkpt>
      <trkpt lat="46.28562" lon="2.77134">
        <ele>382.8</ele>
        <time>2019-11-01T12:01:44Z</time>
      </trkpt>
      <trkpt lat="46.28556" lon="2.7713">
        <ele>382.6</ele>
        <time>2019-11-01T12:01:45Z</time>
      </trkpt>
      <trkpt lat="46.28551" lon="2.77128">
        <ele>382.5</ele>
        <time>2019-11-01T12:01:46Z</time>
      </trkpt>
      <trkpt lat="46.28546" lon="2.77124">
        <ele>382.3</ele>
        <time>2019-11-01T12:01:47Z</time>
      </trkpt>
      <trkpt lat="46.2854" lon="2.77121">
        <ele>382.2</ele>
        <time>2019-11-01T12:01:48Z</time>
      </trkpt>
      <trkpt lat="46.28535" lon="2.77118">
        <ele>382</ele>
        <time>2019-11-01T12:01:49Z</time>
      </trkpt>
      <trkpt lat="46.28529" lon="2.77115">
        <ele>381.9</ele>
        <time>2019-11-01T12:01:50Z</time>
      </trkpt>
      <trkpt lat="46.28523" lon="2.77112">
        <ele>381.7</ele>
        <time>2019-11-01T12:01:51Z</time>
      </trkpt>
      <trkpt lat="46.28517" lon="2.77109">
        <ele>381.6</ele>
        <time>2019-11-01T12:01:52Z</time>
      </trkpt>
      <trkpt lat="46.28512" lon="2.77105">
        <ele>381.5</ele>
        <time>2019-11-01T12:01:53Z</time>
      </trkpt>
      <trkpt lat="46.28506" lon="2.77102">
        <ele>381.3</ele>
        <time>2019-11-01T12:01:54Z</time>
      </trkpt>
      <trkpt lat="46.28501" lon="2.77098">
        <ele>381.2</ele>
        <time>2019-11-01T12:01:55Z</time>
      </trkpt>
      <trkpt lat="46.28495" lon="2.77094">
        <ele>381.1</ele>
        <time>2019-11-01T12:01:56Z</time>
      </trkpt>
      <trkpt lat="46.2849" lon="2.7709">
        <ele>381</ele>
        <time>2019-11-01T12:01:57Z</time>
      </trkpt>
      <trkpt lat="46.28484" lon="2.77086">
        <ele>380.9</ele>
        <time>2019-11-01T12:01:58Z</time>
      </trkpt>
      <trkpt lat="46.28479" lon="2.77081">
        <ele>380.8</ele>
        <time>2019-11-01T12:01:59Z</time>
      </trkpt>
      <trkpt lat="46.28474" lon="2.77077">
        <ele>380.7</ele>
        <time>2019-11-01T12:02:00Z</time>
      </trkpt>
      <trkpt lat="46.2847" lon="2.77073">
        <ele>380.7</ele>
        <time>2019-11-01T12:02:01Z</time>
      </trkpt>
      <trkpt lat="46.28466" lon="2.77069">
        <ele>380.6</ele>
        <time>2019-11-01T12:02:02Z</time>
      </trkpt>
      <trkpt lat="46.28463" lon="2.77067">
        <ele>380.5</ele>
        <time>2019-11-01T12:02:03Z</time>
      </trkpt>
      <trkpt lat="46.2846" lon="2.77065">
        <ele>380.4</ele>
        <time>2019-11-01T12:02:04Z</time>
      </trkpt>
      <trkpt lat="46.28459" lon="2.77063">
        <ele>380.4</ele>
        <time>2019-11-01T12:02:05Z</time>
      </trkpt>
      <trkpt lat="46.28458" lon="2.77062">
        <ele>380.3</ele>
        <time>2019-11-01T12:02:06Z</time>
      </trkpt>
      <trkpt lat="46.28456" lon="2.7706">
        <ele>380.3</ele>
        <time>2019-11-01T12:02:07Z</time>
      </trkpt>
      <trkpt lat="46.28455" lon="2.77058">
        <ele>380.4</ele>
        <time>2019-11-01T12:02:08Z</time>
      </trkpt>
      <trkpt lat="46.28453" lon="2.77055">
        <ele>380.5</ele>
        <time>2019-11-01T12:02:09Z</time>
      </trkpt>
      <trkpt lat="46.28451" lon="2.77053">
        <ele>380.6</ele>
        <time>2019-11-01T12:02:10Z</time>
      </trkpt>
      <trkpt lat="46.28449" lon="2.7705">
        <ele>380.7</ele>
        <time>2019-11-01T12:02:11Z</time>
      </trkpt>
      <trkpt lat="46.28446" lon="2.77047">
        <ele>380.8</ele>
        <time>2019-11-01T12:02:12Z</time>
      </trkpt>
      <trkpt lat="46.28443" lon="2.77045">
        <ele>380.8</ele>
        <time>2019-11-01T12:02:13Z</time>
      </trkpt>
      <trkpt lat="46.2844" lon="2.77043">
        <ele>380.9</ele>
        <time>2019-11-01T12:02:14Z</time>
      </trkpt>
      <trkpt lat="46.28438" lon="2.7704">
        <ele>381</ele>
        <time>2019-11-01T12:02:15Z</time>
      </trkpt>
      <trkpt lat="46.28435" lon="2.77037">
        <ele>381.1</ele>
        <time>2019-11-01T12:02:16Z</time>
      </trkpt>
      <trkpt lat="46.28432" lon="2.77035">
        <ele>381.2</ele>
        <time>2019-11-01T12:02:17Z</time>
      </trkpt>
      <trkpt lat="46.28428" lon="2.77031">
        <ele>381.2</ele>
        <time>2019-11-01T12:02:18Z</time>
      </trkpt>
      <trkpt lat="46.28425" lon="2.77028">
        <ele>381.3</ele>
        <time>2019-11-01T12:02:19Z</time>
      </trkpt>
      <trkpt lat="46.28421" lon="2.77026">
        <ele>381.3</ele>
        <time>2019-11-01T12:02:20Z</time>
      </trkpt>
      <trkpt lat="46.28418" lon="2.77023">
        <ele>381.4</ele>
        <time>2019-11-01T12:02:21Z</time>
      </trkpt>
      <trkpt lat="46.28414" lon="2.77022">
        <ele>381.4</ele>
        <time>2019-11-01T12:02:22Z</time>
      </trkpt>
      <trkpt lat="46.2841" lon="2.7702">
        <ele>381.9</ele>
        <time>2019-11-01T12:02:23Z</time>
      </trkpt>
      <trkpt lat="46.28406" lon="2.77019">
        <ele>382.1</ele>
        <time>2019-11-01T12:02:24Z</time>
      </trkpt>
      <trkpt lat="46.28402" lon="2.77018">
        <ele>382.3</ele>
        <time>2019-11-01T12:02:25Z</time>
      </trkpt>
      <trkpt lat="46.28398" lon="2.77017">
        <ele>382.4</ele>
        <time>2019-11-01T12:02:26Z</time>
      </trkpt>
      <trkpt lat="46.28394" lon="2.77016">
        <ele>382.5</ele>
        <time>2019-11-01T12:02:27Z</time>
      </trkpt>
      <trkpt lat="46.28391" lon="2.77015">
        <ele>382.5</ele>
        <time>2019-11-01T12:02:28Z</time>
      </trkpt>
      <trkpt lat="46.28387" lon="2.77014">
        <ele>382.5</ele>
        <time>2019-11-01T12:02:29Z</time>
      </trkpt>
      <trkpt lat="46.28383" lon="2.77013">
        <ele>382.6</ele>
        <time>2019-11-01T12:02:30Z</time>
      </trkpt>
      <trkpt lat="46.28379" lon="2.77012">
        <ele>382.6</ele>
        <time>2019-11-01T12:02:31Z</time>
      </trkpt>
      <trkpt lat="46.28375" lon="2.77011">
        <ele>382.6</ele>
        <time>2019-11-01T12:02:32Z</time>
      </trkpt>
      <trkpt lat="46.28371" lon="2.7701">
        <ele>382.6</ele>
        <time>2019-11-01T12:02:33Z</time>
      </trkpt>
      <trkpt lat="46.28367" lon="2.7701">
        <ele>382.5</ele>
        <time>2019-11-01T12:02:34Z</time>
      </trkpt>
      <trkpt lat="46.28363" lon="2.77009">
        <ele>382.5</ele>
        <time>2019-11-01T12:02:35Z</time>
      </trkpt>
      <trkpt lat="46.28358" lon="2.77008">
        <ele>382.5</ele>
        <time>2019-11-01T12:02:36Z</time>
      </trkpt>
      <trkpt lat="46.28354" lon="2.77007">
        <ele>382.5</ele>
        <time>2019-11-01T12:02:37Z</time>
      </trkpt>
      <trkpt lat="46.2835" lon="2.77006">
        <ele>382.5</ele>
        <time>2019-11-01T12:02:38Z</time>
      </trkpt>
      <trkpt lat="46.28345" lon="2.77005">
        <ele>382.5</ele>
        <time>2019-11-01T12:02:39Z</time>
      </trkpt>
      <trkpt lat="46.28341" lon="2.77004">
        <ele>382.5</ele>
        <time>2019-11-01T12:02:40Z</time>
      </trkpt>
      <trkpt lat="46.28336" lon="2.77004">
        <ele>382.5</ele>
        <time>2019-11-01T12:02:41Z</time>
      </trkpt>
      <trkpt lat="46.28331" lon="2.77004">
        <ele>382.5</ele>
        <time>2019-11-01T12:02:42Z</time>
      </trkpt>
      <trkpt lat="46.28326" lon="2.77004">
        <ele>382.5</ele>
        <time>2019-11-01T12:02:43Z</time>
      </trkpt>
      <trkpt lat="46.28321" lon="2.77005">
        <ele>382.5</ele>
        <time>2019-11-01T12:02:44Z</time>
      </trkpt>
      <trkpt lat="46.28315" lon="2.77006">
        <ele>382.5</ele>
        <time>2019-11-01T12:02:45Z</time>
      </trkpt>
      <trkpt lat="46.28309" lon="2.77008">
        <ele>382.5</ele>
        <time>2019-11-01T12:02:46Z</time>
      </trkpt>
      <trkpt lat="46.28303" lon="2.77009">
        <ele>382.5</ele>
        <time>2019-11-01T12:02:47Z</time>
      </trkpt>
      <trkpt lat="46.28297" lon="2.77011">
        <ele>382.5</ele>
        <time>2019-11-01T12:02:48Z</time>
      </trkpt>
      <trkpt lat="46.28291" lon="2.77013">
        <ele>382.5</ele>
        <time>2019-11-01T12:02:49Z</time>
      </trkpt>
      <trkpt lat="46.28285" lon="2.77015">
        <ele>382.5</ele>
        <time>2019-11-01T12:02:50Z</time>
      </trkpt>
      <trkpt lat="46.28278" lon="2.77017">
        <ele>382.4</ele>
        <time>2019-11-01T12:02:51Z</time>
      </trkpt>
      <trkpt lat="46.28272" lon="2.77019">
        <ele>382.3</ele>
        <time>2019-11-01T12:02:52Z</time>
      </trkpt>
      <trkpt lat="46.28265" lon="2.77021">
        <ele>382.2</ele>
        <time>2019-11-01T12:02:53Z</time>
      </trkpt>
      <trkpt lat="46.28257" lon="2.77023">
        <ele>382</ele>
        <time>2019-11-01T12:02:54Z</time>
      </trkpt>
      <trkpt lat="46.28249" lon="2.77025">
        <ele>381.8</ele>
        <time>2019-11-01T12:02:55Z</time>
      </trkpt>
      <trkpt lat="46.28241" lon="2.77027">
        <ele>381.4</ele>
        <time>2019-11-01T12:02:56Z</time>
      </trkpt>
      <trkpt lat="46.28233" lon="2.77028">
        <ele>380.9</ele>
        <time>2019-11-01T12:02:57Z</time>
      </trkpt>
      <trkpt lat="46.28225" lon="2.77028">
        <ele>380.3</ele>
        <time>2019-11-01T12:02:58Z</time>
      </trkpt>
      <trkpt lat="46.28217" lon="2.77026">
        <ele>379.7</ele>
        <time>2019-11-01T12:02:59Z</time>
      </trkpt>
      <trkpt lat="46.28209" lon="2.77022">
        <ele>379.1</ele>
        <time>2019-11-01T12:03:00Z</time>
      </trkpt>
      <trkpt lat="46.28201" lon="2.77017">
        <ele>378.4</ele>
        <time>2019-11-01T12:03:01Z</time>
      </trkpt>
      <trkpt lat="46.28193" lon="2.77011">
        <ele>377.9</ele>
        <time>2019-11-01T12:03:02Z</time>
      </trkpt>
      <trkpt lat="46.28185" lon="2.77005">
        <ele>377.3</ele>
        <time>2019-11-01T12:03:03Z</time>
      </trkpt>
      <trkpt lat="46.28178" lon="2.76999">
        <ele>376.7</ele>
        <time>2019-11-01T12:03:04Z</time>
      </trkpt>
      <trkpt lat="46.2817" lon="2.76993">
        <ele>376.2</ele>
        <time>2019-11-01T12:03:05Z</time>
      </trkpt>
      <trkpt lat="46.28163" lon="2.76986">
        <ele>375.7</ele>
        <time>2019-11-01T12:03:06Z</time>
      </trkpt>
      <trkpt lat="46.28156" lon="2.7698">
        <ele>375.1</ele>
        <time>2019-11-01T12:03:07Z</time>
      </trkpt>
      <trkpt lat="46.28149" lon="2.76974">
        <ele>374.6</ele>
        <time>2019-11-01T12:03:08Z</time>
      </trkpt>
      <trkpt lat="46.28143" lon="2.76968">
        <ele>374.2</ele>
        <time>2019-11-01T12:03:09Z</time>
      </trkpt>
      <trkpt lat="46.28136" lon="2.76962">
        <ele>374</ele>
        <time>2019-11-01T12:03:10Z</time>
      </trkpt>
      <trkpt lat="46.2813" lon="2.76956">
        <ele>373.7</ele>
        <time>2019-11-01T12:03:11Z</time>
      </trkpt>
      <trkpt lat="46.28124" lon="2.76949">
        <ele>373.6</ele>
        <time>2019-11-01T12:03:12Z</time>
      </trkpt>
      <trkpt lat="46.28119" lon="2.76943">
        <ele>373.5</ele>
        <time>2019-11-01T12:03:13Z</time>
      </trkpt>
      <trkpt lat="46.28113" lon="2.76937">
        <ele>373.3</ele>
        <time>2019-11-01T12:03:14Z</time>
      </trkpt>
      <trkpt lat="46.28108" lon="2.76931">
        <ele>373.2</ele>
        <time>2019-11-01T12:03:15Z</time>
      </trkpt>
      <trkpt lat="46.28103" lon="2.76925">
        <ele>373.1</ele>
        <time>2019-11-01T12:03:16Z</time>
      </trkpt>
      <trkpt lat="46.28098" lon="2.7692">
        <ele>373</ele>
        <time>2019-11-01T12:03:17Z</time>
      </trkpt>
      <trkpt lat="46.28093" lon="2.76915">
        <ele>373</ele>
        <time>2019-11-01T12:03:18Z</time>
      </trkpt>
      <trkpt lat="46.28088" lon="2.7691">
        <ele>372.9</ele>
        <time>2019-11-01T12:03:19Z</time>
      </trkpt>
      <trkpt lat="46.28084" lon="2.76905">
        <ele>372.9</ele>
        <time>2019-11-01T12:03:20Z</time>
      </trkpt>
      <trkpt lat="46.28079" lon="2.76899">
        <ele>373</ele>
        <time>2019-11-01T12:03:21Z</time>
      </trkpt>
      <trkpt lat="46.28075" lon="2.76894">
        <ele>373.1</ele>
        <time>2019-11-01T12:03:22Z</time>
      </trkpt>
      <trkpt lat="46.2807" lon="2.76889">
        <ele>373.2</ele>
        <time>2019-11-01T12:03:23Z</time>
      </trkpt>
      <trkpt lat="46.28066" lon="2.76883">
        <ele>373.3</ele>
        <time>2019-11-01T12:03:24Z</time>
      </trkpt>
      <trkpt lat="46.28061" lon="2.76878">
        <ele>373.5</ele>
        <time>2019-11-01T12:03:25Z</time>
      </trkpt>
      <trkpt lat="46.28056" lon="2.76873">
        <ele>373.8</ele>
        <time>2019-11-01T12:03:26Z</time>
      </trkpt>
      <trkpt lat="46.28051" lon="2.76867">
        <ele>374.1</ele>
        <time>2019-11-01T12:03:27Z</time>
      </trkpt>
      <trkpt lat="46.28046" lon="2.76862">
        <ele>374.3</ele>
        <time>2019-11-01T12:03:28Z</time>
      </trkpt>
      <trkpt lat="46.28041" lon="2.76856">
        <ele>374.5</ele>
        <time>2019-11-01T12:03:29Z</time>
      </trkpt>
      <trkpt lat="46.28036" lon="2.7685">
        <ele>374.7</ele>
        <time>2019-11-01T12:03:30Z</time>
      </trkpt>
      <trkpt lat="46.28031" lon="2.76844">
        <ele>374.8</ele>
        <time>2019-11-01T12:03:31Z</time>
      </trkpt>
      <trkpt lat="46.28026" lon="2.76839">
        <ele>375</ele>
        <time>2019-11-01T12:03:32Z</time>
      </trkpt>
      <trkpt lat="46.2802" lon="2.76834">
        <ele>375.2</ele>
        <time>2019-11-01T12:03:33Z</time>
      </trkpt>
      <trkpt lat="46.28014" lon="2.76828">
        <ele>375.4</ele>
        <time>2019-11-01T12:03:34Z</time>
      </trkpt>
      <trkpt lat="46.28008" lon="2.76822">
        <ele>375.6</ele>
        <time>2019-11-01T12:03:35Z</time>
      </trkpt>
      <trkpt lat="46.28002" lon="2.76816">
        <ele>375.9</ele>
        <time>2019-11-01T12:03:36Z</time>
      </trkpt>
      <trkpt lat="46.27996" lon="2.7681">
        <ele>376.4</ele>
        <time>2019-11-01T12:03:37Z</time>
      </trkpt>
      <trkpt lat="46.2799" lon="2.76805">
        <ele>376.7</ele>
        <time>2019-11-01T12:03:38Z</time>
      </trkpt>
      <trkpt lat="46.27984" lon="2.76799">
        <ele>377</ele>
        <time>2019-11-01T12:03:39Z</time>
      </trkpt>
      <trkpt lat="46.27978" lon="2.76794">
        <ele>377.2</ele>
        <time>2019-11-01T12:03:40Z</time>
      </trkpt>
      <trkpt lat="46.27972" lon="2.76789">
        <ele>377.4</ele>
        <time>2019-11-01T12:03:41Z</time>
      </trkpt>
      <trkpt lat="46.27967" lon="2.76785">
        <ele>377.7</ele>
        <time>2019-11-01T12:03:42Z</time>
      </trkpt>
      <trkpt lat="46.27961" lon="2.76781">
        <ele>377.7</ele>
        <time>2019-11-01T12:03:43Z</time>
      </trkpt>
      <trkpt lat="46.27956" lon="2.76778">
        <ele>377.7</ele>
        <time>2019-11-01T12:03:44Z</time>
      </trkpt>
      <trkpt lat="46.27951" lon="2.76774">
        <ele>377.8</ele>
        <time>2019-11-01T12:03:45Z</time>
      </trkpt>
      <trkpt lat="46.27946" lon="2.7677">
        <ele>377.8</ele>
        <time>2019-11-01T12:03:46Z</time>
      </trkpt>
      <trkpt lat="46.27941" lon="2.76766">
        <ele>377.8</ele>
        <time>2019-11-01T12:03:47Z</time>
      </trkpt>
      <trkpt lat="46.27937" lon="2.76763">
        <ele>377.8</ele>
        <time>2019-11-01T12:03:48Z</time>
      </trkpt>
      <trkpt lat="46.27932" lon="2.76759">
        <ele>377.7</ele>
        <time>2019-11-01T12:03:49Z</time>
      </trkpt>
      <trkpt lat="46.27928" lon="2.76755">
        <ele>377.7</ele>
        <time>2019-11-01T12:03:50Z</time>
      </trkpt>
      <trkpt lat="46.27924" lon="2.76751">
        <ele>377.7</ele>
        <time>2019-11-01T12:03:51Z</time>
      </trkpt>
      <trkpt lat="46.2792" lon="2.76747">
        <ele>377.6</ele>
        <time>2019-11-01T12:03:52Z</time>
      </trkpt>
      <trkpt lat="46.27916" lon="2.76743">
        <ele>377.5</ele>
        <time>2019-11-01T12:03:53Z</time>
      </trkpt>
      <trkpt lat="46.27911" lon="2.76739">
        <ele>377.4</ele>
        <time>2019-11-01T12:03:54Z</time>
      </trkpt>
      <trkpt lat="46.27907" lon="2.76735">
        <ele>377.3</ele>
        <time>2019-11-01T12:03:55Z</time>
      </trkpt>
      <trkpt lat="46.27903" lon="2.76731">
        <ele>377.2</ele>
        <time>2019-11-01T12:03:56Z</time>
      </trkpt>
      <trkpt lat="46.279" lon="2.76726">
        <ele>376.9</ele>
        <time>2019-11-01T12:03:57Z</time>
      </trkpt>
      <trkpt lat="46.27895" lon="2.76722">
        <ele>376.6</ele>
        <time>2019-11-01T12:03:58Z</time>
      </trkpt>
      <trkpt lat="46.27891" lon="2.76718">
        <ele>376.2</ele>
        <time>2019-11-01T12:03:59Z</time>
      </trkpt>
      <trkpt lat="46.27886" lon="2.76713">
        <ele>375.8</ele>
        <time>2019-11-01T12:04:00Z</time>
      </trkpt>
      <trkpt lat="46.27881" lon="2.76708">
        <ele>375.4</ele>
        <time>2019-11-01T12:04:01Z</time>
      </trkpt>
      <trkpt lat="46.27876" lon="2.76703">
        <ele>374.9</ele>
        <time>2019-11-01T12:04:02Z</time>
      </trkpt>
      <trkpt lat="46.27871" lon="2.76697">
        <ele>374.4</ele>
        <time>2019-11-01T12:04:03Z</time>
      </trkpt>
      <trkpt lat="46.27866" lon="2.76692">
        <ele>373.8</ele>
        <time>2019-11-01T12:04:04Z</time>
      </trkpt>
      <trkpt lat="46.27861" lon="2.76686">
        <ele>373.3</ele>
        <time>2019-11-01T12:04:05Z</time>
      </trkpt>
      <trkpt lat="46.27856" lon="2.76681">
        <ele>372.7</ele>
        <time>2019-11-01T12:04:06Z</time>
      </trkpt>
      <trkpt lat="46.27851" lon="2.76676">
        <ele>372.2</ele>
        <time>2019-11-01T12:04:07Z</time>
      </trkpt>
      <trkpt lat="46.27846" lon="2.7667">
        <ele>371.6</ele>
        <time>2019-11-01T12:04:08Z</time>
      </trkpt>
      <trkpt lat="46.27841" lon="2.76665">
        <ele>371.1</ele>
        <time>2019-11-01T12:04:09Z</time>
      </trkpt>
      <trkpt lat="46.27836" lon="2.76658">
        <ele>370.5</ele>
        <time>2019-11-01T12:04:10Z</time>
      </trkpt>
      <trkpt lat="46.2783" lon="2.76652">
        <ele>369.9</ele>
        <time>2019-11-01T12:04:11Z</time>
      </trkpt>
      <trkpt lat="46.27825" lon="2.76645">
        <ele>369.4</ele>
        <time>2019-11-01T12:04:12Z</time>
      </trkpt>
      <trkpt lat="46.2782" lon="2.76638">
        <ele>368.9</ele>
        <time>2019-11-01T12:04:13Z</time>
      </trkpt>
      <trkpt lat="46.27815" lon="2.76632">
        <ele>368.4</ele>
        <time>2019-11-01T12:04:14Z</time>
      </trkpt>
      <trkpt lat="46.2781" lon="2.76626">
        <ele>367.9</ele>
        <time>2019-11-01T12:04:15Z</time>
      </trkpt>
      <trkpt lat="46.27806" lon="2.76619">
        <ele>367.5</ele>
        <time>2019-11-01T12:04:16Z</time>
      </trkpt>
      <trkpt lat="46.27802" lon="2.76612">
        <ele>367.2</ele>
        <time>2019-11-01T12:04:17Z</time>
      </trkpt>
      <trkpt lat="46.278" lon="2.76604">
        <ele>366.9</ele>
        <time>2019-11-01T12:04:18Z</time>
      </trkpt>
      <trkpt lat="46.27799" lon="2.76596">
        <ele>366.5</ele>
        <time>2019-11-01T12:04:19Z</time>
      </trkpt>
      <trkpt lat="46.27799" lon="2.76588">
        <ele>366.3</ele>
        <time>2019-11-01T12:04:20Z</time>
      </trkpt>
      <trkpt lat="46.278" lon="2.7658">
        <ele>366.1</ele>
        <time>2019-11-01T12:04:21Z</time>
      </trkpt>
      <trkpt lat="46.27802" lon="2.76572">
        <ele>365.8</ele>
        <time>2019-11-01T12:04:22Z</time>
      </trkpt>
      <trkpt lat="46.27804" lon="2.76565">
        <ele>365.6</ele>
        <time>2019-11-01T12:04:23Z</time>
      </trkpt>
      <trkpt lat="46.27805" lon="2.76559">
        <ele>365.4</ele>
        <time>2019-11-01T12:04:24Z</time>
      </trkpt>
      <trkpt lat="46.27807" lon="2.76554">
        <ele>365.3</ele>
        <time>2019-11-01T12:04:25Z</time>
      </trkpt>
      <trkpt lat="46.27808" lon="2.7655">
        <ele>365.2</ele>
        <time>2019-11-01T12:04:26Z</time>
      </trkpt>
      <trkpt lat="46.2781" lon="2.76546">
        <ele>365</ele>
        <time>2019-11-01T12:04:27Z</time>
      </trkpt>
      <trkpt lat="46.27812" lon="2.76541">
        <ele>364.6</ele>
        <time>2019-11-01T12:04:28Z</time>
      </trkpt>
      <trkpt lat="46.27813" lon="2.76535">
        <ele>364.4</ele>
        <time>2019-11-01T12:04:29Z</time>
      </trkpt>
      <trkpt lat="46.27815" lon="2.76529">
        <ele>364.2</ele>
        <time>2019-11-01T12:04:30Z</time>
      </trkpt>
      <trkpt lat="46.27817" lon="2.76522">
        <ele>363.9</ele>
        <time>2019-11-01T12:04:31Z</time>
      </trkpt>
      <trkpt lat="46.27819" lon="2.76515">
        <ele>363.7</ele>
        <time>2019-11-01T12:04:32Z</time>
      </trkpt>
      <trkpt lat="46.27821" lon="2.76508">
        <ele>363.5</ele>
        <time>2019-11-01T12:04:33Z</time>
      </trkpt>
      <trkpt lat="46.27823" lon="2.76501">
        <ele>363.2</ele>
        <time>2019-11-01T12:04:34Z</time>
      </trkpt>
      <trkpt lat="46.27826" lon="2.76493">
        <ele>363</ele>
        <time>2019-11-01T12:04:35Z</time>
      </trkpt>
      <trkpt lat="46.27828" lon="2.76485">
        <ele>362.7</ele>
        <time>2019-11-01T12:04:36Z</time>
      </trkpt>
      <trkpt lat="46.27831" lon="2.76476">
        <ele>362.2</ele>
        <time>2019-11-01T12:04:37Z</time>
      </trkpt>
      <trkpt lat="46.27834" lon="2.76468">
        <ele>361.8</ele>
        <time>2019-11-01T12:04:38Z</time>
      </trkpt>
      <trkpt lat="46.27837" lon="2.76459">
        <ele>361.4</ele>
        <time>2019-11-01T12:04:39Z</time>
      </trkpt>
      <trkpt lat="46.27839" lon="2.76449">
        <ele>361.1</ele>
        <time>2019-11-01T12:04:40Z</time>
      </trkpt>
      <trkpt lat="46.27842" lon="2.76439">
        <ele>360.8</ele>
        <time>2019-11-01T12:04:41Z</time>
      </trkpt>
      <trkpt lat="46.27845" lon="2.76428">
        <ele>360.5</ele>
        <time>2019-11-01T12:04:42Z</time>
      </trkpt>
      <trkpt lat="46.27848" lon="2.76418">
        <ele>360.3</ele>
        <time>2019-11-01T12:04:43Z</time>
      </trkpt>
      <trkpt lat="46.27851" lon="2.76407">
        <ele>360</ele>
        <time>2019-11-01T12:04:44Z</time>
      </trkpt>
      <trkpt lat="46.27854" lon="2.76396">
        <ele>359.8</ele>
        <time>2019-11-01T12:04:45Z</time>
      </trkpt>
      <trkpt lat="46.27857" lon="2.76385">
        <ele>359.6</ele>
        <time>2019-11-01T12:04:46Z</time>
      </trkpt>
      <trkpt lat="46.27859" lon="2.76374">
        <ele>359.4</ele>
        <time>2019-11-01T12:04:47Z</time>
      </trkpt>
      <trkpt lat="46.27862" lon="2.76364">
        <ele>359.1</ele>
        <time>2019-11-01T12:04:48Z</time>
      </trkpt>
      <trkpt lat="46.27865" lon="2.76351">
        <ele>358.6</ele>
        <time>2019-11-01T12:04:49Z</time>
      </trkpt>
      <trkpt lat="46.27867" lon="2.7634">
        <ele>358.3</ele>
        <time>2019-11-01T12:04:50Z</time>
      </trkpt>
      <trkpt lat="46.2787" lon="2.7633">
        <ele>358.2</ele>
        <time>2019-11-01T12:04:51Z</time>
      </trkpt>
      <trkpt lat="46.27872" lon="2.76319">
        <ele>358.3</ele>
        <time>2019-11-01T12:04:52Z</time>
      </trkpt>
      <trkpt lat="46.27873" lon="2.76308">
        <ele>358.4</ele>
        <time>2019-11-01T12:04:53Z</time>
      </trkpt>
      <trkpt lat="46.27875" lon="2.76298">
        <ele>358.6</ele>
        <time>2019-11-01T12:04:54Z</time>
      </trkpt>
      <trkpt lat="46.27875" lon="2.76288">
        <ele>358.7</ele>
        <time>2019-11-01T12:04:55Z</time>
      </trkpt>
      <trkpt lat="46.27876" lon="2.76278">
        <ele>358.7</ele>
        <time>2019-11-01T12:04:56Z</time>
      </trkpt>
      <trkpt lat="46.27876" lon="2.76268">
        <ele>358.7</ele>
        <time>2019-11-01T12:04:57Z</time>
      </trkpt>
      <trkpt lat="46.27875" lon="2.76258">
        <ele>358.7</ele>
        <time>2019-11-01T12:04:58Z</time>
      </trkpt>
      <trkpt lat="46.27875" lon="2.76249">
        <ele>358.7</ele>
        <time>2019-11-01T12:04:59Z</time>
      </trkpt>
      <trkpt lat="46.27874" lon="2.7624">
        <ele>358.6</ele>
        <time>2019-11-01T12:05:00Z</time>
      </trkpt>
      <trkpt lat="46.27874" lon="2.76231">
        <ele>358.6</ele>
        <time>2019-11-01T12:05:01Z</time>
      </trkpt>
      <trkpt lat="46.27874" lon="2.76223">
        <ele>358.6</ele>
        <time>2019-11-01T12:05:02Z</time>
      </trkpt>
      <trkpt lat="46.27875" lon="2.76214">
        <ele>358.6</ele>
        <time>2019-11-01T12:05:03Z</time>
      </trkpt>
      <trkpt lat="46.27874" lon="2.76206">
        <ele>358.6</ele>
        <time>2019-11-01T12:05:04Z</time>
      </trkpt>
      <trkpt lat="46.27875" lon="2.76197">
        <ele>358.6</ele>
        <time>2019-11-01T12:05:05Z</time>
      </trkpt>
      <trkpt lat="46.27876" lon="2.76188">
        <ele>358.5</ele>
        <time>2019-11-01T12:05:06Z</time>
      </trkpt>
      <trkpt lat="46.27877" lon="2.7618">
        <ele>358.5</ele>
        <time>2019-11-01T12:05:07Z</time>
      </trkpt>
      <trkpt lat="46.27878" lon="2.76171">
        <ele>358.4</ele>
        <time>2019-11-01T12:05:08Z</time>
      </trkpt>
      <trkpt lat="46.27879" lon="2.76163">
        <ele>358.4</ele>
        <time>2019-11-01T12:05:09Z</time>
      </trkpt>
      <trkpt lat="46.2788" lon="2.76155">
        <ele>358.4</ele>
        <time>2019-11-01T12:05:10Z</time>
      </trkpt>
      <trkpt lat="46.27881" lon="2.76147">
        <ele>358.5</ele>
        <time>2019-11-01T12:05:11Z</time>
      </trkpt>
      <trkpt lat="46.27882" lon="2.76139">
        <ele>358.6</ele>
        <time>2019-11-01T12:05:12Z</time>
      </trkpt>
      <trkpt lat="46.27883" lon="2.76132">
        <ele>358.6</ele>
        <time>2019-11-01T12:05:13Z</time>
      </trkpt>
      <trkpt lat="46.27884" lon="2.76124">
        <ele>358.7</ele>
        <time>2019-11-01T12:05:14Z</time>
      </trkpt>
      <trkpt lat="46.27886" lon="2.76117">
        <ele>358.8</ele>
        <time>2019-11-01T12:05:15Z</time>
      </trkpt>
      <trkpt lat="46.27887" lon="2.7611">
        <ele>358.9</ele>
        <time>2019-11-01T12:05:16Z</time>
      </trkpt>
      <trkpt lat="46.27888" lon="2.76102">
        <ele>359</ele>
        <time>2019-11-01T12:05:17Z</time>
      </trkpt>
      <trkpt lat="46.27888" lon="2.76096">
        <ele>359.2</ele>
        <time>2019-11-01T12:05:18Z</time>
      </trkpt>
      <trkpt lat="46.27889" lon="2.7609">
        <ele>359.3</ele>
        <time>2019-11-01T12:05:19Z</time>
      </trkpt>
      <trkpt lat="46.27891" lon="2.76084">
        <ele>359.4</ele>
        <time>2019-11-01T12:05:20Z</time>
      </trkpt>
      <trkpt lat="46.27894" lon="2.7608">
        <ele>359.5</ele>
        <time>2019-11-01T12:05:21Z</time>
      </trkpt>
      <trkpt lat="46.27897" lon="2.76077">
        <ele>358.9</ele>
        <time>2019-11-01T12:05:22Z</time>
      </trkpt>
      <trkpt lat="46.279" lon="2.76076">
        <ele>358.1</ele>
        <time>2019-11-01T12:05:23Z</time>
      </trkpt>
      <trkpt lat="46.27904" lon="2.76077">
        <ele>357.3</ele>
        <time>2019-11-01T12:05:24Z</time>
      </trkpt>
      <trkpt lat="46.27909" lon="2.7608">
        <ele>357.2</ele>
        <time>2019-11-01T12:05:25Z</time>
      </trkpt>
      <trkpt lat="46.27913" lon="2.76083">
        <ele>357</ele>
        <time>2019-11-01T12:05:26Z</time>
      </trkpt>
      <trkpt lat="46.27919" lon="2.76087">
        <ele>356.9</ele>
        <time>2019-11-01T12:05:27Z</time>
      </trkpt>
      <trkpt lat="46.27923" lon="2.76092">
        <ele>356.8</ele>
        <time>2019-11-01T12:05:28Z</time>
      </trkpt>
      <trkpt lat="46.27927" lon="2.76096">
        <ele>356.6</ele>
        <time>2019-11-01T12:05:29Z</time>
      </trkpt>
      <trkpt lat="46.27931" lon="2.761">
        <ele>356.4</ele>
        <time>2019-11-01T12:05:30Z</time>
      </trkpt>
      <trkpt lat="46.27936" lon="2.76104">
        <ele>356.2</ele>
        <time>2019-11-01T12:05:31Z</time>
      </trkpt>
      <trkpt lat="46.2794" lon="2.76108">
        <ele>356</ele>
        <time>2019-11-01T12:05:32Z</time>
      </trkpt>
      <trkpt lat="46.27945" lon="2.76111">
        <ele>355.9</ele>
        <time>2019-11-01T12:05:33Z</time>
      </trkpt>
      <trkpt lat="46.27949" lon="2.76113">
        <ele>355.9</ele>
        <time>2019-11-01T12:05:34Z</time>
      </trkpt>
      <trkpt lat="46.27954" lon="2.76115">
        <ele>355.9</ele>
        <time>2019-11-01T12:05:35Z</time>
      </trkpt>
      <trkpt lat="46.27958" lon="2.76116">
        <ele>356</ele>
        <time>2019-11-01T12:05:36Z</time>
      </trkpt>
      <trkpt lat="46.27962" lon="2.76117">
        <ele>356</ele>
        <time>2019-11-01T12:05:37Z</time>
      </trkpt>
      <trkpt lat="46.27966" lon="2.76118">
        <ele>356.1</ele>
        <time>2019-11-01T12:05:38Z</time>
      </trkpt>
      <trkpt lat="46.2797" lon="2.76118">
        <ele>356.1</ele>
        <time>2019-11-01T12:05:39Z</time>
      </trkpt>
      <trkpt lat="46.27973" lon="2.76118">
        <ele>356.1</ele>
        <time>2019-11-01T12:05:40Z</time>
      </trkpt>
      <trkpt lat="46.27976" lon="2.76118">
        <ele>356.1</ele>
        <time>2019-11-01T12:05:41Z</time>
      </trkpt>
      <trkpt lat="46.27979" lon="2.76119">
        <ele>356</ele>
        <time>2019-11-01T12:05:42Z</time>
      </trkpt>
      <trkpt lat="46.27981" lon="2.76119">
        <ele>356</ele>
        <time>2019-11-01T12:05:43Z</time>
      </trkpt>
      <trkpt lat="46.27983" lon="2.76119">
        <ele>356</ele>
        <time>2019-11-01T12:05:44Z</time>
      </trkpt>
      <trkpt lat="46.27984" lon="2.76119">
        <ele>356</ele>
        <time>2019-11-01T12:05:45Z</time>
      </trkpt>
      <trkpt lat="46.27986" lon="2.76119">
        <ele>356</ele>
        <time>2019-11-01T12:05:46Z</time>
      </trkpt>
      <trkpt lat="46.27986" lon="2.76118">
        <ele>356</ele>
        <time>2019-11-01T12:05:47Z</time>
      </trkpt>
      <trkpt lat="46.27986" lon="2.76118">
        <ele>356</ele>
        <time>2019-11-01T12:05:48Z</time>
      </trkpt>
      <trkpt lat="46.27987" lon="2.76118">
        <ele>356</ele>
        <time>2019-11-01T12:05:49Z</time>
      </trkpt>
      <trkpt lat="46.27988" lon="2.76118">
        <ele>356</ele>
        <time>2019-11-01T12:05:50Z</time>
      </trkpt>
      <trkpt lat="46.27989" lon="2.76118">
        <ele>356</ele>
        <time>2019-11-01T12:05:51Z</time>
      </trkpt>
      <trkpt lat="46.2799" lon="2.76118">
        <ele>356</ele>
        <time>2019-11-01T12:05:52Z</time>
      </trkpt>
      <trkpt lat="46.27991" lon="2.76118">
        <ele>356</ele>
        <time>2019-11-01T12:05:53Z</time>
      </trkpt>
      <trkpt lat="46.27992" lon="2.76119">
        <ele>356</ele>
        <time>2019-11-01T12:05:54Z</time>
      </trkpt>
      <trkpt lat="46.27993" lon="2.76119">
        <ele>356</ele>
        <time>2019-11-01T12:05:55Z</time>
      </trkpt>
      <trkpt lat="46.27993" lon="2.76119">
        <ele>356</ele>
        <time>2019-11-01T12:05:56Z</time>
      </trkpt>
      <trkpt lat="46.27993" lon="2.76119">
        <ele>356</ele>
        <time>2019-11-01T12:05:57Z</time>
      </trkpt>
      <trkpt lat="46.27994" lon="2.76119">
        <ele>356</ele>
        <time>2019-11-01T12:05:58Z</time>
      </trkpt>
      <trkpt lat="46.27995" lon="2.76119">
        <ele>356</ele>
        <time>2019-11-01T12:05:59Z</time>
      </trkpt>
      <trkpt lat="46.27995" lon="2.76119">
        <ele>356</ele>
        <time>2019-11-01T12:06:00Z</time>
      </trkpt>
      <trkpt lat="46.27996" lon="2.76119">
        <ele>356</ele>
        <time>2019-11-01T12:06:01Z</time>
      </trkpt>
      <trkpt lat="46.27997" lon="2.76119">
        <ele>356</ele>
        <time>2019-11-01T12:06:02Z</time>
      </trkpt>
      <trkpt lat="46.27997" lon="2.76119">
        <ele>356</ele>
        <time>2019-11-01T12:06:03Z</time>
      </trkpt>
      <trkpt lat="46.27999" lon="2.76119">
        <ele>356</ele>
        <time>2019-11-01T12:06:04Z</time>
      </trkpt>
      <trkpt lat="46.28" lon="2.76119">
        <ele>356</ele>
        <time>2019-11-01T12:06:05Z</time>
      </trkpt>
      <trkpt lat="46.28001" lon="2.76119">
        <ele>356</ele>
        <time>2019-11-01T12:06:06Z</time>
      </trkpt>
      <trkpt lat="46.28003" lon="2.76119">
        <ele>356</ele>
        <time>2019-11-01T12:06:07Z</time>
      </trkpt>
      <trkpt lat="46.28004" lon="2.76119">
        <ele>356</ele>
        <time>2019-11-01T12:06:08Z</time>
      </trkpt>
      <trkpt lat="46.28006" lon="2.76119">
        <ele>356</ele>
        <time>2019-11-01T12:06:09Z</time>
      </trkpt>
      <trkpt lat="46.28008" lon="2.76119">
        <ele>356</ele>
        <time>2019-11-01T12:06:10Z</time>
      </trkpt>
      <trkpt lat="46.28011" lon="2.76119">
        <ele>356</ele>
        <time>2019-11-01T12:06:11Z</time>
      </trkpt>
      <trkpt lat="46.28014" lon="2.76118">
        <ele>356</ele>
        <time>2019-11-01T12:06:12Z</time>
      </trkpt>
      <trkpt lat="46.28017" lon="2.76118">
        <ele>356</ele>
        <time>2019-11-01T12:06:13Z</time>
      </trkpt>
      <trkpt lat="46.28021" lon="2.76117">
        <ele>356</ele>
        <time>2019-11-01T12:06:14Z</time>
      </trkpt>
      <trkpt lat="46.28024" lon="2.76116">
        <ele>356</ele>
        <time>2019-11-01T12:06:15Z</time>
      </trkpt>
      <trkpt lat="46.28028" lon="2.76114">
        <ele>356</ele>
        <time>2019-11-01T12:06:16Z</time>
      </trkpt>
      <trkpt lat="46.28032" lon="2.76113">
        <ele>355.9</ele>
        <time>2019-11-01T12:06:17Z</time>
      </trkpt>
      <trkpt lat="46.28035" lon="2.76111">
        <ele>355.9</ele>
        <time>2019-11-01T12:06:18Z</time>
      </trkpt>
      <trkpt lat="46.28039" lon="2.76109">
        <ele>355.9</ele>
        <time>2019-11-01T12:06:19Z</time>
      </trkpt>
      <trkpt lat="46.28043" lon="2.76107">
        <ele>355.9</ele>
        <time>2019-11-01T12:06:20Z</time>
      </trkpt>
      <trkpt lat="46.28047" lon="2.76104">
        <ele>355.9</ele>
        <time>2019-11-01T12:06:21Z</time>
      </trkpt>
      <trkpt lat="46.2805" lon="2.76102">
        <ele>355.9</ele>
        <time>2019-11-01T12:06:22Z</time>
      </trkpt>
      <trkpt lat="46.28054" lon="2.76098">
        <ele>355.9</ele>
        <time>2019-11-01T12:06:23Z</time>
      </trkpt>
      <trkpt lat="46.28058" lon="2.76096">
        <ele>356</ele>
        <time>2019-11-01T12:06:24Z</time>
      </trkpt>
      <trkpt lat="46.28061" lon="2.76093">
        <ele>356.1</ele>
        <time>2019-11-01T12:06:25Z</time>
      </trkpt>
      <trkpt lat="46.28065" lon="2.7609">
        <ele>356.2</ele>
        <time>2019-11-01T12:06:26Z</time>
      </trkpt>
      <trkpt lat="46.28068" lon="2.76086">
        <ele>356.5</ele>
        <time>2019-11-01T12:06:27Z</time>
      </trkpt>
      <trkpt lat="46.28071" lon="2.76083">
        <ele>356.7</ele>
        <time>2019-11-01T12:06:28Z</time>
      </trkpt>
      <trkpt lat="46.28074" lon="2.7608">
        <ele>356.9</ele>
        <time>2019-11-01T12:06:29Z</time>
      </trkpt>
      <trkpt lat="46.28077" lon="2.76076">
        <ele>357</ele>
        <time>2019-11-01T12:06:30Z</time>
      </trkpt>
      <trkpt lat="46.28079" lon="2.76072">
        <ele>357.1</ele>
        <time>2019-11-01T12:06:31Z</time>
      </trkpt>
      <trkpt lat="46.28082" lon="2.76068">
        <ele>357.1</ele>
        <time>2019-11-01T12:06:32Z</time>
      </trkpt>
      <trkpt lat="46.28084" lon="2.76064">
        <ele>357.1</ele>
        <time>2019-11-01T12:06:33Z</time>
      </trkpt>
      <trkpt lat="46.28086" lon="2.76059">
        <ele>357.3</ele>
        <time>2019-11-01T12:06:34Z</time>
      </trkpt>
      <trkpt lat="46.28087" lon="2.76055">
        <ele>357.4</ele>
        <time>2019-11-01T12:06:35Z</time>
      </trkpt>
      <trkpt lat="46.28088" lon="2.7605">
        <ele>357.5</ele>
        <time>2019-11-01T12:06:36Z</time>
      </trkpt>
      <trkpt lat="46.2809" lon="2.76045">
        <ele>357.7</ele>
        <time>2019-11-01T12:06:37Z</time>
      </trkpt>
      <trkpt lat="46.28092" lon="2.7604">
        <ele>357.8</ele>
        <time>2019-11-01T12:06:38Z</time>
      </trkpt>
      <trkpt lat="46.28094" lon="2.76037">
        <ele>358</ele>
        <time>2019-11-01T12:06:39Z</time>
      </trkpt>
      <trkpt lat="46.28097" lon="2.76033">
        <ele>358</ele>
        <time>2019-11-01T12:06:40Z</time>
      </trkpt>
      <trkpt lat="46.281" lon="2.7603">
        <ele>358.1</ele>
        <time>2019-11-01T12:06:41Z</time>
      </trkpt>
      <trkpt lat="46.28102" lon="2.76026">
        <ele>358.1</ele>
        <time>2019-11-01T12:06:42Z</time>
      </trkpt>
      <trkpt lat="46.28105" lon="2.76023">
        <ele>358.1</ele>
        <time>2019-11-01T12:06:43Z</time>
      </trkpt>
      <trkpt lat="46.28108" lon="2.7602">
        <ele>358.1</ele>
        <time>2019-11-01T12:06:44Z</time>
      </trkpt>
      <trkpt lat="46.28111" lon="2.76016">
        <ele>358.1</ele>
        <time>2019-11-01T12:06:45Z</time>
      </trkpt>
      <trkpt lat="46.28113" lon="2.76012">
        <ele>358.1</ele>
        <time>2019-11-01T12:06:46Z</time>
      </trkpt>
      <trkpt lat="46.28116" lon="2.76008">
        <ele>358.1</ele>
        <time>2019-11-01T12:06:47Z</time>
      </trkpt>
      <trkpt lat="46.28119" lon="2.76005">
        <ele>358.1</ele>
        <time>2019-11-01T12:06:48Z</time>
      </trkpt>
      <trkpt lat="46.28122" lon="2.76001">
        <ele>358.1</ele>
        <time>2019-11-01T12:06:49Z</time>
      </trkpt>
      <trkpt lat="46.28124" lon="2.75997">
        <ele>358.2</ele>
        <time>2019-11-01T12:06:50Z</time>
      </trkpt>
      <trkpt lat="46.28127" lon="2.75994">
        <ele>358.2</ele>
        <time>2019-11-01T12:06:51Z</time>
      </trkpt>
      <trkpt lat="46.2813" lon="2.7599">
        <ele>358.3</ele>
        <time>2019-11-01T12:06:52Z</time>
      </trkpt>
      <trkpt lat="46.28133" lon="2.75986">
        <ele>358.3</ele>
        <time>2019-11-01T12:06:53Z</time>
      </trkpt>
      <trkpt lat="46.28136" lon="2.75982">
        <ele>358.5</ele>
        <time>2019-11-01T12:06:54Z</time>
      </trkpt>
      <trkpt lat="46.28139" lon="2.75978">
        <ele>358.6</ele>
        <time>2019-11-01T12:06:55Z</time>
      </trkpt>
      <trkpt lat="46.28143" lon="2.75973">
        <ele>358.7</ele>
        <time>2019-11-01T12:06:56Z</time>
      </trkpt>
      <trkpt lat="46.28146" lon="2.75969">
        <ele>358.8</ele>
        <time>2019-11-01T12:06:57Z</time>
      </trkpt>
      <trkpt lat="46.2815" lon="2.75964">
        <ele>358.9</ele>
        <time>2019-11-01T12:06:58Z</time>
      </trkpt>
      <trkpt lat="46.28153" lon="2.7596">
        <ele>359.1</ele>
        <time>2019-11-01T12:06:59Z</time>
      </trkpt>
      <trkpt lat="46.28157" lon="2.75955">
        <ele>359.3</ele>
        <time>2019-11-01T12:07:00Z</time>
      </trkpt>
      <trkpt lat="46.2816" lon="2.75952">
        <ele>359.5</ele>
        <time>2019-11-01T12:07:01Z</time>
      </trkpt>
      <trkpt lat="46.28164" lon="2.75947">
        <ele>359.8</ele>
        <time>2019-11-01T12:07:02Z</time>
      </trkpt>
      <trkpt lat="46.28167" lon="2.75943">
        <ele>360.1</ele>
        <time>2019-11-01T12:07:03Z</time>
      </trkpt>
      <trkpt lat="46.28171" lon="2.75939">
        <ele>360.3</ele>
        <time>2019-11-01T12:07:04Z</time>
      </trkpt>
      <trkpt lat="46.28174" lon="2.75935">
        <ele>360.5</ele>
        <time>2019-11-01T12:07:05Z</time>
      </trkpt>
      <trkpt lat="46.28177" lon="2.75931">
        <ele>360.7</ele>
        <time>2019-11-01T12:07:06Z</time>
      </trkpt>
      <trkpt lat="46.2818" lon="2.75927">
        <ele>361.1</ele>
        <time>2019-11-01T12:07:07Z</time>
      </trkpt>
      <trkpt lat="46.28183" lon="2.75923">
        <ele>361.3</ele>
        <time>2019-11-01T12:07:08Z</time>
      </trkpt>
      <trkpt lat="46.28186" lon="2.75919">
        <ele>361.5</ele>
        <time>2019-11-01T12:07:09Z</time>
      </trkpt>
      <trkpt lat="46.28189" lon="2.75915">
        <ele>361.8</ele>
        <time>2019-11-01T12:07:10Z</time>
      </trkpt>
      <trkpt lat="46.28191" lon="2.75911">
        <ele>362</ele>
        <time>2019-11-01T12:07:11Z</time>
      </trkpt>
      <trkpt lat="46.28193" lon="2.75907">
        <ele>362.2</ele>
        <time>2019-11-01T12:07:12Z</time>
      </trkpt>
      <trkpt lat="46.28196" lon="2.75903">
        <ele>362.3</ele>
        <time>2019-11-01T12:07:13Z</time>
      </trkpt>
      <trkpt lat="46.28198" lon="2.75899">
        <ele>362.5</ele>
        <time>2019-11-01T12:07:14Z</time>
      </trkpt>
      <trkpt lat="46.282" lon="2.75896">
        <ele>362.7</ele>
        <time>2019-11-01T12:07:15Z</time>
      </trkpt>
      <trkpt lat="46.28202" lon="2.75892">
        <ele>362.9</ele>
        <time>2019-11-01T12:07:16Z</time>
      </trkpt>
      <trkpt lat="46.28205" lon="2.75888">
        <ele>363.1</ele>
        <time>2019-11-01T12:07:17Z</time>
      </trkpt>
      <trkpt lat="46.28207" lon="2.75885">
        <ele>363.2</ele>
        <time>2019-11-01T12:07:18Z</time>
      </trkpt>
      <trkpt lat="46.28209" lon="2.75882">
        <ele>363.4</ele>
        <time>2019-11-01T12:07:19Z</time>
      </trkpt>
      <trkpt lat="46.28211" lon="2.75878">
        <ele>363.6</ele>
        <time>2019-11-01T12:07:20Z</time>
      </trkpt>
      <trkpt lat="46.28214" lon="2.75874">
        <ele>363.8</ele>
        <time>2019-11-01T12:07:21Z</time>
      </trkpt>
      <trkpt lat="46.28216" lon="2.7587">
        <ele>364</ele>
        <time>2019-11-01T12:07:22Z</time>
      </trkpt>
      <trkpt lat="46.28218" lon="2.75867">
        <ele>364.1</ele>
        <time>2019-11-01T12:07:23Z</time>
      </trkpt>
      <trkpt lat="46.28221" lon="2.75863">
        <ele>364.3</ele>
        <time>2019-11-01T12:07:24Z</time>
      </trkpt>
      <trkpt lat="46.28223" lon="2.75859">
        <ele>364.4</ele>
        <time>2019-11-01T12:07:25Z</time>
      </trkpt>
      <trkpt lat="46.28225" lon="2.75855">
        <ele>364.5</ele>
        <time>2019-11-01T12:07:26Z</time>
      </trkpt>
      <trkpt lat="46.28226" lon="2.7585">
        <ele>364.6</ele>
        <time>2019-11-01T12:07:27Z</time>
      </trkpt>
      <trkpt lat="46.28228" lon="2.75846">
        <ele>364.7</ele>
        <time>2019-11-01T12:07:28Z</time>
      </trkpt>
      <trkpt lat="46.2823" lon="2.75842">
        <ele>364.8</ele>
        <time>2019-11-01T12:07:29Z</time>
      </trkpt>
      <trkpt lat="46.28232" lon="2.75838">
        <ele>364.9</ele>
        <time>2019-11-01T12:07:30Z</time>
      </trkpt>
      <trkpt lat="46.28233" lon="2.75834">
        <ele>365</ele>
        <time>2019-11-01T12:07:31Z</time>
      </trkpt>
      <trkpt lat="46.28235" lon="2.75831">
        <ele>365.1</ele>
        <time>2019-11-01T12:07:32Z</time>
      </trkpt>
      <trkpt lat="46.28236" lon="2.75827">
        <ele>365.2</ele>
        <time>2019-11-01T12:07:33Z</time>
      </trkpt>
      <trkpt lat="46.28237" lon="2.75823">
        <ele>365.3</ele>
        <time>2019-11-01T12:07:34Z</time>
      </trkpt>
      <trkpt lat="46.28239" lon="2.75819">
        <ele>365.3</ele>
        <time>2019-11-01T12:07:35Z</time>
      </trkpt>
      <trkpt lat="46.2824" lon="2.75815">
        <ele>365.4</ele>
        <time>2019-11-01T12:07:36Z</time>
      </trkpt>
      <trkpt lat="46.28242" lon="2.75811">
        <ele>365.4</ele>
        <time>2019-11-01T12:07:37Z</time>
      </trkpt>
      <trkpt lat="46.28243" lon="2.75807">
        <ele>365.3</ele>
        <time>2019-11-01T12:07:38Z</time>
      </trkpt>
      <trkpt lat="46.28245" lon="2.75803">
        <ele>365.3</ele>
        <time>2019-11-01T12:07:39Z</time>
      </trkpt>
      <trkpt lat="46.28246" lon="2.75799">
        <ele>365.3</ele>
        <time>2019-11-01T12:07:40Z</time>
      </trkpt>
      <trkpt lat="46.28248" lon="2.75795">
        <ele>365.2</ele>
        <time>2019-11-01T12:07:41Z</time>
      </trkpt>
      <trkpt lat="46.2825" lon="2.75792">
        <ele>365.2</ele>
        <time>2019-11-01T12:07:42Z</time>
      </trkpt>
      <trkpt lat="46.28252" lon="2.75788">
        <ele>365.1</ele>
        <time>2019-11-01T12:07:43Z</time>
      </trkpt>
      <trkpt lat="46.28253" lon="2.75784">
        <ele>365</ele>
        <time>2019-11-01T12:07:44Z</time>
      </trkpt>
      <trkpt lat="46.28255" lon="2.75781">
        <ele>364.9</ele>
        <time>2019-11-01T12:07:45Z</time>
      </trkpt>
      <trkpt lat="46.28258" lon="2.75777">
        <ele>364.7</ele>
        <time>2019-11-01T12:07:46Z</time>
      </trkpt>
      <trkpt lat="46.28261" lon="2.75774">
        <ele>364.6</ele>
        <time>2019-11-01T12:07:47Z</time>
      </trkpt>
      <trkpt lat="46.28265" lon="2.75771">
        <ele>364.4</ele>
        <time>2019-11-01T12:07:48Z</time>
      </trkpt>
      <trkpt lat="46.28269" lon="2.75767">
        <ele>364.2</ele>
        <time>2019-11-01T12:07:49Z</time>
      </trkpt>
      <trkpt lat="46.28273" lon="2.75762">
        <ele>364</ele>
        <time>2019-11-01T12:07:50Z</time>
      </trkpt>
      <trkpt lat="46.28277" lon="2.75758">
        <ele>363.9</ele>
        <time>2019-11-01T12:07:51Z</time>
      </trkpt>
      <trkpt lat="46.28281" lon="2.75752">
        <ele>363.7</ele>
        <time>2019-11-01T12:07:52Z</time>
      </trkpt>
      <trkpt lat="46.28285" lon="2.75746">
        <ele>363.6</ele>
        <time>2019-11-01T12:07:53Z</time>
      </trkpt>
      <trkpt lat="46.28288" lon="2.75739">
        <ele>363.5</ele>
        <time>2019-11-01T12:07:54Z</time>
      </trkpt>
      <trkpt lat="46.28291" lon="2.75732">
        <ele>363.5</ele>
        <time>2019-11-01T12:07:55Z</time>
      </trkpt>
      <trkpt lat="46.28294" lon="2.75725">
        <ele>363.4</ele>
        <time>2019-11-01T12:07:56Z</time>
      </trkpt>
      <trkpt lat="46.28296" lon="2.75718">
        <ele>363.3</ele>
        <time>2019-11-01T12:07:57Z</time>
      </trkpt>
      <trkpt lat="46.28298" lon="2.75711">
        <ele>363.3</ele>
        <time>2019-11-01T12:07:58Z</time>
      </trkpt>
      <trkpt lat="46.283" lon="2.75704">
        <ele>363.2</ele>
        <time>2019-11-01T12:07:59Z</time>
      </trkpt>
      <trkpt lat="46.28302" lon="2.75697">
        <ele>363.2</ele>
        <time>2019-11-01T12:08:00Z</time>
      </trkpt>
      <trkpt lat="46.28304" lon="2.7569">
        <ele>363.1</ele>
        <time>2019-11-01T12:08:01Z</time>
      </trkpt>
      <trkpt lat="46.28306" lon="2.75684">
        <ele>363.1</ele>
        <time>2019-11-01T12:08:02Z</time>
      </trkpt>
      <trkpt lat="46.28309" lon="2.75678">
        <ele>363.1</ele>
        <time>2019-11-01T12:08:03Z</time>
      </trkpt>
      <trkpt lat="46.28312" lon="2.75672">
        <ele>363.1</ele>
        <time>2019-11-01T12:08:04Z</time>
      </trkpt>
      <trkpt lat="46.28314" lon="2.75665">
        <ele>363.1</ele>
        <time>2019-11-01T12:08:05Z</time>
      </trkpt>
      <trkpt lat="46.28317" lon="2.7566">
        <ele>363.2</ele>
        <time>2019-11-01T12:08:06Z</time>
      </trkpt>
      <trkpt lat="46.28321" lon="2.75654">
        <ele>363.2</ele>
        <time>2019-11-01T12:08:07Z</time>
      </trkpt>
      <trkpt lat="46.28324" lon="2.75649">
        <ele>363.3</ele>
        <time>2019-11-01T12:08:08Z</time>
      </trkpt>
      <trkpt lat="46.28328" lon="2.75644">
        <ele>363.4</ele>
        <time>2019-11-01T12:08:09Z</time>
      </trkpt>
      <trkpt lat="46.28332" lon="2.75639">
        <ele>363.5</ele>
        <time>2019-11-01T12:08:10Z</time>
      </trkpt>
      <trkpt lat="46.28336" lon="2.75634">
        <ele>363.8</ele>
        <time>2019-11-01T12:08:11Z</time>
      </trkpt>
      <trkpt lat="46.28339" lon="2.7563">
        <ele>364</ele>
        <time>2019-11-01T12:08:12Z</time>
      </trkpt>
      <trkpt lat="46.28342" lon="2.75625">
        <ele>364.3</ele>
        <time>2019-11-01T12:08:13Z</time>
      </trkpt>
      <trkpt lat="46.28345" lon="2.7562">
        <ele>364.5</ele>
        <time>2019-11-01T12:08:14Z</time>
      </trkpt>
      <trkpt lat="46.28347" lon="2.75616">
        <ele>364.8</ele>
        <time>2019-11-01T12:08:15Z</time>
      </trkpt>
      <trkpt lat="46.28349" lon="2.75613">
        <ele>364.9</ele>
        <time>2019-11-01T12:08:16Z</time>
      </trkpt>
      <trkpt lat="46.28351" lon="2.7561">
        <ele>365.2</ele>
        <time>2019-11-01T12:08:17Z</time>
      </trkpt>
      <trkpt lat="46.28352" lon="2.75608">
        <ele>365.2</ele>
        <time>2019-11-01T12:08:18Z</time>
      </trkpt>
      <trkpt lat="46.28354" lon="2.75607">
        <ele>365.1</ele>
        <time>2019-11-01T12:08:19Z</time>
      </trkpt>
      <trkpt lat="46.28356" lon="2.75607">
        <ele>365.1</ele>
        <time>2019-11-01T12:08:20Z</time>
      </trkpt>
      <trkpt lat="46.28359" lon="2.75607">
        <ele>365.1</ele>
        <time>2019-11-01T12:08:21Z</time>
      </trkpt>
      <trkpt lat="46.28361" lon="2.75607">
        <ele>365.1</ele>
        <time>2019-11-01T12:08:22Z</time>
      </trkpt>
      <trkpt lat="46.28363" lon="2.75608">
        <ele>365.1</ele>
        <time>2019-11-01T12:08:23Z</time>
      </trkpt>
      <trkpt lat="46.28366" lon="2.7561">
        <ele>365.2</ele>
        <time>2019-11-01T12:08:24Z</time>
      </trkpt>
      <trkpt lat="46.28369" lon="2.75611">
        <ele>365.2</ele>
        <time>2019-11-01T12:08:25Z</time>
      </trkpt>
      <trkpt lat="46.28372" lon="2.75613">
        <ele>365.3</ele>
        <time>2019-11-01T12:08:26Z</time>
      </trkpt>
      <trkpt lat="46.28376" lon="2.75615">
        <ele>365.5</ele>
        <time>2019-11-01T12:08:27Z</time>
      </trkpt>
      <trkpt lat="46.28379" lon="2.75616">
        <ele>365.7</ele>
        <time>2019-11-01T12:08:28Z</time>
      </trkpt>
      <trkpt lat="46.28383" lon="2.75618">
        <ele>366</ele>
        <time>2019-11-01T12:08:29Z</time>
      </trkpt>
      <trkpt lat="46.28387" lon="2.7562">
        <ele>366.3</ele>
        <time>2019-11-01T12:08:30Z</time>
      </trkpt>
      <trkpt lat="46.28392" lon="2.75622">
        <ele>366.7</ele>
        <time>2019-11-01T12:08:31Z</time>
      </trkpt>
      <trkpt lat="46.28396" lon="2.75625">
        <ele>367</ele>
        <time>2019-11-01T12:08:32Z</time>
      </trkpt>
      <trkpt lat="46.284" lon="2.75628">
        <ele>367.3</ele>
        <time>2019-11-01T12:08:33Z</time>
      </trkpt>
      <trkpt lat="46.28404" lon="2.75632">
        <ele>367.7</ele>
        <time>2019-11-01T12:09:12Z</time>
      </trkpt>
      <trkpt lat="46.28408" lon="2.75635">
        <ele>367.9</ele>
        <time>2019-11-01T12:09:13Z</time>
      </trkpt>
      <trkpt lat="46.28413" lon="2.75638">
        <ele>367.9</ele>
        <time>2019-11-01T12:09:14Z</time>
      </trkpt>
      <trkpt lat="46.28417" lon="2.75641">
        <ele>367.9</ele>
        <time>2019-11-01T12:09:15Z</time>
      </trkpt>
      <trkpt lat="46.28421" lon="2.75644">
        <ele>367.9</ele>
        <time>2019-11-01T12:09:16Z</time>
      </trkpt>
      <trkpt lat="46.28426" lon="2.75646">
        <ele>367.9</ele>
        <time>2019-11-01T12:09:17Z</time>
      </trkpt>
      <trkpt lat="46.2843" lon="2.75645">
        <ele>367.9</ele>
        <time>2019-11-01T12:09:18Z</time>
      </trkpt>
      <trkpt lat="46.28433" lon="2.75642">
        <ele>367.9</ele>
        <time>2019-11-01T12:09:19Z</time>
      </trkpt>
      <trkpt lat="46.28436" lon="2.75636">
        <ele>367.9</ele>
        <time>2019-11-01T12:09:20Z</time>
      </trkpt>
      <trkpt lat="46.28438" lon="2.7563">
        <ele>367.9</ele>
        <time>2019-11-01T12:09:21Z</time>
      </trkpt>
      <trkpt lat="46.28441" lon="2.75623">
        <ele>367.9</ele>
        <time>2019-11-01T12:09:22Z</time>
      </trkpt>
      <trkpt lat="46.28443" lon="2.75617">
        <ele>367.9</ele>
        <time>2019-11-01T12:09:23Z</time>
      </trkpt>
      <trkpt lat="46.28445" lon="2.75608">
        <ele>367.9</ele>
        <time>2019-11-01T12:09:24Z</time>
      </trkpt>
      <trkpt lat="46.28447" lon="2.75601">
        <ele>367.9</ele>
        <time>2019-11-01T12:09:25Z</time>
      </trkpt>
      <trkpt lat="46.28449" lon="2.75594">
        <ele>367.9</ele>
        <time>2019-11-01T12:09:26Z</time>
      </trkpt>
      <trkpt lat="46.28452" lon="2.75589">
        <ele>367.9</ele>
        <time>2019-11-01T12:09:27Z</time>
      </trkpt>
      <trkpt lat="46.28454" lon="2.75583">
        <ele>368</ele>
        <time>2019-11-01T12:09:28Z</time>
      </trkpt>
      <trkpt lat="46.28457" lon="2.75577">
        <ele>368</ele>
        <time>2019-11-01T12:09:29Z</time>
      </trkpt>
      <trkpt lat="46.28459" lon="2.75571">
        <ele>368</ele>
        <time>2019-11-01T12:09:30Z</time>
      </trkpt>
      <trkpt lat="46.28462" lon="2.75564">
        <ele>368</ele>
        <time>2019-11-01T12:09:31Z</time>
      </trkpt>
      <trkpt lat="46.28464" lon="2.75557">
        <ele>368.1</ele>
        <time>2019-11-01T12:09:32Z</time>
      </trkpt>
      <trkpt lat="46.28466" lon="2.7555">
        <ele>368.2</ele>
        <time>2019-11-01T12:09:33Z</time>
      </trkpt>
      <trkpt lat="46.28468" lon="2.75543">
        <ele>368.3</ele>
        <time>2019-11-01T12:09:34Z</time>
      </trkpt>
      <trkpt lat="46.2847" lon="2.75538">
        <ele>368.3</ele>
        <time>2019-11-01T12:09:35Z</time>
      </trkpt>
      <trkpt lat="46.28473" lon="2.75532">
        <ele>368.4</ele>
        <time>2019-11-01T12:09:36Z</time>
      </trkpt>
      <trkpt lat="46.28475" lon="2.75526">
        <ele>368.5</ele>
        <time>2019-11-01T12:09:37Z</time>
      </trkpt>
      <trkpt lat="46.28477" lon="2.7552">
        <ele>368.6</ele>
        <time>2019-11-01T12:09:38Z</time>
      </trkpt>
      <trkpt lat="46.28479" lon="2.75514">
        <ele>368.7</ele>
        <time>2019-11-01T12:09:39Z</time>
      </trkpt>
      <trkpt lat="46.28482" lon="2.75508">
        <ele>368.8</ele>
        <time>2019-11-01T12:09:40Z</time>
      </trkpt>
      <trkpt lat="46.28484" lon="2.75502">
        <ele>368.9</ele>
        <time>2019-11-01T12:09:41Z</time>
      </trkpt>
      <trkpt lat="46.28486" lon="2.75496">
        <ele>369</ele>
        <time>2019-11-01T12:09:42Z</time>
      </trkpt>
      <trkpt lat="46.28488" lon="2.7549">
        <ele>369.1</ele>
        <time>2019-11-01T12:09:43Z</time>
      </trkpt>
      <trkpt lat="46.2849" lon="2.75484">
        <ele>369.2</ele>
        <time>2019-11-01T12:09:44Z</time>
      </trkpt>
      <trkpt lat="46.28492" lon="2.75478">
        <ele>369.4</ele>
        <time>2019-11-01T12:09:45Z</time>
      </trkpt>
      <trkpt lat="46.28494" lon="2.75472">
        <ele>369.5</ele>
        <time>2019-11-01T12:09:46Z</time>
      </trkpt>
      <trkpt lat="46.28496" lon="2.75466">
        <ele>369.6</ele>
        <time>2019-11-01T12:09:47Z</time>
      </trkpt>
      <trkpt lat="46.28498" lon="2.7546">
        <ele>369.7</ele>
        <time>2019-11-01T12:09:48Z</time>
      </trkpt>
      <trkpt lat="46.285" lon="2.75454">
        <ele>369.8</ele>
        <time>2019-11-01T12:09:49Z</time>
      </trkpt>
      <trkpt lat="46.28502" lon="2.75448">
        <ele>370.1</ele>
        <time>2019-11-01T12:09:50Z</time>
      </trkpt>
      <trkpt lat="46.28503" lon="2.75442">
        <ele>370.3</ele>
        <time>2019-11-01T12:09:51Z</time>
      </trkpt>
      <trkpt lat="46.28505" lon="2.75436">
        <ele>370.6</ele>
        <time>2019-11-01T12:09:52Z</time>
      </trkpt>
      <trkpt lat="46.28507" lon="2.7543">
        <ele>370.8</ele>
        <time>2019-11-01T12:09:53Z</time>
      </trkpt>
      <trkpt lat="46.28509" lon="2.75424">
        <ele>371.1</ele>
        <time>2019-11-01T12:09:54Z</time>
      </trkpt>
      <trkpt lat="46.28511" lon="2.75418">
        <ele>371.3</ele>
        <time>2019-11-01T12:09:55Z</time>
      </trkpt>
      <trkpt lat="46.28513" lon="2.75413">
        <ele>371.5</ele>
        <time>2019-11-01T12:09:56Z</time>
      </trkpt>
      <trkpt lat="46.28515" lon="2.75407">
        <ele>371.7</ele>
        <time>2019-11-01T12:09:57Z</time>
      </trkpt>
      <trkpt lat="46.28517" lon="2.75402">
        <ele>371.9</ele>
        <time>2019-11-01T12:09:58Z</time>
      </trkpt>
      <trkpt lat="46.28519" lon="2.75396">
        <ele>372.1</ele>
        <time>2019-11-01T12:09:59Z</time>
      </trkpt>
      <trkpt lat="46.28521" lon="2.75391">
        <ele>372.3</ele>
        <time>2019-11-01T12:10:00Z</time>
      </trkpt>
      <trkpt lat="46.28522" lon="2.75385">
        <ele>372.5</ele>
        <time>2019-11-01T12:10:01Z</time>
      </trkpt>
      <trkpt lat="46.28524" lon="2.75379">
        <ele>372.6</ele>
        <time>2019-11-01T12:10:02Z</time>
      </trkpt>
      <trkpt lat="46.28526" lon="2.75373">
        <ele>372.8</ele>
        <time>2019-11-01T12:10:03Z</time>
      </trkpt>
      <trkpt lat="46.28527" lon="2.75368">
        <ele>373</ele>
        <time>2019-11-01T12:10:04Z</time>
      </trkpt>
      <trkpt lat="46.28529" lon="2.75362">
        <ele>373.3</ele>
        <time>2019-11-01T12:10:05Z</time>
      </trkpt>
      <trkpt lat="46.2853" lon="2.75357">
        <ele>373.5</ele>
        <time>2019-11-01T12:10:06Z</time>
      </trkpt>
      <trkpt lat="46.28532" lon="2.75351">
        <ele>373.8</ele>
        <time>2019-11-01T12:10:07Z</time>
      </trkpt>
      <trkpt lat="46.28533" lon="2.75346">
        <ele>374</ele>
        <time>2019-11-01T12:10:08Z</time>
      </trkpt>
      <trkpt lat="46.28535" lon="2.7534">
        <ele>374.2</ele>
        <time>2019-11-01T12:10:09Z</time>
      </trkpt>
      <trkpt lat="46.28536" lon="2.75335">
        <ele>374.4</ele>
        <time>2019-11-01T12:10:10Z</time>
      </trkpt>
      <trkpt lat="46.28538" lon="2.7533">
        <ele>374.6</ele>
        <time>2019-11-01T12:10:11Z</time>
      </trkpt>
      <trkpt lat="46.28539" lon="2.75324">
        <ele>374.7</ele>
        <time>2019-11-01T12:10:12Z</time>
      </trkpt>
      <trkpt lat="46.28541" lon="2.75319">
        <ele>374.9</ele>
        <time>2019-11-01T12:10:13Z</time>
      </trkpt>
      <trkpt lat="46.28542" lon="2.75314">
        <ele>375.1</ele>
        <time>2019-11-01T12:10:14Z</time>
      </trkpt>
      <trkpt lat="46.28544" lon="2.7531">
        <ele>375.3</ele>
        <time>2019-11-01T12:10:15Z</time>
      </trkpt>
      <trkpt lat="46.28547" lon="2.75305">
        <ele>375.5</ele>
        <time>2019-11-01T12:10:16Z</time>
      </trkpt>
      <trkpt lat="46.28549" lon="2.75299">
        <ele>375.7</ele>
        <time>2019-11-01T12:10:17Z</time>
      </trkpt>
      <trkpt lat="46.28551" lon="2.75294">
        <ele>375.9</ele>
        <time>2019-11-01T12:10:18Z</time>
      </trkpt>
      <trkpt lat="46.28553" lon="2.75288">
        <ele>376.1</ele>
        <time>2019-11-01T12:10:19Z</time>
      </trkpt>
      <trkpt lat="46.28555" lon="2.75283">
        <ele>376.2</ele>
        <time>2019-11-01T12:10:20Z</time>
      </trkpt>
      <trkpt lat="46.28558" lon="2.75278">
        <ele>376.4</ele>
        <time>2019-11-01T12:10:21Z</time>
      </trkpt>
      <trkpt lat="46.2856" lon="2.75273">
        <ele>376.6</ele>
        <time>2019-11-01T12:10:22Z</time>
      </trkpt>
      <trkpt lat="46.28563" lon="2.75269">
        <ele>376.7</ele>
        <time>2019-11-01T12:10:23Z</time>
      </trkpt>
      <trkpt lat="46.28565" lon="2.75266">
        <ele>376.9</ele>
        <time>2019-11-01T12:10:24Z</time>
      </trkpt>
      <trkpt lat="46.28569" lon="2.75262">
        <ele>377</ele>
        <time>2019-11-01T12:10:25Z</time>
      </trkpt>
      <trkpt lat="46.28573" lon="2.75259">
        <ele>377.2</ele>
        <time>2019-11-01T12:10:26Z</time>
      </trkpt>
      <trkpt lat="46.28577" lon="2.75257">
        <ele>377.4</ele>
        <time>2019-11-01T12:10:27Z</time>
      </trkpt>
      <trkpt lat="46.2858" lon="2.75255">
        <ele>377.5</ele>
        <time>2019-11-01T12:10:28Z</time>
      </trkpt>
      <trkpt lat="46.28584" lon="2.75252">
        <ele>377.6</ele>
        <time>2019-11-01T12:10:29Z</time>
      </trkpt>
      <trkpt lat="46.28587" lon="2.7525">
        <ele>377.8</ele>
        <time>2019-11-01T12:10:30Z</time>
      </trkpt>
      <trkpt lat="46.28591" lon="2.75247">
        <ele>377.9</ele>
        <time>2019-11-01T12:10:31Z</time>
      </trkpt>
      <trkpt lat="46.28594" lon="2.75245">
        <ele>378.1</ele>
        <time>2019-11-01T12:10:32Z</time>
      </trkpt>
      <trkpt lat="46.28598" lon="2.75242">
        <ele>378.2</ele>
        <time>2019-11-01T12:10:33Z</time>
      </trkpt>
      <trkpt lat="46.28602" lon="2.7524">
        <ele>378.4</ele>
        <time>2019-11-01T12:10:34Z</time>
      </trkpt>
      <trkpt lat="46.28606" lon="2.75238">
        <ele>378.5</ele>
        <time>2019-11-01T12:10:35Z</time>
      </trkpt>
      <trkpt lat="46.2861" lon="2.75235">
        <ele>378.7</ele>
        <time>2019-11-01T12:10:36Z</time>
      </trkpt>
      <trkpt lat="46.28614" lon="2.75233">
        <ele>378.9</ele>
        <time>2019-11-01T12:10:37Z</time>
      </trkpt>
      <trkpt lat="46.28618" lon="2.7523">
        <ele>379.1</ele>
        <time>2019-11-01T12:10:38Z</time>
      </trkpt>
      <trkpt lat="46.28622" lon="2.75228">
        <ele>379.3</ele>
        <time>2019-11-01T12:10:39Z</time>
      </trkpt>
      <trkpt lat="46.28626" lon="2.75225">
        <ele>379.4</ele>
        <time>2019-11-01T12:10:40Z</time>
      </trkpt>
      <trkpt lat="46.28629" lon="2.75223">
        <ele>379.6</ele>
        <time>2019-11-01T12:10:41Z</time>
      </trkpt>
      <trkpt lat="46.28633" lon="2.75221">
        <ele>379.8</ele>
        <time>2019-11-01T12:10:42Z</time>
      </trkpt>
      <trkpt lat="46.28636" lon="2.75219">
        <ele>379.9</ele>
        <time>2019-11-01T12:10:43Z</time>
      </trkpt>
      <trkpt lat="46.28639" lon="2.75217">
        <ele>380.1</ele>
        <time>2019-11-01T12:10:44Z</time>
      </trkpt>
      <trkpt lat="46.28641" lon="2.75215">
        <ele>380.3</ele>
        <time>2019-11-01T12:10:45Z</time>
      </trkpt>
      <trkpt lat="46.28642" lon="2.75214">
        <ele>380.4</ele>
        <time>2019-11-01T12:10:46Z</time>
      </trkpt>
      <trkpt lat="46.28642" lon="2.75213">
        <ele>380.7</ele>
        <time>2019-11-01T12:10:47Z</time>
      </trkpt>
      <trkpt lat="46.28642" lon="2.75213">
        <ele>380.7</ele>
        <time>2019-11-01T12:10:48Z</time>
      </trkpt>
      <trkpt lat="46.28642" lon="2.75212">
        <ele>380.8</ele>
        <time>2019-11-01T12:10:49Z</time>
      </trkpt>
      <trkpt lat="46.28641" lon="2.75212">
        <ele>380.8</ele>
        <time>2019-11-01T12:10:50Z</time>
      </trkpt>
      <trkpt lat="46.28636" lon="2.75205">
        <ele>381.2</ele>
        <time>2019-11-01T12:10:51Z</time>
      </trkpt>
      <trkpt lat="46.28636" lon="2.752">
        <ele>381.4</ele>
        <time>2019-11-01T12:10:52Z</time>
      </trkpt>
      <trkpt lat="46.28636" lon="2.75194">
        <ele>381.6</ele>
        <time>2019-11-01T12:10:53Z</time>
      </trkpt>
      <trkpt lat="46.28636" lon="2.75187">
        <ele>381.8</ele>
        <time>2019-11-01T12:10:54Z</time>
      </trkpt>
      <trkpt lat="46.28635" lon="2.7518">
        <ele>382.1</ele>
        <time>2019-11-01T12:10:55Z</time>
      </trkpt>
      <trkpt lat="46.28634" lon="2.75173">
        <ele>382.4</ele>
        <time>2019-11-01T12:10:56Z</time>
      </trkpt>
      <trkpt lat="46.28634" lon="2.75166">
        <ele>382.7</ele>
        <time>2019-11-01T12:10:57Z</time>
      </trkpt>
      <trkpt lat="46.28634" lon="2.75159">
        <ele>382.9</ele>
        <time>2019-11-01T12:10:58Z</time>
      </trkpt>
      <trkpt lat="46.28633" lon="2.75153">
        <ele>383.2</ele>
        <time>2019-11-01T12:10:59Z</time>
      </trkpt>
      <trkpt lat="46.28633" lon="2.75146">
        <ele>383.4</ele>
        <time>2019-11-01T12:11:00Z</time>
      </trkpt>
      <trkpt lat="46.28632" lon="2.7514">
        <ele>383.7</ele>
        <time>2019-11-01T12:11:01Z</time>
      </trkpt>
      <trkpt lat="46.28631" lon="2.75134">
        <ele>383.9</ele>
        <time>2019-11-01T12:11:02Z</time>
      </trkpt>
      <trkpt lat="46.2863" lon="2.75127">
        <ele>384.1</ele>
        <time>2019-11-01T12:11:03Z</time>
      </trkpt>
      <trkpt lat="46.28629" lon="2.75121">
        <ele>384.4</ele>
        <time>2019-11-01T12:11:04Z</time>
      </trkpt>
      <trkpt lat="46.28628" lon="2.75115">
        <ele>384.6</ele>
        <time>2019-11-01T12:11:05Z</time>
      </trkpt>
      <trkpt lat="46.28628" lon="2.75109">
        <ele>384.7</ele>
        <time>2019-11-01T12:11:06Z</time>
      </trkpt>
      <trkpt lat="46.28627" lon="2.75103">
        <ele>384.9</ele>
        <time>2019-11-01T12:11:07Z</time>
      </trkpt>
      <trkpt lat="46.28626" lon="2.75097">
        <ele>385</ele>
        <time>2019-11-01T12:11:08Z</time>
      </trkpt>
      <trkpt lat="46.28625" lon="2.75092">
        <ele>385.2</ele>
        <time>2019-11-01T12:11:09Z</time>
      </trkpt>
      <trkpt lat="46.28625" lon="2.75086">
        <ele>385.3</ele>
        <time>2019-11-01T12:11:10Z</time>
      </trkpt>
      <trkpt lat="46.28624" lon="2.75081">
        <ele>385.4</ele>
        <time>2019-11-01T12:11:11Z</time>
      </trkpt>
      <trkpt lat="46.28624" lon="2.75075">
        <ele>385.4</ele>
        <time>2019-11-01T12:11:12Z</time>
      </trkpt>
      <trkpt lat="46.28623" lon="2.7507">
        <ele>385.5</ele>
        <time>2019-11-01T12:11:13Z</time>
      </trkpt>
      <trkpt lat="46.28622" lon="2.75064">
        <ele>385.5</ele>
        <time>2019-11-01T12:11:14Z</time>
      </trkpt>
      <trkpt lat="46.28622" lon="2.75059">
        <ele>385.6</ele>
        <time>2019-11-01T12:11:15Z</time>
      </trkpt>
      <trkpt lat="46.28621" lon="2.75053">
        <ele>385.6</ele>
        <time>2019-11-01T12:11:16Z</time>
      </trkpt>
      <trkpt lat="46.2862" lon="2.75049">
        <ele>385.6</ele>
        <time>2019-11-01T12:11:17Z</time>
      </trkpt>
      <trkpt lat="46.28619" lon="2.75044">
        <ele>385.7</ele>
        <time>2019-11-01T12:11:18Z</time>
      </trkpt>
      <trkpt lat="46.28619" lon="2.75039">
        <ele>385.7</ele>
        <time>2019-11-01T12:11:19Z</time>
      </trkpt>
      <trkpt lat="46.28618" lon="2.75035">
        <ele>385.8</ele>
        <time>2019-11-01T12:11:20Z</time>
      </trkpt>
      <trkpt lat="46.28617" lon="2.7503">
        <ele>385.8</ele>
        <time>2019-11-01T12:11:21Z</time>
      </trkpt>
      <trkpt lat="46.28616" lon="2.75025">
        <ele>385.9</ele>
        <time>2019-11-01T12:11:22Z</time>
      </trkpt>
      <trkpt lat="46.28615" lon="2.75021">
        <ele>386</ele>
        <time>2019-11-01T12:11:23Z</time>
      </trkpt>
      <trkpt lat="46.28614" lon="2.75017">
        <ele>386.2</ele>
        <time>2019-11-01T12:11:24Z</time>
      </trkpt>
      <trkpt lat="46.28613" lon="2.75013">
        <ele>386.3</ele>
        <time>2019-11-01T12:11:25Z</time>
      </trkpt>
      <trkpt lat="46.28612" lon="2.75008">
        <ele>386.4</ele>
        <time>2019-11-01T12:11:26Z</time>
      </trkpt>
      <trkpt lat="46.28611" lon="2.75005">
        <ele>386.5</ele>
        <time>2019-11-01T12:11:27Z</time>
      </trkpt>
      <trkpt lat="46.28609" lon="2.75002">
        <ele>386.6</ele>
        <time>2019-11-01T12:11:28Z</time>
      </trkpt>
      <trkpt lat="46.28608" lon="2.74999">
        <ele>386.7</ele>
        <time>2019-11-01T12:11:29Z</time>
      </trkpt>
      <trkpt lat="46.28606" lon="2.74997">
        <ele>386.8</ele>
        <time>2019-11-01T12:11:30Z</time>
      </trkpt>
      <trkpt lat="46.28604" lon="2.74994">
        <ele>386.9</ele>
        <time>2019-11-01T12:11:31Z</time>
      </trkpt>
      <trkpt lat="46.28602" lon="2.74989">
        <ele>387.1</ele>
        <time>2019-11-01T12:11:32Z</time>
      </trkpt>
      <trkpt lat="46.28602" lon="2.74985">
        <ele>387.2</ele>
        <time>2019-11-01T12:11:33Z</time>
      </trkpt>
      <trkpt lat="46.28602" lon="2.74981">
        <ele>387.3</ele>
        <time>2019-11-01T12:11:34Z</time>
      </trkpt>
      <trkpt lat="46.28601" lon="2.74978">
        <ele>387.3</ele>
        <time>2019-11-01T12:11:35Z</time>
      </trkpt>
      <trkpt lat="46.286" lon="2.74974">
        <ele>387.4</ele>
        <time>2019-11-01T12:11:36Z</time>
      </trkpt>
      <trkpt lat="46.286" lon="2.7497">
        <ele>387.4</ele>
        <time>2019-11-01T12:11:37Z</time>
      </trkpt>
      <trkpt lat="46.28599" lon="2.74967">
        <ele>387.5</ele>
        <time>2019-11-01T12:11:38Z</time>
      </trkpt>
      <trkpt lat="46.28599" lon="2.74963">
        <ele>387.5</ele>
        <time>2019-11-01T12:11:39Z</time>
      </trkpt>
      <trkpt lat="46.28598" lon="2.74959">
        <ele>387.6</ele>
        <time>2019-11-01T12:11:40Z</time>
      </trkpt>
      <trkpt lat="46.28597" lon="2.74954">
        <ele>387.6</ele>
        <time>2019-11-01T12:11:41Z</time>
      </trkpt>
      <trkpt lat="46.28596" lon="2.7495">
        <ele>387.7</ele>
        <time>2019-11-01T12:11:42Z</time>
      </trkpt>
      <trkpt lat="46.28596" lon="2.74946">
        <ele>387.7</ele>
        <time>2019-11-01T12:11:43Z</time>
      </trkpt>
      <trkpt lat="46.28595" lon="2.74941">
        <ele>387.8</ele>
        <time>2019-11-01T12:11:44Z</time>
      </trkpt>
      <trkpt lat="46.28594" lon="2.74936">
        <ele>387.9</ele>
        <time>2019-11-01T12:11:45Z</time>
      </trkpt>
      <trkpt lat="46.28594" lon="2.74931">
        <ele>388</ele>
        <time>2019-11-01T12:11:46Z</time>
      </trkpt>
      <trkpt lat="46.28594" lon="2.74924">
        <ele>388.1</ele>
        <time>2019-11-01T12:11:47Z</time>
      </trkpt>
      <trkpt lat="46.28594" lon="2.74916">
        <ele>388.3</ele>
        <time>2019-11-01T12:11:48Z</time>
      </trkpt>
      <trkpt lat="46.28593" lon="2.7491">
        <ele>388.3</ele>
        <time>2019-11-01T12:11:49Z</time>
      </trkpt>
      <trkpt lat="46.28592" lon="2.74901">
        <ele>388.4</ele>
        <time>2019-11-01T12:11:50Z</time>
      </trkpt>
      <trkpt lat="46.28591" lon="2.74896">
        <ele>388.4</ele>
        <time>2019-11-01T12:11:51Z</time>
      </trkpt>
      <trkpt lat="46.28591" lon="2.74891">
        <ele>388.4</ele>
        <time>2019-11-01T12:11:52Z</time>
      </trkpt>
      <trkpt lat="46.2859" lon="2.74885">
        <ele>388.5</ele>
        <time>2019-11-01T12:11:53Z</time>
      </trkpt>
      <trkpt lat="46.28589" lon="2.74879">
        <ele>388.5</ele>
        <time>2019-11-01T12:11:54Z</time>
      </trkpt>
      <trkpt lat="46.28588" lon="2.74874">
        <ele>388.5</ele>
        <time>2019-11-01T12:11:55Z</time>
      </trkpt>
      <trkpt lat="46.28587" lon="2.74869">
        <ele>388.5</ele>
        <time>2019-11-01T12:11:56Z</time>
      </trkpt>
      <trkpt lat="46.28587" lon="2.74864">
        <ele>388.5</ele>
        <time>2019-11-01T12:11:57Z</time>
      </trkpt>
      <trkpt lat="46.28586" lon="2.74859">
        <ele>388.5</ele>
        <time>2019-11-01T12:11:58Z</time>
      </trkpt>
      <trkpt lat="46.28585" lon="2.74854">
        <ele>388.5</ele>
        <time>2019-11-01T12:11:59Z</time>
      </trkpt>
      <trkpt lat="46.28584" lon="2.74849">
        <ele>388.5</ele>
        <time>2019-11-01T12:12:00Z</time>
      </trkpt>
      <trkpt lat="46.28583" lon="2.74843">
        <ele>388.5</ele>
        <time>2019-11-01T12:12:01Z</time>
      </trkpt>
      <trkpt lat="46.28582" lon="2.74837">
        <ele>388.4</ele>
        <time>2019-11-01T12:12:02Z</time>
      </trkpt>
      <trkpt lat="46.28581" lon="2.74832">
        <ele>388.4</ele>
        <time>2019-11-01T12:12:03Z</time>
      </trkpt>
      <trkpt lat="46.2858" lon="2.74826">
        <ele>388.4</ele>
        <time>2019-11-01T12:12:04Z</time>
      </trkpt>
      <trkpt lat="46.28579" lon="2.7482">
        <ele>388.4</ele>
        <time>2019-11-01T12:12:05Z</time>
      </trkpt>
      <trkpt lat="46.28578" lon="2.74815">
        <ele>388.4</ele>
        <time>2019-11-01T12:12:06Z</time>
      </trkpt>
      <trkpt lat="46.28577" lon="2.7481">
        <ele>388.4</ele>
        <time>2019-11-01T12:12:07Z</time>
      </trkpt>
      <trkpt lat="46.28576" lon="2.74805">
        <ele>388.4</ele>
        <time>2019-11-01T12:12:08Z</time>
      </trkpt>
      <trkpt lat="46.28575" lon="2.748">
        <ele>388.4</ele>
        <time>2019-11-01T12:12:09Z</time>
      </trkpt>
      <trkpt lat="46.28574" lon="2.74795">
        <ele>388.4</ele>
        <time>2019-11-01T12:12:10Z</time>
      </trkpt>
      <trkpt lat="46.28574" lon="2.74789">
        <ele>388.4</ele>
        <time>2019-11-01T12:12:11Z</time>
      </trkpt>
      <trkpt lat="46.28574" lon="2.74783">
        <ele>388.4</ele>
        <time>2019-11-01T12:12:12Z</time>
      </trkpt>
      <trkpt lat="46.28573" lon="2.74774">
        <ele>388.4</ele>
        <time>2019-11-01T12:12:13Z</time>
      </trkpt>
      <trkpt lat="46.28571" lon="2.74768">
        <ele>388.4</ele>
        <time>2019-11-01T12:12:14Z</time>
      </trkpt>
      <trkpt lat="46.2857" lon="2.74761">
        <ele>388.4</ele>
        <time>2019-11-01T12:12:15Z</time>
      </trkpt>
      <trkpt lat="46.28569" lon="2.74757">
        <ele>388.4</ele>
        <time>2019-11-01T12:12:16Z</time>
      </trkpt>
      <trkpt lat="46.28568" lon="2.74751">
        <ele>388.4</ele>
        <time>2019-11-01T12:12:17Z</time>
      </trkpt>
      <trkpt lat="46.28568" lon="2.74746">
        <ele>388.4</ele>
        <time>2019-11-01T12:12:18Z</time>
      </trkpt>
      <trkpt lat="46.28567" lon="2.74741">
        <ele>388.4</ele>
        <time>2019-11-01T12:12:19Z</time>
      </trkpt>
      <trkpt lat="46.28566" lon="2.74735">
        <ele>388.4</ele>
        <time>2019-11-01T12:12:20Z</time>
      </trkpt>
      <trkpt lat="46.28564" lon="2.74729">
        <ele>388.4</ele>
        <time>2019-11-01T12:12:21Z</time>
      </trkpt>
      <trkpt lat="46.28563" lon="2.74723">
        <ele>388.4</ele>
        <time>2019-11-01T12:12:22Z</time>
      </trkpt>
      <trkpt lat="46.28562" lon="2.74717">
        <ele>388.4</ele>
        <time>2019-11-01T12:12:23Z</time>
      </trkpt>
      <trkpt lat="46.28561" lon="2.74712">
        <ele>388.4</ele>
        <time>2019-11-01T12:12:24Z</time>
      </trkpt>
      <trkpt lat="46.2856" lon="2.74707">
        <ele>388.4</ele>
        <time>2019-11-01T12:12:25Z</time>
      </trkpt>
      <trkpt lat="46.28558" lon="2.74701">
        <ele>388.4</ele>
        <time>2019-11-01T12:12:26Z</time>
      </trkpt>
      <trkpt lat="46.28557" lon="2.74693">
        <ele>388.4</ele>
        <time>2019-11-01T12:12:27Z</time>
      </trkpt>
      <trkpt lat="46.28555" lon="2.74687">
        <ele>388.4</ele>
        <time>2019-11-01T12:12:28Z</time>
      </trkpt>
      <trkpt lat="46.28554" lon="2.74681">
        <ele>388.4</ele>
        <time>2019-11-01T12:12:29Z</time>
      </trkpt>
      <trkpt lat="46.28553" lon="2.74675">
        <ele>388.4</ele>
        <time>2019-11-01T12:12:30Z</time>
      </trkpt>
      <trkpt lat="46.28553" lon="2.74669">
        <ele>388.4</ele>
        <time>2019-11-01T12:12:31Z</time>
      </trkpt>
      <trkpt lat="46.28552" lon="2.74663">
        <ele>388.4</ele>
        <time>2019-11-01T12:12:32Z</time>
      </trkpt>
      <trkpt lat="46.2855" lon="2.74657">
        <ele>388.4</ele>
        <time>2019-11-01T12:12:33Z</time>
      </trkpt>
      <trkpt lat="46.28548" lon="2.74653">
        <ele>388.4</ele>
        <time>2019-11-01T12:12:34Z</time>
      </trkpt>
      <trkpt lat="46.28547" lon="2.74648">
        <ele>388.4</ele>
        <time>2019-11-01T12:12:35Z</time>
      </trkpt>
      <trkpt lat="46.28546" lon="2.74642">
        <ele>388.4</ele>
        <time>2019-11-01T12:12:36Z</time>
      </trkpt>
      <trkpt lat="46.28546" lon="2.74636">
        <ele>388.4</ele>
        <time>2019-11-01T12:12:37Z</time>
      </trkpt>
      <trkpt lat="46.28546" lon="2.7463">
        <ele>388.4</ele>
        <time>2019-11-01T12:12:38Z</time>
      </trkpt>
      <trkpt lat="46.28546" lon="2.74624">
        <ele>388.4</ele>
        <time>2019-11-01T12:12:39Z</time>
      </trkpt>
      <trkpt lat="46.28545" lon="2.74618">
        <ele>388.5</ele>
        <time>2019-11-01T12:12:40Z</time>
      </trkpt>
      <trkpt lat="46.28544" lon="2.74612">
        <ele>388.5</ele>
        <time>2019-11-01T12:12:41Z</time>
      </trkpt>
      <trkpt lat="46.28544" lon="2.74606">
        <ele>388.6</ele>
        <time>2019-11-01T12:12:42Z</time>
      </trkpt>
      <trkpt lat="46.28543" lon="2.74601">
        <ele>388.7</ele>
        <time>2019-11-01T12:12:43Z</time>
      </trkpt>
      <trkpt lat="46.28542" lon="2.74595">
        <ele>388.8</ele>
        <time>2019-11-01T12:12:44Z</time>
      </trkpt>
      <trkpt lat="46.28541" lon="2.74588">
        <ele>388.9</ele>
        <time>2019-11-01T12:12:45Z</time>
      </trkpt>
      <trkpt lat="46.2854" lon="2.74582">
        <ele>389</ele>
        <time>2019-11-01T12:12:46Z</time>
      </trkpt>
      <trkpt lat="46.28539" lon="2.74577">
        <ele>389</ele>
        <time>2019-11-01T12:12:47Z</time>
      </trkpt>
      <trkpt lat="46.28538" lon="2.74572">
        <ele>389.1</ele>
        <time>2019-11-01T12:12:48Z</time>
      </trkpt>
      <trkpt lat="46.28537" lon="2.74568">
        <ele>389.2</ele>
        <time>2019-11-01T12:12:49Z</time>
      </trkpt>
      <trkpt lat="46.28536" lon="2.74562">
        <ele>389.3</ele>
        <time>2019-11-01T12:12:50Z</time>
      </trkpt>
      <trkpt lat="46.28536" lon="2.74556">
        <ele>389.2</ele>
        <time>2019-11-01T12:12:51Z</time>
      </trkpt>
      <trkpt lat="46.28535" lon="2.74551">
        <ele>389.2</ele>
        <time>2019-11-01T12:12:52Z</time>
      </trkpt>
      <trkpt lat="46.28534" lon="2.74546">
        <ele>389.2</ele>
        <time>2019-11-01T12:12:53Z</time>
      </trkpt>
      <trkpt lat="46.28534" lon="2.74541">
        <ele>389.1</ele>
        <time>2019-11-01T12:12:54Z</time>
      </trkpt>
      <trkpt lat="46.28533" lon="2.74534">
        <ele>389.1</ele>
        <time>2019-11-01T12:12:55Z</time>
      </trkpt>
      <trkpt lat="46.28532" lon="2.74527">
        <ele>389.1</ele>
        <time>2019-11-01T12:12:56Z</time>
      </trkpt>
      <trkpt lat="46.28531" lon="2.7452">
        <ele>389</ele>
        <time>2019-11-01T12:12:57Z</time>
      </trkpt>
      <trkpt lat="46.2853" lon="2.74513">
        <ele>389</ele>
        <time>2019-11-01T12:12:58Z</time>
      </trkpt>
      <trkpt lat="46.28529" lon="2.74506">
        <ele>388.9</ele>
        <time>2019-11-01T12:12:59Z</time>
      </trkpt>
      <trkpt lat="46.28527" lon="2.74497">
        <ele>388.8</ele>
        <time>2019-11-01T12:13:00Z</time>
      </trkpt>
      <trkpt lat="46.28526" lon="2.7449">
        <ele>388.8</ele>
        <time>2019-11-01T12:13:01Z</time>
      </trkpt>
      <trkpt lat="46.28526" lon="2.74485">
        <ele>388.8</ele>
        <time>2019-11-01T12:13:02Z</time>
      </trkpt>
      <trkpt lat="46.28525" lon="2.74481">
        <ele>388.7</ele>
        <time>2019-11-01T12:13:03Z</time>
      </trkpt>
      <trkpt lat="46.28524" lon="2.74477">
        <ele>388.7</ele>
        <time>2019-11-01T12:13:04Z</time>
      </trkpt>
      <trkpt lat="46.28524" lon="2.74473">
        <ele>388.7</ele>
        <time>2019-11-01T12:13:05Z</time>
      </trkpt>
      <trkpt lat="46.28524" lon="2.74469">
        <ele>388.7</ele>
        <time>2019-11-01T12:13:06Z</time>
      </trkpt>
      <trkpt lat="46.28525" lon="2.74466">
        <ele>388.6</ele>
        <time>2019-11-01T12:13:07Z</time>
      </trkpt>
      <trkpt lat="46.28527" lon="2.74463">
        <ele>388.6</ele>
        <time>2019-11-01T12:13:08Z</time>
      </trkpt>
      <trkpt lat="46.28529" lon="2.74462">
        <ele>388.6</ele>
        <time>2019-11-01T12:13:09Z</time>
      </trkpt>
      <trkpt lat="46.28534" lon="2.74463">
        <ele>388.6</ele>
        <time>2019-11-01T12:13:10Z</time>
      </trkpt>
      <trkpt lat="46.28538" lon="2.74463">
        <ele>388.5</ele>
        <time>2019-11-01T12:13:11Z</time>
      </trkpt>
      <trkpt lat="46.2854" lon="2.74464">
        <ele>388.5</ele>
        <time>2019-11-01T12:13:12Z</time>
      </trkpt>
      <trkpt lat="46.28542" lon="2.74466">
        <ele>388.5</ele>
        <time>2019-11-01T12:13:13Z</time>
      </trkpt>
      <trkpt lat="46.28544" lon="2.74469">
        <ele>388.4</ele>
        <time>2019-11-01T12:13:14Z</time>
      </trkpt>
      <trkpt lat="46.28545" lon="2.74473">
        <ele>388.4</ele>
        <time>2019-11-01T12:13:15Z</time>
      </trkpt>
      <trkpt lat="46.28546" lon="2.74478">
        <ele>388.4</ele>
        <time>2019-11-01T12:13:16Z</time>
      </trkpt>
      <trkpt lat="46.28546" lon="2.74483">
        <ele>388.3</ele>
        <time>2019-11-01T12:13:17Z</time>
      </trkpt>
      <trkpt lat="46.28546" lon="2.7449">
        <ele>388.3</ele>
        <time>2019-11-01T12:13:18Z</time>
      </trkpt>
      <trkpt lat="46.28547" lon="2.74496">
        <ele>388.3</ele>
        <time>2019-11-01T12:13:19Z</time>
      </trkpt>
      <trkpt lat="46.28549" lon="2.74502">
        <ele>388.2</ele>
        <time>2019-11-01T12:13:20Z</time>
      </trkpt>
      <trkpt lat="46.28552" lon="2.74507">
        <ele>388.2</ele>
        <time>2019-11-01T12:13:21Z</time>
      </trkpt>
      <trkpt lat="46.28555" lon="2.74511">
        <ele>388.1</ele>
        <time>2019-11-01T12:13:22Z</time>
      </trkpt>
      <trkpt lat="46.28559" lon="2.74512">
        <ele>388.1</ele>
        <time>2019-11-01T12:13:23Z</time>
      </trkpt>
      <trkpt lat="46.28563" lon="2.74512">
        <ele>388.1</ele>
        <time>2019-11-01T12:13:24Z</time>
      </trkpt>
      <trkpt lat="46.28567" lon="2.74509">
        <ele>388</ele>
        <time>2019-11-01T12:13:25Z</time>
      </trkpt>
      <trkpt lat="46.2857" lon="2.74505">
        <ele>387.9</ele>
        <time>2019-11-01T12:13:26Z</time>
      </trkpt>
      <trkpt lat="46.28573" lon="2.745">
        <ele>387.8</ele>
        <time>2019-11-01T12:13:27Z</time>
      </trkpt>
      <trkpt lat="46.28575" lon="2.74493">
        <ele>387.6</ele>
        <time>2019-11-01T12:13:28Z</time>
      </trkpt>
      <trkpt lat="46.28576" lon="2.74486">
        <ele>387.4</ele>
        <time>2019-11-01T12:13:29Z</time>
      </trkpt>
      <trkpt lat="46.28578" lon="2.74478">
        <ele>387.2</ele>
        <time>2019-11-01T12:13:30Z</time>
      </trkpt>
      <trkpt lat="46.28581" lon="2.74471">
        <ele>387.1</ele>
        <time>2019-11-01T12:13:31Z</time>
      </trkpt>
      <trkpt lat="46.28585" lon="2.74465">
        <ele>386.9</ele>
        <time>2019-11-01T12:13:32Z</time>
      </trkpt>
      <trkpt lat="46.2859" lon="2.7446">
        <ele>386.9</ele>
        <time>2019-11-01T12:13:33Z</time>
      </trkpt>
      <trkpt lat="46.28595" lon="2.74457">
        <ele>387</ele>
        <time>2019-11-01T12:13:34Z</time>
      </trkpt>
      <trkpt lat="46.28601" lon="2.74454">
        <ele>387.1</ele>
        <time>2019-11-01T12:13:35Z</time>
      </trkpt>
      <trkpt lat="46.28606" lon="2.74453">
        <ele>387.2</ele>
        <time>2019-11-01T12:13:36Z</time>
      </trkpt>
      <trkpt lat="46.28612" lon="2.74451">
        <ele>387.3</ele>
        <time>2019-11-01T12:13:37Z</time>
      </trkpt>
      <trkpt lat="46.28618" lon="2.7445">
        <ele>387.3</ele>
        <time>2019-11-01T12:13:38Z</time>
      </trkpt>
      <trkpt lat="46.28623" lon="2.74448">
        <ele>387.4</ele>
        <time>2019-11-01T12:13:39Z</time>
      </trkpt>
      <trkpt lat="46.28629" lon="2.74446">
        <ele>387.5</ele>
        <time>2019-11-01T12:13:40Z</time>
      </trkpt>
      <trkpt lat="46.28635" lon="2.74445">
        <ele>387.7</ele>
        <time>2019-11-01T12:13:41Z</time>
      </trkpt>
      <trkpt lat="46.2864" lon="2.74443">
        <ele>387.7</ele>
        <time>2019-11-01T12:13:42Z</time>
      </trkpt>
      <trkpt lat="46.28645" lon="2.74442">
        <ele>387.7</ele>
        <time>2019-11-01T12:13:43Z</time>
      </trkpt>
      <trkpt lat="46.28651" lon="2.7444">
        <ele>387.8</ele>
        <time>2019-11-01T12:13:44Z</time>
      </trkpt>
      <trkpt lat="46.28656" lon="2.74439">
        <ele>387.8</ele>
        <time>2019-11-01T12:13:45Z</time>
      </trkpt>
      <trkpt lat="46.28661" lon="2.74438">
        <ele>387.8</ele>
        <time>2019-11-01T12:13:46Z</time>
      </trkpt>
      <trkpt lat="46.28666" lon="2.74437">
        <ele>387.9</ele>
        <time>2019-11-01T12:13:47Z</time>
      </trkpt>
      <trkpt lat="46.28671" lon="2.74435">
        <ele>387.9</ele>
        <time>2019-11-01T12:13:48Z</time>
      </trkpt>
      <trkpt lat="46.28676" lon="2.74433">
        <ele>387.9</ele>
        <time>2019-11-01T12:13:49Z</time>
      </trkpt>
      <trkpt lat="46.28682" lon="2.74431">
        <ele>388</ele>
        <time>2019-11-01T12:13:50Z</time>
      </trkpt>
      <trkpt lat="46.28687" lon="2.74429">
        <ele>388</ele>
        <time>2019-11-01T12:13:51Z</time>
      </trkpt>
      <trkpt lat="46.28692" lon="2.74427">
        <ele>388</ele>
        <time>2019-11-01T12:13:52Z</time>
      </trkpt>
      <trkpt lat="46.28697" lon="2.74425">
        <ele>388.1</ele>
        <time>2019-11-01T12:13:53Z</time>
      </trkpt>
      <trkpt lat="46.28703" lon="2.74424">
        <ele>388.1</ele>
        <time>2019-11-01T12:13:54Z</time>
      </trkpt>
      <trkpt lat="46.28708" lon="2.74422">
        <ele>388.1</ele>
        <time>2019-11-01T12:13:55Z</time>
      </trkpt>
      <trkpt lat="46.28713" lon="2.74421">
        <ele>388</ele>
        <time>2019-11-01T12:13:56Z</time>
      </trkpt>
      <trkpt lat="46.28719" lon="2.74419">
        <ele>387.9</ele>
        <time>2019-11-01T12:13:57Z</time>
      </trkpt>
      <trkpt lat="46.28724" lon="2.74417">
        <ele>387.9</ele>
        <time>2019-11-01T12:13:58Z</time>
      </trkpt>
      <trkpt lat="46.2873" lon="2.74416">
        <ele>387.8</ele>
        <time>2019-11-01T12:13:59Z</time>
      </trkpt>
      <trkpt lat="46.28735" lon="2.74414">
        <ele>387.7</ele>
        <time>2019-11-01T12:14:00Z</time>
      </trkpt>
      <trkpt lat="46.2874" lon="2.74411">
        <ele>387.6</ele>
        <time>2019-11-01T12:14:01Z</time>
      </trkpt>
      <trkpt lat="46.28745" lon="2.74409">
        <ele>387.6</ele>
        <time>2019-11-01T12:14:02Z</time>
      </trkpt>
      <trkpt lat="46.2875" lon="2.74406">
        <ele>387.5</ele>
        <time>2019-11-01T12:14:03Z</time>
      </trkpt>
      <trkpt lat="46.28756" lon="2.74403">
        <ele>387.3</ele>
        <time>2019-11-01T12:14:04Z</time>
      </trkpt>
      <trkpt lat="46.28761" lon="2.74401">
        <ele>387.1</ele>
        <time>2019-11-01T12:14:05Z</time>
      </trkpt>
      <trkpt lat="46.28766" lon="2.74398">
        <ele>386.9</ele>
        <time>2019-11-01T12:14:06Z</time>
      </trkpt>
      <trkpt lat="46.28772" lon="2.74395">
        <ele>386.8</ele>
        <time>2019-11-01T12:14:07Z</time>
      </trkpt>
      <trkpt lat="46.28778" lon="2.74391">
        <ele>386.6</ele>
        <time>2019-11-01T12:14:08Z</time>
      </trkpt>
      <trkpt lat="46.28784" lon="2.74388">
        <ele>386.4</ele>
        <time>2019-11-01T12:14:09Z</time>
      </trkpt>
      <trkpt lat="46.2879" lon="2.74384">
        <ele>386.1</ele>
        <time>2019-11-01T12:14:10Z</time>
      </trkpt>
      <trkpt lat="46.28796" lon="2.7438">
        <ele>385.9</ele>
        <time>2019-11-01T12:14:11Z</time>
      </trkpt>
      <trkpt lat="46.28803" lon="2.74377">
        <ele>385.7</ele>
        <time>2019-11-01T12:14:12Z</time>
      </trkpt>
      <trkpt lat="46.28808" lon="2.74373">
        <ele>385.6</ele>
        <time>2019-11-01T12:14:13Z</time>
      </trkpt>
      <trkpt lat="46.28815" lon="2.7437">
        <ele>385.4</ele>
        <time>2019-11-01T12:14:14Z</time>
      </trkpt>
      <trkpt lat="46.28822" lon="2.74366">
        <ele>385.3</ele>
        <time>2019-11-01T12:14:15Z</time>
      </trkpt>
      <trkpt lat="46.28827" lon="2.74362">
        <ele>385.2</ele>
        <time>2019-11-01T12:14:16Z</time>
      </trkpt>
      <trkpt lat="46.28832" lon="2.7436">
        <ele>385.1</ele>
        <time>2019-11-01T12:14:17Z</time>
      </trkpt>
      <trkpt lat="46.28836" lon="2.74359">
        <ele>385.1</ele>
        <time>2019-11-01T12:14:18Z</time>
      </trkpt>
      <trkpt lat="46.28839" lon="2.74358">
        <ele>385</ele>
        <time>2019-11-01T12:14:19Z</time>
      </trkpt>
      <trkpt lat="46.28841" lon="2.74357">
        <ele>385</ele>
        <time>2019-11-01T12:14:20Z</time>
      </trkpt>
      <trkpt lat="46.28844" lon="2.74354">
        <ele>384.9</ele>
        <time>2019-11-01T12:14:21Z</time>
      </trkpt>
      <trkpt lat="46.28847" lon="2.74351">
        <ele>384.9</ele>
        <time>2019-11-01T12:14:22Z</time>
      </trkpt>
      <trkpt lat="46.28851" lon="2.74348">
        <ele>384.8</ele>
        <time>2019-11-01T12:14:23Z</time>
      </trkpt>
      <trkpt lat="46.28854" lon="2.74343">
        <ele>384.8</ele>
        <time>2019-11-01T12:14:24Z</time>
      </trkpt>
      <trkpt lat="46.28857" lon="2.74339">
        <ele>384.7</ele>
        <time>2019-11-01T12:14:25Z</time>
      </trkpt>
      <trkpt lat="46.28861" lon="2.74336">
        <ele>384.7</ele>
        <time>2019-11-01T12:14:26Z</time>
      </trkpt>
      <trkpt lat="46.28865" lon="2.74334">
        <ele>384.6</ele>
        <time>2019-11-01T12:14:27Z</time>
      </trkpt>
      <trkpt lat="46.28867" lon="2.74333">
        <ele>384.6</ele>
        <time>2019-11-01T12:14:28Z</time>
      </trkpt>
      <trkpt lat="46.2887" lon="2.74332">
        <ele>384.6</ele>
        <time>2019-11-01T12:14:29Z</time>
      </trkpt>
      <trkpt lat="46.28871" lon="2.74331">
        <ele>384.5</ele>
        <time>2019-11-01T12:14:30Z</time>
      </trkpt>
      <trkpt lat="46.28873" lon="2.74329">
        <ele>384.5</ele>
        <time>2019-11-01T12:14:31Z</time>
      </trkpt>
      <trkpt lat="46.28874" lon="2.74326">
        <ele>384.5</ele>
        <time>2019-11-01T12:14:32Z</time>
      </trkpt>
      <trkpt lat="46.28872" lon="2.74321">
        <ele>384.5</ele>
        <time>2019-11-01T12:14:33Z</time>
      </trkpt>
      <trkpt lat="46.28872" lon="2.74317">
        <ele>384.5</ele>
        <time>2019-11-01T12:14:34Z</time>
      </trkpt>
      <trkpt lat="46.2887" lon="2.74311">
        <ele>384.6</ele>
        <time>2019-11-01T12:14:35Z</time>
      </trkpt>
      <trkpt lat="46.28869" lon="2.74305">
        <ele>384.6</ele>
        <time>2019-11-01T12:14:36Z</time>
      </trkpt>
      <trkpt lat="46.28869" lon="2.74298">
        <ele>384.6</ele>
        <time>2019-11-01T12:14:37Z</time>
      </trkpt>
      <trkpt lat="46.28869" lon="2.74291">
        <ele>384.6</ele>
        <time>2019-11-01T12:14:38Z</time>
      </trkpt>
      <trkpt lat="46.28871" lon="2.74284">
        <ele>384.6</ele>
        <time>2019-11-01T12:14:39Z</time>
      </trkpt>
      <trkpt lat="46.28874" lon="2.74278">
        <ele>384.6</ele>
        <time>2019-11-01T12:14:40Z</time>
      </trkpt>
      <trkpt lat="46.28878" lon="2.74271">
        <ele>384.6</ele>
        <time>2019-11-01T12:14:41Z</time>
      </trkpt>
      <trkpt lat="46.28882" lon="2.74265">
        <ele>384.6</ele>
        <time>2019-11-01T12:14:42Z</time>
      </trkpt>
      <trkpt lat="46.28886" lon="2.7426">
        <ele>384.6</ele>
        <time>2019-11-01T12:14:43Z</time>
      </trkpt>
      <trkpt lat="46.2889" lon="2.74255">
        <ele>384.6</ele>
        <time>2019-11-01T12:14:44Z</time>
      </trkpt>
      <trkpt lat="46.28895" lon="2.7425">
        <ele>384.6</ele>
        <time>2019-11-01T12:14:45Z</time>
      </trkpt>
      <trkpt lat="46.289" lon="2.74245">
        <ele>384.6</ele>
        <time>2019-11-01T12:14:46Z</time>
      </trkpt>
      <trkpt lat="46.28905" lon="2.74239">
        <ele>384.5</ele>
        <time>2019-11-01T12:14:47Z</time>
      </trkpt>
      <trkpt lat="46.2891" lon="2.74234">
        <ele>384.6</ele>
        <time>2019-11-01T12:14:48Z</time>
      </trkpt>
      <trkpt lat="46.28915" lon="2.74229">
        <ele>384.5</ele>
        <time>2019-11-01T12:14:49Z</time>
      </trkpt>
      <trkpt lat="46.28919" lon="2.74224">
        <ele>384.5</ele>
        <time>2019-11-01T12:14:50Z</time>
      </trkpt>
      <trkpt lat="46.28924" lon="2.74219">
        <ele>384.5</ele>
        <time>2019-11-01T12:14:51Z</time>
      </trkpt>
      <trkpt lat="46.2893" lon="2.74213">
        <ele>384.5</ele>
        <time>2019-11-01T12:14:52Z</time>
      </trkpt>
      <trkpt lat="46.28935" lon="2.74207">
        <ele>384.6</ele>
        <time>2019-11-01T12:14:53Z</time>
      </trkpt>
      <trkpt lat="46.28942" lon="2.74199">
        <ele>384.6</ele>
        <time>2019-11-01T12:14:54Z</time>
      </trkpt>
      <trkpt lat="46.28947" lon="2.74193">
        <ele>384.6</ele>
        <time>2019-11-01T12:14:55Z</time>
      </trkpt>
      <trkpt lat="46.28952" lon="2.74186">
        <ele>384.6</ele>
        <time>2019-11-01T12:14:56Z</time>
      </trkpt>
      <trkpt lat="46.28958" lon="2.74179">
        <ele>384.6</ele>
        <time>2019-11-01T12:14:57Z</time>
      </trkpt>
      <trkpt lat="46.28963" lon="2.74173">
        <ele>384.6</ele>
        <time>2019-11-01T12:14:58Z</time>
      </trkpt>
      <trkpt lat="46.28968" lon="2.74167">
        <ele>384.5</ele>
        <time>2019-11-01T12:14:59Z</time>
      </trkpt>
      <trkpt lat="46.28974" lon="2.74162">
        <ele>384.5</ele>
        <time>2019-11-01T12:15:00Z</time>
      </trkpt>
      <trkpt lat="46.28979" lon="2.74155">
        <ele>384.4</ele>
        <time>2019-11-01T12:15:01Z</time>
      </trkpt>
      <trkpt lat="46.28984" lon="2.74149">
        <ele>384.3</ele>
        <time>2019-11-01T12:15:02Z</time>
      </trkpt>
      <trkpt lat="46.28989" lon="2.74142">
        <ele>384.1</ele>
        <time>2019-11-01T12:15:03Z</time>
      </trkpt>
      <trkpt lat="46.28994" lon="2.74137">
        <ele>384.1</ele>
        <time>2019-11-01T12:15:04Z</time>
      </trkpt>
      <trkpt lat="46.29" lon="2.74131">
        <ele>384</ele>
        <time>2019-11-01T12:15:05Z</time>
      </trkpt>
      <trkpt lat="46.29005" lon="2.74125">
        <ele>383.9</ele>
        <time>2019-11-01T12:15:06Z</time>
      </trkpt>
      <trkpt lat="46.29011" lon="2.7412">
        <ele>383.8</ele>
        <time>2019-11-01T12:15:07Z</time>
      </trkpt>
      <trkpt lat="46.29017" lon="2.74115">
        <ele>383.7</ele>
        <time>2019-11-01T12:15:08Z</time>
      </trkpt>
      <trkpt lat="46.29023" lon="2.74112">
        <ele>383.6</ele>
        <time>2019-11-01T12:15:09Z</time>
      </trkpt>
      <trkpt lat="46.29029" lon="2.74109">
        <ele>383.5</ele>
        <time>2019-11-01T12:15:10Z</time>
      </trkpt>
      <trkpt lat="46.29035" lon="2.74108">
        <ele>383.4</ele>
        <time>2019-11-01T12:15:11Z</time>
      </trkpt>
      <trkpt lat="46.29042" lon="2.74107">
        <ele>383.2</ele>
        <time>2019-11-01T12:15:12Z</time>
      </trkpt>
      <trkpt lat="46.29049" lon="2.74105">
        <ele>383.1</ele>
        <time>2019-11-01T12:15:13Z</time>
      </trkpt>
      <trkpt lat="46.29055" lon="2.74104">
        <ele>383</ele>
        <time>2019-11-01T12:15:14Z</time>
      </trkpt>
      <trkpt lat="46.29062" lon="2.74102">
        <ele>382.9</ele>
        <time>2019-11-01T12:15:15Z</time>
      </trkpt>
      <trkpt lat="46.29069" lon="2.74101">
        <ele>382.6</ele>
        <time>2019-11-01T12:15:16Z</time>
      </trkpt>
      <trkpt lat="46.29076" lon="2.74099">
        <ele>382.3</ele>
        <time>2019-11-01T12:15:17Z</time>
      </trkpt>
      <trkpt lat="46.29083" lon="2.74096">
        <ele>382.1</ele>
        <time>2019-11-01T12:15:18Z</time>
      </trkpt>
      <trkpt lat="46.29089" lon="2.74095">
        <ele>382</ele>
        <time>2019-11-01T12:15:19Z</time>
      </trkpt>
      <trkpt lat="46.29099" lon="2.74093">
        <ele>381.8</ele>
        <time>2019-11-01T12:15:20Z</time>
      </trkpt>
      <trkpt lat="46.29106" lon="2.74091">
        <ele>381.7</ele>
        <time>2019-11-01T12:15:21Z</time>
      </trkpt>
      <trkpt lat="46.29114" lon="2.74089">
        <ele>381.6</ele>
        <time>2019-11-01T12:15:22Z</time>
      </trkpt>
      <trkpt lat="46.29121" lon="2.74087">
        <ele>381.5</ele>
        <time>2019-11-01T12:15:23Z</time>
      </trkpt>
      <trkpt lat="46.29129" lon="2.74085">
        <ele>381.4</ele>
        <time>2019-11-01T12:15:24Z</time>
      </trkpt>
      <trkpt lat="46.29137" lon="2.74084">
        <ele>381.2</ele>
        <time>2019-11-01T12:15:25Z</time>
      </trkpt>
      <trkpt lat="46.29144" lon="2.74081">
        <ele>381.1</ele>
        <time>2019-11-01T12:15:26Z</time>
      </trkpt>
      <trkpt lat="46.29152" lon="2.7408">
        <ele>380.9</ele>
        <time>2019-11-01T12:15:27Z</time>
      </trkpt>
      <trkpt lat="46.2916" lon="2.74078">
        <ele>380.8</ele>
        <time>2019-11-01T12:15:28Z</time>
      </trkpt>
      <trkpt lat="46.29168" lon="2.74075">
        <ele>380.7</ele>
        <time>2019-11-01T12:15:29Z</time>
      </trkpt>
      <trkpt lat="46.29176" lon="2.74073">
        <ele>380.5</ele>
        <time>2019-11-01T12:15:30Z</time>
      </trkpt>
      <trkpt lat="46.29184" lon="2.74071">
        <ele>380.4</ele>
        <time>2019-11-01T12:15:31Z</time>
      </trkpt>
      <trkpt lat="46.29192" lon="2.74069">
        <ele>380.2</ele>
        <time>2019-11-01T12:15:32Z</time>
      </trkpt>
      <trkpt lat="46.292" lon="2.74067">
        <ele>380.1</ele>
        <time>2019-11-01T12:15:33Z</time>
      </trkpt>
      <trkpt lat="46.29208" lon="2.74064">
        <ele>379.9</ele>
        <time>2019-11-01T12:15:34Z</time>
      </trkpt>
      <trkpt lat="46.29215" lon="2.7406">
        <ele>379.7</ele>
        <time>2019-11-01T12:15:35Z</time>
      </trkpt>
      <trkpt lat="46.29223" lon="2.74056">
        <ele>379.6</ele>
        <time>2019-11-01T12:15:36Z</time>
      </trkpt>
      <trkpt lat="46.2923" lon="2.74051">
        <ele>379.4</ele>
        <time>2019-11-01T12:15:37Z</time>
      </trkpt>
      <trkpt lat="46.29238" lon="2.74046">
        <ele>379</ele>
        <time>2019-11-01T12:15:38Z</time>
      </trkpt>
      <trkpt lat="46.29245" lon="2.7404">
        <ele>378.7</ele>
        <time>2019-11-01T12:15:39Z</time>
      </trkpt>
      <trkpt lat="46.29253" lon="2.74034">
        <ele>378.3</ele>
        <time>2019-11-01T12:15:40Z</time>
      </trkpt>
      <trkpt lat="46.29261" lon="2.74028">
        <ele>377.9</ele>
        <time>2019-11-01T12:15:41Z</time>
      </trkpt>
      <trkpt lat="46.29269" lon="2.74023">
        <ele>377.7</ele>
        <time>2019-11-01T12:15:42Z</time>
      </trkpt>
      <trkpt lat="46.29277" lon="2.74017">
        <ele>377.5</ele>
        <time>2019-11-01T12:15:43Z</time>
      </trkpt>
      <trkpt lat="46.29283" lon="2.74013">
        <ele>377.4</ele>
        <time>2019-11-01T12:15:44Z</time>
      </trkpt>
      <trkpt lat="46.2929" lon="2.74007">
        <ele>377.2</ele>
        <time>2019-11-01T12:15:45Z</time>
      </trkpt>
      <trkpt lat="46.29298" lon="2.74001">
        <ele>377</ele>
        <time>2019-11-01T12:15:46Z</time>
      </trkpt>
      <trkpt lat="46.29305" lon="2.73996">
        <ele>376.9</ele>
        <time>2019-11-01T12:15:47Z</time>
      </trkpt>
      <trkpt lat="46.29312" lon="2.73991">
        <ele>376.9</ele>
        <time>2019-11-01T12:15:48Z</time>
      </trkpt>
      <trkpt lat="46.2932" lon="2.73987">
        <ele>376.8</ele>
        <time>2019-11-01T12:15:49Z</time>
      </trkpt>
      <trkpt lat="46.29327" lon="2.73983">
        <ele>376.7</ele>
        <time>2019-11-01T12:15:50Z</time>
      </trkpt>
      <trkpt lat="46.29335" lon="2.73979">
        <ele>376.7</ele>
        <time>2019-11-01T12:15:51Z</time>
      </trkpt>
      <trkpt lat="46.29342" lon="2.73973">
        <ele>375.9</ele>
        <time>2019-11-01T12:15:52Z</time>
      </trkpt>
      <trkpt lat="46.29349" lon="2.73966">
        <ele>375.5</ele>
        <time>2019-11-01T12:15:53Z</time>
      </trkpt>
      <trkpt lat="46.29356" lon="2.7396">
        <ele>375.3</ele>
        <time>2019-11-01T12:15:54Z</time>
      </trkpt>
      <trkpt lat="46.29363" lon="2.73954">
        <ele>375</ele>
        <time>2019-11-01T12:15:55Z</time>
      </trkpt>
      <trkpt lat="46.29368" lon="2.73949">
        <ele>374.9</ele>
        <time>2019-11-01T12:15:56Z</time>
      </trkpt>
      <trkpt lat="46.29376" lon="2.73943">
        <ele>374.6</ele>
        <time>2019-11-01T12:15:57Z</time>
      </trkpt>
      <trkpt lat="46.29383" lon="2.73937">
        <ele>374.4</ele>
        <time>2019-11-01T12:15:58Z</time>
      </trkpt>
      <trkpt lat="46.2939" lon="2.73931">
        <ele>374.2</ele>
        <time>2019-11-01T12:15:59Z</time>
      </trkpt>
      <trkpt lat="46.29398" lon="2.73926">
        <ele>374</ele>
        <time>2019-11-01T12:16:00Z</time>
      </trkpt>
      <trkpt lat="46.29406" lon="2.7392">
        <ele>373.9</ele>
        <time>2019-11-01T12:16:01Z</time>
      </trkpt>
      <trkpt lat="46.29413" lon="2.73915">
        <ele>373.7</ele>
        <time>2019-11-01T12:16:02Z</time>
      </trkpt>
      <trkpt lat="46.29421" lon="2.73909">
        <ele>373</ele>
        <time>2019-11-01T12:16:03Z</time>
      </trkpt>
      <trkpt lat="46.29429" lon="2.73903">
        <ele>372.7</ele>
        <time>2019-11-01T12:16:04Z</time>
      </trkpt>
      <trkpt lat="46.29437" lon="2.73898">
        <ele>372.4</ele>
        <time>2019-11-01T12:16:05Z</time>
      </trkpt>
      <trkpt lat="46.29447" lon="2.73891">
        <ele>372</ele>
        <time>2019-11-01T12:16:06Z</time>
      </trkpt>
      <trkpt lat="46.29456" lon="2.73884">
        <ele>371.4</ele>
        <time>2019-11-01T12:16:07Z</time>
      </trkpt>
      <trkpt lat="46.29465" lon="2.73877">
        <ele>370.8</ele>
        <time>2019-11-01T12:16:08Z</time>
      </trkpt>
      <trkpt lat="46.29474" lon="2.7387">
        <ele>370.3</ele>
        <time>2019-11-01T12:16:09Z</time>
      </trkpt>
      <trkpt lat="46.29483" lon="2.73862">
        <ele>369.9</ele>
        <time>2019-11-01T12:16:10Z</time>
      </trkpt>
      <trkpt lat="46.29493" lon="2.73854">
        <ele>369.7</ele>
        <time>2019-11-01T12:16:11Z</time>
      </trkpt>
      <trkpt lat="46.29503" lon="2.73845">
        <ele>369.8</ele>
        <time>2019-11-01T12:16:12Z</time>
      </trkpt>
      <trkpt lat="46.29513" lon="2.73836">
        <ele>370.1</ele>
        <time>2019-11-01T12:16:13Z</time>
      </trkpt>
      <trkpt lat="46.29523" lon="2.73828">
        <ele>369.4</ele>
        <time>2019-11-01T12:16:14Z</time>
      </trkpt>
      <trkpt lat="46.29532" lon="2.73817">
        <ele>368.7</ele>
        <time>2019-11-01T12:16:15Z</time>
      </trkpt>
      <trkpt lat="46.29541" lon="2.73806">
        <ele>368</ele>
        <time>2019-11-01T12:16:16Z</time>
      </trkpt>
      <trkpt lat="46.29549" lon="2.73798">
        <ele>367.6</ele>
        <time>2019-11-01T12:16:17Z</time>
      </trkpt>
      <trkpt lat="46.29561" lon="2.73787">
        <ele>367.3</ele>
        <time>2019-11-01T12:16:18Z</time>
      </trkpt>
      <trkpt lat="46.29569" lon="2.73778">
        <ele>367.1</ele>
        <time>2019-11-01T12:16:19Z</time>
      </trkpt>
      <trkpt lat="46.29576" lon="2.73771">
        <ele>367</ele>
        <time>2019-11-01T12:16:20Z</time>
      </trkpt>
      <trkpt lat="46.29583" lon="2.73762">
        <ele>366.9</ele>
        <time>2019-11-01T12:16:21Z</time>
      </trkpt>
      <trkpt lat="46.29591" lon="2.73754">
        <ele>367.1</ele>
        <time>2019-11-01T12:16:22Z</time>
      </trkpt>
      <trkpt lat="46.29599" lon="2.73746">
        <ele>367.3</ele>
        <time>2019-11-01T12:16:23Z</time>
      </trkpt>
      <trkpt lat="46.29606" lon="2.7374">
        <ele>367.5</ele>
        <time>2019-11-01T12:16:24Z</time>
      </trkpt>
      <trkpt lat="46.29613" lon="2.73735">
        <ele>367.7</ele>
        <time>2019-11-01T12:16:25Z</time>
      </trkpt>
      <trkpt lat="46.29619" lon="2.73732">
        <ele>368</ele>
        <time>2019-11-01T12:16:26Z</time>
      </trkpt>
      <trkpt lat="46.29626" lon="2.73729">
        <ele>368.2</ele>
        <time>2019-11-01T12:16:27Z</time>
      </trkpt>
      <trkpt lat="46.29634" lon="2.73725">
        <ele>368</ele>
        <time>2019-11-01T12:16:28Z</time>
      </trkpt>
      <trkpt lat="46.29638" lon="2.7372">
        <ele>367.8</ele>
        <time>2019-11-01T12:16:29Z</time>
      </trkpt>
      <trkpt lat="46.29643" lon="2.73714">
        <ele>367.7</ele>
        <time>2019-11-01T12:16:30Z</time>
      </trkpt>
      <trkpt lat="46.29648" lon="2.73708">
        <ele>367.5</ele>
        <time>2019-11-01T12:16:31Z</time>
      </trkpt>
      <trkpt lat="46.29654" lon="2.73702">
        <ele>367.3</ele>
        <time>2019-11-01T12:16:32Z</time>
      </trkpt>
      <trkpt lat="46.29661" lon="2.73697">
        <ele>367.1</ele>
        <time>2019-11-01T12:16:33Z</time>
      </trkpt>
      <trkpt lat="46.29667" lon="2.73692">
        <ele>367</ele>
        <time>2019-11-01T12:16:34Z</time>
      </trkpt>
      <trkpt lat="46.29673" lon="2.73687">
        <ele>366.8</ele>
        <time>2019-11-01T12:16:35Z</time>
      </trkpt>
      <trkpt lat="46.2968" lon="2.7368">
        <ele>366.6</ele>
        <time>2019-11-01T12:16:36Z</time>
      </trkpt>
      <trkpt lat="46.29685" lon="2.73675">
        <ele>366.5</ele>
        <time>2019-11-01T12:16:37Z</time>
      </trkpt>
      <trkpt lat="46.29691" lon="2.73669">
        <ele>366.3</ele>
        <time>2019-11-01T12:16:38Z</time>
      </trkpt>
      <trkpt lat="46.29698" lon="2.73663">
        <ele>366.2</ele>
        <time>2019-11-01T12:16:39Z</time>
      </trkpt>
      <trkpt lat="46.29704" lon="2.73658">
        <ele>366.1</ele>
        <time>2019-11-01T12:16:40Z</time>
      </trkpt>
      <trkpt lat="46.29711" lon="2.73652">
        <ele>366</ele>
        <time>2019-11-01T12:16:41Z</time>
      </trkpt>
      <trkpt lat="46.29719" lon="2.73645">
        <ele>365.9</ele>
        <time>2019-11-01T12:16:42Z</time>
      </trkpt>
      <trkpt lat="46.29726" lon="2.73639">
        <ele>365.8</ele>
        <time>2019-11-01T12:16:43Z</time>
      </trkpt>
      <trkpt lat="46.29732" lon="2.73633">
        <ele>365.6</ele>
        <time>2019-11-01T12:16:44Z</time>
      </trkpt>
      <trkpt lat="46.29738" lon="2.73627">
        <ele>365.5</ele>
        <time>2019-11-01T12:16:45Z</time>
      </trkpt>
      <trkpt lat="46.29745" lon="2.73621">
        <ele>365.4</ele>
        <time>2019-11-01T12:16:46Z</time>
      </trkpt>
      <trkpt lat="46.29752" lon="2.73615">
        <ele>365.2</ele>
        <time>2019-11-01T12:16:47Z</time>
      </trkpt>
      <trkpt lat="46.29759" lon="2.73609">
        <ele>365.1</ele>
        <time>2019-11-01T12:16:48Z</time>
      </trkpt>
      <trkpt lat="46.29765" lon="2.73602">
        <ele>365</ele>
        <time>2019-11-01T12:16:49Z</time>
      </trkpt>
      <trkpt lat="46.29772" lon="2.73596">
        <ele>364.9</ele>
        <time>2019-11-01T12:16:50Z</time>
      </trkpt>
      <trkpt lat="46.29778" lon="2.7359">
        <ele>364.8</ele>
        <time>2019-11-01T12:16:51Z</time>
      </trkpt>
      <trkpt lat="46.29785" lon="2.73585">
        <ele>364.7</ele>
        <time>2019-11-01T12:16:52Z</time>
      </trkpt>
      <trkpt lat="46.29792" lon="2.73579">
        <ele>364.6</ele>
        <time>2019-11-01T12:16:53Z</time>
      </trkpt>
      <trkpt lat="46.29799" lon="2.73573">
        <ele>364.5</ele>
        <time>2019-11-01T12:16:54Z</time>
      </trkpt>
      <trkpt lat="46.29805" lon="2.73566">
        <ele>364.3</ele>
        <time>2019-11-01T12:16:55Z</time>
      </trkpt>
      <trkpt lat="46.29812" lon="2.7356">
        <ele>364.2</ele>
        <time>2019-11-01T12:16:56Z</time>
      </trkpt>
      <trkpt lat="46.29819" lon="2.73554">
        <ele>364.1</ele>
        <time>2019-11-01T12:16:57Z</time>
      </trkpt>
      <trkpt lat="46.29826" lon="2.73548">
        <ele>364</ele>
        <time>2019-11-01T12:16:58Z</time>
      </trkpt>
      <trkpt lat="46.29832" lon="2.73543">
        <ele>364</ele>
        <time>2019-11-01T12:16:59Z</time>
      </trkpt>
      <trkpt lat="46.29839" lon="2.73537">
        <ele>363.9</ele>
        <time>2019-11-01T12:17:00Z</time>
      </trkpt>
      <trkpt lat="46.29846" lon="2.73531">
        <ele>363.9</ele>
        <time>2019-11-01T12:17:01Z</time>
      </trkpt>
      <trkpt lat="46.29853" lon="2.73525">
        <ele>363.9</ele>
        <time>2019-11-01T12:17:02Z</time>
      </trkpt>
      <trkpt lat="46.2986" lon="2.73519">
        <ele>363.9</ele>
        <time>2019-11-01T12:17:03Z</time>
      </trkpt>
      <trkpt lat="46.29867" lon="2.73513">
        <ele>363.9</ele>
        <time>2019-11-01T12:17:04Z</time>
      </trkpt>
      <trkpt lat="46.29873" lon="2.73507">
        <ele>363.9</ele>
        <time>2019-11-01T12:17:05Z</time>
      </trkpt>
      <trkpt lat="46.2988" lon="2.73501">
        <ele>363.9</ele>
        <time>2019-11-01T12:17:06Z</time>
      </trkpt>
      <trkpt lat="46.29887" lon="2.73495">
        <ele>363.8</ele>
        <time>2019-11-01T12:17:07Z</time>
      </trkpt>
      <trkpt lat="46.29894" lon="2.73489">
        <ele>363.8</ele>
        <time>2019-11-01T12:17:08Z</time>
      </trkpt>
      <trkpt lat="46.299" lon="2.73483">
        <ele>363.8</ele>
        <time>2019-11-01T12:17:09Z</time>
      </trkpt>
      <trkpt lat="46.29907" lon="2.73477">
        <ele>363.8</ele>
        <time>2019-11-01T12:17:10Z</time>
      </trkpt>
      <trkpt lat="46.29913" lon="2.73471">
        <ele>363.8</ele>
        <time>2019-11-01T12:17:11Z</time>
      </trkpt>
      <trkpt lat="46.2992" lon="2.73465">
        <ele>363.8</ele>
        <time>2019-11-01T12:17:12Z</time>
      </trkpt>
      <trkpt lat="46.29926" lon="2.73459">
        <ele>363.7</ele>
        <time>2019-11-01T12:17:13Z</time>
      </trkpt>
      <trkpt lat="46.29933" lon="2.73452">
        <ele>363.6</ele>
        <time>2019-11-01T12:17:14Z</time>
      </trkpt>
      <trkpt lat="46.29939" lon="2.73446">
        <ele>363.5</ele>
        <time>2019-11-01T12:17:15Z</time>
      </trkpt>
      <trkpt lat="46.29945" lon="2.7344">
        <ele>363.4</ele>
        <time>2019-11-01T12:17:16Z</time>
      </trkpt>
      <trkpt lat="46.29952" lon="2.73434">
        <ele>363.2</ele>
        <time>2019-11-01T12:17:17Z</time>
      </trkpt>
      <trkpt lat="46.29958" lon="2.73429">
        <ele>363.1</ele>
        <time>2019-11-01T12:17:18Z</time>
      </trkpt>
      <trkpt lat="46.29964" lon="2.73423">
        <ele>363</ele>
        <time>2019-11-01T12:17:19Z</time>
      </trkpt>
      <trkpt lat="46.29969" lon="2.73417">
        <ele>363</ele>
        <time>2019-11-01T12:17:20Z</time>
      </trkpt>
      <trkpt lat="46.29975" lon="2.73412">
        <ele>362.9</ele>
        <time>2019-11-01T12:17:21Z</time>
      </trkpt>
      <trkpt lat="46.29979" lon="2.73408">
        <ele>362.9</ele>
        <time>2019-11-01T12:17:22Z</time>
      </trkpt>
      <trkpt lat="46.29984" lon="2.73405">
        <ele>362.9</ele>
        <time>2019-11-01T12:17:23Z</time>
      </trkpt>
      <trkpt lat="46.29989" lon="2.73404">
        <ele>362.6</ele>
        <time>2019-11-01T12:17:24Z</time>
      </trkpt>
      <trkpt lat="46.29994" lon="2.73407">
        <ele>362.5</ele>
        <time>2019-11-01T12:17:25Z</time>
      </trkpt>
      <trkpt lat="46.29997" lon="2.73412">
        <ele>362.3</ele>
        <time>2019-11-01T12:17:26Z</time>
      </trkpt>
      <trkpt lat="46.3" lon="2.7342">
        <ele>362</ele>
        <time>2019-11-01T12:17:27Z</time>
      </trkpt>
      <trkpt lat="46.30002" lon="2.73431">
        <ele>361.6</ele>
        <time>2019-11-01T12:17:28Z</time>
      </trkpt>
      <trkpt lat="46.30003" lon="2.73442">
        <ele>361.3</ele>
        <time>2019-11-01T12:17:29Z</time>
      </trkpt>
      <trkpt lat="46.30003" lon="2.73453">
        <ele>361</ele>
        <time>2019-11-01T12:17:30Z</time>
      </trkpt>
      <trkpt lat="46.30003" lon="2.73465">
        <ele>360.8</ele>
        <time>2019-11-01T12:17:31Z</time>
      </trkpt>
      <trkpt lat="46.30003" lon="2.73478">
        <ele>360.7</ele>
        <time>2019-11-01T12:17:32Z</time>
      </trkpt>
      <trkpt lat="46.30004" lon="2.7349">
        <ele>360.6</ele>
        <time>2019-11-01T12:17:33Z</time>
      </trkpt>
      <trkpt lat="46.30004" lon="2.73503">
        <ele>360.6</ele>
        <time>2019-11-01T12:17:34Z</time>
      </trkpt>
      <trkpt lat="46.30004" lon="2.73516">
        <ele>360.5</ele>
        <time>2019-11-01T12:17:35Z</time>
      </trkpt>
      <trkpt lat="46.30005" lon="2.73529">
        <ele>360.4</ele>
        <time>2019-11-01T12:17:36Z</time>
      </trkpt>
      <trkpt lat="46.30005" lon="2.73542">
        <ele>360.2</ele>
        <time>2019-11-01T12:17:37Z</time>
      </trkpt>
      <trkpt lat="46.30005" lon="2.73555">
        <ele>360</ele>
        <time>2019-11-01T12:17:38Z</time>
      </trkpt>
      <trkpt lat="46.30006" lon="2.73567">
        <ele>359.8</ele>
        <time>2019-11-01T12:17:39Z</time>
      </trkpt>
      <trkpt lat="46.30006" lon="2.7358">
        <ele>359.5</ele>
        <time>2019-11-01T12:17:40Z</time>
      </trkpt>
      <trkpt lat="46.30006" lon="2.73592">
        <ele>359.3</ele>
        <time>2019-11-01T12:17:41Z</time>
      </trkpt>
      <trkpt lat="46.30007" lon="2.73605">
        <ele>359.1</ele>
        <time>2019-11-01T12:17:42Z</time>
      </trkpt>
      <trkpt lat="46.30007" lon="2.73617">
        <ele>358.9</ele>
        <time>2019-11-01T12:17:43Z</time>
      </trkpt>
      <trkpt lat="46.30008" lon="2.7363">
        <ele>358.6</ele>
        <time>2019-11-01T12:17:44Z</time>
      </trkpt>
      <trkpt lat="46.30008" lon="2.73643">
        <ele>358.4</ele>
        <time>2019-11-01T12:17:45Z</time>
      </trkpt>
      <trkpt lat="46.30008" lon="2.73656">
        <ele>358.3</ele>
        <time>2019-11-01T12:17:46Z</time>
      </trkpt>
      <trkpt lat="46.30009" lon="2.73668">
        <ele>358.1</ele>
        <time>2019-11-01T12:17:47Z</time>
      </trkpt>
      <trkpt lat="46.30009" lon="2.73681">
        <ele>357.9</ele>
        <time>2019-11-01T12:17:48Z</time>
      </trkpt>
      <trkpt lat="46.3001" lon="2.73693">
        <ele>357.8</ele>
        <time>2019-11-01T12:17:49Z</time>
      </trkpt>
      <trkpt lat="46.30011" lon="2.73706">
        <ele>357.6</ele>
        <time>2019-11-01T12:17:50Z</time>
      </trkpt>
      <trkpt lat="46.30011" lon="2.73715">
        <ele>357.6</ele>
        <time>2019-11-01T12:17:51Z</time>
      </trkpt>
      <trkpt lat="46.30012" lon="2.73728">
        <ele>357.5</ele>
        <time>2019-11-01T12:17:52Z</time>
      </trkpt>
      <trkpt lat="46.30012" lon="2.73742">
        <ele>357.5</ele>
        <time>2019-11-01T12:17:53Z</time>
      </trkpt>
      <trkpt lat="46.30013" lon="2.73754">
        <ele>357.5</ele>
        <time>2019-11-01T12:17:54Z</time>
      </trkpt>
      <trkpt lat="46.30014" lon="2.73766">
        <ele>357.5</ele>
        <time>2019-11-01T12:17:55Z</time>
      </trkpt>
      <trkpt lat="46.30014" lon="2.73776">
        <ele>357.5</ele>
        <time>2019-11-01T12:17:56Z</time>
      </trkpt>
      <trkpt lat="46.30015" lon="2.73787">
        <ele>357.6</ele>
        <time>2019-11-01T12:17:57Z</time>
      </trkpt>
      <trkpt lat="46.30016" lon="2.73801">
        <ele>357.8</ele>
        <time>2019-11-01T12:17:58Z</time>
      </trkpt>
      <trkpt lat="46.30017" lon="2.73813">
        <ele>357.8</ele>
        <time>2019-11-01T12:17:59Z</time>
      </trkpt>
      <trkpt lat="46.30017" lon="2.73824">
        <ele>357.8</ele>
        <time>2019-11-01T12:18:00Z</time>
      </trkpt>
      <trkpt lat="46.30018" lon="2.73833">
        <ele>357.8</ele>
        <time>2019-11-01T12:18:01Z</time>
      </trkpt>
      <trkpt lat="46.30018" lon="2.73845">
        <ele>357.8</ele>
        <time>2019-11-01T12:18:02Z</time>
      </trkpt>
      <trkpt lat="46.30019" lon="2.73858">
        <ele>357.9</ele>
        <time>2019-11-01T12:18:03Z</time>
      </trkpt>
      <trkpt lat="46.30019" lon="2.73869">
        <ele>357.9</ele>
        <time>2019-11-01T12:18:04Z</time>
      </trkpt>
      <trkpt lat="46.30019" lon="2.7388">
        <ele>358</ele>
        <time>2019-11-01T12:18:05Z</time>
      </trkpt>
      <trkpt lat="46.3002" lon="2.73889">
        <ele>358.1</ele>
        <time>2019-11-01T12:18:06Z</time>
      </trkpt>
      <trkpt lat="46.3002" lon="2.739">
        <ele>358.2</ele>
        <time>2019-11-01T12:18:07Z</time>
      </trkpt>
      <trkpt lat="46.30021" lon="2.73911">
        <ele>358.3</ele>
        <time>2019-11-01T12:18:08Z</time>
      </trkpt>
      <trkpt lat="46.30021" lon="2.73921">
        <ele>358.4</ele>
        <time>2019-11-01T12:18:09Z</time>
      </trkpt>
      <trkpt lat="46.30022" lon="2.73932">
        <ele>358.5</ele>
        <time>2019-11-01T12:18:10Z</time>
      </trkpt>
      <trkpt lat="46.30022" lon="2.73942">
        <ele>358.7</ele>
        <time>2019-11-01T12:18:11Z</time>
      </trkpt>
      <trkpt lat="46.30023" lon="2.73953">
        <ele>358.7</ele>
        <time>2019-11-01T12:18:12Z</time>
      </trkpt>
      <trkpt lat="46.30024" lon="2.73965">
        <ele>358.8</ele>
        <time>2019-11-01T12:18:13Z</time>
      </trkpt>
      <trkpt lat="46.30025" lon="2.73976">
        <ele>358.8</ele>
        <time>2019-11-01T12:18:14Z</time>
      </trkpt>
      <trkpt lat="46.30027" lon="2.73986">
        <ele>358.8</ele>
        <time>2019-11-01T12:18:15Z</time>
      </trkpt>
      <trkpt lat="46.30028" lon="2.73994">
        <ele>358.8</ele>
        <time>2019-11-01T12:18:16Z</time>
      </trkpt>
      <trkpt lat="46.3003" lon="2.74007">
        <ele>358.7</ele>
        <time>2019-11-01T12:18:17Z</time>
      </trkpt>
      <trkpt lat="46.30032" lon="2.74017">
        <ele>358.9</ele>
        <time>2019-11-01T12:18:18Z</time>
      </trkpt>
      <trkpt lat="46.30034" lon="2.74027">
        <ele>359</ele>
        <time>2019-11-01T12:18:19Z</time>
      </trkpt>
      <trkpt lat="46.30037" lon="2.74037">
        <ele>359.1</ele>
        <time>2019-11-01T12:18:20Z</time>
      </trkpt>
      <trkpt lat="46.30039" lon="2.74045">
        <ele>359</ele>
        <time>2019-11-01T12:18:21Z</time>
      </trkpt>
      <trkpt lat="46.30041" lon="2.74054">
        <ele>359</ele>
        <time>2019-11-01T12:18:22Z</time>
      </trkpt>
      <trkpt lat="46.30044" lon="2.74066">
        <ele>358.9</ele>
        <time>2019-11-01T12:18:23Z</time>
      </trkpt>
      <trkpt lat="46.30047" lon="2.74075">
        <ele>358.9</ele>
        <time>2019-11-01T12:18:24Z</time>
      </trkpt>
      <trkpt lat="46.30049" lon="2.74085">
        <ele>358.9</ele>
        <time>2019-11-01T12:18:25Z</time>
      </trkpt>
      <trkpt lat="46.30051" lon="2.74095">
        <ele>359</ele>
        <time>2019-11-01T12:18:26Z</time>
      </trkpt>
      <trkpt lat="46.30053" lon="2.74102">
        <ele>359</ele>
        <time>2019-11-01T12:18:27Z</time>
      </trkpt>
      <trkpt lat="46.30055" lon="2.74113">
        <ele>359</ele>
        <time>2019-11-01T12:18:28Z</time>
      </trkpt>
      <trkpt lat="46.30057" lon="2.74122">
        <ele>359.1</ele>
        <time>2019-11-01T12:18:29Z</time>
      </trkpt>
      <trkpt lat="46.30058" lon="2.74131">
        <ele>359.1</ele>
        <time>2019-11-01T12:18:30Z</time>
      </trkpt>
      <trkpt lat="46.3006" lon="2.74139">
        <ele>359.1</ele>
        <time>2019-11-01T12:18:31Z</time>
      </trkpt>
      <trkpt lat="46.30062" lon="2.74147">
        <ele>359.1</ele>
        <time>2019-11-01T12:18:32Z</time>
      </trkpt>
      <trkpt lat="46.30064" lon="2.74157">
        <ele>359.7</ele>
        <time>2019-11-01T12:18:33Z</time>
      </trkpt>
      <trkpt lat="46.30066" lon="2.74165">
        <ele>360</ele>
        <time>2019-11-01T12:18:34Z</time>
      </trkpt>
      <trkpt lat="46.30068" lon="2.74173">
        <ele>360.2</ele>
        <time>2019-11-01T12:18:35Z</time>
      </trkpt>
      <trkpt lat="46.30069" lon="2.7418">
        <ele>360.4</ele>
        <time>2019-11-01T12:18:36Z</time>
      </trkpt>
      <trkpt lat="46.30071" lon="2.74188">
        <ele>360.6</ele>
        <time>2019-11-01T12:18:37Z</time>
      </trkpt>
      <trkpt lat="46.30072" lon="2.74198">
        <ele>360.9</ele>
        <time>2019-11-01T12:18:38Z</time>
      </trkpt>
      <trkpt lat="46.30073" lon="2.74205">
        <ele>361.1</ele>
        <time>2019-11-01T12:18:39Z</time>
      </trkpt>
      <trkpt lat="46.30074" lon="2.74214">
        <ele>361.2</ele>
        <time>2019-11-01T12:18:40Z</time>
      </trkpt>
      <trkpt lat="46.30076" lon="2.74223">
        <ele>361.4</ele>
        <time>2019-11-01T12:18:41Z</time>
      </trkpt>
      <trkpt lat="46.30077" lon="2.74231">
        <ele>361.5</ele>
        <time>2019-11-01T12:18:42Z</time>
      </trkpt>
      <trkpt lat="46.30078" lon="2.7424">
        <ele>361.6</ele>
        <time>2019-11-01T12:18:43Z</time>
      </trkpt>
      <trkpt lat="46.3008" lon="2.74251">
        <ele>361.7</ele>
        <time>2019-11-01T12:18:44Z</time>
      </trkpt>
      <trkpt lat="46.30082" lon="2.74259">
        <ele>361.8</ele>
        <time>2019-11-01T12:18:45Z</time>
      </trkpt>
      <trkpt lat="46.30083" lon="2.74268">
        <ele>362</ele>
        <time>2019-11-01T12:18:46Z</time>
      </trkpt>
      <trkpt lat="46.30084" lon="2.74275">
        <ele>362.1</ele>
        <time>2019-11-01T12:18:47Z</time>
      </trkpt>
      <trkpt lat="46.30086" lon="2.74284">
        <ele>362.2</ele>
        <time>2019-11-01T12:18:48Z</time>
      </trkpt>
      <trkpt lat="46.30087" lon="2.74294">
        <ele>362.3</ele>
        <time>2019-11-01T12:18:49Z</time>
      </trkpt>
      <trkpt lat="46.30089" lon="2.74302">
        <ele>362.4</ele>
        <time>2019-11-01T12:18:50Z</time>
      </trkpt>
      <trkpt lat="46.3009" lon="2.74311">
        <ele>362.5</ele>
        <time>2019-11-01T12:18:51Z</time>
      </trkpt>
      <trkpt lat="46.30091" lon="2.74318">
        <ele>362.5</ele>
        <time>2019-11-01T12:18:52Z</time>
      </trkpt>
      <trkpt lat="46.30092" lon="2.74326">
        <ele>362.6</ele>
        <time>2019-11-01T12:18:53Z</time>
      </trkpt>
      <trkpt lat="46.30094" lon="2.74336">
        <ele>362.7</ele>
        <time>2019-11-01T12:18:54Z</time>
      </trkpt>
      <trkpt lat="46.30095" lon="2.74345">
        <ele>362.8</ele>
        <time>2019-11-01T12:18:55Z</time>
      </trkpt>
      <trkpt lat="46.30096" lon="2.74353">
        <ele>363</ele>
        <time>2019-11-01T12:18:56Z</time>
      </trkpt>
      <trkpt lat="46.30097" lon="2.7436">
        <ele>363.2</ele>
        <time>2019-11-01T12:18:57Z</time>
      </trkpt>
      <trkpt lat="46.30098" lon="2.74368">
        <ele>363.3</ele>
        <time>2019-11-01T12:18:58Z</time>
      </trkpt>
      <trkpt lat="46.301" lon="2.74378">
        <ele>363.5</ele>
        <time>2019-11-01T12:18:59Z</time>
      </trkpt>
      <trkpt lat="46.30102" lon="2.74386">
        <ele>363.5</ele>
        <time>2019-11-01T12:19:00Z</time>
      </trkpt>
      <trkpt lat="46.30104" lon="2.74395">
        <ele>363.6</ele>
        <time>2019-11-01T12:19:01Z</time>
      </trkpt>
      <trkpt lat="46.30104" lon="2.74402">
        <ele>363.6</ele>
        <time>2019-11-01T12:19:02Z</time>
      </trkpt>
      <trkpt lat="46.30105" lon="2.74411">
        <ele>363.6</ele>
        <time>2019-11-01T12:19:03Z</time>
      </trkpt>
      <trkpt lat="46.30107" lon="2.74421">
        <ele>363.7</ele>
        <time>2019-11-01T12:19:04Z</time>
      </trkpt>
      <trkpt lat="46.30108" lon="2.7443">
        <ele>363.8</ele>
        <time>2019-11-01T12:19:05Z</time>
      </trkpt>
      <trkpt lat="46.30109" lon="2.74439">
        <ele>364</ele>
        <time>2019-11-01T12:19:06Z</time>
      </trkpt>
      <trkpt lat="46.30111" lon="2.74446">
        <ele>364.2</ele>
        <time>2019-11-01T12:19:07Z</time>
      </trkpt>
      <trkpt lat="46.30112" lon="2.74456">
        <ele>364.4</ele>
        <time>2019-11-01T12:19:08Z</time>
      </trkpt>
      <trkpt lat="46.30113" lon="2.74466">
        <ele>364.6</ele>
        <time>2019-11-01T12:19:09Z</time>
      </trkpt>
      <trkpt lat="46.30114" lon="2.74475">
        <ele>364.7</ele>
        <time>2019-11-01T12:19:10Z</time>
      </trkpt>
      <trkpt lat="46.30114" lon="2.74484">
        <ele>364.8</ele>
        <time>2019-11-01T12:19:11Z</time>
      </trkpt>
      <trkpt lat="46.30115" lon="2.74491">
        <ele>364.9</ele>
        <time>2019-11-01T12:19:12Z</time>
      </trkpt>
      <trkpt lat="46.30116" lon="2.745">
        <ele>365</ele>
        <time>2019-11-01T12:19:13Z</time>
      </trkpt>
      <trkpt lat="46.30118" lon="2.74511">
        <ele>365.3</ele>
        <time>2019-11-01T12:19:14Z</time>
      </trkpt>
      <trkpt lat="46.30118" lon="2.7452">
        <ele>365.4</ele>
        <time>2019-11-01T12:19:15Z</time>
      </trkpt>
      <trkpt lat="46.3012" lon="2.74528">
        <ele>365.5</ele>
        <time>2019-11-01T12:19:16Z</time>
      </trkpt>
      <trkpt lat="46.30121" lon="2.74535">
        <ele>365.6</ele>
        <time>2019-11-01T12:19:17Z</time>
      </trkpt>
      <trkpt lat="46.30122" lon="2.74543">
        <ele>365.7</ele>
        <time>2019-11-01T12:19:18Z</time>
      </trkpt>
      <trkpt lat="46.30123" lon="2.74554">
        <ele>365.7</ele>
        <time>2019-11-01T12:19:19Z</time>
      </trkpt>
      <trkpt lat="46.30123" lon="2.74562">
        <ele>365.7</ele>
        <time>2019-11-01T12:19:20Z</time>
      </trkpt>
      <trkpt lat="46.30124" lon="2.74571">
        <ele>365.7</ele>
        <time>2019-11-01T12:19:21Z</time>
      </trkpt>
      <trkpt lat="46.30124" lon="2.74577">
        <ele>365.7</ele>
        <time>2019-11-01T12:19:22Z</time>
      </trkpt>
      <trkpt lat="46.30124" lon="2.74586">
        <ele>365.6</ele>
        <time>2019-11-01T12:19:23Z</time>
      </trkpt>
      <trkpt lat="46.30125" lon="2.74596">
        <ele>365.5</ele>
        <time>2019-11-01T12:19:24Z</time>
      </trkpt>
      <trkpt lat="46.30125" lon="2.74604">
        <ele>365.4</ele>
        <time>2019-11-01T12:19:25Z</time>
      </trkpt>
      <trkpt lat="46.30125" lon="2.74613">
        <ele>365.3</ele>
        <time>2019-11-01T12:19:26Z</time>
      </trkpt>
      <trkpt lat="46.30125" lon="2.74621">
        <ele>365.1</ele>
        <time>2019-11-01T12:19:27Z</time>
      </trkpt>
      <trkpt lat="46.30125" lon="2.74627">
        <ele>364.8</ele>
        <time>2019-11-01T12:19:28Z</time>
      </trkpt>
      <trkpt lat="46.30127" lon="2.74635">
        <ele>364.7</ele>
        <time>2019-11-01T12:19:29Z</time>
      </trkpt>
      <trkpt lat="46.3013" lon="2.74641">
        <ele>364.6</ele>
        <time>2019-11-01T12:19:30Z</time>
      </trkpt>
      <trkpt lat="46.30134" lon="2.74645">
        <ele>364.6</ele>
        <time>2019-11-01T12:19:31Z</time>
      </trkpt>
      <trkpt lat="46.30138" lon="2.74648">
        <ele>364.5</ele>
        <time>2019-11-01T12:19:32Z</time>
      </trkpt>
      <trkpt lat="46.30144" lon="2.7465">
        <ele>364.4</ele>
        <time>2019-11-01T12:19:33Z</time>
      </trkpt>
      <trkpt lat="46.30151" lon="2.74652">
        <ele>364.3</ele>
        <time>2019-11-01T12:19:34Z</time>
      </trkpt>
      <trkpt lat="46.30157" lon="2.74655">
        <ele>364.2</ele>
        <time>2019-11-01T12:19:35Z</time>
      </trkpt>
      <trkpt lat="46.30164" lon="2.74657">
        <ele>364.2</ele>
        <time>2019-11-01T12:19:36Z</time>
      </trkpt>
      <trkpt lat="46.30169" lon="2.74659">
        <ele>364.2</ele>
        <time>2019-11-01T12:19:37Z</time>
      </trkpt>
      <trkpt lat="46.30176" lon="2.74662">
        <ele>364.1</ele>
        <time>2019-11-01T12:19:38Z</time>
      </trkpt>
      <trkpt lat="46.30184" lon="2.74664">
        <ele>364.1</ele>
        <time>2019-11-01T12:19:39Z</time>
      </trkpt>
      <trkpt lat="46.30192" lon="2.74668">
        <ele>364.1</ele>
        <time>2019-11-01T12:19:40Z</time>
      </trkpt>
      <trkpt lat="46.302" lon="2.74671">
        <ele>364.1</ele>
        <time>2019-11-01T12:19:41Z</time>
      </trkpt>
      <trkpt lat="46.30208" lon="2.74675">
        <ele>364.2</ele>
        <time>2019-11-01T12:19:42Z</time>
      </trkpt>
      <trkpt lat="46.30214" lon="2.74678">
        <ele>364.2</ele>
        <time>2019-11-01T12:19:43Z</time>
      </trkpt>
      <trkpt lat="46.30222" lon="2.74682">
        <ele>364.2</ele>
        <time>2019-11-01T12:19:44Z</time>
      </trkpt>
      <trkpt lat="46.30231" lon="2.74688">
        <ele>364.3</ele>
        <time>2019-11-01T12:19:45Z</time>
      </trkpt>
      <trkpt lat="46.30238" lon="2.74692">
        <ele>364.5</ele>
        <time>2019-11-01T12:19:46Z</time>
      </trkpt>
      <trkpt lat="46.30245" lon="2.74696">
        <ele>364.6</ele>
        <time>2019-11-01T12:19:47Z</time>
      </trkpt>
      <trkpt lat="46.30251" lon="2.74699">
        <ele>364.8</ele>
        <time>2019-11-01T12:19:48Z</time>
      </trkpt>
      <trkpt lat="46.30258" lon="2.74704">
        <ele>364.9</ele>
        <time>2019-11-01T12:19:49Z</time>
      </trkpt>
      <trkpt lat="46.30266" lon="2.74708">
        <ele>365.1</ele>
        <time>2019-11-01T12:19:50Z</time>
      </trkpt>
      <trkpt lat="46.30273" lon="2.74712">
        <ele>365.3</ele>
        <time>2019-11-01T12:19:51Z</time>
      </trkpt>
      <trkpt lat="46.30279" lon="2.74714">
        <ele>365.5</ele>
        <time>2019-11-01T12:19:52Z</time>
      </trkpt>
      <trkpt lat="46.30286" lon="2.74717">
        <ele>365.6</ele>
        <time>2019-11-01T12:19:53Z</time>
      </trkpt>
      <trkpt lat="46.30292" lon="2.7472">
        <ele>365.7</ele>
        <time>2019-11-01T12:19:54Z</time>
      </trkpt>
      <trkpt lat="46.303" lon="2.74723">
        <ele>365.8</ele>
        <time>2019-11-01T12:19:55Z</time>
      </trkpt>
      <trkpt lat="46.30306" lon="2.74727">
        <ele>365.9</ele>
        <time>2019-11-01T12:19:56Z</time>
      </trkpt>
      <trkpt lat="46.30311" lon="2.7473">
        <ele>366</ele>
        <time>2019-11-01T12:19:57Z</time>
      </trkpt>
      <trkpt lat="46.30316" lon="2.74732">
        <ele>366.1</ele>
        <time>2019-11-01T12:19:58Z</time>
      </trkpt>
      <trkpt lat="46.30322" lon="2.74736">
        <ele>366.6</ele>
        <time>2019-11-01T12:19:59Z</time>
      </trkpt>
      <trkpt lat="46.30328" lon="2.74741">
        <ele>366.8</ele>
        <time>2019-11-01T12:20:00Z</time>
      </trkpt>
      <trkpt lat="46.30332" lon="2.74746">
        <ele>366.9</ele>
        <time>2019-11-01T12:20:01Z</time>
      </trkpt>
      <trkpt lat="46.30336" lon="2.74752">
        <ele>367.3</ele>
        <time>2019-11-01T12:20:02Z</time>
      </trkpt>
      <trkpt lat="46.30339" lon="2.74756">
        <ele>367.6</ele>
        <time>2019-11-01T12:20:03Z</time>
      </trkpt>
      <trkpt lat="46.30344" lon="2.74761">
        <ele>368</ele>
        <time>2019-11-01T12:20:04Z</time>
      </trkpt>
      <trkpt lat="46.30349" lon="2.74765">
        <ele>368.3</ele>
        <time>2019-11-01T12:20:05Z</time>
      </trkpt>
      <trkpt lat="46.30355" lon="2.74767">
        <ele>368.4</ele>
      </trkpt>
      <trkpt lat="46.30361" lon="2.74767">
        <ele>368.6</ele>
      </trkpt>
      <trkpt lat="46.30365" lon="2.74767">
        <ele>369.1</ele>
      </trkpt>
      <trkpt lat="46.30371" lon="2.74766">
        <ele>369.3</ele>
      </trkpt>
      <trkpt lat="46.30378" lon="2.74767">
        <ele>369.6</ele>
      </trkpt>
      <trkpt lat="46.30383" lon="2.74769">
        <ele>369.8</ele>
      </trkpt>
      <trkpt lat="46.30389" lon="2.74771">
        <ele>370.1</ele>
      </trkpt>
      <trkpt lat="46.30393" lon="2.74774">
        <ele>370.4</ele>
      </trkpt>
      <trkpt lat="46.30396" lon="2.74777">
        <ele>370.6</ele>
      </trkpt>
      <trkpt lat="46.304" lon="2.7478">
        <ele>370.9</ele>
      </trkpt>
      <trkpt lat="46.30404" lon="2.74784">
        <ele>371.1</ele>
      </trkpt>
      <trkpt lat="46.30407" lon="2.74786">
        <ele>371.3</ele>
      </trkpt>
      <trkpt lat="46.3041" lon="2.74789">
        <ele>371.5</ele>
      </trkpt>
      <trkpt lat="46.30413" lon="2.74791">
        <ele>371.7</ele>
      </trkpt>
      <trkpt lat="46.30415" lon="2.74793">
        <ele>372</ele>
      </trkpt>
      <trkpt lat="46.30419" lon="2.74796">
        <ele>372.3</ele>
      </trkpt>
      <trkpt lat="46.30422" lon="2.74798">
        <ele>372.6</ele>
      </trkpt>
      <trkpt lat="46.30425" lon="2.748">
        <ele>372.8</ele>
      </trkpt>
      <trkpt lat="46.30427" lon="2.74802">
        <ele>373.1</ele>
      </trkpt>
      <trkpt lat="46.30429" lon="2.74804">
        <ele>373.3</ele>
      </trkpt>
      <trkpt lat="46.30433" lon="2.74807">
        <ele>373.7</ele>
      </trkpt>
      <trkpt lat="46.30436" lon="2.74809">
        <ele>374</ele>
      </trkpt>
      <trkpt lat="46.30438" lon="2.74811">
        <ele>374.3</ele>
      </trkpt>
      <trkpt lat="46.3044" lon="2.74813">
        <ele>374.6</ele>
      </trkpt>
      <trkpt lat="46.30444" lon="2.74816">
        <ele>375</ele>
      </trkpt>
      <trkpt lat="46.30446" lon="2.74818">
        <ele>375.1</ele>
      </trkpt>
      <trkpt lat="46.30449" lon="2.74821">
        <ele>375.3</ele>
      </trkpt>
      <trkpt lat="46.30452" lon="2.74822">
        <ele>375.4</ele>
      </trkpt>
      <trkpt lat="46.30455" lon="2.74825">
        <ele>375.6</ele>
      </trkpt>
      <trkpt lat="46.30458" lon="2.74828">
        <ele>375.8</ele>
      </trkpt>
      <trkpt lat="46.30461" lon="2.7483">
        <ele>376</ele>
      </trkpt>
      <trkpt lat="46.30464" lon="2.74832">
        <ele>376.1</ele>
      </trkpt>
      <trkpt lat="46.30467" lon="2.74834">
        <ele>376.2</ele>
      </trkpt>
      <trkpt lat="46.3047" lon="2.74837">
        <ele>376.3</ele>
      </trkpt>
      <trkpt lat="46.30473" lon="2.74839">
        <ele>376.5</ele>
      </trkpt>
      <trkpt lat="46.30476" lon="2.74842">
        <ele>376.6</ele>
      </trkpt>
      <trkpt lat="46.3048" lon="2.74845">
        <ele>376.7</ele>
      </trkpt>
      <trkpt lat="46.30482" lon="2.74847">
        <ele>376.8</ele>
      </trkpt>
      <trkpt lat="46.30485" lon="2.74851">
        <ele>377</ele>
      </trkpt>
      <trkpt lat="46.30488" lon="2.74855">
        <ele>377.1</ele>
      </trkpt>
      <trkpt lat="46.30491" lon="2.74859">
        <ele>377.3</ele>
      </trkpt>
      <trkpt lat="46.30493" lon="2.74864">
        <ele>377.4</ele>
      </trkpt>
      <trkpt lat="46.30495" lon="2.74868">
        <ele>377.6</ele>
      </trkpt>
      <trkpt lat="46.30497" lon="2.74872">
        <ele>377.7</ele>
      </trkpt>
      <trkpt lat="46.30499" lon="2.74876">
        <ele>377.9</ele>
      </trkpt>
      <trkpt lat="46.30502" lon="2.74882">
        <ele>378.2</ele>
      </trkpt>
      <trkpt lat="46.30504" lon="2.74886">
        <ele>378.4</ele>
      </trkpt>
      <trkpt lat="46.30506" lon="2.74891">
        <ele>378.6</ele>
      </trkpt>
      <trkpt lat="46.30508" lon="2.74895">
        <ele>378.7</ele>
      </trkpt>
      <trkpt lat="46.3051" lon="2.74899">
        <ele>378.8</ele>
      </trkpt>
      <trkpt lat="46.30513" lon="2.74905">
        <ele>379</ele>
      </trkpt>
      <trkpt lat="46.30515" lon="2.7491">
        <ele>379.1</ele>
      </trkpt>
      <trkpt lat="46.30517" lon="2.74914">
        <ele>379.3</ele>
      </trkpt>
      <trkpt lat="46.30519" lon="2.7492">
        <ele>379.5</ele>
      </trkpt>
      <trkpt lat="46.30521" lon="2.74925">
        <ele>379.7</ele>
      </trkpt>
      <trkpt lat="46.30524" lon="2.7493">
        <ele>379.8</ele>
      </trkpt>
      <trkpt lat="46.30526" lon="2.74935">
        <ele>379.9</ele>
      </trkpt>
      <trkpt lat="46.30527" lon="2.74939">
        <ele>380</ele>
      </trkpt>
      <trkpt lat="46.3053" lon="2.74945">
        <ele>380.1</ele>
      </trkpt>
      <trkpt lat="46.30531" lon="2.74949">
        <ele>380.2</ele>
      </trkpt>
      <trkpt lat="46.30534" lon="2.74955">
        <ele>380.3</ele>
      </trkpt>
      <trkpt lat="46.30536" lon="2.7496">
        <ele>380.5</ele>
      </trkpt>
      <trkpt lat="46.30539" lon="2.74965">
        <ele>380.7</ele>
      </trkpt>
      <trkpt lat="46.30541" lon="2.74969">
        <ele>380.8</ele>
      </trkpt>
      <trkpt lat="46.30543" lon="2.74975">
        <ele>381.1</ele>
      </trkpt>
      <trkpt lat="46.30545" lon="2.7498">
        <ele>381.3</ele>
      </trkpt>
      <trkpt lat="46.30547" lon="2.74985">
        <ele>381.6</ele>
      </trkpt>
      <trkpt lat="46.30549" lon="2.74989">
        <ele>381.8</ele>
      </trkpt>
      <trkpt lat="46.30551" lon="2.74994">
        <ele>382</ele>
      </trkpt>
      <trkpt lat="46.30554" lon="2.75">
        <ele>382.3</ele>
      </trkpt>
      <trkpt lat="46.30556" lon="2.75005">
        <ele>382.6</ele>
      </trkpt>
      <trkpt lat="46.30558" lon="2.7501">
        <ele>382.9</ele>
      </trkpt>
      <trkpt lat="46.3056" lon="2.75014">
        <ele>383</ele>
      </trkpt>
      <trkpt lat="46.30562" lon="2.75019">
        <ele>383.2</ele>
      </trkpt>
      <trkpt lat="46.30564" lon="2.75025">
        <ele>383.5</ele>
      </trkpt>
      <trkpt lat="46.30566" lon="2.7503">
        <ele>383.7</ele>
      </trkpt>
      <trkpt lat="46.30568" lon="2.75034">
        <ele>383.8</ele>
      </trkpt>
      <trkpt lat="46.3057" lon="2.75039">
        <ele>383.9</ele>
      </trkpt>
      <trkpt lat="46.30572" lon="2.75043">
        <ele>384</ele>
      </trkpt>
      <trkpt lat="46.30575" lon="2.75049">
        <ele>384.2</ele>
      </trkpt>
      <trkpt lat="46.30578" lon="2.75054">
        <ele>384.2</ele>
      </trkpt>
      <trkpt lat="46.3058" lon="2.75058">
        <ele>384.3</ele>
      </trkpt>
      <trkpt lat="46.30582" lon="2.75063">
        <ele>384.3</ele>
      </trkpt>
      <trkpt lat="46.30585" lon="2.75069">
        <ele>384.3</ele>
      </trkpt>
      <trkpt lat="46.30588" lon="2.75076">
        <ele>384.4</ele>
      </trkpt>
      <trkpt lat="46.30591" lon="2.75082">
        <ele>384.4</ele>
      </trkpt>
      <trkpt lat="46.30594" lon="2.75086">
        <ele>384.4</ele>
      </trkpt>
      <trkpt lat="46.30597" lon="2.75092">
        <ele>384.4</ele>
      </trkpt>
      <trkpt lat="46.30602" lon="2.751">
        <ele>384.4</ele>
      </trkpt>
      <trkpt lat="46.30606" lon="2.75106">
        <ele>384.4</ele>
      </trkpt>
      <trkpt lat="46.30611" lon="2.75112">
        <ele>384.3</ele>
      </trkpt>
      <trkpt lat="46.30614" lon="2.75118">
        <ele>384.3</ele>
      </trkpt>
      <trkpt lat="46.30619" lon="2.75125">
        <ele>384.3</ele>
      </trkpt>
      <trkpt lat="46.30624" lon="2.75134">
        <ele>384.1</ele>
      </trkpt>
      <trkpt lat="46.30627" lon="2.75142">
        <ele>383.9</ele>
      </trkpt>
      <trkpt lat="46.30631" lon="2.75151">
        <ele>383.7</ele>
      </trkpt>
      <trkpt lat="46.30633" lon="2.75159">
        <ele>383.4</ele>
      </trkpt>
      <trkpt lat="46.30636" lon="2.75169">
        <ele>383.1</ele>
      </trkpt>
      <trkpt lat="46.3064" lon="2.75181">
        <ele>382.6</ele>
      </trkpt>
      <trkpt lat="46.30647" lon="2.75219">
        <ele>379</ele>
      </trkpt>
      <trkpt lat="46.30656" lon="2.75249">
        <ele>378</ele>
      </trkpt>
      <trkpt lat="46.30664" lon="2.75263">
        <ele>376</ele>
      </trkpt>
      <trkpt lat="46.30671" lon="2.75272">
        <ele>376</ele>
      </trkpt>
      <trkpt lat="46.30678" lon="2.75279">
        <ele>375</ele>
      </trkpt>
      <trkpt lat="46.30693" lon="2.75289">
        <ele>375</ele>
      </trkpt>
      <trkpt lat="46.30714" lon="2.75297">
        <ele>374.3</ele>
      </trkpt>
      <trkpt lat="46.30739" lon="2.75307">
        <ele>373.6</ele>
      </trkpt>
      <trkpt lat="46.30768" lon="2.75321">
        <ele>373</ele>
      </trkpt>
      <trkpt lat="46.30779" lon="2.75326">
        <ele>373</ele>
      </trkpt>
      <trkpt lat="46.30805" lon="2.75338">
        <ele>368</ele>
      </trkpt>
      <trkpt lat="46.3088" lon="2.75366">
        <ele>367</ele>
      </trkpt>
      <trkpt lat="46.30909" lon="2.75373">
        <ele>366.6</ele>
      </trkpt>
    </trkseg>
  </trk>
</gpx>